<?xml version="1.0" encoding="UTF-8" standalone="no" ?>
<gpx xmlns="http://www.topografix.com/GPX/1/1" xmlns:xsi="http://www.w3.org/2001/XMLSchema-instance" xsi:schemaLocation="http://www.topografix.com/GPX/1/1 http://www.topografix.com/GPX/1/1/gpx.xsd" version="1.1" creator="VisuGPX - https://www.visugpx.com">
  <metadata>
    <name>2020/10/28 Gérardmer, Cascades et Rochers</name>
    <desc><![CDATA[Reconnaissance pour une future sortie CV]]></desc>
  </metadata>
  <trk>
    <name><![CDATA[2020/10/28 Gérardmer, Cascades et Rochers_1]]></name>
    <trkseg>
      <trkpt lat="48.07183" lon="6.83927">
        <ele>678</ele>
        <time>2020-10-28T08:47:26.772Z</time>
      </trkpt>
      <trkpt lat="48.07183" lon="6.83927">
        <ele>678</ele>
        <time>2020-10-28T08:47:27.774Z</time>
      </trkpt>
      <trkpt lat="48.07174" lon="6.83936">
        <ele>660</ele>
        <time>2020-10-28T08:47:29.774Z</time>
      </trkpt>
      <trkpt lat="48.07174" lon="6.83937">
        <ele>660</ele>
        <time>2020-10-28T08:47:30.774Z</time>
      </trkpt>
      <trkpt lat="48.07172" lon="6.83938">
        <ele>659</ele>
        <time>2020-10-28T08:47:31.774Z</time>
      </trkpt>
      <trkpt lat="48.07173" lon="6.83941">
        <ele>659</ele>
        <time>2020-10-28T08:47:32.774Z</time>
      </trkpt>
      <trkpt lat="48.07173" lon="6.83942">
        <ele>660</ele>
        <time>2020-10-28T08:47:33.774Z</time>
      </trkpt>
      <trkpt lat="48.07173" lon="6.83944">
        <ele>660</ele>
        <time>2020-10-28T08:47:34.774Z</time>
      </trkpt>
      <trkpt lat="48.07172" lon="6.83945">
        <ele>660</ele>
        <time>2020-10-28T08:47:35.773Z</time>
      </trkpt>
      <trkpt lat="48.07172" lon="6.83946">
        <ele>661</ele>
        <time>2020-10-28T08:47:36.774Z</time>
      </trkpt>
      <trkpt lat="48.07172" lon="6.83947">
        <ele>661</ele>
        <time>2020-10-28T08:47:37.773Z</time>
      </trkpt>
      <trkpt lat="48.07172" lon="6.83948">
        <ele>662</ele>
        <time>2020-10-28T08:47:38.774Z</time>
      </trkpt>
      <trkpt lat="48.07171" lon="6.83949">
        <ele>662</ele>
        <time>2020-10-28T08:47:39.774Z</time>
      </trkpt>
      <trkpt lat="48.0717" lon="6.83949">
        <ele>663</ele>
        <time>2020-10-28T08:47:40.774Z</time>
      </trkpt>
      <trkpt lat="48.07169" lon="6.8395">
        <ele>663</ele>
        <time>2020-10-28T08:47:41.774Z</time>
      </trkpt>
      <trkpt lat="48.07168" lon="6.83951">
        <ele>664</ele>
        <time>2020-10-28T08:47:42.774Z</time>
      </trkpt>
      <trkpt lat="48.07168" lon="6.83952">
        <ele>664</ele>
        <time>2020-10-28T08:47:43.774Z</time>
      </trkpt>
      <trkpt lat="48.07167" lon="6.83953">
        <ele>664</ele>
        <time>2020-10-28T08:47:44.774Z</time>
      </trkpt>
      <trkpt lat="48.07166" lon="6.83954">
        <ele>664</ele>
        <time>2020-10-28T08:47:45.773Z</time>
      </trkpt>
      <trkpt lat="48.07165" lon="6.83955">
        <ele>664</ele>
        <time>2020-10-28T08:47:46.774Z</time>
      </trkpt>
      <trkpt lat="48.07164" lon="6.83957">
        <ele>664</ele>
        <time>2020-10-28T08:47:47.774Z</time>
      </trkpt>
      <trkpt lat="48.07163" lon="6.83958">
        <ele>664</ele>
        <time>2020-10-28T08:47:48.774Z</time>
      </trkpt>
      <trkpt lat="48.07161" lon="6.83959">
        <ele>664</ele>
        <time>2020-10-28T08:47:49.774Z</time>
      </trkpt>
      <trkpt lat="48.0716" lon="6.83959">
        <ele>664</ele>
        <time>2020-10-28T08:47:50.773Z</time>
      </trkpt>
      <trkpt lat="48.07158" lon="6.83958">
        <ele>665</ele>
        <time>2020-10-28T08:47:51.773Z</time>
      </trkpt>
      <trkpt lat="48.07157" lon="6.83958">
        <ele>665</ele>
        <time>2020-10-28T08:47:52.774Z</time>
      </trkpt>
      <trkpt lat="48.07155" lon="6.83957">
        <ele>666</ele>
        <time>2020-10-28T08:47:53.774Z</time>
      </trkpt>
      <trkpt lat="48.07154" lon="6.83957">
        <ele>666</ele>
        <time>2020-10-28T08:47:54.774Z</time>
      </trkpt>
      <trkpt lat="48.07153" lon="6.83956">
        <ele>667</ele>
        <time>2020-10-28T08:47:55.774Z</time>
      </trkpt>
      <trkpt lat="48.07152" lon="6.83956">
        <ele>667</ele>
        <time>2020-10-28T08:47:56.773Z</time>
      </trkpt>
      <trkpt lat="48.07152" lon="6.83955">
        <ele>668</ele>
        <time>2020-10-28T08:47:57.773Z</time>
      </trkpt>
      <trkpt lat="48.07151" lon="6.83955">
        <ele>668</ele>
        <time>2020-10-28T08:47:58.774Z</time>
      </trkpt>
      <trkpt lat="48.07151" lon="6.83955">
        <ele>669</ele>
        <time>2020-10-28T08:47:59.774Z</time>
      </trkpt>
      <trkpt lat="48.07151" lon="6.83955">
        <ele>669</ele>
        <time>2020-10-28T08:48:00.773Z</time>
      </trkpt>
      <trkpt lat="48.0715" lon="6.83955">
        <ele>670</ele>
        <time>2020-10-28T08:48:01.774Z</time>
      </trkpt>
      <trkpt lat="48.0715" lon="6.83955">
        <ele>670</ele>
        <time>2020-10-28T08:48:02.774Z</time>
      </trkpt>
      <trkpt lat="48.0715" lon="6.83955">
        <ele>671</ele>
        <time>2020-10-28T08:48:03.773Z</time>
      </trkpt>
      <trkpt lat="48.0715" lon="6.83954">
        <ele>671</ele>
        <time>2020-10-28T08:48:04.774Z</time>
      </trkpt>
      <trkpt lat="48.0715" lon="6.83955">
        <ele>672</ele>
        <time>2020-10-28T08:48:05.774Z</time>
      </trkpt>
      <trkpt lat="48.0715" lon="6.83955">
        <ele>672</ele>
        <time>2020-10-28T08:48:06.774Z</time>
      </trkpt>
      <trkpt lat="48.0715" lon="6.83954">
        <ele>673</ele>
        <time>2020-10-28T08:48:07.774Z</time>
      </trkpt>
      <trkpt lat="48.07151" lon="6.83955">
        <ele>674</ele>
        <time>2020-10-28T08:48:08.774Z</time>
      </trkpt>
      <trkpt lat="48.07148" lon="6.83953">
        <ele>666</ele>
        <time>2020-10-28T08:48:09.775Z</time>
      </trkpt>
      <trkpt lat="48.07146" lon="6.83952">
        <ele>666</ele>
        <time>2020-10-28T08:48:10.774Z</time>
      </trkpt>
      <trkpt lat="48.07145" lon="6.83952">
        <ele>666</ele>
        <time>2020-10-28T08:48:11.774Z</time>
      </trkpt>
      <trkpt lat="48.07143" lon="6.83952">
        <ele>666</ele>
        <time>2020-10-28T08:48:12.775Z</time>
      </trkpt>
      <trkpt lat="48.07141" lon="6.83951">
        <ele>667</ele>
        <time>2020-10-28T08:48:13.774Z</time>
      </trkpt>
      <trkpt lat="48.0714" lon="6.8395">
        <ele>666</ele>
        <time>2020-10-28T08:48:14.775Z</time>
      </trkpt>
      <trkpt lat="48.07138" lon="6.8395">
        <ele>666</ele>
        <time>2020-10-28T08:48:15.775Z</time>
      </trkpt>
      <trkpt lat="48.07137" lon="6.8395">
        <ele>667</ele>
        <time>2020-10-28T08:48:16.774Z</time>
      </trkpt>
      <trkpt lat="48.07135" lon="6.8395">
        <ele>667</ele>
        <time>2020-10-28T08:48:17.775Z</time>
      </trkpt>
      <trkpt lat="48.07134" lon="6.83951">
        <ele>667</ele>
        <time>2020-10-28T08:48:18.775Z</time>
      </trkpt>
      <trkpt lat="48.07133" lon="6.83951">
        <ele>667</ele>
        <time>2020-10-28T08:48:19.775Z</time>
      </trkpt>
      <trkpt lat="48.07133" lon="6.83951">
        <ele>666</ele>
        <time>2020-10-28T08:48:20.774Z</time>
      </trkpt>
      <trkpt lat="48.07132" lon="6.8395">
        <ele>666</ele>
        <time>2020-10-28T08:48:21.775Z</time>
      </trkpt>
      <trkpt lat="48.07131" lon="6.8395">
        <ele>666</ele>
        <time>2020-10-28T08:48:22.775Z</time>
      </trkpt>
      <trkpt lat="48.0713" lon="6.83949">
        <ele>666</ele>
        <time>2020-10-28T08:48:23.775Z</time>
      </trkpt>
      <trkpt lat="48.0713" lon="6.83949">
        <ele>667</ele>
        <time>2020-10-28T08:48:24.775Z</time>
      </trkpt>
      <trkpt lat="48.07129" lon="6.83948">
        <ele>667</ele>
        <time>2020-10-28T08:48:25.775Z</time>
      </trkpt>
      <trkpt lat="48.07128" lon="6.83948">
        <ele>668</ele>
        <time>2020-10-28T08:48:26.775Z</time>
      </trkpt>
      <trkpt lat="48.07127" lon="6.83948">
        <ele>668</ele>
        <time>2020-10-28T08:48:27.775Z</time>
      </trkpt>
      <trkpt lat="48.07125" lon="6.83949">
        <ele>668</ele>
        <time>2020-10-28T08:48:28.775Z</time>
      </trkpt>
      <trkpt lat="48.07124" lon="6.83948">
        <ele>669</ele>
        <time>2020-10-28T08:48:29.775Z</time>
      </trkpt>
      <trkpt lat="48.07123" lon="6.83948">
        <ele>669</ele>
        <time>2020-10-28T08:48:30.775Z</time>
      </trkpt>
      <trkpt lat="48.07122" lon="6.83948">
        <ele>670</ele>
        <time>2020-10-28T08:48:31.774Z</time>
      </trkpt>
      <trkpt lat="48.0712" lon="6.83949">
        <ele>670</ele>
        <time>2020-10-28T08:48:32.774Z</time>
      </trkpt>
      <trkpt lat="48.0712" lon="6.83949">
        <ele>670</ele>
        <time>2020-10-28T08:48:33.775Z</time>
      </trkpt>
      <trkpt lat="48.07119" lon="6.83949">
        <ele>670</ele>
        <time>2020-10-28T08:48:34.775Z</time>
      </trkpt>
      <trkpt lat="48.07118" lon="6.83949">
        <ele>670</ele>
        <time>2020-10-28T08:48:35.774Z</time>
      </trkpt>
      <trkpt lat="48.07116" lon="6.83949">
        <ele>670</ele>
        <time>2020-10-28T08:48:36.775Z</time>
      </trkpt>
      <trkpt lat="48.07115" lon="6.83949">
        <ele>669</ele>
        <time>2020-10-28T08:48:37.775Z</time>
      </trkpt>
      <trkpt lat="48.07114" lon="6.83949">
        <ele>669</ele>
        <time>2020-10-28T08:48:38.775Z</time>
      </trkpt>
      <trkpt lat="48.07113" lon="6.83949">
        <ele>669</ele>
        <time>2020-10-28T08:48:39.775Z</time>
      </trkpt>
      <trkpt lat="48.07112" lon="6.83949">
        <ele>668</ele>
        <time>2020-10-28T08:48:40.775Z</time>
      </trkpt>
      <trkpt lat="48.07111" lon="6.83949">
        <ele>667</ele>
        <time>2020-10-28T08:48:41.775Z</time>
      </trkpt>
      <trkpt lat="48.0711" lon="6.83949">
        <ele>667</ele>
        <time>2020-10-28T08:48:42.775Z</time>
      </trkpt>
      <trkpt lat="48.07109" lon="6.8395">
        <ele>667</ele>
        <time>2020-10-28T08:48:43.774Z</time>
      </trkpt>
      <trkpt lat="48.07108" lon="6.83951">
        <ele>667</ele>
        <time>2020-10-28T08:48:44.775Z</time>
      </trkpt>
      <trkpt lat="48.07107" lon="6.83951">
        <ele>667</ele>
        <time>2020-10-28T08:48:45.774Z</time>
      </trkpt>
      <trkpt lat="48.07106" lon="6.83951">
        <ele>667</ele>
        <time>2020-10-28T08:48:46.775Z</time>
      </trkpt>
      <trkpt lat="48.07105" lon="6.83951">
        <ele>666</ele>
        <time>2020-10-28T08:48:47.775Z</time>
      </trkpt>
      <trkpt lat="48.07104" lon="6.8395">
        <ele>666</ele>
        <time>2020-10-28T08:48:48.775Z</time>
      </trkpt>
      <trkpt lat="48.07103" lon="6.8395">
        <ele>665</ele>
        <time>2020-10-28T08:48:49.775Z</time>
      </trkpt>
      <trkpt lat="48.07103" lon="6.83949">
        <ele>664</ele>
        <time>2020-10-28T08:48:50.774Z</time>
      </trkpt>
      <trkpt lat="48.07102" lon="6.83949">
        <ele>663</ele>
        <time>2020-10-28T08:48:51.774Z</time>
      </trkpt>
      <trkpt lat="48.07102" lon="6.83949">
        <ele>662</ele>
        <time>2020-10-28T08:48:52.774Z</time>
      </trkpt>
      <trkpt lat="48.07101" lon="6.83949">
        <ele>662</ele>
        <time>2020-10-28T08:48:53.775Z</time>
      </trkpt>
      <trkpt lat="48.071" lon="6.83948">
        <ele>661</ele>
        <time>2020-10-28T08:48:54.775Z</time>
      </trkpt>
      <trkpt lat="48.07099" lon="6.83949">
        <ele>661</ele>
        <time>2020-10-28T08:48:55.775Z</time>
      </trkpt>
      <trkpt lat="48.07098" lon="6.83949">
        <ele>660</ele>
        <time>2020-10-28T08:48:56.775Z</time>
      </trkpt>
      <trkpt lat="48.07097" lon="6.83949">
        <ele>660</ele>
        <time>2020-10-28T08:48:57.774Z</time>
      </trkpt>
      <trkpt lat="48.07096" lon="6.83949">
        <ele>659</ele>
        <time>2020-10-28T08:48:58.775Z</time>
      </trkpt>
      <trkpt lat="48.07096" lon="6.8395">
        <ele>659</ele>
        <time>2020-10-28T08:48:59.775Z</time>
      </trkpt>
      <trkpt lat="48.07095" lon="6.83949">
        <ele>659</ele>
        <time>2020-10-28T08:49:00.774Z</time>
      </trkpt>
      <trkpt lat="48.07094" lon="6.83949">
        <ele>659</ele>
        <time>2020-10-28T08:49:01.774Z</time>
      </trkpt>
      <trkpt lat="48.07093" lon="6.83949">
        <ele>659</ele>
        <time>2020-10-28T08:49:02.775Z</time>
      </trkpt>
      <trkpt lat="48.07091" lon="6.83949">
        <ele>659</ele>
        <time>2020-10-28T08:49:03.775Z</time>
      </trkpt>
      <trkpt lat="48.0709" lon="6.83949">
        <ele>659</ele>
        <time>2020-10-28T08:49:04.775Z</time>
      </trkpt>
      <trkpt lat="48.07088" lon="6.83949">
        <ele>660</ele>
        <time>2020-10-28T08:49:05.774Z</time>
      </trkpt>
      <trkpt lat="48.07087" lon="6.83949">
        <ele>661</ele>
        <time>2020-10-28T08:49:06.774Z</time>
      </trkpt>
      <trkpt lat="48.07086" lon="6.83949">
        <ele>662</ele>
        <time>2020-10-28T08:49:07.774Z</time>
      </trkpt>
      <trkpt lat="48.07084" lon="6.8395">
        <ele>662</ele>
        <time>2020-10-28T08:49:08.774Z</time>
      </trkpt>
      <trkpt lat="48.07083" lon="6.8395">
        <ele>663</ele>
        <time>2020-10-28T08:49:09.775Z</time>
      </trkpt>
      <trkpt lat="48.07082" lon="6.8395">
        <ele>663</ele>
        <time>2020-10-28T08:49:10.775Z</time>
      </trkpt>
      <trkpt lat="48.07081" lon="6.8395">
        <ele>664</ele>
        <time>2020-10-28T08:49:11.775Z</time>
      </trkpt>
      <trkpt lat="48.07079" lon="6.8395">
        <ele>664</ele>
        <time>2020-10-28T08:49:12.775Z</time>
      </trkpt>
      <trkpt lat="48.07078" lon="6.8395">
        <ele>665</ele>
        <time>2020-10-28T08:49:13.775Z</time>
      </trkpt>
      <trkpt lat="48.07077" lon="6.8395">
        <ele>665</ele>
        <time>2020-10-28T08:49:14.775Z</time>
      </trkpt>
      <trkpt lat="48.07076" lon="6.8395">
        <ele>666</ele>
        <time>2020-10-28T08:49:15.775Z</time>
      </trkpt>
      <trkpt lat="48.07074" lon="6.8395">
        <ele>666</ele>
        <time>2020-10-28T08:49:16.774Z</time>
      </trkpt>
      <trkpt lat="48.07073" lon="6.8395">
        <ele>666</ele>
        <time>2020-10-28T08:49:17.775Z</time>
      </trkpt>
      <trkpt lat="48.07071" lon="6.8395">
        <ele>665</ele>
        <time>2020-10-28T08:49:18.774Z</time>
      </trkpt>
      <trkpt lat="48.0707" lon="6.83951">
        <ele>665</ele>
        <time>2020-10-28T08:49:19.775Z</time>
      </trkpt>
      <trkpt lat="48.07069" lon="6.83951">
        <ele>664</ele>
        <time>2020-10-28T08:49:20.775Z</time>
      </trkpt>
      <trkpt lat="48.07067" lon="6.83951">
        <ele>664</ele>
        <time>2020-10-28T08:49:21.775Z</time>
      </trkpt>
      <trkpt lat="48.07066" lon="6.8395">
        <ele>664</ele>
        <time>2020-10-28T08:49:22.774Z</time>
      </trkpt>
      <trkpt lat="48.07065" lon="6.8395">
        <ele>664</ele>
        <time>2020-10-28T08:49:23.774Z</time>
      </trkpt>
      <trkpt lat="48.07064" lon="6.8395">
        <ele>664</ele>
        <time>2020-10-28T08:49:24.775Z</time>
      </trkpt>
      <trkpt lat="48.07063" lon="6.83949">
        <ele>664</ele>
        <time>2020-10-28T08:49:25.775Z</time>
      </trkpt>
      <trkpt lat="48.07062" lon="6.83948">
        <ele>664</ele>
        <time>2020-10-28T08:49:26.775Z</time>
      </trkpt>
      <trkpt lat="48.0706" lon="6.83948">
        <ele>665</ele>
        <time>2020-10-28T08:49:27.775Z</time>
      </trkpt>
      <trkpt lat="48.07059" lon="6.83948">
        <ele>665</ele>
        <time>2020-10-28T08:49:28.775Z</time>
      </trkpt>
      <trkpt lat="48.07058" lon="6.83948">
        <ele>665</ele>
        <time>2020-10-28T08:49:29.775Z</time>
      </trkpt>
      <trkpt lat="48.07057" lon="6.83948">
        <ele>666</ele>
        <time>2020-10-28T08:49:30.774Z</time>
      </trkpt>
      <trkpt lat="48.07055" lon="6.83949">
        <ele>667</ele>
        <time>2020-10-28T08:49:31.775Z</time>
      </trkpt>
      <trkpt lat="48.07054" lon="6.83949">
        <ele>667</ele>
        <time>2020-10-28T08:49:32.774Z</time>
      </trkpt>
      <trkpt lat="48.07053" lon="6.83949">
        <ele>668</ele>
        <time>2020-10-28T08:49:33.774Z</time>
      </trkpt>
      <trkpt lat="48.07052" lon="6.83949">
        <ele>668</ele>
        <time>2020-10-28T08:49:34.774Z</time>
      </trkpt>
      <trkpt lat="48.07051" lon="6.83949">
        <ele>668</ele>
        <time>2020-10-28T08:49:35.775Z</time>
      </trkpt>
      <trkpt lat="48.0705" lon="6.83949">
        <ele>668</ele>
        <time>2020-10-28T08:49:36.775Z</time>
      </trkpt>
      <trkpt lat="48.07048" lon="6.83949">
        <ele>669</ele>
        <time>2020-10-28T08:49:37.775Z</time>
      </trkpt>
      <trkpt lat="48.07047" lon="6.83949">
        <ele>669</ele>
        <time>2020-10-28T08:49:38.774Z</time>
      </trkpt>
      <trkpt lat="48.07046" lon="6.83949">
        <ele>669</ele>
        <time>2020-10-28T08:49:39.775Z</time>
      </trkpt>
      <trkpt lat="48.07045" lon="6.83949">
        <ele>669</ele>
        <time>2020-10-28T08:49:40.775Z</time>
      </trkpt>
      <trkpt lat="48.07044" lon="6.8395">
        <ele>669</ele>
        <time>2020-10-28T08:49:41.775Z</time>
      </trkpt>
      <trkpt lat="48.07044" lon="6.8395">
        <ele>668</ele>
        <time>2020-10-28T08:49:42.775Z</time>
      </trkpt>
      <trkpt lat="48.07043" lon="6.83951">
        <ele>668</ele>
        <time>2020-10-28T08:49:43.775Z</time>
      </trkpt>
      <trkpt lat="48.07042" lon="6.83951">
        <ele>668</ele>
        <time>2020-10-28T08:49:44.775Z</time>
      </trkpt>
      <trkpt lat="48.07042" lon="6.83951">
        <ele>668</ele>
        <time>2020-10-28T08:49:45.775Z</time>
      </trkpt>
      <trkpt lat="48.07041" lon="6.83952">
        <ele>668</ele>
        <time>2020-10-28T08:49:46.775Z</time>
      </trkpt>
      <trkpt lat="48.07041" lon="6.83952">
        <ele>668</ele>
        <time>2020-10-28T08:49:47.774Z</time>
      </trkpt>
      <trkpt lat="48.07041" lon="6.83952">
        <ele>667</ele>
        <time>2020-10-28T08:49:48.775Z</time>
      </trkpt>
      <trkpt lat="48.07041" lon="6.83953">
        <ele>667</ele>
        <time>2020-10-28T08:49:49.775Z</time>
      </trkpt>
      <trkpt lat="48.07043" lon="6.83956">
        <ele>666</ele>
        <time>2020-10-28T08:49:50.776Z</time>
      </trkpt>
      <trkpt lat="48.07043" lon="6.83956">
        <ele>666</ele>
        <time>2020-10-28T08:49:51.775Z</time>
      </trkpt>
      <trkpt lat="48.07038" lon="6.83954">
        <ele>665</ele>
        <time>2020-10-28T08:49:52.776Z</time>
      </trkpt>
      <trkpt lat="48.07037" lon="6.83954">
        <ele>665</ele>
        <time>2020-10-28T08:49:53.775Z</time>
      </trkpt>
      <trkpt lat="48.07035" lon="6.83954">
        <ele>665</ele>
        <time>2020-10-28T08:49:54.776Z</time>
      </trkpt>
      <trkpt lat="48.07034" lon="6.83955">
        <ele>665</ele>
        <time>2020-10-28T08:49:55.776Z</time>
      </trkpt>
      <trkpt lat="48.07033" lon="6.83956">
        <ele>665</ele>
        <time>2020-10-28T08:49:56.776Z</time>
      </trkpt>
      <trkpt lat="48.07031" lon="6.83956">
        <ele>665</ele>
        <time>2020-10-28T08:49:57.776Z</time>
      </trkpt>
      <trkpt lat="48.0703" lon="6.83956">
        <ele>665</ele>
        <time>2020-10-28T08:49:58.776Z</time>
      </trkpt>
      <trkpt lat="48.07029" lon="6.83955">
        <ele>665</ele>
        <time>2020-10-28T08:49:59.775Z</time>
      </trkpt>
      <trkpt lat="48.07028" lon="6.83956">
        <ele>665</ele>
        <time>2020-10-28T08:50:00.776Z</time>
      </trkpt>
      <trkpt lat="48.07027" lon="6.83956">
        <ele>665</ele>
        <time>2020-10-28T08:50:01.775Z</time>
      </trkpt>
      <trkpt lat="48.07026" lon="6.83956">
        <ele>665</ele>
        <time>2020-10-28T08:50:02.776Z</time>
      </trkpt>
      <trkpt lat="48.07025" lon="6.83956">
        <ele>665</ele>
        <time>2020-10-28T08:50:03.776Z</time>
      </trkpt>
      <trkpt lat="48.07024" lon="6.83956">
        <ele>664</ele>
        <time>2020-10-28T08:50:04.776Z</time>
      </trkpt>
      <trkpt lat="48.07023" lon="6.83955">
        <ele>664</ele>
        <time>2020-10-28T08:50:05.775Z</time>
      </trkpt>
      <trkpt lat="48.07022" lon="6.83955">
        <ele>664</ele>
        <time>2020-10-28T08:50:06.776Z</time>
      </trkpt>
      <trkpt lat="48.07021" lon="6.83954">
        <ele>664</ele>
        <time>2020-10-28T08:50:07.776Z</time>
      </trkpt>
      <trkpt lat="48.0702" lon="6.83954">
        <ele>664</ele>
        <time>2020-10-28T08:50:08.776Z</time>
      </trkpt>
      <trkpt lat="48.07019" lon="6.83953">
        <ele>664</ele>
        <time>2020-10-28T08:50:09.776Z</time>
      </trkpt>
      <trkpt lat="48.07017" lon="6.83953">
        <ele>664</ele>
        <time>2020-10-28T08:50:10.776Z</time>
      </trkpt>
      <trkpt lat="48.07016" lon="6.83953">
        <ele>664</ele>
        <time>2020-10-28T08:50:11.776Z</time>
      </trkpt>
      <trkpt lat="48.07015" lon="6.83953">
        <ele>665</ele>
        <time>2020-10-28T08:50:12.776Z</time>
      </trkpt>
      <trkpt lat="48.07014" lon="6.83953">
        <ele>665</ele>
        <time>2020-10-28T08:50:13.776Z</time>
      </trkpt>
      <trkpt lat="48.07013" lon="6.83953">
        <ele>665</ele>
        <time>2020-10-28T08:50:14.776Z</time>
      </trkpt>
      <trkpt lat="48.07011" lon="6.83953">
        <ele>665</ele>
        <time>2020-10-28T08:50:15.775Z</time>
      </trkpt>
      <trkpt lat="48.0701" lon="6.83953">
        <ele>665</ele>
        <time>2020-10-28T08:50:16.776Z</time>
      </trkpt>
      <trkpt lat="48.07009" lon="6.83953">
        <ele>665</ele>
        <time>2020-10-28T08:50:17.776Z</time>
      </trkpt>
      <trkpt lat="48.07008" lon="6.83952">
        <ele>665</ele>
        <time>2020-10-28T08:50:18.775Z</time>
      </trkpt>
      <trkpt lat="48.07007" lon="6.83952">
        <ele>665</ele>
        <time>2020-10-28T08:50:19.776Z</time>
      </trkpt>
      <trkpt lat="48.07006" lon="6.83952">
        <ele>665</ele>
        <time>2020-10-28T08:50:20.776Z</time>
      </trkpt>
      <trkpt lat="48.07006" lon="6.83952">
        <ele>665</ele>
        <time>2020-10-28T08:50:21.776Z</time>
      </trkpt>
      <trkpt lat="48.07005" lon="6.83953">
        <ele>664</ele>
        <time>2020-10-28T08:50:22.776Z</time>
      </trkpt>
      <trkpt lat="48.07004" lon="6.83954">
        <ele>664</ele>
        <time>2020-10-28T08:50:23.776Z</time>
      </trkpt>
      <trkpt lat="48.07003" lon="6.83954">
        <ele>664</ele>
        <time>2020-10-28T08:50:24.776Z</time>
      </trkpt>
      <trkpt lat="48.07002" lon="6.83954">
        <ele>664</ele>
        <time>2020-10-28T08:50:25.776Z</time>
      </trkpt>
      <trkpt lat="48.07" lon="6.83954">
        <ele>664</ele>
        <time>2020-10-28T08:50:26.776Z</time>
      </trkpt>
      <trkpt lat="48.06999" lon="6.83954">
        <ele>664</ele>
        <time>2020-10-28T08:50:27.775Z</time>
      </trkpt>
      <trkpt lat="48.06998" lon="6.83955">
        <ele>664</ele>
        <time>2020-10-28T08:50:28.776Z</time>
      </trkpt>
      <trkpt lat="48.06996" lon="6.83955">
        <ele>665</ele>
        <time>2020-10-28T08:50:29.776Z</time>
      </trkpt>
      <trkpt lat="48.06995" lon="6.83955">
        <ele>665</ele>
        <time>2020-10-28T08:50:30.776Z</time>
      </trkpt>
      <trkpt lat="48.06994" lon="6.83955">
        <ele>666</ele>
        <time>2020-10-28T08:50:31.776Z</time>
      </trkpt>
      <trkpt lat="48.06993" lon="6.83956">
        <ele>666</ele>
        <time>2020-10-28T08:50:32.776Z</time>
      </trkpt>
      <trkpt lat="48.06991" lon="6.83956">
        <ele>667</ele>
        <time>2020-10-28T08:50:33.776Z</time>
      </trkpt>
      <trkpt lat="48.0699" lon="6.83956">
        <ele>667</ele>
        <time>2020-10-28T08:50:34.776Z</time>
      </trkpt>
      <trkpt lat="48.06989" lon="6.83956">
        <ele>667</ele>
        <time>2020-10-28T08:50:35.776Z</time>
      </trkpt>
      <trkpt lat="48.06988" lon="6.83957">
        <ele>667</ele>
        <time>2020-10-28T08:50:36.776Z</time>
      </trkpt>
      <trkpt lat="48.06988" lon="6.83957">
        <ele>667</ele>
        <time>2020-10-28T08:50:37.776Z</time>
      </trkpt>
      <trkpt lat="48.06987" lon="6.83958">
        <ele>667</ele>
        <time>2020-10-28T08:50:38.776Z</time>
      </trkpt>
      <trkpt lat="48.06986" lon="6.83958">
        <ele>667</ele>
        <time>2020-10-28T08:50:39.776Z</time>
      </trkpt>
      <trkpt lat="48.06986" lon="6.83958">
        <ele>667</ele>
        <time>2020-10-28T08:50:40.775Z</time>
      </trkpt>
      <trkpt lat="48.06985" lon="6.83957">
        <ele>667</ele>
        <time>2020-10-28T08:50:41.776Z</time>
      </trkpt>
      <trkpt lat="48.06983" lon="6.83955">
        <ele>666</ele>
        <time>2020-10-28T08:50:42.776Z</time>
      </trkpt>
      <trkpt lat="48.06981" lon="6.83954">
        <ele>666</ele>
        <time>2020-10-28T08:50:43.776Z</time>
      </trkpt>
      <trkpt lat="48.0698" lon="6.83954">
        <ele>665</ele>
        <time>2020-10-28T08:50:44.775Z</time>
      </trkpt>
      <trkpt lat="48.06979" lon="6.83954">
        <ele>665</ele>
        <time>2020-10-28T08:50:45.776Z</time>
      </trkpt>
      <trkpt lat="48.06979" lon="6.83954">
        <ele>665</ele>
        <time>2020-10-28T08:50:46.776Z</time>
      </trkpt>
      <trkpt lat="48.06978" lon="6.83955">
        <ele>665</ele>
        <time>2020-10-28T08:50:47.776Z</time>
      </trkpt>
      <trkpt lat="48.06978" lon="6.83957">
        <ele>665</ele>
        <time>2020-10-28T08:50:48.776Z</time>
      </trkpt>
      <trkpt lat="48.06977" lon="6.83958">
        <ele>665</ele>
        <time>2020-10-28T08:50:49.776Z</time>
      </trkpt>
      <trkpt lat="48.06976" lon="6.83959">
        <ele>665</ele>
        <time>2020-10-28T08:50:50.776Z</time>
      </trkpt>
      <trkpt lat="48.06975" lon="6.8396">
        <ele>665</ele>
        <time>2020-10-28T08:50:51.776Z</time>
      </trkpt>
      <trkpt lat="48.06974" lon="6.83961">
        <ele>665</ele>
        <time>2020-10-28T08:50:52.776Z</time>
      </trkpt>
      <trkpt lat="48.06972" lon="6.83962">
        <ele>665</ele>
        <time>2020-10-28T08:50:53.776Z</time>
      </trkpt>
      <trkpt lat="48.06971" lon="6.83963">
        <ele>665</ele>
        <time>2020-10-28T08:50:54.775Z</time>
      </trkpt>
      <trkpt lat="48.0697" lon="6.83965">
        <ele>665</ele>
        <time>2020-10-28T08:50:55.776Z</time>
      </trkpt>
      <trkpt lat="48.06969" lon="6.83965">
        <ele>665</ele>
        <time>2020-10-28T08:50:56.776Z</time>
      </trkpt>
      <trkpt lat="48.06968" lon="6.83966">
        <ele>665</ele>
        <time>2020-10-28T08:50:57.776Z</time>
      </trkpt>
      <trkpt lat="48.06967" lon="6.83966">
        <ele>665</ele>
        <time>2020-10-28T08:50:58.775Z</time>
      </trkpt>
      <trkpt lat="48.06967" lon="6.83966">
        <ele>665</ele>
        <time>2020-10-28T08:50:59.775Z</time>
      </trkpt>
      <trkpt lat="48.06966" lon="6.83966">
        <ele>665</ele>
        <time>2020-10-28T08:51:00.776Z</time>
      </trkpt>
      <trkpt lat="48.06966" lon="6.83966">
        <ele>665</ele>
        <time>2020-10-28T08:51:01.776Z</time>
      </trkpt>
      <trkpt lat="48.06965" lon="6.83966">
        <ele>666</ele>
        <time>2020-10-28T08:51:02.777Z</time>
      </trkpt>
      <trkpt lat="48.06964" lon="6.83966">
        <ele>665</ele>
        <time>2020-10-28T08:51:03.777Z</time>
      </trkpt>
      <trkpt lat="48.06962" lon="6.83966">
        <ele>666</ele>
        <time>2020-10-28T08:51:04.777Z</time>
      </trkpt>
      <trkpt lat="48.06961" lon="6.83967">
        <ele>666</ele>
        <time>2020-10-28T08:51:05.776Z</time>
      </trkpt>
      <trkpt lat="48.0696" lon="6.83968">
        <ele>666</ele>
        <time>2020-10-28T08:51:06.776Z</time>
      </trkpt>
      <trkpt lat="48.06959" lon="6.83969">
        <ele>666</ele>
        <time>2020-10-28T08:51:07.776Z</time>
      </trkpt>
      <trkpt lat="48.06957" lon="6.83969">
        <ele>667</ele>
        <time>2020-10-28T08:51:08.777Z</time>
      </trkpt>
      <trkpt lat="48.06956" lon="6.8397">
        <ele>667</ele>
        <time>2020-10-28T08:51:09.777Z</time>
      </trkpt>
      <trkpt lat="48.06955" lon="6.83971">
        <ele>667</ele>
        <time>2020-10-28T08:51:10.777Z</time>
      </trkpt>
      <trkpt lat="48.06954" lon="6.83972">
        <ele>668</ele>
        <time>2020-10-28T08:51:11.776Z</time>
      </trkpt>
      <trkpt lat="48.06953" lon="6.83972">
        <ele>668</ele>
        <time>2020-10-28T08:51:12.777Z</time>
      </trkpt>
      <trkpt lat="48.06952" lon="6.83972">
        <ele>668</ele>
        <time>2020-10-28T08:51:13.776Z</time>
      </trkpt>
      <trkpt lat="48.06951" lon="6.83972">
        <ele>667</ele>
        <time>2020-10-28T08:51:14.777Z</time>
      </trkpt>
      <trkpt lat="48.06951" lon="6.83973">
        <ele>667</ele>
        <time>2020-10-28T08:51:15.777Z</time>
      </trkpt>
      <trkpt lat="48.0695" lon="6.83973">
        <ele>666</ele>
        <time>2020-10-28T08:51:16.777Z</time>
      </trkpt>
      <trkpt lat="48.06949" lon="6.83974">
        <ele>666</ele>
        <time>2020-10-28T08:51:17.777Z</time>
      </trkpt>
      <trkpt lat="48.06948" lon="6.83974">
        <ele>666</ele>
        <time>2020-10-28T08:51:18.777Z</time>
      </trkpt>
      <trkpt lat="48.06947" lon="6.83974">
        <ele>666</ele>
        <time>2020-10-28T08:51:19.777Z</time>
      </trkpt>
      <trkpt lat="48.06946" lon="6.83974">
        <ele>667</ele>
        <time>2020-10-28T08:51:20.777Z</time>
      </trkpt>
      <trkpt lat="48.06945" lon="6.83974">
        <ele>666</ele>
        <time>2020-10-28T08:51:21.777Z</time>
      </trkpt>
      <trkpt lat="48.06944" lon="6.83974">
        <ele>666</ele>
        <time>2020-10-28T08:51:22.777Z</time>
      </trkpt>
      <trkpt lat="48.06944" lon="6.83973">
        <ele>666</ele>
        <time>2020-10-28T08:51:23.776Z</time>
      </trkpt>
      <trkpt lat="48.06944" lon="6.83974">
        <ele>666</ele>
        <time>2020-10-28T08:51:24.777Z</time>
      </trkpt>
      <trkpt lat="48.06944" lon="6.83974">
        <ele>666</ele>
        <time>2020-10-28T08:51:25.777Z</time>
      </trkpt>
      <trkpt lat="48.06944" lon="6.83973">
        <ele>667</ele>
        <time>2020-10-28T08:51:26.778Z</time>
      </trkpt>
      <trkpt lat="48.06944" lon="6.83972">
        <ele>666</ele>
        <time>2020-10-28T08:51:27.778Z</time>
      </trkpt>
      <trkpt lat="48.06944" lon="6.83972">
        <ele>666</ele>
        <time>2020-10-28T08:51:28.777Z</time>
      </trkpt>
      <trkpt lat="48.06938" lon="6.83976">
        <ele>665</ele>
        <time>2020-10-28T08:51:29.777Z</time>
      </trkpt>
      <trkpt lat="48.06936" lon="6.83977">
        <ele>665</ele>
        <time>2020-10-28T08:51:30.777Z</time>
      </trkpt>
      <trkpt lat="48.06935" lon="6.83978">
        <ele>665</ele>
        <time>2020-10-28T08:51:31.777Z</time>
      </trkpt>
      <trkpt lat="48.06933" lon="6.83979">
        <ele>665</ele>
        <time>2020-10-28T08:51:32.777Z</time>
      </trkpt>
      <trkpt lat="48.06931" lon="6.8398">
        <ele>666</ele>
        <time>2020-10-28T08:51:33.777Z</time>
      </trkpt>
      <trkpt lat="48.06929" lon="6.83981">
        <ele>666</ele>
        <time>2020-10-28T08:51:34.777Z</time>
      </trkpt>
      <trkpt lat="48.06927" lon="6.83982">
        <ele>667</ele>
        <time>2020-10-28T08:51:35.778Z</time>
      </trkpt>
      <trkpt lat="48.06926" lon="6.83983">
        <ele>667</ele>
        <time>2020-10-28T08:51:36.778Z</time>
      </trkpt>
      <trkpt lat="48.06925" lon="6.83984">
        <ele>667</ele>
        <time>2020-10-28T08:51:37.778Z</time>
      </trkpt>
      <trkpt lat="48.06925" lon="6.83985">
        <ele>666</ele>
        <time>2020-10-28T08:51:38.777Z</time>
      </trkpt>
      <trkpt lat="48.06924" lon="6.83986">
        <ele>666</ele>
        <time>2020-10-28T08:51:39.778Z</time>
      </trkpt>
      <trkpt lat="48.06923" lon="6.83987">
        <ele>665</ele>
        <time>2020-10-28T08:51:40.778Z</time>
      </trkpt>
      <trkpt lat="48.06922" lon="6.83988">
        <ele>665</ele>
        <time>2020-10-28T08:51:41.778Z</time>
      </trkpt>
      <trkpt lat="48.0692" lon="6.83989">
        <ele>665</ele>
        <time>2020-10-28T08:51:42.778Z</time>
      </trkpt>
      <trkpt lat="48.06919" lon="6.8399">
        <ele>665</ele>
        <time>2020-10-28T08:51:43.778Z</time>
      </trkpt>
      <trkpt lat="48.06918" lon="6.83991">
        <ele>665</ele>
        <time>2020-10-28T08:51:44.777Z</time>
      </trkpt>
      <trkpt lat="48.06916" lon="6.83992">
        <ele>665</ele>
        <time>2020-10-28T08:51:45.777Z</time>
      </trkpt>
      <trkpt lat="48.06914" lon="6.83993">
        <ele>665</ele>
        <time>2020-10-28T08:51:46.777Z</time>
      </trkpt>
      <trkpt lat="48.06913" lon="6.83994">
        <ele>665</ele>
        <time>2020-10-28T08:51:47.778Z</time>
      </trkpt>
      <trkpt lat="48.06913" lon="6.83995">
        <ele>665</ele>
        <time>2020-10-28T08:51:48.778Z</time>
      </trkpt>
      <trkpt lat="48.06912" lon="6.83997">
        <ele>665</ele>
        <time>2020-10-28T08:51:49.777Z</time>
      </trkpt>
      <trkpt lat="48.06911" lon="6.83999">
        <ele>665</ele>
        <time>2020-10-28T08:51:50.777Z</time>
      </trkpt>
      <trkpt lat="48.0691" lon="6.84">
        <ele>665</ele>
        <time>2020-10-28T08:51:51.777Z</time>
      </trkpt>
      <trkpt lat="48.06909" lon="6.84001">
        <ele>665</ele>
        <time>2020-10-28T08:51:52.777Z</time>
      </trkpt>
      <trkpt lat="48.06908" lon="6.84002">
        <ele>665</ele>
        <time>2020-10-28T08:51:53.778Z</time>
      </trkpt>
      <trkpt lat="48.06907" lon="6.84004">
        <ele>665</ele>
        <time>2020-10-28T08:51:54.778Z</time>
      </trkpt>
      <trkpt lat="48.06907" lon="6.84006">
        <ele>665</ele>
        <time>2020-10-28T08:51:55.777Z</time>
      </trkpt>
      <trkpt lat="48.06906" lon="6.84007">
        <ele>665</ele>
        <time>2020-10-28T08:51:56.778Z</time>
      </trkpt>
      <trkpt lat="48.06905" lon="6.84009">
        <ele>665</ele>
        <time>2020-10-28T08:51:57.778Z</time>
      </trkpt>
      <trkpt lat="48.06904" lon="6.84011">
        <ele>665</ele>
        <time>2020-10-28T08:51:58.777Z</time>
      </trkpt>
      <trkpt lat="48.06903" lon="6.84012">
        <ele>665</ele>
        <time>2020-10-28T08:51:59.778Z</time>
      </trkpt>
      <trkpt lat="48.06902" lon="6.84014">
        <ele>666</ele>
        <time>2020-10-28T08:52:00.778Z</time>
      </trkpt>
      <trkpt lat="48.06901" lon="6.84015">
        <ele>666</ele>
        <time>2020-10-28T08:52:01.778Z</time>
      </trkpt>
      <trkpt lat="48.069" lon="6.84017">
        <ele>665</ele>
        <time>2020-10-28T08:52:02.777Z</time>
      </trkpt>
      <trkpt lat="48.06899" lon="6.84018">
        <ele>665</ele>
        <time>2020-10-28T08:52:03.778Z</time>
      </trkpt>
      <trkpt lat="48.06898" lon="6.8402">
        <ele>665</ele>
        <time>2020-10-28T08:52:04.778Z</time>
      </trkpt>
      <trkpt lat="48.06897" lon="6.84021">
        <ele>665</ele>
        <time>2020-10-28T08:52:05.777Z</time>
      </trkpt>
      <trkpt lat="48.06896" lon="6.84023">
        <ele>665</ele>
        <time>2020-10-28T08:52:06.778Z</time>
      </trkpt>
      <trkpt lat="48.06896" lon="6.84024">
        <ele>664</ele>
        <time>2020-10-28T08:52:07.777Z</time>
      </trkpt>
      <trkpt lat="48.06896" lon="6.84026">
        <ele>664</ele>
        <time>2020-10-28T08:52:08.777Z</time>
      </trkpt>
      <trkpt lat="48.06896" lon="6.84027">
        <ele>664</ele>
        <time>2020-10-28T08:52:09.778Z</time>
      </trkpt>
      <trkpt lat="48.06896" lon="6.84029">
        <ele>664</ele>
        <time>2020-10-28T08:52:10.777Z</time>
      </trkpt>
      <trkpt lat="48.06896" lon="6.84031">
        <ele>664</ele>
        <time>2020-10-28T08:52:11.777Z</time>
      </trkpt>
      <trkpt lat="48.06895" lon="6.84032">
        <ele>664</ele>
        <time>2020-10-28T08:52:12.778Z</time>
      </trkpt>
      <trkpt lat="48.06895" lon="6.84033">
        <ele>664</ele>
        <time>2020-10-28T08:52:13.777Z</time>
      </trkpt>
      <trkpt lat="48.06894" lon="6.84035">
        <ele>665</ele>
        <time>2020-10-28T08:52:14.777Z</time>
      </trkpt>
      <trkpt lat="48.06894" lon="6.84035">
        <ele>665</ele>
        <time>2020-10-28T08:52:15.777Z</time>
      </trkpt>
      <trkpt lat="48.06894" lon="6.84036">
        <ele>665</ele>
        <time>2020-10-28T08:52:16.778Z</time>
      </trkpt>
      <trkpt lat="48.06895" lon="6.84036">
        <ele>666</ele>
        <time>2020-10-28T08:52:17.778Z</time>
      </trkpt>
      <trkpt lat="48.06895" lon="6.84035">
        <ele>666</ele>
        <time>2020-10-28T08:52:18.777Z</time>
      </trkpt>
      <trkpt lat="48.06892" lon="6.84032">
        <ele>667</ele>
        <time>2020-10-28T08:52:19.778Z</time>
      </trkpt>
      <trkpt lat="48.06892" lon="6.84031">
        <ele>667</ele>
        <time>2020-10-28T08:52:20.777Z</time>
      </trkpt>
      <trkpt lat="48.06892" lon="6.84033">
        <ele>665</ele>
        <time>2020-10-28T08:52:21.777Z</time>
      </trkpt>
      <trkpt lat="48.06892" lon="6.84035">
        <ele>665</ele>
        <time>2020-10-28T08:52:22.777Z</time>
      </trkpt>
      <trkpt lat="48.06892" lon="6.84037">
        <ele>665</ele>
        <time>2020-10-28T08:52:23.777Z</time>
      </trkpt>
      <trkpt lat="48.06891" lon="6.84039">
        <ele>665</ele>
        <time>2020-10-28T08:52:24.778Z</time>
      </trkpt>
      <trkpt lat="48.0689" lon="6.8404">
        <ele>665</ele>
        <time>2020-10-28T08:52:25.778Z</time>
      </trkpt>
      <trkpt lat="48.0689" lon="6.84041">
        <ele>666</ele>
        <time>2020-10-28T08:52:26.777Z</time>
      </trkpt>
      <trkpt lat="48.06889" lon="6.84043">
        <ele>666</ele>
        <time>2020-10-28T08:52:27.778Z</time>
      </trkpt>
      <trkpt lat="48.06889" lon="6.84044">
        <ele>666</ele>
        <time>2020-10-28T08:52:28.777Z</time>
      </trkpt>
      <trkpt lat="48.06888" lon="6.84044">
        <ele>666</ele>
        <time>2020-10-28T08:52:29.777Z</time>
      </trkpt>
      <trkpt lat="48.06889" lon="6.84045">
        <ele>666</ele>
        <time>2020-10-28T08:52:30.777Z</time>
      </trkpt>
      <trkpt lat="48.06889" lon="6.84045">
        <ele>666</ele>
        <time>2020-10-28T08:52:31.777Z</time>
      </trkpt>
      <trkpt lat="48.06889" lon="6.84046">
        <ele>666</ele>
        <time>2020-10-28T08:52:32.777Z</time>
      </trkpt>
      <trkpt lat="48.06888" lon="6.8405">
        <ele>671</ele>
        <time>2020-10-28T08:52:33.778Z</time>
      </trkpt>
      <trkpt lat="48.06887" lon="6.84051">
        <ele>671</ele>
        <time>2020-10-28T08:52:34.778Z</time>
      </trkpt>
      <trkpt lat="48.06886" lon="6.84052">
        <ele>671</ele>
        <time>2020-10-28T08:52:35.777Z</time>
      </trkpt>
      <trkpt lat="48.06885" lon="6.84054">
        <ele>671</ele>
        <time>2020-10-28T08:52:36.777Z</time>
      </trkpt>
      <trkpt lat="48.06884" lon="6.84055">
        <ele>670</ele>
        <time>2020-10-28T08:52:37.777Z</time>
      </trkpt>
      <trkpt lat="48.06884" lon="6.84057">
        <ele>670</ele>
        <time>2020-10-28T08:52:38.777Z</time>
      </trkpt>
      <trkpt lat="48.06882" lon="6.84059">
        <ele>670</ele>
        <time>2020-10-28T08:52:39.777Z</time>
      </trkpt>
      <trkpt lat="48.06881" lon="6.8406">
        <ele>669</ele>
        <time>2020-10-28T08:52:40.777Z</time>
      </trkpt>
      <trkpt lat="48.06881" lon="6.84061">
        <ele>669</ele>
        <time>2020-10-28T08:52:41.777Z</time>
      </trkpt>
      <trkpt lat="48.0688" lon="6.84062">
        <ele>670</ele>
        <time>2020-10-28T08:52:42.777Z</time>
      </trkpt>
      <trkpt lat="48.06879" lon="6.84063">
        <ele>670</ele>
        <time>2020-10-28T08:52:43.777Z</time>
      </trkpt>
      <trkpt lat="48.06878" lon="6.84065">
        <ele>670</ele>
        <time>2020-10-28T08:52:44.777Z</time>
      </trkpt>
      <trkpt lat="48.06877" lon="6.84067">
        <ele>670</ele>
        <time>2020-10-28T08:52:45.777Z</time>
      </trkpt>
      <trkpt lat="48.06875" lon="6.84069">
        <ele>669</ele>
        <time>2020-10-28T08:52:46.777Z</time>
      </trkpt>
      <trkpt lat="48.06873" lon="6.8407">
        <ele>669</ele>
        <time>2020-10-28T08:52:47.778Z</time>
      </trkpt>
      <trkpt lat="48.06872" lon="6.84071">
        <ele>669</ele>
        <time>2020-10-28T08:52:48.778Z</time>
      </trkpt>
      <trkpt lat="48.06871" lon="6.84072">
        <ele>670</ele>
        <time>2020-10-28T08:52:49.777Z</time>
      </trkpt>
      <trkpt lat="48.0687" lon="6.84074">
        <ele>670</ele>
        <time>2020-10-28T08:52:50.777Z</time>
      </trkpt>
      <trkpt lat="48.0687" lon="6.84076">
        <ele>670</ele>
        <time>2020-10-28T08:52:51.778Z</time>
      </trkpt>
      <trkpt lat="48.06869" lon="6.84078">
        <ele>670</ele>
        <time>2020-10-28T08:52:52.777Z</time>
      </trkpt>
      <trkpt lat="48.06868" lon="6.84079">
        <ele>670</ele>
        <time>2020-10-28T08:52:53.778Z</time>
      </trkpt>
      <trkpt lat="48.06867" lon="6.84081">
        <ele>670</ele>
        <time>2020-10-28T08:52:54.777Z</time>
      </trkpt>
      <trkpt lat="48.06866" lon="6.84083">
        <ele>670</ele>
        <time>2020-10-28T08:52:55.778Z</time>
      </trkpt>
      <trkpt lat="48.06865" lon="6.84084">
        <ele>670</ele>
        <time>2020-10-28T08:52:56.777Z</time>
      </trkpt>
      <trkpt lat="48.06865" lon="6.84087">
        <ele>670</ele>
        <time>2020-10-28T08:52:57.777Z</time>
      </trkpt>
      <trkpt lat="48.06864" lon="6.84088">
        <ele>670</ele>
        <time>2020-10-28T08:52:58.777Z</time>
      </trkpt>
      <trkpt lat="48.06863" lon="6.8409">
        <ele>669</ele>
        <time>2020-10-28T08:52:59.777Z</time>
      </trkpt>
      <trkpt lat="48.06862" lon="6.84091">
        <ele>669</ele>
        <time>2020-10-28T08:53:00.777Z</time>
      </trkpt>
      <trkpt lat="48.06861" lon="6.84092">
        <ele>668</ele>
        <time>2020-10-28T08:53:01.777Z</time>
      </trkpt>
      <trkpt lat="48.06861" lon="6.84093">
        <ele>668</ele>
        <time>2020-10-28T08:53:02.778Z</time>
      </trkpt>
      <trkpt lat="48.06861" lon="6.84094">
        <ele>667</ele>
        <time>2020-10-28T08:53:03.777Z</time>
      </trkpt>
      <trkpt lat="48.0686" lon="6.84096">
        <ele>667</ele>
        <time>2020-10-28T08:53:04.777Z</time>
      </trkpt>
      <trkpt lat="48.06861" lon="6.84097">
        <ele>666</ele>
        <time>2020-10-28T08:53:05.777Z</time>
      </trkpt>
      <trkpt lat="48.0686" lon="6.84099">
        <ele>666</ele>
        <time>2020-10-28T08:53:06.778Z</time>
      </trkpt>
      <trkpt lat="48.06859" lon="6.84101">
        <ele>666</ele>
        <time>2020-10-28T08:53:07.777Z</time>
      </trkpt>
      <trkpt lat="48.06859" lon="6.84102">
        <ele>666</ele>
        <time>2020-10-28T08:53:08.778Z</time>
      </trkpt>
      <trkpt lat="48.06859" lon="6.84104">
        <ele>665</ele>
        <time>2020-10-28T08:53:09.777Z</time>
      </trkpt>
      <trkpt lat="48.06858" lon="6.84105">
        <ele>665</ele>
        <time>2020-10-28T08:53:10.777Z</time>
      </trkpt>
      <trkpt lat="48.06858" lon="6.84106">
        <ele>665</ele>
        <time>2020-10-28T08:53:11.777Z</time>
      </trkpt>
      <trkpt lat="48.06857" lon="6.84107">
        <ele>665</ele>
        <time>2020-10-28T08:53:12.778Z</time>
      </trkpt>
      <trkpt lat="48.06857" lon="6.84108">
        <ele>665</ele>
        <time>2020-10-28T08:53:13.778Z</time>
      </trkpt>
      <trkpt lat="48.06857" lon="6.84109">
        <ele>665</ele>
        <time>2020-10-28T08:53:14.777Z</time>
      </trkpt>
      <trkpt lat="48.06856" lon="6.8411">
        <ele>665</ele>
        <time>2020-10-28T08:53:15.777Z</time>
      </trkpt>
      <trkpt lat="48.06856" lon="6.84111">
        <ele>665</ele>
        <time>2020-10-28T08:53:16.778Z</time>
      </trkpt>
      <trkpt lat="48.06855" lon="6.84113">
        <ele>666</ele>
        <time>2020-10-28T08:53:17.777Z</time>
      </trkpt>
      <trkpt lat="48.06854" lon="6.84115">
        <ele>666</ele>
        <time>2020-10-28T08:53:18.777Z</time>
      </trkpt>
      <trkpt lat="48.06853" lon="6.84118">
        <ele>666</ele>
        <time>2020-10-28T08:53:19.777Z</time>
      </trkpt>
      <trkpt lat="48.06852" lon="6.8412">
        <ele>666</ele>
        <time>2020-10-28T08:53:20.778Z</time>
      </trkpt>
      <trkpt lat="48.06852" lon="6.84122">
        <ele>666</ele>
        <time>2020-10-28T08:53:21.777Z</time>
      </trkpt>
      <trkpt lat="48.06851" lon="6.84123">
        <ele>666</ele>
        <time>2020-10-28T08:53:22.777Z</time>
      </trkpt>
      <trkpt lat="48.0685" lon="6.84124">
        <ele>667</ele>
        <time>2020-10-28T08:53:23.777Z</time>
      </trkpt>
      <trkpt lat="48.06849" lon="6.84125">
        <ele>667</ele>
        <time>2020-10-28T08:53:24.777Z</time>
      </trkpt>
      <trkpt lat="48.06848" lon="6.84126">
        <ele>667</ele>
        <time>2020-10-28T08:53:25.777Z</time>
      </trkpt>
      <trkpt lat="48.06847" lon="6.84128">
        <ele>667</ele>
        <time>2020-10-28T08:53:26.778Z</time>
      </trkpt>
      <trkpt lat="48.06846" lon="6.84129">
        <ele>667</ele>
        <time>2020-10-28T08:53:27.777Z</time>
      </trkpt>
      <trkpt lat="48.06844" lon="6.84131">
        <ele>667</ele>
        <time>2020-10-28T08:53:28.777Z</time>
      </trkpt>
      <trkpt lat="48.06843" lon="6.84132">
        <ele>667</ele>
        <time>2020-10-28T08:53:29.778Z</time>
      </trkpt>
      <trkpt lat="48.06842" lon="6.84134">
        <ele>667</ele>
        <time>2020-10-28T08:53:30.777Z</time>
      </trkpt>
      <trkpt lat="48.06842" lon="6.84136">
        <ele>667</ele>
        <time>2020-10-28T08:53:31.778Z</time>
      </trkpt>
      <trkpt lat="48.06841" lon="6.84137">
        <ele>666</ele>
        <time>2020-10-28T08:53:32.777Z</time>
      </trkpt>
      <trkpt lat="48.0684" lon="6.84138">
        <ele>666</ele>
        <time>2020-10-28T08:53:33.778Z</time>
      </trkpt>
      <trkpt lat="48.0684" lon="6.84138">
        <ele>666</ele>
        <time>2020-10-28T08:53:34.777Z</time>
      </trkpt>
      <trkpt lat="48.06839" lon="6.84138">
        <ele>665</ele>
        <time>2020-10-28T08:53:35.777Z</time>
      </trkpt>
      <trkpt lat="48.06839" lon="6.84139">
        <ele>665</ele>
        <time>2020-10-28T08:53:36.778Z</time>
      </trkpt>
      <trkpt lat="48.06838" lon="6.84139">
        <ele>664</ele>
        <time>2020-10-28T08:53:37.777Z</time>
      </trkpt>
      <trkpt lat="48.06838" lon="6.8414">
        <ele>664</ele>
        <time>2020-10-28T08:53:38.777Z</time>
      </trkpt>
      <trkpt lat="48.06837" lon="6.84141">
        <ele>664</ele>
        <time>2020-10-28T08:53:39.777Z</time>
      </trkpt>
      <trkpt lat="48.06837" lon="6.84142">
        <ele>663</ele>
        <time>2020-10-28T08:53:40.778Z</time>
      </trkpt>
      <trkpt lat="48.06836" lon="6.84143">
        <ele>663</ele>
        <time>2020-10-28T08:53:41.777Z</time>
      </trkpt>
      <trkpt lat="48.06836" lon="6.84144">
        <ele>662</ele>
        <time>2020-10-28T08:53:42.777Z</time>
      </trkpt>
      <trkpt lat="48.06835" lon="6.84146">
        <ele>662</ele>
        <time>2020-10-28T08:53:43.777Z</time>
      </trkpt>
      <trkpt lat="48.06833" lon="6.84147">
        <ele>661</ele>
        <time>2020-10-28T08:53:44.777Z</time>
      </trkpt>
      <trkpt lat="48.06832" lon="6.84147">
        <ele>660</ele>
        <time>2020-10-28T08:53:45.777Z</time>
      </trkpt>
      <trkpt lat="48.06831" lon="6.84148">
        <ele>659</ele>
        <time>2020-10-28T08:53:46.777Z</time>
      </trkpt>
      <trkpt lat="48.0683" lon="6.84149">
        <ele>659</ele>
        <time>2020-10-28T08:53:47.778Z</time>
      </trkpt>
      <trkpt lat="48.06829" lon="6.84149">
        <ele>658</ele>
        <time>2020-10-28T08:53:48.777Z</time>
      </trkpt>
      <trkpt lat="48.06829" lon="6.8415">
        <ele>657</ele>
        <time>2020-10-28T08:53:49.777Z</time>
      </trkpt>
      <trkpt lat="48.06828" lon="6.84151">
        <ele>656</ele>
        <time>2020-10-28T08:53:50.777Z</time>
      </trkpt>
      <trkpt lat="48.06827" lon="6.84152">
        <ele>656</ele>
        <time>2020-10-28T08:53:51.777Z</time>
      </trkpt>
      <trkpt lat="48.06826" lon="6.84153">
        <ele>656</ele>
        <time>2020-10-28T08:53:52.777Z</time>
      </trkpt>
      <trkpt lat="48.06825" lon="6.84154">
        <ele>656</ele>
        <time>2020-10-28T08:53:53.777Z</time>
      </trkpt>
      <trkpt lat="48.06823" lon="6.84156">
        <ele>656</ele>
        <time>2020-10-28T08:53:54.777Z</time>
      </trkpt>
      <trkpt lat="48.06822" lon="6.84157">
        <ele>656</ele>
        <time>2020-10-28T08:53:55.777Z</time>
      </trkpt>
      <trkpt lat="48.06821" lon="6.84159">
        <ele>656</ele>
        <time>2020-10-28T08:53:56.777Z</time>
      </trkpt>
      <trkpt lat="48.06821" lon="6.84162">
        <ele>656</ele>
        <time>2020-10-28T08:53:57.777Z</time>
      </trkpt>
      <trkpt lat="48.06821" lon="6.84163">
        <ele>656</ele>
        <time>2020-10-28T08:53:58.778Z</time>
      </trkpt>
      <trkpt lat="48.0682" lon="6.84165">
        <ele>656</ele>
        <time>2020-10-28T08:53:59.777Z</time>
      </trkpt>
      <trkpt lat="48.06819" lon="6.84167">
        <ele>656</ele>
        <time>2020-10-28T08:54:00.777Z</time>
      </trkpt>
      <trkpt lat="48.06818" lon="6.84168">
        <ele>655</ele>
        <time>2020-10-28T08:54:01.777Z</time>
      </trkpt>
      <trkpt lat="48.06817" lon="6.84169">
        <ele>655</ele>
        <time>2020-10-28T08:54:02.777Z</time>
      </trkpt>
      <trkpt lat="48.06816" lon="6.8417">
        <ele>655</ele>
        <time>2020-10-28T08:54:03.777Z</time>
      </trkpt>
      <trkpt lat="48.06815" lon="6.84171">
        <ele>654</ele>
        <time>2020-10-28T08:54:04.777Z</time>
      </trkpt>
      <trkpt lat="48.06814" lon="6.84173">
        <ele>654</ele>
        <time>2020-10-28T08:54:05.778Z</time>
      </trkpt>
      <trkpt lat="48.06813" lon="6.84174">
        <ele>653</ele>
        <time>2020-10-28T08:54:06.778Z</time>
      </trkpt>
      <trkpt lat="48.06811" lon="6.84175">
        <ele>653</ele>
        <time>2020-10-28T08:54:07.777Z</time>
      </trkpt>
      <trkpt lat="48.06811" lon="6.84175">
        <ele>653</ele>
        <time>2020-10-28T08:54:08.777Z</time>
      </trkpt>
      <trkpt lat="48.0681" lon="6.84175">
        <ele>653</ele>
        <time>2020-10-28T08:54:09.777Z</time>
      </trkpt>
      <trkpt lat="48.06809" lon="6.84175">
        <ele>654</ele>
        <time>2020-10-28T08:54:10.777Z</time>
      </trkpt>
      <trkpt lat="48.06808" lon="6.84175">
        <ele>655</ele>
        <time>2020-10-28T08:54:11.777Z</time>
      </trkpt>
      <trkpt lat="48.06807" lon="6.84175">
        <ele>656</ele>
        <time>2020-10-28T08:54:12.777Z</time>
      </trkpt>
      <trkpt lat="48.06806" lon="6.84176">
        <ele>657</ele>
        <time>2020-10-28T08:54:13.777Z</time>
      </trkpt>
      <trkpt lat="48.06806" lon="6.84177">
        <ele>657</ele>
        <time>2020-10-28T08:54:14.778Z</time>
      </trkpt>
      <trkpt lat="48.06806" lon="6.84177">
        <ele>658</ele>
        <time>2020-10-28T08:54:15.777Z</time>
      </trkpt>
      <trkpt lat="48.06805" lon="6.84177">
        <ele>659</ele>
        <time>2020-10-28T08:54:16.778Z</time>
      </trkpt>
      <trkpt lat="48.06805" lon="6.84178">
        <ele>659</ele>
        <time>2020-10-28T08:54:17.777Z</time>
      </trkpt>
      <trkpt lat="48.06804" lon="6.84179">
        <ele>660</ele>
        <time>2020-10-28T08:54:18.777Z</time>
      </trkpt>
      <trkpt lat="48.06804" lon="6.84179">
        <ele>660</ele>
        <time>2020-10-28T08:54:19.777Z</time>
      </trkpt>
      <trkpt lat="48.06804" lon="6.84179">
        <ele>660</ele>
        <time>2020-10-28T08:54:20.777Z</time>
      </trkpt>
      <trkpt lat="48.06805" lon="6.84179">
        <ele>661</ele>
        <time>2020-10-28T08:54:21.777Z</time>
      </trkpt>
      <trkpt lat="48.068" lon="6.84179">
        <ele>662</ele>
        <time>2020-10-28T08:54:22.778Z</time>
      </trkpt>
      <trkpt lat="48.06799" lon="6.84179">
        <ele>662</ele>
        <time>2020-10-28T08:54:23.778Z</time>
      </trkpt>
      <trkpt lat="48.06797" lon="6.8418">
        <ele>662</ele>
        <time>2020-10-28T08:54:24.778Z</time>
      </trkpt>
      <trkpt lat="48.06795" lon="6.84181">
        <ele>662</ele>
        <time>2020-10-28T08:54:25.779Z</time>
      </trkpt>
      <trkpt lat="48.06794" lon="6.84182">
        <ele>662</ele>
        <time>2020-10-28T08:54:26.778Z</time>
      </trkpt>
      <trkpt lat="48.06792" lon="6.84183">
        <ele>662</ele>
        <time>2020-10-28T08:54:27.778Z</time>
      </trkpt>
      <trkpt lat="48.06791" lon="6.84184">
        <ele>662</ele>
        <time>2020-10-28T08:54:28.778Z</time>
      </trkpt>
      <trkpt lat="48.0679" lon="6.84185">
        <ele>662</ele>
        <time>2020-10-28T08:54:29.778Z</time>
      </trkpt>
      <trkpt lat="48.06789" lon="6.84186">
        <ele>663</ele>
        <time>2020-10-28T08:54:30.778Z</time>
      </trkpt>
      <trkpt lat="48.06788" lon="6.84187">
        <ele>663</ele>
        <time>2020-10-28T08:54:31.778Z</time>
      </trkpt>
      <trkpt lat="48.06787" lon="6.84188">
        <ele>663</ele>
        <time>2020-10-28T08:54:32.778Z</time>
      </trkpt>
      <trkpt lat="48.06786" lon="6.84188">
        <ele>663</ele>
        <time>2020-10-28T08:54:33.778Z</time>
      </trkpt>
      <trkpt lat="48.06784" lon="6.84189">
        <ele>663</ele>
        <time>2020-10-28T08:54:34.778Z</time>
      </trkpt>
      <trkpt lat="48.06783" lon="6.8419">
        <ele>663</ele>
        <time>2020-10-28T08:54:35.778Z</time>
      </trkpt>
      <trkpt lat="48.06783" lon="6.8419">
        <ele>663</ele>
        <time>2020-10-28T08:54:36.779Z</time>
      </trkpt>
      <trkpt lat="48.06782" lon="6.84191">
        <ele>664</ele>
        <time>2020-10-28T08:54:37.779Z</time>
      </trkpt>
      <trkpt lat="48.06781" lon="6.84191">
        <ele>665</ele>
        <time>2020-10-28T08:54:38.778Z</time>
      </trkpt>
      <trkpt lat="48.06779" lon="6.84191">
        <ele>666</ele>
        <time>2020-10-28T08:54:39.778Z</time>
      </trkpt>
      <trkpt lat="48.06778" lon="6.84191">
        <ele>667</ele>
        <time>2020-10-28T08:54:40.778Z</time>
      </trkpt>
      <trkpt lat="48.06777" lon="6.8419">
        <ele>667</ele>
        <time>2020-10-28T08:54:41.778Z</time>
      </trkpt>
      <trkpt lat="48.06776" lon="6.8419">
        <ele>668</ele>
        <time>2020-10-28T08:54:42.779Z</time>
      </trkpt>
      <trkpt lat="48.06775" lon="6.84189">
        <ele>668</ele>
        <time>2020-10-28T08:54:43.778Z</time>
      </trkpt>
      <trkpt lat="48.06774" lon="6.84188">
        <ele>669</ele>
        <time>2020-10-28T08:54:44.778Z</time>
      </trkpt>
      <trkpt lat="48.06773" lon="6.84187">
        <ele>669</ele>
        <time>2020-10-28T08:54:45.779Z</time>
      </trkpt>
      <trkpt lat="48.06771" lon="6.84186">
        <ele>669</ele>
        <time>2020-10-28T08:54:46.778Z</time>
      </trkpt>
      <trkpt lat="48.0677" lon="6.84186">
        <ele>669</ele>
        <time>2020-10-28T08:54:47.778Z</time>
      </trkpt>
      <trkpt lat="48.06769" lon="6.84185">
        <ele>670</ele>
        <time>2020-10-28T08:54:48.778Z</time>
      </trkpt>
      <trkpt lat="48.06768" lon="6.84184">
        <ele>670</ele>
        <time>2020-10-28T08:54:49.779Z</time>
      </trkpt>
      <trkpt lat="48.06765" lon="6.84184">
        <ele>671</ele>
        <time>2020-10-28T08:54:50.778Z</time>
      </trkpt>
      <trkpt lat="48.06764" lon="6.84185">
        <ele>671</ele>
        <time>2020-10-28T08:54:51.778Z</time>
      </trkpt>
      <trkpt lat="48.06763" lon="6.84184">
        <ele>672</ele>
        <time>2020-10-28T08:54:52.778Z</time>
      </trkpt>
      <trkpt lat="48.06762" lon="6.84184">
        <ele>673</ele>
        <time>2020-10-28T08:54:53.779Z</time>
      </trkpt>
      <trkpt lat="48.06761" lon="6.84183">
        <ele>674</ele>
        <time>2020-10-28T08:54:54.779Z</time>
      </trkpt>
      <trkpt lat="48.0676" lon="6.84183">
        <ele>675</ele>
        <time>2020-10-28T08:54:55.778Z</time>
      </trkpt>
      <trkpt lat="48.0676" lon="6.84183">
        <ele>675</ele>
        <time>2020-10-28T08:54:56.779Z</time>
      </trkpt>
      <trkpt lat="48.06759" lon="6.84183">
        <ele>676</ele>
        <time>2020-10-28T08:54:57.778Z</time>
      </trkpt>
      <trkpt lat="48.06759" lon="6.84182">
        <ele>676</ele>
        <time>2020-10-28T08:54:58.779Z</time>
      </trkpt>
      <trkpt lat="48.06759" lon="6.84182">
        <ele>675</ele>
        <time>2020-10-28T08:54:59.779Z</time>
      </trkpt>
      <trkpt lat="48.06759" lon="6.84176">
        <ele>668</ele>
        <time>2020-10-28T08:55:00.778Z</time>
      </trkpt>
      <trkpt lat="48.0676" lon="6.84174">
        <ele>668</ele>
        <time>2020-10-28T08:55:01.779Z</time>
      </trkpt>
      <trkpt lat="48.0676" lon="6.84172">
        <ele>668</ele>
        <time>2020-10-28T08:55:02.778Z</time>
      </trkpt>
      <trkpt lat="48.06759" lon="6.8417">
        <ele>669</ele>
        <time>2020-10-28T08:55:03.779Z</time>
      </trkpt>
      <trkpt lat="48.06759" lon="6.84167">
        <ele>669</ele>
        <time>2020-10-28T08:55:04.779Z</time>
      </trkpt>
      <trkpt lat="48.06758" lon="6.84165">
        <ele>669</ele>
        <time>2020-10-28T08:55:05.779Z</time>
      </trkpt>
      <trkpt lat="48.06757" lon="6.84161">
        <ele>669</ele>
        <time>2020-10-28T08:55:06.778Z</time>
      </trkpt>
      <trkpt lat="48.06756" lon="6.84157">
        <ele>669</ele>
        <time>2020-10-28T08:55:07.779Z</time>
      </trkpt>
      <trkpt lat="48.06756" lon="6.84155">
        <ele>669</ele>
        <time>2020-10-28T08:55:08.778Z</time>
      </trkpt>
      <trkpt lat="48.06756" lon="6.84154">
        <ele>669</ele>
        <time>2020-10-28T08:55:09.779Z</time>
      </trkpt>
      <trkpt lat="48.06756" lon="6.84151">
        <ele>669</ele>
        <time>2020-10-28T08:55:10.778Z</time>
      </trkpt>
      <trkpt lat="48.06756" lon="6.8415">
        <ele>670</ele>
        <time>2020-10-28T08:55:11.779Z</time>
      </trkpt>
      <trkpt lat="48.06756" lon="6.84147">
        <ele>670</ele>
        <time>2020-10-28T08:55:12.779Z</time>
      </trkpt>
      <trkpt lat="48.06756" lon="6.84146">
        <ele>670</ele>
        <time>2020-10-28T08:55:13.779Z</time>
      </trkpt>
      <trkpt lat="48.06756" lon="6.84144">
        <ele>670</ele>
        <time>2020-10-28T08:55:14.778Z</time>
      </trkpt>
      <trkpt lat="48.06756" lon="6.84143">
        <ele>670</ele>
        <time>2020-10-28T08:55:15.779Z</time>
      </trkpt>
      <trkpt lat="48.06755" lon="6.8414">
        <ele>670</ele>
        <time>2020-10-28T08:55:16.779Z</time>
      </trkpt>
      <trkpt lat="48.06755" lon="6.84137">
        <ele>671</ele>
        <time>2020-10-28T08:55:17.779Z</time>
      </trkpt>
      <trkpt lat="48.06755" lon="6.84135">
        <ele>670</ele>
        <time>2020-10-28T08:55:18.779Z</time>
      </trkpt>
      <trkpt lat="48.06755" lon="6.84133">
        <ele>670</ele>
        <time>2020-10-28T08:55:19.778Z</time>
      </trkpt>
      <trkpt lat="48.06754" lon="6.84131">
        <ele>670</ele>
        <time>2020-10-28T08:55:20.779Z</time>
      </trkpt>
      <trkpt lat="48.06754" lon="6.8413">
        <ele>670</ele>
        <time>2020-10-28T08:55:21.778Z</time>
      </trkpt>
      <trkpt lat="48.06754" lon="6.84128">
        <ele>670</ele>
        <time>2020-10-28T08:55:22.778Z</time>
      </trkpt>
      <trkpt lat="48.06753" lon="6.84125">
        <ele>670</ele>
        <time>2020-10-28T08:55:23.778Z</time>
      </trkpt>
      <trkpt lat="48.06753" lon="6.84124">
        <ele>670</ele>
        <time>2020-10-28T08:55:24.779Z</time>
      </trkpt>
      <trkpt lat="48.06753" lon="6.84123">
        <ele>670</ele>
        <time>2020-10-28T08:55:25.779Z</time>
      </trkpt>
      <trkpt lat="48.06753" lon="6.84121">
        <ele>670</ele>
        <time>2020-10-28T08:55:26.778Z</time>
      </trkpt>
      <trkpt lat="48.06753" lon="6.84119">
        <ele>670</ele>
        <time>2020-10-28T08:55:27.778Z</time>
      </trkpt>
      <trkpt lat="48.06753" lon="6.84117">
        <ele>670</ele>
        <time>2020-10-28T08:55:28.778Z</time>
      </trkpt>
      <trkpt lat="48.06752" lon="6.84115">
        <ele>670</ele>
        <time>2020-10-28T08:55:29.779Z</time>
      </trkpt>
      <trkpt lat="48.06752" lon="6.84113">
        <ele>669</ele>
        <time>2020-10-28T08:55:30.778Z</time>
      </trkpt>
      <trkpt lat="48.06753" lon="6.84111">
        <ele>669</ele>
        <time>2020-10-28T08:55:31.779Z</time>
      </trkpt>
      <trkpt lat="48.06753" lon="6.84109">
        <ele>669</ele>
        <time>2020-10-28T08:55:32.779Z</time>
      </trkpt>
      <trkpt lat="48.06753" lon="6.84107">
        <ele>669</ele>
        <time>2020-10-28T08:55:33.778Z</time>
      </trkpt>
      <trkpt lat="48.06752" lon="6.84104">
        <ele>669</ele>
        <time>2020-10-28T08:55:34.778Z</time>
      </trkpt>
      <trkpt lat="48.06752" lon="6.84102">
        <ele>669</ele>
        <time>2020-10-28T08:55:35.778Z</time>
      </trkpt>
      <trkpt lat="48.06751" lon="6.841">
        <ele>669</ele>
        <time>2020-10-28T08:55:36.779Z</time>
      </trkpt>
      <trkpt lat="48.06751" lon="6.84098">
        <ele>670</ele>
        <time>2020-10-28T08:55:37.778Z</time>
      </trkpt>
      <trkpt lat="48.0675" lon="6.84095">
        <ele>671</ele>
        <time>2020-10-28T08:55:38.778Z</time>
      </trkpt>
      <trkpt lat="48.06751" lon="6.84094">
        <ele>671</ele>
        <time>2020-10-28T08:55:39.779Z</time>
      </trkpt>
      <trkpt lat="48.06751" lon="6.84092">
        <ele>672</ele>
        <time>2020-10-28T08:55:40.779Z</time>
      </trkpt>
      <trkpt lat="48.06751" lon="6.84091">
        <ele>672</ele>
        <time>2020-10-28T08:55:41.778Z</time>
      </trkpt>
      <trkpt lat="48.0675" lon="6.84088">
        <ele>673</ele>
        <time>2020-10-28T08:55:42.778Z</time>
      </trkpt>
      <trkpt lat="48.0675" lon="6.84086">
        <ele>673</ele>
        <time>2020-10-28T08:55:43.778Z</time>
      </trkpt>
      <trkpt lat="48.06749" lon="6.84084">
        <ele>673</ele>
        <time>2020-10-28T08:55:44.779Z</time>
      </trkpt>
      <trkpt lat="48.06749" lon="6.84083">
        <ele>673</ele>
        <time>2020-10-28T08:55:45.778Z</time>
      </trkpt>
      <trkpt lat="48.06748" lon="6.84081">
        <ele>673</ele>
        <time>2020-10-28T08:55:46.779Z</time>
      </trkpt>
      <trkpt lat="48.06748" lon="6.84079">
        <ele>673</ele>
        <time>2020-10-28T08:55:47.778Z</time>
      </trkpt>
      <trkpt lat="48.06748" lon="6.84077">
        <ele>672</ele>
        <time>2020-10-28T08:55:48.779Z</time>
      </trkpt>
      <trkpt lat="48.06748" lon="6.84074">
        <ele>672</ele>
        <time>2020-10-28T08:55:49.779Z</time>
      </trkpt>
      <trkpt lat="48.06747" lon="6.84073">
        <ele>673</ele>
        <time>2020-10-28T08:55:50.778Z</time>
      </trkpt>
      <trkpt lat="48.06747" lon="6.84071">
        <ele>673</ele>
        <time>2020-10-28T08:55:51.778Z</time>
      </trkpt>
      <trkpt lat="48.06747" lon="6.84069">
        <ele>673</ele>
        <time>2020-10-28T08:55:52.779Z</time>
      </trkpt>
      <trkpt lat="48.06748" lon="6.84068">
        <ele>673</ele>
        <time>2020-10-28T08:55:53.778Z</time>
      </trkpt>
      <trkpt lat="48.06748" lon="6.84067">
        <ele>673</ele>
        <time>2020-10-28T08:55:54.778Z</time>
      </trkpt>
      <trkpt lat="48.06749" lon="6.84066">
        <ele>673</ele>
        <time>2020-10-28T08:55:55.779Z</time>
      </trkpt>
      <trkpt lat="48.06748" lon="6.84064">
        <ele>672</ele>
        <time>2020-10-28T08:55:56.779Z</time>
      </trkpt>
      <trkpt lat="48.06748" lon="6.84062">
        <ele>672</ele>
        <time>2020-10-28T08:55:57.779Z</time>
      </trkpt>
      <trkpt lat="48.06748" lon="6.8406">
        <ele>671</ele>
        <time>2020-10-28T08:55:58.778Z</time>
      </trkpt>
      <trkpt lat="48.06748" lon="6.84058">
        <ele>671</ele>
        <time>2020-10-28T08:55:59.779Z</time>
      </trkpt>
      <trkpt lat="48.06748" lon="6.84057">
        <ele>672</ele>
        <time>2020-10-28T08:56:00.779Z</time>
      </trkpt>
      <trkpt lat="48.06748" lon="6.84056">
        <ele>672</ele>
        <time>2020-10-28T08:56:01.779Z</time>
      </trkpt>
      <trkpt lat="48.06747" lon="6.84054">
        <ele>672</ele>
        <time>2020-10-28T08:56:02.778Z</time>
      </trkpt>
      <trkpt lat="48.06747" lon="6.84053">
        <ele>672</ele>
        <time>2020-10-28T08:56:03.779Z</time>
      </trkpt>
      <trkpt lat="48.06747" lon="6.84052">
        <ele>673</ele>
        <time>2020-10-28T08:56:04.778Z</time>
      </trkpt>
      <trkpt lat="48.06747" lon="6.8405">
        <ele>672</ele>
        <time>2020-10-28T08:56:05.778Z</time>
      </trkpt>
      <trkpt lat="48.06746" lon="6.84048">
        <ele>672</ele>
        <time>2020-10-28T08:56:06.779Z</time>
      </trkpt>
      <trkpt lat="48.06746" lon="6.84047">
        <ele>672</ele>
        <time>2020-10-28T08:56:07.779Z</time>
      </trkpt>
      <trkpt lat="48.06747" lon="6.84045">
        <ele>673</ele>
        <time>2020-10-28T08:56:08.778Z</time>
      </trkpt>
      <trkpt lat="48.06747" lon="6.84043">
        <ele>673</ele>
        <time>2020-10-28T08:56:09.778Z</time>
      </trkpt>
      <trkpt lat="48.06747" lon="6.84042">
        <ele>673</ele>
        <time>2020-10-28T08:56:10.779Z</time>
      </trkpt>
      <trkpt lat="48.06747" lon="6.84039">
        <ele>674</ele>
        <time>2020-10-28T08:56:11.778Z</time>
      </trkpt>
      <trkpt lat="48.06746" lon="6.84038">
        <ele>674</ele>
        <time>2020-10-28T08:56:12.778Z</time>
      </trkpt>
      <trkpt lat="48.06745" lon="6.84036">
        <ele>674</ele>
        <time>2020-10-28T08:56:13.779Z</time>
      </trkpt>
      <trkpt lat="48.06745" lon="6.84034">
        <ele>674</ele>
        <time>2020-10-28T08:56:14.778Z</time>
      </trkpt>
      <trkpt lat="48.06745" lon="6.84034">
        <ele>674</ele>
        <time>2020-10-28T08:56:15.778Z</time>
      </trkpt>
      <trkpt lat="48.06745" lon="6.84032">
        <ele>674</ele>
        <time>2020-10-28T08:56:16.779Z</time>
      </trkpt>
      <trkpt lat="48.06745" lon="6.84029">
        <ele>673</ele>
        <time>2020-10-28T08:56:17.779Z</time>
      </trkpt>
      <trkpt lat="48.06745" lon="6.84028">
        <ele>673</ele>
        <time>2020-10-28T08:56:18.779Z</time>
      </trkpt>
      <trkpt lat="48.06744" lon="6.84026">
        <ele>673</ele>
        <time>2020-10-28T08:56:19.779Z</time>
      </trkpt>
      <trkpt lat="48.06744" lon="6.84025">
        <ele>674</ele>
        <time>2020-10-28T08:56:20.779Z</time>
      </trkpt>
      <trkpt lat="48.06744" lon="6.84023">
        <ele>674</ele>
        <time>2020-10-28T08:56:21.779Z</time>
      </trkpt>
      <trkpt lat="48.06744" lon="6.84021">
        <ele>674</ele>
        <time>2020-10-28T08:56:22.779Z</time>
      </trkpt>
      <trkpt lat="48.06744" lon="6.8402">
        <ele>674</ele>
        <time>2020-10-28T08:56:23.779Z</time>
      </trkpt>
      <trkpt lat="48.06744" lon="6.84018">
        <ele>674</ele>
        <time>2020-10-28T08:56:24.778Z</time>
      </trkpt>
      <trkpt lat="48.06744" lon="6.84017">
        <ele>674</ele>
        <time>2020-10-28T08:56:25.779Z</time>
      </trkpt>
      <trkpt lat="48.06744" lon="6.84016">
        <ele>674</ele>
        <time>2020-10-28T08:56:26.779Z</time>
      </trkpt>
      <trkpt lat="48.06744" lon="6.84015">
        <ele>674</ele>
        <time>2020-10-28T08:56:27.779Z</time>
      </trkpt>
      <trkpt lat="48.06744" lon="6.84013">
        <ele>674</ele>
        <time>2020-10-28T08:56:28.778Z</time>
      </trkpt>
      <trkpt lat="48.06744" lon="6.84012">
        <ele>675</ele>
        <time>2020-10-28T08:56:29.778Z</time>
      </trkpt>
      <trkpt lat="48.06743" lon="6.8401">
        <ele>675</ele>
        <time>2020-10-28T08:56:30.778Z</time>
      </trkpt>
      <trkpt lat="48.06743" lon="6.84009">
        <ele>674</ele>
        <time>2020-10-28T08:56:31.779Z</time>
      </trkpt>
      <trkpt lat="48.06743" lon="6.84007">
        <ele>674</ele>
        <time>2020-10-28T08:56:32.778Z</time>
      </trkpt>
      <trkpt lat="48.06743" lon="6.84005">
        <ele>674</ele>
        <time>2020-10-28T08:56:33.779Z</time>
      </trkpt>
      <trkpt lat="48.06742" lon="6.84003">
        <ele>674</ele>
        <time>2020-10-28T08:56:34.778Z</time>
      </trkpt>
      <trkpt lat="48.06741" lon="6.84001">
        <ele>674</ele>
        <time>2020-10-28T08:56:35.778Z</time>
      </trkpt>
      <trkpt lat="48.06741" lon="6.83999">
        <ele>674</ele>
        <time>2020-10-28T08:56:36.779Z</time>
      </trkpt>
      <trkpt lat="48.06741" lon="6.83997">
        <ele>674</ele>
        <time>2020-10-28T08:56:37.779Z</time>
      </trkpt>
      <trkpt lat="48.06741" lon="6.83994">
        <ele>673</ele>
        <time>2020-10-28T08:56:38.779Z</time>
      </trkpt>
      <trkpt lat="48.06741" lon="6.83993">
        <ele>672</ele>
        <time>2020-10-28T08:56:39.778Z</time>
      </trkpt>
      <trkpt lat="48.06741" lon="6.83991">
        <ele>672</ele>
        <time>2020-10-28T08:56:40.778Z</time>
      </trkpt>
      <trkpt lat="48.06741" lon="6.8399">
        <ele>672</ele>
        <time>2020-10-28T08:56:41.778Z</time>
      </trkpt>
      <trkpt lat="48.0674" lon="6.83988">
        <ele>672</ele>
        <time>2020-10-28T08:56:42.779Z</time>
      </trkpt>
      <trkpt lat="48.0674" lon="6.83986">
        <ele>672</ele>
        <time>2020-10-28T08:56:43.778Z</time>
      </trkpt>
      <trkpt lat="48.0674" lon="6.83985">
        <ele>672</ele>
        <time>2020-10-28T08:56:44.778Z</time>
      </trkpt>
      <trkpt lat="48.0674" lon="6.83984">
        <ele>673</ele>
        <time>2020-10-28T08:56:45.779Z</time>
      </trkpt>
      <trkpt lat="48.0674" lon="6.83982">
        <ele>673</ele>
        <time>2020-10-28T08:56:46.779Z</time>
      </trkpt>
      <trkpt lat="48.0674" lon="6.83981">
        <ele>673</ele>
        <time>2020-10-28T08:56:47.779Z</time>
      </trkpt>
      <trkpt lat="48.0674" lon="6.8398">
        <ele>674</ele>
        <time>2020-10-28T08:56:48.778Z</time>
      </trkpt>
      <trkpt lat="48.0674" lon="6.83979">
        <ele>674</ele>
        <time>2020-10-28T08:56:49.778Z</time>
      </trkpt>
      <trkpt lat="48.06739" lon="6.83978">
        <ele>674</ele>
        <time>2020-10-28T08:56:50.778Z</time>
      </trkpt>
      <trkpt lat="48.06739" lon="6.83977">
        <ele>673</ele>
        <time>2020-10-28T08:56:51.778Z</time>
      </trkpt>
      <trkpt lat="48.06738" lon="6.83975">
        <ele>673</ele>
        <time>2020-10-28T08:56:52.779Z</time>
      </trkpt>
      <trkpt lat="48.06738" lon="6.83973">
        <ele>673</ele>
        <time>2020-10-28T08:56:53.779Z</time>
      </trkpt>
      <trkpt lat="48.06738" lon="6.83971">
        <ele>673</ele>
        <time>2020-10-28T08:56:54.778Z</time>
      </trkpt>
      <trkpt lat="48.06737" lon="6.83969">
        <ele>672</ele>
        <time>2020-10-28T08:56:55.778Z</time>
      </trkpt>
      <trkpt lat="48.06737" lon="6.83966">
        <ele>672</ele>
        <time>2020-10-28T08:56:56.778Z</time>
      </trkpt>
      <trkpt lat="48.06737" lon="6.83964">
        <ele>672</ele>
        <time>2020-10-28T08:56:57.778Z</time>
      </trkpt>
      <trkpt lat="48.06736" lon="6.83961">
        <ele>673</ele>
        <time>2020-10-28T08:56:58.778Z</time>
      </trkpt>
      <trkpt lat="48.06736" lon="6.83958">
        <ele>673</ele>
        <time>2020-10-28T08:56:59.778Z</time>
      </trkpt>
      <trkpt lat="48.06736" lon="6.83957">
        <ele>673</ele>
        <time>2020-10-28T08:57:00.778Z</time>
      </trkpt>
      <trkpt lat="48.06736" lon="6.83956">
        <ele>674</ele>
        <time>2020-10-28T08:57:01.778Z</time>
      </trkpt>
      <trkpt lat="48.06735" lon="6.83954">
        <ele>674</ele>
        <time>2020-10-28T08:57:02.779Z</time>
      </trkpt>
      <trkpt lat="48.06735" lon="6.83952">
        <ele>675</ele>
        <time>2020-10-28T08:57:03.779Z</time>
      </trkpt>
      <trkpt lat="48.06734" lon="6.8395">
        <ele>675</ele>
        <time>2020-10-28T08:57:04.778Z</time>
      </trkpt>
      <trkpt lat="48.06734" lon="6.83948">
        <ele>675</ele>
        <time>2020-10-28T08:57:05.778Z</time>
      </trkpt>
      <trkpt lat="48.06733" lon="6.83947">
        <ele>676</ele>
        <time>2020-10-28T08:57:06.779Z</time>
      </trkpt>
      <trkpt lat="48.06733" lon="6.83946">
        <ele>676</ele>
        <time>2020-10-28T08:57:07.779Z</time>
      </trkpt>
      <trkpt lat="48.06733" lon="6.83944">
        <ele>677</ele>
        <time>2020-10-28T08:57:08.778Z</time>
      </trkpt>
      <trkpt lat="48.06732" lon="6.83942">
        <ele>677</ele>
        <time>2020-10-28T08:57:09.778Z</time>
      </trkpt>
      <trkpt lat="48.06732" lon="6.8394">
        <ele>678</ele>
        <time>2020-10-28T08:57:10.778Z</time>
      </trkpt>
      <trkpt lat="48.06731" lon="6.83938">
        <ele>678</ele>
        <time>2020-10-28T08:57:11.779Z</time>
      </trkpt>
      <trkpt lat="48.06731" lon="6.83937">
        <ele>679</ele>
        <time>2020-10-28T08:57:12.779Z</time>
      </trkpt>
      <trkpt lat="48.0673" lon="6.83935">
        <ele>679</ele>
        <time>2020-10-28T08:57:13.779Z</time>
      </trkpt>
      <trkpt lat="48.06729" lon="6.83934">
        <ele>679</ele>
        <time>2020-10-28T08:57:14.778Z</time>
      </trkpt>
      <trkpt lat="48.06729" lon="6.83933">
        <ele>679</ele>
        <time>2020-10-28T08:57:15.778Z</time>
      </trkpt>
      <trkpt lat="48.06728" lon="6.83931">
        <ele>680</ele>
        <time>2020-10-28T08:57:16.778Z</time>
      </trkpt>
      <trkpt lat="48.06728" lon="6.8393">
        <ele>680</ele>
        <time>2020-10-28T08:57:17.779Z</time>
      </trkpt>
      <trkpt lat="48.06727" lon="6.83928">
        <ele>681</ele>
        <time>2020-10-28T08:57:18.779Z</time>
      </trkpt>
      <trkpt lat="48.06727" lon="6.83926">
        <ele>681</ele>
        <time>2020-10-28T08:57:19.779Z</time>
      </trkpt>
      <trkpt lat="48.06727" lon="6.83924">
        <ele>681</ele>
        <time>2020-10-28T08:57:20.778Z</time>
      </trkpt>
      <trkpt lat="48.06726" lon="6.83923">
        <ele>681</ele>
        <time>2020-10-28T08:57:21.779Z</time>
      </trkpt>
      <trkpt lat="48.06726" lon="6.83921">
        <ele>681</ele>
        <time>2020-10-28T08:57:22.778Z</time>
      </trkpt>
      <trkpt lat="48.06725" lon="6.8392">
        <ele>681</ele>
        <time>2020-10-28T08:57:23.778Z</time>
      </trkpt>
      <trkpt lat="48.06724" lon="6.83919">
        <ele>681</ele>
        <time>2020-10-28T08:57:24.778Z</time>
      </trkpt>
      <trkpt lat="48.06723" lon="6.83919">
        <ele>681</ele>
        <time>2020-10-28T08:57:25.778Z</time>
      </trkpt>
      <trkpt lat="48.06722" lon="6.83918">
        <ele>681</ele>
        <time>2020-10-28T08:57:26.779Z</time>
      </trkpt>
      <trkpt lat="48.06721" lon="6.83918">
        <ele>681</ele>
        <time>2020-10-28T08:57:27.779Z</time>
      </trkpt>
      <trkpt lat="48.06719" lon="6.83917">
        <ele>681</ele>
        <time>2020-10-28T08:57:28.778Z</time>
      </trkpt>
      <trkpt lat="48.06718" lon="6.83917">
        <ele>682</ele>
        <time>2020-10-28T08:57:29.778Z</time>
      </trkpt>
      <trkpt lat="48.06717" lon="6.83917">
        <ele>682</ele>
        <time>2020-10-28T08:57:30.778Z</time>
      </trkpt>
      <trkpt lat="48.06717" lon="6.83919">
        <ele>682</ele>
        <time>2020-10-28T08:57:31.779Z</time>
      </trkpt>
      <trkpt lat="48.06716" lon="6.83917">
        <ele>683</ele>
        <time>2020-10-28T08:57:32.779Z</time>
      </trkpt>
      <trkpt lat="48.06715" lon="6.83916">
        <ele>683</ele>
        <time>2020-10-28T08:57:33.778Z</time>
      </trkpt>
      <trkpt lat="48.06712" lon="6.83917">
        <ele>684</ele>
        <time>2020-10-28T08:57:34.779Z</time>
      </trkpt>
      <trkpt lat="48.06712" lon="6.83917">
        <ele>684</ele>
        <time>2020-10-28T08:57:35.778Z</time>
      </trkpt>
      <trkpt lat="48.06711" lon="6.83917">
        <ele>685</ele>
        <time>2020-10-28T08:57:36.778Z</time>
      </trkpt>
      <trkpt lat="48.06711" lon="6.83918">
        <ele>685</ele>
        <time>2020-10-28T08:57:37.778Z</time>
      </trkpt>
      <trkpt lat="48.06709" lon="6.83918">
        <ele>688</ele>
        <time>2020-10-28T08:57:38.779Z</time>
      </trkpt>
      <trkpt lat="48.06709" lon="6.83918">
        <ele>688</ele>
        <time>2020-10-28T08:57:39.779Z</time>
      </trkpt>
      <trkpt lat="48.06709" lon="6.83917">
        <ele>688</ele>
        <time>2020-10-28T08:57:40.778Z</time>
      </trkpt>
      <trkpt lat="48.06708" lon="6.83917">
        <ele>688</ele>
        <time>2020-10-28T08:57:41.778Z</time>
      </trkpt>
      <trkpt lat="48.06707" lon="6.83918">
        <ele>687</ele>
        <time>2020-10-28T08:57:42.779Z</time>
      </trkpt>
      <trkpt lat="48.06707" lon="6.83917">
        <ele>686</ele>
        <time>2020-10-28T08:57:43.779Z</time>
      </trkpt>
      <trkpt lat="48.06706" lon="6.83916">
        <ele>685</ele>
        <time>2020-10-28T08:57:44.778Z</time>
      </trkpt>
      <trkpt lat="48.06706" lon="6.83915">
        <ele>684</ele>
        <time>2020-10-28T08:57:45.779Z</time>
      </trkpt>
      <trkpt lat="48.06706" lon="6.83914">
        <ele>683</ele>
        <time>2020-10-28T08:57:46.779Z</time>
      </trkpt>
      <trkpt lat="48.06706" lon="6.83913">
        <ele>682</ele>
        <time>2020-10-28T08:57:47.779Z</time>
      </trkpt>
      <trkpt lat="48.06706" lon="6.83911">
        <ele>681</ele>
        <time>2020-10-28T08:57:48.778Z</time>
      </trkpt>
      <trkpt lat="48.06706" lon="6.8391">
        <ele>680</ele>
        <time>2020-10-28T08:57:49.779Z</time>
      </trkpt>
      <trkpt lat="48.06705" lon="6.83909">
        <ele>680</ele>
        <time>2020-10-28T08:57:50.779Z</time>
      </trkpt>
      <trkpt lat="48.06706" lon="6.83909">
        <ele>679</ele>
        <time>2020-10-28T08:57:51.779Z</time>
      </trkpt>
      <trkpt lat="48.06705" lon="6.83909">
        <ele>674</ele>
        <time>2020-10-28T08:57:52.780Z</time>
      </trkpt>
      <trkpt lat="48.06704" lon="6.83909">
        <ele>674</ele>
        <time>2020-10-28T08:57:53.779Z</time>
      </trkpt>
      <trkpt lat="48.06704" lon="6.83909">
        <ele>674</ele>
        <time>2020-10-28T08:57:54.780Z</time>
      </trkpt>
      <trkpt lat="48.06701" lon="6.83911">
        <ele>674</ele>
        <time>2020-10-28T08:57:55.780Z</time>
      </trkpt>
      <trkpt lat="48.067" lon="6.83912">
        <ele>675</ele>
        <time>2020-10-28T08:57:56.780Z</time>
      </trkpt>
      <trkpt lat="48.06698" lon="6.83911">
        <ele>676</ele>
        <time>2020-10-28T08:57:57.781Z</time>
      </trkpt>
      <trkpt lat="48.06696" lon="6.83909">
        <ele>677</ele>
        <time>2020-10-28T08:57:58.780Z</time>
      </trkpt>
      <trkpt lat="48.06695" lon="6.83908">
        <ele>678</ele>
        <time>2020-10-28T08:57:59.780Z</time>
      </trkpt>
      <trkpt lat="48.06695" lon="6.83909">
        <ele>679</ele>
        <time>2020-10-28T08:58:00.781Z</time>
      </trkpt>
      <trkpt lat="48.06694" lon="6.83907">
        <ele>680</ele>
        <time>2020-10-28T08:58:01.780Z</time>
      </trkpt>
      <trkpt lat="48.06693" lon="6.83906">
        <ele>681</ele>
        <time>2020-10-28T08:58:02.780Z</time>
      </trkpt>
      <trkpt lat="48.06693" lon="6.83907">
        <ele>682</ele>
        <time>2020-10-28T08:58:03.780Z</time>
      </trkpt>
      <trkpt lat="48.06692" lon="6.83908">
        <ele>684</ele>
        <time>2020-10-28T08:58:04.780Z</time>
      </trkpt>
      <trkpt lat="48.06692" lon="6.83908">
        <ele>685</ele>
        <time>2020-10-28T08:58:05.780Z</time>
      </trkpt>
      <trkpt lat="48.06692" lon="6.83908">
        <ele>686</ele>
        <time>2020-10-28T08:58:06.780Z</time>
      </trkpt>
      <trkpt lat="48.06692" lon="6.83908">
        <ele>688</ele>
        <time>2020-10-28T08:58:07.780Z</time>
      </trkpt>
      <trkpt lat="48.06691" lon="6.83906">
        <ele>693</ele>
        <time>2020-10-28T08:58:08.781Z</time>
      </trkpt>
      <trkpt lat="48.06691" lon="6.83905">
        <ele>693</ele>
        <time>2020-10-28T08:58:09.780Z</time>
      </trkpt>
      <trkpt lat="48.06691" lon="6.83905">
        <ele>694</ele>
        <time>2020-10-28T08:58:10.781Z</time>
      </trkpt>
      <trkpt lat="48.06692" lon="6.83904">
        <ele>695</ele>
        <time>2020-10-28T08:58:11.781Z</time>
      </trkpt>
      <trkpt lat="48.06691" lon="6.83903">
        <ele>695</ele>
        <time>2020-10-28T08:58:12.780Z</time>
      </trkpt>
      <trkpt lat="48.06691" lon="6.83902">
        <ele>696</ele>
        <time>2020-10-28T08:58:13.781Z</time>
      </trkpt>
      <trkpt lat="48.06691" lon="6.83901">
        <ele>697</ele>
        <time>2020-10-28T08:58:14.781Z</time>
      </trkpt>
      <trkpt lat="48.06691" lon="6.83901">
        <ele>698</ele>
        <time>2020-10-28T08:58:15.780Z</time>
      </trkpt>
      <trkpt lat="48.0669" lon="6.83899">
        <ele>698</ele>
        <time>2020-10-28T08:58:16.782Z</time>
      </trkpt>
      <trkpt lat="48.06689" lon="6.83898">
        <ele>698</ele>
        <time>2020-10-28T08:58:17.782Z</time>
      </trkpt>
      <trkpt lat="48.06689" lon="6.83897">
        <ele>697</ele>
        <time>2020-10-28T08:58:18.781Z</time>
      </trkpt>
      <trkpt lat="48.06689" lon="6.83896">
        <ele>697</ele>
        <time>2020-10-28T08:58:19.782Z</time>
      </trkpt>
      <trkpt lat="48.06689" lon="6.83895">
        <ele>697</ele>
        <time>2020-10-28T08:58:20.781Z</time>
      </trkpt>
      <trkpt lat="48.06689" lon="6.83895">
        <ele>696</ele>
        <time>2020-10-28T08:58:21.781Z</time>
      </trkpt>
      <trkpt lat="48.06689" lon="6.83895">
        <ele>696</ele>
        <time>2020-10-28T08:58:22.781Z</time>
      </trkpt>
      <trkpt lat="48.06687" lon="6.83893">
        <ele>691</ele>
        <time>2020-10-28T08:58:23.782Z</time>
      </trkpt>
      <trkpt lat="48.06686" lon="6.83892">
        <ele>691</ele>
        <time>2020-10-28T08:58:24.782Z</time>
      </trkpt>
      <trkpt lat="48.06686" lon="6.8389">
        <ele>691</ele>
        <time>2020-10-28T08:58:25.781Z</time>
      </trkpt>
      <trkpt lat="48.06686" lon="6.83889">
        <ele>692</ele>
        <time>2020-10-28T08:58:26.782Z</time>
      </trkpt>
      <trkpt lat="48.06686" lon="6.83888">
        <ele>692</ele>
        <time>2020-10-28T08:58:27.782Z</time>
      </trkpt>
      <trkpt lat="48.06686" lon="6.83887">
        <ele>693</ele>
        <time>2020-10-28T08:58:28.782Z</time>
      </trkpt>
      <trkpt lat="48.06685" lon="6.83886">
        <ele>693</ele>
        <time>2020-10-28T08:58:29.781Z</time>
      </trkpt>
      <trkpt lat="48.06685" lon="6.83886">
        <ele>693</ele>
        <time>2020-10-28T08:58:30.781Z</time>
      </trkpt>
      <trkpt lat="48.06684" lon="6.83886">
        <ele>694</ele>
        <time>2020-10-28T08:58:31.781Z</time>
      </trkpt>
      <trkpt lat="48.06684" lon="6.83887">
        <ele>695</ele>
        <time>2020-10-28T08:58:32.781Z</time>
      </trkpt>
      <trkpt lat="48.06684" lon="6.83888">
        <ele>695</ele>
        <time>2020-10-28T08:58:33.782Z</time>
      </trkpt>
      <trkpt lat="48.06684" lon="6.83888">
        <ele>696</ele>
        <time>2020-10-28T08:58:34.782Z</time>
      </trkpt>
      <trkpt lat="48.0668" lon="6.83894">
        <ele>702</ele>
        <time>2020-10-28T08:58:35.782Z</time>
      </trkpt>
      <trkpt lat="48.06679" lon="6.83894">
        <ele>702</ele>
        <time>2020-10-28T08:58:36.783Z</time>
      </trkpt>
      <trkpt lat="48.06679" lon="6.83895">
        <ele>702</ele>
        <time>2020-10-28T08:58:37.782Z</time>
      </trkpt>
      <trkpt lat="48.06679" lon="6.83896">
        <ele>702</ele>
        <time>2020-10-28T08:58:38.783Z</time>
      </trkpt>
      <trkpt lat="48.06679" lon="6.83896">
        <ele>702</ele>
        <time>2020-10-28T08:58:39.783Z</time>
      </trkpt>
      <trkpt lat="48.06681" lon="6.83897">
        <ele>701</ele>
        <time>2020-10-28T08:58:40.782Z</time>
      </trkpt>
      <trkpt lat="48.06681" lon="6.83898">
        <ele>700</ele>
        <time>2020-10-28T08:58:41.783Z</time>
      </trkpt>
      <trkpt lat="48.0668" lon="6.83898">
        <ele>700</ele>
        <time>2020-10-28T08:58:42.783Z</time>
      </trkpt>
      <trkpt lat="48.0668" lon="6.83899">
        <ele>700</ele>
        <time>2020-10-28T08:58:43.782Z</time>
      </trkpt>
      <trkpt lat="48.0668" lon="6.83899">
        <ele>699</ele>
        <time>2020-10-28T08:58:44.783Z</time>
      </trkpt>
      <trkpt lat="48.0668" lon="6.83899">
        <ele>699</ele>
        <time>2020-10-28T08:58:45.783Z</time>
      </trkpt>
      <trkpt lat="48.0668" lon="6.83899">
        <ele>698</ele>
        <time>2020-10-28T08:58:46.782Z</time>
      </trkpt>
      <trkpt lat="48.0668" lon="6.839">
        <ele>697</ele>
        <time>2020-10-28T08:58:47.782Z</time>
      </trkpt>
      <trkpt lat="48.0668" lon="6.839">
        <ele>696</ele>
        <time>2020-10-28T08:58:48.782Z</time>
      </trkpt>
      <trkpt lat="48.0668" lon="6.83901">
        <ele>696</ele>
        <time>2020-10-28T08:58:49.782Z</time>
      </trkpt>
      <trkpt lat="48.0668" lon="6.83901">
        <ele>695</ele>
        <time>2020-10-28T08:58:50.783Z</time>
      </trkpt>
      <trkpt lat="48.0668" lon="6.83902">
        <ele>695</ele>
        <time>2020-10-28T08:58:51.782Z</time>
      </trkpt>
      <trkpt lat="48.0668" lon="6.83903">
        <ele>694</ele>
        <time>2020-10-28T08:58:52.782Z</time>
      </trkpt>
      <trkpt lat="48.0668" lon="6.83904">
        <ele>694</ele>
        <time>2020-10-28T08:58:53.783Z</time>
      </trkpt>
      <trkpt lat="48.0668" lon="6.83904">
        <ele>694</ele>
        <time>2020-10-28T08:58:54.783Z</time>
      </trkpt>
      <trkpt lat="48.06679" lon="6.83906">
        <ele>695</ele>
        <time>2020-10-28T08:58:55.782Z</time>
      </trkpt>
      <trkpt lat="48.06679" lon="6.83906">
        <ele>694</ele>
        <time>2020-10-28T08:58:56.783Z</time>
      </trkpt>
      <trkpt lat="48.06679" lon="6.83907">
        <ele>694</ele>
        <time>2020-10-28T08:58:57.782Z</time>
      </trkpt>
      <trkpt lat="48.06679" lon="6.83907">
        <ele>694</ele>
        <time>2020-10-28T08:58:58.783Z</time>
      </trkpt>
      <trkpt lat="48.06679" lon="6.83907">
        <ele>694</ele>
        <time>2020-10-28T08:58:59.782Z</time>
      </trkpt>
      <trkpt lat="48.06678" lon="6.83907">
        <ele>694</ele>
        <time>2020-10-28T08:59:00.783Z</time>
      </trkpt>
      <trkpt lat="48.06678" lon="6.83907">
        <ele>693</ele>
        <time>2020-10-28T08:59:01.783Z</time>
      </trkpt>
      <trkpt lat="48.06678" lon="6.83906">
        <ele>692</ele>
        <time>2020-10-28T08:59:02.783Z</time>
      </trkpt>
      <trkpt lat="48.06678" lon="6.83906">
        <ele>692</ele>
        <time>2020-10-28T08:59:03.782Z</time>
      </trkpt>
      <trkpt lat="48.06678" lon="6.83906">
        <ele>691</ele>
        <time>2020-10-28T08:59:04.783Z</time>
      </trkpt>
      <trkpt lat="48.06676" lon="6.83906">
        <ele>697</ele>
        <time>2020-10-28T08:59:05.783Z</time>
      </trkpt>
      <trkpt lat="48.06676" lon="6.83905">
        <ele>696</ele>
        <time>2020-10-28T08:59:06.783Z</time>
      </trkpt>
      <trkpt lat="48.06673" lon="6.83899">
        <ele>695</ele>
        <time>2020-10-28T08:59:07.782Z</time>
      </trkpt>
      <trkpt lat="48.06673" lon="6.83899">
        <ele>695</ele>
        <time>2020-10-28T08:59:08.783Z</time>
      </trkpt>
      <trkpt lat="48.06673" lon="6.83899">
        <ele>695</ele>
        <time>2020-10-28T08:59:09.782Z</time>
      </trkpt>
      <trkpt lat="48.06672" lon="6.839">
        <ele>693</ele>
        <time>2020-10-28T08:59:10.783Z</time>
      </trkpt>
      <trkpt lat="48.06672" lon="6.83901">
        <ele>693</ele>
        <time>2020-10-28T08:59:11.783Z</time>
      </trkpt>
      <trkpt lat="48.06672" lon="6.83902">
        <ele>692</ele>
        <time>2020-10-28T08:59:12.782Z</time>
      </trkpt>
      <trkpt lat="48.06671" lon="6.83904">
        <ele>692</ele>
        <time>2020-10-28T08:59:13.782Z</time>
      </trkpt>
      <trkpt lat="48.06671" lon="6.83904">
        <ele>692</ele>
        <time>2020-10-28T08:59:14.782Z</time>
      </trkpt>
      <trkpt lat="48.06671" lon="6.83905">
        <ele>692</ele>
        <time>2020-10-28T08:59:15.783Z</time>
      </trkpt>
      <trkpt lat="48.0667" lon="6.83906">
        <ele>692</ele>
        <time>2020-10-28T08:59:16.783Z</time>
      </trkpt>
      <trkpt lat="48.0667" lon="6.83906">
        <ele>692</ele>
        <time>2020-10-28T08:59:17.783Z</time>
      </trkpt>
      <trkpt lat="48.0667" lon="6.83907">
        <ele>693</ele>
        <time>2020-10-28T08:59:18.783Z</time>
      </trkpt>
      <trkpt lat="48.06669" lon="6.83906">
        <ele>693</ele>
        <time>2020-10-28T08:59:19.783Z</time>
      </trkpt>
      <trkpt lat="48.06668" lon="6.83906">
        <ele>693</ele>
        <time>2020-10-28T08:59:20.783Z</time>
      </trkpt>
      <trkpt lat="48.06668" lon="6.83907">
        <ele>694</ele>
        <time>2020-10-28T08:59:21.783Z</time>
      </trkpt>
      <trkpt lat="48.06667" lon="6.83907">
        <ele>694</ele>
        <time>2020-10-28T08:59:22.783Z</time>
      </trkpt>
      <trkpt lat="48.06666" lon="6.83907">
        <ele>694</ele>
        <time>2020-10-28T08:59:23.782Z</time>
      </trkpt>
      <trkpt lat="48.06666" lon="6.83907">
        <ele>695</ele>
        <time>2020-10-28T08:59:24.783Z</time>
      </trkpt>
      <trkpt lat="48.06666" lon="6.83907">
        <ele>695</ele>
        <time>2020-10-28T08:59:25.782Z</time>
      </trkpt>
      <trkpt lat="48.06666" lon="6.83907">
        <ele>696</ele>
        <time>2020-10-28T08:59:26.783Z</time>
      </trkpt>
      <trkpt lat="48.06665" lon="6.83907">
        <ele>696</ele>
        <time>2020-10-28T08:59:27.782Z</time>
      </trkpt>
      <trkpt lat="48.06664" lon="6.83907">
        <ele>696</ele>
        <time>2020-10-28T08:59:28.782Z</time>
      </trkpt>
      <trkpt lat="48.06664" lon="6.83907">
        <ele>697</ele>
        <time>2020-10-28T08:59:29.782Z</time>
      </trkpt>
      <trkpt lat="48.06663" lon="6.83906">
        <ele>697</ele>
        <time>2020-10-28T08:59:30.783Z</time>
      </trkpt>
      <trkpt lat="48.06662" lon="6.83905">
        <ele>698</ele>
        <time>2020-10-28T08:59:31.782Z</time>
      </trkpt>
      <trkpt lat="48.06661" lon="6.83904">
        <ele>698</ele>
        <time>2020-10-28T08:59:32.783Z</time>
      </trkpt>
      <trkpt lat="48.06661" lon="6.83905">
        <ele>700</ele>
        <time>2020-10-28T08:59:33.785Z</time>
      </trkpt>
      <trkpt lat="48.0666" lon="6.83904">
        <ele>700</ele>
        <time>2020-10-28T08:59:34.785Z</time>
      </trkpt>
      <trkpt lat="48.06658" lon="6.839">
        <ele>703</ele>
        <time>2020-10-28T08:59:35.785Z</time>
      </trkpt>
      <trkpt lat="48.06659" lon="6.83899">
        <ele>703</ele>
        <time>2020-10-28T08:59:36.784Z</time>
      </trkpt>
      <trkpt lat="48.06659" lon="6.83897">
        <ele>703</ele>
        <time>2020-10-28T08:59:37.784Z</time>
      </trkpt>
      <trkpt lat="48.0666" lon="6.83896">
        <ele>703</ele>
        <time>2020-10-28T08:59:38.785Z</time>
      </trkpt>
      <trkpt lat="48.0666" lon="6.83895">
        <ele>703</ele>
        <time>2020-10-28T08:59:39.785Z</time>
      </trkpt>
      <trkpt lat="48.0666" lon="6.83893">
        <ele>703</ele>
        <time>2020-10-28T08:59:40.785Z</time>
      </trkpt>
      <trkpt lat="48.06659" lon="6.83891">
        <ele>704</ele>
        <time>2020-10-28T08:59:41.785Z</time>
      </trkpt>
      <trkpt lat="48.06659" lon="6.8389">
        <ele>704</ele>
        <time>2020-10-28T08:59:42.784Z</time>
      </trkpt>
      <trkpt lat="48.06659" lon="6.83889">
        <ele>705</ele>
        <time>2020-10-28T08:59:43.785Z</time>
      </trkpt>
      <trkpt lat="48.06659" lon="6.83888">
        <ele>706</ele>
        <time>2020-10-28T08:59:44.785Z</time>
      </trkpt>
      <trkpt lat="48.06659" lon="6.83887">
        <ele>707</ele>
        <time>2020-10-28T08:59:45.785Z</time>
      </trkpt>
      <trkpt lat="48.06658" lon="6.83886">
        <ele>707</ele>
        <time>2020-10-28T08:59:46.785Z</time>
      </trkpt>
      <trkpt lat="48.06658" lon="6.83885">
        <ele>708</ele>
        <time>2020-10-28T08:59:47.784Z</time>
      </trkpt>
      <trkpt lat="48.06658" lon="6.83885">
        <ele>709</ele>
        <time>2020-10-28T08:59:48.785Z</time>
      </trkpt>
      <trkpt lat="48.06659" lon="6.83884">
        <ele>709</ele>
        <time>2020-10-28T08:59:49.785Z</time>
      </trkpt>
      <trkpt lat="48.06659" lon="6.83884">
        <ele>710</ele>
        <time>2020-10-28T08:59:50.785Z</time>
      </trkpt>
      <trkpt lat="48.06659" lon="6.83883">
        <ele>710</ele>
        <time>2020-10-28T08:59:51.786Z</time>
      </trkpt>
      <trkpt lat="48.06659" lon="6.83882">
        <ele>710</ele>
        <time>2020-10-28T08:59:52.785Z</time>
      </trkpt>
      <trkpt lat="48.06659" lon="6.83881">
        <ele>709</ele>
        <time>2020-10-28T08:59:53.786Z</time>
      </trkpt>
      <trkpt lat="48.06658" lon="6.8388">
        <ele>709</ele>
        <time>2020-10-28T08:59:54.785Z</time>
      </trkpt>
      <trkpt lat="48.06658" lon="6.83876">
        <ele>707</ele>
        <time>2020-10-28T08:59:55.787Z</time>
      </trkpt>
      <trkpt lat="48.06658" lon="6.83875">
        <ele>707</ele>
        <time>2020-10-28T08:59:56.787Z</time>
      </trkpt>
      <trkpt lat="48.06658" lon="6.83875">
        <ele>707</ele>
        <time>2020-10-28T08:59:57.786Z</time>
      </trkpt>
      <trkpt lat="48.06657" lon="6.83874">
        <ele>706</ele>
        <time>2020-10-28T08:59:58.787Z</time>
      </trkpt>
      <trkpt lat="48.06657" lon="6.83873">
        <ele>706</ele>
        <time>2020-10-28T08:59:59.787Z</time>
      </trkpt>
      <trkpt lat="48.06657" lon="6.83872">
        <ele>706</ele>
        <time>2020-10-28T09:00:00.787Z</time>
      </trkpt>
      <trkpt lat="48.06658" lon="6.83872">
        <ele>706</ele>
        <time>2020-10-28T09:00:01.787Z</time>
      </trkpt>
      <trkpt lat="48.06658" lon="6.83873">
        <ele>706</ele>
        <time>2020-10-28T09:00:02.787Z</time>
      </trkpt>
      <trkpt lat="48.06659" lon="6.83872">
        <ele>706</ele>
        <time>2020-10-28T09:00:03.787Z</time>
      </trkpt>
      <trkpt lat="48.06658" lon="6.8387">
        <ele>705</ele>
        <time>2020-10-28T09:00:04.787Z</time>
      </trkpt>
      <trkpt lat="48.06658" lon="6.8387">
        <ele>705</ele>
        <time>2020-10-28T09:00:05.787Z</time>
      </trkpt>
      <trkpt lat="48.06657" lon="6.83869">
        <ele>705</ele>
        <time>2020-10-28T09:00:06.787Z</time>
      </trkpt>
      <trkpt lat="48.06657" lon="6.83869">
        <ele>706</ele>
        <time>2020-10-28T09:00:07.787Z</time>
      </trkpt>
      <trkpt lat="48.06657" lon="6.83868">
        <ele>706</ele>
        <time>2020-10-28T09:00:08.787Z</time>
      </trkpt>
      <trkpt lat="48.06657" lon="6.83867">
        <ele>706</ele>
        <time>2020-10-28T09:00:09.786Z</time>
      </trkpt>
      <trkpt lat="48.06656" lon="6.83867">
        <ele>707</ele>
        <time>2020-10-28T09:00:10.787Z</time>
      </trkpt>
      <trkpt lat="48.06656" lon="6.83866">
        <ele>707</ele>
        <time>2020-10-28T09:00:11.787Z</time>
      </trkpt>
      <trkpt lat="48.06655" lon="6.83865">
        <ele>708</ele>
        <time>2020-10-28T09:00:12.787Z</time>
      </trkpt>
      <trkpt lat="48.06655" lon="6.83863">
        <ele>708</ele>
        <time>2020-10-28T09:00:13.787Z</time>
      </trkpt>
      <trkpt lat="48.06655" lon="6.83863">
        <ele>709</ele>
        <time>2020-10-28T09:00:14.786Z</time>
      </trkpt>
      <trkpt lat="48.06654" lon="6.83862">
        <ele>709</ele>
        <time>2020-10-28T09:00:15.786Z</time>
      </trkpt>
      <trkpt lat="48.06651" lon="6.83862">
        <ele>711</ele>
        <time>2020-10-28T09:00:16.788Z</time>
      </trkpt>
      <trkpt lat="48.0665" lon="6.83861">
        <ele>712</ele>
        <time>2020-10-28T09:00:17.787Z</time>
      </trkpt>
      <trkpt lat="48.0665" lon="6.8386">
        <ele>712</ele>
        <time>2020-10-28T09:00:18.788Z</time>
      </trkpt>
      <trkpt lat="48.0665" lon="6.83859">
        <ele>712</ele>
        <time>2020-10-28T09:00:19.788Z</time>
      </trkpt>
      <trkpt lat="48.0665" lon="6.83857">
        <ele>712</ele>
        <time>2020-10-28T09:00:20.787Z</time>
      </trkpt>
      <trkpt lat="48.0665" lon="6.83856">
        <ele>712</ele>
        <time>2020-10-28T09:00:21.787Z</time>
      </trkpt>
      <trkpt lat="48.0665" lon="6.83856">
        <ele>711</ele>
        <time>2020-10-28T09:00:22.788Z</time>
      </trkpt>
      <trkpt lat="48.0665" lon="6.83856">
        <ele>711</ele>
        <time>2020-10-28T09:00:23.788Z</time>
      </trkpt>
      <trkpt lat="48.0665" lon="6.83856">
        <ele>711</ele>
        <time>2020-10-28T09:00:24.788Z</time>
      </trkpt>
      <trkpt lat="48.0665" lon="6.83856">
        <ele>711</ele>
        <time>2020-10-28T09:00:25.788Z</time>
      </trkpt>
      <trkpt lat="48.0665" lon="6.83856">
        <ele>711</ele>
        <time>2020-10-28T09:00:26.787Z</time>
      </trkpt>
      <trkpt lat="48.0665" lon="6.83855">
        <ele>711</ele>
        <time>2020-10-28T09:00:27.789Z</time>
      </trkpt>
      <trkpt lat="48.0665" lon="6.83854">
        <ele>710</ele>
        <time>2020-10-28T09:00:28.789Z</time>
      </trkpt>
      <trkpt lat="48.0665" lon="6.83853">
        <ele>710</ele>
        <time>2020-10-28T09:00:29.789Z</time>
      </trkpt>
      <trkpt lat="48.06649" lon="6.83852">
        <ele>710</ele>
        <time>2020-10-28T09:00:30.788Z</time>
      </trkpt>
      <trkpt lat="48.06649" lon="6.83851">
        <ele>709</ele>
        <time>2020-10-28T09:00:31.789Z</time>
      </trkpt>
      <trkpt lat="48.06649" lon="6.8385">
        <ele>709</ele>
        <time>2020-10-28T09:00:32.789Z</time>
      </trkpt>
      <trkpt lat="48.06649" lon="6.8385">
        <ele>710</ele>
        <time>2020-10-28T09:00:33.789Z</time>
      </trkpt>
      <trkpt lat="48.0665" lon="6.8385">
        <ele>710</ele>
        <time>2020-10-28T09:00:34.788Z</time>
      </trkpt>
      <trkpt lat="48.06649" lon="6.83848">
        <ele>712</ele>
        <time>2020-10-28T09:00:35.790Z</time>
      </trkpt>
      <trkpt lat="48.06649" lon="6.83848">
        <ele>711</ele>
        <time>2020-10-28T09:00:36.790Z</time>
      </trkpt>
      <trkpt lat="48.0665" lon="6.83848">
        <ele>711</ele>
        <time>2020-10-28T09:00:37.790Z</time>
      </trkpt>
      <trkpt lat="48.0665" lon="6.83849">
        <ele>711</ele>
        <time>2020-10-28T09:00:38.790Z</time>
      </trkpt>
      <trkpt lat="48.06651" lon="6.8385">
        <ele>710</ele>
        <time>2020-10-28T09:00:39.790Z</time>
      </trkpt>
      <trkpt lat="48.06652" lon="6.83852">
        <ele>710</ele>
        <time>2020-10-28T09:00:40.790Z</time>
      </trkpt>
      <trkpt lat="48.06652" lon="6.83853">
        <ele>709</ele>
        <time>2020-10-28T09:00:41.790Z</time>
      </trkpt>
      <trkpt lat="48.06652" lon="6.83853">
        <ele>709</ele>
        <time>2020-10-28T09:00:42.790Z</time>
      </trkpt>
      <trkpt lat="48.06651" lon="6.83854">
        <ele>709</ele>
        <time>2020-10-28T09:00:43.790Z</time>
      </trkpt>
      <trkpt lat="48.06651" lon="6.83854">
        <ele>709</ele>
        <time>2020-10-28T09:00:44.790Z</time>
      </trkpt>
      <trkpt lat="48.0665" lon="6.83855">
        <ele>709</ele>
        <time>2020-10-28T09:00:45.790Z</time>
      </trkpt>
      <trkpt lat="48.0665" lon="6.83854">
        <ele>709</ele>
        <time>2020-10-28T09:00:46.789Z</time>
      </trkpt>
      <trkpt lat="48.06649" lon="6.83853">
        <ele>709</ele>
        <time>2020-10-28T09:00:47.790Z</time>
      </trkpt>
      <trkpt lat="48.06648" lon="6.83853">
        <ele>709</ele>
        <time>2020-10-28T09:00:48.790Z</time>
      </trkpt>
      <trkpt lat="48.06648" lon="6.83852">
        <ele>709</ele>
        <time>2020-10-28T09:00:49.789Z</time>
      </trkpt>
      <trkpt lat="48.06647" lon="6.83851">
        <ele>709</ele>
        <time>2020-10-28T09:00:50.790Z</time>
      </trkpt>
      <trkpt lat="48.06646" lon="6.8385">
        <ele>710</ele>
        <time>2020-10-28T09:00:51.789Z</time>
      </trkpt>
      <trkpt lat="48.06646" lon="6.83849">
        <ele>710</ele>
        <time>2020-10-28T09:00:52.789Z</time>
      </trkpt>
      <trkpt lat="48.06645" lon="6.83848">
        <ele>711</ele>
        <time>2020-10-28T09:00:53.790Z</time>
      </trkpt>
      <trkpt lat="48.06645" lon="6.83847">
        <ele>711</ele>
        <time>2020-10-28T09:00:54.789Z</time>
      </trkpt>
      <trkpt lat="48.06645" lon="6.83846">
        <ele>711</ele>
        <time>2020-10-28T09:00:55.790Z</time>
      </trkpt>
      <trkpt lat="48.06645" lon="6.83844">
        <ele>711</ele>
        <time>2020-10-28T09:00:56.790Z</time>
      </trkpt>
      <trkpt lat="48.06645" lon="6.83842">
        <ele>711</ele>
        <time>2020-10-28T09:00:57.789Z</time>
      </trkpt>
      <trkpt lat="48.06644" lon="6.8384">
        <ele>711</ele>
        <time>2020-10-28T09:00:58.790Z</time>
      </trkpt>
      <trkpt lat="48.06644" lon="6.8384">
        <ele>711</ele>
        <time>2020-10-28T09:00:59.790Z</time>
      </trkpt>
      <trkpt lat="48.06644" lon="6.83839">
        <ele>711</ele>
        <time>2020-10-28T09:01:00.790Z</time>
      </trkpt>
      <trkpt lat="48.06644" lon="6.83839">
        <ele>712</ele>
        <time>2020-10-28T09:01:01.789Z</time>
      </trkpt>
      <trkpt lat="48.06644" lon="6.83838">
        <ele>713</ele>
        <time>2020-10-28T09:01:02.790Z</time>
      </trkpt>
      <trkpt lat="48.06644" lon="6.83837">
        <ele>713</ele>
        <time>2020-10-28T09:01:03.790Z</time>
      </trkpt>
      <trkpt lat="48.06644" lon="6.83836">
        <ele>714</ele>
        <time>2020-10-28T09:01:04.789Z</time>
      </trkpt>
      <trkpt lat="48.06644" lon="6.83835">
        <ele>715</ele>
        <time>2020-10-28T09:01:05.790Z</time>
      </trkpt>
      <trkpt lat="48.06644" lon="6.83835">
        <ele>715</ele>
        <time>2020-10-28T09:01:06.790Z</time>
      </trkpt>
      <trkpt lat="48.06644" lon="6.83835">
        <ele>715</ele>
        <time>2020-10-28T09:01:07.789Z</time>
      </trkpt>
      <trkpt lat="48.06645" lon="6.83837">
        <ele>716</ele>
        <time>2020-10-28T09:01:08.789Z</time>
      </trkpt>
      <trkpt lat="48.06645" lon="6.83839">
        <ele>716</ele>
        <time>2020-10-28T09:01:09.790Z</time>
      </trkpt>
      <trkpt lat="48.06645" lon="6.83834">
        <ele>720</ele>
        <time>2020-10-28T09:01:10.791Z</time>
      </trkpt>
      <trkpt lat="48.06643" lon="6.83834">
        <ele>720</ele>
        <time>2020-10-28T09:01:11.791Z</time>
      </trkpt>
      <trkpt lat="48.06642" lon="6.83833">
        <ele>720</ele>
        <time>2020-10-28T09:01:12.791Z</time>
      </trkpt>
      <trkpt lat="48.0664" lon="6.83832">
        <ele>720</ele>
        <time>2020-10-28T09:01:13.790Z</time>
      </trkpt>
      <trkpt lat="48.06639" lon="6.83831">
        <ele>721</ele>
        <time>2020-10-28T09:01:14.791Z</time>
      </trkpt>
      <trkpt lat="48.06637" lon="6.83829">
        <ele>722</ele>
        <time>2020-10-28T09:01:15.791Z</time>
      </trkpt>
      <trkpt lat="48.06637" lon="6.83827">
        <ele>722</ele>
        <time>2020-10-28T09:01:16.791Z</time>
      </trkpt>
      <trkpt lat="48.06636" lon="6.83825">
        <ele>722</ele>
        <time>2020-10-28T09:01:17.791Z</time>
      </trkpt>
      <trkpt lat="48.06636" lon="6.83824">
        <ele>722</ele>
        <time>2020-10-28T09:01:18.790Z</time>
      </trkpt>
      <trkpt lat="48.06636" lon="6.83824">
        <ele>722</ele>
        <time>2020-10-28T09:01:19.791Z</time>
      </trkpt>
      <trkpt lat="48.06635" lon="6.83823">
        <ele>722</ele>
        <time>2020-10-28T09:01:20.791Z</time>
      </trkpt>
      <trkpt lat="48.06635" lon="6.83822">
        <ele>722</ele>
        <time>2020-10-28T09:01:21.791Z</time>
      </trkpt>
      <trkpt lat="48.06634" lon="6.83822">
        <ele>723</ele>
        <time>2020-10-28T09:01:22.790Z</time>
      </trkpt>
      <trkpt lat="48.06634" lon="6.83821">
        <ele>723</ele>
        <time>2020-10-28T09:01:23.790Z</time>
      </trkpt>
      <trkpt lat="48.06634" lon="6.8382">
        <ele>722</ele>
        <time>2020-10-28T09:01:24.791Z</time>
      </trkpt>
      <trkpt lat="48.06634" lon="6.8382">
        <ele>722</ele>
        <time>2020-10-28T09:01:25.791Z</time>
      </trkpt>
      <trkpt lat="48.06634" lon="6.8382">
        <ele>722</ele>
        <time>2020-10-28T09:01:26.790Z</time>
      </trkpt>
      <trkpt lat="48.06633" lon="6.83819">
        <ele>723</ele>
        <time>2020-10-28T09:01:27.791Z</time>
      </trkpt>
      <trkpt lat="48.06633" lon="6.83819">
        <ele>723</ele>
        <time>2020-10-28T09:01:28.791Z</time>
      </trkpt>
      <trkpt lat="48.06631" lon="6.8382">
        <ele>723</ele>
        <time>2020-10-28T09:01:29.792Z</time>
      </trkpt>
      <trkpt lat="48.0663" lon="6.83821">
        <ele>724</ele>
        <time>2020-10-28T09:01:30.792Z</time>
      </trkpt>
      <trkpt lat="48.06629" lon="6.83822">
        <ele>724</ele>
        <time>2020-10-28T09:01:31.791Z</time>
      </trkpt>
      <trkpt lat="48.06628" lon="6.83822">
        <ele>725</ele>
        <time>2020-10-28T09:01:32.792Z</time>
      </trkpt>
      <trkpt lat="48.06627" lon="6.83822">
        <ele>725</ele>
        <time>2020-10-28T09:01:33.791Z</time>
      </trkpt>
      <trkpt lat="48.06627" lon="6.83822">
        <ele>726</ele>
        <time>2020-10-28T09:01:34.792Z</time>
      </trkpt>
      <trkpt lat="48.06627" lon="6.83821">
        <ele>726</ele>
        <time>2020-10-28T09:01:35.792Z</time>
      </trkpt>
      <trkpt lat="48.06626" lon="6.83821">
        <ele>727</ele>
        <time>2020-10-28T09:01:36.792Z</time>
      </trkpt>
      <trkpt lat="48.06625" lon="6.8382">
        <ele>728</ele>
        <time>2020-10-28T09:01:37.792Z</time>
      </trkpt>
      <trkpt lat="48.06625" lon="6.83819">
        <ele>728</ele>
        <time>2020-10-28T09:01:38.792Z</time>
      </trkpt>
      <trkpt lat="48.06625" lon="6.83819">
        <ele>729</ele>
        <time>2020-10-28T09:01:39.792Z</time>
      </trkpt>
      <trkpt lat="48.06625" lon="6.83818">
        <ele>730</ele>
        <time>2020-10-28T09:01:40.791Z</time>
      </trkpt>
      <trkpt lat="48.06625" lon="6.83817">
        <ele>731</ele>
        <time>2020-10-28T09:01:41.792Z</time>
      </trkpt>
      <trkpt lat="48.06625" lon="6.83817">
        <ele>732</ele>
        <time>2020-10-28T09:01:42.791Z</time>
      </trkpt>
      <trkpt lat="48.06619" lon="6.83817">
        <ele>739</ele>
        <time>2020-10-28T09:01:43.792Z</time>
      </trkpt>
      <trkpt lat="48.06619" lon="6.83817">
        <ele>739</ele>
        <time>2020-10-28T09:01:44.792Z</time>
      </trkpt>
      <trkpt lat="48.06618" lon="6.83817">
        <ele>739</ele>
        <time>2020-10-28T09:01:45.792Z</time>
      </trkpt>
      <trkpt lat="48.06618" lon="6.83817">
        <ele>739</ele>
        <time>2020-10-28T09:01:46.791Z</time>
      </trkpt>
      <trkpt lat="48.06617" lon="6.83816">
        <ele>739</ele>
        <time>2020-10-28T09:01:47.791Z</time>
      </trkpt>
      <trkpt lat="48.06617" lon="6.83816">
        <ele>739</ele>
        <time>2020-10-28T09:01:48.791Z</time>
      </trkpt>
      <trkpt lat="48.06616" lon="6.83816">
        <ele>739</ele>
        <time>2020-10-28T09:01:49.792Z</time>
      </trkpt>
      <trkpt lat="48.06616" lon="6.83817">
        <ele>739</ele>
        <time>2020-10-28T09:01:50.792Z</time>
      </trkpt>
      <trkpt lat="48.06616" lon="6.83816">
        <ele>741</ele>
        <time>2020-10-28T09:01:51.792Z</time>
      </trkpt>
      <trkpt lat="48.06615" lon="6.83815">
        <ele>742</ele>
        <time>2020-10-28T09:01:52.791Z</time>
      </trkpt>
      <trkpt lat="48.06616" lon="6.83813">
        <ele>742</ele>
        <time>2020-10-28T09:01:53.791Z</time>
      </trkpt>
      <trkpt lat="48.06616" lon="6.83813">
        <ele>742</ele>
        <time>2020-10-28T09:01:54.791Z</time>
      </trkpt>
      <trkpt lat="48.06616" lon="6.83813">
        <ele>742</ele>
        <time>2020-10-28T09:01:55.792Z</time>
      </trkpt>
      <trkpt lat="48.06617" lon="6.83813">
        <ele>742</ele>
        <time>2020-10-28T09:01:56.792Z</time>
      </trkpt>
      <trkpt lat="48.06616" lon="6.83811">
        <ele>742</ele>
        <time>2020-10-28T09:01:57.793Z</time>
      </trkpt>
      <trkpt lat="48.06616" lon="6.8381">
        <ele>742</ele>
        <time>2020-10-28T09:01:58.792Z</time>
      </trkpt>
      <trkpt lat="48.06615" lon="6.83809">
        <ele>742</ele>
        <time>2020-10-28T09:01:59.793Z</time>
      </trkpt>
      <trkpt lat="48.06615" lon="6.83808">
        <ele>742</ele>
        <time>2020-10-28T09:02:00.793Z</time>
      </trkpt>
      <trkpt lat="48.06615" lon="6.83808">
        <ele>742</ele>
        <time>2020-10-28T09:02:01.793Z</time>
      </trkpt>
      <trkpt lat="48.06615" lon="6.83809">
        <ele>742</ele>
        <time>2020-10-28T09:02:02.793Z</time>
      </trkpt>
      <trkpt lat="48.06615" lon="6.83809">
        <ele>741</ele>
        <time>2020-10-28T09:02:03.793Z</time>
      </trkpt>
      <trkpt lat="48.06615" lon="6.83809">
        <ele>741</ele>
        <time>2020-10-28T09:02:04.792Z</time>
      </trkpt>
      <trkpt lat="48.06614" lon="6.83809">
        <ele>741</ele>
        <time>2020-10-28T09:02:05.792Z</time>
      </trkpt>
      <trkpt lat="48.06614" lon="6.83809">
        <ele>741</ele>
        <time>2020-10-28T09:02:06.793Z</time>
      </trkpt>
      <trkpt lat="48.06613" lon="6.83809">
        <ele>741</ele>
        <time>2020-10-28T09:02:07.792Z</time>
      </trkpt>
      <trkpt lat="48.06613" lon="6.83808">
        <ele>741</ele>
        <time>2020-10-28T09:02:08.793Z</time>
      </trkpt>
      <trkpt lat="48.06612" lon="6.83806">
        <ele>741</ele>
        <time>2020-10-28T09:02:09.792Z</time>
      </trkpt>
      <trkpt lat="48.06613" lon="6.83805">
        <ele>741</ele>
        <time>2020-10-28T09:02:10.793Z</time>
      </trkpt>
      <trkpt lat="48.06613" lon="6.83805">
        <ele>741</ele>
        <time>2020-10-28T09:02:11.792Z</time>
      </trkpt>
      <trkpt lat="48.06614" lon="6.83801">
        <ele>740</ele>
        <time>2020-10-28T09:02:12.792Z</time>
      </trkpt>
      <trkpt lat="48.06613" lon="6.83796">
        <ele>739</ele>
        <time>2020-10-28T09:02:13.793Z</time>
      </trkpt>
      <trkpt lat="48.06614" lon="6.83795">
        <ele>739</ele>
        <time>2020-10-28T09:02:14.792Z</time>
      </trkpt>
      <trkpt lat="48.06614" lon="6.83794">
        <ele>739</ele>
        <time>2020-10-28T09:02:15.792Z</time>
      </trkpt>
      <trkpt lat="48.06614" lon="6.83794">
        <ele>740</ele>
        <time>2020-10-28T09:02:16.792Z</time>
      </trkpt>
      <trkpt lat="48.06614" lon="6.83795">
        <ele>740</ele>
        <time>2020-10-28T09:02:17.793Z</time>
      </trkpt>
      <trkpt lat="48.06614" lon="6.83796">
        <ele>740</ele>
        <time>2020-10-28T09:02:18.792Z</time>
      </trkpt>
      <trkpt lat="48.06613" lon="6.83796">
        <ele>740</ele>
        <time>2020-10-28T09:02:19.792Z</time>
      </trkpt>
      <trkpt lat="48.06613" lon="6.83797">
        <ele>740</ele>
        <time>2020-10-28T09:02:20.793Z</time>
      </trkpt>
      <trkpt lat="48.06612" lon="6.83793">
        <ele>738</ele>
        <time>2020-10-28T09:02:21.794Z</time>
      </trkpt>
      <trkpt lat="48.06611" lon="6.83792">
        <ele>738</ele>
        <time>2020-10-28T09:02:22.793Z</time>
      </trkpt>
      <trkpt lat="48.06611" lon="6.83792">
        <ele>737</ele>
        <time>2020-10-28T09:02:23.793Z</time>
      </trkpt>
      <trkpt lat="48.06611" lon="6.83792">
        <ele>736</ele>
        <time>2020-10-28T09:02:24.793Z</time>
      </trkpt>
      <trkpt lat="48.06611" lon="6.83792">
        <ele>736</ele>
        <time>2020-10-28T09:02:25.793Z</time>
      </trkpt>
      <trkpt lat="48.06611" lon="6.8379">
        <ele>732</ele>
        <time>2020-10-28T09:02:26.794Z</time>
      </trkpt>
      <trkpt lat="48.06611" lon="6.8379">
        <ele>731</ele>
        <time>2020-10-28T09:02:27.794Z</time>
      </trkpt>
      <trkpt lat="48.0661" lon="6.83789">
        <ele>729</ele>
        <time>2020-10-28T09:02:28.795Z</time>
      </trkpt>
      <trkpt lat="48.06609" lon="6.83789">
        <ele>729</ele>
        <time>2020-10-28T09:02:29.795Z</time>
      </trkpt>
      <trkpt lat="48.06609" lon="6.83789">
        <ele>729</ele>
        <time>2020-10-28T09:02:30.795Z</time>
      </trkpt>
      <trkpt lat="48.06607" lon="6.83785">
        <ele>730</ele>
        <time>2020-10-28T09:02:31.796Z</time>
      </trkpt>
      <trkpt lat="48.06607" lon="6.83784">
        <ele>730</ele>
        <time>2020-10-28T09:02:32.796Z</time>
      </trkpt>
      <trkpt lat="48.06606" lon="6.83784">
        <ele>731</ele>
        <time>2020-10-28T09:02:33.797Z</time>
      </trkpt>
      <trkpt lat="48.06606" lon="6.83783">
        <ele>732</ele>
        <time>2020-10-28T09:02:34.797Z</time>
      </trkpt>
      <trkpt lat="48.06606" lon="6.83782">
        <ele>733</ele>
        <time>2020-10-28T09:02:35.797Z</time>
      </trkpt>
      <trkpt lat="48.06606" lon="6.8378">
        <ele>733</ele>
        <time>2020-10-28T09:02:36.796Z</time>
      </trkpt>
      <trkpt lat="48.06606" lon="6.8378">
        <ele>734</ele>
        <time>2020-10-28T09:02:37.796Z</time>
      </trkpt>
      <trkpt lat="48.06606" lon="6.8378">
        <ele>735</ele>
        <time>2020-10-28T09:02:38.796Z</time>
      </trkpt>
      <trkpt lat="48.06606" lon="6.8378">
        <ele>735</ele>
        <time>2020-10-28T09:02:39.797Z</time>
      </trkpt>
      <trkpt lat="48.06605" lon="6.8378">
        <ele>736</ele>
        <time>2020-10-28T09:02:40.797Z</time>
      </trkpt>
      <trkpt lat="48.06605" lon="6.8378">
        <ele>736</ele>
        <time>2020-10-28T09:02:41.796Z</time>
      </trkpt>
      <trkpt lat="48.06604" lon="6.8378">
        <ele>737</ele>
        <time>2020-10-28T09:02:42.796Z</time>
      </trkpt>
      <trkpt lat="48.06604" lon="6.83782">
        <ele>737</ele>
        <time>2020-10-28T09:02:43.797Z</time>
      </trkpt>
      <trkpt lat="48.06603" lon="6.83783">
        <ele>738</ele>
        <time>2020-10-28T09:02:44.797Z</time>
      </trkpt>
      <trkpt lat="48.06602" lon="6.83783">
        <ele>739</ele>
        <time>2020-10-28T09:02:45.796Z</time>
      </trkpt>
      <trkpt lat="48.06601" lon="6.83783">
        <ele>740</ele>
        <time>2020-10-28T09:02:46.796Z</time>
      </trkpt>
      <trkpt lat="48.066" lon="6.83783">
        <ele>741</ele>
        <time>2020-10-28T09:02:47.796Z</time>
      </trkpt>
      <trkpt lat="48.06599" lon="6.83784">
        <ele>743</ele>
        <time>2020-10-28T09:02:48.797Z</time>
      </trkpt>
      <trkpt lat="48.06598" lon="6.83785">
        <ele>744</ele>
        <time>2020-10-28T09:02:49.797Z</time>
      </trkpt>
      <trkpt lat="48.06597" lon="6.83785">
        <ele>745</ele>
        <time>2020-10-28T09:02:50.797Z</time>
      </trkpt>
      <trkpt lat="48.06597" lon="6.83785">
        <ele>746</ele>
        <time>2020-10-28T09:02:51.796Z</time>
      </trkpt>
      <trkpt lat="48.06596" lon="6.83785">
        <ele>747</ele>
        <time>2020-10-28T09:02:52.797Z</time>
      </trkpt>
      <trkpt lat="48.06596" lon="6.83785">
        <ele>748</ele>
        <time>2020-10-28T09:02:53.797Z</time>
      </trkpt>
      <trkpt lat="48.06595" lon="6.83786">
        <ele>750</ele>
        <time>2020-10-28T09:02:54.797Z</time>
      </trkpt>
      <trkpt lat="48.06595" lon="6.83787">
        <ele>751</ele>
        <time>2020-10-28T09:02:55.796Z</time>
      </trkpt>
      <trkpt lat="48.06593" lon="6.83787">
        <ele>752</ele>
        <time>2020-10-28T09:02:56.796Z</time>
      </trkpt>
      <trkpt lat="48.06592" lon="6.83787">
        <ele>753</ele>
        <time>2020-10-28T09:02:57.796Z</time>
      </trkpt>
      <trkpt lat="48.06592" lon="6.83788">
        <ele>753</ele>
        <time>2020-10-28T09:02:58.797Z</time>
      </trkpt>
      <trkpt lat="48.06591" lon="6.83787">
        <ele>754</ele>
        <time>2020-10-28T09:02:59.797Z</time>
      </trkpt>
      <trkpt lat="48.06591" lon="6.83787">
        <ele>754</ele>
        <time>2020-10-28T09:03:00.797Z</time>
      </trkpt>
      <trkpt lat="48.06591" lon="6.83787">
        <ele>754</ele>
        <time>2020-10-28T09:03:01.796Z</time>
      </trkpt>
      <trkpt lat="48.06591" lon="6.83788">
        <ele>754</ele>
        <time>2020-10-28T09:03:02.796Z</time>
      </trkpt>
      <trkpt lat="48.06591" lon="6.83788">
        <ele>754</ele>
        <time>2020-10-28T09:03:03.796Z</time>
      </trkpt>
      <trkpt lat="48.06591" lon="6.83788">
        <ele>754</ele>
        <time>2020-10-28T09:03:04.797Z</time>
      </trkpt>
      <trkpt lat="48.06591" lon="6.83787">
        <ele>754</ele>
        <time>2020-10-28T09:03:05.796Z</time>
      </trkpt>
      <trkpt lat="48.06591" lon="6.83788">
        <ele>753</ele>
        <time>2020-10-28T09:03:06.798Z</time>
      </trkpt>
      <trkpt lat="48.06589" lon="6.8379">
        <ele>753</ele>
        <time>2020-10-28T09:03:07.798Z</time>
      </trkpt>
      <trkpt lat="48.06587" lon="6.83791">
        <ele>753</ele>
        <time>2020-10-28T09:03:08.797Z</time>
      </trkpt>
      <trkpt lat="48.06585" lon="6.83791">
        <ele>753</ele>
        <time>2020-10-28T09:03:09.797Z</time>
      </trkpt>
      <trkpt lat="48.06584" lon="6.83792">
        <ele>753</ele>
        <time>2020-10-28T09:03:10.798Z</time>
      </trkpt>
      <trkpt lat="48.06581" lon="6.83791">
        <ele>754</ele>
        <time>2020-10-28T09:03:11.798Z</time>
      </trkpt>
      <trkpt lat="48.0658" lon="6.83791">
        <ele>754</ele>
        <time>2020-10-28T09:03:12.798Z</time>
      </trkpt>
      <trkpt lat="48.06579" lon="6.83793">
        <ele>755</ele>
        <time>2020-10-28T09:03:13.798Z</time>
      </trkpt>
      <trkpt lat="48.06579" lon="6.83793">
        <ele>755</ele>
        <time>2020-10-28T09:03:14.798Z</time>
      </trkpt>
      <trkpt lat="48.06578" lon="6.83795">
        <ele>755</ele>
        <time>2020-10-28T09:03:15.797Z</time>
      </trkpt>
      <trkpt lat="48.06578" lon="6.83796">
        <ele>755</ele>
        <time>2020-10-28T09:03:16.798Z</time>
      </trkpt>
      <trkpt lat="48.06577" lon="6.83797">
        <ele>754</ele>
        <time>2020-10-28T09:03:17.797Z</time>
      </trkpt>
      <trkpt lat="48.06576" lon="6.83797">
        <ele>754</ele>
        <time>2020-10-28T09:03:18.797Z</time>
      </trkpt>
      <trkpt lat="48.06576" lon="6.83798">
        <ele>754</ele>
        <time>2020-10-28T09:03:19.798Z</time>
      </trkpt>
      <trkpt lat="48.06575" lon="6.83799">
        <ele>754</ele>
        <time>2020-10-28T09:03:20.798Z</time>
      </trkpt>
      <trkpt lat="48.06575" lon="6.83798">
        <ele>754</ele>
        <time>2020-10-28T09:03:21.798Z</time>
      </trkpt>
      <trkpt lat="48.06574" lon="6.83798">
        <ele>755</ele>
        <time>2020-10-28T09:03:22.798Z</time>
      </trkpt>
      <trkpt lat="48.06573" lon="6.83797">
        <ele>756</ele>
        <time>2020-10-28T09:03:23.798Z</time>
      </trkpt>
      <trkpt lat="48.06572" lon="6.83796">
        <ele>756</ele>
        <time>2020-10-28T09:03:24.798Z</time>
      </trkpt>
      <trkpt lat="48.06572" lon="6.83796">
        <ele>757</ele>
        <time>2020-10-28T09:03:25.798Z</time>
      </trkpt>
      <trkpt lat="48.06571" lon="6.83797">
        <ele>758</ele>
        <time>2020-10-28T09:03:26.798Z</time>
      </trkpt>
      <trkpt lat="48.06571" lon="6.83798">
        <ele>759</ele>
        <time>2020-10-28T09:03:27.797Z</time>
      </trkpt>
      <trkpt lat="48.0657" lon="6.83799">
        <ele>759</ele>
        <time>2020-10-28T09:03:28.798Z</time>
      </trkpt>
      <trkpt lat="48.0657" lon="6.83798">
        <ele>760</ele>
        <time>2020-10-28T09:03:29.798Z</time>
      </trkpt>
      <trkpt lat="48.06569" lon="6.83799">
        <ele>760</ele>
        <time>2020-10-28T09:03:30.798Z</time>
      </trkpt>
      <trkpt lat="48.06569" lon="6.83801">
        <ele>761</ele>
        <time>2020-10-28T09:03:31.798Z</time>
      </trkpt>
      <trkpt lat="48.06569" lon="6.83803">
        <ele>761</ele>
        <time>2020-10-28T09:03:32.798Z</time>
      </trkpt>
      <trkpt lat="48.06569" lon="6.83805">
        <ele>761</ele>
        <time>2020-10-28T09:03:33.798Z</time>
      </trkpt>
      <trkpt lat="48.06569" lon="6.83806">
        <ele>762</ele>
        <time>2020-10-28T09:03:34.798Z</time>
      </trkpt>
      <trkpt lat="48.06568" lon="6.83806">
        <ele>762</ele>
        <time>2020-10-28T09:03:35.797Z</time>
      </trkpt>
      <trkpt lat="48.06568" lon="6.83807">
        <ele>762</ele>
        <time>2020-10-28T09:03:36.798Z</time>
      </trkpt>
      <trkpt lat="48.06568" lon="6.83807">
        <ele>762</ele>
        <time>2020-10-28T09:03:37.797Z</time>
      </trkpt>
      <trkpt lat="48.06568" lon="6.83808">
        <ele>762</ele>
        <time>2020-10-28T09:03:38.797Z</time>
      </trkpt>
      <trkpt lat="48.06567" lon="6.83808">
        <ele>762</ele>
        <time>2020-10-28T09:03:39.797Z</time>
      </trkpt>
      <trkpt lat="48.06567" lon="6.83809">
        <ele>761</ele>
        <time>2020-10-28T09:03:40.798Z</time>
      </trkpt>
      <trkpt lat="48.06567" lon="6.8381">
        <ele>761</ele>
        <time>2020-10-28T09:03:41.797Z</time>
      </trkpt>
      <trkpt lat="48.06567" lon="6.83811">
        <ele>761</ele>
        <time>2020-10-28T09:03:42.797Z</time>
      </trkpt>
      <trkpt lat="48.06566" lon="6.83811">
        <ele>761</ele>
        <time>2020-10-28T09:03:43.797Z</time>
      </trkpt>
      <trkpt lat="48.06565" lon="6.83811">
        <ele>762</ele>
        <time>2020-10-28T09:03:44.798Z</time>
      </trkpt>
      <trkpt lat="48.06565" lon="6.83812">
        <ele>762</ele>
        <time>2020-10-28T09:03:45.798Z</time>
      </trkpt>
      <trkpt lat="48.06564" lon="6.83813">
        <ele>762</ele>
        <time>2020-10-28T09:03:46.797Z</time>
      </trkpt>
      <trkpt lat="48.06563" lon="6.83813">
        <ele>763</ele>
        <time>2020-10-28T09:03:47.798Z</time>
      </trkpt>
      <trkpt lat="48.06562" lon="6.83813">
        <ele>763</ele>
        <time>2020-10-28T09:03:48.798Z</time>
      </trkpt>
      <trkpt lat="48.06561" lon="6.83814">
        <ele>763</ele>
        <time>2020-10-28T09:03:49.798Z</time>
      </trkpt>
      <trkpt lat="48.06561" lon="6.83815">
        <ele>763</ele>
        <time>2020-10-28T09:03:50.798Z</time>
      </trkpt>
      <trkpt lat="48.06561" lon="6.83817">
        <ele>763</ele>
        <time>2020-10-28T09:03:51.797Z</time>
      </trkpt>
      <trkpt lat="48.0656" lon="6.83817">
        <ele>762</ele>
        <time>2020-10-28T09:03:52.798Z</time>
      </trkpt>
      <trkpt lat="48.0656" lon="6.83816">
        <ele>762</ele>
        <time>2020-10-28T09:03:53.798Z</time>
      </trkpt>
      <trkpt lat="48.06559" lon="6.83815">
        <ele>762</ele>
        <time>2020-10-28T09:03:54.797Z</time>
      </trkpt>
      <trkpt lat="48.06558" lon="6.83813">
        <ele>763</ele>
        <time>2020-10-28T09:03:55.798Z</time>
      </trkpt>
      <trkpt lat="48.06557" lon="6.83812">
        <ele>763</ele>
        <time>2020-10-28T09:03:56.797Z</time>
      </trkpt>
      <trkpt lat="48.06557" lon="6.83812">
        <ele>763</ele>
        <time>2020-10-28T09:03:57.798Z</time>
      </trkpt>
      <trkpt lat="48.06556" lon="6.83812">
        <ele>763</ele>
        <time>2020-10-28T09:03:58.798Z</time>
      </trkpt>
      <trkpt lat="48.06556" lon="6.83812">
        <ele>763</ele>
        <time>2020-10-28T09:03:59.798Z</time>
      </trkpt>
      <trkpt lat="48.06555" lon="6.83812">
        <ele>764</ele>
        <time>2020-10-28T09:04:00.797Z</time>
      </trkpt>
      <trkpt lat="48.06555" lon="6.83811">
        <ele>764</ele>
        <time>2020-10-28T09:04:01.798Z</time>
      </trkpt>
      <trkpt lat="48.06554" lon="6.83812">
        <ele>764</ele>
        <time>2020-10-28T09:04:02.798Z</time>
      </trkpt>
      <trkpt lat="48.06553" lon="6.83812">
        <ele>764</ele>
        <time>2020-10-28T09:04:03.797Z</time>
      </trkpt>
      <trkpt lat="48.06553" lon="6.83813">
        <ele>764</ele>
        <time>2020-10-28T09:04:04.798Z</time>
      </trkpt>
      <trkpt lat="48.06552" lon="6.83813">
        <ele>764</ele>
        <time>2020-10-28T09:04:05.798Z</time>
      </trkpt>
      <trkpt lat="48.0655" lon="6.83812">
        <ele>764</ele>
        <time>2020-10-28T09:04:06.797Z</time>
      </trkpt>
      <trkpt lat="48.0655" lon="6.83811">
        <ele>764</ele>
        <time>2020-10-28T09:04:07.798Z</time>
      </trkpt>
      <trkpt lat="48.06549" lon="6.83811">
        <ele>763</ele>
        <time>2020-10-28T09:04:08.798Z</time>
      </trkpt>
      <trkpt lat="48.06548" lon="6.8381">
        <ele>763</ele>
        <time>2020-10-28T09:04:09.797Z</time>
      </trkpt>
      <trkpt lat="48.06547" lon="6.8381">
        <ele>762</ele>
        <time>2020-10-28T09:04:10.797Z</time>
      </trkpt>
      <trkpt lat="48.06547" lon="6.83811">
        <ele>761</ele>
        <time>2020-10-28T09:04:11.798Z</time>
      </trkpt>
      <trkpt lat="48.06547" lon="6.83811">
        <ele>761</ele>
        <time>2020-10-28T09:04:12.797Z</time>
      </trkpt>
      <trkpt lat="48.06546" lon="6.83812">
        <ele>761</ele>
        <time>2020-10-28T09:04:13.798Z</time>
      </trkpt>
      <trkpt lat="48.06545" lon="6.83811">
        <ele>761</ele>
        <time>2020-10-28T09:04:14.798Z</time>
      </trkpt>
      <trkpt lat="48.06545" lon="6.8381">
        <ele>761</ele>
        <time>2020-10-28T09:04:15.798Z</time>
      </trkpt>
      <trkpt lat="48.06544" lon="6.8381">
        <ele>761</ele>
        <time>2020-10-28T09:04:16.797Z</time>
      </trkpt>
      <trkpt lat="48.06544" lon="6.8381">
        <ele>762</ele>
        <time>2020-10-28T09:04:17.798Z</time>
      </trkpt>
      <trkpt lat="48.06543" lon="6.83811">
        <ele>762</ele>
        <time>2020-10-28T09:04:18.798Z</time>
      </trkpt>
      <trkpt lat="48.06543" lon="6.83811">
        <ele>762</ele>
        <time>2020-10-28T09:04:19.798Z</time>
      </trkpt>
      <trkpt lat="48.06544" lon="6.83813">
        <ele>762</ele>
        <time>2020-10-28T09:04:20.797Z</time>
      </trkpt>
      <trkpt lat="48.06544" lon="6.83815">
        <ele>762</ele>
        <time>2020-10-28T09:04:21.797Z</time>
      </trkpt>
      <trkpt lat="48.06544" lon="6.83815">
        <ele>763</ele>
        <time>2020-10-28T09:04:22.798Z</time>
      </trkpt>
      <trkpt lat="48.06544" lon="6.83815">
        <ele>763</ele>
        <time>2020-10-28T09:04:23.798Z</time>
      </trkpt>
      <trkpt lat="48.06544" lon="6.83815">
        <ele>763</ele>
        <time>2020-10-28T09:04:24.798Z</time>
      </trkpt>
      <trkpt lat="48.06543" lon="6.83816">
        <ele>763</ele>
        <time>2020-10-28T09:04:25.797Z</time>
      </trkpt>
      <trkpt lat="48.06541" lon="6.83816">
        <ele>764</ele>
        <time>2020-10-28T09:04:26.797Z</time>
      </trkpt>
      <trkpt lat="48.0654" lon="6.83816">
        <ele>764</ele>
        <time>2020-10-28T09:04:27.798Z</time>
      </trkpt>
      <trkpt lat="48.0654" lon="6.83816">
        <ele>764</ele>
        <time>2020-10-28T09:04:28.798Z</time>
      </trkpt>
      <trkpt lat="48.0654" lon="6.83817">
        <ele>764</ele>
        <time>2020-10-28T09:04:29.797Z</time>
      </trkpt>
      <trkpt lat="48.0654" lon="6.83818">
        <ele>763</ele>
        <time>2020-10-28T09:04:30.797Z</time>
      </trkpt>
      <trkpt lat="48.06539" lon="6.83819">
        <ele>764</ele>
        <time>2020-10-28T09:04:31.798Z</time>
      </trkpt>
      <trkpt lat="48.06539" lon="6.8382">
        <ele>764</ele>
        <time>2020-10-28T09:04:32.797Z</time>
      </trkpt>
      <trkpt lat="48.06538" lon="6.8382">
        <ele>764</ele>
        <time>2020-10-28T09:04:33.798Z</time>
      </trkpt>
      <trkpt lat="48.06537" lon="6.8382">
        <ele>765</ele>
        <time>2020-10-28T09:04:34.798Z</time>
      </trkpt>
      <trkpt lat="48.06537" lon="6.8382">
        <ele>765</ele>
        <time>2020-10-28T09:04:35.798Z</time>
      </trkpt>
      <trkpt lat="48.06536" lon="6.83821">
        <ele>766</ele>
        <time>2020-10-28T09:04:36.797Z</time>
      </trkpt>
      <trkpt lat="48.06535" lon="6.83822">
        <ele>766</ele>
        <time>2020-10-28T09:04:37.798Z</time>
      </trkpt>
      <trkpt lat="48.06535" lon="6.83822">
        <ele>766</ele>
        <time>2020-10-28T09:04:38.798Z</time>
      </trkpt>
      <trkpt lat="48.06535" lon="6.83823">
        <ele>766</ele>
        <time>2020-10-28T09:04:39.798Z</time>
      </trkpt>
      <trkpt lat="48.06535" lon="6.83824">
        <ele>766</ele>
        <time>2020-10-28T09:04:40.797Z</time>
      </trkpt>
      <trkpt lat="48.06535" lon="6.83825">
        <ele>766</ele>
        <time>2020-10-28T09:04:41.798Z</time>
      </trkpt>
      <trkpt lat="48.06534" lon="6.83826">
        <ele>766</ele>
        <time>2020-10-28T09:04:42.798Z</time>
      </trkpt>
      <trkpt lat="48.06534" lon="6.83826">
        <ele>767</ele>
        <time>2020-10-28T09:04:43.797Z</time>
      </trkpt>
      <trkpt lat="48.06534" lon="6.83827">
        <ele>767</ele>
        <time>2020-10-28T09:04:44.798Z</time>
      </trkpt>
      <trkpt lat="48.06534" lon="6.83827">
        <ele>767</ele>
        <time>2020-10-28T09:04:45.798Z</time>
      </trkpt>
      <trkpt lat="48.06534" lon="6.83829">
        <ele>767</ele>
        <time>2020-10-28T09:04:46.798Z</time>
      </trkpt>
      <trkpt lat="48.06533" lon="6.8383">
        <ele>767</ele>
        <time>2020-10-28T09:04:47.798Z</time>
      </trkpt>
      <trkpt lat="48.06533" lon="6.83831">
        <ele>767</ele>
        <time>2020-10-28T09:04:48.798Z</time>
      </trkpt>
      <trkpt lat="48.06533" lon="6.83832">
        <ele>767</ele>
        <time>2020-10-28T09:04:49.797Z</time>
      </trkpt>
      <trkpt lat="48.06532" lon="6.83834">
        <ele>766</ele>
        <time>2020-10-28T09:04:50.797Z</time>
      </trkpt>
      <trkpt lat="48.06532" lon="6.83835">
        <ele>766</ele>
        <time>2020-10-28T09:04:51.798Z</time>
      </trkpt>
      <trkpt lat="48.06532" lon="6.83836">
        <ele>765</ele>
        <time>2020-10-28T09:04:52.797Z</time>
      </trkpt>
      <trkpt lat="48.06531" lon="6.83837">
        <ele>765</ele>
        <time>2020-10-28T09:04:53.797Z</time>
      </trkpt>
      <trkpt lat="48.06531" lon="6.83838">
        <ele>765</ele>
        <time>2020-10-28T09:04:54.797Z</time>
      </trkpt>
      <trkpt lat="48.0653" lon="6.83839">
        <ele>765</ele>
        <time>2020-10-28T09:04:55.797Z</time>
      </trkpt>
      <trkpt lat="48.0653" lon="6.83839">
        <ele>765</ele>
        <time>2020-10-28T09:04:56.798Z</time>
      </trkpt>
      <trkpt lat="48.0653" lon="6.8384">
        <ele>764</ele>
        <time>2020-10-28T09:04:57.798Z</time>
      </trkpt>
      <trkpt lat="48.06529" lon="6.8384">
        <ele>764</ele>
        <time>2020-10-28T09:04:58.798Z</time>
      </trkpt>
      <trkpt lat="48.06529" lon="6.8384">
        <ele>764</ele>
        <time>2020-10-28T09:04:59.797Z</time>
      </trkpt>
      <trkpt lat="48.06528" lon="6.83841">
        <ele>764</ele>
        <time>2020-10-28T09:05:00.798Z</time>
      </trkpt>
      <trkpt lat="48.06528" lon="6.83841">
        <ele>764</ele>
        <time>2020-10-28T09:05:01.798Z</time>
      </trkpt>
      <trkpt lat="48.06527" lon="6.83842">
        <ele>764</ele>
        <time>2020-10-28T09:05:02.798Z</time>
      </trkpt>
      <trkpt lat="48.06527" lon="6.83844">
        <ele>764</ele>
        <time>2020-10-28T09:05:03.798Z</time>
      </trkpt>
      <trkpt lat="48.06527" lon="6.83844">
        <ele>764</ele>
        <time>2020-10-28T09:05:04.798Z</time>
      </trkpt>
      <trkpt lat="48.06525" lon="6.83845">
        <ele>764</ele>
        <time>2020-10-28T09:05:05.797Z</time>
      </trkpt>
      <trkpt lat="48.06524" lon="6.83844">
        <ele>765</ele>
        <time>2020-10-28T09:05:06.798Z</time>
      </trkpt>
      <trkpt lat="48.06523" lon="6.83843">
        <ele>765</ele>
        <time>2020-10-28T09:05:07.798Z</time>
      </trkpt>
      <trkpt lat="48.06522" lon="6.83842">
        <ele>766</ele>
        <time>2020-10-28T09:05:08.798Z</time>
      </trkpt>
      <trkpt lat="48.06521" lon="6.83842">
        <ele>766</ele>
        <time>2020-10-28T09:05:09.798Z</time>
      </trkpt>
      <trkpt lat="48.0652" lon="6.83842">
        <ele>766</ele>
        <time>2020-10-28T09:05:10.798Z</time>
      </trkpt>
      <trkpt lat="48.06519" lon="6.83842">
        <ele>767</ele>
        <time>2020-10-28T09:05:11.798Z</time>
      </trkpt>
      <trkpt lat="48.06518" lon="6.83841">
        <ele>768</ele>
        <time>2020-10-28T09:05:12.798Z</time>
      </trkpt>
      <trkpt lat="48.06517" lon="6.83841">
        <ele>768</ele>
        <time>2020-10-28T09:05:13.798Z</time>
      </trkpt>
      <trkpt lat="48.06516" lon="6.8384">
        <ele>769</ele>
        <time>2020-10-28T09:05:14.798Z</time>
      </trkpt>
      <trkpt lat="48.06516" lon="6.83839">
        <ele>770</ele>
        <time>2020-10-28T09:05:15.797Z</time>
      </trkpt>
      <trkpt lat="48.06515" lon="6.8384">
        <ele>771</ele>
        <time>2020-10-28T09:05:16.798Z</time>
      </trkpt>
      <trkpt lat="48.06514" lon="6.83839">
        <ele>772</ele>
        <time>2020-10-28T09:05:17.798Z</time>
      </trkpt>
      <trkpt lat="48.06513" lon="6.83839">
        <ele>772</ele>
        <time>2020-10-28T09:05:18.798Z</time>
      </trkpt>
      <trkpt lat="48.06512" lon="6.83839">
        <ele>773</ele>
        <time>2020-10-28T09:05:19.798Z</time>
      </trkpt>
      <trkpt lat="48.06511" lon="6.83838">
        <ele>774</ele>
        <time>2020-10-28T09:05:20.798Z</time>
      </trkpt>
      <trkpt lat="48.06511" lon="6.83837">
        <ele>774</ele>
        <time>2020-10-28T09:05:21.798Z</time>
      </trkpt>
      <trkpt lat="48.0651" lon="6.83836">
        <ele>775</ele>
        <time>2020-10-28T09:05:22.798Z</time>
      </trkpt>
      <trkpt lat="48.0651" lon="6.83836">
        <ele>775</ele>
        <time>2020-10-28T09:05:23.798Z</time>
      </trkpt>
      <trkpt lat="48.06508" lon="6.83837">
        <ele>776</ele>
        <time>2020-10-28T09:05:24.798Z</time>
      </trkpt>
      <trkpt lat="48.06508" lon="6.83836">
        <ele>777</ele>
        <time>2020-10-28T09:05:25.797Z</time>
      </trkpt>
      <trkpt lat="48.06512" lon="6.83836">
        <ele>778</ele>
        <time>2020-10-28T09:05:26.798Z</time>
      </trkpt>
      <trkpt lat="48.06515" lon="6.83836">
        <ele>779</ele>
        <time>2020-10-28T09:05:27.797Z</time>
      </trkpt>
      <trkpt lat="48.06515" lon="6.83836">
        <ele>779</ele>
        <time>2020-10-28T09:05:28.797Z</time>
      </trkpt>
      <trkpt lat="48.06513" lon="6.83831">
        <ele>780</ele>
        <time>2020-10-28T09:05:29.799Z</time>
      </trkpt>
      <trkpt lat="48.06511" lon="6.8383">
        <ele>780</ele>
        <time>2020-10-28T09:05:30.799Z</time>
      </trkpt>
      <trkpt lat="48.06509" lon="6.83828">
        <ele>780</ele>
        <time>2020-10-28T09:05:31.798Z</time>
      </trkpt>
      <trkpt lat="48.06507" lon="6.83827">
        <ele>780</ele>
        <time>2020-10-28T09:05:32.799Z</time>
      </trkpt>
      <trkpt lat="48.06506" lon="6.83827">
        <ele>779</ele>
        <time>2020-10-28T09:05:33.799Z</time>
      </trkpt>
      <trkpt lat="48.06505" lon="6.83828">
        <ele>779</ele>
        <time>2020-10-28T09:05:34.798Z</time>
      </trkpt>
      <trkpt lat="48.06504" lon="6.83828">
        <ele>779</ele>
        <time>2020-10-28T09:05:35.798Z</time>
      </trkpt>
      <trkpt lat="48.06503" lon="6.83827">
        <ele>779</ele>
        <time>2020-10-28T09:05:36.798Z</time>
      </trkpt>
      <trkpt lat="48.06503" lon="6.83826">
        <ele>779</ele>
        <time>2020-10-28T09:05:37.799Z</time>
      </trkpt>
      <trkpt lat="48.06503" lon="6.83826">
        <ele>779</ele>
        <time>2020-10-28T09:05:38.799Z</time>
      </trkpt>
      <trkpt lat="48.06503" lon="6.83826">
        <ele>780</ele>
        <time>2020-10-28T09:05:39.799Z</time>
      </trkpt>
      <trkpt lat="48.06502" lon="6.83826">
        <ele>780</ele>
        <time>2020-10-28T09:05:40.799Z</time>
      </trkpt>
      <trkpt lat="48.06502" lon="6.83826">
        <ele>781</ele>
        <time>2020-10-28T09:05:41.799Z</time>
      </trkpt>
      <trkpt lat="48.06501" lon="6.83826">
        <ele>781</ele>
        <time>2020-10-28T09:05:42.798Z</time>
      </trkpt>
      <trkpt lat="48.065" lon="6.83825">
        <ele>781</ele>
        <time>2020-10-28T09:05:43.798Z</time>
      </trkpt>
      <trkpt lat="48.06499" lon="6.83823">
        <ele>782</ele>
        <time>2020-10-28T09:05:44.798Z</time>
      </trkpt>
      <trkpt lat="48.06498" lon="6.83823">
        <ele>782</ele>
        <time>2020-10-28T09:05:45.799Z</time>
      </trkpt>
      <trkpt lat="48.06497" lon="6.83822">
        <ele>782</ele>
        <time>2020-10-28T09:05:46.798Z</time>
      </trkpt>
      <trkpt lat="48.06496" lon="6.83821">
        <ele>782</ele>
        <time>2020-10-28T09:05:47.799Z</time>
      </trkpt>
      <trkpt lat="48.06496" lon="6.83821">
        <ele>782</ele>
        <time>2020-10-28T09:05:48.798Z</time>
      </trkpt>
      <trkpt lat="48.06495" lon="6.83821">
        <ele>782</ele>
        <time>2020-10-28T09:05:49.799Z</time>
      </trkpt>
      <trkpt lat="48.06495" lon="6.83821">
        <ele>782</ele>
        <time>2020-10-28T09:05:50.799Z</time>
      </trkpt>
      <trkpt lat="48.06494" lon="6.83821">
        <ele>782</ele>
        <time>2020-10-28T09:05:51.799Z</time>
      </trkpt>
      <trkpt lat="48.06494" lon="6.83822">
        <ele>782</ele>
        <time>2020-10-28T09:05:52.798Z</time>
      </trkpt>
      <trkpt lat="48.06493" lon="6.83822">
        <ele>781</ele>
        <time>2020-10-28T09:05:53.799Z</time>
      </trkpt>
      <trkpt lat="48.06492" lon="6.83822">
        <ele>781</ele>
        <time>2020-10-28T09:05:54.799Z</time>
      </trkpt>
      <trkpt lat="48.06491" lon="6.83822">
        <ele>781</ele>
        <time>2020-10-28T09:05:55.799Z</time>
      </trkpt>
      <trkpt lat="48.06489" lon="6.83823">
        <ele>780</ele>
        <time>2020-10-28T09:05:56.799Z</time>
      </trkpt>
      <trkpt lat="48.06488" lon="6.83823">
        <ele>780</ele>
        <time>2020-10-28T09:05:57.798Z</time>
      </trkpt>
      <trkpt lat="48.06487" lon="6.83823">
        <ele>779</ele>
        <time>2020-10-28T09:05:58.799Z</time>
      </trkpt>
      <trkpt lat="48.06486" lon="6.83823">
        <ele>779</ele>
        <time>2020-10-28T09:05:59.799Z</time>
      </trkpt>
      <trkpt lat="48.06486" lon="6.83824">
        <ele>778</ele>
        <time>2020-10-28T09:06:00.799Z</time>
      </trkpt>
      <trkpt lat="48.06485" lon="6.83824">
        <ele>778</ele>
        <time>2020-10-28T09:06:01.799Z</time>
      </trkpt>
      <trkpt lat="48.06485" lon="6.83824">
        <ele>778</ele>
        <time>2020-10-28T09:06:02.799Z</time>
      </trkpt>
      <trkpt lat="48.06484" lon="6.83825">
        <ele>778</ele>
        <time>2020-10-28T09:06:03.799Z</time>
      </trkpt>
      <trkpt lat="48.06483" lon="6.83825">
        <ele>777</ele>
        <time>2020-10-28T09:06:04.799Z</time>
      </trkpt>
      <trkpt lat="48.06482" lon="6.83826">
        <ele>777</ele>
        <time>2020-10-28T09:06:05.799Z</time>
      </trkpt>
      <trkpt lat="48.06481" lon="6.83825">
        <ele>777</ele>
        <time>2020-10-28T09:06:06.798Z</time>
      </trkpt>
      <trkpt lat="48.0648" lon="6.83826">
        <ele>776</ele>
        <time>2020-10-28T09:06:07.798Z</time>
      </trkpt>
      <trkpt lat="48.06479" lon="6.83826">
        <ele>776</ele>
        <time>2020-10-28T09:06:08.798Z</time>
      </trkpt>
      <trkpt lat="48.06478" lon="6.83827">
        <ele>777</ele>
        <time>2020-10-28T09:06:09.799Z</time>
      </trkpt>
      <trkpt lat="48.06477" lon="6.83826">
        <ele>777</ele>
        <time>2020-10-28T09:06:10.799Z</time>
      </trkpt>
      <trkpt lat="48.06476" lon="6.83827">
        <ele>777</ele>
        <time>2020-10-28T09:06:11.799Z</time>
      </trkpt>
      <trkpt lat="48.06475" lon="6.83827">
        <ele>777</ele>
        <time>2020-10-28T09:06:12.799Z</time>
      </trkpt>
      <trkpt lat="48.06474" lon="6.83827">
        <ele>777</ele>
        <time>2020-10-28T09:06:13.799Z</time>
      </trkpt>
      <trkpt lat="48.06473" lon="6.83826">
        <ele>778</ele>
        <time>2020-10-28T09:06:14.798Z</time>
      </trkpt>
      <trkpt lat="48.06471" lon="6.83826">
        <ele>778</ele>
        <time>2020-10-28T09:06:15.799Z</time>
      </trkpt>
      <trkpt lat="48.06469" lon="6.83825">
        <ele>779</ele>
        <time>2020-10-28T09:06:16.799Z</time>
      </trkpt>
      <trkpt lat="48.06468" lon="6.83826">
        <ele>779</ele>
        <time>2020-10-28T09:06:17.799Z</time>
      </trkpt>
      <trkpt lat="48.06468" lon="6.83826">
        <ele>780</ele>
        <time>2020-10-28T09:06:18.799Z</time>
      </trkpt>
      <trkpt lat="48.06467" lon="6.83826">
        <ele>780</ele>
        <time>2020-10-28T09:06:19.799Z</time>
      </trkpt>
      <trkpt lat="48.06465" lon="6.83825">
        <ele>781</ele>
        <time>2020-10-28T09:06:20.799Z</time>
      </trkpt>
      <trkpt lat="48.06465" lon="6.83825">
        <ele>781</ele>
        <time>2020-10-28T09:06:21.799Z</time>
      </trkpt>
      <trkpt lat="48.06464" lon="6.83824">
        <ele>782</ele>
        <time>2020-10-28T09:06:22.799Z</time>
      </trkpt>
      <trkpt lat="48.06463" lon="6.83823">
        <ele>782</ele>
        <time>2020-10-28T09:06:23.799Z</time>
      </trkpt>
      <trkpt lat="48.06462" lon="6.83822">
        <ele>783</ele>
        <time>2020-10-28T09:06:24.799Z</time>
      </trkpt>
      <trkpt lat="48.06461" lon="6.83822">
        <ele>783</ele>
        <time>2020-10-28T09:06:25.799Z</time>
      </trkpt>
      <trkpt lat="48.0646" lon="6.83821">
        <ele>782</ele>
        <time>2020-10-28T09:06:26.799Z</time>
      </trkpt>
      <trkpt lat="48.06459" lon="6.83821">
        <ele>782</ele>
        <time>2020-10-28T09:06:27.798Z</time>
      </trkpt>
      <trkpt lat="48.06458" lon="6.83821">
        <ele>782</ele>
        <time>2020-10-28T09:06:28.799Z</time>
      </trkpt>
      <trkpt lat="48.06457" lon="6.83821">
        <ele>782</ele>
        <time>2020-10-28T09:06:29.799Z</time>
      </trkpt>
      <trkpt lat="48.06456" lon="6.8382">
        <ele>782</ele>
        <time>2020-10-28T09:06:30.799Z</time>
      </trkpt>
      <trkpt lat="48.06455" lon="6.8382">
        <ele>782</ele>
        <time>2020-10-28T09:06:31.799Z</time>
      </trkpt>
      <trkpt lat="48.06455" lon="6.8382">
        <ele>781</ele>
        <time>2020-10-28T09:06:32.799Z</time>
      </trkpt>
      <trkpt lat="48.06454" lon="6.83819">
        <ele>781</ele>
        <time>2020-10-28T09:06:33.798Z</time>
      </trkpt>
      <trkpt lat="48.06454" lon="6.83819">
        <ele>781</ele>
        <time>2020-10-28T09:06:34.798Z</time>
      </trkpt>
      <trkpt lat="48.06456" lon="6.8382">
        <ele>780</ele>
        <time>2020-10-28T09:06:35.799Z</time>
      </trkpt>
      <trkpt lat="48.06455" lon="6.8382">
        <ele>779</ele>
        <time>2020-10-28T09:06:36.799Z</time>
      </trkpt>
      <trkpt lat="48.06455" lon="6.83819">
        <ele>779</ele>
        <time>2020-10-28T09:06:37.798Z</time>
      </trkpt>
      <trkpt lat="48.06454" lon="6.83819">
        <ele>778</ele>
        <time>2020-10-28T09:06:38.799Z</time>
      </trkpt>
      <trkpt lat="48.06453" lon="6.83818">
        <ele>778</ele>
        <time>2020-10-28T09:06:39.799Z</time>
      </trkpt>
      <trkpt lat="48.06452" lon="6.83818">
        <ele>777</ele>
        <time>2020-10-28T09:06:40.798Z</time>
      </trkpt>
      <trkpt lat="48.06451" lon="6.83818">
        <ele>776</ele>
        <time>2020-10-28T09:06:41.798Z</time>
      </trkpt>
      <trkpt lat="48.0645" lon="6.83818">
        <ele>776</ele>
        <time>2020-10-28T09:06:42.799Z</time>
      </trkpt>
      <trkpt lat="48.0645" lon="6.83818">
        <ele>776</ele>
        <time>2020-10-28T09:06:43.799Z</time>
      </trkpt>
      <trkpt lat="48.06449" lon="6.83819">
        <ele>776</ele>
        <time>2020-10-28T09:06:44.799Z</time>
      </trkpt>
      <trkpt lat="48.06449" lon="6.83818">
        <ele>776</ele>
        <time>2020-10-28T09:06:45.799Z</time>
      </trkpt>
      <trkpt lat="48.06448" lon="6.83818">
        <ele>777</ele>
        <time>2020-10-28T09:06:46.799Z</time>
      </trkpt>
      <trkpt lat="48.06447" lon="6.83818">
        <ele>777</ele>
        <time>2020-10-28T09:06:47.799Z</time>
      </trkpt>
      <trkpt lat="48.06446" lon="6.83817">
        <ele>778</ele>
        <time>2020-10-28T09:06:48.799Z</time>
      </trkpt>
      <trkpt lat="48.06445" lon="6.83815">
        <ele>778</ele>
        <time>2020-10-28T09:06:49.799Z</time>
      </trkpt>
      <trkpt lat="48.06445" lon="6.83813">
        <ele>779</ele>
        <time>2020-10-28T09:06:50.799Z</time>
      </trkpt>
      <trkpt lat="48.06447" lon="6.83812">
        <ele>780</ele>
        <time>2020-10-28T09:06:51.800Z</time>
      </trkpt>
      <trkpt lat="48.06448" lon="6.83812">
        <ele>781</ele>
        <time>2020-10-28T09:06:52.801Z</time>
      </trkpt>
      <trkpt lat="48.06448" lon="6.83812">
        <ele>781</ele>
        <time>2020-10-28T09:06:53.801Z</time>
      </trkpt>
      <trkpt lat="48.06448" lon="6.83812">
        <ele>780</ele>
        <time>2020-10-28T09:06:54.801Z</time>
      </trkpt>
      <trkpt lat="48.06448" lon="6.83811">
        <ele>780</ele>
        <time>2020-10-28T09:06:55.802Z</time>
      </trkpt>
      <trkpt lat="48.06448" lon="6.8381">
        <ele>779</ele>
        <time>2020-10-28T09:06:56.802Z</time>
      </trkpt>
      <trkpt lat="48.06448" lon="6.8381">
        <ele>779</ele>
        <time>2020-10-28T09:06:57.801Z</time>
      </trkpt>
      <trkpt lat="48.06448" lon="6.83809">
        <ele>778</ele>
        <time>2020-10-28T09:06:58.802Z</time>
      </trkpt>
      <trkpt lat="48.06448" lon="6.83809">
        <ele>778</ele>
        <time>2020-10-28T09:06:59.802Z</time>
      </trkpt>
      <trkpt lat="48.0645" lon="6.83806">
        <ele>777</ele>
        <time>2020-10-28T09:07:00.803Z</time>
      </trkpt>
      <trkpt lat="48.0645" lon="6.83805">
        <ele>777</ele>
        <time>2020-10-28T09:07:01.802Z</time>
      </trkpt>
      <trkpt lat="48.0645" lon="6.83804">
        <ele>776</ele>
        <time>2020-10-28T09:07:02.803Z</time>
      </trkpt>
      <trkpt lat="48.06452" lon="6.83803">
        <ele>774</ele>
        <time>2020-10-28T09:07:03.804Z</time>
      </trkpt>
      <trkpt lat="48.06452" lon="6.83803">
        <ele>773</ele>
        <time>2020-10-28T09:07:04.803Z</time>
      </trkpt>
      <trkpt lat="48.06444" lon="6.83807">
        <ele>784</ele>
        <time>2020-10-28T09:07:05.804Z</time>
      </trkpt>
      <trkpt lat="48.06443" lon="6.83806">
        <ele>784</ele>
        <time>2020-10-28T09:07:06.804Z</time>
      </trkpt>
      <trkpt lat="48.06442" lon="6.83806">
        <ele>784</ele>
        <time>2020-10-28T09:07:07.804Z</time>
      </trkpt>
      <trkpt lat="48.06441" lon="6.83805">
        <ele>784</ele>
        <time>2020-10-28T09:07:08.803Z</time>
      </trkpt>
      <trkpt lat="48.0644" lon="6.83805">
        <ele>784</ele>
        <time>2020-10-28T09:07:09.804Z</time>
      </trkpt>
      <trkpt lat="48.06439" lon="6.83804">
        <ele>784</ele>
        <time>2020-10-28T09:07:10.804Z</time>
      </trkpt>
      <trkpt lat="48.06439" lon="6.83804">
        <ele>784</ele>
        <time>2020-10-28T09:07:11.804Z</time>
      </trkpt>
      <trkpt lat="48.06443" lon="6.838">
        <ele>779</ele>
        <time>2020-10-28T09:07:12.805Z</time>
      </trkpt>
      <trkpt lat="48.06442" lon="6.838">
        <ele>779</ele>
        <time>2020-10-28T09:07:13.805Z</time>
      </trkpt>
      <trkpt lat="48.06441" lon="6.83801">
        <ele>779</ele>
        <time>2020-10-28T09:07:14.806Z</time>
      </trkpt>
      <trkpt lat="48.06439" lon="6.83802">
        <ele>779</ele>
        <time>2020-10-28T09:07:15.806Z</time>
      </trkpt>
      <trkpt lat="48.06438" lon="6.83803">
        <ele>779</ele>
        <time>2020-10-28T09:07:16.805Z</time>
      </trkpt>
      <trkpt lat="48.06437" lon="6.83805">
        <ele>779</ele>
        <time>2020-10-28T09:07:17.805Z</time>
      </trkpt>
      <trkpt lat="48.06436" lon="6.83806">
        <ele>779</ele>
        <time>2020-10-28T09:07:18.806Z</time>
      </trkpt>
      <trkpt lat="48.06436" lon="6.83808">
        <ele>779</ele>
        <time>2020-10-28T09:07:19.806Z</time>
      </trkpt>
      <trkpt lat="48.06435" lon="6.83809">
        <ele>779</ele>
        <time>2020-10-28T09:07:20.806Z</time>
      </trkpt>
      <trkpt lat="48.06435" lon="6.8381">
        <ele>779</ele>
        <time>2020-10-28T09:07:21.806Z</time>
      </trkpt>
      <trkpt lat="48.06435" lon="6.8381">
        <ele>779</ele>
        <time>2020-10-28T09:07:22.806Z</time>
      </trkpt>
      <trkpt lat="48.06434" lon="6.83811">
        <ele>779</ele>
        <time>2020-10-28T09:07:23.806Z</time>
      </trkpt>
      <trkpt lat="48.06434" lon="6.83812">
        <ele>779</ele>
        <time>2020-10-28T09:07:24.806Z</time>
      </trkpt>
      <trkpt lat="48.06433" lon="6.83813">
        <ele>779</ele>
        <time>2020-10-28T09:07:25.805Z</time>
      </trkpt>
      <trkpt lat="48.06433" lon="6.83814">
        <ele>779</ele>
        <time>2020-10-28T09:07:26.806Z</time>
      </trkpt>
      <trkpt lat="48.06431" lon="6.83814">
        <ele>778</ele>
        <time>2020-10-28T09:07:27.806Z</time>
      </trkpt>
      <trkpt lat="48.0643" lon="6.83815">
        <ele>778</ele>
        <time>2020-10-28T09:07:28.805Z</time>
      </trkpt>
      <trkpt lat="48.06428" lon="6.83816">
        <ele>778</ele>
        <time>2020-10-28T09:07:29.806Z</time>
      </trkpt>
      <trkpt lat="48.06427" lon="6.83817">
        <ele>778</ele>
        <time>2020-10-28T09:07:30.806Z</time>
      </trkpt>
      <trkpt lat="48.06425" lon="6.83818">
        <ele>778</ele>
        <time>2020-10-28T09:07:31.805Z</time>
      </trkpt>
      <trkpt lat="48.06424" lon="6.83819">
        <ele>778</ele>
        <time>2020-10-28T09:07:32.806Z</time>
      </trkpt>
      <trkpt lat="48.06422" lon="6.83819">
        <ele>778</ele>
        <time>2020-10-28T09:07:33.805Z</time>
      </trkpt>
      <trkpt lat="48.06422" lon="6.8382">
        <ele>778</ele>
        <time>2020-10-28T09:07:34.805Z</time>
      </trkpt>
      <trkpt lat="48.06421" lon="6.83819">
        <ele>779</ele>
        <time>2020-10-28T09:07:35.806Z</time>
      </trkpt>
      <trkpt lat="48.0642" lon="6.83819">
        <ele>779</ele>
        <time>2020-10-28T09:07:36.805Z</time>
      </trkpt>
      <trkpt lat="48.06419" lon="6.8382">
        <ele>779</ele>
        <time>2020-10-28T09:07:37.805Z</time>
      </trkpt>
      <trkpt lat="48.06419" lon="6.8382">
        <ele>779</ele>
        <time>2020-10-28T09:07:38.805Z</time>
      </trkpt>
      <trkpt lat="48.06419" lon="6.83821">
        <ele>780</ele>
        <time>2020-10-28T09:07:39.805Z</time>
      </trkpt>
      <trkpt lat="48.06419" lon="6.83822">
        <ele>780</ele>
        <time>2020-10-28T09:07:40.806Z</time>
      </trkpt>
      <trkpt lat="48.0642" lon="6.83823">
        <ele>780</ele>
        <time>2020-10-28T09:07:41.805Z</time>
      </trkpt>
      <trkpt lat="48.0642" lon="6.83823">
        <ele>781</ele>
        <time>2020-10-28T09:07:42.805Z</time>
      </trkpt>
      <trkpt lat="48.0642" lon="6.83824">
        <ele>781</ele>
        <time>2020-10-28T09:07:43.805Z</time>
      </trkpt>
      <trkpt lat="48.0642" lon="6.83825">
        <ele>782</ele>
        <time>2020-10-28T09:07:44.806Z</time>
      </trkpt>
      <trkpt lat="48.0642" lon="6.83826">
        <ele>783</ele>
        <time>2020-10-28T09:07:45.805Z</time>
      </trkpt>
      <trkpt lat="48.06419" lon="6.83827">
        <ele>784</ele>
        <time>2020-10-28T09:07:46.805Z</time>
      </trkpt>
      <trkpt lat="48.06418" lon="6.83827">
        <ele>784</ele>
        <time>2020-10-28T09:07:47.806Z</time>
      </trkpt>
      <trkpt lat="48.06417" lon="6.83828">
        <ele>785</ele>
        <time>2020-10-28T09:07:48.806Z</time>
      </trkpt>
      <trkpt lat="48.06416" lon="6.83828">
        <ele>785</ele>
        <time>2020-10-28T09:07:49.805Z</time>
      </trkpt>
      <trkpt lat="48.06416" lon="6.83827">
        <ele>785</ele>
        <time>2020-10-28T09:07:50.806Z</time>
      </trkpt>
      <trkpt lat="48.06414" lon="6.83827">
        <ele>788</ele>
        <time>2020-10-28T09:07:51.807Z</time>
      </trkpt>
      <trkpt lat="48.06412" lon="6.83826">
        <ele>788</ele>
        <time>2020-10-28T09:07:52.807Z</time>
      </trkpt>
      <trkpt lat="48.06411" lon="6.83827">
        <ele>789</ele>
        <time>2020-10-28T09:07:53.807Z</time>
      </trkpt>
      <trkpt lat="48.0641" lon="6.83828">
        <ele>789</ele>
        <time>2020-10-28T09:07:54.807Z</time>
      </trkpt>
      <trkpt lat="48.0641" lon="6.83829">
        <ele>790</ele>
        <time>2020-10-28T09:07:55.806Z</time>
      </trkpt>
      <trkpt lat="48.06409" lon="6.83831">
        <ele>790</ele>
        <time>2020-10-28T09:07:56.806Z</time>
      </trkpt>
      <trkpt lat="48.06408" lon="6.83832">
        <ele>790</ele>
        <time>2020-10-28T09:07:57.807Z</time>
      </trkpt>
      <trkpt lat="48.06408" lon="6.83832">
        <ele>791</ele>
        <time>2020-10-28T09:07:58.807Z</time>
      </trkpt>
      <trkpt lat="48.06407" lon="6.83832">
        <ele>791</ele>
        <time>2020-10-28T09:07:59.806Z</time>
      </trkpt>
      <trkpt lat="48.06406" lon="6.83832">
        <ele>791</ele>
        <time>2020-10-28T09:08:00.807Z</time>
      </trkpt>
      <trkpt lat="48.06405" lon="6.83833">
        <ele>791</ele>
        <time>2020-10-28T09:08:01.807Z</time>
      </trkpt>
      <trkpt lat="48.06404" lon="6.83835">
        <ele>791</ele>
        <time>2020-10-28T09:08:02.807Z</time>
      </trkpt>
      <trkpt lat="48.06403" lon="6.83837">
        <ele>791</ele>
        <time>2020-10-28T09:08:03.807Z</time>
      </trkpt>
      <trkpt lat="48.06403" lon="6.83839">
        <ele>791</ele>
        <time>2020-10-28T09:08:04.807Z</time>
      </trkpt>
      <trkpt lat="48.06402" lon="6.83839">
        <ele>791</ele>
        <time>2020-10-28T09:08:05.807Z</time>
      </trkpt>
      <trkpt lat="48.06401" lon="6.83838">
        <ele>791</ele>
        <time>2020-10-28T09:08:06.807Z</time>
      </trkpt>
      <trkpt lat="48.06401" lon="6.83838">
        <ele>791</ele>
        <time>2020-10-28T09:08:07.807Z</time>
      </trkpt>
      <trkpt lat="48.06401" lon="6.8384">
        <ele>791</ele>
        <time>2020-10-28T09:08:08.807Z</time>
      </trkpt>
      <trkpt lat="48.06401" lon="6.8384">
        <ele>791</ele>
        <time>2020-10-28T09:08:09.806Z</time>
      </trkpt>
      <trkpt lat="48.064" lon="6.83839">
        <ele>791</ele>
        <time>2020-10-28T09:08:10.807Z</time>
      </trkpt>
      <trkpt lat="48.06399" lon="6.83839">
        <ele>791</ele>
        <time>2020-10-28T09:08:11.807Z</time>
      </trkpt>
      <trkpt lat="48.06398" lon="6.83838">
        <ele>791</ele>
        <time>2020-10-28T09:08:12.807Z</time>
      </trkpt>
      <trkpt lat="48.06397" lon="6.83839">
        <ele>790</ele>
        <time>2020-10-28T09:08:13.806Z</time>
      </trkpt>
      <trkpt lat="48.06396" lon="6.83838">
        <ele>790</ele>
        <time>2020-10-28T09:08:14.807Z</time>
      </trkpt>
      <trkpt lat="48.06395" lon="6.83838">
        <ele>790</ele>
        <time>2020-10-28T09:08:15.807Z</time>
      </trkpt>
      <trkpt lat="48.06393" lon="6.83836">
        <ele>790</ele>
        <time>2020-10-28T09:08:16.807Z</time>
      </trkpt>
      <trkpt lat="48.06392" lon="6.83835">
        <ele>790</ele>
        <time>2020-10-28T09:08:17.806Z</time>
      </trkpt>
      <trkpt lat="48.06391" lon="6.83833">
        <ele>790</ele>
        <time>2020-10-28T09:08:18.807Z</time>
      </trkpt>
      <trkpt lat="48.06389" lon="6.83833">
        <ele>790</ele>
        <time>2020-10-28T09:08:19.807Z</time>
      </trkpt>
      <trkpt lat="48.06388" lon="6.83832">
        <ele>790</ele>
        <time>2020-10-28T09:08:20.806Z</time>
      </trkpt>
      <trkpt lat="48.06387" lon="6.83832">
        <ele>789</ele>
        <time>2020-10-28T09:08:21.807Z</time>
      </trkpt>
      <trkpt lat="48.06386" lon="6.83832">
        <ele>789</ele>
        <time>2020-10-28T09:08:22.807Z</time>
      </trkpt>
      <trkpt lat="48.06385" lon="6.83833">
        <ele>789</ele>
        <time>2020-10-28T09:08:23.807Z</time>
      </trkpt>
      <trkpt lat="48.06384" lon="6.83834">
        <ele>788</ele>
        <time>2020-10-28T09:08:24.807Z</time>
      </trkpt>
      <trkpt lat="48.06383" lon="6.83835">
        <ele>788</ele>
        <time>2020-10-28T09:08:25.806Z</time>
      </trkpt>
      <trkpt lat="48.06382" lon="6.83836">
        <ele>788</ele>
        <time>2020-10-28T09:08:26.807Z</time>
      </trkpt>
      <trkpt lat="48.06381" lon="6.83835">
        <ele>788</ele>
        <time>2020-10-28T09:08:27.807Z</time>
      </trkpt>
      <trkpt lat="48.06379" lon="6.83834">
        <ele>788</ele>
        <time>2020-10-28T09:08:28.807Z</time>
      </trkpt>
      <trkpt lat="48.06378" lon="6.83833">
        <ele>789</ele>
        <time>2020-10-28T09:08:29.807Z</time>
      </trkpt>
      <trkpt lat="48.06376" lon="6.83832">
        <ele>789</ele>
        <time>2020-10-28T09:08:30.807Z</time>
      </trkpt>
      <trkpt lat="48.06375" lon="6.83832">
        <ele>790</ele>
        <time>2020-10-28T09:08:31.806Z</time>
      </trkpt>
      <trkpt lat="48.06373" lon="6.83831">
        <ele>790</ele>
        <time>2020-10-28T09:08:32.807Z</time>
      </trkpt>
      <trkpt lat="48.06372" lon="6.83831">
        <ele>790</ele>
        <time>2020-10-28T09:08:33.806Z</time>
      </trkpt>
      <trkpt lat="48.06371" lon="6.83831">
        <ele>791</ele>
        <time>2020-10-28T09:08:34.807Z</time>
      </trkpt>
      <trkpt lat="48.0637" lon="6.8383">
        <ele>791</ele>
        <time>2020-10-28T09:08:35.807Z</time>
      </trkpt>
      <trkpt lat="48.0637" lon="6.83829">
        <ele>791</ele>
        <time>2020-10-28T09:08:36.807Z</time>
      </trkpt>
      <trkpt lat="48.06368" lon="6.83829">
        <ele>792</ele>
        <time>2020-10-28T09:08:37.807Z</time>
      </trkpt>
      <trkpt lat="48.06368" lon="6.83829">
        <ele>792</ele>
        <time>2020-10-28T09:08:38.807Z</time>
      </trkpt>
      <trkpt lat="48.06367" lon="6.83828">
        <ele>792</ele>
        <time>2020-10-28T09:08:39.807Z</time>
      </trkpt>
      <trkpt lat="48.06366" lon="6.83828">
        <ele>792</ele>
        <time>2020-10-28T09:08:40.807Z</time>
      </trkpt>
      <trkpt lat="48.06365" lon="6.83827">
        <ele>793</ele>
        <time>2020-10-28T09:08:41.807Z</time>
      </trkpt>
      <trkpt lat="48.06364" lon="6.83828">
        <ele>793</ele>
        <time>2020-10-28T09:08:42.807Z</time>
      </trkpt>
      <trkpt lat="48.06363" lon="6.83829">
        <ele>793</ele>
        <time>2020-10-28T09:08:43.807Z</time>
      </trkpt>
      <trkpt lat="48.06363" lon="6.83829">
        <ele>793</ele>
        <time>2020-10-28T09:08:44.807Z</time>
      </trkpt>
      <trkpt lat="48.06363" lon="6.83829">
        <ele>794</ele>
        <time>2020-10-28T09:08:45.807Z</time>
      </trkpt>
      <trkpt lat="48.06364" lon="6.8383">
        <ele>793</ele>
        <time>2020-10-28T09:08:46.807Z</time>
      </trkpt>
      <trkpt lat="48.06365" lon="6.8383">
        <ele>793</ele>
        <time>2020-10-28T09:08:47.807Z</time>
      </trkpt>
      <trkpt lat="48.06366" lon="6.8383">
        <ele>792</ele>
        <time>2020-10-28T09:08:48.807Z</time>
      </trkpt>
      <trkpt lat="48.06366" lon="6.8383">
        <ele>792</ele>
        <time>2020-10-28T09:08:49.806Z</time>
      </trkpt>
      <trkpt lat="48.06366" lon="6.83831">
        <ele>792</ele>
        <time>2020-10-28T09:08:50.806Z</time>
      </trkpt>
      <trkpt lat="48.06366" lon="6.83832">
        <ele>791</ele>
        <time>2020-10-28T09:08:51.806Z</time>
      </trkpt>
      <trkpt lat="48.06365" lon="6.83832">
        <ele>792</ele>
        <time>2020-10-28T09:08:52.806Z</time>
      </trkpt>
      <trkpt lat="48.06365" lon="6.83833">
        <ele>792</ele>
        <time>2020-10-28T09:08:53.806Z</time>
      </trkpt>
      <trkpt lat="48.06364" lon="6.83832">
        <ele>792</ele>
        <time>2020-10-28T09:08:54.807Z</time>
      </trkpt>
      <trkpt lat="48.06363" lon="6.83832">
        <ele>792</ele>
        <time>2020-10-28T09:08:55.807Z</time>
      </trkpt>
      <trkpt lat="48.06363" lon="6.83833">
        <ele>792</ele>
        <time>2020-10-28T09:08:56.807Z</time>
      </trkpt>
      <trkpt lat="48.06362" lon="6.83833">
        <ele>792</ele>
        <time>2020-10-28T09:08:57.806Z</time>
      </trkpt>
      <trkpt lat="48.06361" lon="6.83834">
        <ele>792</ele>
        <time>2020-10-28T09:08:58.807Z</time>
      </trkpt>
      <trkpt lat="48.0636" lon="6.83835">
        <ele>793</ele>
        <time>2020-10-28T09:08:59.806Z</time>
      </trkpt>
      <trkpt lat="48.06359" lon="6.83835">
        <ele>793</ele>
        <time>2020-10-28T09:09:00.806Z</time>
      </trkpt>
      <trkpt lat="48.0636" lon="6.83836">
        <ele>794</ele>
        <time>2020-10-28T09:09:01.807Z</time>
      </trkpt>
      <trkpt lat="48.0636" lon="6.83837">
        <ele>794</ele>
        <time>2020-10-28T09:09:02.806Z</time>
      </trkpt>
      <trkpt lat="48.0636" lon="6.83837">
        <ele>794</ele>
        <time>2020-10-28T09:09:03.807Z</time>
      </trkpt>
      <trkpt lat="48.0636" lon="6.8384">
        <ele>794</ele>
        <time>2020-10-28T09:09:04.808Z</time>
      </trkpt>
      <trkpt lat="48.06359" lon="6.83841">
        <ele>795</ele>
        <time>2020-10-28T09:09:05.807Z</time>
      </trkpt>
      <trkpt lat="48.06358" lon="6.8384">
        <ele>795</ele>
        <time>2020-10-28T09:09:06.807Z</time>
      </trkpt>
      <trkpt lat="48.06357" lon="6.83841">
        <ele>795</ele>
        <time>2020-10-28T09:09:07.808Z</time>
      </trkpt>
      <trkpt lat="48.06357" lon="6.83842">
        <ele>795</ele>
        <time>2020-10-28T09:09:08.808Z</time>
      </trkpt>
      <trkpt lat="48.06357" lon="6.83843">
        <ele>795</ele>
        <time>2020-10-28T09:09:09.807Z</time>
      </trkpt>
      <trkpt lat="48.06356" lon="6.83843">
        <ele>795</ele>
        <time>2020-10-28T09:09:10.808Z</time>
      </trkpt>
      <trkpt lat="48.06356" lon="6.83844">
        <ele>794</ele>
        <time>2020-10-28T09:09:11.808Z</time>
      </trkpt>
      <trkpt lat="48.06355" lon="6.83845">
        <ele>795</ele>
        <time>2020-10-28T09:09:12.808Z</time>
      </trkpt>
      <trkpt lat="48.06355" lon="6.83845">
        <ele>795</ele>
        <time>2020-10-28T09:09:13.807Z</time>
      </trkpt>
      <trkpt lat="48.06354" lon="6.83845">
        <ele>796</ele>
        <time>2020-10-28T09:09:14.808Z</time>
      </trkpt>
      <trkpt lat="48.06353" lon="6.83845">
        <ele>796</ele>
        <time>2020-10-28T09:09:15.808Z</time>
      </trkpt>
      <trkpt lat="48.06353" lon="6.83846">
        <ele>797</ele>
        <time>2020-10-28T09:09:16.808Z</time>
      </trkpt>
      <trkpt lat="48.06352" lon="6.83846">
        <ele>798</ele>
        <time>2020-10-28T09:09:17.807Z</time>
      </trkpt>
      <trkpt lat="48.06351" lon="6.83847">
        <ele>798</ele>
        <time>2020-10-28T09:09:18.808Z</time>
      </trkpt>
      <trkpt lat="48.0635" lon="6.83847">
        <ele>799</ele>
        <time>2020-10-28T09:09:19.808Z</time>
      </trkpt>
      <trkpt lat="48.06349" lon="6.83847">
        <ele>799</ele>
        <time>2020-10-28T09:09:20.808Z</time>
      </trkpt>
      <trkpt lat="48.06348" lon="6.83848">
        <ele>799</ele>
        <time>2020-10-28T09:09:21.808Z</time>
      </trkpt>
      <trkpt lat="48.06348" lon="6.83849">
        <ele>799</ele>
        <time>2020-10-28T09:09:22.808Z</time>
      </trkpt>
      <trkpt lat="48.06348" lon="6.8385">
        <ele>800</ele>
        <time>2020-10-28T09:09:23.808Z</time>
      </trkpt>
      <trkpt lat="48.06348" lon="6.83855">
        <ele>801</ele>
        <time>2020-10-28T09:09:24.809Z</time>
      </trkpt>
      <trkpt lat="48.06348" lon="6.83855">
        <ele>801</ele>
        <time>2020-10-28T09:09:25.808Z</time>
      </trkpt>
      <trkpt lat="48.06346" lon="6.83847">
        <ele>804</ele>
        <time>2020-10-28T09:09:26.810Z</time>
      </trkpt>
      <trkpt lat="48.06347" lon="6.83847">
        <ele>804</ele>
        <time>2020-10-28T09:09:27.809Z</time>
      </trkpt>
      <trkpt lat="48.06348" lon="6.83848">
        <ele>804</ele>
        <time>2020-10-28T09:09:28.810Z</time>
      </trkpt>
      <trkpt lat="48.06349" lon="6.83848">
        <ele>805</ele>
        <time>2020-10-28T09:09:29.810Z</time>
      </trkpt>
      <trkpt lat="48.06349" lon="6.83846">
        <ele>805</ele>
        <time>2020-10-28T09:09:30.810Z</time>
      </trkpt>
      <trkpt lat="48.06349" lon="6.83843">
        <ele>805</ele>
        <time>2020-10-28T09:09:31.809Z</time>
      </trkpt>
      <trkpt lat="48.06349" lon="6.83842">
        <ele>806</ele>
        <time>2020-10-28T09:09:32.809Z</time>
      </trkpt>
      <trkpt lat="48.06349" lon="6.83842">
        <ele>806</ele>
        <time>2020-10-28T09:09:33.810Z</time>
      </trkpt>
      <trkpt lat="48.06349" lon="6.83843">
        <ele>806</ele>
        <time>2020-10-28T09:09:34.809Z</time>
      </trkpt>
      <trkpt lat="48.06349" lon="6.83844">
        <ele>806</ele>
        <time>2020-10-28T09:09:35.810Z</time>
      </trkpt>
      <trkpt lat="48.06349" lon="6.83844">
        <ele>807</ele>
        <time>2020-10-28T09:09:36.810Z</time>
      </trkpt>
      <trkpt lat="48.06349" lon="6.83845">
        <ele>807</ele>
        <time>2020-10-28T09:09:37.810Z</time>
      </trkpt>
      <trkpt lat="48.06348" lon="6.83844">
        <ele>808</ele>
        <time>2020-10-28T09:09:38.810Z</time>
      </trkpt>
      <trkpt lat="48.06347" lon="6.83844">
        <ele>808</ele>
        <time>2020-10-28T09:09:39.810Z</time>
      </trkpt>
      <trkpt lat="48.06347" lon="6.83845">
        <ele>807</ele>
        <time>2020-10-28T09:09:40.810Z</time>
      </trkpt>
      <trkpt lat="48.06347" lon="6.83848">
        <ele>805</ele>
        <time>2020-10-28T09:09:41.809Z</time>
      </trkpt>
      <trkpt lat="48.06347" lon="6.83849">
        <ele>805</ele>
        <time>2020-10-28T09:09:42.810Z</time>
      </trkpt>
      <trkpt lat="48.06347" lon="6.83851">
        <ele>804</ele>
        <time>2020-10-28T09:09:43.810Z</time>
      </trkpt>
      <trkpt lat="48.06347" lon="6.83851">
        <ele>803</ele>
        <time>2020-10-28T09:09:44.809Z</time>
      </trkpt>
      <trkpt lat="48.06341" lon="6.83852">
        <ele>798</ele>
        <time>2020-10-28T09:09:45.809Z</time>
      </trkpt>
      <trkpt lat="48.0634" lon="6.83851">
        <ele>797</ele>
        <time>2020-10-28T09:09:46.809Z</time>
      </trkpt>
      <trkpt lat="48.0634" lon="6.83851">
        <ele>797</ele>
        <time>2020-10-28T09:09:47.810Z</time>
      </trkpt>
      <trkpt lat="48.0634" lon="6.83851">
        <ele>797</ele>
        <time>2020-10-28T09:09:48.810Z</time>
      </trkpt>
      <trkpt lat="48.0634" lon="6.83851">
        <ele>796</ele>
        <time>2020-10-28T09:09:49.809Z</time>
      </trkpt>
      <trkpt lat="48.06339" lon="6.83851">
        <ele>796</ele>
        <time>2020-10-28T09:09:50.810Z</time>
      </trkpt>
      <trkpt lat="48.06338" lon="6.83851">
        <ele>795</ele>
        <time>2020-10-28T09:09:51.810Z</time>
      </trkpt>
      <trkpt lat="48.06337" lon="6.83851">
        <ele>795</ele>
        <time>2020-10-28T09:09:52.809Z</time>
      </trkpt>
      <trkpt lat="48.06337" lon="6.83851">
        <ele>795</ele>
        <time>2020-10-28T09:09:53.809Z</time>
      </trkpt>
      <trkpt lat="48.06336" lon="6.83851">
        <ele>795</ele>
        <time>2020-10-28T09:09:54.810Z</time>
      </trkpt>
      <trkpt lat="48.06335" lon="6.8385">
        <ele>795</ele>
        <time>2020-10-28T09:09:55.810Z</time>
      </trkpt>
      <trkpt lat="48.06334" lon="6.83849">
        <ele>796</ele>
        <time>2020-10-28T09:09:56.809Z</time>
      </trkpt>
      <trkpt lat="48.06333" lon="6.83848">
        <ele>796</ele>
        <time>2020-10-28T09:09:57.809Z</time>
      </trkpt>
      <trkpt lat="48.06332" lon="6.83845">
        <ele>797</ele>
        <time>2020-10-28T09:09:58.810Z</time>
      </trkpt>
      <trkpt lat="48.06331" lon="6.83844">
        <ele>797</ele>
        <time>2020-10-28T09:09:59.810Z</time>
      </trkpt>
      <trkpt lat="48.0633" lon="6.83844">
        <ele>798</ele>
        <time>2020-10-28T09:10:00.810Z</time>
      </trkpt>
      <trkpt lat="48.0633" lon="6.83843">
        <ele>798</ele>
        <time>2020-10-28T09:10:01.809Z</time>
      </trkpt>
      <trkpt lat="48.06329" lon="6.83843">
        <ele>799</ele>
        <time>2020-10-28T09:10:02.810Z</time>
      </trkpt>
      <trkpt lat="48.06328" lon="6.83843">
        <ele>799</ele>
        <time>2020-10-28T09:10:03.809Z</time>
      </trkpt>
      <trkpt lat="48.06327" lon="6.83842">
        <ele>799</ele>
        <time>2020-10-28T09:10:04.810Z</time>
      </trkpt>
      <trkpt lat="48.06326" lon="6.83841">
        <ele>799</ele>
        <time>2020-10-28T09:10:05.809Z</time>
      </trkpt>
      <trkpt lat="48.06326" lon="6.83841">
        <ele>799</ele>
        <time>2020-10-28T09:10:06.810Z</time>
      </trkpt>
      <trkpt lat="48.06325" lon="6.8384">
        <ele>799</ele>
        <time>2020-10-28T09:10:07.809Z</time>
      </trkpt>
      <trkpt lat="48.06324" lon="6.83841">
        <ele>799</ele>
        <time>2020-10-28T09:10:08.809Z</time>
      </trkpt>
      <trkpt lat="48.06324" lon="6.83841">
        <ele>799</ele>
        <time>2020-10-28T09:10:09.810Z</time>
      </trkpt>
      <trkpt lat="48.06324" lon="6.83841">
        <ele>799</ele>
        <time>2020-10-28T09:10:10.810Z</time>
      </trkpt>
      <trkpt lat="48.06323" lon="6.83842">
        <ele>799</ele>
        <time>2020-10-28T09:10:11.810Z</time>
      </trkpt>
      <trkpt lat="48.06323" lon="6.83843">
        <ele>799</ele>
        <time>2020-10-28T09:10:12.810Z</time>
      </trkpt>
      <trkpt lat="48.06322" lon="6.83843">
        <ele>799</ele>
        <time>2020-10-28T09:10:13.810Z</time>
      </trkpt>
      <trkpt lat="48.06321" lon="6.83843">
        <ele>800</ele>
        <time>2020-10-28T09:10:14.810Z</time>
      </trkpt>
      <trkpt lat="48.0632" lon="6.83843">
        <ele>800</ele>
        <time>2020-10-28T09:10:15.810Z</time>
      </trkpt>
      <trkpt lat="48.06319" lon="6.83843">
        <ele>801</ele>
        <time>2020-10-28T09:10:16.810Z</time>
      </trkpt>
      <trkpt lat="48.06318" lon="6.83843">
        <ele>801</ele>
        <time>2020-10-28T09:10:17.810Z</time>
      </trkpt>
      <trkpt lat="48.06318" lon="6.83844">
        <ele>801</ele>
        <time>2020-10-28T09:10:18.810Z</time>
      </trkpt>
      <trkpt lat="48.06317" lon="6.83845">
        <ele>801</ele>
        <time>2020-10-28T09:10:19.810Z</time>
      </trkpt>
      <trkpt lat="48.06317" lon="6.83845">
        <ele>801</ele>
        <time>2020-10-28T09:10:20.810Z</time>
      </trkpt>
      <trkpt lat="48.06316" lon="6.83847">
        <ele>801</ele>
        <time>2020-10-28T09:10:21.810Z</time>
      </trkpt>
      <trkpt lat="48.06316" lon="6.83847">
        <ele>801</ele>
        <time>2020-10-28T09:10:22.809Z</time>
      </trkpt>
      <trkpt lat="48.06315" lon="6.83848">
        <ele>801</ele>
        <time>2020-10-28T09:10:23.810Z</time>
      </trkpt>
      <trkpt lat="48.06314" lon="6.83848">
        <ele>802</ele>
        <time>2020-10-28T09:10:24.809Z</time>
      </trkpt>
      <trkpt lat="48.06313" lon="6.83849">
        <ele>802</ele>
        <time>2020-10-28T09:10:25.810Z</time>
      </trkpt>
      <trkpt lat="48.06313" lon="6.8385">
        <ele>802</ele>
        <time>2020-10-28T09:10:26.810Z</time>
      </trkpt>
      <trkpt lat="48.06312" lon="6.83851">
        <ele>802</ele>
        <time>2020-10-28T09:10:27.810Z</time>
      </trkpt>
      <trkpt lat="48.06311" lon="6.83852">
        <ele>802</ele>
        <time>2020-10-28T09:10:28.810Z</time>
      </trkpt>
      <trkpt lat="48.0631" lon="6.83853">
        <ele>802</ele>
        <time>2020-10-28T09:10:29.810Z</time>
      </trkpt>
      <trkpt lat="48.06309" lon="6.83853">
        <ele>803</ele>
        <time>2020-10-28T09:10:30.810Z</time>
      </trkpt>
      <trkpt lat="48.06308" lon="6.83853">
        <ele>803</ele>
        <time>2020-10-28T09:10:31.810Z</time>
      </trkpt>
      <trkpt lat="48.06306" lon="6.83853">
        <ele>803</ele>
        <time>2020-10-28T09:10:32.810Z</time>
      </trkpt>
      <trkpt lat="48.06305" lon="6.83853">
        <ele>803</ele>
        <time>2020-10-28T09:10:33.810Z</time>
      </trkpt>
      <trkpt lat="48.06304" lon="6.83852">
        <ele>803</ele>
        <time>2020-10-28T09:10:34.810Z</time>
      </trkpt>
      <trkpt lat="48.06302" lon="6.83851">
        <ele>803</ele>
        <time>2020-10-28T09:10:35.809Z</time>
      </trkpt>
      <trkpt lat="48.06301" lon="6.83851">
        <ele>803</ele>
        <time>2020-10-28T09:10:36.809Z</time>
      </trkpt>
      <trkpt lat="48.063" lon="6.83849">
        <ele>803</ele>
        <time>2020-10-28T09:10:37.810Z</time>
      </trkpt>
      <trkpt lat="48.06299" lon="6.83847">
        <ele>803</ele>
        <time>2020-10-28T09:10:38.810Z</time>
      </trkpt>
      <trkpt lat="48.06299" lon="6.83846">
        <ele>803</ele>
        <time>2020-10-28T09:10:39.809Z</time>
      </trkpt>
      <trkpt lat="48.06298" lon="6.83844">
        <ele>802</ele>
        <time>2020-10-28T09:10:40.810Z</time>
      </trkpt>
      <trkpt lat="48.06297" lon="6.83844">
        <ele>801</ele>
        <time>2020-10-28T09:10:41.810Z</time>
      </trkpt>
      <trkpt lat="48.06297" lon="6.83844">
        <ele>801</ele>
        <time>2020-10-28T09:10:42.809Z</time>
      </trkpt>
      <trkpt lat="48.06297" lon="6.83844">
        <ele>801</ele>
        <time>2020-10-28T09:10:43.809Z</time>
      </trkpt>
      <trkpt lat="48.06296" lon="6.83843">
        <ele>801</ele>
        <time>2020-10-28T09:10:44.809Z</time>
      </trkpt>
      <trkpt lat="48.06296" lon="6.83843">
        <ele>801</ele>
        <time>2020-10-28T09:10:45.809Z</time>
      </trkpt>
      <trkpt lat="48.06295" lon="6.83843">
        <ele>801</ele>
        <time>2020-10-28T09:10:46.810Z</time>
      </trkpt>
      <trkpt lat="48.06295" lon="6.83844">
        <ele>801</ele>
        <time>2020-10-28T09:10:47.810Z</time>
      </trkpt>
      <trkpt lat="48.06293" lon="6.83845">
        <ele>801</ele>
        <time>2020-10-28T09:10:48.809Z</time>
      </trkpt>
      <trkpt lat="48.06292" lon="6.83845">
        <ele>802</ele>
        <time>2020-10-28T09:10:49.810Z</time>
      </trkpt>
      <trkpt lat="48.0629" lon="6.83844">
        <ele>802</ele>
        <time>2020-10-28T09:10:50.809Z</time>
      </trkpt>
      <trkpt lat="48.06288" lon="6.83844">
        <ele>803</ele>
        <time>2020-10-28T09:10:51.810Z</time>
      </trkpt>
      <trkpt lat="48.06287" lon="6.83843">
        <ele>803</ele>
        <time>2020-10-28T09:10:52.810Z</time>
      </trkpt>
      <trkpt lat="48.06287" lon="6.83841">
        <ele>804</ele>
        <time>2020-10-28T09:10:53.810Z</time>
      </trkpt>
      <trkpt lat="48.06286" lon="6.8384">
        <ele>804</ele>
        <time>2020-10-28T09:10:54.810Z</time>
      </trkpt>
      <trkpt lat="48.06285" lon="6.83839">
        <ele>805</ele>
        <time>2020-10-28T09:10:55.810Z</time>
      </trkpt>
      <trkpt lat="48.06285" lon="6.83838">
        <ele>806</ele>
        <time>2020-10-28T09:10:56.810Z</time>
      </trkpt>
      <trkpt lat="48.06285" lon="6.83838">
        <ele>806</ele>
        <time>2020-10-28T09:10:57.810Z</time>
      </trkpt>
      <trkpt lat="48.06284" lon="6.83838">
        <ele>807</ele>
        <time>2020-10-28T09:10:58.810Z</time>
      </trkpt>
      <trkpt lat="48.06284" lon="6.83838">
        <ele>807</ele>
        <time>2020-10-28T09:10:59.810Z</time>
      </trkpt>
      <trkpt lat="48.06284" lon="6.83837">
        <ele>807</ele>
        <time>2020-10-28T09:11:00.810Z</time>
      </trkpt>
      <trkpt lat="48.06283" lon="6.83836">
        <ele>808</ele>
        <time>2020-10-28T09:11:01.809Z</time>
      </trkpt>
      <trkpt lat="48.06283" lon="6.83836">
        <ele>808</ele>
        <time>2020-10-28T09:11:02.810Z</time>
      </trkpt>
      <trkpt lat="48.06282" lon="6.83834">
        <ele>808</ele>
        <time>2020-10-28T09:11:03.810Z</time>
      </trkpt>
      <trkpt lat="48.06281" lon="6.83833">
        <ele>809</ele>
        <time>2020-10-28T09:11:04.810Z</time>
      </trkpt>
      <trkpt lat="48.0628" lon="6.83831">
        <ele>809</ele>
        <time>2020-10-28T09:11:05.810Z</time>
      </trkpt>
      <trkpt lat="48.06279" lon="6.83829">
        <ele>809</ele>
        <time>2020-10-28T09:11:06.810Z</time>
      </trkpt>
      <trkpt lat="48.06279" lon="6.83828">
        <ele>809</ele>
        <time>2020-10-28T09:11:07.810Z</time>
      </trkpt>
      <trkpt lat="48.06278" lon="6.83826">
        <ele>809</ele>
        <time>2020-10-28T09:11:08.810Z</time>
      </trkpt>
      <trkpt lat="48.06278" lon="6.83826">
        <ele>809</ele>
        <time>2020-10-28T09:11:09.810Z</time>
      </trkpt>
      <trkpt lat="48.06278" lon="6.83825">
        <ele>809</ele>
        <time>2020-10-28T09:11:10.810Z</time>
      </trkpt>
      <trkpt lat="48.06277" lon="6.83825">
        <ele>809</ele>
        <time>2020-10-28T09:11:11.810Z</time>
      </trkpt>
      <trkpt lat="48.06276" lon="6.83824">
        <ele>809</ele>
        <time>2020-10-28T09:11:12.810Z</time>
      </trkpt>
      <trkpt lat="48.06276" lon="6.83823">
        <ele>809</ele>
        <time>2020-10-28T09:11:13.810Z</time>
      </trkpt>
      <trkpt lat="48.06275" lon="6.83822">
        <ele>810</ele>
        <time>2020-10-28T09:11:14.810Z</time>
      </trkpt>
      <trkpt lat="48.06275" lon="6.83821">
        <ele>810</ele>
        <time>2020-10-28T09:11:15.810Z</time>
      </trkpt>
      <trkpt lat="48.06274" lon="6.8382">
        <ele>809</ele>
        <time>2020-10-28T09:11:16.809Z</time>
      </trkpt>
      <trkpt lat="48.06274" lon="6.8382">
        <ele>809</ele>
        <time>2020-10-28T09:11:17.810Z</time>
      </trkpt>
      <trkpt lat="48.06274" lon="6.83819">
        <ele>809</ele>
        <time>2020-10-28T09:11:18.810Z</time>
      </trkpt>
      <trkpt lat="48.06273" lon="6.83818">
        <ele>809</ele>
        <time>2020-10-28T09:11:19.810Z</time>
      </trkpt>
      <trkpt lat="48.06273" lon="6.83818">
        <ele>809</ele>
        <time>2020-10-28T09:11:20.809Z</time>
      </trkpt>
      <trkpt lat="48.06272" lon="6.83818">
        <ele>809</ele>
        <time>2020-10-28T09:11:21.809Z</time>
      </trkpt>
      <trkpt lat="48.06272" lon="6.83818">
        <ele>808</ele>
        <time>2020-10-28T09:11:22.809Z</time>
      </trkpt>
      <trkpt lat="48.06272" lon="6.83819">
        <ele>808</ele>
        <time>2020-10-28T09:11:23.809Z</time>
      </trkpt>
      <trkpt lat="48.06271" lon="6.83819">
        <ele>808</ele>
        <time>2020-10-28T09:11:24.810Z</time>
      </trkpt>
      <trkpt lat="48.0627" lon="6.83818">
        <ele>808</ele>
        <time>2020-10-28T09:11:25.810Z</time>
      </trkpt>
      <trkpt lat="48.06269" lon="6.83817">
        <ele>808</ele>
        <time>2020-10-28T09:11:26.809Z</time>
      </trkpt>
      <trkpt lat="48.06268" lon="6.83817">
        <ele>808</ele>
        <time>2020-10-28T09:11:27.810Z</time>
      </trkpt>
      <trkpt lat="48.06268" lon="6.83816">
        <ele>808</ele>
        <time>2020-10-28T09:11:28.810Z</time>
      </trkpt>
      <trkpt lat="48.06268" lon="6.83816">
        <ele>808</ele>
        <time>2020-10-28T09:11:29.810Z</time>
      </trkpt>
      <trkpt lat="48.06267" lon="6.83816">
        <ele>809</ele>
        <time>2020-10-28T09:11:30.810Z</time>
      </trkpt>
      <trkpt lat="48.06266" lon="6.83815">
        <ele>810</ele>
        <time>2020-10-28T09:11:31.810Z</time>
      </trkpt>
      <trkpt lat="48.06265" lon="6.83814">
        <ele>810</ele>
        <time>2020-10-28T09:11:32.809Z</time>
      </trkpt>
      <trkpt lat="48.06264" lon="6.83813">
        <ele>811</ele>
        <time>2020-10-28T09:11:33.810Z</time>
      </trkpt>
      <trkpt lat="48.06262" lon="6.83812">
        <ele>812</ele>
        <time>2020-10-28T09:11:34.810Z</time>
      </trkpt>
      <trkpt lat="48.06261" lon="6.83811">
        <ele>813</ele>
        <time>2020-10-28T09:11:35.810Z</time>
      </trkpt>
      <trkpt lat="48.0626" lon="6.8381">
        <ele>813</ele>
        <time>2020-10-28T09:11:36.810Z</time>
      </trkpt>
      <trkpt lat="48.0626" lon="6.83809">
        <ele>814</ele>
        <time>2020-10-28T09:11:37.810Z</time>
      </trkpt>
      <trkpt lat="48.06258" lon="6.83809">
        <ele>815</ele>
        <time>2020-10-28T09:11:38.810Z</time>
      </trkpt>
      <trkpt lat="48.06257" lon="6.83808">
        <ele>816</ele>
        <time>2020-10-28T09:11:39.810Z</time>
      </trkpt>
      <trkpt lat="48.06256" lon="6.83806">
        <ele>816</ele>
        <time>2020-10-28T09:11:40.810Z</time>
      </trkpt>
      <trkpt lat="48.06255" lon="6.83805">
        <ele>817</ele>
        <time>2020-10-28T09:11:41.810Z</time>
      </trkpt>
      <trkpt lat="48.06254" lon="6.83804">
        <ele>818</ele>
        <time>2020-10-28T09:11:42.810Z</time>
      </trkpt>
      <trkpt lat="48.06253" lon="6.83803">
        <ele>819</ele>
        <time>2020-10-28T09:11:43.809Z</time>
      </trkpt>
      <trkpt lat="48.06253" lon="6.83803">
        <ele>820</ele>
        <time>2020-10-28T09:11:44.810Z</time>
      </trkpt>
      <trkpt lat="48.06253" lon="6.83802">
        <ele>820</ele>
        <time>2020-10-28T09:11:45.810Z</time>
      </trkpt>
      <trkpt lat="48.06253" lon="6.838">
        <ele>821</ele>
        <time>2020-10-28T09:11:46.810Z</time>
      </trkpt>
      <trkpt lat="48.06252" lon="6.83799">
        <ele>821</ele>
        <time>2020-10-28T09:11:47.809Z</time>
      </trkpt>
      <trkpt lat="48.06252" lon="6.83798">
        <ele>821</ele>
        <time>2020-10-28T09:11:48.810Z</time>
      </trkpt>
      <trkpt lat="48.06251" lon="6.83797">
        <ele>821</ele>
        <time>2020-10-28T09:11:49.810Z</time>
      </trkpt>
      <trkpt lat="48.0625" lon="6.83795">
        <ele>821</ele>
        <time>2020-10-28T09:11:50.810Z</time>
      </trkpt>
      <trkpt lat="48.06248" lon="6.83794">
        <ele>821</ele>
        <time>2020-10-28T09:11:51.810Z</time>
      </trkpt>
      <trkpt lat="48.06247" lon="6.83793">
        <ele>820</ele>
        <time>2020-10-28T09:11:52.809Z</time>
      </trkpt>
      <trkpt lat="48.06246" lon="6.83792">
        <ele>820</ele>
        <time>2020-10-28T09:11:53.810Z</time>
      </trkpt>
      <trkpt lat="48.06246" lon="6.8379">
        <ele>820</ele>
        <time>2020-10-28T09:11:54.810Z</time>
      </trkpt>
      <trkpt lat="48.06246" lon="6.83789">
        <ele>820</ele>
        <time>2020-10-28T09:11:55.810Z</time>
      </trkpt>
      <trkpt lat="48.06246" lon="6.83788">
        <ele>820</ele>
        <time>2020-10-28T09:11:56.809Z</time>
      </trkpt>
      <trkpt lat="48.06245" lon="6.83788">
        <ele>820</ele>
        <time>2020-10-28T09:11:57.810Z</time>
      </trkpt>
      <trkpt lat="48.06245" lon="6.83787">
        <ele>820</ele>
        <time>2020-10-28T09:11:58.810Z</time>
      </trkpt>
      <trkpt lat="48.06244" lon="6.83786">
        <ele>820</ele>
        <time>2020-10-28T09:11:59.809Z</time>
      </trkpt>
      <trkpt lat="48.06243" lon="6.83785">
        <ele>820</ele>
        <time>2020-10-28T09:12:00.810Z</time>
      </trkpt>
      <trkpt lat="48.06243" lon="6.83784">
        <ele>820</ele>
        <time>2020-10-28T09:12:01.809Z</time>
      </trkpt>
      <trkpt lat="48.06243" lon="6.83784">
        <ele>819</ele>
        <time>2020-10-28T09:12:02.810Z</time>
      </trkpt>
      <trkpt lat="48.06242" lon="6.83784">
        <ele>819</ele>
        <time>2020-10-28T09:12:03.809Z</time>
      </trkpt>
      <trkpt lat="48.0624" lon="6.83783">
        <ele>819</ele>
        <time>2020-10-28T09:12:04.810Z</time>
      </trkpt>
      <trkpt lat="48.06238" lon="6.83784">
        <ele>819</ele>
        <time>2020-10-28T09:12:05.809Z</time>
      </trkpt>
      <trkpt lat="48.06236" lon="6.83784">
        <ele>818</ele>
        <time>2020-10-28T09:12:06.809Z</time>
      </trkpt>
      <trkpt lat="48.06235" lon="6.83783">
        <ele>818</ele>
        <time>2020-10-28T09:12:07.810Z</time>
      </trkpt>
      <trkpt lat="48.06235" lon="6.83783">
        <ele>818</ele>
        <time>2020-10-28T09:12:08.810Z</time>
      </trkpt>
      <trkpt lat="48.06234" lon="6.83783">
        <ele>818</ele>
        <time>2020-10-28T09:12:09.809Z</time>
      </trkpt>
      <trkpt lat="48.06233" lon="6.83784">
        <ele>818</ele>
        <time>2020-10-28T09:12:10.809Z</time>
      </trkpt>
      <trkpt lat="48.06233" lon="6.83784">
        <ele>819</ele>
        <time>2020-10-28T09:12:11.809Z</time>
      </trkpt>
      <trkpt lat="48.06232" lon="6.83784">
        <ele>819</ele>
        <time>2020-10-28T09:12:12.810Z</time>
      </trkpt>
      <trkpt lat="48.06231" lon="6.83782">
        <ele>819</ele>
        <time>2020-10-28T09:12:13.810Z</time>
      </trkpt>
      <trkpt lat="48.06231" lon="6.83781">
        <ele>819</ele>
        <time>2020-10-28T09:12:14.810Z</time>
      </trkpt>
      <trkpt lat="48.06231" lon="6.83781">
        <ele>820</ele>
        <time>2020-10-28T09:12:15.810Z</time>
      </trkpt>
      <trkpt lat="48.0623" lon="6.8378">
        <ele>820</ele>
        <time>2020-10-28T09:12:16.810Z</time>
      </trkpt>
      <trkpt lat="48.0623" lon="6.83778">
        <ele>820</ele>
        <time>2020-10-28T09:12:17.810Z</time>
      </trkpt>
      <trkpt lat="48.0623" lon="6.83777">
        <ele>820</ele>
        <time>2020-10-28T09:12:18.810Z</time>
      </trkpt>
      <trkpt lat="48.0623" lon="6.83777">
        <ele>821</ele>
        <time>2020-10-28T09:12:19.809Z</time>
      </trkpt>
      <trkpt lat="48.0623" lon="6.83776">
        <ele>821</ele>
        <time>2020-10-28T09:12:20.810Z</time>
      </trkpt>
      <trkpt lat="48.06231" lon="6.83775">
        <ele>821</ele>
        <time>2020-10-28T09:12:21.809Z</time>
      </trkpt>
      <trkpt lat="48.06231" lon="6.83773">
        <ele>821</ele>
        <time>2020-10-28T09:12:22.809Z</time>
      </trkpt>
      <trkpt lat="48.06231" lon="6.83771">
        <ele>821</ele>
        <time>2020-10-28T09:12:23.809Z</time>
      </trkpt>
      <trkpt lat="48.06231" lon="6.83771">
        <ele>821</ele>
        <time>2020-10-28T09:12:24.810Z</time>
      </trkpt>
      <trkpt lat="48.06231" lon="6.8377">
        <ele>821</ele>
        <time>2020-10-28T09:12:25.810Z</time>
      </trkpt>
      <trkpt lat="48.0623" lon="6.83769">
        <ele>821</ele>
        <time>2020-10-28T09:12:26.809Z</time>
      </trkpt>
      <trkpt lat="48.0623" lon="6.83768">
        <ele>822</ele>
        <time>2020-10-28T09:12:27.810Z</time>
      </trkpt>
      <trkpt lat="48.0623" lon="6.83767">
        <ele>822</ele>
        <time>2020-10-28T09:12:28.810Z</time>
      </trkpt>
      <trkpt lat="48.0623" lon="6.83763">
        <ele>824</ele>
        <time>2020-10-28T09:12:29.810Z</time>
      </trkpt>
      <trkpt lat="48.0623" lon="6.83762">
        <ele>824</ele>
        <time>2020-10-28T09:12:30.809Z</time>
      </trkpt>
      <trkpt lat="48.06231" lon="6.83761">
        <ele>824</ele>
        <time>2020-10-28T09:12:31.810Z</time>
      </trkpt>
      <trkpt lat="48.06231" lon="6.83759">
        <ele>824</ele>
        <time>2020-10-28T09:12:32.810Z</time>
      </trkpt>
      <trkpt lat="48.06231" lon="6.83758">
        <ele>824</ele>
        <time>2020-10-28T09:12:33.810Z</time>
      </trkpt>
      <trkpt lat="48.06231" lon="6.83756">
        <ele>824</ele>
        <time>2020-10-28T09:12:34.810Z</time>
      </trkpt>
      <trkpt lat="48.06231" lon="6.83755">
        <ele>825</ele>
        <time>2020-10-28T09:12:35.810Z</time>
      </trkpt>
      <trkpt lat="48.0623" lon="6.83753">
        <ele>825</ele>
        <time>2020-10-28T09:12:36.810Z</time>
      </trkpt>
      <trkpt lat="48.06228" lon="6.83752">
        <ele>825</ele>
        <time>2020-10-28T09:12:37.810Z</time>
      </trkpt>
      <trkpt lat="48.06227" lon="6.83751">
        <ele>826</ele>
        <time>2020-10-28T09:12:38.809Z</time>
      </trkpt>
      <trkpt lat="48.06226" lon="6.83751">
        <ele>826</ele>
        <time>2020-10-28T09:12:39.810Z</time>
      </trkpt>
      <trkpt lat="48.06224" lon="6.8375">
        <ele>826</ele>
        <time>2020-10-28T09:12:40.810Z</time>
      </trkpt>
      <trkpt lat="48.06223" lon="6.8375">
        <ele>826</ele>
        <time>2020-10-28T09:12:41.810Z</time>
      </trkpt>
      <trkpt lat="48.06222" lon="6.83749">
        <ele>827</ele>
        <time>2020-10-28T09:12:42.810Z</time>
      </trkpt>
      <trkpt lat="48.0622" lon="6.83749">
        <ele>827</ele>
        <time>2020-10-28T09:12:43.810Z</time>
      </trkpt>
      <trkpt lat="48.0622" lon="6.83749">
        <ele>828</ele>
        <time>2020-10-28T09:12:44.810Z</time>
      </trkpt>
      <trkpt lat="48.06219" lon="6.83749">
        <ele>828</ele>
        <time>2020-10-28T09:12:45.810Z</time>
      </trkpt>
      <trkpt lat="48.06219" lon="6.83749">
        <ele>829</ele>
        <time>2020-10-28T09:12:46.810Z</time>
      </trkpt>
      <trkpt lat="48.06218" lon="6.83748">
        <ele>829</ele>
        <time>2020-10-28T09:12:47.810Z</time>
      </trkpt>
      <trkpt lat="48.06217" lon="6.83748">
        <ele>829</ele>
        <time>2020-10-28T09:12:48.810Z</time>
      </trkpt>
      <trkpt lat="48.06216" lon="6.83747">
        <ele>829</ele>
        <time>2020-10-28T09:12:49.810Z</time>
      </trkpt>
      <trkpt lat="48.06215" lon="6.83746">
        <ele>829</ele>
        <time>2020-10-28T09:12:50.810Z</time>
      </trkpt>
      <trkpt lat="48.06214" lon="6.83745">
        <ele>829</ele>
        <time>2020-10-28T09:12:51.810Z</time>
      </trkpt>
      <trkpt lat="48.06214" lon="6.83745">
        <ele>829</ele>
        <time>2020-10-28T09:12:52.810Z</time>
      </trkpt>
      <trkpt lat="48.06213" lon="6.83744">
        <ele>829</ele>
        <time>2020-10-28T09:12:53.810Z</time>
      </trkpt>
      <trkpt lat="48.06212" lon="6.83743">
        <ele>828</ele>
        <time>2020-10-28T09:12:54.810Z</time>
      </trkpt>
      <trkpt lat="48.06211" lon="6.83744">
        <ele>828</ele>
        <time>2020-10-28T09:12:55.809Z</time>
      </trkpt>
      <trkpt lat="48.06211" lon="6.83744">
        <ele>828</ele>
        <time>2020-10-28T09:12:56.810Z</time>
      </trkpt>
      <trkpt lat="48.0621" lon="6.83745">
        <ele>828</ele>
        <time>2020-10-28T09:12:57.810Z</time>
      </trkpt>
      <trkpt lat="48.06209" lon="6.83745">
        <ele>828</ele>
        <time>2020-10-28T09:12:58.810Z</time>
      </trkpt>
      <trkpt lat="48.06208" lon="6.83745">
        <ele>828</ele>
        <time>2020-10-28T09:12:59.809Z</time>
      </trkpt>
      <trkpt lat="48.06208" lon="6.83746">
        <ele>828</ele>
        <time>2020-10-28T09:13:00.810Z</time>
      </trkpt>
      <trkpt lat="48.06206" lon="6.83747">
        <ele>827</ele>
        <time>2020-10-28T09:13:01.810Z</time>
      </trkpt>
      <trkpt lat="48.06205" lon="6.83747">
        <ele>827</ele>
        <time>2020-10-28T09:13:02.810Z</time>
      </trkpt>
      <trkpt lat="48.06204" lon="6.83747">
        <ele>827</ele>
        <time>2020-10-28T09:13:03.810Z</time>
      </trkpt>
      <trkpt lat="48.06203" lon="6.83746">
        <ele>826</ele>
        <time>2020-10-28T09:13:04.810Z</time>
      </trkpt>
      <trkpt lat="48.06203" lon="6.83746">
        <ele>826</ele>
        <time>2020-10-28T09:13:05.810Z</time>
      </trkpt>
      <trkpt lat="48.06203" lon="6.83746">
        <ele>826</ele>
        <time>2020-10-28T09:13:06.810Z</time>
      </trkpt>
      <trkpt lat="48.06201" lon="6.83744">
        <ele>828</ele>
        <time>2020-10-28T09:13:07.811Z</time>
      </trkpt>
      <trkpt lat="48.062" lon="6.83744">
        <ele>828</ele>
        <time>2020-10-28T09:13:08.810Z</time>
      </trkpt>
      <trkpt lat="48.06199" lon="6.83744">
        <ele>828</ele>
        <time>2020-10-28T09:13:09.810Z</time>
      </trkpt>
      <trkpt lat="48.06199" lon="6.83744">
        <ele>828</ele>
        <time>2020-10-28T09:13:10.811Z</time>
      </trkpt>
      <trkpt lat="48.06199" lon="6.83745">
        <ele>829</ele>
        <time>2020-10-28T09:13:11.811Z</time>
      </trkpt>
      <trkpt lat="48.06198" lon="6.83743">
        <ele>830</ele>
        <time>2020-10-28T09:13:12.810Z</time>
      </trkpt>
      <trkpt lat="48.06198" lon="6.83743">
        <ele>830</ele>
        <time>2020-10-28T09:13:13.810Z</time>
      </trkpt>
      <trkpt lat="48.06197" lon="6.83741">
        <ele>829</ele>
        <time>2020-10-28T09:13:14.811Z</time>
      </trkpt>
      <trkpt lat="48.06196" lon="6.83741">
        <ele>829</ele>
        <time>2020-10-28T09:13:15.812Z</time>
      </trkpt>
      <trkpt lat="48.06195" lon="6.83742">
        <ele>829</ele>
        <time>2020-10-28T09:13:16.812Z</time>
      </trkpt>
      <trkpt lat="48.06195" lon="6.83743">
        <ele>829</ele>
        <time>2020-10-28T09:13:17.812Z</time>
      </trkpt>
      <trkpt lat="48.06194" lon="6.83743">
        <ele>829</ele>
        <time>2020-10-28T09:13:18.812Z</time>
      </trkpt>
      <trkpt lat="48.06193" lon="6.83743">
        <ele>829</ele>
        <time>2020-10-28T09:13:19.811Z</time>
      </trkpt>
      <trkpt lat="48.06193" lon="6.83744">
        <ele>830</ele>
        <time>2020-10-28T09:13:20.811Z</time>
      </trkpt>
      <trkpt lat="48.06192" lon="6.83744">
        <ele>830</ele>
        <time>2020-10-28T09:13:21.811Z</time>
      </trkpt>
      <trkpt lat="48.06192" lon="6.83745">
        <ele>830</ele>
        <time>2020-10-28T09:13:22.812Z</time>
      </trkpt>
      <trkpt lat="48.06191" lon="6.83745">
        <ele>830</ele>
        <time>2020-10-28T09:13:23.811Z</time>
      </trkpt>
      <trkpt lat="48.06191" lon="6.83746">
        <ele>830</ele>
        <time>2020-10-28T09:13:24.812Z</time>
      </trkpt>
      <trkpt lat="48.06191" lon="6.83746">
        <ele>830</ele>
        <time>2020-10-28T09:13:25.811Z</time>
      </trkpt>
      <trkpt lat="48.0619" lon="6.83745">
        <ele>830</ele>
        <time>2020-10-28T09:13:26.812Z</time>
      </trkpt>
      <trkpt lat="48.0619" lon="6.83746">
        <ele>831</ele>
        <time>2020-10-28T09:13:27.812Z</time>
      </trkpt>
      <trkpt lat="48.0619" lon="6.83746">
        <ele>831</ele>
        <time>2020-10-28T09:13:28.811Z</time>
      </trkpt>
      <trkpt lat="48.0619" lon="6.83746">
        <ele>832</ele>
        <time>2020-10-28T09:13:29.812Z</time>
      </trkpt>
      <trkpt lat="48.0619" lon="6.83747">
        <ele>831</ele>
        <time>2020-10-28T09:13:30.812Z</time>
      </trkpt>
      <trkpt lat="48.0619" lon="6.83748">
        <ele>831</ele>
        <time>2020-10-28T09:13:31.812Z</time>
      </trkpt>
      <trkpt lat="48.06191" lon="6.83749">
        <ele>831</ele>
        <time>2020-10-28T09:13:32.811Z</time>
      </trkpt>
      <trkpt lat="48.06191" lon="6.8375">
        <ele>830</ele>
        <time>2020-10-28T09:13:33.811Z</time>
      </trkpt>
      <trkpt lat="48.06191" lon="6.8375">
        <ele>830</ele>
        <time>2020-10-28T09:13:34.811Z</time>
      </trkpt>
      <trkpt lat="48.06192" lon="6.8375">
        <ele>830</ele>
        <time>2020-10-28T09:13:35.812Z</time>
      </trkpt>
      <trkpt lat="48.06192" lon="6.83751">
        <ele>829</ele>
        <time>2020-10-28T09:13:36.812Z</time>
      </trkpt>
      <trkpt lat="48.06192" lon="6.83752">
        <ele>829</ele>
        <time>2020-10-28T09:13:37.812Z</time>
      </trkpt>
      <trkpt lat="48.06191" lon="6.83752">
        <ele>829</ele>
        <time>2020-10-28T09:13:38.811Z</time>
      </trkpt>
      <trkpt lat="48.06191" lon="6.83753">
        <ele>829</ele>
        <time>2020-10-28T09:13:39.812Z</time>
      </trkpt>
      <trkpt lat="48.06191" lon="6.83754">
        <ele>829</ele>
        <time>2020-10-28T09:13:40.812Z</time>
      </trkpt>
      <trkpt lat="48.0619" lon="6.83755">
        <ele>829</ele>
        <time>2020-10-28T09:13:41.812Z</time>
      </trkpt>
      <trkpt lat="48.0619" lon="6.83756">
        <ele>828</ele>
        <time>2020-10-28T09:13:42.812Z</time>
      </trkpt>
      <trkpt lat="48.0619" lon="6.83757">
        <ele>828</ele>
        <time>2020-10-28T09:13:43.812Z</time>
      </trkpt>
      <trkpt lat="48.06191" lon="6.83758">
        <ele>828</ele>
        <time>2020-10-28T09:13:44.812Z</time>
      </trkpt>
      <trkpt lat="48.06191" lon="6.83759">
        <ele>827</ele>
        <time>2020-10-28T09:13:45.812Z</time>
      </trkpt>
      <trkpt lat="48.06191" lon="6.83761">
        <ele>827</ele>
        <time>2020-10-28T09:13:46.812Z</time>
      </trkpt>
      <trkpt lat="48.0619" lon="6.83763">
        <ele>827</ele>
        <time>2020-10-28T09:13:47.812Z</time>
      </trkpt>
      <trkpt lat="48.0619" lon="6.83763">
        <ele>827</ele>
        <time>2020-10-28T09:13:48.812Z</time>
      </trkpt>
      <trkpt lat="48.06189" lon="6.83764">
        <ele>826</ele>
        <time>2020-10-28T09:13:49.812Z</time>
      </trkpt>
      <trkpt lat="48.06189" lon="6.83766">
        <ele>826</ele>
        <time>2020-10-28T09:13:50.812Z</time>
      </trkpt>
      <trkpt lat="48.06189" lon="6.83768">
        <ele>825</ele>
        <time>2020-10-28T09:13:51.812Z</time>
      </trkpt>
      <trkpt lat="48.06189" lon="6.83769">
        <ele>825</ele>
        <time>2020-10-28T09:13:52.811Z</time>
      </trkpt>
      <trkpt lat="48.06188" lon="6.83772">
        <ele>825</ele>
        <time>2020-10-28T09:13:53.812Z</time>
      </trkpt>
      <trkpt lat="48.06188" lon="6.83773">
        <ele>824</ele>
        <time>2020-10-28T09:13:54.812Z</time>
      </trkpt>
      <trkpt lat="48.06187" lon="6.83773">
        <ele>824</ele>
        <time>2020-10-28T09:13:55.812Z</time>
      </trkpt>
      <trkpt lat="48.06186" lon="6.83774">
        <ele>824</ele>
        <time>2020-10-28T09:13:56.812Z</time>
      </trkpt>
      <trkpt lat="48.06186" lon="6.83774">
        <ele>824</ele>
        <time>2020-10-28T09:13:57.812Z</time>
      </trkpt>
      <trkpt lat="48.06185" lon="6.83772">
        <ele>823</ele>
        <time>2020-10-28T09:13:58.812Z</time>
      </trkpt>
      <trkpt lat="48.06184" lon="6.83771">
        <ele>823</ele>
        <time>2020-10-28T09:13:59.812Z</time>
      </trkpt>
      <trkpt lat="48.06184" lon="6.83772">
        <ele>823</ele>
        <time>2020-10-28T09:14:00.812Z</time>
      </trkpt>
      <trkpt lat="48.06183" lon="6.83772">
        <ele>822</ele>
        <time>2020-10-28T09:14:01.812Z</time>
      </trkpt>
      <trkpt lat="48.06183" lon="6.83774">
        <ele>822</ele>
        <time>2020-10-28T09:14:02.812Z</time>
      </trkpt>
      <trkpt lat="48.06182" lon="6.83774">
        <ele>823</ele>
        <time>2020-10-28T09:14:03.812Z</time>
      </trkpt>
      <trkpt lat="48.06181" lon="6.83774">
        <ele>823</ele>
        <time>2020-10-28T09:14:04.812Z</time>
      </trkpt>
      <trkpt lat="48.0618" lon="6.83773">
        <ele>823</ele>
        <time>2020-10-28T09:14:05.812Z</time>
      </trkpt>
      <trkpt lat="48.0618" lon="6.83773">
        <ele>823</ele>
        <time>2020-10-28T09:14:06.812Z</time>
      </trkpt>
      <trkpt lat="48.0618" lon="6.83773">
        <ele>823</ele>
        <time>2020-10-28T09:14:07.812Z</time>
      </trkpt>
      <trkpt lat="48.06179" lon="6.83773">
        <ele>823</ele>
        <time>2020-10-28T09:14:08.811Z</time>
      </trkpt>
      <trkpt lat="48.06179" lon="6.83773">
        <ele>823</ele>
        <time>2020-10-28T09:14:09.812Z</time>
      </trkpt>
      <trkpt lat="48.06179" lon="6.83773">
        <ele>823</ele>
        <time>2020-10-28T09:14:10.811Z</time>
      </trkpt>
      <trkpt lat="48.0618" lon="6.83774">
        <ele>823</ele>
        <time>2020-10-28T09:14:11.811Z</time>
      </trkpt>
      <trkpt lat="48.0618" lon="6.83774">
        <ele>824</ele>
        <time>2020-10-28T09:14:12.812Z</time>
      </trkpt>
      <trkpt lat="48.06181" lon="6.83774">
        <ele>824</ele>
        <time>2020-10-28T09:14:13.812Z</time>
      </trkpt>
      <trkpt lat="48.06181" lon="6.83774">
        <ele>824</ele>
        <time>2020-10-28T09:14:14.812Z</time>
      </trkpt>
      <trkpt lat="48.06182" lon="6.83774">
        <ele>823</ele>
        <time>2020-10-28T09:14:15.811Z</time>
      </trkpt>
      <trkpt lat="48.06181" lon="6.83774">
        <ele>821</ele>
        <time>2020-10-28T09:14:16.814Z</time>
      </trkpt>
      <trkpt lat="48.0618" lon="6.83775">
        <ele>821</ele>
        <time>2020-10-28T09:14:17.813Z</time>
      </trkpt>
      <trkpt lat="48.06176" lon="6.83775">
        <ele>823</ele>
        <time>2020-10-28T09:14:18.813Z</time>
      </trkpt>
      <trkpt lat="48.06176" lon="6.83774">
        <ele>823</ele>
        <time>2020-10-28T09:14:19.814Z</time>
      </trkpt>
      <trkpt lat="48.06175" lon="6.83773">
        <ele>823</ele>
        <time>2020-10-28T09:14:20.814Z</time>
      </trkpt>
      <trkpt lat="48.06174" lon="6.83771">
        <ele>823</ele>
        <time>2020-10-28T09:14:21.814Z</time>
      </trkpt>
      <trkpt lat="48.06173" lon="6.83771">
        <ele>824</ele>
        <time>2020-10-28T09:14:22.814Z</time>
      </trkpt>
      <trkpt lat="48.06173" lon="6.83772">
        <ele>824</ele>
        <time>2020-10-28T09:14:23.814Z</time>
      </trkpt>
      <trkpt lat="48.06172" lon="6.83771">
        <ele>824</ele>
        <time>2020-10-28T09:14:24.814Z</time>
      </trkpt>
      <trkpt lat="48.06169" lon="6.8377">
        <ele>823</ele>
        <time>2020-10-28T09:14:25.813Z</time>
      </trkpt>
      <trkpt lat="48.06168" lon="6.83771">
        <ele>823</ele>
        <time>2020-10-28T09:14:26.814Z</time>
      </trkpt>
      <trkpt lat="48.06168" lon="6.8377">
        <ele>824</ele>
        <time>2020-10-28T09:14:27.814Z</time>
      </trkpt>
      <trkpt lat="48.06166" lon="6.83769">
        <ele>824</ele>
        <time>2020-10-28T09:14:28.814Z</time>
      </trkpt>
      <trkpt lat="48.06166" lon="6.83768">
        <ele>825</ele>
        <time>2020-10-28T09:14:29.814Z</time>
      </trkpt>
      <trkpt lat="48.06165" lon="6.83766">
        <ele>822</ele>
        <time>2020-10-28T09:14:30.815Z</time>
      </trkpt>
      <trkpt lat="48.06165" lon="6.83765">
        <ele>822</ele>
        <time>2020-10-28T09:14:31.815Z</time>
      </trkpt>
      <trkpt lat="48.06165" lon="6.83765">
        <ele>822</ele>
        <time>2020-10-28T09:14:32.815Z</time>
      </trkpt>
      <trkpt lat="48.06164" lon="6.83759">
        <ele>822</ele>
        <time>2020-10-28T09:14:33.815Z</time>
      </trkpt>
      <trkpt lat="48.06164" lon="6.83758">
        <ele>822</ele>
        <time>2020-10-28T09:14:34.815Z</time>
      </trkpt>
      <trkpt lat="48.06163" lon="6.83756">
        <ele>822</ele>
        <time>2020-10-28T09:14:35.815Z</time>
      </trkpt>
      <trkpt lat="48.06163" lon="6.83755">
        <ele>822</ele>
        <time>2020-10-28T09:14:36.816Z</time>
      </trkpt>
      <trkpt lat="48.06162" lon="6.83754">
        <ele>823</ele>
        <time>2020-10-28T09:14:37.815Z</time>
      </trkpt>
      <trkpt lat="48.06162" lon="6.83753">
        <ele>823</ele>
        <time>2020-10-28T09:14:38.815Z</time>
      </trkpt>
      <trkpt lat="48.06161" lon="6.83752">
        <ele>824</ele>
        <time>2020-10-28T09:14:39.815Z</time>
      </trkpt>
      <trkpt lat="48.06161" lon="6.83752">
        <ele>825</ele>
        <time>2020-10-28T09:14:40.815Z</time>
      </trkpt>
      <trkpt lat="48.0616" lon="6.83753">
        <ele>825</ele>
        <time>2020-10-28T09:14:41.815Z</time>
      </trkpt>
      <trkpt lat="48.0616" lon="6.83753">
        <ele>826</ele>
        <time>2020-10-28T09:14:42.816Z</time>
      </trkpt>
      <trkpt lat="48.0616" lon="6.83754">
        <ele>827</ele>
        <time>2020-10-28T09:14:43.815Z</time>
      </trkpt>
      <trkpt lat="48.06159" lon="6.83755">
        <ele>827</ele>
        <time>2020-10-28T09:14:44.816Z</time>
      </trkpt>
      <trkpt lat="48.06159" lon="6.83756">
        <ele>828</ele>
        <time>2020-10-28T09:14:45.816Z</time>
      </trkpt>
      <trkpt lat="48.06159" lon="6.83756">
        <ele>829</ele>
        <time>2020-10-28T09:14:46.815Z</time>
      </trkpt>
      <trkpt lat="48.06159" lon="6.83757">
        <ele>829</ele>
        <time>2020-10-28T09:14:47.815Z</time>
      </trkpt>
      <trkpt lat="48.06158" lon="6.83757">
        <ele>830</ele>
        <time>2020-10-28T09:14:48.815Z</time>
      </trkpt>
      <trkpt lat="48.06158" lon="6.83757">
        <ele>831</ele>
        <time>2020-10-28T09:14:49.815Z</time>
      </trkpt>
      <trkpt lat="48.06158" lon="6.83757">
        <ele>831</ele>
        <time>2020-10-28T09:14:50.816Z</time>
      </trkpt>
      <trkpt lat="48.06157" lon="6.83756">
        <ele>832</ele>
        <time>2020-10-28T09:14:51.815Z</time>
      </trkpt>
      <trkpt lat="48.06156" lon="6.83756">
        <ele>833</ele>
        <time>2020-10-28T09:14:52.816Z</time>
      </trkpt>
      <trkpt lat="48.06155" lon="6.83756">
        <ele>833</ele>
        <time>2020-10-28T09:14:53.816Z</time>
      </trkpt>
      <trkpt lat="48.06154" lon="6.83757">
        <ele>834</ele>
        <time>2020-10-28T09:14:54.816Z</time>
      </trkpt>
      <trkpt lat="48.06154" lon="6.83757">
        <ele>834</ele>
        <time>2020-10-28T09:14:55.815Z</time>
      </trkpt>
      <trkpt lat="48.06154" lon="6.83757">
        <ele>835</ele>
        <time>2020-10-28T09:14:56.816Z</time>
      </trkpt>
      <trkpt lat="48.06153" lon="6.83757">
        <ele>835</ele>
        <time>2020-10-28T09:14:57.815Z</time>
      </trkpt>
      <trkpt lat="48.06152" lon="6.83757">
        <ele>836</ele>
        <time>2020-10-28T09:14:58.815Z</time>
      </trkpt>
      <trkpt lat="48.06151" lon="6.83757">
        <ele>837</ele>
        <time>2020-10-28T09:14:59.816Z</time>
      </trkpt>
      <trkpt lat="48.0615" lon="6.83764">
        <ele>840</ele>
        <time>2020-10-28T09:15:00.817Z</time>
      </trkpt>
      <trkpt lat="48.06149" lon="6.83764">
        <ele>841</ele>
        <time>2020-10-28T09:15:01.816Z</time>
      </trkpt>
      <trkpt lat="48.06148" lon="6.83764">
        <ele>841</ele>
        <time>2020-10-28T09:15:02.817Z</time>
      </trkpt>
      <trkpt lat="48.06147" lon="6.83763">
        <ele>841</ele>
        <time>2020-10-28T09:15:03.817Z</time>
      </trkpt>
      <trkpt lat="48.06146" lon="6.83762">
        <ele>841</ele>
        <time>2020-10-28T09:15:04.817Z</time>
      </trkpt>
      <trkpt lat="48.06146" lon="6.83761">
        <ele>841</ele>
        <time>2020-10-28T09:15:05.817Z</time>
      </trkpt>
      <trkpt lat="48.06146" lon="6.83759">
        <ele>841</ele>
        <time>2020-10-28T09:15:06.817Z</time>
      </trkpt>
      <trkpt lat="48.06147" lon="6.83758">
        <ele>840</ele>
        <time>2020-10-28T09:15:07.816Z</time>
      </trkpt>
      <trkpt lat="48.06147" lon="6.83757">
        <ele>840</ele>
        <time>2020-10-28T09:15:08.817Z</time>
      </trkpt>
      <trkpt lat="48.06146" lon="6.83754">
        <ele>839</ele>
        <time>2020-10-28T09:15:09.818Z</time>
      </trkpt>
      <trkpt lat="48.06146" lon="6.83753">
        <ele>838</ele>
        <time>2020-10-28T09:15:10.818Z</time>
      </trkpt>
      <trkpt lat="48.06146" lon="6.83751">
        <ele>838</ele>
        <time>2020-10-28T09:15:11.817Z</time>
      </trkpt>
      <trkpt lat="48.06145" lon="6.83757">
        <ele>841</ele>
        <time>2020-10-28T09:15:12.818Z</time>
      </trkpt>
      <trkpt lat="48.06145" lon="6.83757">
        <ele>841</ele>
        <time>2020-10-28T09:15:13.819Z</time>
      </trkpt>
      <trkpt lat="48.06146" lon="6.83758">
        <ele>841</ele>
        <time>2020-10-28T09:15:14.819Z</time>
      </trkpt>
      <trkpt lat="48.06147" lon="6.83759">
        <ele>840</ele>
        <time>2020-10-28T09:15:15.818Z</time>
      </trkpt>
      <trkpt lat="48.06147" lon="6.83759">
        <ele>840</ele>
        <time>2020-10-28T09:15:16.818Z</time>
      </trkpt>
      <trkpt lat="48.06148" lon="6.83758">
        <ele>840</ele>
        <time>2020-10-28T09:15:17.818Z</time>
      </trkpt>
      <trkpt lat="48.06149" lon="6.83759">
        <ele>840</ele>
        <time>2020-10-28T09:15:18.818Z</time>
      </trkpt>
      <trkpt lat="48.06149" lon="6.83761">
        <ele>839</ele>
        <time>2020-10-28T09:15:19.819Z</time>
      </trkpt>
      <trkpt lat="48.06149" lon="6.83762">
        <ele>839</ele>
        <time>2020-10-28T09:15:20.818Z</time>
      </trkpt>
      <trkpt lat="48.06148" lon="6.83764">
        <ele>839</ele>
        <time>2020-10-28T09:15:21.819Z</time>
      </trkpt>
      <trkpt lat="48.06145" lon="6.83765">
        <ele>834</ele>
        <time>2020-10-28T09:15:22.820Z</time>
      </trkpt>
      <trkpt lat="48.06144" lon="6.83763">
        <ele>835</ele>
        <time>2020-10-28T09:15:23.820Z</time>
      </trkpt>
      <trkpt lat="48.06143" lon="6.83761">
        <ele>835</ele>
        <time>2020-10-28T09:15:24.819Z</time>
      </trkpt>
      <trkpt lat="48.06142" lon="6.83759">
        <ele>835</ele>
        <time>2020-10-28T09:15:25.820Z</time>
      </trkpt>
      <trkpt lat="48.06141" lon="6.83757">
        <ele>835</ele>
        <time>2020-10-28T09:15:26.820Z</time>
      </trkpt>
      <trkpt lat="48.06138" lon="6.83755">
        <ele>835</ele>
        <time>2020-10-28T09:15:27.820Z</time>
      </trkpt>
      <trkpt lat="48.06136" lon="6.83753">
        <ele>835</ele>
        <time>2020-10-28T09:15:28.820Z</time>
      </trkpt>
      <trkpt lat="48.06136" lon="6.83754">
        <ele>836</ele>
        <time>2020-10-28T09:15:29.820Z</time>
      </trkpt>
      <trkpt lat="48.06136" lon="6.83754">
        <ele>836</ele>
        <time>2020-10-28T09:15:30.820Z</time>
      </trkpt>
      <trkpt lat="48.06136" lon="6.83755">
        <ele>836</ele>
        <time>2020-10-28T09:15:31.820Z</time>
      </trkpt>
      <trkpt lat="48.06136" lon="6.83757">
        <ele>836</ele>
        <time>2020-10-28T09:15:32.820Z</time>
      </trkpt>
      <trkpt lat="48.06135" lon="6.83757">
        <ele>836</ele>
        <time>2020-10-28T09:15:33.820Z</time>
      </trkpt>
      <trkpt lat="48.06134" lon="6.83757">
        <ele>836</ele>
        <time>2020-10-28T09:15:34.820Z</time>
      </trkpt>
      <trkpt lat="48.06134" lon="6.83757">
        <ele>836</ele>
        <time>2020-10-28T09:15:35.820Z</time>
      </trkpt>
      <trkpt lat="48.06131" lon="6.83756">
        <ele>835</ele>
        <time>2020-10-28T09:15:36.821Z</time>
      </trkpt>
      <trkpt lat="48.06131" lon="6.83754">
        <ele>834</ele>
        <time>2020-10-28T09:15:37.821Z</time>
      </trkpt>
      <trkpt lat="48.06131" lon="6.83753">
        <ele>834</ele>
        <time>2020-10-28T09:15:38.820Z</time>
      </trkpt>
      <trkpt lat="48.06131" lon="6.83751">
        <ele>833</ele>
        <time>2020-10-28T09:15:39.821Z</time>
      </trkpt>
      <trkpt lat="48.06131" lon="6.83749">
        <ele>833</ele>
        <time>2020-10-28T09:15:40.821Z</time>
      </trkpt>
      <trkpt lat="48.06131" lon="6.83748">
        <ele>832</ele>
        <time>2020-10-28T09:15:41.821Z</time>
      </trkpt>
      <trkpt lat="48.06131" lon="6.83747">
        <ele>832</ele>
        <time>2020-10-28T09:15:42.820Z</time>
      </trkpt>
      <trkpt lat="48.06131" lon="6.83747">
        <ele>832</ele>
        <time>2020-10-28T09:15:43.821Z</time>
      </trkpt>
      <trkpt lat="48.06131" lon="6.83745">
        <ele>832</ele>
        <time>2020-10-28T09:15:44.821Z</time>
      </trkpt>
      <trkpt lat="48.06131" lon="6.83744">
        <ele>832</ele>
        <time>2020-10-28T09:15:45.820Z</time>
      </trkpt>
      <trkpt lat="48.06131" lon="6.83742">
        <ele>832</ele>
        <time>2020-10-28T09:15:46.820Z</time>
      </trkpt>
      <trkpt lat="48.06131" lon="6.83741">
        <ele>833</ele>
        <time>2020-10-28T09:15:47.821Z</time>
      </trkpt>
      <trkpt lat="48.06131" lon="6.8374">
        <ele>833</ele>
        <time>2020-10-28T09:15:48.820Z</time>
      </trkpt>
      <trkpt lat="48.06131" lon="6.83738">
        <ele>834</ele>
        <time>2020-10-28T09:15:49.820Z</time>
      </trkpt>
      <trkpt lat="48.06131" lon="6.83736">
        <ele>835</ele>
        <time>2020-10-28T09:15:50.820Z</time>
      </trkpt>
      <trkpt lat="48.0613" lon="6.83733">
        <ele>836</ele>
        <time>2020-10-28T09:15:51.820Z</time>
      </trkpt>
      <trkpt lat="48.06129" lon="6.8373">
        <ele>836</ele>
        <time>2020-10-28T09:15:52.821Z</time>
      </trkpt>
      <trkpt lat="48.06128" lon="6.83727">
        <ele>837</ele>
        <time>2020-10-28T09:15:53.821Z</time>
      </trkpt>
      <trkpt lat="48.06128" lon="6.83725">
        <ele>838</ele>
        <time>2020-10-28T09:15:54.820Z</time>
      </trkpt>
      <trkpt lat="48.06128" lon="6.83726">
        <ele>838</ele>
        <time>2020-10-28T09:15:55.820Z</time>
      </trkpt>
      <trkpt lat="48.06127" lon="6.83726">
        <ele>839</ele>
        <time>2020-10-28T09:15:56.820Z</time>
      </trkpt>
      <trkpt lat="48.06127" lon="6.83725">
        <ele>840</ele>
        <time>2020-10-28T09:15:57.821Z</time>
      </trkpt>
      <trkpt lat="48.06125" lon="6.83725">
        <ele>841</ele>
        <time>2020-10-28T09:15:58.821Z</time>
      </trkpt>
      <trkpt lat="48.06124" lon="6.83725">
        <ele>841</ele>
        <time>2020-10-28T09:15:59.821Z</time>
      </trkpt>
      <trkpt lat="48.06124" lon="6.83725">
        <ele>841</ele>
        <time>2020-10-28T09:16:00.821Z</time>
      </trkpt>
      <trkpt lat="48.06123" lon="6.83725">
        <ele>842</ele>
        <time>2020-10-28T09:16:01.821Z</time>
      </trkpt>
      <trkpt lat="48.06122" lon="6.83724">
        <ele>842</ele>
        <time>2020-10-28T09:16:02.822Z</time>
      </trkpt>
      <trkpt lat="48.06121" lon="6.83724">
        <ele>843</ele>
        <time>2020-10-28T09:16:03.822Z</time>
      </trkpt>
      <trkpt lat="48.06121" lon="6.83724">
        <ele>843</ele>
        <time>2020-10-28T09:16:04.822Z</time>
      </trkpt>
      <trkpt lat="48.0612" lon="6.83724">
        <ele>844</ele>
        <time>2020-10-28T09:16:05.821Z</time>
      </trkpt>
      <trkpt lat="48.06119" lon="6.83723">
        <ele>844</ele>
        <time>2020-10-28T09:16:06.822Z</time>
      </trkpt>
      <trkpt lat="48.06118" lon="6.83723">
        <ele>845</ele>
        <time>2020-10-28T09:16:07.822Z</time>
      </trkpt>
      <trkpt lat="48.06118" lon="6.83723">
        <ele>846</ele>
        <time>2020-10-28T09:16:08.821Z</time>
      </trkpt>
      <trkpt lat="48.06117" lon="6.83723">
        <ele>846</ele>
        <time>2020-10-28T09:16:09.822Z</time>
      </trkpt>
      <trkpt lat="48.06116" lon="6.83724">
        <ele>847</ele>
        <time>2020-10-28T09:16:10.822Z</time>
      </trkpt>
      <trkpt lat="48.06115" lon="6.83725">
        <ele>847</ele>
        <time>2020-10-28T09:16:11.822Z</time>
      </trkpt>
      <trkpt lat="48.06114" lon="6.83726">
        <ele>847</ele>
        <time>2020-10-28T09:16:12.822Z</time>
      </trkpt>
      <trkpt lat="48.06113" lon="6.83725">
        <ele>847</ele>
        <time>2020-10-28T09:16:13.822Z</time>
      </trkpt>
      <trkpt lat="48.06112" lon="6.83725">
        <ele>847</ele>
        <time>2020-10-28T09:16:14.822Z</time>
      </trkpt>
      <trkpt lat="48.06111" lon="6.83726">
        <ele>848</ele>
        <time>2020-10-28T09:16:15.822Z</time>
      </trkpt>
      <trkpt lat="48.0611" lon="6.83728">
        <ele>847</ele>
        <time>2020-10-28T09:16:16.822Z</time>
      </trkpt>
      <trkpt lat="48.0611" lon="6.83728">
        <ele>848</ele>
        <time>2020-10-28T09:16:17.821Z</time>
      </trkpt>
      <trkpt lat="48.0611" lon="6.83729">
        <ele>847</ele>
        <time>2020-10-28T09:16:18.822Z</time>
      </trkpt>
      <trkpt lat="48.06111" lon="6.8373">
        <ele>846</ele>
        <time>2020-10-28T09:16:19.822Z</time>
      </trkpt>
      <trkpt lat="48.0611" lon="6.8373">
        <ele>845</ele>
        <time>2020-10-28T09:16:20.822Z</time>
      </trkpt>
      <trkpt lat="48.0611" lon="6.8373">
        <ele>843</ele>
        <time>2020-10-28T09:16:21.822Z</time>
      </trkpt>
      <trkpt lat="48.06108" lon="6.83732">
        <ele>841</ele>
        <time>2020-10-28T09:16:22.822Z</time>
      </trkpt>
      <trkpt lat="48.06107" lon="6.83732">
        <ele>840</ele>
        <time>2020-10-28T09:16:23.821Z</time>
      </trkpt>
      <trkpt lat="48.06106" lon="6.83733">
        <ele>838</ele>
        <time>2020-10-28T09:16:24.822Z</time>
      </trkpt>
      <trkpt lat="48.06105" lon="6.83733">
        <ele>837</ele>
        <time>2020-10-28T09:16:25.822Z</time>
      </trkpt>
      <trkpt lat="48.06104" lon="6.83734">
        <ele>836</ele>
        <time>2020-10-28T09:16:26.821Z</time>
      </trkpt>
      <trkpt lat="48.06103" lon="6.83734">
        <ele>835</ele>
        <time>2020-10-28T09:16:27.822Z</time>
      </trkpt>
      <trkpt lat="48.06102" lon="6.83735">
        <ele>834</ele>
        <time>2020-10-28T09:16:28.822Z</time>
      </trkpt>
      <trkpt lat="48.06101" lon="6.83735">
        <ele>834</ele>
        <time>2020-10-28T09:16:29.822Z</time>
      </trkpt>
      <trkpt lat="48.061" lon="6.83736">
        <ele>833</ele>
        <time>2020-10-28T09:16:30.822Z</time>
      </trkpt>
      <trkpt lat="48.06099" lon="6.83736">
        <ele>833</ele>
        <time>2020-10-28T09:16:31.822Z</time>
      </trkpt>
      <trkpt lat="48.06098" lon="6.83736">
        <ele>832</ele>
        <time>2020-10-28T09:16:32.821Z</time>
      </trkpt>
      <trkpt lat="48.06097" lon="6.83736">
        <ele>832</ele>
        <time>2020-10-28T09:16:33.821Z</time>
      </trkpt>
      <trkpt lat="48.06096" lon="6.83737">
        <ele>832</ele>
        <time>2020-10-28T09:16:34.821Z</time>
      </trkpt>
      <trkpt lat="48.06094" lon="6.83738">
        <ele>833</ele>
        <time>2020-10-28T09:16:35.822Z</time>
      </trkpt>
      <trkpt lat="48.06093" lon="6.83738">
        <ele>833</ele>
        <time>2020-10-28T09:16:36.822Z</time>
      </trkpt>
      <trkpt lat="48.06093" lon="6.8374">
        <ele>834</ele>
        <time>2020-10-28T09:16:37.822Z</time>
      </trkpt>
      <trkpt lat="48.06092" lon="6.83741">
        <ele>834</ele>
        <time>2020-10-28T09:16:38.822Z</time>
      </trkpt>
      <trkpt lat="48.06091" lon="6.83742">
        <ele>834</ele>
        <time>2020-10-28T09:16:39.822Z</time>
      </trkpt>
      <trkpt lat="48.0609" lon="6.83744">
        <ele>835</ele>
        <time>2020-10-28T09:16:40.821Z</time>
      </trkpt>
      <trkpt lat="48.06089" lon="6.83745">
        <ele>835</ele>
        <time>2020-10-28T09:16:41.822Z</time>
      </trkpt>
      <trkpt lat="48.06088" lon="6.83745">
        <ele>836</ele>
        <time>2020-10-28T09:16:42.822Z</time>
      </trkpt>
      <trkpt lat="48.06088" lon="6.83745">
        <ele>836</ele>
        <time>2020-10-28T09:16:43.822Z</time>
      </trkpt>
      <trkpt lat="48.06087" lon="6.83746">
        <ele>837</ele>
        <time>2020-10-28T09:16:44.822Z</time>
      </trkpt>
      <trkpt lat="48.06086" lon="6.83747">
        <ele>837</ele>
        <time>2020-10-28T09:16:45.821Z</time>
      </trkpt>
      <trkpt lat="48.06085" lon="6.83748">
        <ele>838</ele>
        <time>2020-10-28T09:16:46.822Z</time>
      </trkpt>
      <trkpt lat="48.06084" lon="6.83749">
        <ele>838</ele>
        <time>2020-10-28T09:16:47.822Z</time>
      </trkpt>
      <trkpt lat="48.06082" lon="6.8375">
        <ele>839</ele>
        <time>2020-10-28T09:16:48.822Z</time>
      </trkpt>
      <trkpt lat="48.06081" lon="6.8375">
        <ele>839</ele>
        <time>2020-10-28T09:16:49.822Z</time>
      </trkpt>
      <trkpt lat="48.06079" lon="6.83751">
        <ele>839</ele>
        <time>2020-10-28T09:16:50.822Z</time>
      </trkpt>
      <trkpt lat="48.06079" lon="6.83752">
        <ele>840</ele>
        <time>2020-10-28T09:16:51.821Z</time>
      </trkpt>
      <trkpt lat="48.06078" lon="6.83754">
        <ele>840</ele>
        <time>2020-10-28T09:16:52.822Z</time>
      </trkpt>
      <trkpt lat="48.06077" lon="6.83755">
        <ele>840</ele>
        <time>2020-10-28T09:16:53.821Z</time>
      </trkpt>
      <trkpt lat="48.06075" lon="6.83755">
        <ele>841</ele>
        <time>2020-10-28T09:16:54.822Z</time>
      </trkpt>
      <trkpt lat="48.06074" lon="6.83756">
        <ele>841</ele>
        <time>2020-10-28T09:16:55.822Z</time>
      </trkpt>
      <trkpt lat="48.06073" lon="6.83758">
        <ele>841</ele>
        <time>2020-10-28T09:16:56.822Z</time>
      </trkpt>
      <trkpt lat="48.06072" lon="6.83758">
        <ele>842</ele>
        <time>2020-10-28T09:16:57.822Z</time>
      </trkpt>
      <trkpt lat="48.06071" lon="6.83759">
        <ele>842</ele>
        <time>2020-10-28T09:16:58.822Z</time>
      </trkpt>
      <trkpt lat="48.06071" lon="6.8376">
        <ele>842</ele>
        <time>2020-10-28T09:16:59.822Z</time>
      </trkpt>
      <trkpt lat="48.0607" lon="6.83761">
        <ele>843</ele>
        <time>2020-10-28T09:17:00.822Z</time>
      </trkpt>
      <trkpt lat="48.06069" lon="6.83762">
        <ele>843</ele>
        <time>2020-10-28T09:17:01.822Z</time>
      </trkpt>
      <trkpt lat="48.06068" lon="6.83763">
        <ele>844</ele>
        <time>2020-10-28T09:17:02.822Z</time>
      </trkpt>
      <trkpt lat="48.06068" lon="6.83764">
        <ele>845</ele>
        <time>2020-10-28T09:17:03.822Z</time>
      </trkpt>
      <trkpt lat="48.06067" lon="6.83764">
        <ele>846</ele>
        <time>2020-10-28T09:17:04.821Z</time>
      </trkpt>
      <trkpt lat="48.06066" lon="6.83766">
        <ele>846</ele>
        <time>2020-10-28T09:17:05.821Z</time>
      </trkpt>
      <trkpt lat="48.06065" lon="6.83766">
        <ele>847</ele>
        <time>2020-10-28T09:17:06.822Z</time>
      </trkpt>
      <trkpt lat="48.06064" lon="6.83766">
        <ele>847</ele>
        <time>2020-10-28T09:17:07.821Z</time>
      </trkpt>
      <trkpt lat="48.06063" lon="6.83766">
        <ele>847</ele>
        <time>2020-10-28T09:17:08.821Z</time>
      </trkpt>
      <trkpt lat="48.06062" lon="6.83767">
        <ele>847</ele>
        <time>2020-10-28T09:17:09.822Z</time>
      </trkpt>
      <trkpt lat="48.06061" lon="6.83765">
        <ele>847</ele>
        <time>2020-10-28T09:17:10.821Z</time>
      </trkpt>
      <trkpt lat="48.0606" lon="6.83765">
        <ele>848</ele>
        <time>2020-10-28T09:17:11.822Z</time>
      </trkpt>
      <trkpt lat="48.06059" lon="6.83765">
        <ele>848</ele>
        <time>2020-10-28T09:17:12.822Z</time>
      </trkpt>
      <trkpt lat="48.06057" lon="6.83766">
        <ele>849</ele>
        <time>2020-10-28T09:17:13.822Z</time>
      </trkpt>
      <trkpt lat="48.06056" lon="6.83766">
        <ele>849</ele>
        <time>2020-10-28T09:17:14.822Z</time>
      </trkpt>
      <trkpt lat="48.06055" lon="6.83766">
        <ele>850</ele>
        <time>2020-10-28T09:17:15.822Z</time>
      </trkpt>
      <trkpt lat="48.06053" lon="6.83766">
        <ele>850</ele>
        <time>2020-10-28T09:17:16.822Z</time>
      </trkpt>
      <trkpt lat="48.06052" lon="6.83766">
        <ele>850</ele>
        <time>2020-10-28T09:17:17.821Z</time>
      </trkpt>
      <trkpt lat="48.06052" lon="6.83766">
        <ele>851</ele>
        <time>2020-10-28T09:17:18.822Z</time>
      </trkpt>
      <trkpt lat="48.06052" lon="6.83766">
        <ele>851</ele>
        <time>2020-10-28T09:17:19.822Z</time>
      </trkpt>
      <trkpt lat="48.06051" lon="6.83767">
        <ele>852</ele>
        <time>2020-10-28T09:17:20.822Z</time>
      </trkpt>
      <trkpt lat="48.06051" lon="6.83767">
        <ele>853</ele>
        <time>2020-10-28T09:17:21.822Z</time>
      </trkpt>
      <trkpt lat="48.0605" lon="6.83767">
        <ele>853</ele>
        <time>2020-10-28T09:17:22.822Z</time>
      </trkpt>
      <trkpt lat="48.0605" lon="6.83768">
        <ele>853</ele>
        <time>2020-10-28T09:17:23.822Z</time>
      </trkpt>
      <trkpt lat="48.06049" lon="6.83769">
        <ele>853</ele>
        <time>2020-10-28T09:17:24.822Z</time>
      </trkpt>
      <trkpt lat="48.06048" lon="6.83768">
        <ele>854</ele>
        <time>2020-10-28T09:17:25.822Z</time>
      </trkpt>
      <trkpt lat="48.06048" lon="6.83768">
        <ele>854</ele>
        <time>2020-10-28T09:17:26.822Z</time>
      </trkpt>
      <trkpt lat="48.06047" lon="6.83769">
        <ele>855</ele>
        <time>2020-10-28T09:17:27.822Z</time>
      </trkpt>
      <trkpt lat="48.06046" lon="6.83769">
        <ele>856</ele>
        <time>2020-10-28T09:17:28.822Z</time>
      </trkpt>
      <trkpt lat="48.06044" lon="6.83768">
        <ele>856</ele>
        <time>2020-10-28T09:17:29.822Z</time>
      </trkpt>
      <trkpt lat="48.06043" lon="6.83768">
        <ele>857</ele>
        <time>2020-10-28T09:17:30.822Z</time>
      </trkpt>
      <trkpt lat="48.06041" lon="6.83767">
        <ele>857</ele>
        <time>2020-10-28T09:17:31.821Z</time>
      </trkpt>
      <trkpt lat="48.06041" lon="6.83768">
        <ele>858</ele>
        <time>2020-10-28T09:17:32.822Z</time>
      </trkpt>
      <trkpt lat="48.06039" lon="6.83768">
        <ele>858</ele>
        <time>2020-10-28T09:17:33.822Z</time>
      </trkpt>
      <trkpt lat="48.06038" lon="6.83769">
        <ele>859</ele>
        <time>2020-10-28T09:17:34.822Z</time>
      </trkpt>
      <trkpt lat="48.06036" lon="6.83769">
        <ele>859</ele>
        <time>2020-10-28T09:17:35.822Z</time>
      </trkpt>
      <trkpt lat="48.06034" lon="6.83769">
        <ele>859</ele>
        <time>2020-10-28T09:17:36.822Z</time>
      </trkpt>
      <trkpt lat="48.06033" lon="6.83769">
        <ele>860</ele>
        <time>2020-10-28T09:17:37.822Z</time>
      </trkpt>
      <trkpt lat="48.06032" lon="6.83769">
        <ele>860</ele>
        <time>2020-10-28T09:17:38.822Z</time>
      </trkpt>
      <trkpt lat="48.06031" lon="6.83769">
        <ele>860</ele>
        <time>2020-10-28T09:17:39.822Z</time>
      </trkpt>
      <trkpt lat="48.06029" lon="6.8377">
        <ele>860</ele>
        <time>2020-10-28T09:17:40.822Z</time>
      </trkpt>
      <trkpt lat="48.06029" lon="6.83771">
        <ele>861</ele>
        <time>2020-10-28T09:17:41.822Z</time>
      </trkpt>
      <trkpt lat="48.06028" lon="6.83773">
        <ele>861</ele>
        <time>2020-10-28T09:17:42.821Z</time>
      </trkpt>
      <trkpt lat="48.06027" lon="6.83773">
        <ele>862</ele>
        <time>2020-10-28T09:17:43.821Z</time>
      </trkpt>
      <trkpt lat="48.06026" lon="6.83773">
        <ele>862</ele>
        <time>2020-10-28T09:17:44.822Z</time>
      </trkpt>
      <trkpt lat="48.06026" lon="6.83773">
        <ele>863</ele>
        <time>2020-10-28T09:17:45.822Z</time>
      </trkpt>
      <trkpt lat="48.06026" lon="6.83773">
        <ele>863</ele>
        <time>2020-10-28T09:17:46.822Z</time>
      </trkpt>
      <trkpt lat="48.06026" lon="6.83774">
        <ele>864</ele>
        <time>2020-10-28T09:17:47.822Z</time>
      </trkpt>
      <trkpt lat="48.06027" lon="6.83775">
        <ele>864</ele>
        <time>2020-10-28T09:17:48.822Z</time>
      </trkpt>
      <trkpt lat="48.06027" lon="6.83776">
        <ele>865</ele>
        <time>2020-10-28T09:17:49.822Z</time>
      </trkpt>
      <trkpt lat="48.06027" lon="6.83776">
        <ele>865</ele>
        <time>2020-10-28T09:17:50.822Z</time>
      </trkpt>
      <trkpt lat="48.06028" lon="6.83776">
        <ele>865</ele>
        <time>2020-10-28T09:17:51.822Z</time>
      </trkpt>
      <trkpt lat="48.06028" lon="6.83776">
        <ele>865</ele>
        <time>2020-10-28T09:17:52.821Z</time>
      </trkpt>
      <trkpt lat="48.06028" lon="6.83775">
        <ele>865</ele>
        <time>2020-10-28T09:17:53.822Z</time>
      </trkpt>
      <trkpt lat="48.06028" lon="6.83775">
        <ele>865</ele>
        <time>2020-10-28T09:17:54.822Z</time>
      </trkpt>
      <trkpt lat="48.06028" lon="6.83776">
        <ele>863</ele>
        <time>2020-10-28T09:17:55.822Z</time>
      </trkpt>
      <trkpt lat="48.06025" lon="6.83781">
        <ele>869</ele>
        <time>2020-10-28T09:17:56.822Z</time>
      </trkpt>
      <trkpt lat="48.06026" lon="6.83781">
        <ele>869</ele>
        <time>2020-10-28T09:17:57.823Z</time>
      </trkpt>
      <trkpt lat="48.06026" lon="6.83781">
        <ele>869</ele>
        <time>2020-10-28T09:17:58.822Z</time>
      </trkpt>
      <trkpt lat="48.06026" lon="6.83781">
        <ele>868</ele>
        <time>2020-10-28T09:17:59.823Z</time>
      </trkpt>
      <trkpt lat="48.06026" lon="6.83781">
        <ele>868</ele>
        <time>2020-10-28T09:18:00.823Z</time>
      </trkpt>
      <trkpt lat="48.06026" lon="6.83781">
        <ele>868</ele>
        <time>2020-10-28T09:18:01.824Z</time>
      </trkpt>
      <trkpt lat="48.06026" lon="6.83782">
        <ele>868</ele>
        <time>2020-10-28T09:18:02.824Z</time>
      </trkpt>
      <trkpt lat="48.06026" lon="6.83782">
        <ele>867</ele>
        <time>2020-10-28T09:18:03.824Z</time>
      </trkpt>
      <trkpt lat="48.06027" lon="6.83782">
        <ele>867</ele>
        <time>2020-10-28T09:18:04.824Z</time>
      </trkpt>
      <trkpt lat="48.06028" lon="6.83781">
        <ele>866</ele>
        <time>2020-10-28T09:18:05.824Z</time>
      </trkpt>
      <trkpt lat="48.06028" lon="6.83782">
        <ele>865</ele>
        <time>2020-10-28T09:18:06.823Z</time>
      </trkpt>
      <trkpt lat="48.06028" lon="6.83783">
        <ele>865</ele>
        <time>2020-10-28T09:18:07.823Z</time>
      </trkpt>
      <trkpt lat="48.06029" lon="6.83783">
        <ele>864</ele>
        <time>2020-10-28T09:18:08.823Z</time>
      </trkpt>
      <trkpt lat="48.06029" lon="6.83783">
        <ele>863</ele>
        <time>2020-10-28T09:18:09.823Z</time>
      </trkpt>
      <trkpt lat="48.06029" lon="6.83783">
        <ele>863</ele>
        <time>2020-10-28T09:18:10.823Z</time>
      </trkpt>
      <trkpt lat="48.0603" lon="6.83785">
        <ele>859</ele>
        <time>2020-10-28T09:18:11.824Z</time>
      </trkpt>
      <trkpt lat="48.0603" lon="6.83786">
        <ele>859</ele>
        <time>2020-10-28T09:18:12.823Z</time>
      </trkpt>
      <trkpt lat="48.0603" lon="6.83787">
        <ele>859</ele>
        <time>2020-10-28T09:18:13.824Z</time>
      </trkpt>
      <trkpt lat="48.0603" lon="6.83787">
        <ele>858</ele>
        <time>2020-10-28T09:18:14.824Z</time>
      </trkpt>
      <trkpt lat="48.06024" lon="6.83791">
        <ele>857</ele>
        <time>2020-10-28T09:18:15.823Z</time>
      </trkpt>
      <trkpt lat="48.06024" lon="6.83791">
        <ele>861</ele>
        <time>2020-10-28T09:18:16.824Z</time>
      </trkpt>
      <trkpt lat="48.06024" lon="6.83791">
        <ele>861</ele>
        <time>2020-10-28T09:18:17.824Z</time>
      </trkpt>
      <trkpt lat="48.06024" lon="6.83791">
        <ele>861</ele>
        <time>2020-10-28T09:18:18.823Z</time>
      </trkpt>
      <trkpt lat="48.06023" lon="6.8379">
        <ele>861</ele>
        <time>2020-10-28T09:18:19.823Z</time>
      </trkpt>
      <trkpt lat="48.06023" lon="6.8379">
        <ele>861</ele>
        <time>2020-10-28T09:18:20.824Z</time>
      </trkpt>
      <trkpt lat="48.06022" lon="6.83789">
        <ele>860</ele>
        <time>2020-10-28T09:18:21.823Z</time>
      </trkpt>
      <trkpt lat="48.06021" lon="6.83788">
        <ele>860</ele>
        <time>2020-10-28T09:18:22.824Z</time>
      </trkpt>
      <trkpt lat="48.06021" lon="6.83787">
        <ele>860</ele>
        <time>2020-10-28T09:18:23.824Z</time>
      </trkpt>
      <trkpt lat="48.0602" lon="6.83787">
        <ele>860</ele>
        <time>2020-10-28T09:18:24.824Z</time>
      </trkpt>
      <trkpt lat="48.0602" lon="6.83786">
        <ele>860</ele>
        <time>2020-10-28T09:18:25.823Z</time>
      </trkpt>
      <trkpt lat="48.0602" lon="6.83786">
        <ele>859</ele>
        <time>2020-10-28T09:18:26.824Z</time>
      </trkpt>
      <trkpt lat="48.0602" lon="6.83786">
        <ele>859</ele>
        <time>2020-10-28T09:18:27.824Z</time>
      </trkpt>
      <trkpt lat="48.06019" lon="6.83787">
        <ele>859</ele>
        <time>2020-10-28T09:18:28.824Z</time>
      </trkpt>
      <trkpt lat="48.06019" lon="6.83788">
        <ele>858</ele>
        <time>2020-10-28T09:18:29.824Z</time>
      </trkpt>
      <trkpt lat="48.06019" lon="6.8379">
        <ele>858</ele>
        <time>2020-10-28T09:18:30.825Z</time>
      </trkpt>
      <trkpt lat="48.0602" lon="6.83792">
        <ele>858</ele>
        <time>2020-10-28T09:18:31.824Z</time>
      </trkpt>
      <trkpt lat="48.06021" lon="6.83794">
        <ele>858</ele>
        <time>2020-10-28T09:18:32.825Z</time>
      </trkpt>
      <trkpt lat="48.06021" lon="6.83794">
        <ele>859</ele>
        <time>2020-10-28T09:18:33.825Z</time>
      </trkpt>
      <trkpt lat="48.06022" lon="6.83795">
        <ele>859</ele>
        <time>2020-10-28T09:18:34.825Z</time>
      </trkpt>
      <trkpt lat="48.06023" lon="6.83796">
        <ele>859</ele>
        <time>2020-10-28T09:18:35.825Z</time>
      </trkpt>
      <trkpt lat="48.06024" lon="6.83797">
        <ele>860</ele>
        <time>2020-10-28T09:18:36.824Z</time>
      </trkpt>
      <trkpt lat="48.06024" lon="6.83797">
        <ele>860</ele>
        <time>2020-10-28T09:18:37.825Z</time>
      </trkpt>
      <trkpt lat="48.06027" lon="6.83798">
        <ele>860</ele>
        <time>2020-10-28T09:18:38.826Z</time>
      </trkpt>
      <trkpt lat="48.06027" lon="6.83799">
        <ele>860</ele>
        <time>2020-10-28T09:18:39.826Z</time>
      </trkpt>
      <trkpt lat="48.06027" lon="6.83801">
        <ele>861</ele>
        <time>2020-10-28T09:18:40.826Z</time>
      </trkpt>
      <trkpt lat="48.06026" lon="6.83803">
        <ele>861</ele>
        <time>2020-10-28T09:18:41.826Z</time>
      </trkpt>
      <trkpt lat="48.06026" lon="6.83804">
        <ele>862</ele>
        <time>2020-10-28T09:18:42.826Z</time>
      </trkpt>
      <trkpt lat="48.06025" lon="6.83806">
        <ele>862</ele>
        <time>2020-10-28T09:18:43.825Z</time>
      </trkpt>
      <trkpt lat="48.06025" lon="6.83807">
        <ele>863</ele>
        <time>2020-10-28T09:18:44.825Z</time>
      </trkpt>
      <trkpt lat="48.06025" lon="6.83808">
        <ele>863</ele>
        <time>2020-10-28T09:18:45.826Z</time>
      </trkpt>
      <trkpt lat="48.06025" lon="6.83809">
        <ele>863</ele>
        <time>2020-10-28T09:18:46.825Z</time>
      </trkpt>
      <trkpt lat="48.06024" lon="6.83809">
        <ele>863</ele>
        <time>2020-10-28T09:18:47.826Z</time>
      </trkpt>
      <trkpt lat="48.06024" lon="6.8381">
        <ele>863</ele>
        <time>2020-10-28T09:18:48.826Z</time>
      </trkpt>
      <trkpt lat="48.06024" lon="6.83811">
        <ele>863</ele>
        <time>2020-10-28T09:18:49.825Z</time>
      </trkpt>
      <trkpt lat="48.06024" lon="6.83812">
        <ele>863</ele>
        <time>2020-10-28T09:18:50.826Z</time>
      </trkpt>
      <trkpt lat="48.06024" lon="6.83813">
        <ele>862</ele>
        <time>2020-10-28T09:18:51.826Z</time>
      </trkpt>
      <trkpt lat="48.06024" lon="6.83813">
        <ele>862</ele>
        <time>2020-10-28T09:18:52.826Z</time>
      </trkpt>
      <trkpt lat="48.06024" lon="6.83813">
        <ele>862</ele>
        <time>2020-10-28T09:18:53.826Z</time>
      </trkpt>
      <trkpt lat="48.06023" lon="6.83814">
        <ele>861</ele>
        <time>2020-10-28T09:18:54.825Z</time>
      </trkpt>
      <trkpt lat="48.06023" lon="6.83815">
        <ele>861</ele>
        <time>2020-10-28T09:18:55.825Z</time>
      </trkpt>
      <trkpt lat="48.06022" lon="6.83815">
        <ele>860</ele>
        <time>2020-10-28T09:18:56.826Z</time>
      </trkpt>
      <trkpt lat="48.06022" lon="6.83817">
        <ele>859</ele>
        <time>2020-10-28T09:18:57.825Z</time>
      </trkpt>
      <trkpt lat="48.06022" lon="6.83818">
        <ele>859</ele>
        <time>2020-10-28T09:18:58.825Z</time>
      </trkpt>
      <trkpt lat="48.06022" lon="6.83818">
        <ele>858</ele>
        <time>2020-10-28T09:18:59.826Z</time>
      </trkpt>
      <trkpt lat="48.06021" lon="6.83819">
        <ele>858</ele>
        <time>2020-10-28T09:19:00.825Z</time>
      </trkpt>
      <trkpt lat="48.06021" lon="6.83819">
        <ele>857</ele>
        <time>2020-10-28T09:19:01.826Z</time>
      </trkpt>
      <trkpt lat="48.0602" lon="6.8382">
        <ele>857</ele>
        <time>2020-10-28T09:19:02.825Z</time>
      </trkpt>
      <trkpt lat="48.06019" lon="6.83821">
        <ele>857</ele>
        <time>2020-10-28T09:19:03.825Z</time>
      </trkpt>
      <trkpt lat="48.06019" lon="6.83822">
        <ele>857</ele>
        <time>2020-10-28T09:19:04.825Z</time>
      </trkpt>
      <trkpt lat="48.06018" lon="6.83822">
        <ele>857</ele>
        <time>2020-10-28T09:19:05.825Z</time>
      </trkpt>
      <trkpt lat="48.06016" lon="6.83821">
        <ele>857</ele>
        <time>2020-10-28T09:19:06.826Z</time>
      </trkpt>
      <trkpt lat="48.06015" lon="6.83821">
        <ele>857</ele>
        <time>2020-10-28T09:19:07.826Z</time>
      </trkpt>
      <trkpt lat="48.06013" lon="6.83821">
        <ele>857</ele>
        <time>2020-10-28T09:19:08.825Z</time>
      </trkpt>
      <trkpt lat="48.06012" lon="6.83821">
        <ele>856</ele>
        <time>2020-10-28T09:19:09.826Z</time>
      </trkpt>
      <trkpt lat="48.06011" lon="6.83821">
        <ele>857</ele>
        <time>2020-10-28T09:19:10.826Z</time>
      </trkpt>
      <trkpt lat="48.0601" lon="6.83821">
        <ele>857</ele>
        <time>2020-10-28T09:19:11.826Z</time>
      </trkpt>
      <trkpt lat="48.06009" lon="6.83822">
        <ele>857</ele>
        <time>2020-10-28T09:19:12.825Z</time>
      </trkpt>
      <trkpt lat="48.06008" lon="6.83823">
        <ele>857</ele>
        <time>2020-10-28T09:19:13.825Z</time>
      </trkpt>
      <trkpt lat="48.06007" lon="6.83823">
        <ele>858</ele>
        <time>2020-10-28T09:19:14.826Z</time>
      </trkpt>
      <trkpt lat="48.06006" lon="6.83823">
        <ele>858</ele>
        <time>2020-10-28T09:19:15.825Z</time>
      </trkpt>
      <trkpt lat="48.06005" lon="6.83823">
        <ele>859</ele>
        <time>2020-10-28T09:19:16.826Z</time>
      </trkpt>
      <trkpt lat="48.06004" lon="6.83822">
        <ele>860</ele>
        <time>2020-10-28T09:19:17.825Z</time>
      </trkpt>
      <trkpt lat="48.06004" lon="6.83822">
        <ele>860</ele>
        <time>2020-10-28T09:19:18.825Z</time>
      </trkpt>
      <trkpt lat="48.06002" lon="6.83822">
        <ele>861</ele>
        <time>2020-10-28T09:19:19.826Z</time>
      </trkpt>
      <trkpt lat="48.06001" lon="6.83822">
        <ele>862</ele>
        <time>2020-10-28T09:19:20.826Z</time>
      </trkpt>
      <trkpt lat="48.06001" lon="6.83822">
        <ele>862</ele>
        <time>2020-10-28T09:19:21.825Z</time>
      </trkpt>
      <trkpt lat="48.06001" lon="6.83823">
        <ele>863</ele>
        <time>2020-10-28T09:19:22.826Z</time>
      </trkpt>
      <trkpt lat="48.06" lon="6.83824">
        <ele>864</ele>
        <time>2020-10-28T09:19:23.825Z</time>
      </trkpt>
      <trkpt lat="48.06" lon="6.83826">
        <ele>864</ele>
        <time>2020-10-28T09:19:24.826Z</time>
      </trkpt>
      <trkpt lat="48.05999" lon="6.83827">
        <ele>865</ele>
        <time>2020-10-28T09:19:25.826Z</time>
      </trkpt>
      <trkpt lat="48.05999" lon="6.83827">
        <ele>865</ele>
        <time>2020-10-28T09:19:26.826Z</time>
      </trkpt>
      <trkpt lat="48.05998" lon="6.83827">
        <ele>865</ele>
        <time>2020-10-28T09:19:27.826Z</time>
      </trkpt>
      <trkpt lat="48.05997" lon="6.83827">
        <ele>865</ele>
        <time>2020-10-28T09:19:28.826Z</time>
      </trkpt>
      <trkpt lat="48.05997" lon="6.83826">
        <ele>865</ele>
        <time>2020-10-28T09:19:29.826Z</time>
      </trkpt>
      <trkpt lat="48.05996" lon="6.83826">
        <ele>865</ele>
        <time>2020-10-28T09:19:30.826Z</time>
      </trkpt>
      <trkpt lat="48.05996" lon="6.83826">
        <ele>865</ele>
        <time>2020-10-28T09:19:31.826Z</time>
      </trkpt>
      <trkpt lat="48.05995" lon="6.83826">
        <ele>866</ele>
        <time>2020-10-28T09:19:32.826Z</time>
      </trkpt>
      <trkpt lat="48.05995" lon="6.83826">
        <ele>866</ele>
        <time>2020-10-28T09:19:33.826Z</time>
      </trkpt>
      <trkpt lat="48.05994" lon="6.83825">
        <ele>867</ele>
        <time>2020-10-28T09:19:34.826Z</time>
      </trkpt>
      <trkpt lat="48.05993" lon="6.83823">
        <ele>868</ele>
        <time>2020-10-28T09:19:35.826Z</time>
      </trkpt>
      <trkpt lat="48.05992" lon="6.83822">
        <ele>868</ele>
        <time>2020-10-28T09:19:36.826Z</time>
      </trkpt>
      <trkpt lat="48.05991" lon="6.83822">
        <ele>869</ele>
        <time>2020-10-28T09:19:37.826Z</time>
      </trkpt>
      <trkpt lat="48.05991" lon="6.83823">
        <ele>869</ele>
        <time>2020-10-28T09:19:38.826Z</time>
      </trkpt>
      <trkpt lat="48.05991" lon="6.83824">
        <ele>870</ele>
        <time>2020-10-28T09:19:39.826Z</time>
      </trkpt>
      <trkpt lat="48.05991" lon="6.83825">
        <ele>870</ele>
        <time>2020-10-28T09:19:40.825Z</time>
      </trkpt>
      <trkpt lat="48.0599" lon="6.83825">
        <ele>870</ele>
        <time>2020-10-28T09:19:41.826Z</time>
      </trkpt>
      <trkpt lat="48.0599" lon="6.83824">
        <ele>871</ele>
        <time>2020-10-28T09:19:42.825Z</time>
      </trkpt>
      <trkpt lat="48.0599" lon="6.83823">
        <ele>871</ele>
        <time>2020-10-28T09:19:43.826Z</time>
      </trkpt>
      <trkpt lat="48.0599" lon="6.83821">
        <ele>871</ele>
        <time>2020-10-28T09:19:44.826Z</time>
      </trkpt>
      <trkpt lat="48.0599" lon="6.8382">
        <ele>872</ele>
        <time>2020-10-28T09:19:45.826Z</time>
      </trkpt>
      <trkpt lat="48.0599" lon="6.83818">
        <ele>873</ele>
        <time>2020-10-28T09:19:46.826Z</time>
      </trkpt>
      <trkpt lat="48.0599" lon="6.83817">
        <ele>873</ele>
        <time>2020-10-28T09:19:47.826Z</time>
      </trkpt>
      <trkpt lat="48.0599" lon="6.83816">
        <ele>874</ele>
        <time>2020-10-28T09:19:48.826Z</time>
      </trkpt>
      <trkpt lat="48.0599" lon="6.83812">
        <ele>872</ele>
        <time>2020-10-28T09:19:49.826Z</time>
      </trkpt>
      <trkpt lat="48.0599" lon="6.83811">
        <ele>872</ele>
        <time>2020-10-28T09:19:50.826Z</time>
      </trkpt>
      <trkpt lat="48.0599" lon="6.83811">
        <ele>871</ele>
        <time>2020-10-28T09:19:51.826Z</time>
      </trkpt>
      <trkpt lat="48.05989" lon="6.83811">
        <ele>871</ele>
        <time>2020-10-28T09:19:52.826Z</time>
      </trkpt>
      <trkpt lat="48.05989" lon="6.8381">
        <ele>870</ele>
        <time>2020-10-28T09:19:53.828Z</time>
      </trkpt>
      <trkpt lat="48.05989" lon="6.83808">
        <ele>870</ele>
        <time>2020-10-28T09:19:54.828Z</time>
      </trkpt>
      <trkpt lat="48.0599" lon="6.83807">
        <ele>869</ele>
        <time>2020-10-28T09:19:55.828Z</time>
      </trkpt>
      <trkpt lat="48.0599" lon="6.83806">
        <ele>869</ele>
        <time>2020-10-28T09:19:56.828Z</time>
      </trkpt>
      <trkpt lat="48.0599" lon="6.83805">
        <ele>869</ele>
        <time>2020-10-28T09:19:57.827Z</time>
      </trkpt>
      <trkpt lat="48.0599" lon="6.83805">
        <ele>868</ele>
        <time>2020-10-28T09:19:58.828Z</time>
      </trkpt>
      <trkpt lat="48.0599" lon="6.83804">
        <ele>869</ele>
        <time>2020-10-28T09:19:59.827Z</time>
      </trkpt>
      <trkpt lat="48.0599" lon="6.83803">
        <ele>869</ele>
        <time>2020-10-28T09:20:00.827Z</time>
      </trkpt>
      <trkpt lat="48.05989" lon="6.83802">
        <ele>869</ele>
        <time>2020-10-28T09:20:01.827Z</time>
      </trkpt>
      <trkpt lat="48.05989" lon="6.83801">
        <ele>869</ele>
        <time>2020-10-28T09:20:02.828Z</time>
      </trkpt>
      <trkpt lat="48.0599" lon="6.838">
        <ele>869</ele>
        <time>2020-10-28T09:20:03.828Z</time>
      </trkpt>
      <trkpt lat="48.05991" lon="6.83799">
        <ele>868</ele>
        <time>2020-10-28T09:20:04.827Z</time>
      </trkpt>
      <trkpt lat="48.05991" lon="6.83798">
        <ele>868</ele>
        <time>2020-10-28T09:20:05.828Z</time>
      </trkpt>
      <trkpt lat="48.0599" lon="6.83798">
        <ele>868</ele>
        <time>2020-10-28T09:20:06.828Z</time>
      </trkpt>
      <trkpt lat="48.0599" lon="6.83797">
        <ele>867</ele>
        <time>2020-10-28T09:20:07.828Z</time>
      </trkpt>
      <trkpt lat="48.05989" lon="6.83797">
        <ele>867</ele>
        <time>2020-10-28T09:20:08.828Z</time>
      </trkpt>
      <trkpt lat="48.05988" lon="6.83796">
        <ele>867</ele>
        <time>2020-10-28T09:20:09.827Z</time>
      </trkpt>
      <trkpt lat="48.05988" lon="6.83795">
        <ele>868</ele>
        <time>2020-10-28T09:20:10.828Z</time>
      </trkpt>
      <trkpt lat="48.05987" lon="6.83795">
        <ele>869</ele>
        <time>2020-10-28T09:20:11.828Z</time>
      </trkpt>
      <trkpt lat="48.05986" lon="6.83795">
        <ele>869</ele>
        <time>2020-10-28T09:20:12.828Z</time>
      </trkpt>
      <trkpt lat="48.05985" lon="6.83795">
        <ele>870</ele>
        <time>2020-10-28T09:20:13.828Z</time>
      </trkpt>
      <trkpt lat="48.05984" lon="6.83795">
        <ele>870</ele>
        <time>2020-10-28T09:20:14.828Z</time>
      </trkpt>
      <trkpt lat="48.05984" lon="6.83794">
        <ele>870</ele>
        <time>2020-10-28T09:20:15.828Z</time>
      </trkpt>
      <trkpt lat="48.05983" lon="6.83792">
        <ele>870</ele>
        <time>2020-10-28T09:20:16.828Z</time>
      </trkpt>
      <trkpt lat="48.05983" lon="6.83791">
        <ele>870</ele>
        <time>2020-10-28T09:20:17.828Z</time>
      </trkpt>
      <trkpt lat="48.05982" lon="6.83789">
        <ele>870</ele>
        <time>2020-10-28T09:20:18.828Z</time>
      </trkpt>
      <trkpt lat="48.05983" lon="6.83788">
        <ele>870</ele>
        <time>2020-10-28T09:20:19.827Z</time>
      </trkpt>
      <trkpt lat="48.05983" lon="6.83787">
        <ele>869</ele>
        <time>2020-10-28T09:20:20.828Z</time>
      </trkpt>
      <trkpt lat="48.05983" lon="6.83786">
        <ele>868</ele>
        <time>2020-10-28T09:20:21.828Z</time>
      </trkpt>
      <trkpt lat="48.05983" lon="6.83785">
        <ele>868</ele>
        <time>2020-10-28T09:20:22.827Z</time>
      </trkpt>
      <trkpt lat="48.05984" lon="6.83785">
        <ele>867</ele>
        <time>2020-10-28T09:20:23.828Z</time>
      </trkpt>
      <trkpt lat="48.05984" lon="6.83785">
        <ele>866</ele>
        <time>2020-10-28T09:20:24.827Z</time>
      </trkpt>
      <trkpt lat="48.05984" lon="6.83784">
        <ele>866</ele>
        <time>2020-10-28T09:20:25.828Z</time>
      </trkpt>
      <trkpt lat="48.05983" lon="6.83783">
        <ele>866</ele>
        <time>2020-10-28T09:20:26.829Z</time>
      </trkpt>
      <trkpt lat="48.05983" lon="6.83782">
        <ele>866</ele>
        <time>2020-10-28T09:20:27.828Z</time>
      </trkpt>
      <trkpt lat="48.05982" lon="6.83781">
        <ele>866</ele>
        <time>2020-10-28T09:20:28.829Z</time>
      </trkpt>
      <trkpt lat="48.05981" lon="6.83779">
        <ele>866</ele>
        <time>2020-10-28T09:20:29.828Z</time>
      </trkpt>
      <trkpt lat="48.05981" lon="6.83778">
        <ele>866</ele>
        <time>2020-10-28T09:20:30.828Z</time>
      </trkpt>
      <trkpt lat="48.05981" lon="6.83778">
        <ele>866</ele>
        <time>2020-10-28T09:20:31.829Z</time>
      </trkpt>
      <trkpt lat="48.0598" lon="6.83777">
        <ele>866</ele>
        <time>2020-10-28T09:20:32.828Z</time>
      </trkpt>
      <trkpt lat="48.05979" lon="6.83775">
        <ele>866</ele>
        <time>2020-10-28T09:20:33.828Z</time>
      </trkpt>
      <trkpt lat="48.05979" lon="6.83774">
        <ele>866</ele>
        <time>2020-10-28T09:20:34.829Z</time>
      </trkpt>
      <trkpt lat="48.0598" lon="6.83774">
        <ele>866</ele>
        <time>2020-10-28T09:20:35.828Z</time>
      </trkpt>
      <trkpt lat="48.0598" lon="6.83774">
        <ele>866</ele>
        <time>2020-10-28T09:20:36.828Z</time>
      </trkpt>
      <trkpt lat="48.0598" lon="6.83773">
        <ele>865</ele>
        <time>2020-10-28T09:20:37.828Z</time>
      </trkpt>
      <trkpt lat="48.0598" lon="6.83772">
        <ele>865</ele>
        <time>2020-10-28T09:20:38.829Z</time>
      </trkpt>
      <trkpt lat="48.05981" lon="6.83771">
        <ele>865</ele>
        <time>2020-10-28T09:20:39.828Z</time>
      </trkpt>
      <trkpt lat="48.0598" lon="6.8377">
        <ele>865</ele>
        <time>2020-10-28T09:20:40.829Z</time>
      </trkpt>
      <trkpt lat="48.0598" lon="6.8377">
        <ele>865</ele>
        <time>2020-10-28T09:20:41.828Z</time>
      </trkpt>
      <trkpt lat="48.05979" lon="6.83769">
        <ele>865</ele>
        <time>2020-10-28T09:20:42.828Z</time>
      </trkpt>
      <trkpt lat="48.05979" lon="6.83768">
        <ele>865</ele>
        <time>2020-10-28T09:20:43.829Z</time>
      </trkpt>
      <trkpt lat="48.05979" lon="6.83767">
        <ele>865</ele>
        <time>2020-10-28T09:20:44.829Z</time>
      </trkpt>
      <trkpt lat="48.05979" lon="6.83766">
        <ele>865</ele>
        <time>2020-10-28T09:20:45.828Z</time>
      </trkpt>
      <trkpt lat="48.05979" lon="6.83764">
        <ele>865</ele>
        <time>2020-10-28T09:20:46.828Z</time>
      </trkpt>
      <trkpt lat="48.0598" lon="6.83763">
        <ele>866</ele>
        <time>2020-10-28T09:20:47.829Z</time>
      </trkpt>
      <trkpt lat="48.05981" lon="6.83762">
        <ele>867</ele>
        <time>2020-10-28T09:20:48.829Z</time>
      </trkpt>
      <trkpt lat="48.05981" lon="6.83761">
        <ele>867</ele>
        <time>2020-10-28T09:20:49.828Z</time>
      </trkpt>
      <trkpt lat="48.05981" lon="6.8376">
        <ele>867</ele>
        <time>2020-10-28T09:20:50.828Z</time>
      </trkpt>
      <trkpt lat="48.05981" lon="6.83759">
        <ele>866</ele>
        <time>2020-10-28T09:20:51.829Z</time>
      </trkpt>
      <trkpt lat="48.05981" lon="6.83757">
        <ele>866</ele>
        <time>2020-10-28T09:20:52.829Z</time>
      </trkpt>
      <trkpt lat="48.05982" lon="6.83756">
        <ele>866</ele>
        <time>2020-10-28T09:20:53.829Z</time>
      </trkpt>
      <trkpt lat="48.05981" lon="6.83755">
        <ele>866</ele>
        <time>2020-10-28T09:20:54.829Z</time>
      </trkpt>
      <trkpt lat="48.05981" lon="6.83755">
        <ele>867</ele>
        <time>2020-10-28T09:20:55.829Z</time>
      </trkpt>
      <trkpt lat="48.05982" lon="6.83757">
        <ele>867</ele>
        <time>2020-10-28T09:20:56.829Z</time>
      </trkpt>
      <trkpt lat="48.05983" lon="6.8376">
        <ele>866</ele>
        <time>2020-10-28T09:20:57.829Z</time>
      </trkpt>
      <trkpt lat="48.05983" lon="6.83761">
        <ele>865</ele>
        <time>2020-10-28T09:20:58.828Z</time>
      </trkpt>
      <trkpt lat="48.05981" lon="6.83757">
        <ele>860</ele>
        <time>2020-10-28T09:20:59.830Z</time>
      </trkpt>
      <trkpt lat="48.0598" lon="6.83757">
        <ele>860</ele>
        <time>2020-10-28T09:21:00.830Z</time>
      </trkpt>
      <trkpt lat="48.05979" lon="6.83755">
        <ele>859</ele>
        <time>2020-10-28T09:21:01.829Z</time>
      </trkpt>
      <trkpt lat="48.05977" lon="6.83754">
        <ele>859</ele>
        <time>2020-10-28T09:21:02.829Z</time>
      </trkpt>
      <trkpt lat="48.05976" lon="6.83751">
        <ele>859</ele>
        <time>2020-10-28T09:21:03.830Z</time>
      </trkpt>
      <trkpt lat="48.05975" lon="6.8375">
        <ele>859</ele>
        <time>2020-10-28T09:21:04.830Z</time>
      </trkpt>
      <trkpt lat="48.05974" lon="6.83749">
        <ele>859</ele>
        <time>2020-10-28T09:21:05.830Z</time>
      </trkpt>
      <trkpt lat="48.05973" lon="6.83748">
        <ele>860</ele>
        <time>2020-10-28T09:21:06.830Z</time>
      </trkpt>
      <trkpt lat="48.05973" lon="6.83749">
        <ele>860</ele>
        <time>2020-10-28T09:21:07.829Z</time>
      </trkpt>
      <trkpt lat="48.05971" lon="6.8375">
        <ele>860</ele>
        <time>2020-10-28T09:21:08.830Z</time>
      </trkpt>
      <trkpt lat="48.05971" lon="6.8375">
        <ele>861</ele>
        <time>2020-10-28T09:21:09.829Z</time>
      </trkpt>
      <trkpt lat="48.0597" lon="6.8375">
        <ele>861</ele>
        <time>2020-10-28T09:21:10.829Z</time>
      </trkpt>
      <trkpt lat="48.0597" lon="6.83751">
        <ele>862</ele>
        <time>2020-10-28T09:21:11.830Z</time>
      </trkpt>
      <trkpt lat="48.05969" lon="6.83752">
        <ele>863</ele>
        <time>2020-10-28T09:21:12.829Z</time>
      </trkpt>
      <trkpt lat="48.05968" lon="6.83752">
        <ele>864</ele>
        <time>2020-10-28T09:21:13.830Z</time>
      </trkpt>
      <trkpt lat="48.05967" lon="6.8375">
        <ele>865</ele>
        <time>2020-10-28T09:21:14.830Z</time>
      </trkpt>
      <trkpt lat="48.05965" lon="6.83751">
        <ele>867</ele>
        <time>2020-10-28T09:21:15.829Z</time>
      </trkpt>
      <trkpt lat="48.05964" lon="6.83751">
        <ele>868</ele>
        <time>2020-10-28T09:21:16.830Z</time>
      </trkpt>
      <trkpt lat="48.05963" lon="6.83751">
        <ele>869</ele>
        <time>2020-10-28T09:21:17.829Z</time>
      </trkpt>
      <trkpt lat="48.05963" lon="6.83751">
        <ele>870</ele>
        <time>2020-10-28T09:21:18.829Z</time>
      </trkpt>
      <trkpt lat="48.05962" lon="6.83751">
        <ele>870</ele>
        <time>2020-10-28T09:21:19.829Z</time>
      </trkpt>
      <trkpt lat="48.05961" lon="6.8375">
        <ele>870</ele>
        <time>2020-10-28T09:21:20.829Z</time>
      </trkpt>
      <trkpt lat="48.05961" lon="6.83748">
        <ele>870</ele>
        <time>2020-10-28T09:21:21.830Z</time>
      </trkpt>
      <trkpt lat="48.0596" lon="6.83745">
        <ele>871</ele>
        <time>2020-10-28T09:21:22.829Z</time>
      </trkpt>
      <trkpt lat="48.05959" lon="6.83743">
        <ele>871</ele>
        <time>2020-10-28T09:21:23.830Z</time>
      </trkpt>
      <trkpt lat="48.05958" lon="6.83741">
        <ele>871</ele>
        <time>2020-10-28T09:21:24.829Z</time>
      </trkpt>
      <trkpt lat="48.05957" lon="6.8374">
        <ele>871</ele>
        <time>2020-10-28T09:21:25.829Z</time>
      </trkpt>
      <trkpt lat="48.05956" lon="6.83739">
        <ele>871</ele>
        <time>2020-10-28T09:21:26.830Z</time>
      </trkpt>
      <trkpt lat="48.05955" lon="6.83738">
        <ele>871</ele>
        <time>2020-10-28T09:21:27.829Z</time>
      </trkpt>
      <trkpt lat="48.05955" lon="6.83737">
        <ele>871</ele>
        <time>2020-10-28T09:21:28.829Z</time>
      </trkpt>
      <trkpt lat="48.05954" lon="6.83737">
        <ele>871</ele>
        <time>2020-10-28T09:21:29.829Z</time>
      </trkpt>
      <trkpt lat="48.05954" lon="6.83737">
        <ele>871</ele>
        <time>2020-10-28T09:21:30.830Z</time>
      </trkpt>
      <trkpt lat="48.05953" lon="6.83736">
        <ele>871</ele>
        <time>2020-10-28T09:21:31.831Z</time>
      </trkpt>
      <trkpt lat="48.05952" lon="6.83736">
        <ele>871</ele>
        <time>2020-10-28T09:21:32.830Z</time>
      </trkpt>
      <trkpt lat="48.05951" lon="6.83736">
        <ele>871</ele>
        <time>2020-10-28T09:21:33.830Z</time>
      </trkpt>
      <trkpt lat="48.05951" lon="6.83737">
        <ele>871</ele>
        <time>2020-10-28T09:21:34.831Z</time>
      </trkpt>
      <trkpt lat="48.0595" lon="6.83737">
        <ele>871</ele>
        <time>2020-10-28T09:21:35.830Z</time>
      </trkpt>
      <trkpt lat="48.05949" lon="6.83737">
        <ele>871</ele>
        <time>2020-10-28T09:21:36.830Z</time>
      </trkpt>
      <trkpt lat="48.05949" lon="6.83737">
        <ele>871</ele>
        <time>2020-10-28T09:21:37.831Z</time>
      </trkpt>
      <trkpt lat="48.05948" lon="6.83738">
        <ele>871</ele>
        <time>2020-10-28T09:21:38.830Z</time>
      </trkpt>
      <trkpt lat="48.05948" lon="6.83738">
        <ele>871</ele>
        <time>2020-10-28T09:21:39.831Z</time>
      </trkpt>
      <trkpt lat="48.05947" lon="6.83738">
        <ele>871</ele>
        <time>2020-10-28T09:21:40.831Z</time>
      </trkpt>
      <trkpt lat="48.05946" lon="6.83738">
        <ele>871</ele>
        <time>2020-10-28T09:21:41.831Z</time>
      </trkpt>
      <trkpt lat="48.05945" lon="6.83738">
        <ele>871</ele>
        <time>2020-10-28T09:21:42.830Z</time>
      </trkpt>
      <trkpt lat="48.05945" lon="6.83737">
        <ele>870</ele>
        <time>2020-10-28T09:21:43.830Z</time>
      </trkpt>
      <trkpt lat="48.05944" lon="6.83738">
        <ele>869</ele>
        <time>2020-10-28T09:21:44.831Z</time>
      </trkpt>
      <trkpt lat="48.05944" lon="6.83739">
        <ele>868</ele>
        <time>2020-10-28T09:21:45.830Z</time>
      </trkpt>
      <trkpt lat="48.05943" lon="6.8374">
        <ele>867</ele>
        <time>2020-10-28T09:21:46.831Z</time>
      </trkpt>
      <trkpt lat="48.05941" lon="6.8374">
        <ele>866</ele>
        <time>2020-10-28T09:21:47.831Z</time>
      </trkpt>
      <trkpt lat="48.05941" lon="6.8374">
        <ele>866</ele>
        <time>2020-10-28T09:21:48.830Z</time>
      </trkpt>
      <trkpt lat="48.0594" lon="6.8374">
        <ele>866</ele>
        <time>2020-10-28T09:21:49.831Z</time>
      </trkpt>
      <trkpt lat="48.05939" lon="6.8374">
        <ele>866</ele>
        <time>2020-10-28T09:21:50.830Z</time>
      </trkpt>
      <trkpt lat="48.05938" lon="6.8374">
        <ele>866</ele>
        <time>2020-10-28T09:21:51.831Z</time>
      </trkpt>
      <trkpt lat="48.05937" lon="6.83739">
        <ele>866</ele>
        <time>2020-10-28T09:21:52.831Z</time>
      </trkpt>
      <trkpt lat="48.05935" lon="6.83737">
        <ele>867</ele>
        <time>2020-10-28T09:21:53.830Z</time>
      </trkpt>
      <trkpt lat="48.05934" lon="6.83735">
        <ele>867</ele>
        <time>2020-10-28T09:21:54.830Z</time>
      </trkpt>
      <trkpt lat="48.05934" lon="6.83733">
        <ele>868</ele>
        <time>2020-10-28T09:21:55.831Z</time>
      </trkpt>
      <trkpt lat="48.05933" lon="6.83733">
        <ele>868</ele>
        <time>2020-10-28T09:21:56.831Z</time>
      </trkpt>
      <trkpt lat="48.05933" lon="6.83733">
        <ele>868</ele>
        <time>2020-10-28T09:21:57.830Z</time>
      </trkpt>
      <trkpt lat="48.05932" lon="6.83733">
        <ele>868</ele>
        <time>2020-10-28T09:21:58.830Z</time>
      </trkpt>
      <trkpt lat="48.05931" lon="6.83732">
        <ele>869</ele>
        <time>2020-10-28T09:21:59.830Z</time>
      </trkpt>
      <trkpt lat="48.0593" lon="6.83732">
        <ele>869</ele>
        <time>2020-10-28T09:22:00.831Z</time>
      </trkpt>
      <trkpt lat="48.05929" lon="6.83732">
        <ele>869</ele>
        <time>2020-10-28T09:22:01.831Z</time>
      </trkpt>
      <trkpt lat="48.05928" lon="6.83731">
        <ele>869</ele>
        <time>2020-10-28T09:22:02.830Z</time>
      </trkpt>
      <trkpt lat="48.05927" lon="6.8373">
        <ele>869</ele>
        <time>2020-10-28T09:22:03.830Z</time>
      </trkpt>
      <trkpt lat="48.05926" lon="6.8373">
        <ele>869</ele>
        <time>2020-10-28T09:22:04.831Z</time>
      </trkpt>
      <trkpt lat="48.05926" lon="6.83729">
        <ele>869</ele>
        <time>2020-10-28T09:22:05.831Z</time>
      </trkpt>
      <trkpt lat="48.05925" lon="6.83729">
        <ele>869</ele>
        <time>2020-10-28T09:22:06.830Z</time>
      </trkpt>
      <trkpt lat="48.05924" lon="6.83728">
        <ele>869</ele>
        <time>2020-10-28T09:22:07.831Z</time>
      </trkpt>
      <trkpt lat="48.05923" lon="6.83729">
        <ele>869</ele>
        <time>2020-10-28T09:22:08.830Z</time>
      </trkpt>
      <trkpt lat="48.05922" lon="6.83729">
        <ele>870</ele>
        <time>2020-10-28T09:22:09.831Z</time>
      </trkpt>
      <trkpt lat="48.05921" lon="6.83729">
        <ele>870</ele>
        <time>2020-10-28T09:22:10.831Z</time>
      </trkpt>
      <trkpt lat="48.0592" lon="6.8373">
        <ele>871</ele>
        <time>2020-10-28T09:22:11.830Z</time>
      </trkpt>
      <trkpt lat="48.05918" lon="6.8373">
        <ele>871</ele>
        <time>2020-10-28T09:22:12.831Z</time>
      </trkpt>
      <trkpt lat="48.05917" lon="6.8373">
        <ele>871</ele>
        <time>2020-10-28T09:22:13.831Z</time>
      </trkpt>
      <trkpt lat="48.05916" lon="6.8373">
        <ele>872</ele>
        <time>2020-10-28T09:22:14.831Z</time>
      </trkpt>
      <trkpt lat="48.05914" lon="6.83731">
        <ele>872</ele>
        <time>2020-10-28T09:22:15.831Z</time>
      </trkpt>
      <trkpt lat="48.05914" lon="6.83731">
        <ele>872</ele>
        <time>2020-10-28T09:22:16.831Z</time>
      </trkpt>
      <trkpt lat="48.05915" lon="6.83732">
        <ele>873</ele>
        <time>2020-10-28T09:22:17.830Z</time>
      </trkpt>
      <trkpt lat="48.05906" lon="6.83731">
        <ele>862</ele>
        <time>2020-10-28T09:22:18.831Z</time>
      </trkpt>
      <trkpt lat="48.05906" lon="6.8373">
        <ele>862</ele>
        <time>2020-10-28T09:22:19.831Z</time>
      </trkpt>
      <trkpt lat="48.05905" lon="6.83729">
        <ele>862</ele>
        <time>2020-10-28T09:22:20.830Z</time>
      </trkpt>
      <trkpt lat="48.05904" lon="6.83729">
        <ele>862</ele>
        <time>2020-10-28T09:22:21.831Z</time>
      </trkpt>
      <trkpt lat="48.05904" lon="6.8373">
        <ele>862</ele>
        <time>2020-10-28T09:22:22.831Z</time>
      </trkpt>
      <trkpt lat="48.05903" lon="6.8373">
        <ele>863</ele>
        <time>2020-10-28T09:22:23.830Z</time>
      </trkpt>
      <trkpt lat="48.05903" lon="6.83731">
        <ele>863</ele>
        <time>2020-10-28T09:22:24.830Z</time>
      </trkpt>
      <trkpt lat="48.05902" lon="6.83731">
        <ele>864</ele>
        <time>2020-10-28T09:22:25.831Z</time>
      </trkpt>
      <trkpt lat="48.05902" lon="6.83732">
        <ele>865</ele>
        <time>2020-10-28T09:22:26.831Z</time>
      </trkpt>
      <trkpt lat="48.05902" lon="6.83731">
        <ele>866</ele>
        <time>2020-10-28T09:22:27.831Z</time>
      </trkpt>
      <trkpt lat="48.05903" lon="6.8373">
        <ele>866</ele>
        <time>2020-10-28T09:22:28.831Z</time>
      </trkpt>
      <trkpt lat="48.05903" lon="6.83729">
        <ele>867</ele>
        <time>2020-10-28T09:22:29.831Z</time>
      </trkpt>
      <trkpt lat="48.05904" lon="6.83729">
        <ele>868</ele>
        <time>2020-10-28T09:22:30.831Z</time>
      </trkpt>
      <trkpt lat="48.05904" lon="6.83728">
        <ele>869</ele>
        <time>2020-10-28T09:22:31.830Z</time>
      </trkpt>
      <trkpt lat="48.05904" lon="6.83727">
        <ele>869</ele>
        <time>2020-10-28T09:22:32.831Z</time>
      </trkpt>
      <trkpt lat="48.05904" lon="6.83727">
        <ele>870</ele>
        <time>2020-10-28T09:22:33.831Z</time>
      </trkpt>
      <trkpt lat="48.05904" lon="6.83727">
        <ele>871</ele>
        <time>2020-10-28T09:22:34.830Z</time>
      </trkpt>
      <trkpt lat="48.05902" lon="6.83734">
        <ele>873</ele>
        <time>2020-10-28T09:22:35.832Z</time>
      </trkpt>
      <trkpt lat="48.05901" lon="6.83735">
        <ele>873</ele>
        <time>2020-10-28T09:22:36.832Z</time>
      </trkpt>
      <trkpt lat="48.05899" lon="6.83737">
        <ele>873</ele>
        <time>2020-10-28T09:22:37.832Z</time>
      </trkpt>
      <trkpt lat="48.05897" lon="6.83738">
        <ele>873</ele>
        <time>2020-10-28T09:22:38.831Z</time>
      </trkpt>
      <trkpt lat="48.05896" lon="6.83739">
        <ele>873</ele>
        <time>2020-10-28T09:22:39.831Z</time>
      </trkpt>
      <trkpt lat="48.05895" lon="6.83741">
        <ele>872</ele>
        <time>2020-10-28T09:22:40.832Z</time>
      </trkpt>
      <trkpt lat="48.05894" lon="6.83742">
        <ele>872</ele>
        <time>2020-10-28T09:22:41.831Z</time>
      </trkpt>
      <trkpt lat="48.05893" lon="6.83744">
        <ele>872</ele>
        <time>2020-10-28T09:22:42.832Z</time>
      </trkpt>
      <trkpt lat="48.05892" lon="6.83746">
        <ele>872</ele>
        <time>2020-10-28T09:22:43.832Z</time>
      </trkpt>
      <trkpt lat="48.05891" lon="6.83746">
        <ele>873</ele>
        <time>2020-10-28T09:22:44.831Z</time>
      </trkpt>
      <trkpt lat="48.0589" lon="6.83747">
        <ele>873</ele>
        <time>2020-10-28T09:22:45.832Z</time>
      </trkpt>
      <trkpt lat="48.0589" lon="6.83748">
        <ele>874</ele>
        <time>2020-10-28T09:22:46.832Z</time>
      </trkpt>
      <trkpt lat="48.05889" lon="6.83749">
        <ele>874</ele>
        <time>2020-10-28T09:22:47.831Z</time>
      </trkpt>
      <trkpt lat="48.05888" lon="6.8375">
        <ele>874</ele>
        <time>2020-10-28T09:22:48.832Z</time>
      </trkpt>
      <trkpt lat="48.05887" lon="6.8375">
        <ele>874</ele>
        <time>2020-10-28T09:22:49.832Z</time>
      </trkpt>
      <trkpt lat="48.05886" lon="6.83751">
        <ele>873</ele>
        <time>2020-10-28T09:22:50.831Z</time>
      </trkpt>
      <trkpt lat="48.05885" lon="6.83751">
        <ele>873</ele>
        <time>2020-10-28T09:22:51.831Z</time>
      </trkpt>
      <trkpt lat="48.05884" lon="6.83752">
        <ele>872</ele>
        <time>2020-10-28T09:22:52.832Z</time>
      </trkpt>
      <trkpt lat="48.05883" lon="6.83753">
        <ele>871</ele>
        <time>2020-10-28T09:22:53.832Z</time>
      </trkpt>
      <trkpt lat="48.05882" lon="6.83754">
        <ele>871</ele>
        <time>2020-10-28T09:22:54.832Z</time>
      </trkpt>
      <trkpt lat="48.05881" lon="6.83755">
        <ele>871</ele>
        <time>2020-10-28T09:22:55.832Z</time>
      </trkpt>
      <trkpt lat="48.05881" lon="6.83756">
        <ele>871</ele>
        <time>2020-10-28T09:22:56.831Z</time>
      </trkpt>
      <trkpt lat="48.0588" lon="6.83756">
        <ele>871</ele>
        <time>2020-10-28T09:22:57.832Z</time>
      </trkpt>
      <trkpt lat="48.05883" lon="6.83756">
        <ele>869</ele>
        <time>2020-10-28T09:22:58.832Z</time>
      </trkpt>
      <trkpt lat="48.05883" lon="6.83757">
        <ele>869</ele>
        <time>2020-10-28T09:22:59.832Z</time>
      </trkpt>
      <trkpt lat="48.05883" lon="6.83758">
        <ele>869</ele>
        <time>2020-10-28T09:23:00.832Z</time>
      </trkpt>
      <trkpt lat="48.05882" lon="6.83759">
        <ele>869</ele>
        <time>2020-10-28T09:23:01.832Z</time>
      </trkpt>
      <trkpt lat="48.05882" lon="6.83759">
        <ele>869</ele>
        <time>2020-10-28T09:23:02.832Z</time>
      </trkpt>
      <trkpt lat="48.05881" lon="6.83759">
        <ele>869</ele>
        <time>2020-10-28T09:23:03.832Z</time>
      </trkpt>
      <trkpt lat="48.0588" lon="6.83759">
        <ele>869</ele>
        <time>2020-10-28T09:23:04.832Z</time>
      </trkpt>
      <trkpt lat="48.0588" lon="6.83759">
        <ele>869</ele>
        <time>2020-10-28T09:23:05.832Z</time>
      </trkpt>
      <trkpt lat="48.05879" lon="6.83759">
        <ele>869</ele>
        <time>2020-10-28T09:23:06.832Z</time>
      </trkpt>
      <trkpt lat="48.05878" lon="6.83758">
        <ele>869</ele>
        <time>2020-10-28T09:23:07.832Z</time>
      </trkpt>
      <trkpt lat="48.05877" lon="6.83758">
        <ele>870</ele>
        <time>2020-10-28T09:23:08.832Z</time>
      </trkpt>
      <trkpt lat="48.05876" lon="6.83758">
        <ele>870</ele>
        <time>2020-10-28T09:23:09.832Z</time>
      </trkpt>
      <trkpt lat="48.05874" lon="6.83758">
        <ele>871</ele>
        <time>2020-10-28T09:23:10.832Z</time>
      </trkpt>
      <trkpt lat="48.05873" lon="6.83758">
        <ele>871</ele>
        <time>2020-10-28T09:23:11.832Z</time>
      </trkpt>
      <trkpt lat="48.05872" lon="6.83759">
        <ele>872</ele>
        <time>2020-10-28T09:23:12.832Z</time>
      </trkpt>
      <trkpt lat="48.05871" lon="6.83759">
        <ele>872</ele>
        <time>2020-10-28T09:23:13.832Z</time>
      </trkpt>
      <trkpt lat="48.05869" lon="6.8376">
        <ele>873</ele>
        <time>2020-10-28T09:23:14.832Z</time>
      </trkpt>
      <trkpt lat="48.05868" lon="6.83762">
        <ele>873</ele>
        <time>2020-10-28T09:23:15.832Z</time>
      </trkpt>
      <trkpt lat="48.05867" lon="6.83763">
        <ele>874</ele>
        <time>2020-10-28T09:23:16.832Z</time>
      </trkpt>
      <trkpt lat="48.05866" lon="6.83764">
        <ele>874</ele>
        <time>2020-10-28T09:23:17.832Z</time>
      </trkpt>
      <trkpt lat="48.05865" lon="6.83766">
        <ele>875</ele>
        <time>2020-10-28T09:23:18.832Z</time>
      </trkpt>
      <trkpt lat="48.05864" lon="6.83767">
        <ele>875</ele>
        <time>2020-10-28T09:23:19.832Z</time>
      </trkpt>
      <trkpt lat="48.05862" lon="6.83768">
        <ele>876</ele>
        <time>2020-10-28T09:23:20.832Z</time>
      </trkpt>
      <trkpt lat="48.05862" lon="6.83768">
        <ele>877</ele>
        <time>2020-10-28T09:23:21.832Z</time>
      </trkpt>
      <trkpt lat="48.0586" lon="6.83769">
        <ele>878</ele>
        <time>2020-10-28T09:23:22.833Z</time>
      </trkpt>
      <trkpt lat="48.0586" lon="6.83769">
        <ele>878</ele>
        <time>2020-10-28T09:23:23.833Z</time>
      </trkpt>
      <trkpt lat="48.05859" lon="6.83768">
        <ele>877</ele>
        <time>2020-10-28T09:23:24.833Z</time>
      </trkpt>
      <trkpt lat="48.05859" lon="6.83766">
        <ele>877</ele>
        <time>2020-10-28T09:23:25.833Z</time>
      </trkpt>
      <trkpt lat="48.05859" lon="6.83764">
        <ele>877</ele>
        <time>2020-10-28T09:23:26.833Z</time>
      </trkpt>
      <trkpt lat="48.0586" lon="6.83762">
        <ele>876</ele>
        <time>2020-10-28T09:23:27.833Z</time>
      </trkpt>
      <trkpt lat="48.0586" lon="6.8376">
        <ele>876</ele>
        <time>2020-10-28T09:23:28.833Z</time>
      </trkpt>
      <trkpt lat="48.0586" lon="6.83758">
        <ele>876</ele>
        <time>2020-10-28T09:23:29.833Z</time>
      </trkpt>
      <trkpt lat="48.05861" lon="6.83757">
        <ele>876</ele>
        <time>2020-10-28T09:23:30.833Z</time>
      </trkpt>
      <trkpt lat="48.05861" lon="6.83756">
        <ele>876</ele>
        <time>2020-10-28T09:23:31.833Z</time>
      </trkpt>
      <trkpt lat="48.05862" lon="6.83754">
        <ele>876</ele>
        <time>2020-10-28T09:23:32.833Z</time>
      </trkpt>
      <trkpt lat="48.05862" lon="6.83754">
        <ele>876</ele>
        <time>2020-10-28T09:23:33.833Z</time>
      </trkpt>
      <trkpt lat="48.05862" lon="6.83753">
        <ele>875</ele>
        <time>2020-10-28T09:23:34.833Z</time>
      </trkpt>
      <trkpt lat="48.05861" lon="6.83752">
        <ele>875</ele>
        <time>2020-10-28T09:23:35.833Z</time>
      </trkpt>
      <trkpt lat="48.05861" lon="6.83752">
        <ele>875</ele>
        <time>2020-10-28T09:23:36.833Z</time>
      </trkpt>
      <trkpt lat="48.0586" lon="6.83753">
        <ele>874</ele>
        <time>2020-10-28T09:23:37.833Z</time>
      </trkpt>
      <trkpt lat="48.0586" lon="6.83755">
        <ele>872</ele>
        <time>2020-10-28T09:23:38.834Z</time>
      </trkpt>
      <trkpt lat="48.0586" lon="6.83757">
        <ele>872</ele>
        <time>2020-10-28T09:23:39.834Z</time>
      </trkpt>
      <trkpt lat="48.0586" lon="6.83759">
        <ele>871</ele>
        <time>2020-10-28T09:23:40.833Z</time>
      </trkpt>
      <trkpt lat="48.0586" lon="6.8376">
        <ele>871</ele>
        <time>2020-10-28T09:23:41.834Z</time>
      </trkpt>
      <trkpt lat="48.0586" lon="6.83761">
        <ele>871</ele>
        <time>2020-10-28T09:23:42.834Z</time>
      </trkpt>
      <trkpt lat="48.0586" lon="6.83763">
        <ele>872</ele>
        <time>2020-10-28T09:23:43.833Z</time>
      </trkpt>
      <trkpt lat="48.05859" lon="6.83765">
        <ele>872</ele>
        <time>2020-10-28T09:23:44.834Z</time>
      </trkpt>
      <trkpt lat="48.05859" lon="6.83765">
        <ele>872</ele>
        <time>2020-10-28T09:23:45.834Z</time>
      </trkpt>
      <trkpt lat="48.0586" lon="6.83766">
        <ele>871</ele>
        <time>2020-10-28T09:23:46.834Z</time>
      </trkpt>
      <trkpt lat="48.0586" lon="6.83768">
        <ele>871</ele>
        <time>2020-10-28T09:23:47.833Z</time>
      </trkpt>
      <trkpt lat="48.0586" lon="6.83769">
        <ele>871</ele>
        <time>2020-10-28T09:23:48.833Z</time>
      </trkpt>
      <trkpt lat="48.0586" lon="6.83771">
        <ele>871</ele>
        <time>2020-10-28T09:23:49.834Z</time>
      </trkpt>
      <trkpt lat="48.0586" lon="6.83773">
        <ele>872</ele>
        <time>2020-10-28T09:23:50.833Z</time>
      </trkpt>
      <trkpt lat="48.0586" lon="6.83775">
        <ele>872</ele>
        <time>2020-10-28T09:23:51.834Z</time>
      </trkpt>
      <trkpt lat="48.05861" lon="6.83777">
        <ele>872</ele>
        <time>2020-10-28T09:23:52.833Z</time>
      </trkpt>
      <trkpt lat="48.05861" lon="6.83779">
        <ele>873</ele>
        <time>2020-10-28T09:23:53.834Z</time>
      </trkpt>
      <trkpt lat="48.05861" lon="6.83781">
        <ele>873</ele>
        <time>2020-10-28T09:23:54.834Z</time>
      </trkpt>
      <trkpt lat="48.05861" lon="6.83783">
        <ele>873</ele>
        <time>2020-10-28T09:23:55.834Z</time>
      </trkpt>
      <trkpt lat="48.0586" lon="6.83785">
        <ele>873</ele>
        <time>2020-10-28T09:23:56.834Z</time>
      </trkpt>
      <trkpt lat="48.0586" lon="6.83786">
        <ele>873</ele>
        <time>2020-10-28T09:23:57.833Z</time>
      </trkpt>
      <trkpt lat="48.0586" lon="6.83788">
        <ele>873</ele>
        <time>2020-10-28T09:23:58.833Z</time>
      </trkpt>
      <trkpt lat="48.05859" lon="6.8379">
        <ele>873</ele>
        <time>2020-10-28T09:23:59.834Z</time>
      </trkpt>
      <trkpt lat="48.05859" lon="6.83793">
        <ele>873</ele>
        <time>2020-10-28T09:24:00.833Z</time>
      </trkpt>
      <trkpt lat="48.05859" lon="6.83795">
        <ele>873</ele>
        <time>2020-10-28T09:24:01.834Z</time>
      </trkpt>
      <trkpt lat="48.05859" lon="6.83797">
        <ele>873</ele>
        <time>2020-10-28T09:24:02.834Z</time>
      </trkpt>
      <trkpt lat="48.05858" lon="6.83798">
        <ele>873</ele>
        <time>2020-10-28T09:24:03.834Z</time>
      </trkpt>
      <trkpt lat="48.05858" lon="6.83799">
        <ele>873</ele>
        <time>2020-10-28T09:24:04.833Z</time>
      </trkpt>
      <trkpt lat="48.05857" lon="6.83801">
        <ele>873</ele>
        <time>2020-10-28T09:24:05.833Z</time>
      </trkpt>
      <trkpt lat="48.05856" lon="6.83803">
        <ele>873</ele>
        <time>2020-10-28T09:24:06.834Z</time>
      </trkpt>
      <trkpt lat="48.05856" lon="6.83806">
        <ele>873</ele>
        <time>2020-10-28T09:24:07.833Z</time>
      </trkpt>
      <trkpt lat="48.05855" lon="6.83808">
        <ele>873</ele>
        <time>2020-10-28T09:24:08.834Z</time>
      </trkpt>
      <trkpt lat="48.05855" lon="6.83809">
        <ele>873</ele>
        <time>2020-10-28T09:24:09.833Z</time>
      </trkpt>
      <trkpt lat="48.05854" lon="6.83812">
        <ele>872</ele>
        <time>2020-10-28T09:24:10.834Z</time>
      </trkpt>
      <trkpt lat="48.05854" lon="6.83813">
        <ele>872</ele>
        <time>2020-10-28T09:24:11.834Z</time>
      </trkpt>
      <trkpt lat="48.05853" lon="6.83815">
        <ele>872</ele>
        <time>2020-10-28T09:24:12.834Z</time>
      </trkpt>
      <trkpt lat="48.05853" lon="6.83816">
        <ele>872</ele>
        <time>2020-10-28T09:24:13.834Z</time>
      </trkpt>
      <trkpt lat="48.05852" lon="6.83818">
        <ele>871</ele>
        <time>2020-10-28T09:24:14.834Z</time>
      </trkpt>
      <trkpt lat="48.05851" lon="6.8382">
        <ele>871</ele>
        <time>2020-10-28T09:24:15.833Z</time>
      </trkpt>
      <trkpt lat="48.05851" lon="6.83821">
        <ele>870</ele>
        <time>2020-10-28T09:24:16.834Z</time>
      </trkpt>
      <trkpt lat="48.0585" lon="6.83823">
        <ele>870</ele>
        <time>2020-10-28T09:24:17.833Z</time>
      </trkpt>
      <trkpt lat="48.0585" lon="6.83824">
        <ele>870</ele>
        <time>2020-10-28T09:24:18.833Z</time>
      </trkpt>
      <trkpt lat="48.0585" lon="6.83826">
        <ele>870</ele>
        <time>2020-10-28T09:24:19.834Z</time>
      </trkpt>
      <trkpt lat="48.0585" lon="6.83828">
        <ele>870</ele>
        <time>2020-10-28T09:24:20.834Z</time>
      </trkpt>
      <trkpt lat="48.05849" lon="6.83829">
        <ele>870</ele>
        <time>2020-10-28T09:24:21.834Z</time>
      </trkpt>
      <trkpt lat="48.05849" lon="6.83831">
        <ele>870</ele>
        <time>2020-10-28T09:24:22.834Z</time>
      </trkpt>
      <trkpt lat="48.05848" lon="6.83833">
        <ele>871</ele>
        <time>2020-10-28T09:24:23.834Z</time>
      </trkpt>
      <trkpt lat="48.05848" lon="6.83834">
        <ele>871</ele>
        <time>2020-10-28T09:24:24.833Z</time>
      </trkpt>
      <trkpt lat="48.05847" lon="6.83836">
        <ele>871</ele>
        <time>2020-10-28T09:24:25.834Z</time>
      </trkpt>
      <trkpt lat="48.05846" lon="6.83839">
        <ele>871</ele>
        <time>2020-10-28T09:24:26.834Z</time>
      </trkpt>
      <trkpt lat="48.05846" lon="6.8384">
        <ele>872</ele>
        <time>2020-10-28T09:24:27.834Z</time>
      </trkpt>
      <trkpt lat="48.05846" lon="6.83843">
        <ele>872</ele>
        <time>2020-10-28T09:24:28.834Z</time>
      </trkpt>
      <trkpt lat="48.05846" lon="6.83844">
        <ele>872</ele>
        <time>2020-10-28T09:24:29.834Z</time>
      </trkpt>
      <trkpt lat="48.05846" lon="6.83847">
        <ele>872</ele>
        <time>2020-10-28T09:24:30.834Z</time>
      </trkpt>
      <trkpt lat="48.05846" lon="6.83849">
        <ele>872</ele>
        <time>2020-10-28T09:24:31.834Z</time>
      </trkpt>
      <trkpt lat="48.05847" lon="6.8385">
        <ele>873</ele>
        <time>2020-10-28T09:24:32.833Z</time>
      </trkpt>
      <trkpt lat="48.05847" lon="6.83852">
        <ele>873</ele>
        <time>2020-10-28T09:24:33.834Z</time>
      </trkpt>
      <trkpt lat="48.05848" lon="6.83854">
        <ele>873</ele>
        <time>2020-10-28T09:24:34.833Z</time>
      </trkpt>
      <trkpt lat="48.05848" lon="6.83856">
        <ele>873</ele>
        <time>2020-10-28T09:24:35.833Z</time>
      </trkpt>
      <trkpt lat="48.05849" lon="6.83858">
        <ele>873</ele>
        <time>2020-10-28T09:24:36.833Z</time>
      </trkpt>
      <trkpt lat="48.05849" lon="6.8386">
        <ele>874</ele>
        <time>2020-10-28T09:24:37.834Z</time>
      </trkpt>
      <trkpt lat="48.05849" lon="6.83861">
        <ele>874</ele>
        <time>2020-10-28T09:24:38.834Z</time>
      </trkpt>
      <trkpt lat="48.0585" lon="6.83863">
        <ele>874</ele>
        <time>2020-10-28T09:24:39.834Z</time>
      </trkpt>
      <trkpt lat="48.0585" lon="6.83865">
        <ele>874</ele>
        <time>2020-10-28T09:24:40.834Z</time>
      </trkpt>
      <trkpt lat="48.0585" lon="6.83867">
        <ele>875</ele>
        <time>2020-10-28T09:24:41.833Z</time>
      </trkpt>
      <trkpt lat="48.0585" lon="6.83868">
        <ele>875</ele>
        <time>2020-10-28T09:24:42.833Z</time>
      </trkpt>
      <trkpt lat="48.0585" lon="6.8387">
        <ele>875</ele>
        <time>2020-10-28T09:24:43.834Z</time>
      </trkpt>
      <trkpt lat="48.05851" lon="6.83872">
        <ele>875</ele>
        <time>2020-10-28T09:24:44.834Z</time>
      </trkpt>
      <trkpt lat="48.05851" lon="6.83875">
        <ele>875</ele>
        <time>2020-10-28T09:24:45.834Z</time>
      </trkpt>
      <trkpt lat="48.05851" lon="6.83877">
        <ele>875</ele>
        <time>2020-10-28T09:24:46.834Z</time>
      </trkpt>
      <trkpt lat="48.05852" lon="6.83879">
        <ele>875</ele>
        <time>2020-10-28T09:24:47.834Z</time>
      </trkpt>
      <trkpt lat="48.05852" lon="6.83881">
        <ele>875</ele>
        <time>2020-10-28T09:24:48.834Z</time>
      </trkpt>
      <trkpt lat="48.05852" lon="6.83883">
        <ele>874</ele>
        <time>2020-10-28T09:24:49.833Z</time>
      </trkpt>
      <trkpt lat="48.05852" lon="6.83884">
        <ele>874</ele>
        <time>2020-10-28T09:24:50.833Z</time>
      </trkpt>
      <trkpt lat="48.05853" lon="6.83887">
        <ele>873</ele>
        <time>2020-10-28T09:24:51.834Z</time>
      </trkpt>
      <trkpt lat="48.05854" lon="6.83889">
        <ele>873</ele>
        <time>2020-10-28T09:24:52.834Z</time>
      </trkpt>
      <trkpt lat="48.05855" lon="6.83892">
        <ele>872</ele>
        <time>2020-10-28T09:24:53.834Z</time>
      </trkpt>
      <trkpt lat="48.05855" lon="6.83893">
        <ele>872</ele>
        <time>2020-10-28T09:24:54.834Z</time>
      </trkpt>
      <trkpt lat="48.05855" lon="6.83894">
        <ele>872</ele>
        <time>2020-10-28T09:24:55.833Z</time>
      </trkpt>
      <trkpt lat="48.05855" lon="6.83896">
        <ele>872</ele>
        <time>2020-10-28T09:24:56.833Z</time>
      </trkpt>
      <trkpt lat="48.05856" lon="6.83898">
        <ele>872</ele>
        <time>2020-10-28T09:24:57.833Z</time>
      </trkpt>
      <trkpt lat="48.05856" lon="6.83901">
        <ele>872</ele>
        <time>2020-10-28T09:24:58.834Z</time>
      </trkpt>
      <trkpt lat="48.05856" lon="6.83902">
        <ele>872</ele>
        <time>2020-10-28T09:24:59.833Z</time>
      </trkpt>
      <trkpt lat="48.05855" lon="6.83905">
        <ele>873</ele>
        <time>2020-10-28T09:25:00.833Z</time>
      </trkpt>
      <trkpt lat="48.05854" lon="6.83907">
        <ele>873</ele>
        <time>2020-10-28T09:25:01.834Z</time>
      </trkpt>
      <trkpt lat="48.05854" lon="6.83909">
        <ele>874</ele>
        <time>2020-10-28T09:25:02.833Z</time>
      </trkpt>
      <trkpt lat="48.05854" lon="6.83911">
        <ele>874</ele>
        <time>2020-10-28T09:25:03.834Z</time>
      </trkpt>
      <trkpt lat="48.05854" lon="6.83913">
        <ele>875</ele>
        <time>2020-10-28T09:25:04.833Z</time>
      </trkpt>
      <trkpt lat="48.05854" lon="6.83915">
        <ele>875</ele>
        <time>2020-10-28T09:25:05.834Z</time>
      </trkpt>
      <trkpt lat="48.05854" lon="6.83918">
        <ele>876</ele>
        <time>2020-10-28T09:25:06.833Z</time>
      </trkpt>
      <trkpt lat="48.05854" lon="6.8392">
        <ele>876</ele>
        <time>2020-10-28T09:25:07.833Z</time>
      </trkpt>
      <trkpt lat="48.05853" lon="6.83923">
        <ele>877</ele>
        <time>2020-10-28T09:25:08.833Z</time>
      </trkpt>
      <trkpt lat="48.05853" lon="6.83925">
        <ele>877</ele>
        <time>2020-10-28T09:25:09.833Z</time>
      </trkpt>
      <trkpt lat="48.05853" lon="6.83927">
        <ele>877</ele>
        <time>2020-10-28T09:25:10.833Z</time>
      </trkpt>
      <trkpt lat="48.05853" lon="6.83928">
        <ele>877</ele>
        <time>2020-10-28T09:25:11.833Z</time>
      </trkpt>
      <trkpt lat="48.05853" lon="6.8393">
        <ele>877</ele>
        <time>2020-10-28T09:25:12.833Z</time>
      </trkpt>
      <trkpt lat="48.05853" lon="6.83931">
        <ele>877</ele>
        <time>2020-10-28T09:25:13.834Z</time>
      </trkpt>
      <trkpt lat="48.05853" lon="6.83934">
        <ele>877</ele>
        <time>2020-10-28T09:25:14.834Z</time>
      </trkpt>
      <trkpt lat="48.05853" lon="6.83936">
        <ele>877</ele>
        <time>2020-10-28T09:25:15.834Z</time>
      </trkpt>
      <trkpt lat="48.05853" lon="6.83938">
        <ele>877</ele>
        <time>2020-10-28T09:25:16.834Z</time>
      </trkpt>
      <trkpt lat="48.05853" lon="6.8394">
        <ele>877</ele>
        <time>2020-10-28T09:25:17.834Z</time>
      </trkpt>
      <trkpt lat="48.05853" lon="6.83942">
        <ele>877</ele>
        <time>2020-10-28T09:25:18.834Z</time>
      </trkpt>
      <trkpt lat="48.05853" lon="6.83944">
        <ele>877</ele>
        <time>2020-10-28T09:25:19.834Z</time>
      </trkpt>
      <trkpt lat="48.05853" lon="6.83946">
        <ele>877</ele>
        <time>2020-10-28T09:25:20.833Z</time>
      </trkpt>
      <trkpt lat="48.05852" lon="6.83949">
        <ele>877</ele>
        <time>2020-10-28T09:25:21.834Z</time>
      </trkpt>
      <trkpt lat="48.05853" lon="6.83951">
        <ele>877</ele>
        <time>2020-10-28T09:25:22.834Z</time>
      </trkpt>
      <trkpt lat="48.05854" lon="6.83954">
        <ele>877</ele>
        <time>2020-10-28T09:25:23.833Z</time>
      </trkpt>
      <trkpt lat="48.05854" lon="6.83956">
        <ele>877</ele>
        <time>2020-10-28T09:25:24.834Z</time>
      </trkpt>
      <trkpt lat="48.05854" lon="6.8396">
        <ele>877</ele>
        <time>2020-10-28T09:25:25.834Z</time>
      </trkpt>
      <trkpt lat="48.05854" lon="6.83962">
        <ele>877</ele>
        <time>2020-10-28T09:25:26.833Z</time>
      </trkpt>
      <trkpt lat="48.05854" lon="6.83965">
        <ele>877</ele>
        <time>2020-10-28T09:25:27.834Z</time>
      </trkpt>
      <trkpt lat="48.05854" lon="6.83967">
        <ele>877</ele>
        <time>2020-10-28T09:25:28.834Z</time>
      </trkpt>
      <trkpt lat="48.05855" lon="6.83969">
        <ele>877</ele>
        <time>2020-10-28T09:25:29.833Z</time>
      </trkpt>
      <trkpt lat="48.05855" lon="6.83971">
        <ele>878</ele>
        <time>2020-10-28T09:25:30.833Z</time>
      </trkpt>
      <trkpt lat="48.05854" lon="6.83973">
        <ele>878</ele>
        <time>2020-10-28T09:25:31.834Z</time>
      </trkpt>
      <trkpt lat="48.05853" lon="6.83974">
        <ele>878</ele>
        <time>2020-10-28T09:25:32.833Z</time>
      </trkpt>
      <trkpt lat="48.05852" lon="6.83974">
        <ele>878</ele>
        <time>2020-10-28T09:25:33.833Z</time>
      </trkpt>
      <trkpt lat="48.0585" lon="6.83974">
        <ele>878</ele>
        <time>2020-10-28T09:25:34.833Z</time>
      </trkpt>
      <trkpt lat="48.0585" lon="6.83974">
        <ele>878</ele>
        <time>2020-10-28T09:25:35.834Z</time>
      </trkpt>
      <trkpt lat="48.05848" lon="6.83974">
        <ele>879</ele>
        <time>2020-10-28T09:25:36.834Z</time>
      </trkpt>
      <trkpt lat="48.05847" lon="6.83974">
        <ele>879</ele>
        <time>2020-10-28T09:25:37.834Z</time>
      </trkpt>
      <trkpt lat="48.05847" lon="6.83975">
        <ele>879</ele>
        <time>2020-10-28T09:25:38.834Z</time>
      </trkpt>
      <trkpt lat="48.05846" lon="6.83975">
        <ele>879</ele>
        <time>2020-10-28T09:25:39.834Z</time>
      </trkpt>
      <trkpt lat="48.05844" lon="6.83974">
        <ele>879</ele>
        <time>2020-10-28T09:25:40.834Z</time>
      </trkpt>
      <trkpt lat="48.05845" lon="6.83973">
        <ele>878</ele>
        <time>2020-10-28T09:25:41.835Z</time>
      </trkpt>
      <trkpt lat="48.05846" lon="6.83972">
        <ele>877</ele>
        <time>2020-10-28T09:25:42.834Z</time>
      </trkpt>
      <trkpt lat="48.05847" lon="6.83971">
        <ele>876</ele>
        <time>2020-10-28T09:25:43.835Z</time>
      </trkpt>
      <trkpt lat="48.05847" lon="6.83971">
        <ele>876</ele>
        <time>2020-10-28T09:25:44.834Z</time>
      </trkpt>
      <trkpt lat="48.05847" lon="6.83971">
        <ele>875</ele>
        <time>2020-10-28T09:25:45.835Z</time>
      </trkpt>
      <trkpt lat="48.05852" lon="6.83975">
        <ele>875</ele>
        <time>2020-10-28T09:25:46.834Z</time>
      </trkpt>
      <trkpt lat="48.05853" lon="6.83978">
        <ele>875</ele>
        <time>2020-10-28T09:25:47.835Z</time>
      </trkpt>
      <trkpt lat="48.05853" lon="6.8398">
        <ele>875</ele>
        <time>2020-10-28T09:25:48.834Z</time>
      </trkpt>
      <trkpt lat="48.05854" lon="6.83982">
        <ele>874</ele>
        <time>2020-10-28T09:25:49.835Z</time>
      </trkpt>
      <trkpt lat="48.05855" lon="6.83985">
        <ele>874</ele>
        <time>2020-10-28T09:25:50.835Z</time>
      </trkpt>
      <trkpt lat="48.05855" lon="6.83987">
        <ele>874</ele>
        <time>2020-10-28T09:25:51.834Z</time>
      </trkpt>
      <trkpt lat="48.05855" lon="6.83989">
        <ele>874</ele>
        <time>2020-10-28T09:25:52.834Z</time>
      </trkpt>
      <trkpt lat="48.05856" lon="6.83991">
        <ele>873</ele>
        <time>2020-10-28T09:25:53.834Z</time>
      </trkpt>
      <trkpt lat="48.05857" lon="6.83992">
        <ele>873</ele>
        <time>2020-10-28T09:25:54.834Z</time>
      </trkpt>
      <trkpt lat="48.05857" lon="6.83994">
        <ele>873</ele>
        <time>2020-10-28T09:25:55.835Z</time>
      </trkpt>
      <trkpt lat="48.05857" lon="6.83996">
        <ele>873</ele>
        <time>2020-10-28T09:25:56.835Z</time>
      </trkpt>
      <trkpt lat="48.05857" lon="6.83998">
        <ele>872</ele>
        <time>2020-10-28T09:25:57.835Z</time>
      </trkpt>
      <trkpt lat="48.05857" lon="6.83999">
        <ele>871</ele>
        <time>2020-10-28T09:25:58.835Z</time>
      </trkpt>
      <trkpt lat="48.05857" lon="6.84001">
        <ele>871</ele>
        <time>2020-10-28T09:25:59.835Z</time>
      </trkpt>
      <trkpt lat="48.05858" lon="6.84002">
        <ele>871</ele>
        <time>2020-10-28T09:26:00.835Z</time>
      </trkpt>
      <trkpt lat="48.05858" lon="6.84005">
        <ele>870</ele>
        <time>2020-10-28T09:26:01.835Z</time>
      </trkpt>
      <trkpt lat="48.05858" lon="6.84008">
        <ele>870</ele>
        <time>2020-10-28T09:26:02.835Z</time>
      </trkpt>
      <trkpt lat="48.05857" lon="6.8401">
        <ele>869</ele>
        <time>2020-10-28T09:26:03.835Z</time>
      </trkpt>
      <trkpt lat="48.05857" lon="6.84012">
        <ele>869</ele>
        <time>2020-10-28T09:26:04.835Z</time>
      </trkpt>
      <trkpt lat="48.05856" lon="6.84015">
        <ele>868</ele>
        <time>2020-10-28T09:26:05.835Z</time>
      </trkpt>
      <trkpt lat="48.05856" lon="6.84017">
        <ele>867</ele>
        <time>2020-10-28T09:26:06.835Z</time>
      </trkpt>
      <trkpt lat="48.05856" lon="6.8402">
        <ele>867</ele>
        <time>2020-10-28T09:26:07.835Z</time>
      </trkpt>
      <trkpt lat="48.05856" lon="6.84023">
        <ele>866</ele>
        <time>2020-10-28T09:26:08.834Z</time>
      </trkpt>
      <trkpt lat="48.05856" lon="6.84025">
        <ele>866</ele>
        <time>2020-10-28T09:26:09.835Z</time>
      </trkpt>
      <trkpt lat="48.05857" lon="6.84028">
        <ele>866</ele>
        <time>2020-10-28T09:26:10.835Z</time>
      </trkpt>
      <trkpt lat="48.05857" lon="6.84031">
        <ele>866</ele>
        <time>2020-10-28T09:26:11.835Z</time>
      </trkpt>
      <trkpt lat="48.05859" lon="6.84033">
        <ele>866</ele>
        <time>2020-10-28T09:26:12.834Z</time>
      </trkpt>
      <trkpt lat="48.0586" lon="6.84036">
        <ele>866</ele>
        <time>2020-10-28T09:26:13.835Z</time>
      </trkpt>
      <trkpt lat="48.05861" lon="6.84039">
        <ele>867</ele>
        <time>2020-10-28T09:26:14.834Z</time>
      </trkpt>
      <trkpt lat="48.05861" lon="6.84042">
        <ele>868</ele>
        <time>2020-10-28T09:26:15.835Z</time>
      </trkpt>
      <trkpt lat="48.05863" lon="6.84044">
        <ele>868</ele>
        <time>2020-10-28T09:26:16.835Z</time>
      </trkpt>
      <trkpt lat="48.05863" lon="6.84048">
        <ele>869</ele>
        <time>2020-10-28T09:26:17.835Z</time>
      </trkpt>
      <trkpt lat="48.05864" lon="6.8405">
        <ele>870</ele>
        <time>2020-10-28T09:26:18.835Z</time>
      </trkpt>
      <trkpt lat="48.05865" lon="6.84053">
        <ele>871</ele>
        <time>2020-10-28T09:26:19.835Z</time>
      </trkpt>
      <trkpt lat="48.05867" lon="6.84055">
        <ele>872</ele>
        <time>2020-10-28T09:26:20.835Z</time>
      </trkpt>
      <trkpt lat="48.05868" lon="6.84057">
        <ele>873</ele>
        <time>2020-10-28T09:26:21.835Z</time>
      </trkpt>
      <trkpt lat="48.05869" lon="6.8406">
        <ele>874</ele>
        <time>2020-10-28T09:26:22.835Z</time>
      </trkpt>
      <trkpt lat="48.05869" lon="6.84062">
        <ele>875</ele>
        <time>2020-10-28T09:26:23.835Z</time>
      </trkpt>
      <trkpt lat="48.05869" lon="6.84066">
        <ele>876</ele>
        <time>2020-10-28T09:26:24.835Z</time>
      </trkpt>
      <trkpt lat="48.05868" lon="6.84068">
        <ele>877</ele>
        <time>2020-10-28T09:26:25.835Z</time>
      </trkpt>
      <trkpt lat="48.05869" lon="6.84069">
        <ele>878</ele>
        <time>2020-10-28T09:26:26.834Z</time>
      </trkpt>
      <trkpt lat="48.05869" lon="6.84072">
        <ele>879</ele>
        <time>2020-10-28T09:26:27.835Z</time>
      </trkpt>
      <trkpt lat="48.0587" lon="6.84074">
        <ele>880</ele>
        <time>2020-10-28T09:26:28.834Z</time>
      </trkpt>
      <trkpt lat="48.0587" lon="6.84076">
        <ele>881</ele>
        <time>2020-10-28T09:26:29.835Z</time>
      </trkpt>
      <trkpt lat="48.05869" lon="6.84078">
        <ele>882</ele>
        <time>2020-10-28T09:26:30.835Z</time>
      </trkpt>
      <trkpt lat="48.0587" lon="6.8408">
        <ele>883</ele>
        <time>2020-10-28T09:26:31.835Z</time>
      </trkpt>
      <trkpt lat="48.0587" lon="6.84081">
        <ele>883</ele>
        <time>2020-10-28T09:26:32.834Z</time>
      </trkpt>
      <trkpt lat="48.05869" lon="6.84083">
        <ele>884</ele>
        <time>2020-10-28T09:26:33.835Z</time>
      </trkpt>
      <trkpt lat="48.05869" lon="6.84084">
        <ele>885</ele>
        <time>2020-10-28T09:26:34.835Z</time>
      </trkpt>
      <trkpt lat="48.05869" lon="6.84085">
        <ele>885</ele>
        <time>2020-10-28T09:26:35.835Z</time>
      </trkpt>
      <trkpt lat="48.05869" lon="6.84086">
        <ele>885</ele>
        <time>2020-10-28T09:26:36.834Z</time>
      </trkpt>
      <trkpt lat="48.0587" lon="6.84088">
        <ele>886</ele>
        <time>2020-10-28T09:26:37.835Z</time>
      </trkpt>
      <trkpt lat="48.05869" lon="6.84091">
        <ele>886</ele>
        <time>2020-10-28T09:26:38.835Z</time>
      </trkpt>
      <trkpt lat="48.05869" lon="6.84094">
        <ele>886</ele>
        <time>2020-10-28T09:26:39.835Z</time>
      </trkpt>
      <trkpt lat="48.05869" lon="6.84096">
        <ele>886</ele>
        <time>2020-10-28T09:26:40.835Z</time>
      </trkpt>
      <trkpt lat="48.05869" lon="6.84097">
        <ele>886</ele>
        <time>2020-10-28T09:26:41.834Z</time>
      </trkpt>
      <trkpt lat="48.05868" lon="6.84099">
        <ele>886</ele>
        <time>2020-10-28T09:26:42.834Z</time>
      </trkpt>
      <trkpt lat="48.05867" lon="6.841">
        <ele>886</ele>
        <time>2020-10-28T09:26:43.834Z</time>
      </trkpt>
      <trkpt lat="48.05866" lon="6.84103">
        <ele>885</ele>
        <time>2020-10-28T09:26:44.834Z</time>
      </trkpt>
      <trkpt lat="48.05865" lon="6.84105">
        <ele>885</ele>
        <time>2020-10-28T09:26:45.835Z</time>
      </trkpt>
      <trkpt lat="48.05864" lon="6.84107">
        <ele>884</ele>
        <time>2020-10-28T09:26:46.835Z</time>
      </trkpt>
      <trkpt lat="48.05864" lon="6.84109">
        <ele>883</ele>
        <time>2020-10-28T09:26:47.835Z</time>
      </trkpt>
      <trkpt lat="48.05864" lon="6.84111">
        <ele>883</ele>
        <time>2020-10-28T09:26:48.835Z</time>
      </trkpt>
      <trkpt lat="48.05863" lon="6.84113">
        <ele>882</ele>
        <time>2020-10-28T09:26:49.834Z</time>
      </trkpt>
      <trkpt lat="48.05862" lon="6.84114">
        <ele>882</ele>
        <time>2020-10-28T09:26:50.835Z</time>
      </trkpt>
      <trkpt lat="48.05861" lon="6.84116">
        <ele>881</ele>
        <time>2020-10-28T09:26:51.835Z</time>
      </trkpt>
      <trkpt lat="48.0586" lon="6.84118">
        <ele>881</ele>
        <time>2020-10-28T09:26:52.835Z</time>
      </trkpt>
      <trkpt lat="48.0586" lon="6.8412">
        <ele>881</ele>
        <time>2020-10-28T09:26:53.835Z</time>
      </trkpt>
      <trkpt lat="48.0586" lon="6.84122">
        <ele>880</ele>
        <time>2020-10-28T09:26:54.834Z</time>
      </trkpt>
      <trkpt lat="48.05859" lon="6.84124">
        <ele>880</ele>
        <time>2020-10-28T09:26:55.835Z</time>
      </trkpt>
      <trkpt lat="48.05859" lon="6.84126">
        <ele>880</ele>
        <time>2020-10-28T09:26:56.835Z</time>
      </trkpt>
      <trkpt lat="48.05858" lon="6.84128">
        <ele>880</ele>
        <time>2020-10-28T09:26:57.834Z</time>
      </trkpt>
      <trkpt lat="48.05857" lon="6.84129">
        <ele>880</ele>
        <time>2020-10-28T09:26:58.835Z</time>
      </trkpt>
      <trkpt lat="48.05857" lon="6.8413">
        <ele>880</ele>
        <time>2020-10-28T09:26:59.835Z</time>
      </trkpt>
      <trkpt lat="48.05856" lon="6.84131">
        <ele>880</ele>
        <time>2020-10-28T09:27:00.834Z</time>
      </trkpt>
      <trkpt lat="48.05856" lon="6.84132">
        <ele>880</ele>
        <time>2020-10-28T09:27:01.835Z</time>
      </trkpt>
      <trkpt lat="48.05855" lon="6.84133">
        <ele>880</ele>
        <time>2020-10-28T09:27:02.835Z</time>
      </trkpt>
      <trkpt lat="48.05856" lon="6.84133">
        <ele>880</ele>
        <time>2020-10-28T09:27:03.835Z</time>
      </trkpt>
      <trkpt lat="48.05856" lon="6.84133">
        <ele>880</ele>
        <time>2020-10-28T09:27:04.835Z</time>
      </trkpt>
      <trkpt lat="48.05856" lon="6.84132">
        <ele>880</ele>
        <time>2020-10-28T09:27:05.834Z</time>
      </trkpt>
      <trkpt lat="48.05856" lon="6.84129">
        <ele>880</ele>
        <time>2020-10-28T09:27:06.834Z</time>
      </trkpt>
      <trkpt lat="48.05856" lon="6.84127">
        <ele>880</ele>
        <time>2020-10-28T09:27:07.835Z</time>
      </trkpt>
      <trkpt lat="48.05856" lon="6.84124">
        <ele>880</ele>
        <time>2020-10-28T09:27:08.834Z</time>
      </trkpt>
      <trkpt lat="48.05856" lon="6.84122">
        <ele>881</ele>
        <time>2020-10-28T09:27:09.835Z</time>
      </trkpt>
      <trkpt lat="48.05856" lon="6.8412">
        <ele>881</ele>
        <time>2020-10-28T09:27:10.834Z</time>
      </trkpt>
      <trkpt lat="48.05857" lon="6.84118">
        <ele>881</ele>
        <time>2020-10-28T09:27:11.835Z</time>
      </trkpt>
      <trkpt lat="48.05857" lon="6.84117">
        <ele>881</ele>
        <time>2020-10-28T09:27:12.835Z</time>
      </trkpt>
      <trkpt lat="48.05857" lon="6.84115">
        <ele>881</ele>
        <time>2020-10-28T09:27:13.835Z</time>
      </trkpt>
      <trkpt lat="48.05857" lon="6.84113">
        <ele>882</ele>
        <time>2020-10-28T09:27:14.835Z</time>
      </trkpt>
      <trkpt lat="48.05858" lon="6.84112">
        <ele>882</ele>
        <time>2020-10-28T09:27:15.835Z</time>
      </trkpt>
      <trkpt lat="48.05859" lon="6.8411">
        <ele>882</ele>
        <time>2020-10-28T09:27:16.835Z</time>
      </trkpt>
      <trkpt lat="48.05859" lon="6.84108">
        <ele>882</ele>
        <time>2020-10-28T09:27:17.835Z</time>
      </trkpt>
      <trkpt lat="48.0586" lon="6.84106">
        <ele>882</ele>
        <time>2020-10-28T09:27:18.835Z</time>
      </trkpt>
      <trkpt lat="48.0586" lon="6.84104">
        <ele>882</ele>
        <time>2020-10-28T09:27:19.835Z</time>
      </trkpt>
      <trkpt lat="48.05861" lon="6.84102">
        <ele>883</ele>
        <time>2020-10-28T09:27:20.835Z</time>
      </trkpt>
      <trkpt lat="48.05862" lon="6.841">
        <ele>883</ele>
        <time>2020-10-28T09:27:21.835Z</time>
      </trkpt>
      <trkpt lat="48.05862" lon="6.84097">
        <ele>883</ele>
        <time>2020-10-28T09:27:22.835Z</time>
      </trkpt>
      <trkpt lat="48.05863" lon="6.84096">
        <ele>883</ele>
        <time>2020-10-28T09:27:23.835Z</time>
      </trkpt>
      <trkpt lat="48.05864" lon="6.84094">
        <ele>883</ele>
        <time>2020-10-28T09:27:24.835Z</time>
      </trkpt>
      <trkpt lat="48.05865" lon="6.84094">
        <ele>883</ele>
        <time>2020-10-28T09:27:25.834Z</time>
      </trkpt>
      <trkpt lat="48.05867" lon="6.84093">
        <ele>883</ele>
        <time>2020-10-28T09:27:26.835Z</time>
      </trkpt>
      <trkpt lat="48.05868" lon="6.84092">
        <ele>883</ele>
        <time>2020-10-28T09:27:27.835Z</time>
      </trkpt>
      <trkpt lat="48.05869" lon="6.8409">
        <ele>883</ele>
        <time>2020-10-28T09:27:28.835Z</time>
      </trkpt>
      <trkpt lat="48.0587" lon="6.84089">
        <ele>883</ele>
        <time>2020-10-28T09:27:29.834Z</time>
      </trkpt>
      <trkpt lat="48.05871" lon="6.84088">
        <ele>882</ele>
        <time>2020-10-28T09:27:30.835Z</time>
      </trkpt>
      <trkpt lat="48.05872" lon="6.84087">
        <ele>883</ele>
        <time>2020-10-28T09:27:31.835Z</time>
      </trkpt>
      <trkpt lat="48.05874" lon="6.84087">
        <ele>883</ele>
        <time>2020-10-28T09:27:32.835Z</time>
      </trkpt>
      <trkpt lat="48.05875" lon="6.84086">
        <ele>883</ele>
        <time>2020-10-28T09:27:33.835Z</time>
      </trkpt>
      <trkpt lat="48.05876" lon="6.84084">
        <ele>883</ele>
        <time>2020-10-28T09:27:34.835Z</time>
      </trkpt>
      <trkpt lat="48.05876" lon="6.84082">
        <ele>884</ele>
        <time>2020-10-28T09:27:35.835Z</time>
      </trkpt>
      <trkpt lat="48.05876" lon="6.84081">
        <ele>884</ele>
        <time>2020-10-28T09:27:36.835Z</time>
      </trkpt>
      <trkpt lat="48.05877" lon="6.84079">
        <ele>884</ele>
        <time>2020-10-28T09:27:37.835Z</time>
      </trkpt>
      <trkpt lat="48.05878" lon="6.84078">
        <ele>884</ele>
        <time>2020-10-28T09:27:38.835Z</time>
      </trkpt>
      <trkpt lat="48.05879" lon="6.84076">
        <ele>885</ele>
        <time>2020-10-28T09:27:39.834Z</time>
      </trkpt>
      <trkpt lat="48.0588" lon="6.84075">
        <ele>885</ele>
        <time>2020-10-28T09:27:40.834Z</time>
      </trkpt>
      <trkpt lat="48.0588" lon="6.84074">
        <ele>885</ele>
        <time>2020-10-28T09:27:41.835Z</time>
      </trkpt>
      <trkpt lat="48.05881" lon="6.84073">
        <ele>885</ele>
        <time>2020-10-28T09:27:42.835Z</time>
      </trkpt>
      <trkpt lat="48.05882" lon="6.84071">
        <ele>885</ele>
        <time>2020-10-28T09:27:43.835Z</time>
      </trkpt>
      <trkpt lat="48.05883" lon="6.8407">
        <ele>885</ele>
        <time>2020-10-28T09:27:44.834Z</time>
      </trkpt>
      <trkpt lat="48.05884" lon="6.84069">
        <ele>885</ele>
        <time>2020-10-28T09:27:45.835Z</time>
      </trkpt>
      <trkpt lat="48.05885" lon="6.84069">
        <ele>885</ele>
        <time>2020-10-28T09:27:46.835Z</time>
      </trkpt>
      <trkpt lat="48.05885" lon="6.84068">
        <ele>885</ele>
        <time>2020-10-28T09:27:47.835Z</time>
      </trkpt>
      <trkpt lat="48.05886" lon="6.84066">
        <ele>885</ele>
        <time>2020-10-28T09:27:48.835Z</time>
      </trkpt>
      <trkpt lat="48.05887" lon="6.84066">
        <ele>885</ele>
        <time>2020-10-28T09:27:49.835Z</time>
      </trkpt>
      <trkpt lat="48.05889" lon="6.84065">
        <ele>885</ele>
        <time>2020-10-28T09:27:50.835Z</time>
      </trkpt>
      <trkpt lat="48.0589" lon="6.84065">
        <ele>885</ele>
        <time>2020-10-28T09:27:51.835Z</time>
      </trkpt>
      <trkpt lat="48.05891" lon="6.84064">
        <ele>885</ele>
        <time>2020-10-28T09:27:52.835Z</time>
      </trkpt>
      <trkpt lat="48.05893" lon="6.84064">
        <ele>885</ele>
        <time>2020-10-28T09:27:53.834Z</time>
      </trkpt>
      <trkpt lat="48.05894" lon="6.84062">
        <ele>885</ele>
        <time>2020-10-28T09:27:54.835Z</time>
      </trkpt>
      <trkpt lat="48.05896" lon="6.8406">
        <ele>885</ele>
        <time>2020-10-28T09:27:55.835Z</time>
      </trkpt>
      <trkpt lat="48.05897" lon="6.84059">
        <ele>885</ele>
        <time>2020-10-28T09:27:56.835Z</time>
      </trkpt>
      <trkpt lat="48.05899" lon="6.84058">
        <ele>885</ele>
        <time>2020-10-28T09:27:57.835Z</time>
      </trkpt>
      <trkpt lat="48.059" lon="6.84057">
        <ele>885</ele>
        <time>2020-10-28T09:27:58.834Z</time>
      </trkpt>
      <trkpt lat="48.05901" lon="6.84056">
        <ele>884</ele>
        <time>2020-10-28T09:27:59.835Z</time>
      </trkpt>
      <trkpt lat="48.05902" lon="6.84055">
        <ele>884</ele>
        <time>2020-10-28T09:28:00.835Z</time>
      </trkpt>
      <trkpt lat="48.05903" lon="6.84054">
        <ele>884</ele>
        <time>2020-10-28T09:28:01.835Z</time>
      </trkpt>
      <trkpt lat="48.05903" lon="6.84053">
        <ele>884</ele>
        <time>2020-10-28T09:28:02.835Z</time>
      </trkpt>
      <trkpt lat="48.05904" lon="6.84051">
        <ele>884</ele>
        <time>2020-10-28T09:28:03.834Z</time>
      </trkpt>
      <trkpt lat="48.05905" lon="6.8405">
        <ele>884</ele>
        <time>2020-10-28T09:28:04.834Z</time>
      </trkpt>
      <trkpt lat="48.05906" lon="6.84049">
        <ele>884</ele>
        <time>2020-10-28T09:28:05.834Z</time>
      </trkpt>
      <trkpt lat="48.05907" lon="6.84047">
        <ele>884</ele>
        <time>2020-10-28T09:28:06.835Z</time>
      </trkpt>
      <trkpt lat="48.05909" lon="6.84046">
        <ele>884</ele>
        <time>2020-10-28T09:28:07.835Z</time>
      </trkpt>
      <trkpt lat="48.0591" lon="6.84046">
        <ele>884</ele>
        <time>2020-10-28T09:28:08.835Z</time>
      </trkpt>
      <trkpt lat="48.05911" lon="6.84045">
        <ele>884</ele>
        <time>2020-10-28T09:28:09.835Z</time>
      </trkpt>
      <trkpt lat="48.05912" lon="6.84044">
        <ele>884</ele>
        <time>2020-10-28T09:28:10.835Z</time>
      </trkpt>
      <trkpt lat="48.05913" lon="6.84043">
        <ele>884</ele>
        <time>2020-10-28T09:28:11.835Z</time>
      </trkpt>
      <trkpt lat="48.05914" lon="6.84042">
        <ele>884</ele>
        <time>2020-10-28T09:28:12.835Z</time>
      </trkpt>
      <trkpt lat="48.05915" lon="6.8404">
        <ele>884</ele>
        <time>2020-10-28T09:28:13.835Z</time>
      </trkpt>
      <trkpt lat="48.05917" lon="6.84038">
        <ele>883</ele>
        <time>2020-10-28T09:28:14.834Z</time>
      </trkpt>
      <trkpt lat="48.05918" lon="6.84036">
        <ele>883</ele>
        <time>2020-10-28T09:28:15.835Z</time>
      </trkpt>
      <trkpt lat="48.05919" lon="6.84034">
        <ele>883</ele>
        <time>2020-10-28T09:28:16.835Z</time>
      </trkpt>
      <trkpt lat="48.0592" lon="6.84032">
        <ele>883</ele>
        <time>2020-10-28T09:28:17.835Z</time>
      </trkpt>
      <trkpt lat="48.0592" lon="6.84031">
        <ele>883</ele>
        <time>2020-10-28T09:28:18.835Z</time>
      </trkpt>
      <trkpt lat="48.05921" lon="6.84029">
        <ele>882</ele>
        <time>2020-10-28T09:28:19.835Z</time>
      </trkpt>
      <trkpt lat="48.05922" lon="6.84027">
        <ele>882</ele>
        <time>2020-10-28T09:28:20.835Z</time>
      </trkpt>
      <trkpt lat="48.05924" lon="6.84026">
        <ele>882</ele>
        <time>2020-10-28T09:28:21.835Z</time>
      </trkpt>
      <trkpt lat="48.05925" lon="6.84023">
        <ele>883</ele>
        <time>2020-10-28T09:28:22.834Z</time>
      </trkpt>
      <trkpt lat="48.05927" lon="6.8402">
        <ele>883</ele>
        <time>2020-10-28T09:28:23.835Z</time>
      </trkpt>
      <trkpt lat="48.0593" lon="6.84019">
        <ele>884</ele>
        <time>2020-10-28T09:28:24.835Z</time>
      </trkpt>
      <trkpt lat="48.05932" lon="6.84017">
        <ele>885</ele>
        <time>2020-10-28T09:28:25.835Z</time>
      </trkpt>
      <trkpt lat="48.05932" lon="6.84015">
        <ele>885</ele>
        <time>2020-10-28T09:28:26.835Z</time>
      </trkpt>
      <trkpt lat="48.05933" lon="6.84014">
        <ele>885</ele>
        <time>2020-10-28T09:28:27.834Z</time>
      </trkpt>
      <trkpt lat="48.05935" lon="6.84013">
        <ele>885</ele>
        <time>2020-10-28T09:28:28.834Z</time>
      </trkpt>
      <trkpt lat="48.05937" lon="6.84012">
        <ele>885</ele>
        <time>2020-10-28T09:28:29.835Z</time>
      </trkpt>
      <trkpt lat="48.05938" lon="6.8401">
        <ele>885</ele>
        <time>2020-10-28T09:28:30.835Z</time>
      </trkpt>
      <trkpt lat="48.0594" lon="6.84009">
        <ele>885</ele>
        <time>2020-10-28T09:28:31.835Z</time>
      </trkpt>
      <trkpt lat="48.05941" lon="6.84007">
        <ele>885</ele>
        <time>2020-10-28T09:28:32.835Z</time>
      </trkpt>
      <trkpt lat="48.05942" lon="6.84006">
        <ele>885</ele>
        <time>2020-10-28T09:28:33.834Z</time>
      </trkpt>
      <trkpt lat="48.05944" lon="6.84005">
        <ele>885</ele>
        <time>2020-10-28T09:28:34.835Z</time>
      </trkpt>
      <trkpt lat="48.05946" lon="6.84004">
        <ele>885</ele>
        <time>2020-10-28T09:28:35.835Z</time>
      </trkpt>
      <trkpt lat="48.05947" lon="6.84003">
        <ele>885</ele>
        <time>2020-10-28T09:28:36.835Z</time>
      </trkpt>
      <trkpt lat="48.05948" lon="6.84002">
        <ele>884</ele>
        <time>2020-10-28T09:28:37.835Z</time>
      </trkpt>
      <trkpt lat="48.0595" lon="6.84001">
        <ele>884</ele>
        <time>2020-10-28T09:28:38.835Z</time>
      </trkpt>
      <trkpt lat="48.05952" lon="6.84">
        <ele>884</ele>
        <time>2020-10-28T09:28:39.835Z</time>
      </trkpt>
      <trkpt lat="48.05954" lon="6.83999">
        <ele>885</ele>
        <time>2020-10-28T09:28:40.834Z</time>
      </trkpt>
      <trkpt lat="48.05955" lon="6.83999">
        <ele>885</ele>
        <time>2020-10-28T09:28:41.835Z</time>
      </trkpt>
      <trkpt lat="48.05956" lon="6.83999">
        <ele>885</ele>
        <time>2020-10-28T09:28:42.835Z</time>
      </trkpt>
      <trkpt lat="48.05957" lon="6.83998">
        <ele>885</ele>
        <time>2020-10-28T09:28:43.835Z</time>
      </trkpt>
      <trkpt lat="48.05959" lon="6.83997">
        <ele>885</ele>
        <time>2020-10-28T09:28:44.835Z</time>
      </trkpt>
      <trkpt lat="48.0596" lon="6.83997">
        <ele>886</ele>
        <time>2020-10-28T09:28:45.835Z</time>
      </trkpt>
      <trkpt lat="48.05962" lon="6.83996">
        <ele>885</ele>
        <time>2020-10-28T09:28:46.835Z</time>
      </trkpt>
      <trkpt lat="48.05963" lon="6.83996">
        <ele>885</ele>
        <time>2020-10-28T09:28:47.835Z</time>
      </trkpt>
      <trkpt lat="48.05965" lon="6.83996">
        <ele>885</ele>
        <time>2020-10-28T09:28:48.834Z</time>
      </trkpt>
      <trkpt lat="48.05966" lon="6.83995">
        <ele>885</ele>
        <time>2020-10-28T09:28:49.835Z</time>
      </trkpt>
      <trkpt lat="48.05967" lon="6.83995">
        <ele>885</ele>
        <time>2020-10-28T09:28:50.834Z</time>
      </trkpt>
      <trkpt lat="48.05968" lon="6.83995">
        <ele>885</ele>
        <time>2020-10-28T09:28:51.835Z</time>
      </trkpt>
      <trkpt lat="48.05969" lon="6.83994">
        <ele>885</ele>
        <time>2020-10-28T09:28:52.835Z</time>
      </trkpt>
      <trkpt lat="48.0597" lon="6.83993">
        <ele>885</ele>
        <time>2020-10-28T09:28:53.835Z</time>
      </trkpt>
      <trkpt lat="48.05971" lon="6.83993">
        <ele>885</ele>
        <time>2020-10-28T09:28:54.835Z</time>
      </trkpt>
      <trkpt lat="48.05973" lon="6.83993">
        <ele>885</ele>
        <time>2020-10-28T09:28:55.835Z</time>
      </trkpt>
      <trkpt lat="48.05973" lon="6.83992">
        <ele>886</ele>
        <time>2020-10-28T09:28:56.834Z</time>
      </trkpt>
      <trkpt lat="48.05974" lon="6.8399">
        <ele>886</ele>
        <time>2020-10-28T09:28:57.834Z</time>
      </trkpt>
      <trkpt lat="48.05976" lon="6.83989">
        <ele>886</ele>
        <time>2020-10-28T09:28:58.834Z</time>
      </trkpt>
      <trkpt lat="48.05978" lon="6.83989">
        <ele>886</ele>
        <time>2020-10-28T09:28:59.835Z</time>
      </trkpt>
      <trkpt lat="48.05979" lon="6.83988">
        <ele>886</ele>
        <time>2020-10-28T09:29:00.835Z</time>
      </trkpt>
      <trkpt lat="48.05981" lon="6.83987">
        <ele>887</ele>
        <time>2020-10-28T09:29:01.835Z</time>
      </trkpt>
      <trkpt lat="48.05983" lon="6.83988">
        <ele>887</ele>
        <time>2020-10-28T09:29:02.835Z</time>
      </trkpt>
      <trkpt lat="48.05985" lon="6.83987">
        <ele>888</ele>
        <time>2020-10-28T09:29:03.835Z</time>
      </trkpt>
      <trkpt lat="48.05987" lon="6.83986">
        <ele>888</ele>
        <time>2020-10-28T09:29:04.835Z</time>
      </trkpt>
      <trkpt lat="48.05988" lon="6.83984">
        <ele>889</ele>
        <time>2020-10-28T09:29:05.835Z</time>
      </trkpt>
      <trkpt lat="48.05989" lon="6.83984">
        <ele>890</ele>
        <time>2020-10-28T09:29:06.835Z</time>
      </trkpt>
      <trkpt lat="48.05991" lon="6.83985">
        <ele>890</ele>
        <time>2020-10-28T09:29:07.835Z</time>
      </trkpt>
      <trkpt lat="48.05992" lon="6.83984">
        <ele>891</ele>
        <time>2020-10-28T09:29:08.834Z</time>
      </trkpt>
      <trkpt lat="48.05994" lon="6.83985">
        <ele>892</ele>
        <time>2020-10-28T09:29:09.835Z</time>
      </trkpt>
      <trkpt lat="48.05996" lon="6.83986">
        <ele>893</ele>
        <time>2020-10-28T09:29:10.835Z</time>
      </trkpt>
      <trkpt lat="48.05997" lon="6.83986">
        <ele>894</ele>
        <time>2020-10-28T09:29:11.835Z</time>
      </trkpt>
      <trkpt lat="48.05999" lon="6.83986">
        <ele>894</ele>
        <time>2020-10-28T09:29:12.835Z</time>
      </trkpt>
      <trkpt lat="48.06" lon="6.83985">
        <ele>895</ele>
        <time>2020-10-28T09:29:13.834Z</time>
      </trkpt>
      <trkpt lat="48.06001" lon="6.83985">
        <ele>895</ele>
        <time>2020-10-28T09:29:14.835Z</time>
      </trkpt>
      <trkpt lat="48.06001" lon="6.83984">
        <ele>896</ele>
        <time>2020-10-28T09:29:15.835Z</time>
      </trkpt>
      <trkpt lat="48.06002" lon="6.83984">
        <ele>897</ele>
        <time>2020-10-28T09:29:16.835Z</time>
      </trkpt>
      <trkpt lat="48.06003" lon="6.83984">
        <ele>898</ele>
        <time>2020-10-28T09:29:17.835Z</time>
      </trkpt>
      <trkpt lat="48.06005" lon="6.83985">
        <ele>898</ele>
        <time>2020-10-28T09:29:18.835Z</time>
      </trkpt>
      <trkpt lat="48.06005" lon="6.83985">
        <ele>898</ele>
        <time>2020-10-28T09:29:19.835Z</time>
      </trkpt>
      <trkpt lat="48.06007" lon="6.83985">
        <ele>898</ele>
        <time>2020-10-28T09:29:20.835Z</time>
      </trkpt>
      <trkpt lat="48.06008" lon="6.83984">
        <ele>898</ele>
        <time>2020-10-28T09:29:21.835Z</time>
      </trkpt>
      <trkpt lat="48.0601" lon="6.83984">
        <ele>898</ele>
        <time>2020-10-28T09:29:22.835Z</time>
      </trkpt>
      <trkpt lat="48.06011" lon="6.83984">
        <ele>899</ele>
        <time>2020-10-28T09:29:23.835Z</time>
      </trkpt>
      <trkpt lat="48.06012" lon="6.83984">
        <ele>899</ele>
        <time>2020-10-28T09:29:24.835Z</time>
      </trkpt>
      <trkpt lat="48.06013" lon="6.83984">
        <ele>899</ele>
        <time>2020-10-28T09:29:25.835Z</time>
      </trkpt>
      <trkpt lat="48.06014" lon="6.83984">
        <ele>899</ele>
        <time>2020-10-28T09:29:26.835Z</time>
      </trkpt>
      <trkpt lat="48.06015" lon="6.83983">
        <ele>900</ele>
        <time>2020-10-28T09:29:27.835Z</time>
      </trkpt>
      <trkpt lat="48.06016" lon="6.83983">
        <ele>900</ele>
        <time>2020-10-28T09:29:28.835Z</time>
      </trkpt>
      <trkpt lat="48.06017" lon="6.83983">
        <ele>901</ele>
        <time>2020-10-28T09:29:29.835Z</time>
      </trkpt>
      <trkpt lat="48.06019" lon="6.83983">
        <ele>901</ele>
        <time>2020-10-28T09:29:30.835Z</time>
      </trkpt>
      <trkpt lat="48.06021" lon="6.83982">
        <ele>902</ele>
        <time>2020-10-28T09:29:31.835Z</time>
      </trkpt>
      <trkpt lat="48.06022" lon="6.83982">
        <ele>903</ele>
        <time>2020-10-28T09:29:32.835Z</time>
      </trkpt>
      <trkpt lat="48.06024" lon="6.83982">
        <ele>903</ele>
        <time>2020-10-28T09:29:33.835Z</time>
      </trkpt>
      <trkpt lat="48.06025" lon="6.83983">
        <ele>904</ele>
        <time>2020-10-28T09:29:34.835Z</time>
      </trkpt>
      <trkpt lat="48.06026" lon="6.83983">
        <ele>904</ele>
        <time>2020-10-28T09:29:35.835Z</time>
      </trkpt>
      <trkpt lat="48.06029" lon="6.83983">
        <ele>904</ele>
        <time>2020-10-28T09:29:36.834Z</time>
      </trkpt>
      <trkpt lat="48.06031" lon="6.83983">
        <ele>905</ele>
        <time>2020-10-28T09:29:37.835Z</time>
      </trkpt>
      <trkpt lat="48.06032" lon="6.83983">
        <ele>905</ele>
        <time>2020-10-28T09:29:38.835Z</time>
      </trkpt>
      <trkpt lat="48.06033" lon="6.83983">
        <ele>905</ele>
        <time>2020-10-28T09:29:39.835Z</time>
      </trkpt>
      <trkpt lat="48.06034" lon="6.83983">
        <ele>906</ele>
        <time>2020-10-28T09:29:40.834Z</time>
      </trkpt>
      <trkpt lat="48.06036" lon="6.83983">
        <ele>906</ele>
        <time>2020-10-28T09:29:41.835Z</time>
      </trkpt>
      <trkpt lat="48.06038" lon="6.83983">
        <ele>906</ele>
        <time>2020-10-28T09:29:42.834Z</time>
      </trkpt>
      <trkpt lat="48.06039" lon="6.83983">
        <ele>905</ele>
        <time>2020-10-28T09:29:43.835Z</time>
      </trkpt>
      <trkpt lat="48.0604" lon="6.83984">
        <ele>905</ele>
        <time>2020-10-28T09:29:44.835Z</time>
      </trkpt>
      <trkpt lat="48.06042" lon="6.83985">
        <ele>904</ele>
        <time>2020-10-28T09:29:45.835Z</time>
      </trkpt>
      <trkpt lat="48.06044" lon="6.83986">
        <ele>903</ele>
        <time>2020-10-28T09:29:46.835Z</time>
      </trkpt>
      <trkpt lat="48.06045" lon="6.83986">
        <ele>903</ele>
        <time>2020-10-28T09:29:47.835Z</time>
      </trkpt>
      <trkpt lat="48.06047" lon="6.83987">
        <ele>902</ele>
        <time>2020-10-28T09:29:48.835Z</time>
      </trkpt>
      <trkpt lat="48.06048" lon="6.83988">
        <ele>901</ele>
        <time>2020-10-28T09:29:49.835Z</time>
      </trkpt>
      <trkpt lat="48.0605" lon="6.83989">
        <ele>901</ele>
        <time>2020-10-28T09:29:50.835Z</time>
      </trkpt>
      <trkpt lat="48.06051" lon="6.8399">
        <ele>900</ele>
        <time>2020-10-28T09:29:51.834Z</time>
      </trkpt>
      <trkpt lat="48.06052" lon="6.8399">
        <ele>899</ele>
        <time>2020-10-28T09:29:52.835Z</time>
      </trkpt>
      <trkpt lat="48.06054" lon="6.83991">
        <ele>898</ele>
        <time>2020-10-28T09:29:53.835Z</time>
      </trkpt>
      <trkpt lat="48.06055" lon="6.83991">
        <ele>898</ele>
        <time>2020-10-28T09:29:54.835Z</time>
      </trkpt>
      <trkpt lat="48.06057" lon="6.83991">
        <ele>897</ele>
        <time>2020-10-28T09:29:55.835Z</time>
      </trkpt>
      <trkpt lat="48.06059" lon="6.83992">
        <ele>897</ele>
        <time>2020-10-28T09:29:56.834Z</time>
      </trkpt>
      <trkpt lat="48.0606" lon="6.83992">
        <ele>896</ele>
        <time>2020-10-28T09:29:57.835Z</time>
      </trkpt>
      <trkpt lat="48.06063" lon="6.83993">
        <ele>896</ele>
        <time>2020-10-28T09:29:58.835Z</time>
      </trkpt>
      <trkpt lat="48.06066" lon="6.83994">
        <ele>896</ele>
        <time>2020-10-28T09:29:59.834Z</time>
      </trkpt>
      <trkpt lat="48.06066" lon="6.83994">
        <ele>896</ele>
        <time>2020-10-28T09:30:00.835Z</time>
      </trkpt>
      <trkpt lat="48.06067" lon="6.83995">
        <ele>895</ele>
        <time>2020-10-28T09:30:01.834Z</time>
      </trkpt>
      <trkpt lat="48.06068" lon="6.83996">
        <ele>895</ele>
        <time>2020-10-28T09:30:02.835Z</time>
      </trkpt>
      <trkpt lat="48.06069" lon="6.83997">
        <ele>894</ele>
        <time>2020-10-28T09:30:03.835Z</time>
      </trkpt>
      <trkpt lat="48.06072" lon="6.83997">
        <ele>894</ele>
        <time>2020-10-28T09:30:04.834Z</time>
      </trkpt>
      <trkpt lat="48.06073" lon="6.83998">
        <ele>893</ele>
        <time>2020-10-28T09:30:05.835Z</time>
      </trkpt>
      <trkpt lat="48.06074" lon="6.83999">
        <ele>893</ele>
        <time>2020-10-28T09:30:06.835Z</time>
      </trkpt>
      <trkpt lat="48.06076" lon="6.83999">
        <ele>892</ele>
        <time>2020-10-28T09:30:07.835Z</time>
      </trkpt>
      <trkpt lat="48.06077" lon="6.83999">
        <ele>893</ele>
        <time>2020-10-28T09:30:08.834Z</time>
      </trkpt>
      <trkpt lat="48.06078" lon="6.83999">
        <ele>893</ele>
        <time>2020-10-28T09:30:09.834Z</time>
      </trkpt>
      <trkpt lat="48.06079" lon="6.84">
        <ele>893</ele>
        <time>2020-10-28T09:30:10.834Z</time>
      </trkpt>
      <trkpt lat="48.0608" lon="6.83999">
        <ele>894</ele>
        <time>2020-10-28T09:30:11.834Z</time>
      </trkpt>
      <trkpt lat="48.06082" lon="6.84">
        <ele>894</ele>
        <time>2020-10-28T09:30:12.834Z</time>
      </trkpt>
      <trkpt lat="48.06084" lon="6.84">
        <ele>895</ele>
        <time>2020-10-28T09:30:13.834Z</time>
      </trkpt>
      <trkpt lat="48.06085" lon="6.84001">
        <ele>895</ele>
        <time>2020-10-28T09:30:14.835Z</time>
      </trkpt>
      <trkpt lat="48.06085" lon="6.84001">
        <ele>895</ele>
        <time>2020-10-28T09:30:15.834Z</time>
      </trkpt>
      <trkpt lat="48.06086" lon="6.84001">
        <ele>896</ele>
        <time>2020-10-28T09:30:16.835Z</time>
      </trkpt>
      <trkpt lat="48.06088" lon="6.84001">
        <ele>896</ele>
        <time>2020-10-28T09:30:17.835Z</time>
      </trkpt>
      <trkpt lat="48.06089" lon="6.84001">
        <ele>896</ele>
        <time>2020-10-28T09:30:18.835Z</time>
      </trkpt>
      <trkpt lat="48.06091" lon="6.84001">
        <ele>895</ele>
        <time>2020-10-28T09:30:19.835Z</time>
      </trkpt>
      <trkpt lat="48.06092" lon="6.84002">
        <ele>895</ele>
        <time>2020-10-28T09:30:20.834Z</time>
      </trkpt>
      <trkpt lat="48.06094" lon="6.84002">
        <ele>894</ele>
        <time>2020-10-28T09:30:21.835Z</time>
      </trkpt>
      <trkpt lat="48.06096" lon="6.84002">
        <ele>894</ele>
        <time>2020-10-28T09:30:22.834Z</time>
      </trkpt>
      <trkpt lat="48.06098" lon="6.84002">
        <ele>893</ele>
        <time>2020-10-28T09:30:23.835Z</time>
      </trkpt>
      <trkpt lat="48.061" lon="6.84003">
        <ele>892</ele>
        <time>2020-10-28T09:30:24.834Z</time>
      </trkpt>
      <trkpt lat="48.06101" lon="6.84003">
        <ele>891</ele>
        <time>2020-10-28T09:30:25.835Z</time>
      </trkpt>
      <trkpt lat="48.06101" lon="6.84004">
        <ele>890</ele>
        <time>2020-10-28T09:30:26.835Z</time>
      </trkpt>
      <trkpt lat="48.06101" lon="6.84004">
        <ele>889</ele>
        <time>2020-10-28T09:30:27.835Z</time>
      </trkpt>
      <trkpt lat="48.06102" lon="6.84005">
        <ele>888</ele>
        <time>2020-10-28T09:30:28.835Z</time>
      </trkpt>
      <trkpt lat="48.06103" lon="6.84005">
        <ele>888</ele>
        <time>2020-10-28T09:30:29.835Z</time>
      </trkpt>
      <trkpt lat="48.06103" lon="6.84006">
        <ele>887</ele>
        <time>2020-10-28T09:30:30.835Z</time>
      </trkpt>
      <trkpt lat="48.06105" lon="6.84006">
        <ele>887</ele>
        <time>2020-10-28T09:30:31.835Z</time>
      </trkpt>
      <trkpt lat="48.06106" lon="6.84007">
        <ele>887</ele>
        <time>2020-10-28T09:30:32.835Z</time>
      </trkpt>
      <trkpt lat="48.06106" lon="6.84007">
        <ele>886</ele>
        <time>2020-10-28T09:30:33.835Z</time>
      </trkpt>
      <trkpt lat="48.06107" lon="6.84008">
        <ele>886</ele>
        <time>2020-10-28T09:30:34.835Z</time>
      </trkpt>
      <trkpt lat="48.06108" lon="6.8401">
        <ele>885</ele>
        <time>2020-10-28T09:30:35.835Z</time>
      </trkpt>
      <trkpt lat="48.0611" lon="6.84012">
        <ele>884</ele>
        <time>2020-10-28T09:30:36.835Z</time>
      </trkpt>
      <trkpt lat="48.06111" lon="6.84014">
        <ele>884</ele>
        <time>2020-10-28T09:30:37.834Z</time>
      </trkpt>
      <trkpt lat="48.06112" lon="6.84016">
        <ele>883</ele>
        <time>2020-10-28T09:30:38.835Z</time>
      </trkpt>
      <trkpt lat="48.06113" lon="6.84017">
        <ele>883</ele>
        <time>2020-10-28T09:30:39.835Z</time>
      </trkpt>
      <trkpt lat="48.06114" lon="6.84019">
        <ele>882</ele>
        <time>2020-10-28T09:30:40.835Z</time>
      </trkpt>
      <trkpt lat="48.06115" lon="6.8402">
        <ele>882</ele>
        <time>2020-10-28T09:30:41.835Z</time>
      </trkpt>
      <trkpt lat="48.06115" lon="6.84022">
        <ele>881</ele>
        <time>2020-10-28T09:30:42.834Z</time>
      </trkpt>
      <trkpt lat="48.06115" lon="6.84023">
        <ele>881</ele>
        <time>2020-10-28T09:30:43.835Z</time>
      </trkpt>
      <trkpt lat="48.06115" lon="6.84024">
        <ele>880</ele>
        <time>2020-10-28T09:30:44.835Z</time>
      </trkpt>
      <trkpt lat="48.06116" lon="6.84025">
        <ele>880</ele>
        <time>2020-10-28T09:30:45.834Z</time>
      </trkpt>
      <trkpt lat="48.06116" lon="6.84025">
        <ele>879</ele>
        <time>2020-10-28T09:30:46.835Z</time>
      </trkpt>
      <trkpt lat="48.06115" lon="6.84023">
        <ele>877</ele>
        <time>2020-10-28T09:30:47.835Z</time>
      </trkpt>
      <trkpt lat="48.06114" lon="6.84022">
        <ele>877</ele>
        <time>2020-10-28T09:30:48.834Z</time>
      </trkpt>
      <trkpt lat="48.06113" lon="6.84021">
        <ele>876</ele>
        <time>2020-10-28T09:30:49.835Z</time>
      </trkpt>
      <trkpt lat="48.06113" lon="6.84021">
        <ele>876</ele>
        <time>2020-10-28T09:30:50.835Z</time>
      </trkpt>
      <trkpt lat="48.06113" lon="6.84021">
        <ele>876</ele>
        <time>2020-10-28T09:30:51.834Z</time>
      </trkpt>
      <trkpt lat="48.06113" lon="6.84028">
        <ele>873</ele>
        <time>2020-10-28T09:30:52.836Z</time>
      </trkpt>
      <trkpt lat="48.06113" lon="6.84031">
        <ele>873</ele>
        <time>2020-10-28T09:30:53.836Z</time>
      </trkpt>
      <trkpt lat="48.06113" lon="6.84034">
        <ele>874</ele>
        <time>2020-10-28T09:30:54.836Z</time>
      </trkpt>
      <trkpt lat="48.06113" lon="6.84037">
        <ele>874</ele>
        <time>2020-10-28T09:30:55.835Z</time>
      </trkpt>
      <trkpt lat="48.06113" lon="6.84039">
        <ele>874</ele>
        <time>2020-10-28T09:30:56.836Z</time>
      </trkpt>
      <trkpt lat="48.06113" lon="6.84043">
        <ele>874</ele>
        <time>2020-10-28T09:30:57.836Z</time>
      </trkpt>
      <trkpt lat="48.06113" lon="6.84045">
        <ele>875</ele>
        <time>2020-10-28T09:30:58.836Z</time>
      </trkpt>
      <trkpt lat="48.06113" lon="6.84048">
        <ele>875</ele>
        <time>2020-10-28T09:30:59.835Z</time>
      </trkpt>
      <trkpt lat="48.06113" lon="6.84051">
        <ele>875</ele>
        <time>2020-10-28T09:31:00.835Z</time>
      </trkpt>
      <trkpt lat="48.06114" lon="6.84053">
        <ele>876</ele>
        <time>2020-10-28T09:31:01.835Z</time>
      </trkpt>
      <trkpt lat="48.06115" lon="6.84056">
        <ele>877</ele>
        <time>2020-10-28T09:31:02.835Z</time>
      </trkpt>
      <trkpt lat="48.06116" lon="6.84059">
        <ele>877</ele>
        <time>2020-10-28T09:31:03.835Z</time>
      </trkpt>
      <trkpt lat="48.06118" lon="6.84062">
        <ele>877</ele>
        <time>2020-10-28T09:31:04.835Z</time>
      </trkpt>
      <trkpt lat="48.06118" lon="6.84064">
        <ele>877</ele>
        <time>2020-10-28T09:31:05.835Z</time>
      </trkpt>
      <trkpt lat="48.06119" lon="6.84066">
        <ele>877</ele>
        <time>2020-10-28T09:31:06.836Z</time>
      </trkpt>
      <trkpt lat="48.06119" lon="6.84068">
        <ele>877</ele>
        <time>2020-10-28T09:31:07.836Z</time>
      </trkpt>
      <trkpt lat="48.0612" lon="6.8407">
        <ele>878</ele>
        <time>2020-10-28T09:31:08.836Z</time>
      </trkpt>
      <trkpt lat="48.0612" lon="6.84073">
        <ele>878</ele>
        <time>2020-10-28T09:31:09.835Z</time>
      </trkpt>
      <trkpt lat="48.06121" lon="6.84076">
        <ele>878</ele>
        <time>2020-10-28T09:31:10.836Z</time>
      </trkpt>
      <trkpt lat="48.06121" lon="6.84079">
        <ele>877</ele>
        <time>2020-10-28T09:31:11.836Z</time>
      </trkpt>
      <trkpt lat="48.06122" lon="6.84081">
        <ele>877</ele>
        <time>2020-10-28T09:31:12.836Z</time>
      </trkpt>
      <trkpt lat="48.06123" lon="6.84084">
        <ele>877</ele>
        <time>2020-10-28T09:31:13.835Z</time>
      </trkpt>
      <trkpt lat="48.06124" lon="6.84085">
        <ele>877</ele>
        <time>2020-10-28T09:31:14.836Z</time>
      </trkpt>
      <trkpt lat="48.06125" lon="6.84086">
        <ele>877</ele>
        <time>2020-10-28T09:31:15.835Z</time>
      </trkpt>
      <trkpt lat="48.06126" lon="6.84087">
        <ele>878</ele>
        <time>2020-10-28T09:31:16.835Z</time>
      </trkpt>
      <trkpt lat="48.06126" lon="6.84089">
        <ele>878</ele>
        <time>2020-10-28T09:31:17.836Z</time>
      </trkpt>
      <trkpt lat="48.06126" lon="6.84091">
        <ele>879</ele>
        <time>2020-10-28T09:31:18.836Z</time>
      </trkpt>
      <trkpt lat="48.06127" lon="6.84093">
        <ele>879</ele>
        <time>2020-10-28T09:31:19.836Z</time>
      </trkpt>
      <trkpt lat="48.06127" lon="6.84096">
        <ele>879</ele>
        <time>2020-10-28T09:31:20.836Z</time>
      </trkpt>
      <trkpt lat="48.06128" lon="6.84098">
        <ele>880</ele>
        <time>2020-10-28T09:31:21.836Z</time>
      </trkpt>
      <trkpt lat="48.06128" lon="6.841">
        <ele>881</ele>
        <time>2020-10-28T09:31:22.836Z</time>
      </trkpt>
      <trkpt lat="48.06129" lon="6.84101">
        <ele>882</ele>
        <time>2020-10-28T09:31:23.836Z</time>
      </trkpt>
      <trkpt lat="48.06129" lon="6.84102">
        <ele>882</ele>
        <time>2020-10-28T09:31:24.836Z</time>
      </trkpt>
      <trkpt lat="48.06129" lon="6.84105">
        <ele>883</ele>
        <time>2020-10-28T09:31:25.836Z</time>
      </trkpt>
      <trkpt lat="48.0613" lon="6.84106">
        <ele>883</ele>
        <time>2020-10-28T09:31:26.836Z</time>
      </trkpt>
      <trkpt lat="48.06131" lon="6.84108">
        <ele>883</ele>
        <time>2020-10-28T09:31:27.836Z</time>
      </trkpt>
      <trkpt lat="48.06132" lon="6.84111">
        <ele>883</ele>
        <time>2020-10-28T09:31:28.835Z</time>
      </trkpt>
      <trkpt lat="48.06133" lon="6.84113">
        <ele>883</ele>
        <time>2020-10-28T09:31:29.836Z</time>
      </trkpt>
      <trkpt lat="48.06135" lon="6.84115">
        <ele>882</ele>
        <time>2020-10-28T09:31:30.836Z</time>
      </trkpt>
      <trkpt lat="48.06136" lon="6.84117">
        <ele>882</ele>
        <time>2020-10-28T09:31:31.836Z</time>
      </trkpt>
      <trkpt lat="48.06136" lon="6.84118">
        <ele>882</ele>
        <time>2020-10-28T09:31:32.836Z</time>
      </trkpt>
      <trkpt lat="48.06137" lon="6.8412">
        <ele>881</ele>
        <time>2020-10-28T09:31:33.835Z</time>
      </trkpt>
      <trkpt lat="48.06137" lon="6.84123">
        <ele>881</ele>
        <time>2020-10-28T09:31:34.836Z</time>
      </trkpt>
      <trkpt lat="48.06137" lon="6.84126">
        <ele>880</ele>
        <time>2020-10-28T09:31:35.835Z</time>
      </trkpt>
      <trkpt lat="48.06137" lon="6.84128">
        <ele>880</ele>
        <time>2020-10-28T09:31:36.836Z</time>
      </trkpt>
      <trkpt lat="48.06138" lon="6.8413">
        <ele>879</ele>
        <time>2020-10-28T09:31:37.836Z</time>
      </trkpt>
      <trkpt lat="48.06137" lon="6.84132">
        <ele>879</ele>
        <time>2020-10-28T09:31:38.836Z</time>
      </trkpt>
      <trkpt lat="48.06137" lon="6.84134">
        <ele>878</ele>
        <time>2020-10-28T09:31:39.836Z</time>
      </trkpt>
      <trkpt lat="48.06136" lon="6.84135">
        <ele>878</ele>
        <time>2020-10-28T09:31:40.836Z</time>
      </trkpt>
      <trkpt lat="48.06136" lon="6.84137">
        <ele>877</ele>
        <time>2020-10-28T09:31:41.836Z</time>
      </trkpt>
      <trkpt lat="48.06134" lon="6.84138">
        <ele>877</ele>
        <time>2020-10-28T09:31:42.836Z</time>
      </trkpt>
      <trkpt lat="48.06133" lon="6.8414">
        <ele>876</ele>
        <time>2020-10-28T09:31:43.836Z</time>
      </trkpt>
      <trkpt lat="48.06133" lon="6.84142">
        <ele>875</ele>
        <time>2020-10-28T09:31:44.836Z</time>
      </trkpt>
      <trkpt lat="48.06133" lon="6.84143">
        <ele>874</ele>
        <time>2020-10-28T09:31:45.836Z</time>
      </trkpt>
      <trkpt lat="48.06133" lon="6.84145">
        <ele>874</ele>
        <time>2020-10-28T09:31:46.836Z</time>
      </trkpt>
      <trkpt lat="48.06133" lon="6.84147">
        <ele>874</ele>
        <time>2020-10-28T09:31:47.836Z</time>
      </trkpt>
      <trkpt lat="48.06133" lon="6.8415">
        <ele>873</ele>
        <time>2020-10-28T09:31:48.835Z</time>
      </trkpt>
      <trkpt lat="48.06132" lon="6.84153">
        <ele>873</ele>
        <time>2020-10-28T09:31:49.836Z</time>
      </trkpt>
      <trkpt lat="48.06132" lon="6.84155">
        <ele>873</ele>
        <time>2020-10-28T09:31:50.836Z</time>
      </trkpt>
      <trkpt lat="48.06132" lon="6.84157">
        <ele>873</ele>
        <time>2020-10-28T09:31:51.836Z</time>
      </trkpt>
      <trkpt lat="48.06132" lon="6.8416">
        <ele>873</ele>
        <time>2020-10-28T09:31:52.835Z</time>
      </trkpt>
      <trkpt lat="48.06132" lon="6.84162">
        <ele>873</ele>
        <time>2020-10-28T09:31:53.836Z</time>
      </trkpt>
      <trkpt lat="48.06132" lon="6.84165">
        <ele>873</ele>
        <time>2020-10-28T09:31:54.836Z</time>
      </trkpt>
      <trkpt lat="48.06132" lon="6.84167">
        <ele>873</ele>
        <time>2020-10-28T09:31:55.836Z</time>
      </trkpt>
      <trkpt lat="48.06132" lon="6.8417">
        <ele>874</ele>
        <time>2020-10-28T09:31:56.835Z</time>
      </trkpt>
      <trkpt lat="48.06132" lon="6.84172">
        <ele>874</ele>
        <time>2020-10-28T09:31:57.836Z</time>
      </trkpt>
      <trkpt lat="48.06132" lon="6.84173">
        <ele>875</ele>
        <time>2020-10-28T09:31:58.836Z</time>
      </trkpt>
      <trkpt lat="48.06131" lon="6.84175">
        <ele>875</ele>
        <time>2020-10-28T09:31:59.836Z</time>
      </trkpt>
      <trkpt lat="48.06131" lon="6.84177">
        <ele>876</ele>
        <time>2020-10-28T09:32:00.835Z</time>
      </trkpt>
      <trkpt lat="48.06131" lon="6.84178">
        <ele>876</ele>
        <time>2020-10-28T09:32:01.836Z</time>
      </trkpt>
      <trkpt lat="48.0613" lon="6.84179">
        <ele>876</ele>
        <time>2020-10-28T09:32:02.836Z</time>
      </trkpt>
      <trkpt lat="48.0613" lon="6.84181">
        <ele>876</ele>
        <time>2020-10-28T09:32:03.836Z</time>
      </trkpt>
      <trkpt lat="48.0613" lon="6.84182">
        <ele>876</ele>
        <time>2020-10-28T09:32:04.835Z</time>
      </trkpt>
      <trkpt lat="48.0613" lon="6.84183">
        <ele>876</ele>
        <time>2020-10-28T09:32:05.836Z</time>
      </trkpt>
      <trkpt lat="48.0613" lon="6.84185">
        <ele>876</ele>
        <time>2020-10-28T09:32:06.836Z</time>
      </trkpt>
      <trkpt lat="48.06129" lon="6.84186">
        <ele>877</ele>
        <time>2020-10-28T09:32:07.836Z</time>
      </trkpt>
      <trkpt lat="48.06129" lon="6.84187">
        <ele>877</ele>
        <time>2020-10-28T09:32:08.836Z</time>
      </trkpt>
      <trkpt lat="48.06128" lon="6.84189">
        <ele>876</ele>
        <time>2020-10-28T09:32:09.835Z</time>
      </trkpt>
      <trkpt lat="48.06128" lon="6.84191">
        <ele>876</ele>
        <time>2020-10-28T09:32:10.836Z</time>
      </trkpt>
      <trkpt lat="48.06127" lon="6.84194">
        <ele>876</ele>
        <time>2020-10-28T09:32:11.836Z</time>
      </trkpt>
      <trkpt lat="48.06127" lon="6.84197">
        <ele>875</ele>
        <time>2020-10-28T09:32:12.836Z</time>
      </trkpt>
      <trkpt lat="48.06127" lon="6.84199">
        <ele>875</ele>
        <time>2020-10-28T09:32:13.836Z</time>
      </trkpt>
      <trkpt lat="48.06126" lon="6.84201">
        <ele>875</ele>
        <time>2020-10-28T09:32:14.836Z</time>
      </trkpt>
      <trkpt lat="48.06126" lon="6.84202">
        <ele>875</ele>
        <time>2020-10-28T09:32:15.835Z</time>
      </trkpt>
      <trkpt lat="48.06126" lon="6.84204">
        <ele>875</ele>
        <time>2020-10-28T09:32:16.836Z</time>
      </trkpt>
      <trkpt lat="48.06126" lon="6.84206">
        <ele>875</ele>
        <time>2020-10-28T09:32:17.835Z</time>
      </trkpt>
      <trkpt lat="48.06126" lon="6.84208">
        <ele>875</ele>
        <time>2020-10-28T09:32:18.836Z</time>
      </trkpt>
      <trkpt lat="48.06127" lon="6.8421">
        <ele>875</ele>
        <time>2020-10-28T09:32:19.836Z</time>
      </trkpt>
      <trkpt lat="48.06127" lon="6.84212">
        <ele>875</ele>
        <time>2020-10-28T09:32:20.836Z</time>
      </trkpt>
      <trkpt lat="48.06127" lon="6.84215">
        <ele>875</ele>
        <time>2020-10-28T09:32:21.835Z</time>
      </trkpt>
      <trkpt lat="48.06129" lon="6.84217">
        <ele>875</ele>
        <time>2020-10-28T09:32:22.836Z</time>
      </trkpt>
      <trkpt lat="48.0613" lon="6.8422">
        <ele>875</ele>
        <time>2020-10-28T09:32:23.836Z</time>
      </trkpt>
      <trkpt lat="48.06131" lon="6.84223">
        <ele>875</ele>
        <time>2020-10-28T09:32:24.835Z</time>
      </trkpt>
      <trkpt lat="48.06132" lon="6.84225">
        <ele>876</ele>
        <time>2020-10-28T09:32:25.836Z</time>
      </trkpt>
      <trkpt lat="48.06133" lon="6.84227">
        <ele>876</ele>
        <time>2020-10-28T09:32:26.836Z</time>
      </trkpt>
      <trkpt lat="48.06133" lon="6.8423">
        <ele>876</ele>
        <time>2020-10-28T09:32:27.836Z</time>
      </trkpt>
      <trkpt lat="48.06133" lon="6.84232">
        <ele>876</ele>
        <time>2020-10-28T09:32:28.836Z</time>
      </trkpt>
      <trkpt lat="48.06133" lon="6.84234">
        <ele>876</ele>
        <time>2020-10-28T09:32:29.836Z</time>
      </trkpt>
      <trkpt lat="48.06133" lon="6.84237">
        <ele>877</ele>
        <time>2020-10-28T09:32:30.835Z</time>
      </trkpt>
      <trkpt lat="48.06133" lon="6.84239">
        <ele>877</ele>
        <time>2020-10-28T09:32:31.836Z</time>
      </trkpt>
      <trkpt lat="48.06133" lon="6.84241">
        <ele>877</ele>
        <time>2020-10-28T09:32:32.836Z</time>
      </trkpt>
      <trkpt lat="48.06134" lon="6.84243">
        <ele>877</ele>
        <time>2020-10-28T09:32:33.835Z</time>
      </trkpt>
      <trkpt lat="48.06135" lon="6.84246">
        <ele>877</ele>
        <time>2020-10-28T09:32:34.835Z</time>
      </trkpt>
      <trkpt lat="48.06136" lon="6.84249">
        <ele>877</ele>
        <time>2020-10-28T09:32:35.836Z</time>
      </trkpt>
      <trkpt lat="48.06137" lon="6.84251">
        <ele>878</ele>
        <time>2020-10-28T09:32:36.836Z</time>
      </trkpt>
      <trkpt lat="48.06137" lon="6.84253">
        <ele>878</ele>
        <time>2020-10-28T09:32:37.835Z</time>
      </trkpt>
      <trkpt lat="48.06137" lon="6.84254">
        <ele>880</ele>
        <time>2020-10-28T09:32:38.835Z</time>
      </trkpt>
      <trkpt lat="48.06137" lon="6.84255">
        <ele>880</ele>
        <time>2020-10-28T09:32:39.836Z</time>
      </trkpt>
      <trkpt lat="48.06138" lon="6.84257">
        <ele>881</ele>
        <time>2020-10-28T09:32:40.835Z</time>
      </trkpt>
      <trkpt lat="48.06138" lon="6.8426">
        <ele>882</ele>
        <time>2020-10-28T09:32:41.835Z</time>
      </trkpt>
      <trkpt lat="48.06139" lon="6.84262">
        <ele>883</ele>
        <time>2020-10-28T09:32:42.836Z</time>
      </trkpt>
      <trkpt lat="48.0614" lon="6.84264">
        <ele>883</ele>
        <time>2020-10-28T09:32:43.836Z</time>
      </trkpt>
      <trkpt lat="48.0614" lon="6.84266">
        <ele>884</ele>
        <time>2020-10-28T09:32:44.835Z</time>
      </trkpt>
      <trkpt lat="48.0614" lon="6.84268">
        <ele>884</ele>
        <time>2020-10-28T09:32:45.835Z</time>
      </trkpt>
      <trkpt lat="48.06141" lon="6.8427">
        <ele>884</ele>
        <time>2020-10-28T09:32:46.835Z</time>
      </trkpt>
      <trkpt lat="48.06142" lon="6.84273">
        <ele>885</ele>
        <time>2020-10-28T09:32:47.835Z</time>
      </trkpt>
      <trkpt lat="48.06142" lon="6.84275">
        <ele>885</ele>
        <time>2020-10-28T09:32:48.836Z</time>
      </trkpt>
      <trkpt lat="48.06142" lon="6.84278">
        <ele>885</ele>
        <time>2020-10-28T09:32:49.836Z</time>
      </trkpt>
      <trkpt lat="48.06143" lon="6.8428">
        <ele>886</ele>
        <time>2020-10-28T09:32:50.836Z</time>
      </trkpt>
      <trkpt lat="48.06143" lon="6.84281">
        <ele>886</ele>
        <time>2020-10-28T09:32:51.836Z</time>
      </trkpt>
      <trkpt lat="48.06143" lon="6.84283">
        <ele>886</ele>
        <time>2020-10-28T09:32:52.836Z</time>
      </trkpt>
      <trkpt lat="48.06142" lon="6.84285">
        <ele>887</ele>
        <time>2020-10-28T09:32:53.835Z</time>
      </trkpt>
      <trkpt lat="48.06141" lon="6.84286">
        <ele>887</ele>
        <time>2020-10-28T09:32:54.836Z</time>
      </trkpt>
      <trkpt lat="48.0614" lon="6.84288">
        <ele>887</ele>
        <time>2020-10-28T09:32:55.836Z</time>
      </trkpt>
      <trkpt lat="48.0614" lon="6.84291">
        <ele>888</ele>
        <time>2020-10-28T09:32:56.835Z</time>
      </trkpt>
      <trkpt lat="48.0614" lon="6.84293">
        <ele>888</ele>
        <time>2020-10-28T09:32:57.835Z</time>
      </trkpt>
      <trkpt lat="48.0614" lon="6.84294">
        <ele>888</ele>
        <time>2020-10-28T09:32:58.835Z</time>
      </trkpt>
      <trkpt lat="48.0614" lon="6.84296">
        <ele>888</ele>
        <time>2020-10-28T09:32:59.836Z</time>
      </trkpt>
      <trkpt lat="48.06139" lon="6.84298">
        <ele>888</ele>
        <time>2020-10-28T09:33:00.836Z</time>
      </trkpt>
      <trkpt lat="48.06138" lon="6.84299">
        <ele>888</ele>
        <time>2020-10-28T09:33:01.836Z</time>
      </trkpt>
      <trkpt lat="48.06137" lon="6.84301">
        <ele>888</ele>
        <time>2020-10-28T09:33:02.836Z</time>
      </trkpt>
      <trkpt lat="48.06136" lon="6.84303">
        <ele>888</ele>
        <time>2020-10-28T09:33:03.836Z</time>
      </trkpt>
      <trkpt lat="48.06135" lon="6.84305">
        <ele>887</ele>
        <time>2020-10-28T09:33:04.836Z</time>
      </trkpt>
      <trkpt lat="48.06134" lon="6.84307">
        <ele>887</ele>
        <time>2020-10-28T09:33:05.836Z</time>
      </trkpt>
      <trkpt lat="48.06133" lon="6.84309">
        <ele>886</ele>
        <time>2020-10-28T09:33:06.836Z</time>
      </trkpt>
      <trkpt lat="48.06132" lon="6.8431">
        <ele>886</ele>
        <time>2020-10-28T09:33:07.836Z</time>
      </trkpt>
      <trkpt lat="48.06131" lon="6.84311">
        <ele>886</ele>
        <time>2020-10-28T09:33:08.836Z</time>
      </trkpt>
      <trkpt lat="48.06131" lon="6.84312">
        <ele>886</ele>
        <time>2020-10-28T09:33:09.835Z</time>
      </trkpt>
      <trkpt lat="48.0613" lon="6.84314">
        <ele>885</ele>
        <time>2020-10-28T09:33:10.836Z</time>
      </trkpt>
      <trkpt lat="48.06129" lon="6.84315">
        <ele>885</ele>
        <time>2020-10-28T09:33:11.835Z</time>
      </trkpt>
      <trkpt lat="48.06129" lon="6.84316">
        <ele>885</ele>
        <time>2020-10-28T09:33:12.836Z</time>
      </trkpt>
      <trkpt lat="48.06128" lon="6.84318">
        <ele>885</ele>
        <time>2020-10-28T09:33:13.835Z</time>
      </trkpt>
      <trkpt lat="48.06128" lon="6.8432">
        <ele>885</ele>
        <time>2020-10-28T09:33:14.835Z</time>
      </trkpt>
      <trkpt lat="48.06127" lon="6.84321">
        <ele>885</ele>
        <time>2020-10-28T09:33:15.836Z</time>
      </trkpt>
      <trkpt lat="48.06126" lon="6.84322">
        <ele>885</ele>
        <time>2020-10-28T09:33:16.835Z</time>
      </trkpt>
      <trkpt lat="48.06125" lon="6.84323">
        <ele>885</ele>
        <time>2020-10-28T09:33:17.836Z</time>
      </trkpt>
      <trkpt lat="48.06124" lon="6.84324">
        <ele>885</ele>
        <time>2020-10-28T09:33:18.836Z</time>
      </trkpt>
      <trkpt lat="48.06124" lon="6.84325">
        <ele>885</ele>
        <time>2020-10-28T09:33:19.835Z</time>
      </trkpt>
      <trkpt lat="48.06123" lon="6.84326">
        <ele>886</ele>
        <time>2020-10-28T09:33:20.836Z</time>
      </trkpt>
      <trkpt lat="48.06123" lon="6.84327">
        <ele>886</ele>
        <time>2020-10-28T09:33:21.835Z</time>
      </trkpt>
      <trkpt lat="48.06122" lon="6.84328">
        <ele>886</ele>
        <time>2020-10-28T09:33:22.836Z</time>
      </trkpt>
      <trkpt lat="48.06121" lon="6.84329">
        <ele>886</ele>
        <time>2020-10-28T09:33:23.835Z</time>
      </trkpt>
      <trkpt lat="48.06121" lon="6.84331">
        <ele>886</ele>
        <time>2020-10-28T09:33:24.836Z</time>
      </trkpt>
      <trkpt lat="48.0612" lon="6.84332">
        <ele>886</ele>
        <time>2020-10-28T09:33:25.835Z</time>
      </trkpt>
      <trkpt lat="48.0612" lon="6.84334">
        <ele>886</ele>
        <time>2020-10-28T09:33:26.835Z</time>
      </trkpt>
      <trkpt lat="48.06119" lon="6.84335">
        <ele>886</ele>
        <time>2020-10-28T09:33:27.835Z</time>
      </trkpt>
      <trkpt lat="48.06119" lon="6.84337">
        <ele>886</ele>
        <time>2020-10-28T09:33:28.835Z</time>
      </trkpt>
      <trkpt lat="48.06119" lon="6.84338">
        <ele>886</ele>
        <time>2020-10-28T09:33:29.836Z</time>
      </trkpt>
      <trkpt lat="48.06119" lon="6.8434">
        <ele>886</ele>
        <time>2020-10-28T09:33:30.836Z</time>
      </trkpt>
      <trkpt lat="48.06119" lon="6.84343">
        <ele>886</ele>
        <time>2020-10-28T09:33:31.836Z</time>
      </trkpt>
      <trkpt lat="48.0612" lon="6.84346">
        <ele>886</ele>
        <time>2020-10-28T09:33:32.835Z</time>
      </trkpt>
      <trkpt lat="48.0612" lon="6.84348">
        <ele>886</ele>
        <time>2020-10-28T09:33:33.836Z</time>
      </trkpt>
      <trkpt lat="48.06119" lon="6.8435">
        <ele>885</ele>
        <time>2020-10-28T09:33:34.836Z</time>
      </trkpt>
      <trkpt lat="48.06118" lon="6.84353">
        <ele>885</ele>
        <time>2020-10-28T09:33:35.836Z</time>
      </trkpt>
      <trkpt lat="48.06117" lon="6.84355">
        <ele>885</ele>
        <time>2020-10-28T09:33:36.835Z</time>
      </trkpt>
      <trkpt lat="48.06117" lon="6.84356">
        <ele>885</ele>
        <time>2020-10-28T09:33:37.835Z</time>
      </trkpt>
      <trkpt lat="48.06116" lon="6.84358">
        <ele>885</ele>
        <time>2020-10-28T09:33:38.835Z</time>
      </trkpt>
      <trkpt lat="48.06115" lon="6.8436">
        <ele>885</ele>
        <time>2020-10-28T09:33:39.835Z</time>
      </trkpt>
      <trkpt lat="48.06115" lon="6.84362">
        <ele>885</ele>
        <time>2020-10-28T09:33:40.835Z</time>
      </trkpt>
      <trkpt lat="48.06114" lon="6.84364">
        <ele>885</ele>
        <time>2020-10-28T09:33:41.835Z</time>
      </trkpt>
      <trkpt lat="48.06113" lon="6.84366">
        <ele>885</ele>
        <time>2020-10-28T09:33:42.835Z</time>
      </trkpt>
      <trkpt lat="48.06113" lon="6.84368">
        <ele>885</ele>
        <time>2020-10-28T09:33:43.835Z</time>
      </trkpt>
      <trkpt lat="48.06113" lon="6.84371">
        <ele>885</ele>
        <time>2020-10-28T09:33:44.835Z</time>
      </trkpt>
      <trkpt lat="48.06113" lon="6.84373">
        <ele>884</ele>
        <time>2020-10-28T09:33:45.836Z</time>
      </trkpt>
      <trkpt lat="48.06113" lon="6.84375">
        <ele>884</ele>
        <time>2020-10-28T09:33:46.835Z</time>
      </trkpt>
      <trkpt lat="48.06113" lon="6.84376">
        <ele>883</ele>
        <time>2020-10-28T09:33:47.835Z</time>
      </trkpt>
      <trkpt lat="48.06114" lon="6.84377">
        <ele>883</ele>
        <time>2020-10-28T09:33:48.835Z</time>
      </trkpt>
      <trkpt lat="48.06113" lon="6.84378">
        <ele>883</ele>
        <time>2020-10-28T09:33:49.836Z</time>
      </trkpt>
      <trkpt lat="48.06113" lon="6.84379">
        <ele>883</ele>
        <time>2020-10-28T09:33:50.836Z</time>
      </trkpt>
      <trkpt lat="48.06112" lon="6.84379">
        <ele>883</ele>
        <time>2020-10-28T09:33:51.836Z</time>
      </trkpt>
      <trkpt lat="48.06113" lon="6.84381">
        <ele>883</ele>
        <time>2020-10-28T09:33:52.835Z</time>
      </trkpt>
      <trkpt lat="48.06113" lon="6.84382">
        <ele>884</ele>
        <time>2020-10-28T09:33:53.836Z</time>
      </trkpt>
      <trkpt lat="48.06115" lon="6.84385">
        <ele>886</ele>
        <time>2020-10-28T09:33:54.835Z</time>
      </trkpt>
      <trkpt lat="48.06115" lon="6.84385">
        <ele>887</ele>
        <time>2020-10-28T09:33:55.836Z</time>
      </trkpt>
      <trkpt lat="48.06116" lon="6.84385">
        <ele>888</ele>
        <time>2020-10-28T09:33:56.836Z</time>
      </trkpt>
      <trkpt lat="48.06116" lon="6.84386">
        <ele>888</ele>
        <time>2020-10-28T09:33:57.836Z</time>
      </trkpt>
      <trkpt lat="48.06115" lon="6.84388">
        <ele>889</ele>
        <time>2020-10-28T09:33:58.836Z</time>
      </trkpt>
      <trkpt lat="48.06114" lon="6.84389">
        <ele>889</ele>
        <time>2020-10-28T09:33:59.836Z</time>
      </trkpt>
      <trkpt lat="48.06113" lon="6.8439">
        <ele>890</ele>
        <time>2020-10-28T09:34:00.836Z</time>
      </trkpt>
      <trkpt lat="48.06112" lon="6.84391">
        <ele>891</ele>
        <time>2020-10-28T09:34:01.836Z</time>
      </trkpt>
      <trkpt lat="48.06112" lon="6.84393">
        <ele>891</ele>
        <time>2020-10-28T09:34:02.836Z</time>
      </trkpt>
      <trkpt lat="48.06111" lon="6.84394">
        <ele>890</ele>
        <time>2020-10-28T09:34:03.836Z</time>
      </trkpt>
      <trkpt lat="48.06111" lon="6.84395">
        <ele>890</ele>
        <time>2020-10-28T09:34:04.836Z</time>
      </trkpt>
      <trkpt lat="48.0611" lon="6.84396">
        <ele>890</ele>
        <time>2020-10-28T09:34:05.835Z</time>
      </trkpt>
      <trkpt lat="48.0611" lon="6.84396">
        <ele>889</ele>
        <time>2020-10-28T09:34:06.836Z</time>
      </trkpt>
      <trkpt lat="48.06111" lon="6.84396">
        <ele>889</ele>
        <time>2020-10-28T09:34:07.836Z</time>
      </trkpt>
      <trkpt lat="48.06111" lon="6.84396">
        <ele>889</ele>
        <time>2020-10-28T09:34:08.836Z</time>
      </trkpt>
      <trkpt lat="48.06113" lon="6.84398">
        <ele>888</ele>
        <time>2020-10-28T09:34:09.837Z</time>
      </trkpt>
      <trkpt lat="48.06114" lon="6.84399">
        <ele>888</ele>
        <time>2020-10-28T09:34:10.836Z</time>
      </trkpt>
      <trkpt lat="48.06115" lon="6.844">
        <ele>887</ele>
        <time>2020-10-28T09:34:11.837Z</time>
      </trkpt>
      <trkpt lat="48.06116" lon="6.844">
        <ele>887</ele>
        <time>2020-10-28T09:34:12.837Z</time>
      </trkpt>
      <trkpt lat="48.06117" lon="6.84401">
        <ele>887</ele>
        <time>2020-10-28T09:34:13.837Z</time>
      </trkpt>
      <trkpt lat="48.06116" lon="6.844">
        <ele>887</ele>
        <time>2020-10-28T09:34:14.837Z</time>
      </trkpt>
      <trkpt lat="48.06115" lon="6.844">
        <ele>887</ele>
        <time>2020-10-28T09:34:15.837Z</time>
      </trkpt>
      <trkpt lat="48.06115" lon="6.844">
        <ele>887</ele>
        <time>2020-10-28T09:34:16.837Z</time>
      </trkpt>
      <trkpt lat="48.06115" lon="6.84402">
        <ele>887</ele>
        <time>2020-10-28T09:34:17.837Z</time>
      </trkpt>
      <trkpt lat="48.06116" lon="6.84404">
        <ele>887</ele>
        <time>2020-10-28T09:34:18.836Z</time>
      </trkpt>
      <trkpt lat="48.06117" lon="6.84406">
        <ele>887</ele>
        <time>2020-10-28T09:34:19.837Z</time>
      </trkpt>
      <trkpt lat="48.06118" lon="6.84407">
        <ele>887</ele>
        <time>2020-10-28T09:34:20.837Z</time>
      </trkpt>
      <trkpt lat="48.06119" lon="6.84408">
        <ele>887</ele>
        <time>2020-10-28T09:34:21.836Z</time>
      </trkpt>
      <trkpt lat="48.0612" lon="6.84409">
        <ele>886</ele>
        <time>2020-10-28T09:34:22.837Z</time>
      </trkpt>
      <trkpt lat="48.0612" lon="6.84409">
        <ele>886</ele>
        <time>2020-10-28T09:34:23.836Z</time>
      </trkpt>
      <trkpt lat="48.06121" lon="6.8441">
        <ele>885</ele>
        <time>2020-10-28T09:34:24.837Z</time>
      </trkpt>
      <trkpt lat="48.06122" lon="6.84411">
        <ele>884</ele>
        <time>2020-10-28T09:34:25.837Z</time>
      </trkpt>
      <trkpt lat="48.06122" lon="6.84411">
        <ele>884</ele>
        <time>2020-10-28T09:34:26.836Z</time>
      </trkpt>
      <trkpt lat="48.06123" lon="6.84412">
        <ele>883</ele>
        <time>2020-10-28T09:34:27.837Z</time>
      </trkpt>
      <trkpt lat="48.06123" lon="6.84412">
        <ele>882</ele>
        <time>2020-10-28T09:34:28.837Z</time>
      </trkpt>
      <trkpt lat="48.06123" lon="6.84412">
        <ele>881</ele>
        <time>2020-10-28T09:34:29.837Z</time>
      </trkpt>
      <trkpt lat="48.06124" lon="6.84412">
        <ele>881</ele>
        <time>2020-10-28T09:34:30.836Z</time>
      </trkpt>
      <trkpt lat="48.06124" lon="6.84412">
        <ele>881</ele>
        <time>2020-10-28T09:34:31.836Z</time>
      </trkpt>
      <trkpt lat="48.06127" lon="6.84416">
        <ele>882</ele>
        <time>2020-10-28T09:34:32.836Z</time>
      </trkpt>
      <trkpt lat="48.06128" lon="6.84418">
        <ele>882</ele>
        <time>2020-10-28T09:34:33.836Z</time>
      </trkpt>
      <trkpt lat="48.06129" lon="6.84419">
        <ele>882</ele>
        <time>2020-10-28T09:34:34.837Z</time>
      </trkpt>
      <trkpt lat="48.0613" lon="6.84421">
        <ele>882</ele>
        <time>2020-10-28T09:34:35.836Z</time>
      </trkpt>
      <trkpt lat="48.0613" lon="6.84422">
        <ele>883</ele>
        <time>2020-10-28T09:34:36.836Z</time>
      </trkpt>
      <trkpt lat="48.06131" lon="6.84423">
        <ele>883</ele>
        <time>2020-10-28T09:34:37.836Z</time>
      </trkpt>
      <trkpt lat="48.06132" lon="6.84423">
        <ele>883</ele>
        <time>2020-10-28T09:34:38.836Z</time>
      </trkpt>
      <trkpt lat="48.06132" lon="6.84423">
        <ele>883</ele>
        <time>2020-10-28T09:34:39.836Z</time>
      </trkpt>
      <trkpt lat="48.06133" lon="6.84423">
        <ele>884</ele>
        <time>2020-10-28T09:34:40.836Z</time>
      </trkpt>
      <trkpt lat="48.06133" lon="6.84422">
        <ele>884</ele>
        <time>2020-10-28T09:34:41.837Z</time>
      </trkpt>
      <trkpt lat="48.06133" lon="6.84421">
        <ele>884</ele>
        <time>2020-10-28T09:34:42.837Z</time>
      </trkpt>
      <trkpt lat="48.06134" lon="6.84421">
        <ele>885</ele>
        <time>2020-10-28T09:34:43.837Z</time>
      </trkpt>
      <trkpt lat="48.06135" lon="6.8442">
        <ele>885</ele>
        <time>2020-10-28T09:34:44.836Z</time>
      </trkpt>
      <trkpt lat="48.06135" lon="6.84419">
        <ele>885</ele>
        <time>2020-10-28T09:34:45.837Z</time>
      </trkpt>
      <trkpt lat="48.06136" lon="6.84419">
        <ele>885</ele>
        <time>2020-10-28T09:34:46.836Z</time>
      </trkpt>
      <trkpt lat="48.06137" lon="6.84418">
        <ele>886</ele>
        <time>2020-10-28T09:34:47.837Z</time>
      </trkpt>
      <trkpt lat="48.06137" lon="6.84418">
        <ele>886</ele>
        <time>2020-10-28T09:34:48.836Z</time>
      </trkpt>
      <trkpt lat="48.06138" lon="6.84417">
        <ele>886</ele>
        <time>2020-10-28T09:34:49.837Z</time>
      </trkpt>
      <trkpt lat="48.06138" lon="6.84417">
        <ele>887</ele>
        <time>2020-10-28T09:34:50.836Z</time>
      </trkpt>
      <trkpt lat="48.06138" lon="6.84416">
        <ele>887</ele>
        <time>2020-10-28T09:34:51.836Z</time>
      </trkpt>
      <trkpt lat="48.06139" lon="6.84415">
        <ele>887</ele>
        <time>2020-10-28T09:34:52.837Z</time>
      </trkpt>
      <trkpt lat="48.06139" lon="6.84414">
        <ele>887</ele>
        <time>2020-10-28T09:34:53.836Z</time>
      </trkpt>
      <trkpt lat="48.06139" lon="6.84412">
        <ele>887</ele>
        <time>2020-10-28T09:34:54.837Z</time>
      </trkpt>
      <trkpt lat="48.0614" lon="6.84412">
        <ele>887</ele>
        <time>2020-10-28T09:34:55.836Z</time>
      </trkpt>
      <trkpt lat="48.06141" lon="6.84411">
        <ele>887</ele>
        <time>2020-10-28T09:34:56.836Z</time>
      </trkpt>
      <trkpt lat="48.06142" lon="6.84411">
        <ele>887</ele>
        <time>2020-10-28T09:34:57.836Z</time>
      </trkpt>
      <trkpt lat="48.06143" lon="6.8441">
        <ele>887</ele>
        <time>2020-10-28T09:34:58.836Z</time>
      </trkpt>
      <trkpt lat="48.06144" lon="6.8441">
        <ele>888</ele>
        <time>2020-10-28T09:34:59.837Z</time>
      </trkpt>
      <trkpt lat="48.06145" lon="6.8441">
        <ele>888</ele>
        <time>2020-10-28T09:35:00.836Z</time>
      </trkpt>
      <trkpt lat="48.06146" lon="6.84409">
        <ele>888</ele>
        <time>2020-10-28T09:35:01.836Z</time>
      </trkpt>
      <trkpt lat="48.06147" lon="6.84408">
        <ele>888</ele>
        <time>2020-10-28T09:35:02.837Z</time>
      </trkpt>
      <trkpt lat="48.06148" lon="6.84405">
        <ele>888</ele>
        <time>2020-10-28T09:35:03.836Z</time>
      </trkpt>
      <trkpt lat="48.06149" lon="6.84402">
        <ele>888</ele>
        <time>2020-10-28T09:35:04.836Z</time>
      </trkpt>
      <trkpt lat="48.06149" lon="6.84401">
        <ele>887</ele>
        <time>2020-10-28T09:35:05.836Z</time>
      </trkpt>
      <trkpt lat="48.0615" lon="6.84401">
        <ele>888</ele>
        <time>2020-10-28T09:35:06.836Z</time>
      </trkpt>
      <trkpt lat="48.0615" lon="6.84401">
        <ele>888</ele>
        <time>2020-10-28T09:35:07.836Z</time>
      </trkpt>
      <trkpt lat="48.06152" lon="6.84401">
        <ele>888</ele>
        <time>2020-10-28T09:35:08.837Z</time>
      </trkpt>
      <trkpt lat="48.06154" lon="6.844">
        <ele>888</ele>
        <time>2020-10-28T09:35:09.837Z</time>
      </trkpt>
      <trkpt lat="48.06154" lon="6.84398">
        <ele>888</ele>
        <time>2020-10-28T09:35:10.837Z</time>
      </trkpt>
      <trkpt lat="48.06155" lon="6.84397">
        <ele>888</ele>
        <time>2020-10-28T09:35:11.836Z</time>
      </trkpt>
      <trkpt lat="48.06156" lon="6.84396">
        <ele>888</ele>
        <time>2020-10-28T09:35:12.836Z</time>
      </trkpt>
      <trkpt lat="48.06156" lon="6.84395">
        <ele>888</ele>
        <time>2020-10-28T09:35:13.837Z</time>
      </trkpt>
      <trkpt lat="48.06157" lon="6.84393">
        <ele>888</ele>
        <time>2020-10-28T09:35:14.836Z</time>
      </trkpt>
      <trkpt lat="48.06157" lon="6.84392">
        <ele>888</ele>
        <time>2020-10-28T09:35:15.837Z</time>
      </trkpt>
      <trkpt lat="48.06157" lon="6.84392">
        <ele>888</ele>
        <time>2020-10-28T09:35:16.836Z</time>
      </trkpt>
      <trkpt lat="48.06158" lon="6.84391">
        <ele>888</ele>
        <time>2020-10-28T09:35:17.836Z</time>
      </trkpt>
      <trkpt lat="48.06159" lon="6.84389">
        <ele>888</ele>
        <time>2020-10-28T09:35:18.836Z</time>
      </trkpt>
      <trkpt lat="48.0616" lon="6.84388">
        <ele>888</ele>
        <time>2020-10-28T09:35:19.836Z</time>
      </trkpt>
      <trkpt lat="48.06159" lon="6.84387">
        <ele>889</ele>
        <time>2020-10-28T09:35:20.836Z</time>
      </trkpt>
      <trkpt lat="48.06159" lon="6.84386">
        <ele>889</ele>
        <time>2020-10-28T09:35:21.836Z</time>
      </trkpt>
      <trkpt lat="48.0616" lon="6.84386">
        <ele>889</ele>
        <time>2020-10-28T09:35:22.836Z</time>
      </trkpt>
      <trkpt lat="48.06161" lon="6.84385">
        <ele>889</ele>
        <time>2020-10-28T09:35:23.836Z</time>
      </trkpt>
      <trkpt lat="48.06162" lon="6.84383">
        <ele>890</ele>
        <time>2020-10-28T09:35:24.836Z</time>
      </trkpt>
      <trkpt lat="48.06163" lon="6.84383">
        <ele>890</ele>
        <time>2020-10-28T09:35:25.837Z</time>
      </trkpt>
      <trkpt lat="48.06165" lon="6.84384">
        <ele>891</ele>
        <time>2020-10-28T09:35:26.836Z</time>
      </trkpt>
      <trkpt lat="48.06167" lon="6.84384">
        <ele>891</ele>
        <time>2020-10-28T09:35:27.836Z</time>
      </trkpt>
      <trkpt lat="48.06168" lon="6.84383">
        <ele>891</ele>
        <time>2020-10-28T09:35:28.836Z</time>
      </trkpt>
      <trkpt lat="48.0617" lon="6.84383">
        <ele>891</ele>
        <time>2020-10-28T09:35:29.837Z</time>
      </trkpt>
      <trkpt lat="48.06171" lon="6.84383">
        <ele>892</ele>
        <time>2020-10-28T09:35:30.836Z</time>
      </trkpt>
      <trkpt lat="48.06173" lon="6.84383">
        <ele>892</ele>
        <time>2020-10-28T09:35:31.836Z</time>
      </trkpt>
      <trkpt lat="48.06174" lon="6.84383">
        <ele>893</ele>
        <time>2020-10-28T09:35:32.836Z</time>
      </trkpt>
      <trkpt lat="48.06175" lon="6.84383">
        <ele>893</ele>
        <time>2020-10-28T09:35:33.836Z</time>
      </trkpt>
      <trkpt lat="48.06177" lon="6.84383">
        <ele>894</ele>
        <time>2020-10-28T09:35:34.837Z</time>
      </trkpt>
      <trkpt lat="48.0618" lon="6.84383">
        <ele>894</ele>
        <time>2020-10-28T09:35:35.836Z</time>
      </trkpt>
      <trkpt lat="48.06182" lon="6.84382">
        <ele>894</ele>
        <time>2020-10-28T09:35:36.836Z</time>
      </trkpt>
      <trkpt lat="48.06183" lon="6.84381">
        <ele>895</ele>
        <time>2020-10-28T09:35:37.836Z</time>
      </trkpt>
      <trkpt lat="48.06184" lon="6.8438">
        <ele>895</ele>
        <time>2020-10-28T09:35:38.836Z</time>
      </trkpt>
      <trkpt lat="48.06186" lon="6.84381">
        <ele>895</ele>
        <time>2020-10-28T09:35:39.836Z</time>
      </trkpt>
      <trkpt lat="48.06187" lon="6.84381">
        <ele>896</ele>
        <time>2020-10-28T09:35:40.836Z</time>
      </trkpt>
      <trkpt lat="48.06188" lon="6.84381">
        <ele>896</ele>
        <time>2020-10-28T09:35:41.836Z</time>
      </trkpt>
      <trkpt lat="48.0619" lon="6.84381">
        <ele>897</ele>
        <time>2020-10-28T09:35:42.837Z</time>
      </trkpt>
      <trkpt lat="48.06191" lon="6.84381">
        <ele>897</ele>
        <time>2020-10-28T09:35:43.837Z</time>
      </trkpt>
      <trkpt lat="48.06192" lon="6.84381">
        <ele>897</ele>
        <time>2020-10-28T09:35:44.836Z</time>
      </trkpt>
      <trkpt lat="48.06193" lon="6.84381">
        <ele>897</ele>
        <time>2020-10-28T09:35:45.836Z</time>
      </trkpt>
      <trkpt lat="48.06194" lon="6.84381">
        <ele>897</ele>
        <time>2020-10-28T09:35:46.836Z</time>
      </trkpt>
      <trkpt lat="48.06195" lon="6.84381">
        <ele>897</ele>
        <time>2020-10-28T09:35:47.836Z</time>
      </trkpt>
      <trkpt lat="48.06197" lon="6.84382">
        <ele>897</ele>
        <time>2020-10-28T09:35:48.837Z</time>
      </trkpt>
      <trkpt lat="48.06198" lon="6.84382">
        <ele>896</ele>
        <time>2020-10-28T09:35:49.836Z</time>
      </trkpt>
      <trkpt lat="48.06199" lon="6.84382">
        <ele>895</ele>
        <time>2020-10-28T09:35:50.836Z</time>
      </trkpt>
      <trkpt lat="48.062" lon="6.84382">
        <ele>895</ele>
        <time>2020-10-28T09:35:51.836Z</time>
      </trkpt>
      <trkpt lat="48.06202" lon="6.84383">
        <ele>893</ele>
        <time>2020-10-28T09:35:52.837Z</time>
      </trkpt>
      <trkpt lat="48.06203" lon="6.84384">
        <ele>892</ele>
        <time>2020-10-28T09:35:53.836Z</time>
      </trkpt>
      <trkpt lat="48.06205" lon="6.84384">
        <ele>891</ele>
        <time>2020-10-28T09:35:54.837Z</time>
      </trkpt>
      <trkpt lat="48.06205" lon="6.84384">
        <ele>890</ele>
        <time>2020-10-28T09:35:55.836Z</time>
      </trkpt>
      <trkpt lat="48.06205" lon="6.84384">
        <ele>889</ele>
        <time>2020-10-28T09:35:56.837Z</time>
      </trkpt>
      <trkpt lat="48.06206" lon="6.84384">
        <ele>888</ele>
        <time>2020-10-28T09:35:57.839Z</time>
      </trkpt>
      <trkpt lat="48.06208" lon="6.84385">
        <ele>887</ele>
        <time>2020-10-28T09:35:58.839Z</time>
      </trkpt>
      <trkpt lat="48.06209" lon="6.84386">
        <ele>887</ele>
        <time>2020-10-28T09:35:59.838Z</time>
      </trkpt>
      <trkpt lat="48.0621" lon="6.84387">
        <ele>886</ele>
        <time>2020-10-28T09:36:00.839Z</time>
      </trkpt>
      <trkpt lat="48.06212" lon="6.84388">
        <ele>886</ele>
        <time>2020-10-28T09:36:01.839Z</time>
      </trkpt>
      <trkpt lat="48.06213" lon="6.84389">
        <ele>885</ele>
        <time>2020-10-28T09:36:02.839Z</time>
      </trkpt>
      <trkpt lat="48.06213" lon="6.8439">
        <ele>884</ele>
        <time>2020-10-28T09:36:03.839Z</time>
      </trkpt>
      <trkpt lat="48.06214" lon="6.84391">
        <ele>884</ele>
        <time>2020-10-28T09:36:04.839Z</time>
      </trkpt>
      <trkpt lat="48.06215" lon="6.84391">
        <ele>883</ele>
        <time>2020-10-28T09:36:05.839Z</time>
      </trkpt>
      <trkpt lat="48.06216" lon="6.84391">
        <ele>883</ele>
        <time>2020-10-28T09:36:06.839Z</time>
      </trkpt>
      <trkpt lat="48.06217" lon="6.84391">
        <ele>883</ele>
        <time>2020-10-28T09:36:07.839Z</time>
      </trkpt>
      <trkpt lat="48.06217" lon="6.84391">
        <ele>883</ele>
        <time>2020-10-28T09:36:08.839Z</time>
      </trkpt>
      <trkpt lat="48.06218" lon="6.84391">
        <ele>882</ele>
        <time>2020-10-28T09:36:09.839Z</time>
      </trkpt>
      <trkpt lat="48.06219" lon="6.84391">
        <ele>882</ele>
        <time>2020-10-28T09:36:10.838Z</time>
      </trkpt>
      <trkpt lat="48.06219" lon="6.84391">
        <ele>882</ele>
        <time>2020-10-28T09:36:11.839Z</time>
      </trkpt>
      <trkpt lat="48.0622" lon="6.84392">
        <ele>882</ele>
        <time>2020-10-28T09:36:12.839Z</time>
      </trkpt>
      <trkpt lat="48.06221" lon="6.84393">
        <ele>881</ele>
        <time>2020-10-28T09:36:13.839Z</time>
      </trkpt>
      <trkpt lat="48.06223" lon="6.84394">
        <ele>880</ele>
        <time>2020-10-28T09:36:14.839Z</time>
      </trkpt>
      <trkpt lat="48.06224" lon="6.84395">
        <ele>879</ele>
        <time>2020-10-28T09:36:15.839Z</time>
      </trkpt>
      <trkpt lat="48.06225" lon="6.84397">
        <ele>879</ele>
        <time>2020-10-28T09:36:16.839Z</time>
      </trkpt>
      <trkpt lat="48.06226" lon="6.84398">
        <ele>878</ele>
        <time>2020-10-28T09:36:17.838Z</time>
      </trkpt>
      <trkpt lat="48.06227" lon="6.84399">
        <ele>878</ele>
        <time>2020-10-28T09:36:18.839Z</time>
      </trkpt>
      <trkpt lat="48.06227" lon="6.844">
        <ele>878</ele>
        <time>2020-10-28T09:36:19.839Z</time>
      </trkpt>
      <trkpt lat="48.06228" lon="6.84402">
        <ele>878</ele>
        <time>2020-10-28T09:36:20.839Z</time>
      </trkpt>
      <trkpt lat="48.06228" lon="6.84404">
        <ele>878</ele>
        <time>2020-10-28T09:36:21.839Z</time>
      </trkpt>
      <trkpt lat="48.06229" lon="6.84405">
        <ele>878</ele>
        <time>2020-10-28T09:36:22.839Z</time>
      </trkpt>
      <trkpt lat="48.0623" lon="6.84405">
        <ele>878</ele>
        <time>2020-10-28T09:36:23.839Z</time>
      </trkpt>
      <trkpt lat="48.06232" lon="6.84405">
        <ele>879</ele>
        <time>2020-10-28T09:36:24.838Z</time>
      </trkpt>
      <trkpt lat="48.06233" lon="6.84406">
        <ele>879</ele>
        <time>2020-10-28T09:36:25.839Z</time>
      </trkpt>
      <trkpt lat="48.06235" lon="6.84407">
        <ele>879</ele>
        <time>2020-10-28T09:36:26.839Z</time>
      </trkpt>
      <trkpt lat="48.06236" lon="6.84408">
        <ele>879</ele>
        <time>2020-10-28T09:36:27.839Z</time>
      </trkpt>
      <trkpt lat="48.06238" lon="6.84409">
        <ele>880</ele>
        <time>2020-10-28T09:36:28.839Z</time>
      </trkpt>
      <trkpt lat="48.06239" lon="6.84409">
        <ele>880</ele>
        <time>2020-10-28T09:36:29.839Z</time>
      </trkpt>
      <trkpt lat="48.06241" lon="6.84409">
        <ele>881</ele>
        <time>2020-10-28T09:36:30.838Z</time>
      </trkpt>
      <trkpt lat="48.06241" lon="6.84409">
        <ele>882</ele>
        <time>2020-10-28T09:36:31.839Z</time>
      </trkpt>
      <trkpt lat="48.06243" lon="6.84409">
        <ele>883</ele>
        <time>2020-10-28T09:36:32.839Z</time>
      </trkpt>
      <trkpt lat="48.06245" lon="6.8441">
        <ele>883</ele>
        <time>2020-10-28T09:36:33.839Z</time>
      </trkpt>
      <trkpt lat="48.06246" lon="6.84411">
        <ele>884</ele>
        <time>2020-10-28T09:36:34.839Z</time>
      </trkpt>
      <trkpt lat="48.06248" lon="6.84413">
        <ele>884</ele>
        <time>2020-10-28T09:36:35.839Z</time>
      </trkpt>
      <trkpt lat="48.06249" lon="6.84414">
        <ele>884</ele>
        <time>2020-10-28T09:36:36.839Z</time>
      </trkpt>
      <trkpt lat="48.0625" lon="6.84415">
        <ele>885</ele>
        <time>2020-10-28T09:36:37.838Z</time>
      </trkpt>
      <trkpt lat="48.06251" lon="6.84415">
        <ele>885</ele>
        <time>2020-10-28T09:36:38.838Z</time>
      </trkpt>
      <trkpt lat="48.06252" lon="6.84416">
        <ele>885</ele>
        <time>2020-10-28T09:36:39.839Z</time>
      </trkpt>
      <trkpt lat="48.06253" lon="6.84417">
        <ele>886</ele>
        <time>2020-10-28T09:36:40.839Z</time>
      </trkpt>
      <trkpt lat="48.06254" lon="6.84418">
        <ele>886</ele>
        <time>2020-10-28T09:36:41.839Z</time>
      </trkpt>
      <trkpt lat="48.06255" lon="6.84418">
        <ele>886</ele>
        <time>2020-10-28T09:36:42.839Z</time>
      </trkpt>
      <trkpt lat="48.06256" lon="6.84418">
        <ele>886</ele>
        <time>2020-10-28T09:36:43.839Z</time>
      </trkpt>
      <trkpt lat="48.06258" lon="6.84417">
        <ele>885</ele>
        <time>2020-10-28T09:36:44.839Z</time>
      </trkpt>
      <trkpt lat="48.06259" lon="6.84417">
        <ele>885</ele>
        <time>2020-10-28T09:36:45.838Z</time>
      </trkpt>
      <trkpt lat="48.06259" lon="6.84416">
        <ele>885</ele>
        <time>2020-10-28T09:36:46.839Z</time>
      </trkpt>
      <trkpt lat="48.06259" lon="6.84414">
        <ele>885</ele>
        <time>2020-10-28T09:36:47.839Z</time>
      </trkpt>
      <trkpt lat="48.06259" lon="6.84412">
        <ele>884</ele>
        <time>2020-10-28T09:36:48.839Z</time>
      </trkpt>
      <trkpt lat="48.06258" lon="6.8441">
        <ele>884</ele>
        <time>2020-10-28T09:36:49.839Z</time>
      </trkpt>
      <trkpt lat="48.06257" lon="6.84409">
        <ele>884</ele>
        <time>2020-10-28T09:36:50.839Z</time>
      </trkpt>
      <trkpt lat="48.06258" lon="6.84407">
        <ele>883</ele>
        <time>2020-10-28T09:36:51.839Z</time>
      </trkpt>
      <trkpt lat="48.06258" lon="6.84406">
        <ele>883</ele>
        <time>2020-10-28T09:36:52.839Z</time>
      </trkpt>
      <trkpt lat="48.06259" lon="6.84406">
        <ele>883</ele>
        <time>2020-10-28T09:36:53.838Z</time>
      </trkpt>
      <trkpt lat="48.06259" lon="6.84405">
        <ele>883</ele>
        <time>2020-10-28T09:36:54.839Z</time>
      </trkpt>
      <trkpt lat="48.0626" lon="6.84404">
        <ele>883</ele>
        <time>2020-10-28T09:36:55.839Z</time>
      </trkpt>
      <trkpt lat="48.06261" lon="6.84403">
        <ele>884</ele>
        <time>2020-10-28T09:36:56.838Z</time>
      </trkpt>
      <trkpt lat="48.06263" lon="6.84403">
        <ele>884</ele>
        <time>2020-10-28T09:36:57.839Z</time>
      </trkpt>
      <trkpt lat="48.06264" lon="6.84403">
        <ele>884</ele>
        <time>2020-10-28T09:36:58.839Z</time>
      </trkpt>
      <trkpt lat="48.06266" lon="6.84403">
        <ele>885</ele>
        <time>2020-10-28T09:36:59.839Z</time>
      </trkpt>
      <trkpt lat="48.06267" lon="6.84403">
        <ele>885</ele>
        <time>2020-10-28T09:37:00.839Z</time>
      </trkpt>
      <trkpt lat="48.06269" lon="6.84404">
        <ele>886</ele>
        <time>2020-10-28T09:37:01.839Z</time>
      </trkpt>
      <trkpt lat="48.0627" lon="6.84404">
        <ele>886</ele>
        <time>2020-10-28T09:37:02.839Z</time>
      </trkpt>
      <trkpt lat="48.06271" lon="6.84403">
        <ele>887</ele>
        <time>2020-10-28T09:37:03.839Z</time>
      </trkpt>
      <trkpt lat="48.06272" lon="6.84404">
        <ele>887</ele>
        <time>2020-10-28T09:37:04.839Z</time>
      </trkpt>
      <trkpt lat="48.06273" lon="6.84404">
        <ele>887</ele>
        <time>2020-10-28T09:37:05.839Z</time>
      </trkpt>
      <trkpt lat="48.06274" lon="6.84405">
        <ele>887</ele>
        <time>2020-10-28T09:37:06.839Z</time>
      </trkpt>
      <trkpt lat="48.06274" lon="6.84406">
        <ele>887</ele>
        <time>2020-10-28T09:37:07.839Z</time>
      </trkpt>
      <trkpt lat="48.06275" lon="6.84406">
        <ele>887</ele>
        <time>2020-10-28T09:37:08.839Z</time>
      </trkpt>
      <trkpt lat="48.06277" lon="6.84406">
        <ele>888</ele>
        <time>2020-10-28T09:37:09.839Z</time>
      </trkpt>
      <trkpt lat="48.06278" lon="6.84406">
        <ele>888</ele>
        <time>2020-10-28T09:37:10.838Z</time>
      </trkpt>
      <trkpt lat="48.06279" lon="6.84406">
        <ele>888</ele>
        <time>2020-10-28T09:37:11.839Z</time>
      </trkpt>
      <trkpt lat="48.0628" lon="6.84406">
        <ele>888</ele>
        <time>2020-10-28T09:37:12.839Z</time>
      </trkpt>
      <trkpt lat="48.0628" lon="6.84405">
        <ele>888</ele>
        <time>2020-10-28T09:37:13.839Z</time>
      </trkpt>
      <trkpt lat="48.06281" lon="6.84405">
        <ele>888</ele>
        <time>2020-10-28T09:37:14.839Z</time>
      </trkpt>
      <trkpt lat="48.06283" lon="6.84404">
        <ele>888</ele>
        <time>2020-10-28T09:37:15.839Z</time>
      </trkpt>
      <trkpt lat="48.06284" lon="6.84403">
        <ele>888</ele>
        <time>2020-10-28T09:37:16.839Z</time>
      </trkpt>
      <trkpt lat="48.06286" lon="6.84403">
        <ele>889</ele>
        <time>2020-10-28T09:37:17.839Z</time>
      </trkpt>
      <trkpt lat="48.06287" lon="6.84403">
        <ele>889</ele>
        <time>2020-10-28T09:37:18.839Z</time>
      </trkpt>
      <trkpt lat="48.06288" lon="6.84403">
        <ele>889</ele>
        <time>2020-10-28T09:37:19.839Z</time>
      </trkpt>
      <trkpt lat="48.06288" lon="6.84403">
        <ele>889</ele>
        <time>2020-10-28T09:37:20.839Z</time>
      </trkpt>
      <trkpt lat="48.06289" lon="6.84403">
        <ele>888</ele>
        <time>2020-10-28T09:37:21.839Z</time>
      </trkpt>
      <trkpt lat="48.0629" lon="6.84403">
        <ele>888</ele>
        <time>2020-10-28T09:37:22.839Z</time>
      </trkpt>
      <trkpt lat="48.06291" lon="6.84403">
        <ele>888</ele>
        <time>2020-10-28T09:37:23.839Z</time>
      </trkpt>
      <trkpt lat="48.06292" lon="6.84404">
        <ele>887</ele>
        <time>2020-10-28T09:37:24.839Z</time>
      </trkpt>
      <trkpt lat="48.06293" lon="6.84404">
        <ele>887</ele>
        <time>2020-10-28T09:37:25.839Z</time>
      </trkpt>
      <trkpt lat="48.06294" lon="6.84405">
        <ele>886</ele>
        <time>2020-10-28T09:37:26.839Z</time>
      </trkpt>
      <trkpt lat="48.06295" lon="6.84405">
        <ele>886</ele>
        <time>2020-10-28T09:37:27.839Z</time>
      </trkpt>
      <trkpt lat="48.06296" lon="6.84406">
        <ele>886</ele>
        <time>2020-10-28T09:37:28.839Z</time>
      </trkpt>
      <trkpt lat="48.06296" lon="6.84406">
        <ele>886</ele>
        <time>2020-10-28T09:37:29.839Z</time>
      </trkpt>
      <trkpt lat="48.06296" lon="6.84405">
        <ele>886</ele>
        <time>2020-10-28T09:37:30.839Z</time>
      </trkpt>
      <trkpt lat="48.06297" lon="6.84405">
        <ele>886</ele>
        <time>2020-10-28T09:37:31.839Z</time>
      </trkpt>
      <trkpt lat="48.06298" lon="6.84405">
        <ele>886</ele>
        <time>2020-10-28T09:37:32.839Z</time>
      </trkpt>
      <trkpt lat="48.06299" lon="6.84405">
        <ele>886</ele>
        <time>2020-10-28T09:37:33.839Z</time>
      </trkpt>
      <trkpt lat="48.063" lon="6.84406">
        <ele>885</ele>
        <time>2020-10-28T09:37:34.839Z</time>
      </trkpt>
      <trkpt lat="48.06302" lon="6.84406">
        <ele>885</ele>
        <time>2020-10-28T09:37:35.839Z</time>
      </trkpt>
      <trkpt lat="48.06303" lon="6.84407">
        <ele>886</ele>
        <time>2020-10-28T09:37:36.839Z</time>
      </trkpt>
      <trkpt lat="48.06304" lon="6.84408">
        <ele>886</ele>
        <time>2020-10-28T09:37:37.839Z</time>
      </trkpt>
      <trkpt lat="48.06306" lon="6.8441">
        <ele>886</ele>
        <time>2020-10-28T09:37:38.839Z</time>
      </trkpt>
      <trkpt lat="48.06308" lon="6.84411">
        <ele>885</ele>
        <time>2020-10-28T09:37:39.839Z</time>
      </trkpt>
      <trkpt lat="48.0631" lon="6.84413">
        <ele>885</ele>
        <time>2020-10-28T09:37:40.839Z</time>
      </trkpt>
      <trkpt lat="48.06312" lon="6.84414">
        <ele>885</ele>
        <time>2020-10-28T09:37:41.839Z</time>
      </trkpt>
      <trkpt lat="48.06313" lon="6.84416">
        <ele>885</ele>
        <time>2020-10-28T09:37:42.839Z</time>
      </trkpt>
      <trkpt lat="48.06314" lon="6.84416">
        <ele>885</ele>
        <time>2020-10-28T09:37:43.839Z</time>
      </trkpt>
      <trkpt lat="48.06315" lon="6.84416">
        <ele>885</ele>
        <time>2020-10-28T09:37:44.839Z</time>
      </trkpt>
      <trkpt lat="48.06317" lon="6.84416">
        <ele>885</ele>
        <time>2020-10-28T09:37:45.839Z</time>
      </trkpt>
      <trkpt lat="48.06319" lon="6.84416">
        <ele>885</ele>
        <time>2020-10-28T09:37:46.839Z</time>
      </trkpt>
      <trkpt lat="48.0632" lon="6.84416">
        <ele>885</ele>
        <time>2020-10-28T09:37:47.839Z</time>
      </trkpt>
      <trkpt lat="48.06321" lon="6.84416">
        <ele>886</ele>
        <time>2020-10-28T09:37:48.839Z</time>
      </trkpt>
      <trkpt lat="48.06323" lon="6.84416">
        <ele>886</ele>
        <time>2020-10-28T09:37:49.839Z</time>
      </trkpt>
      <trkpt lat="48.06324" lon="6.84416">
        <ele>886</ele>
        <time>2020-10-28T09:37:50.838Z</time>
      </trkpt>
      <trkpt lat="48.06325" lon="6.84417">
        <ele>886</ele>
        <time>2020-10-28T09:37:51.839Z</time>
      </trkpt>
      <trkpt lat="48.06325" lon="6.84417">
        <ele>886</ele>
        <time>2020-10-28T09:37:52.838Z</time>
      </trkpt>
      <trkpt lat="48.06326" lon="6.84418">
        <ele>886</ele>
        <time>2020-10-28T09:37:53.839Z</time>
      </trkpt>
      <trkpt lat="48.06327" lon="6.84419">
        <ele>887</ele>
        <time>2020-10-28T09:37:54.839Z</time>
      </trkpt>
      <trkpt lat="48.06328" lon="6.84419">
        <ele>887</ele>
        <time>2020-10-28T09:37:55.839Z</time>
      </trkpt>
      <trkpt lat="48.06329" lon="6.8442">
        <ele>888</ele>
        <time>2020-10-28T09:37:56.839Z</time>
      </trkpt>
      <trkpt lat="48.0633" lon="6.8442">
        <ele>888</ele>
        <time>2020-10-28T09:37:57.839Z</time>
      </trkpt>
      <trkpt lat="48.06331" lon="6.8442">
        <ele>888</ele>
        <time>2020-10-28T09:37:58.838Z</time>
      </trkpt>
      <trkpt lat="48.06331" lon="6.84421">
        <ele>888</ele>
        <time>2020-10-28T09:37:59.839Z</time>
      </trkpt>
      <trkpt lat="48.06332" lon="6.84421">
        <ele>888</ele>
        <time>2020-10-28T09:38:00.838Z</time>
      </trkpt>
      <trkpt lat="48.06333" lon="6.84422">
        <ele>888</ele>
        <time>2020-10-28T09:38:01.839Z</time>
      </trkpt>
      <trkpt lat="48.06334" lon="6.84422">
        <ele>888</ele>
        <time>2020-10-28T09:38:02.839Z</time>
      </trkpt>
      <trkpt lat="48.06335" lon="6.84422">
        <ele>889</ele>
        <time>2020-10-28T09:38:03.839Z</time>
      </trkpt>
      <trkpt lat="48.06336" lon="6.84421">
        <ele>889</ele>
        <time>2020-10-28T09:38:04.839Z</time>
      </trkpt>
      <trkpt lat="48.06336" lon="6.84421">
        <ele>890</ele>
        <time>2020-10-28T09:38:05.839Z</time>
      </trkpt>
      <trkpt lat="48.06337" lon="6.8442">
        <ele>890</ele>
        <time>2020-10-28T09:38:06.839Z</time>
      </trkpt>
      <trkpt lat="48.06337" lon="6.84419">
        <ele>891</ele>
        <time>2020-10-28T09:38:07.839Z</time>
      </trkpt>
      <trkpt lat="48.06337" lon="6.84419">
        <ele>891</ele>
        <time>2020-10-28T09:38:08.839Z</time>
      </trkpt>
      <trkpt lat="48.06338" lon="6.84419">
        <ele>891</ele>
        <time>2020-10-28T09:38:09.839Z</time>
      </trkpt>
      <trkpt lat="48.06339" lon="6.84418">
        <ele>891</ele>
        <time>2020-10-28T09:38:10.838Z</time>
      </trkpt>
      <trkpt lat="48.0634" lon="6.84418">
        <ele>891</ele>
        <time>2020-10-28T09:38:11.839Z</time>
      </trkpt>
      <trkpt lat="48.06341" lon="6.84417">
        <ele>891</ele>
        <time>2020-10-28T09:38:12.839Z</time>
      </trkpt>
      <trkpt lat="48.06342" lon="6.84416">
        <ele>891</ele>
        <time>2020-10-28T09:38:13.839Z</time>
      </trkpt>
      <trkpt lat="48.06342" lon="6.84415">
        <ele>892</ele>
        <time>2020-10-28T09:38:14.839Z</time>
      </trkpt>
      <trkpt lat="48.06343" lon="6.84414">
        <ele>892</ele>
        <time>2020-10-28T09:38:15.839Z</time>
      </trkpt>
      <trkpt lat="48.06344" lon="6.84413">
        <ele>893</ele>
        <time>2020-10-28T09:38:16.839Z</time>
      </trkpt>
      <trkpt lat="48.06345" lon="6.84412">
        <ele>893</ele>
        <time>2020-10-28T09:38:17.839Z</time>
      </trkpt>
      <trkpt lat="48.06346" lon="6.84412">
        <ele>893</ele>
        <time>2020-10-28T09:38:18.839Z</time>
      </trkpt>
      <trkpt lat="48.06346" lon="6.84412">
        <ele>894</ele>
        <time>2020-10-28T09:38:19.838Z</time>
      </trkpt>
      <trkpt lat="48.06347" lon="6.8441">
        <ele>894</ele>
        <time>2020-10-28T09:38:20.839Z</time>
      </trkpt>
      <trkpt lat="48.06348" lon="6.84409">
        <ele>893</ele>
        <time>2020-10-28T09:38:21.838Z</time>
      </trkpt>
      <trkpt lat="48.06349" lon="6.84408">
        <ele>893</ele>
        <time>2020-10-28T09:38:22.839Z</time>
      </trkpt>
      <trkpt lat="48.06349" lon="6.84406">
        <ele>893</ele>
        <time>2020-10-28T09:38:23.839Z</time>
      </trkpt>
      <trkpt lat="48.06351" lon="6.84405">
        <ele>893</ele>
        <time>2020-10-28T09:38:24.839Z</time>
      </trkpt>
      <trkpt lat="48.06352" lon="6.84404">
        <ele>894</ele>
        <time>2020-10-28T09:38:25.839Z</time>
      </trkpt>
      <trkpt lat="48.06353" lon="6.84405">
        <ele>894</ele>
        <time>2020-10-28T09:38:26.839Z</time>
      </trkpt>
      <trkpt lat="48.06354" lon="6.84405">
        <ele>894</ele>
        <time>2020-10-28T09:38:27.839Z</time>
      </trkpt>
      <trkpt lat="48.06354" lon="6.84405">
        <ele>895</ele>
        <time>2020-10-28T09:38:28.839Z</time>
      </trkpt>
      <trkpt lat="48.06355" lon="6.84405">
        <ele>895</ele>
        <time>2020-10-28T09:38:29.839Z</time>
      </trkpt>
      <trkpt lat="48.06356" lon="6.84405">
        <ele>896</ele>
        <time>2020-10-28T09:38:30.839Z</time>
      </trkpt>
      <trkpt lat="48.06357" lon="6.84405">
        <ele>896</ele>
        <time>2020-10-28T09:38:31.839Z</time>
      </trkpt>
      <trkpt lat="48.06358" lon="6.84405">
        <ele>896</ele>
        <time>2020-10-28T09:38:32.839Z</time>
      </trkpt>
      <trkpt lat="48.06358" lon="6.84405">
        <ele>896</ele>
        <time>2020-10-28T09:38:33.839Z</time>
      </trkpt>
      <trkpt lat="48.06359" lon="6.84404">
        <ele>897</ele>
        <time>2020-10-28T09:38:34.839Z</time>
      </trkpt>
      <trkpt lat="48.0636" lon="6.84403">
        <ele>897</ele>
        <time>2020-10-28T09:38:35.839Z</time>
      </trkpt>
      <trkpt lat="48.06362" lon="6.84402">
        <ele>896</ele>
        <time>2020-10-28T09:38:36.839Z</time>
      </trkpt>
      <trkpt lat="48.06363" lon="6.84401">
        <ele>896</ele>
        <time>2020-10-28T09:38:37.838Z</time>
      </trkpt>
      <trkpt lat="48.06363" lon="6.844">
        <ele>895</ele>
        <time>2020-10-28T09:38:38.839Z</time>
      </trkpt>
      <trkpt lat="48.06363" lon="6.84399">
        <ele>895</ele>
        <time>2020-10-28T09:38:39.839Z</time>
      </trkpt>
      <trkpt lat="48.06364" lon="6.84399">
        <ele>895</ele>
        <time>2020-10-28T09:38:40.839Z</time>
      </trkpt>
      <trkpt lat="48.06365" lon="6.844">
        <ele>895</ele>
        <time>2020-10-28T09:38:41.839Z</time>
      </trkpt>
      <trkpt lat="48.06366" lon="6.844">
        <ele>895</ele>
        <time>2020-10-28T09:38:42.839Z</time>
      </trkpt>
      <trkpt lat="48.06366" lon="6.84401">
        <ele>895</ele>
        <time>2020-10-28T09:38:43.839Z</time>
      </trkpt>
      <trkpt lat="48.06367" lon="6.84401">
        <ele>894</ele>
        <time>2020-10-28T09:38:44.839Z</time>
      </trkpt>
      <trkpt lat="48.06367" lon="6.84401">
        <ele>893</ele>
        <time>2020-10-28T09:38:45.839Z</time>
      </trkpt>
      <trkpt lat="48.06369" lon="6.84401">
        <ele>893</ele>
        <time>2020-10-28T09:38:46.839Z</time>
      </trkpt>
      <trkpt lat="48.0637" lon="6.84401">
        <ele>892</ele>
        <time>2020-10-28T09:38:47.839Z</time>
      </trkpt>
      <trkpt lat="48.0637" lon="6.844">
        <ele>892</ele>
        <time>2020-10-28T09:38:48.839Z</time>
      </trkpt>
      <trkpt lat="48.0637" lon="6.844">
        <ele>892</ele>
        <time>2020-10-28T09:38:49.839Z</time>
      </trkpt>
      <trkpt lat="48.0637" lon="6.84399">
        <ele>892</ele>
        <time>2020-10-28T09:38:50.839Z</time>
      </trkpt>
      <trkpt lat="48.06371" lon="6.84398">
        <ele>892</ele>
        <time>2020-10-28T09:38:51.839Z</time>
      </trkpt>
      <trkpt lat="48.0637" lon="6.84397">
        <ele>892</ele>
        <time>2020-10-28T09:38:52.839Z</time>
      </trkpt>
      <trkpt lat="48.06371" lon="6.84396">
        <ele>892</ele>
        <time>2020-10-28T09:38:53.839Z</time>
      </trkpt>
      <trkpt lat="48.06371" lon="6.84395">
        <ele>892</ele>
        <time>2020-10-28T09:38:54.839Z</time>
      </trkpt>
      <trkpt lat="48.06371" lon="6.84394">
        <ele>892</ele>
        <time>2020-10-28T09:38:55.839Z</time>
      </trkpt>
      <trkpt lat="48.06371" lon="6.84393">
        <ele>892</ele>
        <time>2020-10-28T09:38:56.839Z</time>
      </trkpt>
      <trkpt lat="48.06372" lon="6.84393">
        <ele>892</ele>
        <time>2020-10-28T09:38:57.839Z</time>
      </trkpt>
      <trkpt lat="48.06372" lon="6.84393">
        <ele>892</ele>
        <time>2020-10-28T09:38:58.838Z</time>
      </trkpt>
      <trkpt lat="48.06372" lon="6.84393">
        <ele>893</ele>
        <time>2020-10-28T09:38:59.839Z</time>
      </trkpt>
      <trkpt lat="48.06372" lon="6.84394">
        <ele>893</ele>
        <time>2020-10-28T09:39:00.839Z</time>
      </trkpt>
      <trkpt lat="48.06372" lon="6.84394">
        <ele>894</ele>
        <time>2020-10-28T09:39:01.839Z</time>
      </trkpt>
      <trkpt lat="48.06372" lon="6.84394">
        <ele>894</ele>
        <time>2020-10-28T09:39:02.839Z</time>
      </trkpt>
      <trkpt lat="48.06372" lon="6.84393">
        <ele>895</ele>
        <time>2020-10-28T09:39:03.839Z</time>
      </trkpt>
      <trkpt lat="48.06372" lon="6.84394">
        <ele>896</ele>
        <time>2020-10-28T09:39:04.839Z</time>
      </trkpt>
      <trkpt lat="48.06373" lon="6.84393">
        <ele>897</ele>
        <time>2020-10-28T09:39:05.839Z</time>
      </trkpt>
      <trkpt lat="48.06373" lon="6.84392">
        <ele>898</ele>
        <time>2020-10-28T09:39:06.840Z</time>
      </trkpt>
      <trkpt lat="48.06374" lon="6.84392">
        <ele>899</ele>
        <time>2020-10-28T09:39:07.839Z</time>
      </trkpt>
      <trkpt lat="48.06375" lon="6.84391">
        <ele>899</ele>
        <time>2020-10-28T09:39:08.839Z</time>
      </trkpt>
      <trkpt lat="48.06375" lon="6.8439">
        <ele>900</ele>
        <time>2020-10-28T09:39:09.840Z</time>
      </trkpt>
      <trkpt lat="48.06376" lon="6.84389">
        <ele>900</ele>
        <time>2020-10-28T09:39:10.839Z</time>
      </trkpt>
      <trkpt lat="48.06377" lon="6.84388">
        <ele>900</ele>
        <time>2020-10-28T09:39:11.840Z</time>
      </trkpt>
      <trkpt lat="48.06378" lon="6.84387">
        <ele>899</ele>
        <time>2020-10-28T09:39:12.839Z</time>
      </trkpt>
      <trkpt lat="48.06379" lon="6.84386">
        <ele>899</ele>
        <time>2020-10-28T09:39:13.840Z</time>
      </trkpt>
      <trkpt lat="48.0638" lon="6.84386">
        <ele>899</ele>
        <time>2020-10-28T09:39:14.839Z</time>
      </trkpt>
      <trkpt lat="48.06381" lon="6.84386">
        <ele>899</ele>
        <time>2020-10-28T09:39:15.840Z</time>
      </trkpt>
      <trkpt lat="48.06381" lon="6.84386">
        <ele>899</ele>
        <time>2020-10-28T09:39:16.840Z</time>
      </trkpt>
      <trkpt lat="48.06381" lon="6.84387">
        <ele>899</ele>
        <time>2020-10-28T09:39:17.839Z</time>
      </trkpt>
      <trkpt lat="48.06382" lon="6.84389">
        <ele>899</ele>
        <time>2020-10-28T09:39:18.839Z</time>
      </trkpt>
      <trkpt lat="48.06382" lon="6.84389">
        <ele>898</ele>
        <time>2020-10-28T09:39:19.840Z</time>
      </trkpt>
      <trkpt lat="48.06382" lon="6.84389">
        <ele>898</ele>
        <time>2020-10-28T09:39:20.840Z</time>
      </trkpt>
      <trkpt lat="48.06382" lon="6.84389">
        <ele>898</ele>
        <time>2020-10-28T09:39:21.840Z</time>
      </trkpt>
      <trkpt lat="48.06383" lon="6.84388">
        <ele>898</ele>
        <time>2020-10-28T09:39:22.840Z</time>
      </trkpt>
      <trkpt lat="48.06383" lon="6.84388">
        <ele>898</ele>
        <time>2020-10-28T09:39:23.839Z</time>
      </trkpt>
      <trkpt lat="48.06384" lon="6.84387">
        <ele>898</ele>
        <time>2020-10-28T09:39:24.839Z</time>
      </trkpt>
      <trkpt lat="48.06385" lon="6.84387">
        <ele>898</ele>
        <time>2020-10-28T09:39:25.839Z</time>
      </trkpt>
      <trkpt lat="48.06385" lon="6.84386">
        <ele>897</ele>
        <time>2020-10-28T09:39:26.839Z</time>
      </trkpt>
      <trkpt lat="48.06386" lon="6.84387">
        <ele>897</ele>
        <time>2020-10-28T09:39:27.840Z</time>
      </trkpt>
      <trkpt lat="48.06386" lon="6.84387">
        <ele>896</ele>
        <time>2020-10-28T09:39:28.839Z</time>
      </trkpt>
      <trkpt lat="48.06387" lon="6.84389">
        <ele>895</ele>
        <time>2020-10-28T09:39:29.841Z</time>
      </trkpt>
      <trkpt lat="48.06387" lon="6.84389">
        <ele>895</ele>
        <time>2020-10-28T09:39:30.841Z</time>
      </trkpt>
      <trkpt lat="48.06387" lon="6.84389">
        <ele>895</ele>
        <time>2020-10-28T09:39:31.840Z</time>
      </trkpt>
      <trkpt lat="48.06386" lon="6.84389">
        <ele>887</ele>
        <time>2020-10-28T09:39:32.841Z</time>
      </trkpt>
      <trkpt lat="48.06385" lon="6.84388">
        <ele>888</ele>
        <time>2020-10-28T09:39:33.842Z</time>
      </trkpt>
      <trkpt lat="48.06385" lon="6.84388">
        <ele>888</ele>
        <time>2020-10-28T09:39:34.841Z</time>
      </trkpt>
      <trkpt lat="48.06389" lon="6.84389">
        <ele>908</ele>
        <time>2020-10-28T09:39:35.842Z</time>
      </trkpt>
      <trkpt lat="48.06391" lon="6.84392">
        <ele>905</ele>
        <time>2020-10-28T09:39:36.841Z</time>
      </trkpt>
      <trkpt lat="48.0639" lon="6.84394">
        <ele>905</ele>
        <time>2020-10-28T09:39:37.842Z</time>
      </trkpt>
      <trkpt lat="48.06389" lon="6.84395">
        <ele>905</ele>
        <time>2020-10-28T09:39:38.841Z</time>
      </trkpt>
      <trkpt lat="48.06388" lon="6.84396">
        <ele>905</ele>
        <time>2020-10-28T09:39:39.841Z</time>
      </trkpt>
      <trkpt lat="48.06387" lon="6.84396">
        <ele>905</ele>
        <time>2020-10-28T09:39:40.841Z</time>
      </trkpt>
      <trkpt lat="48.06386" lon="6.84396">
        <ele>905</ele>
        <time>2020-10-28T09:39:41.841Z</time>
      </trkpt>
      <trkpt lat="48.06386" lon="6.84397">
        <ele>906</ele>
        <time>2020-10-28T09:39:42.842Z</time>
      </trkpt>
      <trkpt lat="48.06385" lon="6.84397">
        <ele>906</ele>
        <time>2020-10-28T09:39:43.842Z</time>
      </trkpt>
      <trkpt lat="48.06384" lon="6.84397">
        <ele>906</ele>
        <time>2020-10-28T09:39:44.842Z</time>
      </trkpt>
      <trkpt lat="48.06384" lon="6.84397">
        <ele>907</ele>
        <time>2020-10-28T09:39:45.842Z</time>
      </trkpt>
      <trkpt lat="48.06384" lon="6.84397">
        <ele>907</ele>
        <time>2020-10-28T09:39:46.842Z</time>
      </trkpt>
      <trkpt lat="48.06383" lon="6.84396">
        <ele>907</ele>
        <time>2020-10-28T09:39:47.842Z</time>
      </trkpt>
      <trkpt lat="48.06383" lon="6.84395">
        <ele>907</ele>
        <time>2020-10-28T09:39:48.841Z</time>
      </trkpt>
      <trkpt lat="48.06383" lon="6.84394">
        <ele>907</ele>
        <time>2020-10-28T09:39:49.842Z</time>
      </trkpt>
      <trkpt lat="48.06383" lon="6.84393">
        <ele>906</ele>
        <time>2020-10-28T09:39:50.841Z</time>
      </trkpt>
      <trkpt lat="48.06384" lon="6.84392">
        <ele>906</ele>
        <time>2020-10-28T09:39:51.841Z</time>
      </trkpt>
      <trkpt lat="48.06384" lon="6.84392">
        <ele>906</ele>
        <time>2020-10-28T09:39:52.841Z</time>
      </trkpt>
      <trkpt lat="48.06385" lon="6.84391">
        <ele>905</ele>
        <time>2020-10-28T09:39:53.842Z</time>
      </trkpt>
      <trkpt lat="48.06385" lon="6.8439">
        <ele>904</ele>
        <time>2020-10-28T09:39:54.842Z</time>
      </trkpt>
      <trkpt lat="48.06384" lon="6.84389">
        <ele>904</ele>
        <time>2020-10-28T09:39:55.842Z</time>
      </trkpt>
      <trkpt lat="48.06384" lon="6.8439">
        <ele>904</ele>
        <time>2020-10-28T09:39:56.841Z</time>
      </trkpt>
      <trkpt lat="48.06383" lon="6.84391">
        <ele>904</ele>
        <time>2020-10-28T09:39:57.842Z</time>
      </trkpt>
      <trkpt lat="48.06382" lon="6.84391">
        <ele>904</ele>
        <time>2020-10-28T09:39:58.842Z</time>
      </trkpt>
      <trkpt lat="48.06382" lon="6.84391">
        <ele>904</ele>
        <time>2020-10-28T09:39:59.842Z</time>
      </trkpt>
      <trkpt lat="48.06382" lon="6.8439">
        <ele>904</ele>
        <time>2020-10-28T09:40:00.841Z</time>
      </trkpt>
      <trkpt lat="48.06382" lon="6.84389">
        <ele>904</ele>
        <time>2020-10-28T09:40:01.842Z</time>
      </trkpt>
      <trkpt lat="48.06382" lon="6.84388">
        <ele>905</ele>
        <time>2020-10-28T09:40:02.842Z</time>
      </trkpt>
      <trkpt lat="48.06382" lon="6.84388">
        <ele>905</ele>
        <time>2020-10-28T09:40:03.842Z</time>
      </trkpt>
      <trkpt lat="48.06382" lon="6.84387">
        <ele>905</ele>
        <time>2020-10-28T09:40:04.841Z</time>
      </trkpt>
      <trkpt lat="48.06381" lon="6.84389">
        <ele>904</ele>
        <time>2020-10-28T09:40:05.842Z</time>
      </trkpt>
      <trkpt lat="48.06381" lon="6.84389">
        <ele>904</ele>
        <time>2020-10-28T09:40:06.842Z</time>
      </trkpt>
      <trkpt lat="48.0638" lon="6.8439">
        <ele>904</ele>
        <time>2020-10-28T09:40:07.841Z</time>
      </trkpt>
      <trkpt lat="48.0638" lon="6.8439">
        <ele>904</ele>
        <time>2020-10-28T09:40:08.842Z</time>
      </trkpt>
      <trkpt lat="48.0638" lon="6.84391">
        <ele>904</ele>
        <time>2020-10-28T09:40:09.842Z</time>
      </trkpt>
      <trkpt lat="48.0638" lon="6.84392">
        <ele>903</ele>
        <time>2020-10-28T09:40:10.841Z</time>
      </trkpt>
      <trkpt lat="48.06379" lon="6.84393">
        <ele>903</ele>
        <time>2020-10-28T09:40:11.842Z</time>
      </trkpt>
      <trkpt lat="48.06379" lon="6.84394">
        <ele>902</ele>
        <time>2020-10-28T09:40:12.842Z</time>
      </trkpt>
      <trkpt lat="48.06378" lon="6.84395">
        <ele>902</ele>
        <time>2020-10-28T09:40:13.842Z</time>
      </trkpt>
      <trkpt lat="48.06377" lon="6.84396">
        <ele>902</ele>
        <time>2020-10-28T09:40:14.841Z</time>
      </trkpt>
      <trkpt lat="48.06376" lon="6.84396">
        <ele>902</ele>
        <time>2020-10-28T09:40:15.841Z</time>
      </trkpt>
      <trkpt lat="48.06377" lon="6.84396">
        <ele>902</ele>
        <time>2020-10-28T09:40:16.842Z</time>
      </trkpt>
      <trkpt lat="48.06376" lon="6.84395">
        <ele>901</ele>
        <time>2020-10-28T09:40:17.842Z</time>
      </trkpt>
      <trkpt lat="48.06375" lon="6.84396">
        <ele>901</ele>
        <time>2020-10-28T09:40:18.842Z</time>
      </trkpt>
      <trkpt lat="48.06375" lon="6.84396">
        <ele>901</ele>
        <time>2020-10-28T09:40:19.841Z</time>
      </trkpt>
      <trkpt lat="48.06374" lon="6.84397">
        <ele>901</ele>
        <time>2020-10-28T09:40:20.842Z</time>
      </trkpt>
      <trkpt lat="48.06374" lon="6.84398">
        <ele>901</ele>
        <time>2020-10-28T09:40:21.842Z</time>
      </trkpt>
      <trkpt lat="48.06373" lon="6.84398">
        <ele>901</ele>
        <time>2020-10-28T09:40:22.842Z</time>
      </trkpt>
      <trkpt lat="48.06373" lon="6.84398">
        <ele>901</ele>
        <time>2020-10-28T09:40:23.842Z</time>
      </trkpt>
      <trkpt lat="48.06366" lon="6.84403">
        <ele>897</ele>
        <time>2020-10-28T09:40:24.841Z</time>
      </trkpt>
      <trkpt lat="48.06364" lon="6.84403">
        <ele>897</ele>
        <time>2020-10-28T09:40:25.841Z</time>
      </trkpt>
      <trkpt lat="48.06363" lon="6.84404">
        <ele>897</ele>
        <time>2020-10-28T09:40:26.842Z</time>
      </trkpt>
      <trkpt lat="48.06362" lon="6.84405">
        <ele>897</ele>
        <time>2020-10-28T09:40:27.841Z</time>
      </trkpt>
      <trkpt lat="48.0636" lon="6.84405">
        <ele>897</ele>
        <time>2020-10-28T09:40:28.842Z</time>
      </trkpt>
      <trkpt lat="48.06359" lon="6.84406">
        <ele>897</ele>
        <time>2020-10-28T09:40:29.842Z</time>
      </trkpt>
      <trkpt lat="48.06357" lon="6.84407">
        <ele>898</ele>
        <time>2020-10-28T09:40:30.842Z</time>
      </trkpt>
      <trkpt lat="48.06356" lon="6.84408">
        <ele>898</ele>
        <time>2020-10-28T09:40:31.842Z</time>
      </trkpt>
      <trkpt lat="48.06355" lon="6.84408">
        <ele>898</ele>
        <time>2020-10-28T09:40:32.842Z</time>
      </trkpt>
      <trkpt lat="48.06354" lon="6.84409">
        <ele>898</ele>
        <time>2020-10-28T09:40:33.842Z</time>
      </trkpt>
      <trkpt lat="48.06353" lon="6.8441">
        <ele>898</ele>
        <time>2020-10-28T09:40:34.842Z</time>
      </trkpt>
      <trkpt lat="48.06352" lon="6.8441">
        <ele>899</ele>
        <time>2020-10-28T09:40:35.841Z</time>
      </trkpt>
      <trkpt lat="48.06351" lon="6.84411">
        <ele>900</ele>
        <time>2020-10-28T09:40:36.842Z</time>
      </trkpt>
      <trkpt lat="48.0635" lon="6.84412">
        <ele>901</ele>
        <time>2020-10-28T09:40:37.842Z</time>
      </trkpt>
      <trkpt lat="48.0635" lon="6.84413">
        <ele>901</ele>
        <time>2020-10-28T09:40:38.842Z</time>
      </trkpt>
      <trkpt lat="48.06349" lon="6.84413">
        <ele>901</ele>
        <time>2020-10-28T09:40:39.842Z</time>
      </trkpt>
      <trkpt lat="48.06349" lon="6.84414">
        <ele>902</ele>
        <time>2020-10-28T09:40:40.842Z</time>
      </trkpt>
      <trkpt lat="48.06348" lon="6.84414">
        <ele>902</ele>
        <time>2020-10-28T09:40:41.842Z</time>
      </trkpt>
      <trkpt lat="48.06348" lon="6.84415">
        <ele>902</ele>
        <time>2020-10-28T09:40:42.842Z</time>
      </trkpt>
      <trkpt lat="48.06347" lon="6.84415">
        <ele>902</ele>
        <time>2020-10-28T09:40:43.842Z</time>
      </trkpt>
      <trkpt lat="48.06346" lon="6.84415">
        <ele>902</ele>
        <time>2020-10-28T09:40:44.842Z</time>
      </trkpt>
      <trkpt lat="48.06345" lon="6.84415">
        <ele>902</ele>
        <time>2020-10-28T09:40:45.842Z</time>
      </trkpt>
      <trkpt lat="48.06345" lon="6.84416">
        <ele>901</ele>
        <time>2020-10-28T09:40:46.842Z</time>
      </trkpt>
      <trkpt lat="48.06344" lon="6.84416">
        <ele>901</ele>
        <time>2020-10-28T09:40:47.842Z</time>
      </trkpt>
      <trkpt lat="48.06344" lon="6.84415">
        <ele>902</ele>
        <time>2020-10-28T09:40:48.841Z</time>
      </trkpt>
      <trkpt lat="48.06343" lon="6.84415">
        <ele>902</ele>
        <time>2020-10-28T09:40:49.842Z</time>
      </trkpt>
      <trkpt lat="48.06343" lon="6.84415">
        <ele>902</ele>
        <time>2020-10-28T09:40:50.842Z</time>
      </trkpt>
      <trkpt lat="48.06342" lon="6.84415">
        <ele>902</ele>
        <time>2020-10-28T09:40:51.842Z</time>
      </trkpt>
      <trkpt lat="48.06342" lon="6.84415">
        <ele>902</ele>
        <time>2020-10-28T09:40:52.842Z</time>
      </trkpt>
      <trkpt lat="48.06341" lon="6.84415">
        <ele>903</ele>
        <time>2020-10-28T09:40:53.841Z</time>
      </trkpt>
      <trkpt lat="48.0634" lon="6.84415">
        <ele>903</ele>
        <time>2020-10-28T09:40:54.842Z</time>
      </trkpt>
      <trkpt lat="48.0634" lon="6.84416">
        <ele>904</ele>
        <time>2020-10-28T09:40:55.842Z</time>
      </trkpt>
      <trkpt lat="48.0634" lon="6.84416">
        <ele>904</ele>
        <time>2020-10-28T09:40:56.841Z</time>
      </trkpt>
      <trkpt lat="48.06331" lon="6.84423">
        <ele>908</ele>
        <time>2020-10-28T09:40:57.843Z</time>
      </trkpt>
      <trkpt lat="48.0633" lon="6.84423">
        <ele>908</ele>
        <time>2020-10-28T09:40:58.843Z</time>
      </trkpt>
      <trkpt lat="48.06328" lon="6.84423">
        <ele>908</ele>
        <time>2020-10-28T09:40:59.843Z</time>
      </trkpt>
      <trkpt lat="48.06327" lon="6.84422">
        <ele>907</ele>
        <time>2020-10-28T09:41:00.842Z</time>
      </trkpt>
      <trkpt lat="48.06326" lon="6.84421">
        <ele>907</ele>
        <time>2020-10-28T09:41:01.843Z</time>
      </trkpt>
      <trkpt lat="48.06325" lon="6.84421">
        <ele>906</ele>
        <time>2020-10-28T09:41:02.842Z</time>
      </trkpt>
      <trkpt lat="48.06324" lon="6.8442">
        <ele>906</ele>
        <time>2020-10-28T09:41:03.843Z</time>
      </trkpt>
      <trkpt lat="48.06323" lon="6.84419">
        <ele>906</ele>
        <time>2020-10-28T09:41:04.843Z</time>
      </trkpt>
      <trkpt lat="48.06322" lon="6.84419">
        <ele>905</ele>
        <time>2020-10-28T09:41:05.843Z</time>
      </trkpt>
      <trkpt lat="48.06321" lon="6.84419">
        <ele>904</ele>
        <time>2020-10-28T09:41:06.843Z</time>
      </trkpt>
      <trkpt lat="48.0632" lon="6.84419">
        <ele>903</ele>
        <time>2020-10-28T09:41:07.843Z</time>
      </trkpt>
      <trkpt lat="48.0632" lon="6.84419">
        <ele>903</ele>
        <time>2020-10-28T09:41:08.843Z</time>
      </trkpt>
      <trkpt lat="48.06319" lon="6.84419">
        <ele>902</ele>
        <time>2020-10-28T09:41:09.843Z</time>
      </trkpt>
      <trkpt lat="48.06319" lon="6.84419">
        <ele>902</ele>
        <time>2020-10-28T09:41:10.843Z</time>
      </trkpt>
      <trkpt lat="48.06318" lon="6.84419">
        <ele>902</ele>
        <time>2020-10-28T09:41:11.843Z</time>
      </trkpt>
      <trkpt lat="48.06317" lon="6.84419">
        <ele>901</ele>
        <time>2020-10-28T09:41:12.843Z</time>
      </trkpt>
      <trkpt lat="48.06316" lon="6.84419">
        <ele>900</ele>
        <time>2020-10-28T09:41:13.843Z</time>
      </trkpt>
      <trkpt lat="48.06315" lon="6.84419">
        <ele>900</ele>
        <time>2020-10-28T09:41:14.843Z</time>
      </trkpt>
      <trkpt lat="48.06314" lon="6.84419">
        <ele>899</ele>
        <time>2020-10-28T09:41:15.843Z</time>
      </trkpt>
      <trkpt lat="48.06313" lon="6.84419">
        <ele>899</ele>
        <time>2020-10-28T09:41:16.843Z</time>
      </trkpt>
      <trkpt lat="48.06313" lon="6.84419">
        <ele>898</ele>
        <time>2020-10-28T09:41:17.843Z</time>
      </trkpt>
      <trkpt lat="48.06311" lon="6.84419">
        <ele>897</ele>
        <time>2020-10-28T09:41:18.843Z</time>
      </trkpt>
      <trkpt lat="48.0631" lon="6.84418">
        <ele>896</ele>
        <time>2020-10-28T09:41:19.842Z</time>
      </trkpt>
      <trkpt lat="48.06309" lon="6.84417">
        <ele>896</ele>
        <time>2020-10-28T09:41:20.842Z</time>
      </trkpt>
      <trkpt lat="48.06308" lon="6.84416">
        <ele>895</ele>
        <time>2020-10-28T09:41:21.843Z</time>
      </trkpt>
      <trkpt lat="48.06308" lon="6.84416">
        <ele>894</ele>
        <time>2020-10-28T09:41:22.843Z</time>
      </trkpt>
      <trkpt lat="48.06307" lon="6.84415">
        <ele>894</ele>
        <time>2020-10-28T09:41:23.843Z</time>
      </trkpt>
      <trkpt lat="48.06306" lon="6.84415">
        <ele>894</ele>
        <time>2020-10-28T09:41:24.843Z</time>
      </trkpt>
      <trkpt lat="48.06304" lon="6.84415">
        <ele>894</ele>
        <time>2020-10-28T09:41:25.842Z</time>
      </trkpt>
      <trkpt lat="48.06303" lon="6.84414">
        <ele>894</ele>
        <time>2020-10-28T09:41:26.842Z</time>
      </trkpt>
      <trkpt lat="48.06302" lon="6.84413">
        <ele>894</ele>
        <time>2020-10-28T09:41:27.843Z</time>
      </trkpt>
      <trkpt lat="48.06301" lon="6.84412">
        <ele>894</ele>
        <time>2020-10-28T09:41:28.842Z</time>
      </trkpt>
      <trkpt lat="48.063" lon="6.84412">
        <ele>894</ele>
        <time>2020-10-28T09:41:29.842Z</time>
      </trkpt>
      <trkpt lat="48.063" lon="6.84412">
        <ele>894</ele>
        <time>2020-10-28T09:41:30.842Z</time>
      </trkpt>
      <trkpt lat="48.06299" lon="6.84412">
        <ele>894</ele>
        <time>2020-10-28T09:41:31.842Z</time>
      </trkpt>
      <trkpt lat="48.06298" lon="6.84412">
        <ele>894</ele>
        <time>2020-10-28T09:41:32.843Z</time>
      </trkpt>
      <trkpt lat="48.06296" lon="6.84412">
        <ele>895</ele>
        <time>2020-10-28T09:41:33.843Z</time>
      </trkpt>
      <trkpt lat="48.06294" lon="6.84413">
        <ele>894</ele>
        <time>2020-10-28T09:41:34.843Z</time>
      </trkpt>
      <trkpt lat="48.06292" lon="6.84414">
        <ele>894</ele>
        <time>2020-10-28T09:41:35.843Z</time>
      </trkpt>
      <trkpt lat="48.0629" lon="6.84415">
        <ele>893</ele>
        <time>2020-10-28T09:41:36.843Z</time>
      </trkpt>
      <trkpt lat="48.06289" lon="6.84415">
        <ele>893</ele>
        <time>2020-10-28T09:41:37.843Z</time>
      </trkpt>
      <trkpt lat="48.06288" lon="6.84416">
        <ele>893</ele>
        <time>2020-10-28T09:41:38.842Z</time>
      </trkpt>
      <trkpt lat="48.06287" lon="6.84416">
        <ele>893</ele>
        <time>2020-10-28T09:41:39.843Z</time>
      </trkpt>
      <trkpt lat="48.06286" lon="6.84416">
        <ele>893</ele>
        <time>2020-10-28T09:41:40.842Z</time>
      </trkpt>
      <trkpt lat="48.06285" lon="6.84417">
        <ele>893</ele>
        <time>2020-10-28T09:41:41.843Z</time>
      </trkpt>
      <trkpt lat="48.06284" lon="6.84417">
        <ele>894</ele>
        <time>2020-10-28T09:41:42.843Z</time>
      </trkpt>
      <trkpt lat="48.06284" lon="6.84418">
        <ele>894</ele>
        <time>2020-10-28T09:41:43.843Z</time>
      </trkpt>
      <trkpt lat="48.06283" lon="6.84419">
        <ele>894</ele>
        <time>2020-10-28T09:41:44.842Z</time>
      </trkpt>
      <trkpt lat="48.06282" lon="6.84419">
        <ele>895</ele>
        <time>2020-10-28T09:41:45.842Z</time>
      </trkpt>
      <trkpt lat="48.06281" lon="6.8442">
        <ele>896</ele>
        <time>2020-10-28T09:41:46.843Z</time>
      </trkpt>
      <trkpt lat="48.0628" lon="6.84419">
        <ele>896</ele>
        <time>2020-10-28T09:41:47.842Z</time>
      </trkpt>
      <trkpt lat="48.06278" lon="6.84419">
        <ele>897</ele>
        <time>2020-10-28T09:41:48.843Z</time>
      </trkpt>
      <trkpt lat="48.06276" lon="6.84418">
        <ele>897</ele>
        <time>2020-10-28T09:41:49.843Z</time>
      </trkpt>
      <trkpt lat="48.06275" lon="6.84418">
        <ele>897</ele>
        <time>2020-10-28T09:41:50.843Z</time>
      </trkpt>
      <trkpt lat="48.06274" lon="6.84417">
        <ele>897</ele>
        <time>2020-10-28T09:41:51.843Z</time>
      </trkpt>
      <trkpt lat="48.06273" lon="6.84417">
        <ele>897</ele>
        <time>2020-10-28T09:41:52.842Z</time>
      </trkpt>
      <trkpt lat="48.06273" lon="6.84416">
        <ele>897</ele>
        <time>2020-10-28T09:41:53.843Z</time>
      </trkpt>
      <trkpt lat="48.06272" lon="6.84416">
        <ele>897</ele>
        <time>2020-10-28T09:41:54.843Z</time>
      </trkpt>
      <trkpt lat="48.06271" lon="6.84416">
        <ele>897</ele>
        <time>2020-10-28T09:41:55.842Z</time>
      </trkpt>
      <trkpt lat="48.06271" lon="6.84415">
        <ele>897</ele>
        <time>2020-10-28T09:41:56.842Z</time>
      </trkpt>
      <trkpt lat="48.0627" lon="6.84414">
        <ele>898</ele>
        <time>2020-10-28T09:41:57.842Z</time>
      </trkpt>
      <trkpt lat="48.06269" lon="6.84414">
        <ele>898</ele>
        <time>2020-10-28T09:41:58.843Z</time>
      </trkpt>
      <trkpt lat="48.06268" lon="6.84413">
        <ele>898</ele>
        <time>2020-10-28T09:41:59.843Z</time>
      </trkpt>
      <trkpt lat="48.06267" lon="6.84413">
        <ele>898</ele>
        <time>2020-10-28T09:42:00.843Z</time>
      </trkpt>
      <trkpt lat="48.06265" lon="6.84413">
        <ele>898</ele>
        <time>2020-10-28T09:42:01.842Z</time>
      </trkpt>
      <trkpt lat="48.06263" lon="6.84413">
        <ele>898</ele>
        <time>2020-10-28T09:42:02.842Z</time>
      </trkpt>
      <trkpt lat="48.06261" lon="6.84413">
        <ele>898</ele>
        <time>2020-10-28T09:42:03.843Z</time>
      </trkpt>
      <trkpt lat="48.06259" lon="6.84413">
        <ele>898</ele>
        <time>2020-10-28T09:42:04.843Z</time>
      </trkpt>
      <trkpt lat="48.06258" lon="6.84413">
        <ele>898</ele>
        <time>2020-10-28T09:42:05.842Z</time>
      </trkpt>
      <trkpt lat="48.06257" lon="6.84412">
        <ele>899</ele>
        <time>2020-10-28T09:42:06.843Z</time>
      </trkpt>
      <trkpt lat="48.06256" lon="6.84412">
        <ele>899</ele>
        <time>2020-10-28T09:42:07.843Z</time>
      </trkpt>
      <trkpt lat="48.06255" lon="6.84411">
        <ele>899</ele>
        <time>2020-10-28T09:42:08.843Z</time>
      </trkpt>
      <trkpt lat="48.06253" lon="6.84409">
        <ele>899</ele>
        <time>2020-10-28T09:42:09.842Z</time>
      </trkpt>
      <trkpt lat="48.06253" lon="6.84411">
        <ele>899</ele>
        <time>2020-10-28T09:42:10.843Z</time>
      </trkpt>
      <trkpt lat="48.06253" lon="6.8441">
        <ele>899</ele>
        <time>2020-10-28T09:42:11.843Z</time>
      </trkpt>
      <trkpt lat="48.06252" lon="6.84409">
        <ele>898</ele>
        <time>2020-10-28T09:42:12.843Z</time>
      </trkpt>
      <trkpt lat="48.06251" lon="6.84409">
        <ele>898</ele>
        <time>2020-10-28T09:42:13.842Z</time>
      </trkpt>
      <trkpt lat="48.0625" lon="6.84408">
        <ele>897</ele>
        <time>2020-10-28T09:42:14.843Z</time>
      </trkpt>
      <trkpt lat="48.06249" lon="6.84408">
        <ele>897</ele>
        <time>2020-10-28T09:42:15.843Z</time>
      </trkpt>
      <trkpt lat="48.06248" lon="6.84408">
        <ele>896</ele>
        <time>2020-10-28T09:42:16.843Z</time>
      </trkpt>
      <trkpt lat="48.06248" lon="6.84408">
        <ele>895</ele>
        <time>2020-10-28T09:42:17.843Z</time>
      </trkpt>
      <trkpt lat="48.06247" lon="6.84408">
        <ele>895</ele>
        <time>2020-10-28T09:42:18.843Z</time>
      </trkpt>
      <trkpt lat="48.06246" lon="6.84408">
        <ele>894</ele>
        <time>2020-10-28T09:42:19.843Z</time>
      </trkpt>
      <trkpt lat="48.06245" lon="6.84407">
        <ele>894</ele>
        <time>2020-10-28T09:42:20.842Z</time>
      </trkpt>
      <trkpt lat="48.06244" lon="6.84406">
        <ele>893</ele>
        <time>2020-10-28T09:42:21.843Z</time>
      </trkpt>
      <trkpt lat="48.06243" lon="6.84406">
        <ele>893</ele>
        <time>2020-10-28T09:42:22.843Z</time>
      </trkpt>
      <trkpt lat="48.06242" lon="6.84406">
        <ele>892</ele>
        <time>2020-10-28T09:42:23.843Z</time>
      </trkpt>
      <trkpt lat="48.06241" lon="6.84406">
        <ele>891</ele>
        <time>2020-10-28T09:42:24.843Z</time>
      </trkpt>
      <trkpt lat="48.06241" lon="6.84406">
        <ele>891</ele>
        <time>2020-10-28T09:42:25.843Z</time>
      </trkpt>
      <trkpt lat="48.06239" lon="6.84405">
        <ele>890</ele>
        <time>2020-10-28T09:42:26.842Z</time>
      </trkpt>
      <trkpt lat="48.06238" lon="6.84404">
        <ele>890</ele>
        <time>2020-10-28T09:42:27.843Z</time>
      </trkpt>
      <trkpt lat="48.06237" lon="6.84404">
        <ele>890</ele>
        <time>2020-10-28T09:42:28.843Z</time>
      </trkpt>
      <trkpt lat="48.06237" lon="6.84404">
        <ele>889</ele>
        <time>2020-10-28T09:42:29.843Z</time>
      </trkpt>
      <trkpt lat="48.06236" lon="6.84404">
        <ele>889</ele>
        <time>2020-10-28T09:42:30.842Z</time>
      </trkpt>
      <trkpt lat="48.06234" lon="6.84405">
        <ele>889</ele>
        <time>2020-10-28T09:42:31.842Z</time>
      </trkpt>
      <trkpt lat="48.06233" lon="6.84405">
        <ele>888</ele>
        <time>2020-10-28T09:42:32.843Z</time>
      </trkpt>
      <trkpt lat="48.06232" lon="6.84405">
        <ele>888</ele>
        <time>2020-10-28T09:42:33.843Z</time>
      </trkpt>
      <trkpt lat="48.06229" lon="6.84404">
        <ele>888</ele>
        <time>2020-10-28T09:42:34.842Z</time>
      </trkpt>
      <trkpt lat="48.06227" lon="6.84404">
        <ele>888</ele>
        <time>2020-10-28T09:42:35.842Z</time>
      </trkpt>
      <trkpt lat="48.06226" lon="6.84403">
        <ele>888</ele>
        <time>2020-10-28T09:42:36.843Z</time>
      </trkpt>
      <trkpt lat="48.06225" lon="6.84403">
        <ele>888</ele>
        <time>2020-10-28T09:42:37.843Z</time>
      </trkpt>
      <trkpt lat="48.06224" lon="6.84402">
        <ele>888</ele>
        <time>2020-10-28T09:42:38.842Z</time>
      </trkpt>
      <trkpt lat="48.06222" lon="6.84402">
        <ele>889</ele>
        <time>2020-10-28T09:42:39.843Z</time>
      </trkpt>
      <trkpt lat="48.06221" lon="6.84402">
        <ele>889</ele>
        <time>2020-10-28T09:42:40.843Z</time>
      </trkpt>
      <trkpt lat="48.06219" lon="6.84401">
        <ele>889</ele>
        <time>2020-10-28T09:42:41.842Z</time>
      </trkpt>
      <trkpt lat="48.06218" lon="6.844">
        <ele>889</ele>
        <time>2020-10-28T09:42:42.842Z</time>
      </trkpt>
      <trkpt lat="48.06216" lon="6.84399">
        <ele>890</ele>
        <time>2020-10-28T09:42:43.843Z</time>
      </trkpt>
      <trkpt lat="48.06214" lon="6.84398">
        <ele>890</ele>
        <time>2020-10-28T09:42:44.842Z</time>
      </trkpt>
      <trkpt lat="48.06213" lon="6.84397">
        <ele>891</ele>
        <time>2020-10-28T09:42:45.843Z</time>
      </trkpt>
      <trkpt lat="48.06212" lon="6.84396">
        <ele>891</ele>
        <time>2020-10-28T09:42:46.843Z</time>
      </trkpt>
      <trkpt lat="48.0621" lon="6.84395">
        <ele>892</ele>
        <time>2020-10-28T09:42:47.842Z</time>
      </trkpt>
      <trkpt lat="48.06209" lon="6.84394">
        <ele>893</ele>
        <time>2020-10-28T09:42:48.842Z</time>
      </trkpt>
      <trkpt lat="48.06207" lon="6.84393">
        <ele>894</ele>
        <time>2020-10-28T09:42:49.843Z</time>
      </trkpt>
      <trkpt lat="48.06205" lon="6.84394">
        <ele>894</ele>
        <time>2020-10-28T09:42:50.843Z</time>
      </trkpt>
      <trkpt lat="48.06203" lon="6.84395">
        <ele>894</ele>
        <time>2020-10-28T09:42:51.842Z</time>
      </trkpt>
      <trkpt lat="48.06202" lon="6.84395">
        <ele>894</ele>
        <time>2020-10-28T09:42:52.843Z</time>
      </trkpt>
      <trkpt lat="48.06201" lon="6.84396">
        <ele>895</ele>
        <time>2020-10-28T09:42:53.843Z</time>
      </trkpt>
      <trkpt lat="48.062" lon="6.84396">
        <ele>895</ele>
        <time>2020-10-28T09:42:54.843Z</time>
      </trkpt>
      <trkpt lat="48.06198" lon="6.84396">
        <ele>895</ele>
        <time>2020-10-28T09:42:55.842Z</time>
      </trkpt>
      <trkpt lat="48.06197" lon="6.84395">
        <ele>896</ele>
        <time>2020-10-28T09:42:56.843Z</time>
      </trkpt>
      <trkpt lat="48.06196" lon="6.84394">
        <ele>896</ele>
        <time>2020-10-28T09:42:57.842Z</time>
      </trkpt>
      <trkpt lat="48.06195" lon="6.84394">
        <ele>896</ele>
        <time>2020-10-28T09:42:58.843Z</time>
      </trkpt>
      <trkpt lat="48.06193" lon="6.84393">
        <ele>896</ele>
        <time>2020-10-28T09:42:59.843Z</time>
      </trkpt>
      <trkpt lat="48.06192" lon="6.84393">
        <ele>896</ele>
        <time>2020-10-28T09:43:00.842Z</time>
      </trkpt>
      <trkpt lat="48.0619" lon="6.84392">
        <ele>896</ele>
        <time>2020-10-28T09:43:01.842Z</time>
      </trkpt>
      <trkpt lat="48.06189" lon="6.84391">
        <ele>896</ele>
        <time>2020-10-28T09:43:02.843Z</time>
      </trkpt>
      <trkpt lat="48.06188" lon="6.84391">
        <ele>896</ele>
        <time>2020-10-28T09:43:03.843Z</time>
      </trkpt>
      <trkpt lat="48.06187" lon="6.8439">
        <ele>895</ele>
        <time>2020-10-28T09:43:04.843Z</time>
      </trkpt>
      <trkpt lat="48.06186" lon="6.8439">
        <ele>895</ele>
        <time>2020-10-28T09:43:05.843Z</time>
      </trkpt>
      <trkpt lat="48.06184" lon="6.84391">
        <ele>895</ele>
        <time>2020-10-28T09:43:06.842Z</time>
      </trkpt>
      <trkpt lat="48.06182" lon="6.84391">
        <ele>895</ele>
        <time>2020-10-28T09:43:07.842Z</time>
      </trkpt>
      <trkpt lat="48.06181" lon="6.84391">
        <ele>895</ele>
        <time>2020-10-28T09:43:08.843Z</time>
      </trkpt>
      <trkpt lat="48.0618" lon="6.8439">
        <ele>895</ele>
        <time>2020-10-28T09:43:09.843Z</time>
      </trkpt>
      <trkpt lat="48.06179" lon="6.8439">
        <ele>895</ele>
        <time>2020-10-28T09:43:10.842Z</time>
      </trkpt>
      <trkpt lat="48.06178" lon="6.84389">
        <ele>895</ele>
        <time>2020-10-28T09:43:11.843Z</time>
      </trkpt>
      <trkpt lat="48.06177" lon="6.84388">
        <ele>896</ele>
        <time>2020-10-28T09:43:12.842Z</time>
      </trkpt>
      <trkpt lat="48.06175" lon="6.84388">
        <ele>896</ele>
        <time>2020-10-28T09:43:13.843Z</time>
      </trkpt>
      <trkpt lat="48.06174" lon="6.84387">
        <ele>896</ele>
        <time>2020-10-28T09:43:14.842Z</time>
      </trkpt>
      <trkpt lat="48.06172" lon="6.84387">
        <ele>896</ele>
        <time>2020-10-28T09:43:15.842Z</time>
      </trkpt>
      <trkpt lat="48.06171" lon="6.84386">
        <ele>896</ele>
        <time>2020-10-28T09:43:16.842Z</time>
      </trkpt>
      <trkpt lat="48.06169" lon="6.84386">
        <ele>896</ele>
        <time>2020-10-28T09:43:17.843Z</time>
      </trkpt>
      <trkpt lat="48.06168" lon="6.84385">
        <ele>896</ele>
        <time>2020-10-28T09:43:18.842Z</time>
      </trkpt>
      <trkpt lat="48.06167" lon="6.84384">
        <ele>896</ele>
        <time>2020-10-28T09:43:19.843Z</time>
      </trkpt>
      <trkpt lat="48.06166" lon="6.84384">
        <ele>896</ele>
        <time>2020-10-28T09:43:20.843Z</time>
      </trkpt>
      <trkpt lat="48.06165" lon="6.84384">
        <ele>896</ele>
        <time>2020-10-28T09:43:21.843Z</time>
      </trkpt>
      <trkpt lat="48.06164" lon="6.84385">
        <ele>896</ele>
        <time>2020-10-28T09:43:22.842Z</time>
      </trkpt>
      <trkpt lat="48.06162" lon="6.84386">
        <ele>897</ele>
        <time>2020-10-28T09:43:23.842Z</time>
      </trkpt>
      <trkpt lat="48.0616" lon="6.84386">
        <ele>897</ele>
        <time>2020-10-28T09:43:24.843Z</time>
      </trkpt>
      <trkpt lat="48.06159" lon="6.84386">
        <ele>897</ele>
        <time>2020-10-28T09:43:25.843Z</time>
      </trkpt>
      <trkpt lat="48.06157" lon="6.84386">
        <ele>898</ele>
        <time>2020-10-28T09:43:26.843Z</time>
      </trkpt>
      <trkpt lat="48.06156" lon="6.84385">
        <ele>898</ele>
        <time>2020-10-28T09:43:27.843Z</time>
      </trkpt>
      <trkpt lat="48.06154" lon="6.84385">
        <ele>898</ele>
        <time>2020-10-28T09:43:28.843Z</time>
      </trkpt>
      <trkpt lat="48.06152" lon="6.84385">
        <ele>898</ele>
        <time>2020-10-28T09:43:29.842Z</time>
      </trkpt>
      <trkpt lat="48.06151" lon="6.84386">
        <ele>898</ele>
        <time>2020-10-28T09:43:30.843Z</time>
      </trkpt>
      <trkpt lat="48.0615" lon="6.84386">
        <ele>898</ele>
        <time>2020-10-28T09:43:31.843Z</time>
      </trkpt>
      <trkpt lat="48.06148" lon="6.84386">
        <ele>898</ele>
        <time>2020-10-28T09:43:32.843Z</time>
      </trkpt>
      <trkpt lat="48.06147" lon="6.84386">
        <ele>899</ele>
        <time>2020-10-28T09:43:33.843Z</time>
      </trkpt>
      <trkpt lat="48.06145" lon="6.84385">
        <ele>899</ele>
        <time>2020-10-28T09:43:34.842Z</time>
      </trkpt>
      <trkpt lat="48.06143" lon="6.84384">
        <ele>899</ele>
        <time>2020-10-28T09:43:35.843Z</time>
      </trkpt>
      <trkpt lat="48.06142" lon="6.84384">
        <ele>900</ele>
        <time>2020-10-28T09:43:36.842Z</time>
      </trkpt>
      <trkpt lat="48.06141" lon="6.84384">
        <ele>900</ele>
        <time>2020-10-28T09:43:37.843Z</time>
      </trkpt>
      <trkpt lat="48.0614" lon="6.84385">
        <ele>899</ele>
        <time>2020-10-28T09:43:38.842Z</time>
      </trkpt>
      <trkpt lat="48.06139" lon="6.84385">
        <ele>899</ele>
        <time>2020-10-28T09:43:39.843Z</time>
      </trkpt>
      <trkpt lat="48.06138" lon="6.84385">
        <ele>898</ele>
        <time>2020-10-28T09:43:40.843Z</time>
      </trkpt>
      <trkpt lat="48.06137" lon="6.84385">
        <ele>898</ele>
        <time>2020-10-28T09:43:41.843Z</time>
      </trkpt>
      <trkpt lat="48.06136" lon="6.84385">
        <ele>897</ele>
        <time>2020-10-28T09:43:42.843Z</time>
      </trkpt>
      <trkpt lat="48.06135" lon="6.84385">
        <ele>897</ele>
        <time>2020-10-28T09:43:43.842Z</time>
      </trkpt>
      <trkpt lat="48.06133" lon="6.84385">
        <ele>896</ele>
        <time>2020-10-28T09:43:44.842Z</time>
      </trkpt>
      <trkpt lat="48.06132" lon="6.84385">
        <ele>896</ele>
        <time>2020-10-28T09:43:45.843Z</time>
      </trkpt>
      <trkpt lat="48.06131" lon="6.84385">
        <ele>895</ele>
        <time>2020-10-28T09:43:46.842Z</time>
      </trkpt>
      <trkpt lat="48.0613" lon="6.84385">
        <ele>894</ele>
        <time>2020-10-28T09:43:47.842Z</time>
      </trkpt>
      <trkpt lat="48.06128" lon="6.84386">
        <ele>894</ele>
        <time>2020-10-28T09:43:48.843Z</time>
      </trkpt>
      <trkpt lat="48.06127" lon="6.84386">
        <ele>893</ele>
        <time>2020-10-28T09:43:49.843Z</time>
      </trkpt>
      <trkpt lat="48.06126" lon="6.84386">
        <ele>893</ele>
        <time>2020-10-28T09:43:50.842Z</time>
      </trkpt>
      <trkpt lat="48.06125" lon="6.84386">
        <ele>893</ele>
        <time>2020-10-28T09:43:51.843Z</time>
      </trkpt>
      <trkpt lat="48.06124" lon="6.84386">
        <ele>893</ele>
        <time>2020-10-28T09:43:52.843Z</time>
      </trkpt>
      <trkpt lat="48.06122" lon="6.84387">
        <ele>893</ele>
        <time>2020-10-28T09:43:53.842Z</time>
      </trkpt>
      <trkpt lat="48.0612" lon="6.84387">
        <ele>893</ele>
        <time>2020-10-28T09:43:54.843Z</time>
      </trkpt>
      <trkpt lat="48.06118" lon="6.84389">
        <ele>893</ele>
        <time>2020-10-28T09:43:55.843Z</time>
      </trkpt>
      <trkpt lat="48.06116" lon="6.84391">
        <ele>893</ele>
        <time>2020-10-28T09:43:56.843Z</time>
      </trkpt>
      <trkpt lat="48.06114" lon="6.84392">
        <ele>893</ele>
        <time>2020-10-28T09:43:57.843Z</time>
      </trkpt>
      <trkpt lat="48.06112" lon="6.84392">
        <ele>894</ele>
        <time>2020-10-28T09:43:58.843Z</time>
      </trkpt>
      <trkpt lat="48.06111" lon="6.84393">
        <ele>895</ele>
        <time>2020-10-28T09:43:59.843Z</time>
      </trkpt>
      <trkpt lat="48.06109" lon="6.84394">
        <ele>895</ele>
        <time>2020-10-28T09:44:00.843Z</time>
      </trkpt>
      <trkpt lat="48.06108" lon="6.84395">
        <ele>896</ele>
        <time>2020-10-28T09:44:01.843Z</time>
      </trkpt>
      <trkpt lat="48.06107" lon="6.84396">
        <ele>896</ele>
        <time>2020-10-28T09:44:02.843Z</time>
      </trkpt>
      <trkpt lat="48.06105" lon="6.84398">
        <ele>897</ele>
        <time>2020-10-28T09:44:03.843Z</time>
      </trkpt>
      <trkpt lat="48.06104" lon="6.844">
        <ele>897</ele>
        <time>2020-10-28T09:44:04.843Z</time>
      </trkpt>
      <trkpt lat="48.06103" lon="6.84403">
        <ele>897</ele>
        <time>2020-10-28T09:44:05.843Z</time>
      </trkpt>
      <trkpt lat="48.06102" lon="6.84405">
        <ele>897</ele>
        <time>2020-10-28T09:44:06.842Z</time>
      </trkpt>
      <trkpt lat="48.06101" lon="6.84406">
        <ele>897</ele>
        <time>2020-10-28T09:44:07.843Z</time>
      </trkpt>
      <trkpt lat="48.061" lon="6.84406">
        <ele>897</ele>
        <time>2020-10-28T09:44:08.843Z</time>
      </trkpt>
      <trkpt lat="48.06099" lon="6.84407">
        <ele>897</ele>
        <time>2020-10-28T09:44:09.842Z</time>
      </trkpt>
      <trkpt lat="48.06097" lon="6.84408">
        <ele>897</ele>
        <time>2020-10-28T09:44:10.842Z</time>
      </trkpt>
      <trkpt lat="48.06096" lon="6.8441">
        <ele>897</ele>
        <time>2020-10-28T09:44:11.843Z</time>
      </trkpt>
      <trkpt lat="48.06095" lon="6.84411">
        <ele>897</ele>
        <time>2020-10-28T09:44:12.843Z</time>
      </trkpt>
      <trkpt lat="48.06094" lon="6.84413">
        <ele>897</ele>
        <time>2020-10-28T09:44:13.843Z</time>
      </trkpt>
      <trkpt lat="48.06093" lon="6.84415">
        <ele>898</ele>
        <time>2020-10-28T09:44:14.842Z</time>
      </trkpt>
      <trkpt lat="48.06092" lon="6.84416">
        <ele>898</ele>
        <time>2020-10-28T09:44:15.843Z</time>
      </trkpt>
      <trkpt lat="48.0609" lon="6.84417">
        <ele>899</ele>
        <time>2020-10-28T09:44:16.842Z</time>
      </trkpt>
      <trkpt lat="48.06089" lon="6.84418">
        <ele>899</ele>
        <time>2020-10-28T09:44:17.843Z</time>
      </trkpt>
      <trkpt lat="48.06088" lon="6.84419">
        <ele>900</ele>
        <time>2020-10-28T09:44:18.843Z</time>
      </trkpt>
      <trkpt lat="48.06087" lon="6.8442">
        <ele>900</ele>
        <time>2020-10-28T09:44:19.842Z</time>
      </trkpt>
      <trkpt lat="48.06085" lon="6.84421">
        <ele>901</ele>
        <time>2020-10-28T09:44:20.842Z</time>
      </trkpt>
      <trkpt lat="48.06084" lon="6.84422">
        <ele>901</ele>
        <time>2020-10-28T09:44:21.843Z</time>
      </trkpt>
      <trkpt lat="48.06083" lon="6.84422">
        <ele>901</ele>
        <time>2020-10-28T09:44:22.842Z</time>
      </trkpt>
      <trkpt lat="48.06083" lon="6.84423">
        <ele>901</ele>
        <time>2020-10-28T09:44:23.843Z</time>
      </trkpt>
      <trkpt lat="48.06082" lon="6.84424">
        <ele>900</ele>
        <time>2020-10-28T09:44:24.842Z</time>
      </trkpt>
      <trkpt lat="48.06081" lon="6.84425">
        <ele>900</ele>
        <time>2020-10-28T09:44:25.842Z</time>
      </trkpt>
      <trkpt lat="48.0608" lon="6.84427">
        <ele>899</ele>
        <time>2020-10-28T09:44:26.843Z</time>
      </trkpt>
      <trkpt lat="48.06079" lon="6.84428">
        <ele>899</ele>
        <time>2020-10-28T09:44:27.843Z</time>
      </trkpt>
      <trkpt lat="48.06078" lon="6.84429">
        <ele>899</ele>
        <time>2020-10-28T09:44:28.843Z</time>
      </trkpt>
      <trkpt lat="48.06077" lon="6.8443">
        <ele>899</ele>
        <time>2020-10-28T09:44:29.842Z</time>
      </trkpt>
      <trkpt lat="48.06076" lon="6.8443">
        <ele>900</ele>
        <time>2020-10-28T09:44:30.843Z</time>
      </trkpt>
      <trkpt lat="48.06075" lon="6.84431">
        <ele>900</ele>
        <time>2020-10-28T09:44:31.842Z</time>
      </trkpt>
      <trkpt lat="48.06074" lon="6.84432">
        <ele>901</ele>
        <time>2020-10-28T09:44:32.842Z</time>
      </trkpt>
      <trkpt lat="48.06073" lon="6.84433">
        <ele>902</ele>
        <time>2020-10-28T09:44:33.842Z</time>
      </trkpt>
      <trkpt lat="48.06072" lon="6.84434">
        <ele>903</ele>
        <time>2020-10-28T09:44:34.843Z</time>
      </trkpt>
      <trkpt lat="48.06071" lon="6.84435">
        <ele>903</ele>
        <time>2020-10-28T09:44:35.843Z</time>
      </trkpt>
      <trkpt lat="48.06069" lon="6.84436">
        <ele>904</ele>
        <time>2020-10-28T09:44:36.842Z</time>
      </trkpt>
      <trkpt lat="48.06068" lon="6.84436">
        <ele>905</ele>
        <time>2020-10-28T09:44:37.843Z</time>
      </trkpt>
      <trkpt lat="48.06066" lon="6.84437">
        <ele>905</ele>
        <time>2020-10-28T09:44:38.843Z</time>
      </trkpt>
      <trkpt lat="48.06064" lon="6.84438">
        <ele>906</ele>
        <time>2020-10-28T09:44:39.843Z</time>
      </trkpt>
      <trkpt lat="48.06063" lon="6.84439">
        <ele>907</ele>
        <time>2020-10-28T09:44:40.843Z</time>
      </trkpt>
      <trkpt lat="48.06062" lon="6.8444">
        <ele>907</ele>
        <time>2020-10-28T09:44:41.843Z</time>
      </trkpt>
      <trkpt lat="48.0606" lon="6.84441">
        <ele>908</ele>
        <time>2020-10-28T09:44:42.843Z</time>
      </trkpt>
      <trkpt lat="48.06059" lon="6.84442">
        <ele>908</ele>
        <time>2020-10-28T09:44:43.843Z</time>
      </trkpt>
      <trkpt lat="48.06057" lon="6.84443">
        <ele>908</ele>
        <time>2020-10-28T09:44:44.843Z</time>
      </trkpt>
      <trkpt lat="48.06056" lon="6.84444">
        <ele>908</ele>
        <time>2020-10-28T09:44:45.842Z</time>
      </trkpt>
      <trkpt lat="48.06055" lon="6.84444">
        <ele>908</ele>
        <time>2020-10-28T09:44:46.842Z</time>
      </trkpt>
      <trkpt lat="48.06053" lon="6.84444">
        <ele>908</ele>
        <time>2020-10-28T09:44:47.843Z</time>
      </trkpt>
      <trkpt lat="48.06052" lon="6.84445">
        <ele>908</ele>
        <time>2020-10-28T09:44:48.842Z</time>
      </trkpt>
      <trkpt lat="48.06051" lon="6.84446">
        <ele>908</ele>
        <time>2020-10-28T09:44:49.843Z</time>
      </trkpt>
      <trkpt lat="48.06049" lon="6.84446">
        <ele>907</ele>
        <time>2020-10-28T09:44:50.842Z</time>
      </trkpt>
      <trkpt lat="48.06048" lon="6.84446">
        <ele>907</ele>
        <time>2020-10-28T09:44:51.842Z</time>
      </trkpt>
      <trkpt lat="48.06047" lon="6.84446">
        <ele>907</ele>
        <time>2020-10-28T09:44:52.843Z</time>
      </trkpt>
      <trkpt lat="48.06045" lon="6.84446">
        <ele>906</ele>
        <time>2020-10-28T09:44:53.842Z</time>
      </trkpt>
      <trkpt lat="48.06044" lon="6.84446">
        <ele>905</ele>
        <time>2020-10-28T09:44:54.842Z</time>
      </trkpt>
      <trkpt lat="48.06043" lon="6.84446">
        <ele>904</ele>
        <time>2020-10-28T09:44:55.843Z</time>
      </trkpt>
      <trkpt lat="48.06042" lon="6.84445">
        <ele>903</ele>
        <time>2020-10-28T09:44:56.842Z</time>
      </trkpt>
      <trkpt lat="48.06042" lon="6.84445">
        <ele>902</ele>
        <time>2020-10-28T09:44:57.843Z</time>
      </trkpt>
      <trkpt lat="48.06041" lon="6.84445">
        <ele>902</ele>
        <time>2020-10-28T09:44:58.843Z</time>
      </trkpt>
      <trkpt lat="48.0604" lon="6.84444">
        <ele>901</ele>
        <time>2020-10-28T09:44:59.843Z</time>
      </trkpt>
      <trkpt lat="48.06039" lon="6.84444">
        <ele>900</ele>
        <time>2020-10-28T09:45:00.843Z</time>
      </trkpt>
      <trkpt lat="48.06038" lon="6.84443">
        <ele>900</ele>
        <time>2020-10-28T09:45:01.843Z</time>
      </trkpt>
      <trkpt lat="48.06037" lon="6.84443">
        <ele>899</ele>
        <time>2020-10-28T09:45:02.842Z</time>
      </trkpt>
      <trkpt lat="48.06035" lon="6.84443">
        <ele>899</ele>
        <time>2020-10-28T09:45:03.842Z</time>
      </trkpt>
      <trkpt lat="48.06034" lon="6.84442">
        <ele>898</ele>
        <time>2020-10-28T09:45:04.843Z</time>
      </trkpt>
      <trkpt lat="48.06033" lon="6.84443">
        <ele>897</ele>
        <time>2020-10-28T09:45:05.842Z</time>
      </trkpt>
      <trkpt lat="48.06032" lon="6.84443">
        <ele>897</ele>
        <time>2020-10-28T09:45:06.843Z</time>
      </trkpt>
      <trkpt lat="48.0603" lon="6.84443">
        <ele>896</ele>
        <time>2020-10-28T09:45:07.843Z</time>
      </trkpt>
      <trkpt lat="48.06028" lon="6.84443">
        <ele>895</ele>
        <time>2020-10-28T09:45:08.842Z</time>
      </trkpt>
      <trkpt lat="48.06027" lon="6.84443">
        <ele>894</ele>
        <time>2020-10-28T09:45:09.843Z</time>
      </trkpt>
      <trkpt lat="48.06025" lon="6.84443">
        <ele>894</ele>
        <time>2020-10-28T09:45:10.842Z</time>
      </trkpt>
      <trkpt lat="48.06024" lon="6.84443">
        <ele>893</ele>
        <time>2020-10-28T09:45:11.843Z</time>
      </trkpt>
      <trkpt lat="48.06023" lon="6.84442">
        <ele>893</ele>
        <time>2020-10-28T09:45:12.842Z</time>
      </trkpt>
      <trkpt lat="48.06022" lon="6.84441">
        <ele>893</ele>
        <time>2020-10-28T09:45:13.843Z</time>
      </trkpt>
      <trkpt lat="48.0602" lon="6.84441">
        <ele>892</ele>
        <time>2020-10-28T09:45:14.843Z</time>
      </trkpt>
      <trkpt lat="48.06019" lon="6.8444">
        <ele>892</ele>
        <time>2020-10-28T09:45:15.842Z</time>
      </trkpt>
      <trkpt lat="48.06018" lon="6.84439">
        <ele>892</ele>
        <time>2020-10-28T09:45:16.842Z</time>
      </trkpt>
      <trkpt lat="48.06017" lon="6.84438">
        <ele>892</ele>
        <time>2020-10-28T09:45:17.843Z</time>
      </trkpt>
      <trkpt lat="48.06016" lon="6.84437">
        <ele>892</ele>
        <time>2020-10-28T09:45:18.843Z</time>
      </trkpt>
      <trkpt lat="48.06015" lon="6.84437">
        <ele>892</ele>
        <time>2020-10-28T09:45:19.842Z</time>
      </trkpt>
      <trkpt lat="48.06014" lon="6.84436">
        <ele>892</ele>
        <time>2020-10-28T09:45:20.842Z</time>
      </trkpt>
      <trkpt lat="48.06013" lon="6.84435">
        <ele>892</ele>
        <time>2020-10-28T09:45:21.843Z</time>
      </trkpt>
      <trkpt lat="48.06012" lon="6.84433">
        <ele>892</ele>
        <time>2020-10-28T09:45:22.842Z</time>
      </trkpt>
      <trkpt lat="48.06011" lon="6.84432">
        <ele>892</ele>
        <time>2020-10-28T09:45:23.842Z</time>
      </trkpt>
      <trkpt lat="48.0601" lon="6.84431">
        <ele>891</ele>
        <time>2020-10-28T09:45:24.843Z</time>
      </trkpt>
      <trkpt lat="48.0601" lon="6.8443">
        <ele>891</ele>
        <time>2020-10-28T09:45:25.843Z</time>
      </trkpt>
      <trkpt lat="48.06009" lon="6.84429">
        <ele>890</ele>
        <time>2020-10-28T09:45:26.842Z</time>
      </trkpt>
      <trkpt lat="48.06008" lon="6.84428">
        <ele>890</ele>
        <time>2020-10-28T09:45:27.842Z</time>
      </trkpt>
      <trkpt lat="48.06007" lon="6.84428">
        <ele>889</ele>
        <time>2020-10-28T09:45:28.842Z</time>
      </trkpt>
      <trkpt lat="48.06006" lon="6.84427">
        <ele>889</ele>
        <time>2020-10-28T09:45:29.843Z</time>
      </trkpt>
      <trkpt lat="48.06004" lon="6.84426">
        <ele>888</ele>
        <time>2020-10-28T09:45:30.843Z</time>
      </trkpt>
      <trkpt lat="48.06003" lon="6.84425">
        <ele>888</ele>
        <time>2020-10-28T09:45:31.843Z</time>
      </trkpt>
      <trkpt lat="48.06002" lon="6.84423">
        <ele>887</ele>
        <time>2020-10-28T09:45:32.843Z</time>
      </trkpt>
      <trkpt lat="48.06001" lon="6.84422">
        <ele>887</ele>
        <time>2020-10-28T09:45:33.843Z</time>
      </trkpt>
      <trkpt lat="48.05999" lon="6.84421">
        <ele>887</ele>
        <time>2020-10-28T09:45:34.843Z</time>
      </trkpt>
      <trkpt lat="48.05998" lon="6.8442">
        <ele>887</ele>
        <time>2020-10-28T09:45:35.843Z</time>
      </trkpt>
      <trkpt lat="48.05997" lon="6.84419">
        <ele>887</ele>
        <time>2020-10-28T09:45:36.842Z</time>
      </trkpt>
      <trkpt lat="48.05996" lon="6.84418">
        <ele>887</ele>
        <time>2020-10-28T09:45:37.843Z</time>
      </trkpt>
      <trkpt lat="48.05995" lon="6.84417">
        <ele>886</ele>
        <time>2020-10-28T09:45:38.842Z</time>
      </trkpt>
      <trkpt lat="48.05993" lon="6.84416">
        <ele>886</ele>
        <time>2020-10-28T09:45:39.843Z</time>
      </trkpt>
      <trkpt lat="48.05992" lon="6.84414">
        <ele>886</ele>
        <time>2020-10-28T09:45:40.843Z</time>
      </trkpt>
      <trkpt lat="48.0599" lon="6.84411">
        <ele>886</ele>
        <time>2020-10-28T09:45:41.842Z</time>
      </trkpt>
      <trkpt lat="48.05989" lon="6.84409">
        <ele>885</ele>
        <time>2020-10-28T09:45:42.842Z</time>
      </trkpt>
      <trkpt lat="48.05987" lon="6.84408">
        <ele>885</ele>
        <time>2020-10-28T09:45:43.842Z</time>
      </trkpt>
      <trkpt lat="48.05987" lon="6.84407">
        <ele>885</ele>
        <time>2020-10-28T09:45:44.843Z</time>
      </trkpt>
      <trkpt lat="48.05986" lon="6.84406">
        <ele>885</ele>
        <time>2020-10-28T09:45:45.842Z</time>
      </trkpt>
      <trkpt lat="48.05985" lon="6.84405">
        <ele>885</ele>
        <time>2020-10-28T09:45:46.843Z</time>
      </trkpt>
      <trkpt lat="48.05984" lon="6.84405">
        <ele>885</ele>
        <time>2020-10-28T09:45:47.842Z</time>
      </trkpt>
      <trkpt lat="48.05983" lon="6.84405">
        <ele>885</ele>
        <time>2020-10-28T09:45:48.842Z</time>
      </trkpt>
      <trkpt lat="48.05982" lon="6.84404">
        <ele>885</ele>
        <time>2020-10-28T09:45:49.843Z</time>
      </trkpt>
      <trkpt lat="48.05982" lon="6.84403">
        <ele>885</ele>
        <time>2020-10-28T09:45:50.842Z</time>
      </trkpt>
      <trkpt lat="48.05981" lon="6.84402">
        <ele>885</ele>
        <time>2020-10-28T09:45:51.843Z</time>
      </trkpt>
      <trkpt lat="48.0598" lon="6.84401">
        <ele>884</ele>
        <time>2020-10-28T09:45:52.843Z</time>
      </trkpt>
      <trkpt lat="48.05979" lon="6.84401">
        <ele>883</ele>
        <time>2020-10-28T09:45:53.842Z</time>
      </trkpt>
      <trkpt lat="48.05978" lon="6.844">
        <ele>882</ele>
        <time>2020-10-28T09:45:54.843Z</time>
      </trkpt>
      <trkpt lat="48.05977" lon="6.844">
        <ele>882</ele>
        <time>2020-10-28T09:45:55.843Z</time>
      </trkpt>
      <trkpt lat="48.05976" lon="6.84399">
        <ele>881</ele>
        <time>2020-10-28T09:45:56.842Z</time>
      </trkpt>
      <trkpt lat="48.05975" lon="6.84399">
        <ele>881</ele>
        <time>2020-10-28T09:45:57.842Z</time>
      </trkpt>
      <trkpt lat="48.05974" lon="6.84398">
        <ele>881</ele>
        <time>2020-10-28T09:45:58.842Z</time>
      </trkpt>
      <trkpt lat="48.05974" lon="6.84397">
        <ele>880</ele>
        <time>2020-10-28T09:45:59.843Z</time>
      </trkpt>
      <trkpt lat="48.05973" lon="6.84397">
        <ele>880</ele>
        <time>2020-10-28T09:46:00.842Z</time>
      </trkpt>
      <trkpt lat="48.05969" lon="6.84395">
        <ele>880</ele>
        <time>2020-10-28T09:46:01.842Z</time>
      </trkpt>
      <trkpt lat="48.05967" lon="6.84394">
        <ele>880</ele>
        <time>2020-10-28T09:46:02.843Z</time>
      </trkpt>
      <trkpt lat="48.05965" lon="6.84394">
        <ele>879</ele>
        <time>2020-10-28T09:46:03.843Z</time>
      </trkpt>
      <trkpt lat="48.05963" lon="6.84392">
        <ele>879</ele>
        <time>2020-10-28T09:46:04.843Z</time>
      </trkpt>
      <trkpt lat="48.05961" lon="6.8439">
        <ele>879</ele>
        <time>2020-10-28T09:46:05.842Z</time>
      </trkpt>
      <trkpt lat="48.05961" lon="6.84389">
        <ele>879</ele>
        <time>2020-10-28T09:46:06.842Z</time>
      </trkpt>
      <trkpt lat="48.0596" lon="6.84388">
        <ele>880</ele>
        <time>2020-10-28T09:46:07.843Z</time>
      </trkpt>
      <trkpt lat="48.05959" lon="6.84387">
        <ele>880</ele>
        <time>2020-10-28T09:46:08.842Z</time>
      </trkpt>
      <trkpt lat="48.05959" lon="6.84386">
        <ele>881</ele>
        <time>2020-10-28T09:46:09.843Z</time>
      </trkpt>
      <trkpt lat="48.05958" lon="6.84384">
        <ele>881</ele>
        <time>2020-10-28T09:46:10.843Z</time>
      </trkpt>
      <trkpt lat="48.05957" lon="6.84383">
        <ele>881</ele>
        <time>2020-10-28T09:46:11.843Z</time>
      </trkpt>
      <trkpt lat="48.05956" lon="6.84382">
        <ele>881</ele>
        <time>2020-10-28T09:46:12.843Z</time>
      </trkpt>
      <trkpt lat="48.05955" lon="6.8438">
        <ele>881</ele>
        <time>2020-10-28T09:46:13.842Z</time>
      </trkpt>
      <trkpt lat="48.05954" lon="6.84379">
        <ele>882</ele>
        <time>2020-10-28T09:46:14.843Z</time>
      </trkpt>
      <trkpt lat="48.05953" lon="6.84378">
        <ele>881</ele>
        <time>2020-10-28T09:46:15.842Z</time>
      </trkpt>
      <trkpt lat="48.05952" lon="6.84376">
        <ele>881</ele>
        <time>2020-10-28T09:46:16.843Z</time>
      </trkpt>
      <trkpt lat="48.05951" lon="6.84375">
        <ele>881</ele>
        <time>2020-10-28T09:46:17.843Z</time>
      </trkpt>
      <trkpt lat="48.0595" lon="6.84373">
        <ele>881</ele>
        <time>2020-10-28T09:46:18.843Z</time>
      </trkpt>
      <trkpt lat="48.05949" lon="6.84371">
        <ele>881</ele>
        <time>2020-10-28T09:46:19.842Z</time>
      </trkpt>
      <trkpt lat="48.05948" lon="6.8437">
        <ele>881</ele>
        <time>2020-10-28T09:46:20.842Z</time>
      </trkpt>
      <trkpt lat="48.05947" lon="6.84369">
        <ele>882</ele>
        <time>2020-10-28T09:46:21.843Z</time>
      </trkpt>
      <trkpt lat="48.05947" lon="6.84368">
        <ele>883</ele>
        <time>2020-10-28T09:46:22.843Z</time>
      </trkpt>
      <trkpt lat="48.05945" lon="6.84367">
        <ele>884</ele>
        <time>2020-10-28T09:46:23.843Z</time>
      </trkpt>
      <trkpt lat="48.05944" lon="6.84366">
        <ele>884</ele>
        <time>2020-10-28T09:46:24.843Z</time>
      </trkpt>
      <trkpt lat="48.05943" lon="6.84364">
        <ele>885</ele>
        <time>2020-10-28T09:46:25.843Z</time>
      </trkpt>
      <trkpt lat="48.05941" lon="6.84363">
        <ele>885</ele>
        <time>2020-10-28T09:46:26.842Z</time>
      </trkpt>
      <trkpt lat="48.0594" lon="6.84361">
        <ele>886</ele>
        <time>2020-10-28T09:46:27.843Z</time>
      </trkpt>
      <trkpt lat="48.05939" lon="6.8436">
        <ele>886</ele>
        <time>2020-10-28T09:46:28.843Z</time>
      </trkpt>
      <trkpt lat="48.05937" lon="6.84358">
        <ele>887</ele>
        <time>2020-10-28T09:46:29.843Z</time>
      </trkpt>
      <trkpt lat="48.05936" lon="6.84356">
        <ele>887</ele>
        <time>2020-10-28T09:46:30.843Z</time>
      </trkpt>
      <trkpt lat="48.05934" lon="6.84355">
        <ele>887</ele>
        <time>2020-10-28T09:46:31.843Z</time>
      </trkpt>
      <trkpt lat="48.05933" lon="6.84354">
        <ele>888</ele>
        <time>2020-10-28T09:46:32.843Z</time>
      </trkpt>
      <trkpt lat="48.05932" lon="6.84352">
        <ele>888</ele>
        <time>2020-10-28T09:46:33.843Z</time>
      </trkpt>
      <trkpt lat="48.0593" lon="6.84352">
        <ele>888</ele>
        <time>2020-10-28T09:46:34.842Z</time>
      </trkpt>
      <trkpt lat="48.05929" lon="6.84351">
        <ele>888</ele>
        <time>2020-10-28T09:46:35.843Z</time>
      </trkpt>
      <trkpt lat="48.05928" lon="6.8435">
        <ele>888</ele>
        <time>2020-10-28T09:46:36.842Z</time>
      </trkpt>
      <trkpt lat="48.05927" lon="6.84349">
        <ele>887</ele>
        <time>2020-10-28T09:46:37.843Z</time>
      </trkpt>
      <trkpt lat="48.05925" lon="6.84347">
        <ele>887</ele>
        <time>2020-10-28T09:46:38.843Z</time>
      </trkpt>
      <trkpt lat="48.05923" lon="6.84346">
        <ele>887</ele>
        <time>2020-10-28T09:46:39.843Z</time>
      </trkpt>
      <trkpt lat="48.05922" lon="6.84345">
        <ele>888</ele>
        <time>2020-10-28T09:46:40.843Z</time>
      </trkpt>
      <trkpt lat="48.0592" lon="6.84344">
        <ele>888</ele>
        <time>2020-10-28T09:46:41.843Z</time>
      </trkpt>
      <trkpt lat="48.05919" lon="6.84342">
        <ele>888</ele>
        <time>2020-10-28T09:46:42.843Z</time>
      </trkpt>
      <trkpt lat="48.05918" lon="6.84341">
        <ele>888</ele>
        <time>2020-10-28T09:46:43.843Z</time>
      </trkpt>
      <trkpt lat="48.05917" lon="6.84341">
        <ele>888</ele>
        <time>2020-10-28T09:46:44.843Z</time>
      </trkpt>
      <trkpt lat="48.05916" lon="6.84341">
        <ele>889</ele>
        <time>2020-10-28T09:46:45.843Z</time>
      </trkpt>
      <trkpt lat="48.05915" lon="6.84341">
        <ele>889</ele>
        <time>2020-10-28T09:46:46.843Z</time>
      </trkpt>
      <trkpt lat="48.05913" lon="6.84339">
        <ele>888</ele>
        <time>2020-10-28T09:46:47.842Z</time>
      </trkpt>
      <trkpt lat="48.05912" lon="6.84338">
        <ele>888</ele>
        <time>2020-10-28T09:46:48.843Z</time>
      </trkpt>
      <trkpt lat="48.05911" lon="6.84336">
        <ele>888</ele>
        <time>2020-10-28T09:46:49.843Z</time>
      </trkpt>
      <trkpt lat="48.0591" lon="6.84335">
        <ele>888</ele>
        <time>2020-10-28T09:46:50.843Z</time>
      </trkpt>
      <trkpt lat="48.0591" lon="6.84334">
        <ele>887</ele>
        <time>2020-10-28T09:46:51.843Z</time>
      </trkpt>
      <trkpt lat="48.05909" lon="6.84333">
        <ele>887</ele>
        <time>2020-10-28T09:46:52.843Z</time>
      </trkpt>
      <trkpt lat="48.05908" lon="6.84332">
        <ele>887</ele>
        <time>2020-10-28T09:46:53.843Z</time>
      </trkpt>
      <trkpt lat="48.05907" lon="6.84332">
        <ele>887</ele>
        <time>2020-10-28T09:46:54.843Z</time>
      </trkpt>
      <trkpt lat="48.05906" lon="6.84331">
        <ele>887</ele>
        <time>2020-10-28T09:46:55.843Z</time>
      </trkpt>
      <trkpt lat="48.05904" lon="6.8433">
        <ele>887</ele>
        <time>2020-10-28T09:46:56.842Z</time>
      </trkpt>
      <trkpt lat="48.05903" lon="6.84329">
        <ele>887</ele>
        <time>2020-10-28T09:46:57.842Z</time>
      </trkpt>
      <trkpt lat="48.05902" lon="6.84328">
        <ele>888</ele>
        <time>2020-10-28T09:46:58.842Z</time>
      </trkpt>
      <trkpt lat="48.05901" lon="6.84328">
        <ele>888</ele>
        <time>2020-10-28T09:46:59.842Z</time>
      </trkpt>
      <trkpt lat="48.05899" lon="6.84326">
        <ele>888</ele>
        <time>2020-10-28T09:47:00.842Z</time>
      </trkpt>
      <trkpt lat="48.05898" lon="6.84325">
        <ele>888</ele>
        <time>2020-10-28T09:47:01.843Z</time>
      </trkpt>
      <trkpt lat="48.05897" lon="6.84323">
        <ele>888</ele>
        <time>2020-10-28T09:47:02.843Z</time>
      </trkpt>
      <trkpt lat="48.05895" lon="6.84321">
        <ele>887</ele>
        <time>2020-10-28T09:47:03.842Z</time>
      </trkpt>
      <trkpt lat="48.05894" lon="6.84319">
        <ele>887</ele>
        <time>2020-10-28T09:47:04.842Z</time>
      </trkpt>
      <trkpt lat="48.05893" lon="6.84318">
        <ele>886</ele>
        <time>2020-10-28T09:47:05.843Z</time>
      </trkpt>
      <trkpt lat="48.05893" lon="6.84316">
        <ele>886</ele>
        <time>2020-10-28T09:47:06.843Z</time>
      </trkpt>
      <trkpt lat="48.05892" lon="6.84314">
        <ele>885</ele>
        <time>2020-10-28T09:47:07.843Z</time>
      </trkpt>
      <trkpt lat="48.05891" lon="6.84312">
        <ele>885</ele>
        <time>2020-10-28T09:47:08.843Z</time>
      </trkpt>
      <trkpt lat="48.05891" lon="6.84311">
        <ele>884</ele>
        <time>2020-10-28T09:47:09.843Z</time>
      </trkpt>
      <trkpt lat="48.0589" lon="6.8431">
        <ele>884</ele>
        <time>2020-10-28T09:47:10.843Z</time>
      </trkpt>
      <trkpt lat="48.05888" lon="6.84309">
        <ele>884</ele>
        <time>2020-10-28T09:47:11.842Z</time>
      </trkpt>
      <trkpt lat="48.05887" lon="6.84307">
        <ele>884</ele>
        <time>2020-10-28T09:47:12.843Z</time>
      </trkpt>
      <trkpt lat="48.05887" lon="6.84306">
        <ele>885</ele>
        <time>2020-10-28T09:47:13.843Z</time>
      </trkpt>
      <trkpt lat="48.05886" lon="6.84304">
        <ele>885</ele>
        <time>2020-10-28T09:47:14.843Z</time>
      </trkpt>
      <trkpt lat="48.05885" lon="6.84303">
        <ele>885</ele>
        <time>2020-10-28T09:47:15.843Z</time>
      </trkpt>
      <trkpt lat="48.05884" lon="6.84302">
        <ele>885</ele>
        <time>2020-10-28T09:47:16.842Z</time>
      </trkpt>
      <trkpt lat="48.05883" lon="6.843">
        <ele>885</ele>
        <time>2020-10-28T09:47:17.842Z</time>
      </trkpt>
      <trkpt lat="48.05881" lon="6.84298">
        <ele>886</ele>
        <time>2020-10-28T09:47:18.842Z</time>
      </trkpt>
      <trkpt lat="48.05879" lon="6.84296">
        <ele>886</ele>
        <time>2020-10-28T09:47:19.843Z</time>
      </trkpt>
      <trkpt lat="48.05878" lon="6.84295">
        <ele>886</ele>
        <time>2020-10-28T09:47:20.843Z</time>
      </trkpt>
      <trkpt lat="48.05876" lon="6.84293">
        <ele>885</ele>
        <time>2020-10-28T09:47:21.843Z</time>
      </trkpt>
      <trkpt lat="48.05875" lon="6.84291">
        <ele>884</ele>
        <time>2020-10-28T09:47:22.843Z</time>
      </trkpt>
      <trkpt lat="48.05874" lon="6.8429">
        <ele>884</ele>
        <time>2020-10-28T09:47:23.843Z</time>
      </trkpt>
      <trkpt lat="48.05873" lon="6.84288">
        <ele>883</ele>
        <time>2020-10-28T09:47:24.842Z</time>
      </trkpt>
      <trkpt lat="48.05872" lon="6.84287">
        <ele>882</ele>
        <time>2020-10-28T09:47:25.843Z</time>
      </trkpt>
      <trkpt lat="48.05872" lon="6.84286">
        <ele>882</ele>
        <time>2020-10-28T09:47:26.843Z</time>
      </trkpt>
      <trkpt lat="48.05871" lon="6.84285">
        <ele>881</ele>
        <time>2020-10-28T09:47:27.842Z</time>
      </trkpt>
      <trkpt lat="48.0587" lon="6.84284">
        <ele>881</ele>
        <time>2020-10-28T09:47:28.843Z</time>
      </trkpt>
      <trkpt lat="48.05869" lon="6.84283">
        <ele>881</ele>
        <time>2020-10-28T09:47:29.842Z</time>
      </trkpt>
      <trkpt lat="48.05868" lon="6.84282">
        <ele>880</ele>
        <time>2020-10-28T09:47:30.843Z</time>
      </trkpt>
      <trkpt lat="48.05867" lon="6.84281">
        <ele>880</ele>
        <time>2020-10-28T09:47:31.842Z</time>
      </trkpt>
      <trkpt lat="48.05866" lon="6.8428">
        <ele>880</ele>
        <time>2020-10-28T09:47:32.842Z</time>
      </trkpt>
      <trkpt lat="48.05865" lon="6.84279">
        <ele>880</ele>
        <time>2020-10-28T09:47:33.843Z</time>
      </trkpt>
      <trkpt lat="48.05864" lon="6.84278">
        <ele>880</ele>
        <time>2020-10-28T09:47:34.842Z</time>
      </trkpt>
      <trkpt lat="48.05862" lon="6.84277">
        <ele>880</ele>
        <time>2020-10-28T09:47:35.842Z</time>
      </trkpt>
      <trkpt lat="48.05861" lon="6.84276">
        <ele>881</ele>
        <time>2020-10-28T09:47:36.842Z</time>
      </trkpt>
      <trkpt lat="48.05859" lon="6.84275">
        <ele>881</ele>
        <time>2020-10-28T09:47:37.842Z</time>
      </trkpt>
      <trkpt lat="48.05858" lon="6.84275">
        <ele>881</ele>
        <time>2020-10-28T09:47:38.843Z</time>
      </trkpt>
      <trkpt lat="48.05856" lon="6.84274">
        <ele>881</ele>
        <time>2020-10-28T09:47:39.843Z</time>
      </trkpt>
      <trkpt lat="48.05855" lon="6.84274">
        <ele>881</ele>
        <time>2020-10-28T09:47:40.843Z</time>
      </trkpt>
      <trkpt lat="48.05853" lon="6.84274">
        <ele>881</ele>
        <time>2020-10-28T09:47:41.843Z</time>
      </trkpt>
      <trkpt lat="48.05852" lon="6.84274">
        <ele>882</ele>
        <time>2020-10-28T09:47:42.843Z</time>
      </trkpt>
      <trkpt lat="48.05851" lon="6.84275">
        <ele>882</ele>
        <time>2020-10-28T09:47:43.843Z</time>
      </trkpt>
      <trkpt lat="48.0585" lon="6.84275">
        <ele>882</ele>
        <time>2020-10-28T09:47:44.842Z</time>
      </trkpt>
      <trkpt lat="48.05849" lon="6.84275">
        <ele>882</ele>
        <time>2020-10-28T09:47:45.842Z</time>
      </trkpt>
      <trkpt lat="48.05848" lon="6.84275">
        <ele>883</ele>
        <time>2020-10-28T09:47:46.842Z</time>
      </trkpt>
      <trkpt lat="48.05846" lon="6.84275">
        <ele>884</ele>
        <time>2020-10-28T09:47:47.843Z</time>
      </trkpt>
      <trkpt lat="48.05845" lon="6.84275">
        <ele>885</ele>
        <time>2020-10-28T09:47:48.843Z</time>
      </trkpt>
      <trkpt lat="48.05844" lon="6.84274">
        <ele>885</ele>
        <time>2020-10-28T09:47:49.843Z</time>
      </trkpt>
      <trkpt lat="48.05843" lon="6.84273">
        <ele>886</ele>
        <time>2020-10-28T09:47:50.843Z</time>
      </trkpt>
      <trkpt lat="48.05842" lon="6.84272">
        <ele>886</ele>
        <time>2020-10-28T09:47:51.843Z</time>
      </trkpt>
      <trkpt lat="48.05841" lon="6.84272">
        <ele>886</ele>
        <time>2020-10-28T09:47:52.843Z</time>
      </trkpt>
      <trkpt lat="48.0584" lon="6.84271">
        <ele>886</ele>
        <time>2020-10-28T09:47:53.843Z</time>
      </trkpt>
      <trkpt lat="48.05839" lon="6.8427">
        <ele>885</ele>
        <time>2020-10-28T09:47:54.843Z</time>
      </trkpt>
      <trkpt lat="48.05838" lon="6.84269">
        <ele>885</ele>
        <time>2020-10-28T09:47:55.843Z</time>
      </trkpt>
      <trkpt lat="48.05837" lon="6.84269">
        <ele>885</ele>
        <time>2020-10-28T09:47:56.843Z</time>
      </trkpt>
      <trkpt lat="48.05836" lon="6.84269">
        <ele>885</ele>
        <time>2020-10-28T09:47:57.843Z</time>
      </trkpt>
      <trkpt lat="48.05834" lon="6.84269">
        <ele>884</ele>
        <time>2020-10-28T09:47:58.842Z</time>
      </trkpt>
      <trkpt lat="48.05833" lon="6.84268">
        <ele>885</ele>
        <time>2020-10-28T09:47:59.843Z</time>
      </trkpt>
      <trkpt lat="48.05832" lon="6.84268">
        <ele>884</ele>
        <time>2020-10-28T09:48:00.843Z</time>
      </trkpt>
      <trkpt lat="48.0583" lon="6.84267">
        <ele>884</ele>
        <time>2020-10-28T09:48:01.843Z</time>
      </trkpt>
      <trkpt lat="48.05829" lon="6.84267">
        <ele>884</ele>
        <time>2020-10-28T09:48:02.843Z</time>
      </trkpt>
      <trkpt lat="48.05828" lon="6.84268">
        <ele>884</ele>
        <time>2020-10-28T09:48:03.843Z</time>
      </trkpt>
      <trkpt lat="48.05826" lon="6.84268">
        <ele>884</ele>
        <time>2020-10-28T09:48:04.842Z</time>
      </trkpt>
      <trkpt lat="48.05825" lon="6.84268">
        <ele>884</ele>
        <time>2020-10-28T09:48:05.842Z</time>
      </trkpt>
      <trkpt lat="48.05824" lon="6.84268">
        <ele>884</ele>
        <time>2020-10-28T09:48:06.843Z</time>
      </trkpt>
      <trkpt lat="48.05823" lon="6.84267">
        <ele>885</ele>
        <time>2020-10-28T09:48:07.843Z</time>
      </trkpt>
      <trkpt lat="48.05822" lon="6.84267">
        <ele>885</ele>
        <time>2020-10-28T09:48:08.843Z</time>
      </trkpt>
      <trkpt lat="48.05821" lon="6.84267">
        <ele>885</ele>
        <time>2020-10-28T09:49:56.995Z</time>
      </trkpt>
      <trkpt lat="48.0582" lon="6.84267">
        <ele>885</ele>
        <time>2020-10-28T09:49:57.995Z</time>
      </trkpt>
      <trkpt lat="48.05818" lon="6.84267">
        <ele>885</ele>
        <time>2020-10-28T09:49:58.996Z</time>
      </trkpt>
      <trkpt lat="48.05817" lon="6.84268">
        <ele>884</ele>
        <time>2020-10-28T09:49:59.996Z</time>
      </trkpt>
      <trkpt lat="48.05816" lon="6.84268">
        <ele>884</ele>
        <time>2020-10-28T09:50:00.996Z</time>
      </trkpt>
      <trkpt lat="48.05814" lon="6.84269">
        <ele>884</ele>
        <time>2020-10-28T09:50:01.996Z</time>
      </trkpt>
      <trkpt lat="48.05812" lon="6.8427">
        <ele>883</ele>
        <time>2020-10-28T09:50:02.995Z</time>
      </trkpt>
      <trkpt lat="48.05811" lon="6.84271">
        <ele>883</ele>
        <time>2020-10-28T09:50:03.996Z</time>
      </trkpt>
      <trkpt lat="48.0581" lon="6.84272">
        <ele>883</ele>
        <time>2020-10-28T09:50:04.996Z</time>
      </trkpt>
      <trkpt lat="48.05808" lon="6.84272">
        <ele>883</ele>
        <time>2020-10-28T09:50:05.996Z</time>
      </trkpt>
      <trkpt lat="48.05807" lon="6.84273">
        <ele>883</ele>
        <time>2020-10-28T09:50:06.996Z</time>
      </trkpt>
      <trkpt lat="48.05805" lon="6.84274">
        <ele>883</ele>
        <time>2020-10-28T09:50:07.996Z</time>
      </trkpt>
      <trkpt lat="48.05804" lon="6.84275">
        <ele>883</ele>
        <time>2020-10-28T09:50:08.995Z</time>
      </trkpt>
      <trkpt lat="48.05803" lon="6.84275">
        <ele>882</ele>
        <time>2020-10-28T09:50:09.996Z</time>
      </trkpt>
      <trkpt lat="48.05801" lon="6.84275">
        <ele>881</ele>
        <time>2020-10-28T09:50:10.995Z</time>
      </trkpt>
      <trkpt lat="48.058" lon="6.84276">
        <ele>880</ele>
        <time>2020-10-28T09:50:11.995Z</time>
      </trkpt>
      <trkpt lat="48.05799" lon="6.84278">
        <ele>879</ele>
        <time>2020-10-28T09:50:12.995Z</time>
      </trkpt>
      <trkpt lat="48.05798" lon="6.84279">
        <ele>879</ele>
        <time>2020-10-28T09:50:13.996Z</time>
      </trkpt>
      <trkpt lat="48.05797" lon="6.8428">
        <ele>878</ele>
        <time>2020-10-28T09:50:14.996Z</time>
      </trkpt>
      <trkpt lat="48.05796" lon="6.84282">
        <ele>878</ele>
        <time>2020-10-28T09:50:15.996Z</time>
      </trkpt>
      <trkpt lat="48.05794" lon="6.84283">
        <ele>878</ele>
        <time>2020-10-28T09:50:16.996Z</time>
      </trkpt>
      <trkpt lat="48.05792" lon="6.84284">
        <ele>879</ele>
        <time>2020-10-28T09:50:17.996Z</time>
      </trkpt>
      <trkpt lat="48.05791" lon="6.84286">
        <ele>879</ele>
        <time>2020-10-28T09:50:18.995Z</time>
      </trkpt>
      <trkpt lat="48.05789" lon="6.84286">
        <ele>880</ele>
        <time>2020-10-28T09:50:19.996Z</time>
      </trkpt>
      <trkpt lat="48.05788" lon="6.84287">
        <ele>880</ele>
        <time>2020-10-28T09:50:20.996Z</time>
      </trkpt>
      <trkpt lat="48.05786" lon="6.84288">
        <ele>880</ele>
        <time>2020-10-28T09:50:21.996Z</time>
      </trkpt>
      <trkpt lat="48.05785" lon="6.84288">
        <ele>880</ele>
        <time>2020-10-28T09:50:22.996Z</time>
      </trkpt>
      <trkpt lat="48.05783" lon="6.84288">
        <ele>880</ele>
        <time>2020-10-28T09:50:23.996Z</time>
      </trkpt>
      <trkpt lat="48.05782" lon="6.84289">
        <ele>880</ele>
        <time>2020-10-28T09:50:24.996Z</time>
      </trkpt>
      <trkpt lat="48.05781" lon="6.8429">
        <ele>880</ele>
        <time>2020-10-28T09:50:25.996Z</time>
      </trkpt>
      <trkpt lat="48.05779" lon="6.8429">
        <ele>880</ele>
        <time>2020-10-28T09:50:26.996Z</time>
      </trkpt>
      <trkpt lat="48.05778" lon="6.8429">
        <ele>879</ele>
        <time>2020-10-28T09:50:27.996Z</time>
      </trkpt>
      <trkpt lat="48.05777" lon="6.84289">
        <ele>879</ele>
        <time>2020-10-28T09:50:28.995Z</time>
      </trkpt>
      <trkpt lat="48.05775" lon="6.84287">
        <ele>879</ele>
        <time>2020-10-28T09:50:29.995Z</time>
      </trkpt>
      <trkpt lat="48.05774" lon="6.84287">
        <ele>878</ele>
        <time>2020-10-28T09:50:30.996Z</time>
      </trkpt>
      <trkpt lat="48.05773" lon="6.84286">
        <ele>877</ele>
        <time>2020-10-28T09:50:31.995Z</time>
      </trkpt>
      <trkpt lat="48.05772" lon="6.84287">
        <ele>877</ele>
        <time>2020-10-28T09:50:32.995Z</time>
      </trkpt>
      <trkpt lat="48.05771" lon="6.84287">
        <ele>876</ele>
        <time>2020-10-28T09:50:33.995Z</time>
      </trkpt>
      <trkpt lat="48.0577" lon="6.84287">
        <ele>876</ele>
        <time>2020-10-28T09:50:34.996Z</time>
      </trkpt>
      <trkpt lat="48.05768" lon="6.84287">
        <ele>876</ele>
        <time>2020-10-28T09:50:35.995Z</time>
      </trkpt>
      <trkpt lat="48.05767" lon="6.84287">
        <ele>876</ele>
        <time>2020-10-28T09:50:36.996Z</time>
      </trkpt>
      <trkpt lat="48.05766" lon="6.84288">
        <ele>877</ele>
        <time>2020-10-28T09:50:37.996Z</time>
      </trkpt>
      <trkpt lat="48.05765" lon="6.84289">
        <ele>877</ele>
        <time>2020-10-28T09:50:38.996Z</time>
      </trkpt>
      <trkpt lat="48.05763" lon="6.84289">
        <ele>877</ele>
        <time>2020-10-28T09:50:39.996Z</time>
      </trkpt>
      <trkpt lat="48.05762" lon="6.84289">
        <ele>877</ele>
        <time>2020-10-28T09:50:40.996Z</time>
      </trkpt>
      <trkpt lat="48.05761" lon="6.84288">
        <ele>877</ele>
        <time>2020-10-28T09:50:41.996Z</time>
      </trkpt>
      <trkpt lat="48.05759" lon="6.84289">
        <ele>876</ele>
        <time>2020-10-28T09:50:42.996Z</time>
      </trkpt>
      <trkpt lat="48.05757" lon="6.84289">
        <ele>876</ele>
        <time>2020-10-28T09:50:43.995Z</time>
      </trkpt>
      <trkpt lat="48.05755" lon="6.84289">
        <ele>875</ele>
        <time>2020-10-28T09:50:44.996Z</time>
      </trkpt>
      <trkpt lat="48.05754" lon="6.84289">
        <ele>875</ele>
        <time>2020-10-28T09:50:45.996Z</time>
      </trkpt>
      <trkpt lat="48.05753" lon="6.84289">
        <ele>874</ele>
        <time>2020-10-28T09:50:46.996Z</time>
      </trkpt>
      <trkpt lat="48.05752" lon="6.84289">
        <ele>874</ele>
        <time>2020-10-28T09:50:47.996Z</time>
      </trkpt>
      <trkpt lat="48.0575" lon="6.84289">
        <ele>873</ele>
        <time>2020-10-28T09:50:48.996Z</time>
      </trkpt>
      <trkpt lat="48.05749" lon="6.84289">
        <ele>873</ele>
        <time>2020-10-28T09:50:49.996Z</time>
      </trkpt>
      <trkpt lat="48.05747" lon="6.84289">
        <ele>873</ele>
        <time>2020-10-28T09:50:50.996Z</time>
      </trkpt>
      <trkpt lat="48.05745" lon="6.84289">
        <ele>872</ele>
        <time>2020-10-28T09:50:51.996Z</time>
      </trkpt>
      <trkpt lat="48.05744" lon="6.84289">
        <ele>872</ele>
        <time>2020-10-28T09:50:52.996Z</time>
      </trkpt>
      <trkpt lat="48.05743" lon="6.84289">
        <ele>872</ele>
        <time>2020-10-28T09:50:53.995Z</time>
      </trkpt>
      <trkpt lat="48.05741" lon="6.8429">
        <ele>872</ele>
        <time>2020-10-28T09:50:54.996Z</time>
      </trkpt>
      <trkpt lat="48.0574" lon="6.84291">
        <ele>872</ele>
        <time>2020-10-28T09:50:55.996Z</time>
      </trkpt>
      <trkpt lat="48.05738" lon="6.84292">
        <ele>872</ele>
        <time>2020-10-28T09:50:56.996Z</time>
      </trkpt>
      <trkpt lat="48.05737" lon="6.84293">
        <ele>872</ele>
        <time>2020-10-28T09:50:57.995Z</time>
      </trkpt>
      <trkpt lat="48.05736" lon="6.84294">
        <ele>872</ele>
        <time>2020-10-28T09:50:58.995Z</time>
      </trkpt>
      <trkpt lat="48.05735" lon="6.84295">
        <ele>872</ele>
        <time>2020-10-28T09:50:59.995Z</time>
      </trkpt>
      <trkpt lat="48.05733" lon="6.84295">
        <ele>872</ele>
        <time>2020-10-28T09:51:00.996Z</time>
      </trkpt>
      <trkpt lat="48.05732" lon="6.84294">
        <ele>872</ele>
        <time>2020-10-28T09:51:01.996Z</time>
      </trkpt>
      <trkpt lat="48.0573" lon="6.84295">
        <ele>872</ele>
        <time>2020-10-28T09:51:02.996Z</time>
      </trkpt>
      <trkpt lat="48.05729" lon="6.84295">
        <ele>872</ele>
        <time>2020-10-28T09:51:03.995Z</time>
      </trkpt>
      <trkpt lat="48.05727" lon="6.84296">
        <ele>872</ele>
        <time>2020-10-28T09:51:04.995Z</time>
      </trkpt>
      <trkpt lat="48.05725" lon="6.84296">
        <ele>871</ele>
        <time>2020-10-28T09:51:05.995Z</time>
      </trkpt>
      <trkpt lat="48.05724" lon="6.84296">
        <ele>871</ele>
        <time>2020-10-28T09:51:06.996Z</time>
      </trkpt>
      <trkpt lat="48.05722" lon="6.84296">
        <ele>870</ele>
        <time>2020-10-28T09:51:07.996Z</time>
      </trkpt>
      <trkpt lat="48.05721" lon="6.84296">
        <ele>870</ele>
        <time>2020-10-28T09:51:08.996Z</time>
      </trkpt>
      <trkpt lat="48.05719" lon="6.84296">
        <ele>870</ele>
        <time>2020-10-28T09:51:09.996Z</time>
      </trkpt>
      <trkpt lat="48.05717" lon="6.84297">
        <ele>870</ele>
        <time>2020-10-28T09:51:10.995Z</time>
      </trkpt>
      <trkpt lat="48.05715" lon="6.84298">
        <ele>870</ele>
        <time>2020-10-28T09:51:11.996Z</time>
      </trkpt>
      <trkpt lat="48.05714" lon="6.84298">
        <ele>869</ele>
        <time>2020-10-28T09:51:12.995Z</time>
      </trkpt>
      <trkpt lat="48.05712" lon="6.84298">
        <ele>869</ele>
        <time>2020-10-28T09:51:13.995Z</time>
      </trkpt>
      <trkpt lat="48.05711" lon="6.84298">
        <ele>869</ele>
        <time>2020-10-28T09:51:14.996Z</time>
      </trkpt>
      <trkpt lat="48.0571" lon="6.84298">
        <ele>869</ele>
        <time>2020-10-28T09:51:15.995Z</time>
      </trkpt>
      <trkpt lat="48.05709" lon="6.84297">
        <ele>868</ele>
        <time>2020-10-28T09:51:16.995Z</time>
      </trkpt>
      <trkpt lat="48.05707" lon="6.84297">
        <ele>868</ele>
        <time>2020-10-28T09:51:17.996Z</time>
      </trkpt>
      <trkpt lat="48.05706" lon="6.84297">
        <ele>868</ele>
        <time>2020-10-28T09:51:18.996Z</time>
      </trkpt>
      <trkpt lat="48.05705" lon="6.84298">
        <ele>869</ele>
        <time>2020-10-28T09:51:19.996Z</time>
      </trkpt>
      <trkpt lat="48.05704" lon="6.84298">
        <ele>869</ele>
        <time>2020-10-28T09:51:20.996Z</time>
      </trkpt>
      <trkpt lat="48.05703" lon="6.84298">
        <ele>869</ele>
        <time>2020-10-28T09:51:21.996Z</time>
      </trkpt>
      <trkpt lat="48.05702" lon="6.84298">
        <ele>870</ele>
        <time>2020-10-28T09:51:22.996Z</time>
      </trkpt>
      <trkpt lat="48.05701" lon="6.84298">
        <ele>870</ele>
        <time>2020-10-28T09:51:23.995Z</time>
      </trkpt>
      <trkpt lat="48.05699" lon="6.84298">
        <ele>870</ele>
        <time>2020-10-28T09:51:24.996Z</time>
      </trkpt>
      <trkpt lat="48.05698" lon="6.84297">
        <ele>870</ele>
        <time>2020-10-28T09:51:25.995Z</time>
      </trkpt>
      <trkpt lat="48.05697" lon="6.84297">
        <ele>870</ele>
        <time>2020-10-28T09:51:26.995Z</time>
      </trkpt>
      <trkpt lat="48.05695" lon="6.84297">
        <ele>870</ele>
        <time>2020-10-28T09:51:27.995Z</time>
      </trkpt>
      <trkpt lat="48.05694" lon="6.84296">
        <ele>870</ele>
        <time>2020-10-28T09:51:28.996Z</time>
      </trkpt>
      <trkpt lat="48.05693" lon="6.84296">
        <ele>870</ele>
        <time>2020-10-28T09:51:29.996Z</time>
      </trkpt>
      <trkpt lat="48.05692" lon="6.84296">
        <ele>870</ele>
        <time>2020-10-28T09:51:30.996Z</time>
      </trkpt>
      <trkpt lat="48.0569" lon="6.84296">
        <ele>870</ele>
        <time>2020-10-28T09:51:31.996Z</time>
      </trkpt>
      <trkpt lat="48.05689" lon="6.84296">
        <ele>870</ele>
        <time>2020-10-28T09:51:32.996Z</time>
      </trkpt>
      <trkpt lat="48.05688" lon="6.84296">
        <ele>870</ele>
        <time>2020-10-28T09:51:33.995Z</time>
      </trkpt>
      <trkpt lat="48.05688" lon="6.84295">
        <ele>870</ele>
        <time>2020-10-28T09:51:34.996Z</time>
      </trkpt>
      <trkpt lat="48.05687" lon="6.84295">
        <ele>870</ele>
        <time>2020-10-28T09:51:35.996Z</time>
      </trkpt>
      <trkpt lat="48.05685" lon="6.84295">
        <ele>870</ele>
        <time>2020-10-28T09:51:36.996Z</time>
      </trkpt>
      <trkpt lat="48.05684" lon="6.84296">
        <ele>870</ele>
        <time>2020-10-28T09:51:45.099Z</time>
      </trkpt>
      <trkpt lat="48.05683" lon="6.84296">
        <ele>870</ele>
        <time>2020-10-28T09:51:46.099Z</time>
      </trkpt>
      <trkpt lat="48.05681" lon="6.84297">
        <ele>870</ele>
        <time>2020-10-28T09:52:01.992Z</time>
      </trkpt>
      <trkpt lat="48.05678" lon="6.84298">
        <ele>869</ele>
        <time>2020-10-28T09:52:02.992Z</time>
      </trkpt>
      <trkpt lat="48.05677" lon="6.843">
        <ele>869</ele>
        <time>2020-10-28T09:52:03.991Z</time>
      </trkpt>
      <trkpt lat="48.05675" lon="6.843">
        <ele>869</ele>
        <time>2020-10-28T09:52:04.992Z</time>
      </trkpt>
      <trkpt lat="48.05674" lon="6.843">
        <ele>869</ele>
        <time>2020-10-28T09:52:05.992Z</time>
      </trkpt>
      <trkpt lat="48.05674" lon="6.843">
        <ele>869</ele>
        <time>2020-10-28T09:52:06.992Z</time>
      </trkpt>
      <trkpt lat="48.05673" lon="6.843">
        <ele>869</ele>
        <time>2020-10-28T09:52:07.992Z</time>
      </trkpt>
      <trkpt lat="48.05673" lon="6.843">
        <ele>869</ele>
        <time>2020-10-28T09:52:08.992Z</time>
      </trkpt>
      <trkpt lat="48.05672" lon="6.843">
        <ele>869</ele>
        <time>2020-10-28T09:52:09.992Z</time>
      </trkpt>
      <trkpt lat="48.05672" lon="6.84299">
        <ele>869</ele>
        <time>2020-10-28T09:52:10.992Z</time>
      </trkpt>
      <trkpt lat="48.05671" lon="6.84299">
        <ele>868</ele>
        <time>2020-10-28T09:52:11.992Z</time>
      </trkpt>
      <trkpt lat="48.05671" lon="6.84299">
        <ele>867</ele>
        <time>2020-10-28T09:52:12.992Z</time>
      </trkpt>
      <trkpt lat="48.0567" lon="6.84299">
        <ele>867</ele>
        <time>2020-10-28T09:52:13.992Z</time>
      </trkpt>
      <trkpt lat="48.05669" lon="6.84299">
        <ele>866</ele>
        <time>2020-10-28T09:52:14.992Z</time>
      </trkpt>
      <trkpt lat="48.05668" lon="6.843">
        <ele>866</ele>
        <time>2020-10-28T09:52:15.992Z</time>
      </trkpt>
      <trkpt lat="48.05667" lon="6.843">
        <ele>866</ele>
        <time>2020-10-28T09:52:16.992Z</time>
      </trkpt>
      <trkpt lat="48.05665" lon="6.84301">
        <ele>865</ele>
        <time>2020-10-28T09:52:17.992Z</time>
      </trkpt>
      <trkpt lat="48.05664" lon="6.84302">
        <ele>865</ele>
        <time>2020-10-28T09:52:18.991Z</time>
      </trkpt>
      <trkpt lat="48.05662" lon="6.84303">
        <ele>865</ele>
        <time>2020-10-28T09:52:19.991Z</time>
      </trkpt>
      <trkpt lat="48.05659" lon="6.84304">
        <ele>866</ele>
        <time>2020-10-28T09:52:20.992Z</time>
      </trkpt>
      <trkpt lat="48.05657" lon="6.84306">
        <ele>866</ele>
        <time>2020-10-28T09:52:21.992Z</time>
      </trkpt>
      <trkpt lat="48.05656" lon="6.84306">
        <ele>866</ele>
        <time>2020-10-28T09:52:22.992Z</time>
      </trkpt>
      <trkpt lat="48.05655" lon="6.84307">
        <ele>866</ele>
        <time>2020-10-28T09:52:23.991Z</time>
      </trkpt>
      <trkpt lat="48.05654" lon="6.84307">
        <ele>866</ele>
        <time>2020-10-28T09:52:24.992Z</time>
      </trkpt>
      <trkpt lat="48.05652" lon="6.84307">
        <ele>866</ele>
        <time>2020-10-28T09:52:25.992Z</time>
      </trkpt>
      <trkpt lat="48.0565" lon="6.84309">
        <ele>866</ele>
        <time>2020-10-28T09:52:26.992Z</time>
      </trkpt>
      <trkpt lat="48.05648" lon="6.84311">
        <ele>866</ele>
        <time>2020-10-28T09:52:27.992Z</time>
      </trkpt>
      <trkpt lat="48.05646" lon="6.84312">
        <ele>866</ele>
        <time>2020-10-28T09:52:28.992Z</time>
      </trkpt>
      <trkpt lat="48.05645" lon="6.84314">
        <ele>866</ele>
        <time>2020-10-28T09:52:29.992Z</time>
      </trkpt>
      <trkpt lat="48.05644" lon="6.84314">
        <ele>866</ele>
        <time>2020-10-28T09:52:30.992Z</time>
      </trkpt>
      <trkpt lat="48.05643" lon="6.84314">
        <ele>866</ele>
        <time>2020-10-28T09:52:31.992Z</time>
      </trkpt>
      <trkpt lat="48.05641" lon="6.84315">
        <ele>866</ele>
        <time>2020-10-28T09:52:32.992Z</time>
      </trkpt>
      <trkpt lat="48.05639" lon="6.84316">
        <ele>866</ele>
        <time>2020-10-28T09:52:33.992Z</time>
      </trkpt>
      <trkpt lat="48.05638" lon="6.84318">
        <ele>867</ele>
        <time>2020-10-28T09:52:34.992Z</time>
      </trkpt>
      <trkpt lat="48.05637" lon="6.84319">
        <ele>867</ele>
        <time>2020-10-28T09:52:35.992Z</time>
      </trkpt>
      <trkpt lat="48.05635" lon="6.8432">
        <ele>868</ele>
        <time>2020-10-28T09:52:36.992Z</time>
      </trkpt>
      <trkpt lat="48.05634" lon="6.84321">
        <ele>869</ele>
        <time>2020-10-28T09:52:37.991Z</time>
      </trkpt>
      <trkpt lat="48.05633" lon="6.84322">
        <ele>870</ele>
        <time>2020-10-28T09:52:38.992Z</time>
      </trkpt>
      <trkpt lat="48.0563" lon="6.84323">
        <ele>871</ele>
        <time>2020-10-28T09:52:39.991Z</time>
      </trkpt>
      <trkpt lat="48.05627" lon="6.84324">
        <ele>872</ele>
        <time>2020-10-28T09:52:40.991Z</time>
      </trkpt>
      <trkpt lat="48.05624" lon="6.84324">
        <ele>873</ele>
        <time>2020-10-28T09:52:41.991Z</time>
      </trkpt>
      <trkpt lat="48.05623" lon="6.84325">
        <ele>874</ele>
        <time>2020-10-28T09:52:42.992Z</time>
      </trkpt>
      <trkpt lat="48.05621" lon="6.84326">
        <ele>874</ele>
        <time>2020-10-28T09:52:43.991Z</time>
      </trkpt>
      <trkpt lat="48.0562" lon="6.84328">
        <ele>875</ele>
        <time>2020-10-28T09:52:44.992Z</time>
      </trkpt>
      <trkpt lat="48.05619" lon="6.8433">
        <ele>875</ele>
        <time>2020-10-28T09:52:45.991Z</time>
      </trkpt>
      <trkpt lat="48.05618" lon="6.84332">
        <ele>875</ele>
        <time>2020-10-28T09:52:46.991Z</time>
      </trkpt>
      <trkpt lat="48.05616" lon="6.84333">
        <ele>876</ele>
        <time>2020-10-28T09:52:47.991Z</time>
      </trkpt>
      <trkpt lat="48.05614" lon="6.84335">
        <ele>876</ele>
        <time>2020-10-28T09:52:48.992Z</time>
      </trkpt>
      <trkpt lat="48.05613" lon="6.84337">
        <ele>876</ele>
        <time>2020-10-28T09:52:49.991Z</time>
      </trkpt>
      <trkpt lat="48.05612" lon="6.84338">
        <ele>876</ele>
        <time>2020-10-28T09:52:50.992Z</time>
      </trkpt>
      <trkpt lat="48.05611" lon="6.84338">
        <ele>876</ele>
        <time>2020-10-28T09:52:51.992Z</time>
      </trkpt>
      <trkpt lat="48.05609" lon="6.84339">
        <ele>876</ele>
        <time>2020-10-28T09:52:52.992Z</time>
      </trkpt>
      <trkpt lat="48.05608" lon="6.84339">
        <ele>875</ele>
        <time>2020-10-28T09:52:53.991Z</time>
      </trkpt>
      <trkpt lat="48.05606" lon="6.8434">
        <ele>875</ele>
        <time>2020-10-28T09:52:54.992Z</time>
      </trkpt>
      <trkpt lat="48.05604" lon="6.8434">
        <ele>874</ele>
        <time>2020-10-28T09:52:55.991Z</time>
      </trkpt>
      <trkpt lat="48.05602" lon="6.84341">
        <ele>874</ele>
        <time>2020-10-28T09:52:56.992Z</time>
      </trkpt>
      <trkpt lat="48.05601" lon="6.84342">
        <ele>873</ele>
        <time>2020-10-28T09:52:57.991Z</time>
      </trkpt>
      <trkpt lat="48.05599" lon="6.84342">
        <ele>873</ele>
        <time>2020-10-28T09:52:58.992Z</time>
      </trkpt>
      <trkpt lat="48.05597" lon="6.84342">
        <ele>872</ele>
        <time>2020-10-28T09:52:59.992Z</time>
      </trkpt>
      <trkpt lat="48.05596" lon="6.84343">
        <ele>872</ele>
        <time>2020-10-28T09:53:00.992Z</time>
      </trkpt>
      <trkpt lat="48.05595" lon="6.84344">
        <ele>871</ele>
        <time>2020-10-28T09:53:01.992Z</time>
      </trkpt>
      <trkpt lat="48.05593" lon="6.84347">
        <ele>871</ele>
        <time>2020-10-28T09:53:02.992Z</time>
      </trkpt>
      <trkpt lat="48.05592" lon="6.8435">
        <ele>871</ele>
        <time>2020-10-28T09:53:03.992Z</time>
      </trkpt>
      <trkpt lat="48.0559" lon="6.84351">
        <ele>872</ele>
        <time>2020-10-28T09:53:04.992Z</time>
      </trkpt>
      <trkpt lat="48.05587" lon="6.84353">
        <ele>872</ele>
        <time>2020-10-28T09:53:05.992Z</time>
      </trkpt>
      <trkpt lat="48.05586" lon="6.84355">
        <ele>873</ele>
        <time>2020-10-28T09:53:06.991Z</time>
      </trkpt>
      <trkpt lat="48.05585" lon="6.84356">
        <ele>873</ele>
        <time>2020-10-28T09:53:07.992Z</time>
      </trkpt>
      <trkpt lat="48.05583" lon="6.84356">
        <ele>874</ele>
        <time>2020-10-28T09:53:08.992Z</time>
      </trkpt>
      <trkpt lat="48.05582" lon="6.84357">
        <ele>874</ele>
        <time>2020-10-28T09:53:09.992Z</time>
      </trkpt>
      <trkpt lat="48.05581" lon="6.84357">
        <ele>874</ele>
        <time>2020-10-28T09:53:10.992Z</time>
      </trkpt>
      <trkpt lat="48.05579" lon="6.84357">
        <ele>874</ele>
        <time>2020-10-28T09:53:16.152Z</time>
      </trkpt>
      <trkpt lat="48.05578" lon="6.84356">
        <ele>875</ele>
        <time>2020-10-28T09:53:17.152Z</time>
      </trkpt>
      <trkpt lat="48.05576" lon="6.84356">
        <ele>875</ele>
        <time>2020-10-28T09:53:18.151Z</time>
      </trkpt>
      <trkpt lat="48.05575" lon="6.84356">
        <ele>875</ele>
        <time>2020-10-28T09:53:19.152Z</time>
      </trkpt>
      <trkpt lat="48.05574" lon="6.84356">
        <ele>875</ele>
        <time>2020-10-28T09:53:20.151Z</time>
      </trkpt>
      <trkpt lat="48.05573" lon="6.84356">
        <ele>875</ele>
        <time>2020-10-28T09:53:21.151Z</time>
      </trkpt>
      <trkpt lat="48.05571" lon="6.84357">
        <ele>875</ele>
        <time>2020-10-28T09:53:22.152Z</time>
      </trkpt>
      <trkpt lat="48.0557" lon="6.84358">
        <ele>875</ele>
        <time>2020-10-28T09:53:23.151Z</time>
      </trkpt>
      <trkpt lat="48.05569" lon="6.84358">
        <ele>874</ele>
        <time>2020-10-28T09:53:24.151Z</time>
      </trkpt>
      <trkpt lat="48.05568" lon="6.84358">
        <ele>874</ele>
        <time>2020-10-28T09:53:25.152Z</time>
      </trkpt>
      <trkpt lat="48.05567" lon="6.84358">
        <ele>873</ele>
        <time>2020-10-28T09:53:26.152Z</time>
      </trkpt>
      <trkpt lat="48.05566" lon="6.84358">
        <ele>872</ele>
        <time>2020-10-28T09:53:27.152Z</time>
      </trkpt>
      <trkpt lat="48.05565" lon="6.84358">
        <ele>872</ele>
        <time>2020-10-28T09:53:28.152Z</time>
      </trkpt>
      <trkpt lat="48.05563" lon="6.84358">
        <ele>872</ele>
        <time>2020-10-28T09:53:29.151Z</time>
      </trkpt>
      <trkpt lat="48.05562" lon="6.84357">
        <ele>872</ele>
        <time>2020-10-28T09:53:30.152Z</time>
      </trkpt>
      <trkpt lat="48.0556" lon="6.84357">
        <ele>872</ele>
        <time>2020-10-28T09:53:31.151Z</time>
      </trkpt>
      <trkpt lat="48.05558" lon="6.84359">
        <ele>872</ele>
        <time>2020-10-28T09:53:32.151Z</time>
      </trkpt>
      <trkpt lat="48.05557" lon="6.8436">
        <ele>872</ele>
        <time>2020-10-28T09:53:33.151Z</time>
      </trkpt>
      <trkpt lat="48.05556" lon="6.8436">
        <ele>871</ele>
        <time>2020-10-28T09:53:34.151Z</time>
      </trkpt>
      <trkpt lat="48.05554" lon="6.84361">
        <ele>871</ele>
        <time>2020-10-28T09:53:35.151Z</time>
      </trkpt>
      <trkpt lat="48.05553" lon="6.8436">
        <ele>871</ele>
        <time>2020-10-28T09:53:36.151Z</time>
      </trkpt>
      <trkpt lat="48.05551" lon="6.8436">
        <ele>870</ele>
        <time>2020-10-28T09:53:37.152Z</time>
      </trkpt>
      <trkpt lat="48.0555" lon="6.84361">
        <ele>870</ele>
        <time>2020-10-28T09:53:38.152Z</time>
      </trkpt>
      <trkpt lat="48.05549" lon="6.84362">
        <ele>870</ele>
        <time>2020-10-28T09:53:39.152Z</time>
      </trkpt>
      <trkpt lat="48.05548" lon="6.84363">
        <ele>870</ele>
        <time>2020-10-28T09:53:46.236Z</time>
      </trkpt>
      <trkpt lat="48.05547" lon="6.84363">
        <ele>870</ele>
        <time>2020-10-28T09:53:47.237Z</time>
      </trkpt>
      <trkpt lat="48.05545" lon="6.84362">
        <ele>869</ele>
        <time>2020-10-28T09:54:13.379Z</time>
      </trkpt>
      <trkpt lat="48.05543" lon="6.84361">
        <ele>869</ele>
        <time>2020-10-28T09:54:14.379Z</time>
      </trkpt>
      <trkpt lat="48.05541" lon="6.84361">
        <ele>868</ele>
        <time>2020-10-28T09:54:15.379Z</time>
      </trkpt>
      <trkpt lat="48.05539" lon="6.84361">
        <ele>867</ele>
        <time>2020-10-28T09:54:16.379Z</time>
      </trkpt>
      <trkpt lat="48.05538" lon="6.84361">
        <ele>866</ele>
        <time>2020-10-28T09:54:17.379Z</time>
      </trkpt>
      <trkpt lat="48.05536" lon="6.84361">
        <ele>865</ele>
        <time>2020-10-28T09:54:18.379Z</time>
      </trkpt>
      <trkpt lat="48.05535" lon="6.84361">
        <ele>864</ele>
        <time>2020-10-28T09:54:19.379Z</time>
      </trkpt>
      <trkpt lat="48.05533" lon="6.84361">
        <ele>864</ele>
        <time>2020-10-28T09:54:20.379Z</time>
      </trkpt>
      <trkpt lat="48.05532" lon="6.84361">
        <ele>864</ele>
        <time>2020-10-28T09:54:21.378Z</time>
      </trkpt>
      <trkpt lat="48.0553" lon="6.84361">
        <ele>863</ele>
        <time>2020-10-28T09:54:22.379Z</time>
      </trkpt>
      <trkpt lat="48.05529" lon="6.8436">
        <ele>863</ele>
        <time>2020-10-28T09:54:23.379Z</time>
      </trkpt>
      <trkpt lat="48.05528" lon="6.8436">
        <ele>862</ele>
        <time>2020-10-28T09:54:24.379Z</time>
      </trkpt>
      <trkpt lat="48.05526" lon="6.84361">
        <ele>862</ele>
        <time>2020-10-28T09:54:25.379Z</time>
      </trkpt>
      <trkpt lat="48.05524" lon="6.8436">
        <ele>861</ele>
        <time>2020-10-28T09:54:26.378Z</time>
      </trkpt>
      <trkpt lat="48.05523" lon="6.8436">
        <ele>860</ele>
        <time>2020-10-28T09:54:27.379Z</time>
      </trkpt>
      <trkpt lat="48.05521" lon="6.8436">
        <ele>859</ele>
        <time>2020-10-28T09:54:28.379Z</time>
      </trkpt>
      <trkpt lat="48.0552" lon="6.8436">
        <ele>858</ele>
        <time>2020-10-28T09:54:29.379Z</time>
      </trkpt>
      <trkpt lat="48.05519" lon="6.8436">
        <ele>857</ele>
        <time>2020-10-28T09:54:30.378Z</time>
      </trkpt>
      <trkpt lat="48.05517" lon="6.8436">
        <ele>857</ele>
        <time>2020-10-28T09:54:31.379Z</time>
      </trkpt>
      <trkpt lat="48.05516" lon="6.8436">
        <ele>856</ele>
        <time>2020-10-28T09:54:32.379Z</time>
      </trkpt>
      <trkpt lat="48.05515" lon="6.8436">
        <ele>854</ele>
        <time>2020-10-28T09:54:33.379Z</time>
      </trkpt>
      <trkpt lat="48.05513" lon="6.8436">
        <ele>853</ele>
        <time>2020-10-28T09:54:34.378Z</time>
      </trkpt>
      <trkpt lat="48.05512" lon="6.84359">
        <ele>852</ele>
        <time>2020-10-28T09:54:35.378Z</time>
      </trkpt>
      <trkpt lat="48.05512" lon="6.84359">
        <ele>851</ele>
        <time>2020-10-28T09:54:36.379Z</time>
      </trkpt>
      <trkpt lat="48.05511" lon="6.84359">
        <ele>850</ele>
        <time>2020-10-28T09:54:37.379Z</time>
      </trkpt>
      <trkpt lat="48.05511" lon="6.84359">
        <ele>849</ele>
        <time>2020-10-28T09:54:38.378Z</time>
      </trkpt>
      <trkpt lat="48.05511" lon="6.84358">
        <ele>849</ele>
        <time>2020-10-28T09:54:39.379Z</time>
      </trkpt>
      <trkpt lat="48.05511" lon="6.84358">
        <ele>848</ele>
        <time>2020-10-28T09:54:40.378Z</time>
      </trkpt>
      <trkpt lat="48.05511" lon="6.8436">
        <ele>848</ele>
        <time>2020-10-28T09:54:41.379Z</time>
      </trkpt>
      <trkpt lat="48.05511" lon="6.8436">
        <ele>848</ele>
        <time>2020-10-28T09:54:42.379Z</time>
      </trkpt>
      <trkpt lat="48.05511" lon="6.84362">
        <ele>848</ele>
        <time>2020-10-28T09:54:43.379Z</time>
      </trkpt>
      <trkpt lat="48.05512" lon="6.84363">
        <ele>849</ele>
        <time>2020-10-28T09:54:44.379Z</time>
      </trkpt>
      <trkpt lat="48.05513" lon="6.84363">
        <ele>849</ele>
        <time>2020-10-28T09:54:45.379Z</time>
      </trkpt>
      <trkpt lat="48.05513" lon="6.84364">
        <ele>850</ele>
        <time>2020-10-28T09:54:46.379Z</time>
      </trkpt>
      <trkpt lat="48.05513" lon="6.84366">
        <ele>850</ele>
        <time>2020-10-28T09:54:47.379Z</time>
      </trkpt>
      <trkpt lat="48.05512" lon="6.84367">
        <ele>850</ele>
        <time>2020-10-28T09:54:48.379Z</time>
      </trkpt>
      <trkpt lat="48.05511" lon="6.84367">
        <ele>850</ele>
        <time>2020-10-28T09:54:49.379Z</time>
      </trkpt>
      <trkpt lat="48.05511" lon="6.84366">
        <ele>850</ele>
        <time>2020-10-28T09:54:50.379Z</time>
      </trkpt>
      <trkpt lat="48.0551" lon="6.84365">
        <ele>849</ele>
        <time>2020-10-28T09:54:51.379Z</time>
      </trkpt>
      <trkpt lat="48.0551" lon="6.84364">
        <ele>848</ele>
        <time>2020-10-28T09:54:52.378Z</time>
      </trkpt>
      <trkpt lat="48.05509" lon="6.84363">
        <ele>847</ele>
        <time>2020-10-28T09:54:53.378Z</time>
      </trkpt>
      <trkpt lat="48.05508" lon="6.84362">
        <ele>846</ele>
        <time>2020-10-28T09:54:54.379Z</time>
      </trkpt>
      <trkpt lat="48.05507" lon="6.84362">
        <ele>845</ele>
        <time>2020-10-28T09:54:55.378Z</time>
      </trkpt>
      <trkpt lat="48.05507" lon="6.84361">
        <ele>845</ele>
        <time>2020-10-28T09:54:56.379Z</time>
      </trkpt>
      <trkpt lat="48.05506" lon="6.8436">
        <ele>845</ele>
        <time>2020-10-28T09:54:57.379Z</time>
      </trkpt>
      <trkpt lat="48.05506" lon="6.8436">
        <ele>844</ele>
        <time>2020-10-28T09:54:58.379Z</time>
      </trkpt>
      <trkpt lat="48.05505" lon="6.84359">
        <ele>844</ele>
        <time>2020-10-28T09:54:59.379Z</time>
      </trkpt>
      <trkpt lat="48.05505" lon="6.84359">
        <ele>844</ele>
        <time>2020-10-28T09:55:00.379Z</time>
      </trkpt>
      <trkpt lat="48.05504" lon="6.84358">
        <ele>845</ele>
        <time>2020-10-28T09:55:01.379Z</time>
      </trkpt>
      <trkpt lat="48.05503" lon="6.84356">
        <ele>845</ele>
        <time>2020-10-28T09:55:02.379Z</time>
      </trkpt>
      <trkpt lat="48.05502" lon="6.84355">
        <ele>844</ele>
        <time>2020-10-28T09:55:08.376Z</time>
      </trkpt>
      <trkpt lat="48.055" lon="6.84355">
        <ele>844</ele>
        <time>2020-10-28T09:55:09.376Z</time>
      </trkpt>
      <trkpt lat="48.055" lon="6.84354">
        <ele>843</ele>
        <time>2020-10-28T09:55:10.376Z</time>
      </trkpt>
      <trkpt lat="48.05499" lon="6.84353">
        <ele>843</ele>
        <time>2020-10-28T09:55:16.265Z</time>
      </trkpt>
      <trkpt lat="48.05497" lon="6.84352">
        <ele>843</ele>
        <time>2020-10-28T09:55:17.265Z</time>
      </trkpt>
      <trkpt lat="48.05496" lon="6.84351">
        <ele>843</ele>
        <time>2020-10-28T09:55:18.265Z</time>
      </trkpt>
      <trkpt lat="48.05495" lon="6.8435">
        <ele>843</ele>
        <time>2020-10-28T09:55:19.265Z</time>
      </trkpt>
      <trkpt lat="48.05493" lon="6.84349">
        <ele>843</ele>
        <time>2020-10-28T09:55:20.265Z</time>
      </trkpt>
      <trkpt lat="48.05492" lon="6.84348">
        <ele>843</ele>
        <time>2020-10-28T09:55:21.265Z</time>
      </trkpt>
      <trkpt lat="48.0549" lon="6.84347">
        <ele>843</ele>
        <time>2020-10-28T09:55:22.264Z</time>
      </trkpt>
      <trkpt lat="48.05489" lon="6.84346">
        <ele>844</ele>
        <time>2020-10-28T09:55:23.265Z</time>
      </trkpt>
      <trkpt lat="48.05487" lon="6.84344">
        <ele>844</ele>
        <time>2020-10-28T09:55:24.265Z</time>
      </trkpt>
      <trkpt lat="48.05486" lon="6.84343">
        <ele>844</ele>
        <time>2020-10-28T09:55:25.265Z</time>
      </trkpt>
      <trkpt lat="48.05485" lon="6.84341">
        <ele>844</ele>
        <time>2020-10-28T09:55:26.265Z</time>
      </trkpt>
      <trkpt lat="48.05484" lon="6.8434">
        <ele>844</ele>
        <time>2020-10-28T09:56:07.367Z</time>
      </trkpt>
      <trkpt lat="48.05483" lon="6.84338">
        <ele>844</ele>
        <time>2020-10-28T09:56:08.368Z</time>
      </trkpt>
      <trkpt lat="48.05482" lon="6.84337">
        <ele>844</ele>
        <time>2020-10-28T09:56:09.367Z</time>
      </trkpt>
      <trkpt lat="48.05481" lon="6.84335">
        <ele>843</ele>
        <time>2020-10-28T09:56:10.368Z</time>
      </trkpt>
      <trkpt lat="48.0548" lon="6.84333">
        <ele>842</ele>
        <time>2020-10-28T09:56:11.367Z</time>
      </trkpt>
      <trkpt lat="48.05479" lon="6.84332">
        <ele>841</ele>
        <time>2020-10-28T09:56:12.367Z</time>
      </trkpt>
      <trkpt lat="48.05478" lon="6.8433">
        <ele>841</ele>
        <time>2020-10-28T09:56:13.368Z</time>
      </trkpt>
      <trkpt lat="48.05477" lon="6.84329">
        <ele>840</ele>
        <time>2020-10-28T09:56:14.368Z</time>
      </trkpt>
      <trkpt lat="48.05477" lon="6.84327">
        <ele>840</ele>
        <time>2020-10-28T09:56:15.368Z</time>
      </trkpt>
      <trkpt lat="48.05476" lon="6.84325">
        <ele>840</ele>
        <time>2020-10-28T09:56:16.368Z</time>
      </trkpt>
      <trkpt lat="48.05475" lon="6.84324">
        <ele>840</ele>
        <time>2020-10-28T09:56:17.368Z</time>
      </trkpt>
      <trkpt lat="48.05474" lon="6.84322">
        <ele>840</ele>
        <time>2020-10-28T09:56:18.367Z</time>
      </trkpt>
      <trkpt lat="48.05472" lon="6.84321">
        <ele>840</ele>
        <time>2020-10-28T09:56:19.368Z</time>
      </trkpt>
      <trkpt lat="48.05471" lon="6.8432">
        <ele>840</ele>
        <time>2020-10-28T09:56:20.367Z</time>
      </trkpt>
      <trkpt lat="48.0547" lon="6.84318">
        <ele>840</ele>
        <time>2020-10-28T09:56:21.367Z</time>
      </trkpt>
      <trkpt lat="48.05469" lon="6.84317">
        <ele>840</ele>
        <time>2020-10-28T09:56:22.368Z</time>
      </trkpt>
      <trkpt lat="48.05468" lon="6.84315">
        <ele>840</ele>
        <time>2020-10-28T09:56:23.368Z</time>
      </trkpt>
      <trkpt lat="48.05467" lon="6.84314">
        <ele>840</ele>
        <time>2020-10-28T09:56:24.368Z</time>
      </trkpt>
      <trkpt lat="48.05466" lon="6.84312">
        <ele>840</ele>
        <time>2020-10-28T09:56:25.368Z</time>
      </trkpt>
      <trkpt lat="48.05465" lon="6.84311">
        <ele>839</ele>
        <time>2020-10-28T09:56:26.368Z</time>
      </trkpt>
      <trkpt lat="48.05464" lon="6.84309">
        <ele>839</ele>
        <time>2020-10-28T09:56:27.368Z</time>
      </trkpt>
      <trkpt lat="48.05464" lon="6.84308">
        <ele>838</ele>
        <time>2020-10-28T09:56:28.367Z</time>
      </trkpt>
      <trkpt lat="48.05463" lon="6.84306">
        <ele>838</ele>
        <time>2020-10-28T09:56:29.368Z</time>
      </trkpt>
      <trkpt lat="48.05462" lon="6.84304">
        <ele>837</ele>
        <time>2020-10-28T09:56:30.367Z</time>
      </trkpt>
      <trkpt lat="48.05461" lon="6.84303">
        <ele>837</ele>
        <time>2020-10-28T09:56:31.368Z</time>
      </trkpt>
      <trkpt lat="48.0546" lon="6.84301">
        <ele>837</ele>
        <time>2020-10-28T09:56:32.367Z</time>
      </trkpt>
      <trkpt lat="48.05459" lon="6.84299">
        <ele>837</ele>
        <time>2020-10-28T09:56:33.368Z</time>
      </trkpt>
      <trkpt lat="48.05457" lon="6.84297">
        <ele>837</ele>
        <time>2020-10-28T09:56:34.368Z</time>
      </trkpt>
      <trkpt lat="48.05456" lon="6.84296">
        <ele>837</ele>
        <time>2020-10-28T09:56:35.368Z</time>
      </trkpt>
      <trkpt lat="48.05455" lon="6.84294">
        <ele>837</ele>
        <time>2020-10-28T09:56:36.368Z</time>
      </trkpt>
      <trkpt lat="48.05453" lon="6.84293">
        <ele>837</ele>
        <time>2020-10-28T09:56:37.368Z</time>
      </trkpt>
      <trkpt lat="48.05452" lon="6.84291">
        <ele>837</ele>
        <time>2020-10-28T09:56:38.368Z</time>
      </trkpt>
      <trkpt lat="48.05452" lon="6.84289">
        <ele>837</ele>
        <time>2020-10-28T09:56:39.367Z</time>
      </trkpt>
      <trkpt lat="48.0545" lon="6.84288">
        <ele>837</ele>
        <time>2020-10-28T09:56:40.367Z</time>
      </trkpt>
      <trkpt lat="48.05449" lon="6.84286">
        <ele>838</ele>
        <time>2020-10-28T09:56:41.368Z</time>
      </trkpt>
      <trkpt lat="48.05448" lon="6.84285">
        <ele>838</ele>
        <time>2020-10-28T09:56:42.367Z</time>
      </trkpt>
      <trkpt lat="48.05447" lon="6.84283">
        <ele>838</ele>
        <time>2020-10-28T09:56:43.368Z</time>
      </trkpt>
      <trkpt lat="48.05446" lon="6.84281">
        <ele>838</ele>
        <time>2020-10-28T09:56:44.367Z</time>
      </trkpt>
      <trkpt lat="48.05446" lon="6.84279">
        <ele>838</ele>
        <time>2020-10-28T09:56:45.368Z</time>
      </trkpt>
      <trkpt lat="48.05445" lon="6.84277">
        <ele>837</ele>
        <time>2020-10-28T09:56:46.368Z</time>
      </trkpt>
      <trkpt lat="48.05444" lon="6.84276">
        <ele>837</ele>
        <time>2020-10-28T09:56:47.367Z</time>
      </trkpt>
      <trkpt lat="48.05443" lon="6.84275">
        <ele>837</ele>
        <time>2020-10-28T09:56:48.367Z</time>
      </trkpt>
      <trkpt lat="48.05443" lon="6.84274">
        <ele>838</ele>
        <time>2020-10-28T09:56:49.368Z</time>
      </trkpt>
      <trkpt lat="48.05443" lon="6.84273">
        <ele>838</ele>
        <time>2020-10-28T09:56:50.368Z</time>
      </trkpt>
      <trkpt lat="48.05443" lon="6.84273">
        <ele>838</ele>
        <time>2020-10-28T09:56:51.367Z</time>
      </trkpt>
      <trkpt lat="48.05443" lon="6.84273">
        <ele>839</ele>
        <time>2020-10-28T09:56:52.368Z</time>
      </trkpt>
      <trkpt lat="48.05444" lon="6.84274">
        <ele>840</ele>
        <time>2020-10-28T09:56:53.368Z</time>
      </trkpt>
      <trkpt lat="48.0544" lon="6.84272">
        <ele>836</ele>
        <time>2020-10-28T09:56:54.367Z</time>
      </trkpt>
      <trkpt lat="48.05438" lon="6.84269">
        <ele>836</ele>
        <time>2020-10-28T09:56:55.368Z</time>
      </trkpt>
      <trkpt lat="48.05436" lon="6.84266">
        <ele>836</ele>
        <time>2020-10-28T09:56:56.368Z</time>
      </trkpt>
      <trkpt lat="48.05435" lon="6.84263">
        <ele>836</ele>
        <time>2020-10-28T09:56:57.367Z</time>
      </trkpt>
      <trkpt lat="48.05433" lon="6.8426">
        <ele>836</ele>
        <time>2020-10-28T09:56:58.368Z</time>
      </trkpt>
      <trkpt lat="48.05431" lon="6.84258">
        <ele>836</ele>
        <time>2020-10-28T09:56:59.368Z</time>
      </trkpt>
      <trkpt lat="48.0543" lon="6.84256">
        <ele>836</ele>
        <time>2020-10-28T09:57:00.368Z</time>
      </trkpt>
      <trkpt lat="48.05427" lon="6.84255">
        <ele>836</ele>
        <time>2020-10-28T09:57:01.368Z</time>
      </trkpt>
      <trkpt lat="48.05426" lon="6.84253">
        <ele>837</ele>
        <time>2020-10-28T09:57:02.368Z</time>
      </trkpt>
      <trkpt lat="48.05424" lon="6.84252">
        <ele>837</ele>
        <time>2020-10-28T09:57:03.368Z</time>
      </trkpt>
      <trkpt lat="48.05423" lon="6.84251">
        <ele>837</ele>
        <time>2020-10-28T09:57:04.367Z</time>
      </trkpt>
      <trkpt lat="48.05421" lon="6.84249">
        <ele>837</ele>
        <time>2020-10-28T09:57:05.368Z</time>
      </trkpt>
      <trkpt lat="48.0542" lon="6.84247">
        <ele>837</ele>
        <time>2020-10-28T09:57:06.368Z</time>
      </trkpt>
      <trkpt lat="48.05419" lon="6.84245">
        <ele>836</ele>
        <time>2020-10-28T09:57:07.367Z</time>
      </trkpt>
      <trkpt lat="48.05418" lon="6.84243">
        <ele>836</ele>
        <time>2020-10-28T09:57:08.368Z</time>
      </trkpt>
      <trkpt lat="48.05417" lon="6.8424">
        <ele>836</ele>
        <time>2020-10-28T09:57:09.368Z</time>
      </trkpt>
      <trkpt lat="48.05416" lon="6.84239">
        <ele>836</ele>
        <time>2020-10-28T09:57:10.368Z</time>
      </trkpt>
      <trkpt lat="48.05416" lon="6.84237">
        <ele>836</ele>
        <time>2020-10-28T09:57:11.368Z</time>
      </trkpt>
      <trkpt lat="48.05415" lon="6.84234">
        <ele>835</ele>
        <time>2020-10-28T09:57:12.368Z</time>
      </trkpt>
      <trkpt lat="48.05415" lon="6.84232">
        <ele>834</ele>
        <time>2020-10-28T09:57:13.367Z</time>
      </trkpt>
      <trkpt lat="48.05415" lon="6.84229">
        <ele>834</ele>
        <time>2020-10-28T09:57:14.367Z</time>
      </trkpt>
      <trkpt lat="48.05414" lon="6.84227">
        <ele>833</ele>
        <time>2020-10-28T09:57:15.367Z</time>
      </trkpt>
      <trkpt lat="48.05413" lon="6.84225">
        <ele>833</ele>
        <time>2020-10-28T09:57:16.368Z</time>
      </trkpt>
      <trkpt lat="48.05413" lon="6.84223">
        <ele>833</ele>
        <time>2020-10-28T09:57:17.368Z</time>
      </trkpt>
      <trkpt lat="48.05412" lon="6.84221">
        <ele>833</ele>
        <time>2020-10-28T09:57:18.368Z</time>
      </trkpt>
      <trkpt lat="48.05411" lon="6.84219">
        <ele>832</ele>
        <time>2020-10-28T09:57:19.368Z</time>
      </trkpt>
      <trkpt lat="48.0541" lon="6.84217">
        <ele>832</ele>
        <time>2020-10-28T09:57:20.368Z</time>
      </trkpt>
      <trkpt lat="48.0541" lon="6.84215">
        <ele>832</ele>
        <time>2020-10-28T09:57:21.367Z</time>
      </trkpt>
      <trkpt lat="48.05409" lon="6.84213">
        <ele>832</ele>
        <time>2020-10-28T09:57:22.368Z</time>
      </trkpt>
      <trkpt lat="48.05408" lon="6.84211">
        <ele>831</ele>
        <time>2020-10-28T09:57:23.367Z</time>
      </trkpt>
      <trkpt lat="48.05408" lon="6.84209">
        <ele>831</ele>
        <time>2020-10-28T09:57:24.367Z</time>
      </trkpt>
      <trkpt lat="48.05407" lon="6.84207">
        <ele>830</ele>
        <time>2020-10-28T09:57:25.367Z</time>
      </trkpt>
      <trkpt lat="48.05406" lon="6.84205">
        <ele>830</ele>
        <time>2020-10-28T09:57:26.367Z</time>
      </trkpt>
      <trkpt lat="48.05405" lon="6.84203">
        <ele>830</ele>
        <time>2020-10-28T09:57:27.368Z</time>
      </trkpt>
      <trkpt lat="48.05404" lon="6.84201">
        <ele>830</ele>
        <time>2020-10-28T09:57:28.367Z</time>
      </trkpt>
      <trkpt lat="48.05404" lon="6.84199">
        <ele>830</ele>
        <time>2020-10-28T09:57:29.367Z</time>
      </trkpt>
      <trkpt lat="48.05403" lon="6.84197">
        <ele>829</ele>
        <time>2020-10-28T09:57:30.367Z</time>
      </trkpt>
      <trkpt lat="48.05402" lon="6.84195">
        <ele>829</ele>
        <time>2020-10-28T09:57:31.367Z</time>
      </trkpt>
      <trkpt lat="48.05401" lon="6.84192">
        <ele>829</ele>
        <time>2020-10-28T09:57:32.368Z</time>
      </trkpt>
      <trkpt lat="48.05401" lon="6.8419">
        <ele>829</ele>
        <time>2020-10-28T09:57:33.367Z</time>
      </trkpt>
      <trkpt lat="48.054" lon="6.84188">
        <ele>829</ele>
        <time>2020-10-28T09:57:34.367Z</time>
      </trkpt>
      <trkpt lat="48.05399" lon="6.84186">
        <ele>830</ele>
        <time>2020-10-28T09:57:35.368Z</time>
      </trkpt>
      <trkpt lat="48.05398" lon="6.84184">
        <ele>829</ele>
        <time>2020-10-28T09:57:36.368Z</time>
      </trkpt>
      <trkpt lat="48.05397" lon="6.84182">
        <ele>829</ele>
        <time>2020-10-28T09:57:37.368Z</time>
      </trkpt>
      <trkpt lat="48.05397" lon="6.8418">
        <ele>829</ele>
        <time>2020-10-28T09:57:38.368Z</time>
      </trkpt>
      <trkpt lat="48.05396" lon="6.84177">
        <ele>829</ele>
        <time>2020-10-28T09:57:39.368Z</time>
      </trkpt>
      <trkpt lat="48.05396" lon="6.84175">
        <ele>829</ele>
        <time>2020-10-28T09:57:40.368Z</time>
      </trkpt>
      <trkpt lat="48.05395" lon="6.84173">
        <ele>829</ele>
        <time>2020-10-28T09:57:41.368Z</time>
      </trkpt>
      <trkpt lat="48.05394" lon="6.84171">
        <ele>829</ele>
        <time>2020-10-28T09:57:42.368Z</time>
      </trkpt>
      <trkpt lat="48.05394" lon="6.84169">
        <ele>828</ele>
        <time>2020-10-28T09:57:43.368Z</time>
      </trkpt>
      <trkpt lat="48.05392" lon="6.84167">
        <ele>828</ele>
        <time>2020-10-28T09:57:44.368Z</time>
      </trkpt>
      <trkpt lat="48.05392" lon="6.84165">
        <ele>828</ele>
        <time>2020-10-28T09:57:45.368Z</time>
      </trkpt>
      <trkpt lat="48.05391" lon="6.84163">
        <ele>828</ele>
        <time>2020-10-28T09:57:46.368Z</time>
      </trkpt>
      <trkpt lat="48.0539" lon="6.84161">
        <ele>829</ele>
        <time>2020-10-28T09:57:47.368Z</time>
      </trkpt>
      <trkpt lat="48.05388" lon="6.84159">
        <ele>829</ele>
        <time>2020-10-28T09:57:48.368Z</time>
      </trkpt>
      <trkpt lat="48.05388" lon="6.84158">
        <ele>829</ele>
        <time>2020-10-28T09:57:49.367Z</time>
      </trkpt>
      <trkpt lat="48.05387" lon="6.84156">
        <ele>830</ele>
        <time>2020-10-28T09:57:50.367Z</time>
      </trkpt>
      <trkpt lat="48.05386" lon="6.84154">
        <ele>830</ele>
        <time>2020-10-28T09:57:51.367Z</time>
      </trkpt>
      <trkpt lat="48.05385" lon="6.84152">
        <ele>830</ele>
        <time>2020-10-28T09:57:52.368Z</time>
      </trkpt>
      <trkpt lat="48.05384" lon="6.84151">
        <ele>831</ele>
        <time>2020-10-28T09:57:53.368Z</time>
      </trkpt>
      <trkpt lat="48.05383" lon="6.84149">
        <ele>831</ele>
        <time>2020-10-28T09:57:54.368Z</time>
      </trkpt>
      <trkpt lat="48.05382" lon="6.84147">
        <ele>831</ele>
        <time>2020-10-28T09:57:55.367Z</time>
      </trkpt>
      <trkpt lat="48.05381" lon="6.84146">
        <ele>831</ele>
        <time>2020-10-28T09:58:29.395Z</time>
      </trkpt>
      <trkpt lat="48.05381" lon="6.84144">
        <ele>831</ele>
        <time>2020-10-28T09:58:30.395Z</time>
      </trkpt>
      <trkpt lat="48.0538" lon="6.84142">
        <ele>830</ele>
        <time>2020-10-28T09:58:31.394Z</time>
      </trkpt>
      <trkpt lat="48.05379" lon="6.84141">
        <ele>830</ele>
        <time>2020-10-28T09:58:32.395Z</time>
      </trkpt>
      <trkpt lat="48.05378" lon="6.8414">
        <ele>830</ele>
        <time>2020-10-28T09:58:33.395Z</time>
      </trkpt>
      <trkpt lat="48.05377" lon="6.84138">
        <ele>830</ele>
        <time>2020-10-28T09:58:34.395Z</time>
      </trkpt>
      <trkpt lat="48.05377" lon="6.84137">
        <ele>830</ele>
        <time>2020-10-28T09:58:35.395Z</time>
      </trkpt>
      <trkpt lat="48.05376" lon="6.84136">
        <ele>830</ele>
        <time>2020-10-28T09:58:36.395Z</time>
      </trkpt>
      <trkpt lat="48.05376" lon="6.84135">
        <ele>831</ele>
        <time>2020-10-28T09:58:37.395Z</time>
      </trkpt>
      <trkpt lat="48.05375" lon="6.84134">
        <ele>831</ele>
        <time>2020-10-28T09:58:38.395Z</time>
      </trkpt>
      <trkpt lat="48.05374" lon="6.84133">
        <ele>832</ele>
        <time>2020-10-28T09:58:39.395Z</time>
      </trkpt>
      <trkpt lat="48.05374" lon="6.84132">
        <ele>832</ele>
        <time>2020-10-28T09:58:40.395Z</time>
      </trkpt>
      <trkpt lat="48.05373" lon="6.84132">
        <ele>833</ele>
        <time>2020-10-28T09:58:41.395Z</time>
      </trkpt>
      <trkpt lat="48.05372" lon="6.84131">
        <ele>834</ele>
        <time>2020-10-28T09:58:42.394Z</time>
      </trkpt>
      <trkpt lat="48.05372" lon="6.84131">
        <ele>835</ele>
        <time>2020-10-28T09:58:43.394Z</time>
      </trkpt>
      <trkpt lat="48.05371" lon="6.84131">
        <ele>836</ele>
        <time>2020-10-28T09:58:44.395Z</time>
      </trkpt>
      <trkpt lat="48.0537" lon="6.84131">
        <ele>836</ele>
        <time>2020-10-28T09:58:45.395Z</time>
      </trkpt>
      <trkpt lat="48.05369" lon="6.84131">
        <ele>836</ele>
        <time>2020-10-28T09:58:46.395Z</time>
      </trkpt>
      <trkpt lat="48.05369" lon="6.84132">
        <ele>836</ele>
        <time>2020-10-28T09:58:47.395Z</time>
      </trkpt>
      <trkpt lat="48.05365" lon="6.84134">
        <ele>839</ele>
        <time>2020-10-28T09:58:48.395Z</time>
      </trkpt>
      <trkpt lat="48.05364" lon="6.84133">
        <ele>840</ele>
        <time>2020-10-28T09:58:49.395Z</time>
      </trkpt>
      <trkpt lat="48.05364" lon="6.84131">
        <ele>839</ele>
        <time>2020-10-28T09:58:50.394Z</time>
      </trkpt>
      <trkpt lat="48.05364" lon="6.84129">
        <ele>838</ele>
        <time>2020-10-28T09:58:51.395Z</time>
      </trkpt>
      <trkpt lat="48.05363" lon="6.84127">
        <ele>837</ele>
        <time>2020-10-28T09:58:52.395Z</time>
      </trkpt>
      <trkpt lat="48.05362" lon="6.84125">
        <ele>836</ele>
        <time>2020-10-28T09:58:53.394Z</time>
      </trkpt>
      <trkpt lat="48.05362" lon="6.84123">
        <ele>835</ele>
        <time>2020-10-28T09:58:54.395Z</time>
      </trkpt>
      <trkpt lat="48.05361" lon="6.84121">
        <ele>835</ele>
        <time>2020-10-28T09:58:55.395Z</time>
      </trkpt>
      <trkpt lat="48.0536" lon="6.84119">
        <ele>834</ele>
        <time>2020-10-28T09:58:56.395Z</time>
      </trkpt>
      <trkpt lat="48.0536" lon="6.84117">
        <ele>833</ele>
        <time>2020-10-28T09:58:57.394Z</time>
      </trkpt>
      <trkpt lat="48.05359" lon="6.84115">
        <ele>833</ele>
        <time>2020-10-28T09:58:58.395Z</time>
      </trkpt>
      <trkpt lat="48.05359" lon="6.84113">
        <ele>832</ele>
        <time>2020-10-28T09:58:59.395Z</time>
      </trkpt>
      <trkpt lat="48.05358" lon="6.84111">
        <ele>831</ele>
        <time>2020-10-28T09:59:00.395Z</time>
      </trkpt>
      <trkpt lat="48.05357" lon="6.8411">
        <ele>830</ele>
        <time>2020-10-28T09:59:01.394Z</time>
      </trkpt>
      <trkpt lat="48.05356" lon="6.84108">
        <ele>830</ele>
        <time>2020-10-28T09:59:02.395Z</time>
      </trkpt>
      <trkpt lat="48.05355" lon="6.84107">
        <ele>830</ele>
        <time>2020-10-28T09:59:03.395Z</time>
      </trkpt>
      <trkpt lat="48.05354" lon="6.84105">
        <ele>830</ele>
        <time>2020-10-28T09:59:04.395Z</time>
      </trkpt>
      <trkpt lat="48.05353" lon="6.84103">
        <ele>830</ele>
        <time>2020-10-28T09:59:05.394Z</time>
      </trkpt>
      <trkpt lat="48.05352" lon="6.84101">
        <ele>831</ele>
        <time>2020-10-28T09:59:06.394Z</time>
      </trkpt>
      <trkpt lat="48.05351" lon="6.841">
        <ele>831</ele>
        <time>2020-10-28T09:59:07.394Z</time>
      </trkpt>
      <trkpt lat="48.0535" lon="6.84098">
        <ele>831</ele>
        <time>2020-10-28T09:59:25.476Z</time>
      </trkpt>
      <trkpt lat="48.05349" lon="6.84097">
        <ele>831</ele>
        <time>2020-10-28T09:59:26.476Z</time>
      </trkpt>
      <trkpt lat="48.05348" lon="6.84095">
        <ele>832</ele>
        <time>2020-10-28T09:59:27.476Z</time>
      </trkpt>
      <trkpt lat="48.05346" lon="6.84094">
        <ele>832</ele>
        <time>2020-10-28T09:59:28.476Z</time>
      </trkpt>
      <trkpt lat="48.05345" lon="6.84093">
        <ele>832</ele>
        <time>2020-10-28T09:59:29.476Z</time>
      </trkpt>
      <trkpt lat="48.05344" lon="6.84092">
        <ele>832</ele>
        <time>2020-10-28T09:59:30.476Z</time>
      </trkpt>
      <trkpt lat="48.05343" lon="6.84091">
        <ele>831</ele>
        <time>2020-10-28T09:59:31.476Z</time>
      </trkpt>
      <trkpt lat="48.05342" lon="6.8409">
        <ele>830</ele>
        <time>2020-10-28T09:59:32.476Z</time>
      </trkpt>
      <trkpt lat="48.05341" lon="6.84089">
        <ele>829</ele>
        <time>2020-10-28T09:59:33.477Z</time>
      </trkpt>
      <trkpt lat="48.0534" lon="6.84088">
        <ele>829</ele>
        <time>2020-10-28T09:59:34.477Z</time>
      </trkpt>
      <trkpt lat="48.05339" lon="6.84087">
        <ele>829</ele>
        <time>2020-10-28T09:59:35.477Z</time>
      </trkpt>
      <trkpt lat="48.05337" lon="6.84087">
        <ele>829</ele>
        <time>2020-10-28T09:59:36.477Z</time>
      </trkpt>
      <trkpt lat="48.05336" lon="6.84086">
        <ele>829</ele>
        <time>2020-10-28T09:59:37.477Z</time>
      </trkpt>
      <trkpt lat="48.05334" lon="6.84086">
        <ele>830</ele>
        <time>2020-10-28T09:59:38.477Z</time>
      </trkpt>
      <trkpt lat="48.05333" lon="6.84085">
        <ele>830</ele>
        <time>2020-10-28T09:59:39.477Z</time>
      </trkpt>
      <trkpt lat="48.05332" lon="6.84085">
        <ele>831</ele>
        <time>2020-10-28T09:59:40.476Z</time>
      </trkpt>
      <trkpt lat="48.0533" lon="6.84085">
        <ele>831</ele>
        <time>2020-10-28T09:59:41.476Z</time>
      </trkpt>
      <trkpt lat="48.05328" lon="6.84085">
        <ele>832</ele>
        <time>2020-10-28T09:59:42.476Z</time>
      </trkpt>
      <trkpt lat="48.05327" lon="6.84084">
        <ele>832</ele>
        <time>2020-10-28T09:59:43.476Z</time>
      </trkpt>
      <trkpt lat="48.05325" lon="6.84084">
        <ele>832</ele>
        <time>2020-10-28T09:59:44.477Z</time>
      </trkpt>
      <trkpt lat="48.05324" lon="6.84083">
        <ele>832</ele>
        <time>2020-10-28T09:59:45.476Z</time>
      </trkpt>
      <trkpt lat="48.05322" lon="6.84083">
        <ele>833</ele>
        <time>2020-10-28T09:59:46.477Z</time>
      </trkpt>
      <trkpt lat="48.05321" lon="6.84083">
        <ele>834</ele>
        <time>2020-10-28T09:59:47.476Z</time>
      </trkpt>
      <trkpt lat="48.0532" lon="6.84083">
        <ele>835</ele>
        <time>2020-10-28T09:59:48.477Z</time>
      </trkpt>
      <trkpt lat="48.05318" lon="6.84082">
        <ele>835</ele>
        <time>2020-10-28T09:59:49.477Z</time>
      </trkpt>
      <trkpt lat="48.05317" lon="6.84082">
        <ele>835</ele>
        <time>2020-10-28T09:59:50.476Z</time>
      </trkpt>
      <trkpt lat="48.05316" lon="6.84082">
        <ele>835</ele>
        <time>2020-10-28T09:59:51.477Z</time>
      </trkpt>
      <trkpt lat="48.05314" lon="6.84082">
        <ele>836</ele>
        <time>2020-10-28T09:59:52.477Z</time>
      </trkpt>
      <trkpt lat="48.05313" lon="6.84082">
        <ele>836</ele>
        <time>2020-10-28T09:59:53.477Z</time>
      </trkpt>
      <trkpt lat="48.05311" lon="6.84081">
        <ele>836</ele>
        <time>2020-10-28T09:59:54.477Z</time>
      </trkpt>
      <trkpt lat="48.0531" lon="6.8408">
        <ele>837</ele>
        <time>2020-10-28T09:59:55.477Z</time>
      </trkpt>
      <trkpt lat="48.05308" lon="6.8408">
        <ele>837</ele>
        <time>2020-10-28T09:59:56.476Z</time>
      </trkpt>
      <trkpt lat="48.05307" lon="6.8408">
        <ele>837</ele>
        <time>2020-10-28T09:59:57.476Z</time>
      </trkpt>
      <trkpt lat="48.05306" lon="6.8408">
        <ele>837</ele>
        <time>2020-10-28T09:59:58.477Z</time>
      </trkpt>
      <trkpt lat="48.05305" lon="6.8408">
        <ele>837</ele>
        <time>2020-10-28T09:59:59.477Z</time>
      </trkpt>
      <trkpt lat="48.05303" lon="6.84081">
        <ele>837</ele>
        <time>2020-10-28T10:00:00.477Z</time>
      </trkpt>
      <trkpt lat="48.05302" lon="6.84081">
        <ele>837</ele>
        <time>2020-10-28T10:00:01.477Z</time>
      </trkpt>
      <trkpt lat="48.053" lon="6.84081">
        <ele>838</ele>
        <time>2020-10-28T10:00:02.476Z</time>
      </trkpt>
      <trkpt lat="48.05299" lon="6.84081">
        <ele>838</ele>
        <time>2020-10-28T10:00:03.476Z</time>
      </trkpt>
      <trkpt lat="48.05297" lon="6.84081">
        <ele>837</ele>
        <time>2020-10-28T10:00:04.476Z</time>
      </trkpt>
      <trkpt lat="48.05296" lon="6.84081">
        <ele>837</ele>
        <time>2020-10-28T10:00:05.477Z</time>
      </trkpt>
      <trkpt lat="48.05295" lon="6.84081">
        <ele>837</ele>
        <time>2020-10-28T10:00:06.477Z</time>
      </trkpt>
      <trkpt lat="48.05293" lon="6.84081">
        <ele>837</ele>
        <time>2020-10-28T10:00:07.476Z</time>
      </trkpt>
      <trkpt lat="48.05292" lon="6.84082">
        <ele>837</ele>
        <time>2020-10-28T10:00:08.477Z</time>
      </trkpt>
      <trkpt lat="48.0529" lon="6.84082">
        <ele>837</ele>
        <time>2020-10-28T10:00:09.477Z</time>
      </trkpt>
      <trkpt lat="48.05289" lon="6.84082">
        <ele>837</ele>
        <time>2020-10-28T10:00:10.477Z</time>
      </trkpt>
      <trkpt lat="48.05288" lon="6.84083">
        <ele>837</ele>
        <time>2020-10-28T10:00:11.476Z</time>
      </trkpt>
      <trkpt lat="48.05287" lon="6.84084">
        <ele>838</ele>
        <time>2020-10-28T10:00:12.477Z</time>
      </trkpt>
      <trkpt lat="48.05285" lon="6.84085">
        <ele>838</ele>
        <time>2020-10-28T10:00:13.477Z</time>
      </trkpt>
      <trkpt lat="48.05283" lon="6.84086">
        <ele>839</ele>
        <time>2020-10-28T10:00:14.477Z</time>
      </trkpt>
      <trkpt lat="48.05282" lon="6.84087">
        <ele>840</ele>
        <time>2020-10-28T10:00:15.476Z</time>
      </trkpt>
      <trkpt lat="48.0528" lon="6.84087">
        <ele>841</ele>
        <time>2020-10-28T10:00:16.477Z</time>
      </trkpt>
      <trkpt lat="48.05279" lon="6.84088">
        <ele>842</ele>
        <time>2020-10-28T10:00:17.477Z</time>
      </trkpt>
      <trkpt lat="48.05277" lon="6.84089">
        <ele>842</ele>
        <time>2020-10-28T10:00:18.477Z</time>
      </trkpt>
      <trkpt lat="48.05275" lon="6.8409">
        <ele>843</ele>
        <time>2020-10-28T10:00:19.477Z</time>
      </trkpt>
      <trkpt lat="48.05274" lon="6.84091">
        <ele>844</ele>
        <time>2020-10-28T10:00:20.477Z</time>
      </trkpt>
      <trkpt lat="48.05272" lon="6.84091">
        <ele>844</ele>
        <time>2020-10-28T10:00:21.477Z</time>
      </trkpt>
      <trkpt lat="48.05271" lon="6.84092">
        <ele>845</ele>
        <time>2020-10-28T10:00:22.476Z</time>
      </trkpt>
      <trkpt lat="48.0527" lon="6.84092">
        <ele>845</ele>
        <time>2020-10-28T10:00:23.477Z</time>
      </trkpt>
      <trkpt lat="48.05268" lon="6.84093">
        <ele>845</ele>
        <time>2020-10-28T10:00:24.477Z</time>
      </trkpt>
      <trkpt lat="48.05267" lon="6.84094">
        <ele>845</ele>
        <time>2020-10-28T10:00:25.477Z</time>
      </trkpt>
      <trkpt lat="48.05265" lon="6.84095">
        <ele>845</ele>
        <time>2020-10-28T10:00:26.476Z</time>
      </trkpt>
      <trkpt lat="48.05264" lon="6.84096">
        <ele>846</ele>
        <time>2020-10-28T10:00:27.476Z</time>
      </trkpt>
      <trkpt lat="48.05263" lon="6.84096">
        <ele>846</ele>
        <time>2020-10-28T10:00:28.477Z</time>
      </trkpt>
      <trkpt lat="48.05261" lon="6.84096">
        <ele>846</ele>
        <time>2020-10-28T10:00:29.477Z</time>
      </trkpt>
      <trkpt lat="48.0526" lon="6.84097">
        <ele>847</ele>
        <time>2020-10-28T10:00:30.476Z</time>
      </trkpt>
      <trkpt lat="48.05258" lon="6.84097">
        <ele>847</ele>
        <time>2020-10-28T10:00:31.477Z</time>
      </trkpt>
      <trkpt lat="48.05257" lon="6.84097">
        <ele>847</ele>
        <time>2020-10-28T10:00:32.476Z</time>
      </trkpt>
      <trkpt lat="48.05255" lon="6.84098">
        <ele>848</ele>
        <time>2020-10-28T10:00:33.477Z</time>
      </trkpt>
      <trkpt lat="48.05254" lon="6.84099">
        <ele>847</ele>
        <time>2020-10-28T10:00:34.476Z</time>
      </trkpt>
      <trkpt lat="48.05253" lon="6.84099">
        <ele>847</ele>
        <time>2020-10-28T10:00:35.476Z</time>
      </trkpt>
      <trkpt lat="48.05251" lon="6.841">
        <ele>847</ele>
        <time>2020-10-28T10:00:36.477Z</time>
      </trkpt>
      <trkpt lat="48.0525" lon="6.841">
        <ele>846</ele>
        <time>2020-10-28T10:00:37.476Z</time>
      </trkpt>
      <trkpt lat="48.05248" lon="6.841">
        <ele>846</ele>
        <time>2020-10-28T10:00:38.477Z</time>
      </trkpt>
      <trkpt lat="48.05247" lon="6.84099">
        <ele>846</ele>
        <time>2020-10-28T10:00:39.476Z</time>
      </trkpt>
      <trkpt lat="48.05246" lon="6.84099">
        <ele>845</ele>
        <time>2020-10-28T10:00:40.477Z</time>
      </trkpt>
      <trkpt lat="48.05244" lon="6.84098">
        <ele>845</ele>
        <time>2020-10-28T10:00:41.476Z</time>
      </trkpt>
      <trkpt lat="48.05243" lon="6.84098">
        <ele>845</ele>
        <time>2020-10-28T10:00:42.476Z</time>
      </trkpt>
      <trkpt lat="48.05242" lon="6.84098">
        <ele>844</ele>
        <time>2020-10-28T10:00:43.477Z</time>
      </trkpt>
      <trkpt lat="48.05241" lon="6.84098">
        <ele>844</ele>
        <time>2020-10-28T10:00:44.477Z</time>
      </trkpt>
      <trkpt lat="48.0524" lon="6.84098">
        <ele>844</ele>
        <time>2020-10-28T10:00:45.477Z</time>
      </trkpt>
      <trkpt lat="48.05238" lon="6.84099">
        <ele>844</ele>
        <time>2020-10-28T10:00:46.477Z</time>
      </trkpt>
      <trkpt lat="48.05237" lon="6.84098">
        <ele>844</ele>
        <time>2020-10-28T10:00:47.477Z</time>
      </trkpt>
      <trkpt lat="48.05236" lon="6.84098">
        <ele>844</ele>
        <time>2020-10-28T10:00:48.477Z</time>
      </trkpt>
      <trkpt lat="48.05234" lon="6.84098">
        <ele>844</ele>
        <time>2020-10-28T10:00:49.476Z</time>
      </trkpt>
      <trkpt lat="48.05233" lon="6.84097">
        <ele>844</ele>
        <time>2020-10-28T10:00:50.476Z</time>
      </trkpt>
      <trkpt lat="48.05232" lon="6.84097">
        <ele>844</ele>
        <time>2020-10-28T10:00:51.477Z</time>
      </trkpt>
      <trkpt lat="48.0523" lon="6.84097">
        <ele>843</ele>
        <time>2020-10-28T10:00:52.477Z</time>
      </trkpt>
      <trkpt lat="48.05229" lon="6.84097">
        <ele>843</ele>
        <time>2020-10-28T10:00:53.477Z</time>
      </trkpt>
      <trkpt lat="48.05228" lon="6.84097">
        <ele>843</ele>
        <time>2020-10-28T10:00:54.477Z</time>
      </trkpt>
      <trkpt lat="48.05227" lon="6.84096">
        <ele>843</ele>
        <time>2020-10-28T10:00:55.477Z</time>
      </trkpt>
      <trkpt lat="48.05225" lon="6.84096">
        <ele>843</ele>
        <time>2020-10-28T10:00:56.477Z</time>
      </trkpt>
      <trkpt lat="48.05224" lon="6.84096">
        <ele>842</ele>
        <time>2020-10-28T10:00:57.477Z</time>
      </trkpt>
      <trkpt lat="48.05223" lon="6.84096">
        <ele>842</ele>
        <time>2020-10-28T10:00:58.476Z</time>
      </trkpt>
      <trkpt lat="48.05222" lon="6.84096">
        <ele>842</ele>
        <time>2020-10-28T10:00:59.476Z</time>
      </trkpt>
      <trkpt lat="48.05221" lon="6.84097">
        <ele>842</ele>
        <time>2020-10-28T10:01:00.477Z</time>
      </trkpt>
      <trkpt lat="48.05219" lon="6.84097">
        <ele>842</ele>
        <time>2020-10-28T10:01:01.477Z</time>
      </trkpt>
      <trkpt lat="48.05218" lon="6.84097">
        <ele>843</ele>
        <time>2020-10-28T10:01:02.477Z</time>
      </trkpt>
      <trkpt lat="48.05217" lon="6.84097">
        <ele>843</ele>
        <time>2020-10-28T10:01:03.477Z</time>
      </trkpt>
      <trkpt lat="48.05216" lon="6.84097">
        <ele>843</ele>
        <time>2020-10-28T10:01:04.477Z</time>
      </trkpt>
      <trkpt lat="48.05214" lon="6.84097">
        <ele>843</ele>
        <time>2020-10-28T10:01:05.477Z</time>
      </trkpt>
      <trkpt lat="48.05213" lon="6.84096">
        <ele>843</ele>
        <time>2020-10-28T10:01:06.477Z</time>
      </trkpt>
      <trkpt lat="48.05213" lon="6.84095">
        <ele>843</ele>
        <time>2020-10-28T10:01:07.477Z</time>
      </trkpt>
      <trkpt lat="48.05212" lon="6.84095">
        <ele>843</ele>
        <time>2020-10-28T10:01:08.477Z</time>
      </trkpt>
      <trkpt lat="48.05211" lon="6.84095">
        <ele>843</ele>
        <time>2020-10-28T10:01:09.477Z</time>
      </trkpt>
      <trkpt lat="48.05209" lon="6.84095">
        <ele>843</ele>
        <time>2020-10-28T10:01:10.477Z</time>
      </trkpt>
      <trkpt lat="48.05208" lon="6.84095">
        <ele>843</ele>
        <time>2020-10-28T10:01:11.476Z</time>
      </trkpt>
      <trkpt lat="48.05206" lon="6.84095">
        <ele>844</ele>
        <time>2020-10-28T10:01:12.476Z</time>
      </trkpt>
      <trkpt lat="48.05204" lon="6.84096">
        <ele>844</ele>
        <time>2020-10-28T10:01:13.477Z</time>
      </trkpt>
      <trkpt lat="48.05203" lon="6.84097">
        <ele>844</ele>
        <time>2020-10-28T10:01:14.477Z</time>
      </trkpt>
      <trkpt lat="48.05201" lon="6.84097">
        <ele>844</ele>
        <time>2020-10-28T10:01:15.477Z</time>
      </trkpt>
      <trkpt lat="48.052" lon="6.84098">
        <ele>844</ele>
        <time>2020-10-28T10:01:16.476Z</time>
      </trkpt>
      <trkpt lat="48.05199" lon="6.84098">
        <ele>844</ele>
        <time>2020-10-28T10:01:17.476Z</time>
      </trkpt>
      <trkpt lat="48.05198" lon="6.84098">
        <ele>844</ele>
        <time>2020-10-28T10:01:18.477Z</time>
      </trkpt>
      <trkpt lat="48.05196" lon="6.84098">
        <ele>843</ele>
        <time>2020-10-28T10:01:19.476Z</time>
      </trkpt>
      <trkpt lat="48.05195" lon="6.84098">
        <ele>843</ele>
        <time>2020-10-28T10:01:20.476Z</time>
      </trkpt>
      <trkpt lat="48.05194" lon="6.84098">
        <ele>842</ele>
        <time>2020-10-28T10:01:21.477Z</time>
      </trkpt>
      <trkpt lat="48.05193" lon="6.84098">
        <ele>842</ele>
        <time>2020-10-28T10:01:22.476Z</time>
      </trkpt>
      <trkpt lat="48.05192" lon="6.84098">
        <ele>842</ele>
        <time>2020-10-28T10:01:23.476Z</time>
      </trkpt>
      <trkpt lat="48.05191" lon="6.84098">
        <ele>842</ele>
        <time>2020-10-28T10:01:24.477Z</time>
      </trkpt>
      <trkpt lat="48.0519" lon="6.84098">
        <ele>842</ele>
        <time>2020-10-28T10:01:25.476Z</time>
      </trkpt>
      <trkpt lat="48.05188" lon="6.84097">
        <ele>843</ele>
        <time>2020-10-28T10:01:26.477Z</time>
      </trkpt>
      <trkpt lat="48.05186" lon="6.84097">
        <ele>843</ele>
        <time>2020-10-28T10:01:27.476Z</time>
      </trkpt>
      <trkpt lat="48.05184" lon="6.84097">
        <ele>844</ele>
        <time>2020-10-28T10:01:28.476Z</time>
      </trkpt>
      <trkpt lat="48.05183" lon="6.84097">
        <ele>844</ele>
        <time>2020-10-28T10:01:29.477Z</time>
      </trkpt>
      <trkpt lat="48.05182" lon="6.84097">
        <ele>845</ele>
        <time>2020-10-28T10:01:30.476Z</time>
      </trkpt>
      <trkpt lat="48.05181" lon="6.84097">
        <ele>845</ele>
        <time>2020-10-28T10:01:31.476Z</time>
      </trkpt>
      <trkpt lat="48.0518" lon="6.84097">
        <ele>845</ele>
        <time>2020-10-28T10:01:32.477Z</time>
      </trkpt>
      <trkpt lat="48.05179" lon="6.84097">
        <ele>845</ele>
        <time>2020-10-28T10:01:33.476Z</time>
      </trkpt>
      <trkpt lat="48.05177" lon="6.84097">
        <ele>845</ele>
        <time>2020-10-28T10:01:34.477Z</time>
      </trkpt>
      <trkpt lat="48.05176" lon="6.84097">
        <ele>846</ele>
        <time>2020-10-28T10:01:35.477Z</time>
      </trkpt>
      <trkpt lat="48.05175" lon="6.84096">
        <ele>846</ele>
        <time>2020-10-28T10:01:36.477Z</time>
      </trkpt>
      <trkpt lat="48.05174" lon="6.84096">
        <ele>847</ele>
        <time>2020-10-28T10:01:37.477Z</time>
      </trkpt>
      <trkpt lat="48.05172" lon="6.84096">
        <ele>847</ele>
        <time>2020-10-28T10:01:38.477Z</time>
      </trkpt>
      <trkpt lat="48.05171" lon="6.84096">
        <ele>848</ele>
        <time>2020-10-28T10:01:39.477Z</time>
      </trkpt>
      <trkpt lat="48.0517" lon="6.84096">
        <ele>847</ele>
        <time>2020-10-28T10:01:40.477Z</time>
      </trkpt>
      <trkpt lat="48.05169" lon="6.84095">
        <ele>847</ele>
        <time>2020-10-28T10:01:41.477Z</time>
      </trkpt>
      <trkpt lat="48.05167" lon="6.84095">
        <ele>847</ele>
        <time>2020-10-28T10:01:42.477Z</time>
      </trkpt>
      <trkpt lat="48.05166" lon="6.84095">
        <ele>846</ele>
        <time>2020-10-28T10:01:43.477Z</time>
      </trkpt>
      <trkpt lat="48.05165" lon="6.84094">
        <ele>846</ele>
        <time>2020-10-28T10:01:44.477Z</time>
      </trkpt>
      <trkpt lat="48.05164" lon="6.84094">
        <ele>846</ele>
        <time>2020-10-28T10:01:45.477Z</time>
      </trkpt>
      <trkpt lat="48.05162" lon="6.84094">
        <ele>846</ele>
        <time>2020-10-28T10:01:46.476Z</time>
      </trkpt>
      <trkpt lat="48.05161" lon="6.84093">
        <ele>846</ele>
        <time>2020-10-28T10:01:47.477Z</time>
      </trkpt>
      <trkpt lat="48.05159" lon="6.84092">
        <ele>846</ele>
        <time>2020-10-28T10:01:48.477Z</time>
      </trkpt>
      <trkpt lat="48.05158" lon="6.84092">
        <ele>846</ele>
        <time>2020-10-28T10:01:49.477Z</time>
      </trkpt>
      <trkpt lat="48.05157" lon="6.84092">
        <ele>846</ele>
        <time>2020-10-28T10:01:50.476Z</time>
      </trkpt>
      <trkpt lat="48.05156" lon="6.84092">
        <ele>847</ele>
        <time>2020-10-28T10:01:51.476Z</time>
      </trkpt>
      <trkpt lat="48.05155" lon="6.84091">
        <ele>847</ele>
        <time>2020-10-28T10:01:52.477Z</time>
      </trkpt>
      <trkpt lat="48.05153" lon="6.84091">
        <ele>848</ele>
        <time>2020-10-28T10:01:53.477Z</time>
      </trkpt>
      <trkpt lat="48.05152" lon="6.8409">
        <ele>848</ele>
        <time>2020-10-28T10:01:54.477Z</time>
      </trkpt>
      <trkpt lat="48.05151" lon="6.84089">
        <ele>849</ele>
        <time>2020-10-28T10:01:55.477Z</time>
      </trkpt>
      <trkpt lat="48.05149" lon="6.84089">
        <ele>850</ele>
        <time>2020-10-28T10:01:56.477Z</time>
      </trkpt>
      <trkpt lat="48.05148" lon="6.84088">
        <ele>850</ele>
        <time>2020-10-28T10:01:57.477Z</time>
      </trkpt>
      <trkpt lat="48.05147" lon="6.84088">
        <ele>851</ele>
        <time>2020-10-28T10:01:58.477Z</time>
      </trkpt>
      <trkpt lat="48.05145" lon="6.84087">
        <ele>851</ele>
        <time>2020-10-28T10:02:02.491Z</time>
      </trkpt>
      <trkpt lat="48.05144" lon="6.84087">
        <ele>851</ele>
        <time>2020-10-28T10:02:03.491Z</time>
      </trkpt>
      <trkpt lat="48.05142" lon="6.84087">
        <ele>851</ele>
        <time>2020-10-28T10:02:04.491Z</time>
      </trkpt>
      <trkpt lat="48.05141" lon="6.84087">
        <ele>852</ele>
        <time>2020-10-28T10:02:05.490Z</time>
      </trkpt>
      <trkpt lat="48.0514" lon="6.84087">
        <ele>852</ele>
        <time>2020-10-28T10:02:11.534Z</time>
      </trkpt>
      <trkpt lat="48.05139" lon="6.84087">
        <ele>853</ele>
        <time>2020-10-28T10:02:12.535Z</time>
      </trkpt>
      <trkpt lat="48.05137" lon="6.84086">
        <ele>854</ele>
        <time>2020-10-28T10:02:15.364Z</time>
      </trkpt>
      <trkpt lat="48.05136" lon="6.84087">
        <ele>855</ele>
        <time>2020-10-28T10:02:16.363Z</time>
      </trkpt>
      <trkpt lat="48.05135" lon="6.84088">
        <ele>855</ele>
        <time>2020-10-28T10:02:17.363Z</time>
      </trkpt>
      <trkpt lat="48.05134" lon="6.84088">
        <ele>856</ele>
        <time>2020-10-28T10:02:18.363Z</time>
      </trkpt>
      <trkpt lat="48.05133" lon="6.84088">
        <ele>857</ele>
        <time>2020-10-28T10:02:19.364Z</time>
      </trkpt>
      <trkpt lat="48.05131" lon="6.84088">
        <ele>857</ele>
        <time>2020-10-28T10:02:20.364Z</time>
      </trkpt>
      <trkpt lat="48.0513" lon="6.84087">
        <ele>858</ele>
        <time>2020-10-28T10:02:21.364Z</time>
      </trkpt>
      <trkpt lat="48.05128" lon="6.84086">
        <ele>859</ele>
        <time>2020-10-28T10:02:22.364Z</time>
      </trkpt>
      <trkpt lat="48.05127" lon="6.84085">
        <ele>859</ele>
        <time>2020-10-28T10:02:23.364Z</time>
      </trkpt>
      <trkpt lat="48.05126" lon="6.84085">
        <ele>860</ele>
        <time>2020-10-28T10:02:24.364Z</time>
      </trkpt>
      <trkpt lat="48.05124" lon="6.84084">
        <ele>860</ele>
        <time>2020-10-28T10:02:25.363Z</time>
      </trkpt>
      <trkpt lat="48.05123" lon="6.84084">
        <ele>860</ele>
        <time>2020-10-28T10:02:26.364Z</time>
      </trkpt>
      <trkpt lat="48.05122" lon="6.84085">
        <ele>860</ele>
        <time>2020-10-28T10:03:20.501Z</time>
      </trkpt>
      <trkpt lat="48.05121" lon="6.84084">
        <ele>861</ele>
        <time>2020-10-28T10:03:21.501Z</time>
      </trkpt>
      <trkpt lat="48.0512" lon="6.84084">
        <ele>861</ele>
        <time>2020-10-28T10:03:24.363Z</time>
      </trkpt>
      <trkpt lat="48.05118" lon="6.84084">
        <ele>861</ele>
        <time>2020-10-28T10:03:25.363Z</time>
      </trkpt>
      <trkpt lat="48.05117" lon="6.84083">
        <ele>861</ele>
        <time>2020-10-28T10:03:26.363Z</time>
      </trkpt>
      <trkpt lat="48.05117" lon="6.84083">
        <ele>861</ele>
        <time>2020-10-28T10:03:27.363Z</time>
      </trkpt>
      <trkpt lat="48.05115" lon="6.84082">
        <ele>861</ele>
        <time>2020-10-28T10:03:28.363Z</time>
      </trkpt>
      <trkpt lat="48.05115" lon="6.84081">
        <ele>861</ele>
        <time>2020-10-28T10:03:29.362Z</time>
      </trkpt>
      <trkpt lat="48.05114" lon="6.8408">
        <ele>860</ele>
        <time>2020-10-28T10:03:30.363Z</time>
      </trkpt>
      <trkpt lat="48.05114" lon="6.8408">
        <ele>859</ele>
        <time>2020-10-28T10:03:31.363Z</time>
      </trkpt>
      <trkpt lat="48.05113" lon="6.84079">
        <ele>859</ele>
        <time>2020-10-28T10:03:32.363Z</time>
      </trkpt>
      <trkpt lat="48.05112" lon="6.84078">
        <ele>858</ele>
        <time>2020-10-28T10:03:33.363Z</time>
      </trkpt>
      <trkpt lat="48.05111" lon="6.84078">
        <ele>858</ele>
        <time>2020-10-28T10:03:34.362Z</time>
      </trkpt>
      <trkpt lat="48.0511" lon="6.84078">
        <ele>858</ele>
        <time>2020-10-28T10:03:35.363Z</time>
      </trkpt>
      <trkpt lat="48.05108" lon="6.84078">
        <ele>857</ele>
        <time>2020-10-28T10:03:36.363Z</time>
      </trkpt>
      <trkpt lat="48.05107" lon="6.84077">
        <ele>857</ele>
        <time>2020-10-28T10:03:41.363Z</time>
      </trkpt>
      <trkpt lat="48.05106" lon="6.84077">
        <ele>857</ele>
        <time>2020-10-28T10:03:42.363Z</time>
      </trkpt>
      <trkpt lat="48.05105" lon="6.84077">
        <ele>857</ele>
        <time>2020-10-28T10:03:43.364Z</time>
      </trkpt>
      <trkpt lat="48.05104" lon="6.84076">
        <ele>857</ele>
        <time>2020-10-28T10:03:44.364Z</time>
      </trkpt>
      <trkpt lat="48.05103" lon="6.84076">
        <ele>858</ele>
        <time>2020-10-28T10:03:45.364Z</time>
      </trkpt>
      <trkpt lat="48.05102" lon="6.84076">
        <ele>858</ele>
        <time>2020-10-28T10:03:46.364Z</time>
      </trkpt>
      <trkpt lat="48.05101" lon="6.84076">
        <ele>858</ele>
        <time>2020-10-28T10:03:47.364Z</time>
      </trkpt>
      <trkpt lat="48.051" lon="6.84076">
        <ele>858</ele>
        <time>2020-10-28T10:03:48.364Z</time>
      </trkpt>
      <trkpt lat="48.05098" lon="6.84076">
        <ele>858</ele>
        <time>2020-10-28T10:03:49.363Z</time>
      </trkpt>
      <trkpt lat="48.05097" lon="6.84075">
        <ele>858</ele>
        <time>2020-10-28T10:03:53.480Z</time>
      </trkpt>
      <trkpt lat="48.05095" lon="6.84075">
        <ele>858</ele>
        <time>2020-10-28T10:03:54.481Z</time>
      </trkpt>
      <trkpt lat="48.05094" lon="6.84075">
        <ele>858</ele>
        <time>2020-10-28T10:03:55.480Z</time>
      </trkpt>
      <trkpt lat="48.05092" lon="6.84074">
        <ele>857</ele>
        <time>2020-10-28T10:03:56.481Z</time>
      </trkpt>
      <trkpt lat="48.05091" lon="6.84074">
        <ele>856</ele>
        <time>2020-10-28T10:03:57.480Z</time>
      </trkpt>
      <trkpt lat="48.0509" lon="6.84075">
        <ele>855</ele>
        <time>2020-10-28T10:03:58.481Z</time>
      </trkpt>
      <trkpt lat="48.05089" lon="6.84075">
        <ele>855</ele>
        <time>2020-10-28T10:03:59.481Z</time>
      </trkpt>
      <trkpt lat="48.05088" lon="6.84075">
        <ele>854</ele>
        <time>2020-10-28T10:04:22.634Z</time>
      </trkpt>
      <trkpt lat="48.05087" lon="6.84076">
        <ele>854</ele>
        <time>2020-10-28T10:04:23.635Z</time>
      </trkpt>
      <trkpt lat="48.05085" lon="6.84078">
        <ele>854</ele>
        <time>2020-10-28T10:04:24.635Z</time>
      </trkpt>
      <trkpt lat="48.05084" lon="6.84079">
        <ele>854</ele>
        <time>2020-10-28T10:04:25.634Z</time>
      </trkpt>
      <trkpt lat="48.05081" lon="6.8408">
        <ele>854</ele>
        <time>2020-10-28T10:04:26.634Z</time>
      </trkpt>
      <trkpt lat="48.0508" lon="6.84081">
        <ele>854</ele>
        <time>2020-10-28T10:04:27.634Z</time>
      </trkpt>
      <trkpt lat="48.05079" lon="6.84081">
        <ele>853</ele>
        <time>2020-10-28T10:04:28.635Z</time>
      </trkpt>
      <trkpt lat="48.05077" lon="6.84081">
        <ele>853</ele>
        <time>2020-10-28T10:04:29.635Z</time>
      </trkpt>
      <trkpt lat="48.05077" lon="6.84081">
        <ele>853</ele>
        <time>2020-10-28T10:04:30.635Z</time>
      </trkpt>
      <trkpt lat="48.05075" lon="6.84081">
        <ele>853</ele>
        <time>2020-10-28T10:04:31.634Z</time>
      </trkpt>
      <trkpt lat="48.05073" lon="6.84082">
        <ele>853</ele>
        <time>2020-10-28T10:04:32.635Z</time>
      </trkpt>
      <trkpt lat="48.05073" lon="6.84082">
        <ele>852</ele>
        <time>2020-10-28T10:04:33.635Z</time>
      </trkpt>
      <trkpt lat="48.05072" lon="6.84082">
        <ele>852</ele>
        <time>2020-10-28T10:04:49.746Z</time>
      </trkpt>
      <trkpt lat="48.05071" lon="6.84083">
        <ele>852</ele>
        <time>2020-10-28T10:04:50.745Z</time>
      </trkpt>
      <trkpt lat="48.05069" lon="6.84083">
        <ele>852</ele>
        <time>2020-10-28T10:04:51.746Z</time>
      </trkpt>
      <trkpt lat="48.05068" lon="6.84084">
        <ele>852</ele>
        <time>2020-10-28T10:04:52.745Z</time>
      </trkpt>
      <trkpt lat="48.05066" lon="6.84085">
        <ele>852</ele>
        <time>2020-10-28T10:04:53.746Z</time>
      </trkpt>
      <trkpt lat="48.05064" lon="6.84086">
        <ele>851</ele>
        <time>2020-10-28T10:04:54.746Z</time>
      </trkpt>
      <trkpt lat="48.05063" lon="6.84086">
        <ele>851</ele>
        <time>2020-10-28T10:04:55.746Z</time>
      </trkpt>
      <trkpt lat="48.05061" lon="6.84087">
        <ele>851</ele>
        <time>2020-10-28T10:04:56.745Z</time>
      </trkpt>
      <trkpt lat="48.0506" lon="6.84087">
        <ele>851</ele>
        <time>2020-10-28T10:04:57.746Z</time>
      </trkpt>
      <trkpt lat="48.05059" lon="6.84087">
        <ele>852</ele>
        <time>2020-10-28T10:04:58.745Z</time>
      </trkpt>
      <trkpt lat="48.05058" lon="6.84087">
        <ele>852</ele>
        <time>2020-10-28T10:04:59.746Z</time>
      </trkpt>
      <trkpt lat="48.05056" lon="6.84088">
        <ele>852</ele>
        <time>2020-10-28T10:05:00.746Z</time>
      </trkpt>
      <trkpt lat="48.05054" lon="6.8409">
        <ele>852</ele>
        <time>2020-10-28T10:05:01.746Z</time>
      </trkpt>
      <trkpt lat="48.05052" lon="6.84092">
        <ele>852</ele>
        <time>2020-10-28T10:05:02.746Z</time>
      </trkpt>
      <trkpt lat="48.0505" lon="6.84092">
        <ele>853</ele>
        <time>2020-10-28T10:05:03.746Z</time>
      </trkpt>
      <trkpt lat="48.05049" lon="6.84092">
        <ele>853</ele>
        <time>2020-10-28T10:05:04.746Z</time>
      </trkpt>
      <trkpt lat="48.05048" lon="6.84092">
        <ele>853</ele>
        <time>2020-10-28T10:05:05.746Z</time>
      </trkpt>
      <trkpt lat="48.05047" lon="6.84091">
        <ele>852</ele>
        <time>2020-10-28T10:05:06.746Z</time>
      </trkpt>
      <trkpt lat="48.05045" lon="6.8409">
        <ele>852</ele>
        <time>2020-10-28T10:05:07.746Z</time>
      </trkpt>
      <trkpt lat="48.05044" lon="6.8409">
        <ele>852</ele>
        <time>2020-10-28T10:05:08.746Z</time>
      </trkpt>
      <trkpt lat="48.05042" lon="6.8409">
        <ele>852</ele>
        <time>2020-10-28T10:05:09.745Z</time>
      </trkpt>
      <trkpt lat="48.0504" lon="6.8409">
        <ele>852</ele>
        <time>2020-10-28T10:05:10.746Z</time>
      </trkpt>
      <trkpt lat="48.05039" lon="6.84091">
        <ele>853</ele>
        <time>2020-10-28T10:05:11.746Z</time>
      </trkpt>
      <trkpt lat="48.05038" lon="6.84091">
        <ele>853</ele>
        <time>2020-10-28T10:05:12.746Z</time>
      </trkpt>
      <trkpt lat="48.05037" lon="6.84091">
        <ele>854</ele>
        <time>2020-10-28T10:05:13.745Z</time>
      </trkpt>
      <trkpt lat="48.05036" lon="6.84091">
        <ele>854</ele>
        <time>2020-10-28T10:05:14.746Z</time>
      </trkpt>
      <trkpt lat="48.05034" lon="6.8409">
        <ele>854</ele>
        <time>2020-10-28T10:05:15.746Z</time>
      </trkpt>
      <trkpt lat="48.05032" lon="6.84091">
        <ele>853</ele>
        <time>2020-10-28T10:05:16.746Z</time>
      </trkpt>
      <trkpt lat="48.05031" lon="6.84092">
        <ele>853</ele>
        <time>2020-10-28T10:05:17.746Z</time>
      </trkpt>
      <trkpt lat="48.05029" lon="6.84092">
        <ele>853</ele>
        <time>2020-10-28T10:05:18.746Z</time>
      </trkpt>
      <trkpt lat="48.05028" lon="6.84091">
        <ele>852</ele>
        <time>2020-10-28T10:05:55.897Z</time>
      </trkpt>
      <trkpt lat="48.05027" lon="6.84091">
        <ele>851</ele>
        <time>2020-10-28T10:05:56.896Z</time>
      </trkpt>
      <trkpt lat="48.05027" lon="6.84089">
        <ele>850</ele>
        <time>2020-10-28T10:06:01.764Z</time>
      </trkpt>
      <trkpt lat="48.05026" lon="6.84089">
        <ele>849</ele>
        <time>2020-10-28T10:06:02.763Z</time>
      </trkpt>
      <trkpt lat="48.05026" lon="6.84089">
        <ele>847</ele>
        <time>2020-10-28T10:06:03.764Z</time>
      </trkpt>
      <trkpt lat="48.05025" lon="6.84088">
        <ele>847</ele>
        <time>2020-10-28T10:06:07.909Z</time>
      </trkpt>
      <trkpt lat="48.05024" lon="6.84089">
        <ele>846</ele>
        <time>2020-10-28T10:06:08.908Z</time>
      </trkpt>
      <trkpt lat="48.05023" lon="6.84089">
        <ele>846</ele>
        <time>2020-10-28T10:06:09.909Z</time>
      </trkpt>
      <trkpt lat="48.05022" lon="6.8409">
        <ele>846</ele>
        <time>2020-10-28T10:06:10.909Z</time>
      </trkpt>
      <trkpt lat="48.05021" lon="6.8409">
        <ele>846</ele>
        <time>2020-10-28T10:06:11.908Z</time>
      </trkpt>
      <trkpt lat="48.05021" lon="6.8409">
        <ele>846</ele>
        <time>2020-10-28T10:06:12.908Z</time>
      </trkpt>
      <trkpt lat="48.0502" lon="6.84089">
        <ele>846</ele>
        <time>2020-10-28T10:06:13.909Z</time>
      </trkpt>
      <trkpt lat="48.05019" lon="6.84089">
        <ele>846</ele>
        <time>2020-10-28T10:06:14.909Z</time>
      </trkpt>
      <trkpt lat="48.05018" lon="6.84089">
        <ele>846</ele>
        <time>2020-10-28T10:06:15.908Z</time>
      </trkpt>
      <trkpt lat="48.05018" lon="6.84089">
        <ele>846</ele>
        <time>2020-10-28T10:06:16.909Z</time>
      </trkpt>
      <trkpt lat="48.05017" lon="6.8409">
        <ele>846</ele>
        <time>2020-10-28T10:06:17.909Z</time>
      </trkpt>
      <trkpt lat="48.05015" lon="6.8409">
        <ele>845</ele>
        <time>2020-10-28T10:06:18.909Z</time>
      </trkpt>
      <trkpt lat="48.05013" lon="6.8409">
        <ele>845</ele>
        <time>2020-10-28T10:06:19.909Z</time>
      </trkpt>
      <trkpt lat="48.05012" lon="6.84091">
        <ele>845</ele>
        <time>2020-10-28T10:06:20.908Z</time>
      </trkpt>
      <trkpt lat="48.05011" lon="6.84091">
        <ele>844</ele>
        <time>2020-10-28T10:06:21.909Z</time>
      </trkpt>
      <trkpt lat="48.05009" lon="6.84091">
        <ele>843</ele>
        <time>2020-10-28T10:06:22.909Z</time>
      </trkpt>
      <trkpt lat="48.05008" lon="6.84091">
        <ele>843</ele>
        <time>2020-10-28T10:06:23.909Z</time>
      </trkpt>
      <trkpt lat="48.05008" lon="6.84091">
        <ele>842</ele>
        <time>2020-10-28T10:06:24.909Z</time>
      </trkpt>
      <trkpt lat="48.05007" lon="6.84092">
        <ele>842</ele>
        <time>2020-10-28T10:06:25.909Z</time>
      </trkpt>
      <trkpt lat="48.05005" lon="6.84093">
        <ele>841</ele>
        <time>2020-10-28T10:06:26.909Z</time>
      </trkpt>
      <trkpt lat="48.05004" lon="6.84093">
        <ele>841</ele>
        <time>2020-10-28T10:06:27.908Z</time>
      </trkpt>
      <trkpt lat="48.05002" lon="6.84093">
        <ele>841</ele>
        <time>2020-10-28T10:06:28.908Z</time>
      </trkpt>
      <trkpt lat="48.05001" lon="6.84093">
        <ele>840</ele>
        <time>2020-10-28T10:06:29.909Z</time>
      </trkpt>
      <trkpt lat="48.04999" lon="6.84092">
        <ele>840</ele>
        <time>2020-10-28T10:06:33.979Z</time>
      </trkpt>
      <trkpt lat="48.04998" lon="6.84092">
        <ele>839</ele>
        <time>2020-10-28T10:06:34.978Z</time>
      </trkpt>
      <trkpt lat="48.04997" lon="6.84091">
        <ele>839</ele>
        <time>2020-10-28T10:06:39.873Z</time>
      </trkpt>
      <trkpt lat="48.04995" lon="6.84091">
        <ele>838</ele>
        <time>2020-10-28T10:06:40.872Z</time>
      </trkpt>
      <trkpt lat="48.04994" lon="6.8409">
        <ele>838</ele>
        <time>2020-10-28T10:06:41.873Z</time>
      </trkpt>
      <trkpt lat="48.04993" lon="6.84089">
        <ele>837</ele>
        <time>2020-10-28T10:06:42.873Z</time>
      </trkpt>
      <trkpt lat="48.04992" lon="6.84089">
        <ele>836</ele>
        <time>2020-10-28T10:06:43.873Z</time>
      </trkpt>
      <trkpt lat="48.04991" lon="6.84089">
        <ele>836</ele>
        <time>2020-10-28T10:06:44.873Z</time>
      </trkpt>
      <trkpt lat="48.04989" lon="6.84088">
        <ele>836</ele>
        <time>2020-10-28T10:06:45.872Z</time>
      </trkpt>
      <trkpt lat="48.04988" lon="6.84088">
        <ele>836</ele>
        <time>2020-10-28T10:06:46.872Z</time>
      </trkpt>
      <trkpt lat="48.04986" lon="6.84087">
        <ele>836</ele>
        <time>2020-10-28T10:06:47.873Z</time>
      </trkpt>
      <trkpt lat="48.04985" lon="6.84086">
        <ele>835</ele>
        <time>2020-10-28T10:06:48.872Z</time>
      </trkpt>
      <trkpt lat="48.04984" lon="6.84085">
        <ele>835</ele>
        <time>2020-10-28T10:06:49.872Z</time>
      </trkpt>
      <trkpt lat="48.04983" lon="6.84085">
        <ele>835</ele>
        <time>2020-10-28T10:06:50.872Z</time>
      </trkpt>
      <trkpt lat="48.04982" lon="6.84084">
        <ele>834</ele>
        <time>2020-10-28T10:06:51.873Z</time>
      </trkpt>
      <trkpt lat="48.0498" lon="6.84084">
        <ele>834</ele>
        <time>2020-10-28T10:06:52.873Z</time>
      </trkpt>
      <trkpt lat="48.04979" lon="6.84083">
        <ele>833</ele>
        <time>2020-10-28T10:06:53.872Z</time>
      </trkpt>
      <trkpt lat="48.04978" lon="6.84083">
        <ele>832</ele>
        <time>2020-10-28T10:06:54.873Z</time>
      </trkpt>
      <trkpt lat="48.04976" lon="6.84082">
        <ele>832</ele>
        <time>2020-10-28T10:06:56.978Z</time>
      </trkpt>
      <trkpt lat="48.04975" lon="6.84082">
        <ele>832</ele>
        <time>2020-10-28T10:06:57.978Z</time>
      </trkpt>
      <trkpt lat="48.04973" lon="6.84081">
        <ele>832</ele>
        <time>2020-10-28T10:06:58.978Z</time>
      </trkpt>
      <trkpt lat="48.04972" lon="6.84081">
        <ele>831</ele>
        <time>2020-10-28T10:06:59.978Z</time>
      </trkpt>
      <trkpt lat="48.04971" lon="6.84081">
        <ele>831</ele>
        <time>2020-10-28T10:07:04.102Z</time>
      </trkpt>
      <trkpt lat="48.0497" lon="6.84081">
        <ele>831</ele>
        <time>2020-10-28T10:07:05.102Z</time>
      </trkpt>
      <trkpt lat="48.04969" lon="6.8408">
        <ele>831</ele>
        <time>2020-10-28T10:07:06.102Z</time>
      </trkpt>
      <trkpt lat="48.04968" lon="6.8408">
        <ele>830</ele>
        <time>2020-10-28T10:07:07.102Z</time>
      </trkpt>
      <trkpt lat="48.04967" lon="6.84079">
        <ele>830</ele>
        <time>2020-10-28T10:07:08.101Z</time>
      </trkpt>
      <trkpt lat="48.04966" lon="6.84078">
        <ele>830</ele>
        <time>2020-10-28T10:07:09.101Z</time>
      </trkpt>
      <trkpt lat="48.04965" lon="6.84078">
        <ele>829</ele>
        <time>2020-10-28T10:07:10.102Z</time>
      </trkpt>
      <trkpt lat="48.04964" lon="6.84077">
        <ele>829</ele>
        <time>2020-10-28T10:07:11.101Z</time>
      </trkpt>
      <trkpt lat="48.04963" lon="6.84076">
        <ele>829</ele>
        <time>2020-10-28T10:07:12.102Z</time>
      </trkpt>
      <trkpt lat="48.04962" lon="6.84075">
        <ele>829</ele>
        <time>2020-10-28T10:07:13.101Z</time>
      </trkpt>
      <trkpt lat="48.04961" lon="6.84074">
        <ele>830</ele>
        <time>2020-10-28T10:07:14.102Z</time>
      </trkpt>
      <trkpt lat="48.0496" lon="6.84074">
        <ele>829</ele>
        <time>2020-10-28T10:07:15.102Z</time>
      </trkpt>
      <trkpt lat="48.04959" lon="6.84073">
        <ele>829</ele>
        <time>2020-10-28T10:07:16.102Z</time>
      </trkpt>
      <trkpt lat="48.04959" lon="6.84073">
        <ele>830</ele>
        <time>2020-10-28T10:07:17.102Z</time>
      </trkpt>
      <trkpt lat="48.04958" lon="6.84072">
        <ele>829</ele>
        <time>2020-10-28T10:07:18.101Z</time>
      </trkpt>
      <trkpt lat="48.04957" lon="6.84071">
        <ele>829</ele>
        <time>2020-10-28T10:07:19.102Z</time>
      </trkpt>
      <trkpt lat="48.04956" lon="6.84071">
        <ele>829</ele>
        <time>2020-10-28T10:07:20.101Z</time>
      </trkpt>
      <trkpt lat="48.04955" lon="6.8407">
        <ele>828</ele>
        <time>2020-10-28T10:07:21.102Z</time>
      </trkpt>
      <trkpt lat="48.04954" lon="6.8407">
        <ele>827</ele>
        <time>2020-10-28T10:07:22.101Z</time>
      </trkpt>
      <trkpt lat="48.04953" lon="6.8407">
        <ele>826</ele>
        <time>2020-10-28T10:07:23.101Z</time>
      </trkpt>
      <trkpt lat="48.04952" lon="6.8407">
        <ele>826</ele>
        <time>2020-10-28T10:07:24.101Z</time>
      </trkpt>
      <trkpt lat="48.0495" lon="6.84069">
        <ele>825</ele>
        <time>2020-10-28T10:07:29.120Z</time>
      </trkpt>
      <trkpt lat="48.04949" lon="6.84068">
        <ele>824</ele>
        <time>2020-10-28T10:07:30.120Z</time>
      </trkpt>
      <trkpt lat="48.04948" lon="6.84067">
        <ele>824</ele>
        <time>2020-10-28T10:07:31.120Z</time>
      </trkpt>
      <trkpt lat="48.04946" lon="6.84066">
        <ele>823</ele>
        <time>2020-10-28T10:07:32.120Z</time>
      </trkpt>
      <trkpt lat="48.04945" lon="6.84065">
        <ele>823</ele>
        <time>2020-10-28T10:07:33.120Z</time>
      </trkpt>
      <trkpt lat="48.04943" lon="6.84064">
        <ele>822</ele>
        <time>2020-10-28T10:07:34.120Z</time>
      </trkpt>
      <trkpt lat="48.04941" lon="6.84063">
        <ele>822</ele>
        <time>2020-10-28T10:07:35.120Z</time>
      </trkpt>
      <trkpt lat="48.0494" lon="6.84063">
        <ele>822</ele>
        <time>2020-10-28T10:07:36.120Z</time>
      </trkpt>
      <trkpt lat="48.04939" lon="6.84061">
        <ele>822</ele>
        <time>2020-10-28T10:07:37.121Z</time>
      </trkpt>
      <trkpt lat="48.04938" lon="6.8406">
        <ele>822</ele>
        <time>2020-10-28T10:07:38.121Z</time>
      </trkpt>
      <trkpt lat="48.04937" lon="6.84059">
        <ele>822</ele>
        <time>2020-10-28T10:07:39.121Z</time>
      </trkpt>
      <trkpt lat="48.04937" lon="6.84057">
        <ele>822</ele>
        <time>2020-10-28T10:07:41.087Z</time>
      </trkpt>
      <trkpt lat="48.04936" lon="6.84055">
        <ele>822</ele>
        <time>2020-10-28T10:07:42.087Z</time>
      </trkpt>
      <trkpt lat="48.04935" lon="6.84054">
        <ele>821</ele>
        <time>2020-10-28T10:07:43.086Z</time>
      </trkpt>
      <trkpt lat="48.04934" lon="6.84052">
        <ele>821</ele>
        <time>2020-10-28T10:07:44.087Z</time>
      </trkpt>
      <trkpt lat="48.04933" lon="6.84051">
        <ele>821</ele>
        <time>2020-10-28T10:07:45.087Z</time>
      </trkpt>
      <trkpt lat="48.04931" lon="6.8405">
        <ele>821</ele>
        <time>2020-10-28T10:07:46.087Z</time>
      </trkpt>
      <trkpt lat="48.0493" lon="6.8405">
        <ele>821</ele>
        <time>2020-10-28T10:07:47.087Z</time>
      </trkpt>
      <trkpt lat="48.04929" lon="6.84049">
        <ele>822</ele>
        <time>2020-10-28T10:07:48.086Z</time>
      </trkpt>
      <trkpt lat="48.04928" lon="6.84048">
        <ele>822</ele>
        <time>2020-10-28T10:07:58.097Z</time>
      </trkpt>
      <trkpt lat="48.04927" lon="6.84047">
        <ele>822</ele>
        <time>2020-10-28T10:07:59.096Z</time>
      </trkpt>
      <trkpt lat="48.04927" lon="6.84047">
        <ele>822</ele>
        <time>2020-10-28T10:08:00.096Z</time>
      </trkpt>
      <trkpt lat="48.04927" lon="6.84046">
        <ele>822</ele>
        <time>2020-10-28T10:08:01.097Z</time>
      </trkpt>
      <trkpt lat="48.04926" lon="6.84046">
        <ele>822</ele>
        <time>2020-10-28T10:08:02.097Z</time>
      </trkpt>
      <trkpt lat="48.04926" lon="6.84046">
        <ele>823</ele>
        <time>2020-10-28T10:08:03.097Z</time>
      </trkpt>
      <trkpt lat="48.04925" lon="6.84045">
        <ele>823</ele>
        <time>2020-10-28T10:08:04.097Z</time>
      </trkpt>
      <trkpt lat="48.04924" lon="6.84044">
        <ele>824</ele>
        <time>2020-10-28T10:08:05.096Z</time>
      </trkpt>
      <trkpt lat="48.04924" lon="6.84044">
        <ele>825</ele>
        <time>2020-10-28T10:08:06.096Z</time>
      </trkpt>
      <trkpt lat="48.04923" lon="6.84044">
        <ele>826</ele>
        <time>2020-10-28T10:08:07.096Z</time>
      </trkpt>
      <trkpt lat="48.04922" lon="6.84043">
        <ele>826</ele>
        <time>2020-10-28T10:08:08.097Z</time>
      </trkpt>
      <trkpt lat="48.04922" lon="6.84043">
        <ele>827</ele>
        <time>2020-10-28T10:08:09.096Z</time>
      </trkpt>
      <trkpt lat="48.04921" lon="6.84043">
        <ele>827</ele>
        <time>2020-10-28T10:08:10.097Z</time>
      </trkpt>
      <trkpt lat="48.0492" lon="6.84043">
        <ele>827</ele>
        <time>2020-10-28T10:08:11.097Z</time>
      </trkpt>
      <trkpt lat="48.04919" lon="6.84042">
        <ele>828</ele>
        <time>2020-10-28T10:08:12.096Z</time>
      </trkpt>
      <trkpt lat="48.04918" lon="6.84042">
        <ele>828</ele>
        <time>2020-10-28T10:08:13.097Z</time>
      </trkpt>
      <trkpt lat="48.04917" lon="6.84042">
        <ele>828</ele>
        <time>2020-10-28T10:08:14.097Z</time>
      </trkpt>
      <trkpt lat="48.04915" lon="6.84042">
        <ele>828</ele>
        <time>2020-10-28T10:08:15.096Z</time>
      </trkpt>
      <trkpt lat="48.04914" lon="6.84041">
        <ele>828</ele>
        <time>2020-10-28T10:08:16.097Z</time>
      </trkpt>
      <trkpt lat="48.04912" lon="6.84041">
        <ele>829</ele>
        <time>2020-10-28T10:08:17.097Z</time>
      </trkpt>
      <trkpt lat="48.0491" lon="6.8404">
        <ele>829</ele>
        <time>2020-10-28T10:08:18.097Z</time>
      </trkpt>
      <trkpt lat="48.04908" lon="6.8404">
        <ele>829</ele>
        <time>2020-10-28T10:08:19.097Z</time>
      </trkpt>
      <trkpt lat="48.04907" lon="6.8404">
        <ele>829</ele>
        <time>2020-10-28T10:08:20.097Z</time>
      </trkpt>
      <trkpt lat="48.04906" lon="6.84039">
        <ele>830</ele>
        <time>2020-10-28T10:08:21.097Z</time>
      </trkpt>
      <trkpt lat="48.04905" lon="6.84039">
        <ele>830</ele>
        <time>2020-10-28T10:08:22.096Z</time>
      </trkpt>
      <trkpt lat="48.04904" lon="6.84039">
        <ele>831</ele>
        <time>2020-10-28T10:08:23.097Z</time>
      </trkpt>
      <trkpt lat="48.04903" lon="6.84038">
        <ele>831</ele>
        <time>2020-10-28T10:08:25.210Z</time>
      </trkpt>
      <trkpt lat="48.04902" lon="6.84037">
        <ele>831</ele>
        <time>2020-10-28T10:08:26.211Z</time>
      </trkpt>
      <trkpt lat="48.04901" lon="6.84037">
        <ele>830</ele>
        <time>2020-10-28T10:08:27.211Z</time>
      </trkpt>
      <trkpt lat="48.049" lon="6.84036">
        <ele>829</ele>
        <time>2020-10-28T10:08:28.210Z</time>
      </trkpt>
      <trkpt lat="48.049" lon="6.84035">
        <ele>828</ele>
        <time>2020-10-28T10:08:29.210Z</time>
      </trkpt>
      <trkpt lat="48.04899" lon="6.84033">
        <ele>827</ele>
        <time>2020-10-28T10:08:30.211Z</time>
      </trkpt>
      <trkpt lat="48.04898" lon="6.84033">
        <ele>826</ele>
        <time>2020-10-28T10:08:31.211Z</time>
      </trkpt>
      <trkpt lat="48.04897" lon="6.84032">
        <ele>826</ele>
        <time>2020-10-28T10:08:34.241Z</time>
      </trkpt>
      <trkpt lat="48.04896" lon="6.84032">
        <ele>825</ele>
        <time>2020-10-28T10:08:35.241Z</time>
      </trkpt>
      <trkpt lat="48.04895" lon="6.84031">
        <ele>825</ele>
        <time>2020-10-28T10:09:46.125Z</time>
      </trkpt>
      <trkpt lat="48.04894" lon="6.84031">
        <ele>824</ele>
        <time>2020-10-28T10:09:47.125Z</time>
      </trkpt>
      <trkpt lat="48.04893" lon="6.8403">
        <ele>824</ele>
        <time>2020-10-28T10:09:48.124Z</time>
      </trkpt>
      <trkpt lat="48.04891" lon="6.8403">
        <ele>823</ele>
        <time>2020-10-28T10:09:49.124Z</time>
      </trkpt>
      <trkpt lat="48.0489" lon="6.84029">
        <ele>822</ele>
        <time>2020-10-28T10:09:50.125Z</time>
      </trkpt>
      <trkpt lat="48.04889" lon="6.84029">
        <ele>822</ele>
        <time>2020-10-28T10:09:51.125Z</time>
      </trkpt>
      <trkpt lat="48.04888" lon="6.84028">
        <ele>822</ele>
        <time>2020-10-28T10:09:52.125Z</time>
      </trkpt>
      <trkpt lat="48.04887" lon="6.84027">
        <ele>821</ele>
        <time>2020-10-28T10:09:53.124Z</time>
      </trkpt>
      <trkpt lat="48.04885" lon="6.84026">
        <ele>821</ele>
        <time>2020-10-28T10:09:54.125Z</time>
      </trkpt>
      <trkpt lat="48.04884" lon="6.84025">
        <ele>821</ele>
        <time>2020-10-28T10:09:55.124Z</time>
      </trkpt>
      <trkpt lat="48.04883" lon="6.84024">
        <ele>821</ele>
        <time>2020-10-28T10:09:56.125Z</time>
      </trkpt>
      <trkpt lat="48.04882" lon="6.84023">
        <ele>820</ele>
        <time>2020-10-28T10:09:57.125Z</time>
      </trkpt>
      <trkpt lat="48.04881" lon="6.84023">
        <ele>820</ele>
        <time>2020-10-28T10:09:58.124Z</time>
      </trkpt>
      <trkpt lat="48.0488" lon="6.84022">
        <ele>820</ele>
        <time>2020-10-28T10:09:59.125Z</time>
      </trkpt>
      <trkpt lat="48.04879" lon="6.84022">
        <ele>819</ele>
        <time>2020-10-28T10:10:00.125Z</time>
      </trkpt>
      <trkpt lat="48.04878" lon="6.84021">
        <ele>818</ele>
        <time>2020-10-28T10:10:01.125Z</time>
      </trkpt>
      <trkpt lat="48.04877" lon="6.8402">
        <ele>818</ele>
        <time>2020-10-28T10:10:02.125Z</time>
      </trkpt>
      <trkpt lat="48.04877" lon="6.84019">
        <ele>818</ele>
        <time>2020-10-28T10:10:06.125Z</time>
      </trkpt>
      <trkpt lat="48.04876" lon="6.84018">
        <ele>818</ele>
        <time>2020-10-28T10:10:07.126Z</time>
      </trkpt>
      <trkpt lat="48.04875" lon="6.84017">
        <ele>818</ele>
        <time>2020-10-28T10:10:08.126Z</time>
      </trkpt>
      <trkpt lat="48.04875" lon="6.84016">
        <ele>818</ele>
        <time>2020-10-28T10:10:09.125Z</time>
      </trkpt>
      <trkpt lat="48.04875" lon="6.84015">
        <ele>819</ele>
        <time>2020-10-28T10:10:10.125Z</time>
      </trkpt>
      <trkpt lat="48.04875" lon="6.84015">
        <ele>819</ele>
        <time>2020-10-28T10:10:11.125Z</time>
      </trkpt>
      <trkpt lat="48.04876" lon="6.84015">
        <ele>819</ele>
        <time>2020-10-28T10:10:12.125Z</time>
      </trkpt>
      <trkpt lat="48.04876" lon="6.84015">
        <ele>820</ele>
        <time>2020-10-28T10:10:13.125Z</time>
      </trkpt>
      <trkpt lat="48.04874" lon="6.84015">
        <ele>823</ele>
        <time>2020-10-28T10:10:14.126Z</time>
      </trkpt>
      <trkpt lat="48.04873" lon="6.84015">
        <ele>823</ele>
        <time>2020-10-28T10:10:15.125Z</time>
      </trkpt>
      <trkpt lat="48.04872" lon="6.84015">
        <ele>823</ele>
        <time>2020-10-28T10:10:16.125Z</time>
      </trkpt>
      <trkpt lat="48.04871" lon="6.84014">
        <ele>823</ele>
        <time>2020-10-28T10:10:17.125Z</time>
      </trkpt>
      <trkpt lat="48.04869" lon="6.84013">
        <ele>822</ele>
        <time>2020-10-28T10:10:18.126Z</time>
      </trkpt>
      <trkpt lat="48.04868" lon="6.84012">
        <ele>822</ele>
        <time>2020-10-28T10:10:19.125Z</time>
      </trkpt>
      <trkpt lat="48.04867" lon="6.84012">
        <ele>822</ele>
        <time>2020-10-28T10:10:20.125Z</time>
      </trkpt>
      <trkpt lat="48.04866" lon="6.84011">
        <ele>821</ele>
        <time>2020-10-28T10:10:21.125Z</time>
      </trkpt>
      <trkpt lat="48.04865" lon="6.84011">
        <ele>821</ele>
        <time>2020-10-28T10:10:30.101Z</time>
      </trkpt>
      <trkpt lat="48.04864" lon="6.8401">
        <ele>821</ele>
        <time>2020-10-28T10:10:31.101Z</time>
      </trkpt>
      <trkpt lat="48.04863" lon="6.8401">
        <ele>820</ele>
        <time>2020-10-28T10:10:32.100Z</time>
      </trkpt>
      <trkpt lat="48.04862" lon="6.84009">
        <ele>820</ele>
        <time>2020-10-28T10:10:33.101Z</time>
      </trkpt>
      <trkpt lat="48.0486" lon="6.84008">
        <ele>819</ele>
        <time>2020-10-28T10:10:34.100Z</time>
      </trkpt>
      <trkpt lat="48.04859" lon="6.84007">
        <ele>819</ele>
        <time>2020-10-28T10:10:35.101Z</time>
      </trkpt>
      <trkpt lat="48.04857" lon="6.84005">
        <ele>819</ele>
        <time>2020-10-28T10:10:36.101Z</time>
      </trkpt>
      <trkpt lat="48.04855" lon="6.84004">
        <ele>818</ele>
        <time>2020-10-28T10:10:37.100Z</time>
      </trkpt>
      <trkpt lat="48.04853" lon="6.84003">
        <ele>819</ele>
        <time>2020-10-28T10:10:40.117Z</time>
      </trkpt>
      <trkpt lat="48.04852" lon="6.84001">
        <ele>819</ele>
        <time>2020-10-28T10:10:41.116Z</time>
      </trkpt>
      <trkpt lat="48.04849" lon="6.84001">
        <ele>820</ele>
        <time>2020-10-28T10:10:42.117Z</time>
      </trkpt>
      <trkpt lat="48.04848" lon="6.84">
        <ele>820</ele>
        <time>2020-10-28T10:10:43.116Z</time>
      </trkpt>
      <trkpt lat="48.04846" lon="6.83998">
        <ele>820</ele>
        <time>2020-10-28T10:10:44.116Z</time>
      </trkpt>
      <trkpt lat="48.04845" lon="6.83997">
        <ele>821</ele>
        <time>2020-10-28T10:10:45.117Z</time>
      </trkpt>
      <trkpt lat="48.04844" lon="6.83997">
        <ele>821</ele>
        <time>2020-10-28T10:10:49.223Z</time>
      </trkpt>
      <trkpt lat="48.04842" lon="6.83996">
        <ele>822</ele>
        <time>2020-10-28T10:10:50.224Z</time>
      </trkpt>
      <trkpt lat="48.04841" lon="6.83996">
        <ele>822</ele>
        <time>2020-10-28T10:10:51.224Z</time>
      </trkpt>
      <trkpt lat="48.0484" lon="6.83996">
        <ele>822</ele>
        <time>2020-10-28T10:10:52.224Z</time>
      </trkpt>
      <trkpt lat="48.0484" lon="6.83996">
        <ele>823</ele>
        <time>2020-10-28T10:10:53.223Z</time>
      </trkpt>
      <trkpt lat="48.04841" lon="6.83997">
        <ele>823</ele>
        <time>2020-10-28T10:10:54.224Z</time>
      </trkpt>
      <trkpt lat="48.0484" lon="6.83996">
        <ele>822</ele>
        <time>2020-10-28T10:10:55.224Z</time>
      </trkpt>
      <trkpt lat="48.04838" lon="6.83995">
        <ele>823</ele>
        <time>2020-10-28T10:10:56.223Z</time>
      </trkpt>
      <trkpt lat="48.04837" lon="6.83994">
        <ele>822</ele>
        <time>2020-10-28T10:10:57.224Z</time>
      </trkpt>
      <trkpt lat="48.04835" lon="6.83994">
        <ele>822</ele>
        <time>2020-10-28T10:10:58.223Z</time>
      </trkpt>
      <trkpt lat="48.04834" lon="6.83993">
        <ele>822</ele>
        <time>2020-10-28T10:10:59.224Z</time>
      </trkpt>
      <trkpt lat="48.04832" lon="6.83993">
        <ele>821</ele>
        <time>2020-10-28T10:11:00.224Z</time>
      </trkpt>
      <trkpt lat="48.0483" lon="6.83993">
        <ele>821</ele>
        <time>2020-10-28T10:11:01.224Z</time>
      </trkpt>
      <trkpt lat="48.04829" lon="6.83992">
        <ele>821</ele>
        <time>2020-10-28T10:11:02.224Z</time>
      </trkpt>
      <trkpt lat="48.04827" lon="6.83992">
        <ele>821</ele>
        <time>2020-10-28T10:11:06.383Z</time>
      </trkpt>
      <trkpt lat="48.04825" lon="6.83992">
        <ele>822</ele>
        <time>2020-10-28T10:11:07.383Z</time>
      </trkpt>
      <trkpt lat="48.04823" lon="6.83991">
        <ele>822</ele>
        <time>2020-10-28T10:11:13.261Z</time>
      </trkpt>
      <trkpt lat="48.04821" lon="6.83991">
        <ele>822</ele>
        <time>2020-10-28T10:11:14.261Z</time>
      </trkpt>
      <trkpt lat="48.0482" lon="6.8399">
        <ele>823</ele>
        <time>2020-10-28T10:11:15.260Z</time>
      </trkpt>
      <trkpt lat="48.04819" lon="6.8399">
        <ele>823</ele>
        <time>2020-10-28T10:11:16.261Z</time>
      </trkpt>
      <trkpt lat="48.04817" lon="6.83989">
        <ele>823</ele>
        <time>2020-10-28T10:11:17.261Z</time>
      </trkpt>
      <trkpt lat="48.04815" lon="6.83989">
        <ele>823</ele>
        <time>2020-10-28T10:11:18.261Z</time>
      </trkpt>
      <trkpt lat="48.04814" lon="6.83989">
        <ele>823</ele>
        <time>2020-10-28T10:11:19.260Z</time>
      </trkpt>
      <trkpt lat="48.04812" lon="6.83989">
        <ele>823</ele>
        <time>2020-10-28T10:11:23.349Z</time>
      </trkpt>
      <trkpt lat="48.0481" lon="6.83989">
        <ele>824</ele>
        <time>2020-10-28T10:11:24.348Z</time>
      </trkpt>
      <trkpt lat="48.04809" lon="6.83989">
        <ele>824</ele>
        <time>2020-10-28T10:11:25.348Z</time>
      </trkpt>
      <trkpt lat="48.04807" lon="6.83988">
        <ele>824</ele>
        <time>2020-10-28T10:11:26.348Z</time>
      </trkpt>
      <trkpt lat="48.04806" lon="6.83988">
        <ele>824</ele>
        <time>2020-10-28T10:11:27.349Z</time>
      </trkpt>
      <trkpt lat="48.04804" lon="6.83988">
        <ele>823</ele>
        <time>2020-10-28T10:11:31.362Z</time>
      </trkpt>
      <trkpt lat="48.04802" lon="6.83988">
        <ele>823</ele>
        <time>2020-10-28T10:11:32.362Z</time>
      </trkpt>
      <trkpt lat="48.048" lon="6.83988">
        <ele>823</ele>
        <time>2020-10-28T10:11:33.361Z</time>
      </trkpt>
      <trkpt lat="48.04799" lon="6.83988">
        <ele>823</ele>
        <time>2020-10-28T10:11:39.246Z</time>
      </trkpt>
      <trkpt lat="48.04798" lon="6.83987">
        <ele>823</ele>
        <time>2020-10-28T10:11:40.246Z</time>
      </trkpt>
      <trkpt lat="48.04797" lon="6.83987">
        <ele>823</ele>
        <time>2020-10-28T10:11:45.369Z</time>
      </trkpt>
      <trkpt lat="48.04796" lon="6.83986">
        <ele>823</ele>
        <time>2020-10-28T10:11:46.368Z</time>
      </trkpt>
      <trkpt lat="48.04794" lon="6.83986">
        <ele>823</ele>
        <time>2020-10-28T10:11:47.368Z</time>
      </trkpt>
      <trkpt lat="48.04793" lon="6.83985">
        <ele>823</ele>
        <time>2020-10-28T10:11:48.369Z</time>
      </trkpt>
      <trkpt lat="48.04792" lon="6.83985">
        <ele>823</ele>
        <time>2020-10-28T10:11:49.368Z</time>
      </trkpt>
      <trkpt lat="48.0479" lon="6.83985">
        <ele>822</ele>
        <time>2020-10-28T10:11:50.368Z</time>
      </trkpt>
      <trkpt lat="48.04789" lon="6.83985">
        <ele>822</ele>
        <time>2020-10-28T10:11:51.369Z</time>
      </trkpt>
      <trkpt lat="48.04787" lon="6.83985">
        <ele>822</ele>
        <time>2020-10-28T10:11:52.369Z</time>
      </trkpt>
      <trkpt lat="48.04785" lon="6.83985">
        <ele>822</ele>
        <time>2020-10-28T10:11:53.368Z</time>
      </trkpt>
      <trkpt lat="48.04784" lon="6.83984">
        <ele>822</ele>
        <time>2020-10-28T10:11:54.369Z</time>
      </trkpt>
      <trkpt lat="48.04783" lon="6.83984">
        <ele>822</ele>
        <time>2020-10-28T10:11:55.369Z</time>
      </trkpt>
      <trkpt lat="48.04782" lon="6.83983">
        <ele>822</ele>
        <time>2020-10-28T10:11:56.369Z</time>
      </trkpt>
      <trkpt lat="48.0478" lon="6.83983">
        <ele>822</ele>
        <time>2020-10-28T10:11:57.369Z</time>
      </trkpt>
      <trkpt lat="48.04779" lon="6.83983">
        <ele>822</ele>
        <time>2020-10-28T10:11:58.368Z</time>
      </trkpt>
      <trkpt lat="48.04778" lon="6.83983">
        <ele>822</ele>
        <time>2020-10-28T10:11:59.369Z</time>
      </trkpt>
      <trkpt lat="48.04777" lon="6.83982">
        <ele>821</ele>
        <time>2020-10-28T10:12:00.369Z</time>
      </trkpt>
      <trkpt lat="48.04775" lon="6.83981">
        <ele>821</ele>
        <time>2020-10-28T10:12:01.369Z</time>
      </trkpt>
      <trkpt lat="48.04774" lon="6.83981">
        <ele>820</ele>
        <time>2020-10-28T10:12:02.369Z</time>
      </trkpt>
      <trkpt lat="48.04772" lon="6.8398">
        <ele>820</ele>
        <time>2020-10-28T10:12:03.369Z</time>
      </trkpt>
      <trkpt lat="48.04771" lon="6.8398">
        <ele>820</ele>
        <time>2020-10-28T10:12:04.369Z</time>
      </trkpt>
      <trkpt lat="48.04768" lon="6.83979">
        <ele>820</ele>
        <time>2020-10-28T10:12:05.369Z</time>
      </trkpt>
      <trkpt lat="48.04766" lon="6.83978">
        <ele>821</ele>
        <time>2020-10-28T10:12:06.368Z</time>
      </trkpt>
      <trkpt lat="48.04764" lon="6.83977">
        <ele>822</ele>
        <time>2020-10-28T10:12:07.368Z</time>
      </trkpt>
      <trkpt lat="48.04763" lon="6.83976">
        <ele>823</ele>
        <time>2020-10-28T10:12:08.368Z</time>
      </trkpt>
      <trkpt lat="48.04761" lon="6.83975">
        <ele>824</ele>
        <time>2020-10-28T10:12:09.369Z</time>
      </trkpt>
      <trkpt lat="48.04759" lon="6.83975">
        <ele>824</ele>
        <time>2020-10-28T10:12:10.369Z</time>
      </trkpt>
      <trkpt lat="48.04758" lon="6.83974">
        <ele>825</ele>
        <time>2020-10-28T10:12:11.368Z</time>
      </trkpt>
      <trkpt lat="48.04756" lon="6.83974">
        <ele>825</ele>
        <time>2020-10-28T10:12:12.369Z</time>
      </trkpt>
      <trkpt lat="48.04755" lon="6.83974">
        <ele>825</ele>
        <time>2020-10-28T10:12:13.368Z</time>
      </trkpt>
      <trkpt lat="48.04753" lon="6.83974">
        <ele>825</ele>
        <time>2020-10-28T10:12:14.369Z</time>
      </trkpt>
      <trkpt lat="48.04751" lon="6.83974">
        <ele>825</ele>
        <time>2020-10-28T10:12:15.369Z</time>
      </trkpt>
      <trkpt lat="48.0475" lon="6.83973">
        <ele>825</ele>
        <time>2020-10-28T10:12:16.369Z</time>
      </trkpt>
      <trkpt lat="48.04747" lon="6.83972">
        <ele>825</ele>
        <time>2020-10-28T10:12:17.369Z</time>
      </trkpt>
      <trkpt lat="48.04746" lon="6.83972">
        <ele>825</ele>
        <time>2020-10-28T10:12:18.369Z</time>
      </trkpt>
      <trkpt lat="48.04745" lon="6.83972">
        <ele>825</ele>
        <time>2020-10-28T10:12:19.369Z</time>
      </trkpt>
      <trkpt lat="48.04744" lon="6.83971">
        <ele>825</ele>
        <time>2020-10-28T10:12:20.369Z</time>
      </trkpt>
      <trkpt lat="48.04743" lon="6.8397">
        <ele>825</ele>
        <time>2020-10-28T10:12:50.489Z</time>
      </trkpt>
      <trkpt lat="48.04742" lon="6.83969">
        <ele>824</ele>
        <time>2020-10-28T10:12:51.489Z</time>
      </trkpt>
      <trkpt lat="48.0474" lon="6.83969">
        <ele>825</ele>
        <time>2020-10-28T10:12:52.489Z</time>
      </trkpt>
      <trkpt lat="48.04738" lon="6.83968">
        <ele>825</ele>
        <time>2020-10-28T10:12:53.489Z</time>
      </trkpt>
      <trkpt lat="48.04735" lon="6.83967">
        <ele>826</ele>
        <time>2020-10-28T10:12:54.489Z</time>
      </trkpt>
      <trkpt lat="48.04734" lon="6.83966">
        <ele>826</ele>
        <time>2020-10-28T10:12:55.489Z</time>
      </trkpt>
      <trkpt lat="48.04733" lon="6.83965">
        <ele>827</ele>
        <time>2020-10-28T10:12:56.489Z</time>
      </trkpt>
      <trkpt lat="48.04732" lon="6.83965">
        <ele>827</ele>
        <time>2020-10-28T10:12:57.489Z</time>
      </trkpt>
      <trkpt lat="48.04731" lon="6.83964">
        <ele>828</ele>
        <time>2020-10-28T10:12:58.489Z</time>
      </trkpt>
      <trkpt lat="48.04729" lon="6.83964">
        <ele>828</ele>
        <time>2020-10-28T10:12:59.489Z</time>
      </trkpt>
      <trkpt lat="48.04727" lon="6.83962">
        <ele>828</ele>
        <time>2020-10-28T10:13:00.488Z</time>
      </trkpt>
      <trkpt lat="48.04726" lon="6.83961">
        <ele>828</ele>
        <time>2020-10-28T10:13:01.488Z</time>
      </trkpt>
      <trkpt lat="48.04725" lon="6.8396">
        <ele>828</ele>
        <time>2020-10-28T10:13:02.489Z</time>
      </trkpt>
      <trkpt lat="48.04724" lon="6.83959">
        <ele>828</ele>
        <time>2020-10-28T10:13:03.489Z</time>
      </trkpt>
      <trkpt lat="48.04722" lon="6.83957">
        <ele>827</ele>
        <time>2020-10-28T10:13:04.489Z</time>
      </trkpt>
      <trkpt lat="48.04721" lon="6.83956">
        <ele>827</ele>
        <time>2020-10-28T10:13:05.488Z</time>
      </trkpt>
      <trkpt lat="48.0472" lon="6.83955">
        <ele>827</ele>
        <time>2020-10-28T10:13:06.488Z</time>
      </trkpt>
      <trkpt lat="48.04719" lon="6.83954">
        <ele>827</ele>
        <time>2020-10-28T10:13:07.489Z</time>
      </trkpt>
      <trkpt lat="48.04718" lon="6.83953">
        <ele>828</ele>
        <time>2020-10-28T10:13:08.488Z</time>
      </trkpt>
      <trkpt lat="48.04717" lon="6.83952">
        <ele>828</ele>
        <time>2020-10-28T10:13:09.489Z</time>
      </trkpt>
      <trkpt lat="48.04716" lon="6.83951">
        <ele>828</ele>
        <time>2020-10-28T10:13:10.489Z</time>
      </trkpt>
      <trkpt lat="48.04715" lon="6.83949">
        <ele>827</ele>
        <time>2020-10-28T10:13:11.489Z</time>
      </trkpt>
      <trkpt lat="48.04714" lon="6.83948">
        <ele>827</ele>
        <time>2020-10-28T10:13:12.489Z</time>
      </trkpt>
      <trkpt lat="48.04713" lon="6.83947">
        <ele>828</ele>
        <time>2020-10-28T10:13:13.488Z</time>
      </trkpt>
      <trkpt lat="48.04712" lon="6.83946">
        <ele>828</ele>
        <time>2020-10-28T10:13:14.488Z</time>
      </trkpt>
      <trkpt lat="48.04711" lon="6.83944">
        <ele>828</ele>
        <time>2020-10-28T10:13:15.489Z</time>
      </trkpt>
      <trkpt lat="48.0471" lon="6.83943">
        <ele>828</ele>
        <time>2020-10-28T10:13:16.489Z</time>
      </trkpt>
      <trkpt lat="48.04708" lon="6.83941">
        <ele>828</ele>
        <time>2020-10-28T10:13:17.489Z</time>
      </trkpt>
      <trkpt lat="48.04707" lon="6.8394">
        <ele>828</ele>
        <time>2020-10-28T10:13:18.489Z</time>
      </trkpt>
      <trkpt lat="48.04706" lon="6.83939">
        <ele>829</ele>
        <time>2020-10-28T10:13:19.489Z</time>
      </trkpt>
      <trkpt lat="48.04705" lon="6.83938">
        <ele>829</ele>
        <time>2020-10-28T10:13:20.488Z</time>
      </trkpt>
      <trkpt lat="48.04703" lon="6.83938">
        <ele>829</ele>
        <time>2020-10-28T10:13:21.489Z</time>
      </trkpt>
      <trkpt lat="48.04702" lon="6.83938">
        <ele>829</ele>
        <time>2020-10-28T10:13:22.488Z</time>
      </trkpt>
      <trkpt lat="48.04701" lon="6.83938">
        <ele>829</ele>
        <time>2020-10-28T10:13:23.488Z</time>
      </trkpt>
      <trkpt lat="48.04699" lon="6.83936">
        <ele>829</ele>
        <time>2020-10-28T10:13:24.489Z</time>
      </trkpt>
      <trkpt lat="48.04696" lon="6.83936">
        <ele>828</ele>
        <time>2020-10-28T10:13:25.489Z</time>
      </trkpt>
      <trkpt lat="48.04695" lon="6.83937">
        <ele>828</ele>
        <time>2020-10-28T10:13:26.489Z</time>
      </trkpt>
      <trkpt lat="48.04694" lon="6.83936">
        <ele>828</ele>
        <time>2020-10-28T10:13:27.489Z</time>
      </trkpt>
      <trkpt lat="48.04694" lon="6.83935">
        <ele>828</ele>
        <time>2020-10-28T10:13:28.489Z</time>
      </trkpt>
      <trkpt lat="48.04693" lon="6.83933">
        <ele>828</ele>
        <time>2020-10-28T10:13:29.488Z</time>
      </trkpt>
      <trkpt lat="48.04692" lon="6.83933">
        <ele>829</ele>
        <time>2020-10-28T10:13:30.488Z</time>
      </trkpt>
      <trkpt lat="48.04691" lon="6.83932">
        <ele>829</ele>
        <time>2020-10-28T10:13:31.488Z</time>
      </trkpt>
      <trkpt lat="48.0469" lon="6.83931">
        <ele>830</ele>
        <time>2020-10-28T10:13:32.489Z</time>
      </trkpt>
      <trkpt lat="48.04688" lon="6.83931">
        <ele>830</ele>
        <time>2020-10-28T10:13:33.489Z</time>
      </trkpt>
      <trkpt lat="48.04687" lon="6.8393">
        <ele>831</ele>
        <time>2020-10-28T10:13:34.488Z</time>
      </trkpt>
      <trkpt lat="48.04685" lon="6.83929">
        <ele>831</ele>
        <time>2020-10-28T10:13:35.489Z</time>
      </trkpt>
      <trkpt lat="48.04684" lon="6.83929">
        <ele>830</ele>
        <time>2020-10-28T10:13:36.489Z</time>
      </trkpt>
      <trkpt lat="48.04683" lon="6.83929">
        <ele>830</ele>
        <time>2020-10-28T10:13:37.488Z</time>
      </trkpt>
      <trkpt lat="48.04681" lon="6.83929">
        <ele>830</ele>
        <time>2020-10-28T10:13:38.488Z</time>
      </trkpt>
      <trkpt lat="48.0468" lon="6.83928">
        <ele>830</ele>
        <time>2020-10-28T10:13:39.489Z</time>
      </trkpt>
      <trkpt lat="48.04678" lon="6.83928">
        <ele>830</ele>
        <time>2020-10-28T10:13:40.489Z</time>
      </trkpt>
      <trkpt lat="48.04676" lon="6.83927">
        <ele>829</ele>
        <time>2020-10-28T10:13:41.489Z</time>
      </trkpt>
      <trkpt lat="48.04676" lon="6.83927">
        <ele>828</ele>
        <time>2020-10-28T10:13:42.488Z</time>
      </trkpt>
      <trkpt lat="48.04675" lon="6.83926">
        <ele>828</ele>
        <time>2020-10-28T10:13:43.489Z</time>
      </trkpt>
      <trkpt lat="48.04674" lon="6.83926">
        <ele>828</ele>
        <time>2020-10-28T10:13:44.489Z</time>
      </trkpt>
      <trkpt lat="48.04673" lon="6.83925">
        <ele>827</ele>
        <time>2020-10-28T10:13:45.489Z</time>
      </trkpt>
      <trkpt lat="48.04671" lon="6.83925">
        <ele>827</ele>
        <time>2020-10-28T10:13:46.489Z</time>
      </trkpt>
      <trkpt lat="48.0467" lon="6.83925">
        <ele>827</ele>
        <time>2020-10-28T10:13:47.489Z</time>
      </trkpt>
      <trkpt lat="48.04669" lon="6.83925">
        <ele>827</ele>
        <time>2020-10-28T10:13:48.489Z</time>
      </trkpt>
      <trkpt lat="48.04666" lon="6.83926">
        <ele>827</ele>
        <time>2020-10-28T10:13:49.489Z</time>
      </trkpt>
      <trkpt lat="48.04664" lon="6.83925">
        <ele>827</ele>
        <time>2020-10-28T10:13:50.489Z</time>
      </trkpt>
      <trkpt lat="48.04662" lon="6.83925">
        <ele>828</ele>
        <time>2020-10-28T10:13:51.489Z</time>
      </trkpt>
      <trkpt lat="48.0466" lon="6.83924">
        <ele>827</ele>
        <time>2020-10-28T10:13:52.489Z</time>
      </trkpt>
      <trkpt lat="48.04659" lon="6.83923">
        <ele>827</ele>
        <time>2020-10-28T10:13:53.488Z</time>
      </trkpt>
      <trkpt lat="48.04658" lon="6.83922">
        <ele>827</ele>
        <time>2020-10-28T10:13:54.488Z</time>
      </trkpt>
      <trkpt lat="48.04657" lon="6.83921">
        <ele>827</ele>
        <time>2020-10-28T10:13:55.489Z</time>
      </trkpt>
      <trkpt lat="48.04656" lon="6.83919">
        <ele>826</ele>
        <time>2020-10-28T10:13:56.488Z</time>
      </trkpt>
      <trkpt lat="48.04655" lon="6.83918">
        <ele>826</ele>
        <time>2020-10-28T10:13:57.488Z</time>
      </trkpt>
      <trkpt lat="48.04654" lon="6.83918">
        <ele>825</ele>
        <time>2020-10-28T10:13:58.489Z</time>
      </trkpt>
      <trkpt lat="48.04653" lon="6.83917">
        <ele>825</ele>
        <time>2020-10-28T10:13:59.488Z</time>
      </trkpt>
      <trkpt lat="48.04651" lon="6.83916">
        <ele>824</ele>
        <time>2020-10-28T10:14:00.489Z</time>
      </trkpt>
      <trkpt lat="48.0465" lon="6.83915">
        <ele>824</ele>
        <time>2020-10-28T10:14:01.489Z</time>
      </trkpt>
      <trkpt lat="48.04649" lon="6.83914">
        <ele>823</ele>
        <time>2020-10-28T10:14:02.488Z</time>
      </trkpt>
      <trkpt lat="48.04648" lon="6.83913">
        <ele>822</ele>
        <time>2020-10-28T10:14:03.488Z</time>
      </trkpt>
      <trkpt lat="48.04646" lon="6.83911">
        <ele>822</ele>
        <time>2020-10-28T10:14:04.488Z</time>
      </trkpt>
      <trkpt lat="48.04645" lon="6.8391">
        <ele>822</ele>
        <time>2020-10-28T10:14:05.489Z</time>
      </trkpt>
      <trkpt lat="48.04643" lon="6.83909">
        <ele>821</ele>
        <time>2020-10-28T10:14:06.489Z</time>
      </trkpt>
      <trkpt lat="48.04642" lon="6.83908">
        <ele>821</ele>
        <time>2020-10-28T10:14:07.488Z</time>
      </trkpt>
      <trkpt lat="48.04641" lon="6.83907">
        <ele>821</ele>
        <time>2020-10-28T10:14:10.578Z</time>
      </trkpt>
      <trkpt lat="48.0464" lon="6.83907">
        <ele>821</ele>
        <time>2020-10-28T10:14:11.578Z</time>
      </trkpt>
      <trkpt lat="48.0464" lon="6.83906">
        <ele>821</ele>
        <time>2020-10-28T10:14:12.578Z</time>
      </trkpt>
      <trkpt lat="48.04639" lon="6.83905">
        <ele>821</ele>
        <time>2020-10-28T10:14:13.578Z</time>
      </trkpt>
      <trkpt lat="48.04638" lon="6.83905">
        <ele>821</ele>
        <time>2020-10-28T10:14:14.577Z</time>
      </trkpt>
      <trkpt lat="48.04636" lon="6.83904">
        <ele>822</ele>
        <time>2020-10-28T10:14:15.578Z</time>
      </trkpt>
      <trkpt lat="48.04635" lon="6.83904">
        <ele>822</ele>
        <time>2020-10-28T10:14:16.578Z</time>
      </trkpt>
      <trkpt lat="48.04634" lon="6.83903">
        <ele>822</ele>
        <time>2020-10-28T10:14:17.578Z</time>
      </trkpt>
      <trkpt lat="48.04633" lon="6.83902">
        <ele>822</ele>
        <time>2020-10-28T10:14:18.578Z</time>
      </trkpt>
      <trkpt lat="48.04632" lon="6.83902">
        <ele>822</ele>
        <time>2020-10-28T10:14:19.577Z</time>
      </trkpt>
      <trkpt lat="48.0463" lon="6.839">
        <ele>822</ele>
        <time>2020-10-28T10:14:20.578Z</time>
      </trkpt>
      <trkpt lat="48.04629" lon="6.83899">
        <ele>822</ele>
        <time>2020-10-28T10:14:21.578Z</time>
      </trkpt>
      <trkpt lat="48.04629" lon="6.83898">
        <ele>822</ele>
        <time>2020-10-28T10:14:22.578Z</time>
      </trkpt>
      <trkpt lat="48.04628" lon="6.83897">
        <ele>822</ele>
        <time>2020-10-28T10:14:23.578Z</time>
      </trkpt>
      <trkpt lat="48.04628" lon="6.83896">
        <ele>822</ele>
        <time>2020-10-28T10:14:24.578Z</time>
      </trkpt>
      <trkpt lat="48.04627" lon="6.83895">
        <ele>822</ele>
        <time>2020-10-28T10:14:25.577Z</time>
      </trkpt>
      <trkpt lat="48.04626" lon="6.83894">
        <ele>823</ele>
        <time>2020-10-28T10:14:26.578Z</time>
      </trkpt>
      <trkpt lat="48.04625" lon="6.83893">
        <ele>823</ele>
        <time>2020-10-28T10:14:27.578Z</time>
      </trkpt>
      <trkpt lat="48.04625" lon="6.83892">
        <ele>823</ele>
        <time>2020-10-28T10:14:28.578Z</time>
      </trkpt>
      <trkpt lat="48.04624" lon="6.83891">
        <ele>822</ele>
        <time>2020-10-28T10:14:29.577Z</time>
      </trkpt>
      <trkpt lat="48.04624" lon="6.8389">
        <ele>822</ele>
        <time>2020-10-28T10:14:30.578Z</time>
      </trkpt>
      <trkpt lat="48.04623" lon="6.83889">
        <ele>822</ele>
        <time>2020-10-28T10:14:31.577Z</time>
      </trkpt>
      <trkpt lat="48.04623" lon="6.83888">
        <ele>821</ele>
        <time>2020-10-28T10:14:32.578Z</time>
      </trkpt>
      <trkpt lat="48.04622" lon="6.83887">
        <ele>821</ele>
        <time>2020-10-28T10:14:33.578Z</time>
      </trkpt>
      <trkpt lat="48.04622" lon="6.83887">
        <ele>821</ele>
        <time>2020-10-28T10:14:34.577Z</time>
      </trkpt>
      <trkpt lat="48.04624" lon="6.83886">
        <ele>819</ele>
        <time>2020-10-28T10:14:35.578Z</time>
      </trkpt>
      <trkpt lat="48.04624" lon="6.83886">
        <ele>819</ele>
        <time>2020-10-28T10:14:36.577Z</time>
      </trkpt>
      <trkpt lat="48.04626" lon="6.8389">
        <ele>823</ele>
        <time>2020-10-28T10:14:37.579Z</time>
      </trkpt>
      <trkpt lat="48.04626" lon="6.83892">
        <ele>824</ele>
        <time>2020-10-28T10:14:38.579Z</time>
      </trkpt>
      <trkpt lat="48.04627" lon="6.83894">
        <ele>824</ele>
        <time>2020-10-28T10:14:39.578Z</time>
      </trkpt>
      <trkpt lat="48.04628" lon="6.83895">
        <ele>825</ele>
        <time>2020-10-28T10:14:40.578Z</time>
      </trkpt>
      <trkpt lat="48.04628" lon="6.83896">
        <ele>826</ele>
        <time>2020-10-28T10:14:41.579Z</time>
      </trkpt>
      <trkpt lat="48.04629" lon="6.83897">
        <ele>826</ele>
        <time>2020-10-28T10:14:42.579Z</time>
      </trkpt>
      <trkpt lat="48.04629" lon="6.83899">
        <ele>826</ele>
        <time>2020-10-28T10:14:43.578Z</time>
      </trkpt>
      <trkpt lat="48.0463" lon="6.83901">
        <ele>826</ele>
        <time>2020-10-28T10:14:44.578Z</time>
      </trkpt>
      <trkpt lat="48.04631" lon="6.83903">
        <ele>826</ele>
        <time>2020-10-28T10:14:45.579Z</time>
      </trkpt>
      <trkpt lat="48.04632" lon="6.83904">
        <ele>826</ele>
        <time>2020-10-28T10:14:46.579Z</time>
      </trkpt>
      <trkpt lat="48.04633" lon="6.83905">
        <ele>826</ele>
        <time>2020-10-28T10:14:47.579Z</time>
      </trkpt>
      <trkpt lat="48.04633" lon="6.83907">
        <ele>826</ele>
        <time>2020-10-28T10:14:48.579Z</time>
      </trkpt>
      <trkpt lat="48.04635" lon="6.83909">
        <ele>826</ele>
        <time>2020-10-28T10:14:49.578Z</time>
      </trkpt>
      <trkpt lat="48.04636" lon="6.8391">
        <ele>825</ele>
        <time>2020-10-28T10:14:50.578Z</time>
      </trkpt>
      <trkpt lat="48.04636" lon="6.83911">
        <ele>826</ele>
        <time>2020-10-28T10:14:51.578Z</time>
      </trkpt>
      <trkpt lat="48.04637" lon="6.83912">
        <ele>826</ele>
        <time>2020-10-28T10:14:52.578Z</time>
      </trkpt>
      <trkpt lat="48.04638" lon="6.83913">
        <ele>826</ele>
        <time>2020-10-28T10:14:53.578Z</time>
      </trkpt>
      <trkpt lat="48.04639" lon="6.83914">
        <ele>826</ele>
        <time>2020-10-28T10:14:54.579Z</time>
      </trkpt>
      <trkpt lat="48.04639" lon="6.83916">
        <ele>826</ele>
        <time>2020-10-28T10:14:55.578Z</time>
      </trkpt>
      <trkpt lat="48.0464" lon="6.83917">
        <ele>827</ele>
        <time>2020-10-28T10:14:56.578Z</time>
      </trkpt>
      <trkpt lat="48.04641" lon="6.83918">
        <ele>827</ele>
        <time>2020-10-28T10:14:57.578Z</time>
      </trkpt>
      <trkpt lat="48.04641" lon="6.83919">
        <ele>827</ele>
        <time>2020-10-28T10:14:58.578Z</time>
      </trkpt>
      <trkpt lat="48.04641" lon="6.8392">
        <ele>827</ele>
        <time>2020-10-28T10:14:59.578Z</time>
      </trkpt>
      <trkpt lat="48.04642" lon="6.83921">
        <ele>827</ele>
        <time>2020-10-28T10:15:00.578Z</time>
      </trkpt>
      <trkpt lat="48.04642" lon="6.83922">
        <ele>828</ele>
        <time>2020-10-28T10:15:01.579Z</time>
      </trkpt>
      <trkpt lat="48.04642" lon="6.83923">
        <ele>828</ele>
        <time>2020-10-28T10:15:02.578Z</time>
      </trkpt>
      <trkpt lat="48.04642" lon="6.83924">
        <ele>829</ele>
        <time>2020-10-28T10:15:03.579Z</time>
      </trkpt>
      <trkpt lat="48.04643" lon="6.83925">
        <ele>829</ele>
        <time>2020-10-28T10:15:04.578Z</time>
      </trkpt>
      <trkpt lat="48.04644" lon="6.83927">
        <ele>830</ele>
        <time>2020-10-28T10:15:05.578Z</time>
      </trkpt>
      <trkpt lat="48.04644" lon="6.8393">
        <ele>830</ele>
        <time>2020-10-28T10:15:06.578Z</time>
      </trkpt>
      <trkpt lat="48.04645" lon="6.83932">
        <ele>830</ele>
        <time>2020-10-28T10:15:07.578Z</time>
      </trkpt>
      <trkpt lat="48.04646" lon="6.83934">
        <ele>830</ele>
        <time>2020-10-28T10:15:08.578Z</time>
      </trkpt>
      <trkpt lat="48.04646" lon="6.83936">
        <ele>830</ele>
        <time>2020-10-28T10:15:09.578Z</time>
      </trkpt>
      <trkpt lat="48.04647" lon="6.83937">
        <ele>830</ele>
        <time>2020-10-28T10:15:10.579Z</time>
      </trkpt>
      <trkpt lat="48.04647" lon="6.83938">
        <ele>830</ele>
        <time>2020-10-28T10:15:11.578Z</time>
      </trkpt>
      <trkpt lat="48.04648" lon="6.83939">
        <ele>829</ele>
        <time>2020-10-28T10:15:13.611Z</time>
      </trkpt>
      <trkpt lat="48.04649" lon="6.8394">
        <ele>829</ele>
        <time>2020-10-28T10:15:14.611Z</time>
      </trkpt>
      <trkpt lat="48.0465" lon="6.8394">
        <ele>830</ele>
        <time>2020-10-28T10:15:15.611Z</time>
      </trkpt>
      <trkpt lat="48.0465" lon="6.83941">
        <ele>830</ele>
        <time>2020-10-28T10:15:43.764Z</time>
      </trkpt>
      <trkpt lat="48.04651" lon="6.83943">
        <ele>830</ele>
        <time>2020-10-28T10:15:44.764Z</time>
      </trkpt>
      <trkpt lat="48.04651" lon="6.83945">
        <ele>831</ele>
        <time>2020-10-28T10:15:45.764Z</time>
      </trkpt>
      <trkpt lat="48.04652" lon="6.83946">
        <ele>830</ele>
        <time>2020-10-28T10:15:46.764Z</time>
      </trkpt>
      <trkpt lat="48.04653" lon="6.83947">
        <ele>830</ele>
        <time>2020-10-28T10:15:47.765Z</time>
      </trkpt>
      <trkpt lat="48.04654" lon="6.83949">
        <ele>830</ele>
        <time>2020-10-28T10:15:48.765Z</time>
      </trkpt>
      <trkpt lat="48.04655" lon="6.83951">
        <ele>830</ele>
        <time>2020-10-28T10:15:49.764Z</time>
      </trkpt>
      <trkpt lat="48.04655" lon="6.83952">
        <ele>829</ele>
        <time>2020-10-28T10:15:50.764Z</time>
      </trkpt>
      <trkpt lat="48.04656" lon="6.83954">
        <ele>829</ele>
        <time>2020-10-28T10:15:51.764Z</time>
      </trkpt>
      <trkpt lat="48.04657" lon="6.83955">
        <ele>829</ele>
        <time>2020-10-28T10:15:52.764Z</time>
      </trkpt>
      <trkpt lat="48.04658" lon="6.83956">
        <ele>829</ele>
        <time>2020-10-28T10:15:53.765Z</time>
      </trkpt>
      <trkpt lat="48.04658" lon="6.83958">
        <ele>829</ele>
        <time>2020-10-28T10:15:54.765Z</time>
      </trkpt>
      <trkpt lat="48.04659" lon="6.8396">
        <ele>828</ele>
        <time>2020-10-28T10:15:55.765Z</time>
      </trkpt>
      <trkpt lat="48.04659" lon="6.83961">
        <ele>828</ele>
        <time>2020-10-28T10:15:56.764Z</time>
      </trkpt>
      <trkpt lat="48.0466" lon="6.83963">
        <ele>827</ele>
        <time>2020-10-28T10:15:57.764Z</time>
      </trkpt>
      <trkpt lat="48.04661" lon="6.83966">
        <ele>827</ele>
        <time>2020-10-28T10:15:58.765Z</time>
      </trkpt>
      <trkpt lat="48.04662" lon="6.83968">
        <ele>826</ele>
        <time>2020-10-28T10:15:59.765Z</time>
      </trkpt>
      <trkpt lat="48.04663" lon="6.83971">
        <ele>826</ele>
        <time>2020-10-28T10:16:00.765Z</time>
      </trkpt>
      <trkpt lat="48.04663" lon="6.83972">
        <ele>825</ele>
        <time>2020-10-28T10:16:01.764Z</time>
      </trkpt>
      <trkpt lat="48.04664" lon="6.83974">
        <ele>825</ele>
        <time>2020-10-28T10:16:02.764Z</time>
      </trkpt>
      <trkpt lat="48.04664" lon="6.83976">
        <ele>824</ele>
        <time>2020-10-28T10:16:03.765Z</time>
      </trkpt>
      <trkpt lat="48.04665" lon="6.83978">
        <ele>823</ele>
        <time>2020-10-28T10:16:04.765Z</time>
      </trkpt>
      <trkpt lat="48.04666" lon="6.83981">
        <ele>823</ele>
        <time>2020-10-28T10:16:05.764Z</time>
      </trkpt>
      <trkpt lat="48.04666" lon="6.83982">
        <ele>822</ele>
        <time>2020-10-28T10:16:06.764Z</time>
      </trkpt>
      <trkpt lat="48.04667" lon="6.83985">
        <ele>822</ele>
        <time>2020-10-28T10:16:07.765Z</time>
      </trkpt>
      <trkpt lat="48.04667" lon="6.83987">
        <ele>821</ele>
        <time>2020-10-28T10:16:08.765Z</time>
      </trkpt>
      <trkpt lat="48.04667" lon="6.83988">
        <ele>821</ele>
        <time>2020-10-28T10:16:09.765Z</time>
      </trkpt>
      <trkpt lat="48.04667" lon="6.8399">
        <ele>821</ele>
        <time>2020-10-28T10:16:10.764Z</time>
      </trkpt>
      <trkpt lat="48.04667" lon="6.83991">
        <ele>821</ele>
        <time>2020-10-28T10:16:11.765Z</time>
      </trkpt>
      <trkpt lat="48.04667" lon="6.83992">
        <ele>820</ele>
        <time>2020-10-28T10:16:12.765Z</time>
      </trkpt>
      <trkpt lat="48.04667" lon="6.83993">
        <ele>820</ele>
        <time>2020-10-28T10:16:13.764Z</time>
      </trkpt>
      <trkpt lat="48.04664" lon="6.83999">
        <ele>818</ele>
        <time>2020-10-28T10:16:14.764Z</time>
      </trkpt>
      <trkpt lat="48.04665" lon="6.84001">
        <ele>817</ele>
        <time>2020-10-28T10:16:15.764Z</time>
      </trkpt>
      <trkpt lat="48.04665" lon="6.84003">
        <ele>817</ele>
        <time>2020-10-28T10:16:16.765Z</time>
      </trkpt>
      <trkpt lat="48.04665" lon="6.84004">
        <ele>817</ele>
        <time>2020-10-28T10:16:17.765Z</time>
      </trkpt>
      <trkpt lat="48.04666" lon="6.84005">
        <ele>816</ele>
        <time>2020-10-28T10:16:18.764Z</time>
      </trkpt>
      <trkpt lat="48.04667" lon="6.84005">
        <ele>816</ele>
        <time>2020-10-28T10:16:19.764Z</time>
      </trkpt>
      <trkpt lat="48.04668" lon="6.84006">
        <ele>816</ele>
        <time>2020-10-28T10:16:20.764Z</time>
      </trkpt>
      <trkpt lat="48.04668" lon="6.84008">
        <ele>816</ele>
        <time>2020-10-28T10:16:21.764Z</time>
      </trkpt>
      <trkpt lat="48.04669" lon="6.84009">
        <ele>816</ele>
        <time>2020-10-28T10:16:22.764Z</time>
      </trkpt>
      <trkpt lat="48.0467" lon="6.8401">
        <ele>816</ele>
        <time>2020-10-28T10:16:23.764Z</time>
      </trkpt>
      <trkpt lat="48.04671" lon="6.84011">
        <ele>816</ele>
        <time>2020-10-28T10:16:24.764Z</time>
      </trkpt>
      <trkpt lat="48.04672" lon="6.84012">
        <ele>816</ele>
        <time>2020-10-28T10:16:25.765Z</time>
      </trkpt>
      <trkpt lat="48.04672" lon="6.84013">
        <ele>816</ele>
        <time>2020-10-28T10:16:26.764Z</time>
      </trkpt>
      <trkpt lat="48.04673" lon="6.84013">
        <ele>816</ele>
        <time>2020-10-28T10:16:27.764Z</time>
      </trkpt>
      <trkpt lat="48.04674" lon="6.84014">
        <ele>816</ele>
        <time>2020-10-28T10:16:28.764Z</time>
      </trkpt>
      <trkpt lat="48.04675" lon="6.84015">
        <ele>817</ele>
        <time>2020-10-28T10:16:29.764Z</time>
      </trkpt>
      <trkpt lat="48.04676" lon="6.84016">
        <ele>817</ele>
        <time>2020-10-28T10:16:30.764Z</time>
      </trkpt>
      <trkpt lat="48.04677" lon="6.84017">
        <ele>817</ele>
        <time>2020-10-28T10:16:31.765Z</time>
      </trkpt>
      <trkpt lat="48.04678" lon="6.84018">
        <ele>817</ele>
        <time>2020-10-28T10:16:32.764Z</time>
      </trkpt>
      <trkpt lat="48.04678" lon="6.84019">
        <ele>817</ele>
        <time>2020-10-28T10:16:33.764Z</time>
      </trkpt>
      <trkpt lat="48.04678" lon="6.8402">
        <ele>816</ele>
        <time>2020-10-28T10:16:34.765Z</time>
      </trkpt>
      <trkpt lat="48.04679" lon="6.84022">
        <ele>815</ele>
        <time>2020-10-28T10:16:35.765Z</time>
      </trkpt>
      <trkpt lat="48.04679" lon="6.84023">
        <ele>814</ele>
        <time>2020-10-28T10:16:36.765Z</time>
      </trkpt>
      <trkpt lat="48.04679" lon="6.84023">
        <ele>814</ele>
        <time>2020-10-28T10:16:37.764Z</time>
      </trkpt>
      <trkpt lat="48.0468" lon="6.84024">
        <ele>813</ele>
        <time>2020-10-28T10:16:38.764Z</time>
      </trkpt>
      <trkpt lat="48.04681" lon="6.84025">
        <ele>812</ele>
        <time>2020-10-28T10:16:39.765Z</time>
      </trkpt>
      <trkpt lat="48.04682" lon="6.84026">
        <ele>812</ele>
        <time>2020-10-28T10:16:40.765Z</time>
      </trkpt>
      <trkpt lat="48.04682" lon="6.84027">
        <ele>811</ele>
        <time>2020-10-28T10:16:41.764Z</time>
      </trkpt>
      <trkpt lat="48.04683" lon="6.84028">
        <ele>810</ele>
        <time>2020-10-28T10:16:42.764Z</time>
      </trkpt>
      <trkpt lat="48.04683" lon="6.8403">
        <ele>809</ele>
        <time>2020-10-28T10:16:43.764Z</time>
      </trkpt>
      <trkpt lat="48.04684" lon="6.84031">
        <ele>809</ele>
        <time>2020-10-28T10:16:44.764Z</time>
      </trkpt>
      <trkpt lat="48.04685" lon="6.84032">
        <ele>809</ele>
        <time>2020-10-28T10:16:45.765Z</time>
      </trkpt>
      <trkpt lat="48.04686" lon="6.84034">
        <ele>808</ele>
        <time>2020-10-28T10:16:46.764Z</time>
      </trkpt>
      <trkpt lat="48.04686" lon="6.84036">
        <ele>808</ele>
        <time>2020-10-28T10:16:47.764Z</time>
      </trkpt>
      <trkpt lat="48.04687" lon="6.84038">
        <ele>808</ele>
        <time>2020-10-28T10:16:48.764Z</time>
      </trkpt>
      <trkpt lat="48.04687" lon="6.84039">
        <ele>808</ele>
        <time>2020-10-28T10:16:49.764Z</time>
      </trkpt>
      <trkpt lat="48.04687" lon="6.8404">
        <ele>807</ele>
        <time>2020-10-28T10:16:50.764Z</time>
      </trkpt>
      <trkpt lat="48.04687" lon="6.84042">
        <ele>807</ele>
        <time>2020-10-28T10:16:51.764Z</time>
      </trkpt>
      <trkpt lat="48.04687" lon="6.84044">
        <ele>807</ele>
        <time>2020-10-28T10:16:52.764Z</time>
      </trkpt>
      <trkpt lat="48.04687" lon="6.84045">
        <ele>807</ele>
        <time>2020-10-28T10:16:53.764Z</time>
      </trkpt>
      <trkpt lat="48.04687" lon="6.84046">
        <ele>806</ele>
        <time>2020-10-28T10:16:54.765Z</time>
      </trkpt>
      <trkpt lat="48.04687" lon="6.84047">
        <ele>805</ele>
        <time>2020-10-28T10:16:55.765Z</time>
      </trkpt>
      <trkpt lat="48.04687" lon="6.84048">
        <ele>805</ele>
        <time>2020-10-28T10:16:56.765Z</time>
      </trkpt>
      <trkpt lat="48.04688" lon="6.84049">
        <ele>804</ele>
        <time>2020-10-28T10:16:57.764Z</time>
      </trkpt>
      <trkpt lat="48.04688" lon="6.84051">
        <ele>804</ele>
        <time>2020-10-28T10:16:58.764Z</time>
      </trkpt>
      <trkpt lat="48.04688" lon="6.84052">
        <ele>804</ele>
        <time>2020-10-28T10:16:59.765Z</time>
      </trkpt>
      <trkpt lat="48.04689" lon="6.84053">
        <ele>804</ele>
        <time>2020-10-28T10:17:00.764Z</time>
      </trkpt>
      <trkpt lat="48.04689" lon="6.84055">
        <ele>804</ele>
        <time>2020-10-28T10:17:01.764Z</time>
      </trkpt>
      <trkpt lat="48.04689" lon="6.84056">
        <ele>803</ele>
        <time>2020-10-28T10:17:02.764Z</time>
      </trkpt>
      <trkpt lat="48.04689" lon="6.84058">
        <ele>802</ele>
        <time>2020-10-28T10:17:03.765Z</time>
      </trkpt>
      <trkpt lat="48.0469" lon="6.84059">
        <ele>801</ele>
        <time>2020-10-28T10:17:04.765Z</time>
      </trkpt>
      <trkpt lat="48.04691" lon="6.8406">
        <ele>801</ele>
        <time>2020-10-28T10:17:07.873Z</time>
      </trkpt>
      <trkpt lat="48.04693" lon="6.84061">
        <ele>800</ele>
        <time>2020-10-28T10:17:08.873Z</time>
      </trkpt>
      <trkpt lat="48.04694" lon="6.84061">
        <ele>799</ele>
        <time>2020-10-28T10:17:09.873Z</time>
      </trkpt>
      <trkpt lat="48.04695" lon="6.84063">
        <ele>799</ele>
        <time>2020-10-28T10:17:10.873Z</time>
      </trkpt>
      <trkpt lat="48.04696" lon="6.84064">
        <ele>798</ele>
        <time>2020-10-28T10:17:12.969Z</time>
      </trkpt>
      <trkpt lat="48.04697" lon="6.84066">
        <ele>798</ele>
        <time>2020-10-28T10:17:13.969Z</time>
      </trkpt>
      <trkpt lat="48.04697" lon="6.84069">
        <ele>798</ele>
        <time>2020-10-28T10:17:14.969Z</time>
      </trkpt>
      <trkpt lat="48.04698" lon="6.84071">
        <ele>798</ele>
        <time>2020-10-28T10:17:15.969Z</time>
      </trkpt>
      <trkpt lat="48.04699" lon="6.84073">
        <ele>798</ele>
        <time>2020-10-28T10:17:16.969Z</time>
      </trkpt>
      <trkpt lat="48.047" lon="6.84075">
        <ele>798</ele>
        <time>2020-10-28T10:17:24.114Z</time>
      </trkpt>
      <trkpt lat="48.04702" lon="6.84078">
        <ele>798</ele>
        <time>2020-10-28T10:17:25.114Z</time>
      </trkpt>
      <trkpt lat="48.04703" lon="6.84079">
        <ele>799</ele>
        <time>2020-10-28T10:17:26.115Z</time>
      </trkpt>
      <trkpt lat="48.04703" lon="6.84081">
        <ele>799</ele>
        <time>2020-10-28T10:17:34.256Z</time>
      </trkpt>
      <trkpt lat="48.04704" lon="6.84081">
        <ele>799</ele>
        <time>2020-10-28T10:17:35.257Z</time>
      </trkpt>
      <trkpt lat="48.04704" lon="6.84082">
        <ele>799</ele>
        <time>2020-10-28T10:18:19.132Z</time>
      </trkpt>
      <trkpt lat="48.04705" lon="6.84082">
        <ele>799</ele>
        <time>2020-10-28T10:18:20.131Z</time>
      </trkpt>
      <trkpt lat="48.04706" lon="6.84083">
        <ele>799</ele>
        <time>2020-10-28T10:18:21.979Z</time>
      </trkpt>
      <trkpt lat="48.04706" lon="6.84083">
        <ele>799</ele>
        <time>2020-10-28T10:18:22.979Z</time>
      </trkpt>
      <trkpt lat="48.04706" lon="6.84084">
        <ele>799</ele>
        <time>2020-10-28T10:18:23.979Z</time>
      </trkpt>
      <trkpt lat="48.04706" lon="6.84085">
        <ele>799</ele>
        <time>2020-10-28T10:18:24.980Z</time>
      </trkpt>
      <trkpt lat="48.04706" lon="6.84086">
        <ele>799</ele>
        <time>2020-10-28T10:18:25.981Z</time>
      </trkpt>
      <trkpt lat="48.04706" lon="6.84087">
        <ele>799</ele>
        <time>2020-10-28T10:20:28.135Z</time>
      </trkpt>
      <trkpt lat="48.04707" lon="6.84089">
        <ele>798</ele>
        <time>2020-10-28T10:20:29.134Z</time>
      </trkpt>
      <trkpt lat="48.04707" lon="6.84091">
        <ele>798</ele>
        <time>2020-10-28T10:20:30.135Z</time>
      </trkpt>
      <trkpt lat="48.04707" lon="6.84093">
        <ele>798</ele>
        <time>2020-10-28T10:20:31.135Z</time>
      </trkpt>
      <trkpt lat="48.04708" lon="6.84094">
        <ele>798</ele>
        <time>2020-10-28T10:20:32.134Z</time>
      </trkpt>
      <trkpt lat="48.04709" lon="6.84097">
        <ele>798</ele>
        <time>2020-10-28T10:20:33.135Z</time>
      </trkpt>
      <trkpt lat="48.04711" lon="6.84099">
        <ele>798</ele>
        <time>2020-10-28T10:20:34.135Z</time>
      </trkpt>
      <trkpt lat="48.04711" lon="6.841">
        <ele>798</ele>
        <time>2020-10-28T10:20:35.134Z</time>
      </trkpt>
      <trkpt lat="48.04712" lon="6.84102">
        <ele>798</ele>
        <time>2020-10-28T10:20:36.135Z</time>
      </trkpt>
      <trkpt lat="48.04712" lon="6.84104">
        <ele>798</ele>
        <time>2020-10-28T10:20:37.134Z</time>
      </trkpt>
      <trkpt lat="48.04712" lon="6.84106">
        <ele>797</ele>
        <time>2020-10-28T10:20:38.135Z</time>
      </trkpt>
      <trkpt lat="48.04711" lon="6.84108">
        <ele>797</ele>
        <time>2020-10-28T10:20:39.135Z</time>
      </trkpt>
      <trkpt lat="48.04711" lon="6.8411">
        <ele>796</ele>
        <time>2020-10-28T10:20:40.135Z</time>
      </trkpt>
      <trkpt lat="48.0471" lon="6.84111">
        <ele>796</ele>
        <time>2020-10-28T10:20:41.135Z</time>
      </trkpt>
      <trkpt lat="48.04709" lon="6.84113">
        <ele>796</ele>
        <time>2020-10-28T10:20:42.135Z</time>
      </trkpt>
      <trkpt lat="48.04708" lon="6.84114">
        <ele>796</ele>
        <time>2020-10-28T10:20:43.135Z</time>
      </trkpt>
      <trkpt lat="48.04708" lon="6.84116">
        <ele>796</ele>
        <time>2020-10-28T10:20:44.134Z</time>
      </trkpt>
      <trkpt lat="48.04707" lon="6.84118">
        <ele>796</ele>
        <time>2020-10-28T10:20:45.135Z</time>
      </trkpt>
      <trkpt lat="48.04707" lon="6.8412">
        <ele>796</ele>
        <time>2020-10-28T10:20:46.135Z</time>
      </trkpt>
      <trkpt lat="48.04706" lon="6.84121">
        <ele>795</ele>
        <time>2020-10-28T10:20:47.135Z</time>
      </trkpt>
      <trkpt lat="48.04705" lon="6.84122">
        <ele>795</ele>
        <time>2020-10-28T10:20:48.135Z</time>
      </trkpt>
      <trkpt lat="48.04705" lon="6.84124">
        <ele>795</ele>
        <time>2020-10-28T10:20:49.135Z</time>
      </trkpt>
      <trkpt lat="48.04704" lon="6.84125">
        <ele>795</ele>
        <time>2020-10-28T10:20:50.135Z</time>
      </trkpt>
      <trkpt lat="48.04703" lon="6.84126">
        <ele>795</ele>
        <time>2020-10-28T10:20:51.135Z</time>
      </trkpt>
      <trkpt lat="48.04703" lon="6.84128">
        <ele>795</ele>
        <time>2020-10-28T10:20:52.135Z</time>
      </trkpt>
      <trkpt lat="48.04702" lon="6.84129">
        <ele>795</ele>
        <time>2020-10-28T10:20:53.135Z</time>
      </trkpt>
      <trkpt lat="48.04701" lon="6.8413">
        <ele>796</ele>
        <time>2020-10-28T10:20:54.135Z</time>
      </trkpt>
      <trkpt lat="48.04701" lon="6.84132">
        <ele>796</ele>
        <time>2020-10-28T10:20:55.135Z</time>
      </trkpt>
      <trkpt lat="48.047" lon="6.84134">
        <ele>796</ele>
        <time>2020-10-28T10:20:56.135Z</time>
      </trkpt>
      <trkpt lat="48.047" lon="6.84136">
        <ele>796</ele>
        <time>2020-10-28T10:20:57.135Z</time>
      </trkpt>
      <trkpt lat="48.047" lon="6.84137">
        <ele>796</ele>
        <time>2020-10-28T10:20:58.135Z</time>
      </trkpt>
      <trkpt lat="48.047" lon="6.84139">
        <ele>796</ele>
        <time>2020-10-28T10:20:59.135Z</time>
      </trkpt>
      <trkpt lat="48.047" lon="6.84141">
        <ele>796</ele>
        <time>2020-10-28T10:21:00.135Z</time>
      </trkpt>
      <trkpt lat="48.047" lon="6.84145">
        <ele>796</ele>
        <time>2020-10-28T10:21:01.135Z</time>
      </trkpt>
      <trkpt lat="48.04698" lon="6.84148">
        <ele>795</ele>
        <time>2020-10-28T10:21:02.134Z</time>
      </trkpt>
      <trkpt lat="48.04697" lon="6.84151">
        <ele>795</ele>
        <time>2020-10-28T10:21:03.134Z</time>
      </trkpt>
      <trkpt lat="48.04696" lon="6.84154">
        <ele>795</ele>
        <time>2020-10-28T10:21:04.135Z</time>
      </trkpt>
      <trkpt lat="48.04695" lon="6.84157">
        <ele>795</ele>
        <time>2020-10-28T10:21:05.135Z</time>
      </trkpt>
      <trkpt lat="48.04694" lon="6.84159">
        <ele>795</ele>
        <time>2020-10-28T10:21:06.134Z</time>
      </trkpt>
      <trkpt lat="48.04694" lon="6.8416">
        <ele>795</ele>
        <time>2020-10-28T10:21:10.121Z</time>
      </trkpt>
      <trkpt lat="48.04694" lon="6.84162">
        <ele>794</ele>
        <time>2020-10-28T10:21:11.121Z</time>
      </trkpt>
      <trkpt lat="48.04694" lon="6.84164">
        <ele>795</ele>
        <time>2020-10-28T10:21:12.121Z</time>
      </trkpt>
      <trkpt lat="48.04694" lon="6.84166">
        <ele>795</ele>
        <time>2020-10-28T10:21:13.121Z</time>
      </trkpt>
      <trkpt lat="48.04694" lon="6.84168">
        <ele>795</ele>
        <time>2020-10-28T10:21:14.120Z</time>
      </trkpt>
      <trkpt lat="48.04695" lon="6.8417">
        <ele>795</ele>
        <time>2020-10-28T10:21:15.121Z</time>
      </trkpt>
      <trkpt lat="48.04695" lon="6.84172">
        <ele>795</ele>
        <time>2020-10-28T10:21:16.121Z</time>
      </trkpt>
      <trkpt lat="48.04695" lon="6.84174">
        <ele>795</ele>
        <time>2020-10-28T10:21:17.121Z</time>
      </trkpt>
      <trkpt lat="48.04695" lon="6.84175">
        <ele>795</ele>
        <time>2020-10-28T10:21:18.121Z</time>
      </trkpt>
      <trkpt lat="48.04695" lon="6.84177">
        <ele>795</ele>
        <time>2020-10-28T10:21:19.121Z</time>
      </trkpt>
      <trkpt lat="48.04695" lon="6.8418">
        <ele>794</ele>
        <time>2020-10-28T10:21:20.121Z</time>
      </trkpt>
      <trkpt lat="48.04695" lon="6.84182">
        <ele>794</ele>
        <time>2020-10-28T10:21:21.121Z</time>
      </trkpt>
      <trkpt lat="48.04695" lon="6.84185">
        <ele>793</ele>
        <time>2020-10-28T10:21:22.121Z</time>
      </trkpt>
      <trkpt lat="48.04696" lon="6.84187">
        <ele>793</ele>
        <time>2020-10-28T10:21:23.121Z</time>
      </trkpt>
      <trkpt lat="48.04697" lon="6.84189">
        <ele>792</ele>
        <time>2020-10-28T10:21:24.121Z</time>
      </trkpt>
      <trkpt lat="48.04698" lon="6.84191">
        <ele>791</ele>
        <time>2020-10-28T10:21:25.121Z</time>
      </trkpt>
      <trkpt lat="48.047" lon="6.84193">
        <ele>791</ele>
        <time>2020-10-28T10:21:26.121Z</time>
      </trkpt>
      <trkpt lat="48.04701" lon="6.84195">
        <ele>790</ele>
        <time>2020-10-28T10:21:27.121Z</time>
      </trkpt>
      <trkpt lat="48.04702" lon="6.84197">
        <ele>790</ele>
        <time>2020-10-28T10:21:28.121Z</time>
      </trkpt>
      <trkpt lat="48.04703" lon="6.84199">
        <ele>791</ele>
        <time>2020-10-28T10:21:29.121Z</time>
      </trkpt>
      <trkpt lat="48.04704" lon="6.842">
        <ele>791</ele>
        <time>2020-10-28T10:21:30.120Z</time>
      </trkpt>
      <trkpt lat="48.04705" lon="6.84203">
        <ele>791</ele>
        <time>2020-10-28T10:21:31.120Z</time>
      </trkpt>
      <trkpt lat="48.04706" lon="6.84205">
        <ele>790</ele>
        <time>2020-10-28T10:21:32.121Z</time>
      </trkpt>
      <trkpt lat="48.04707" lon="6.84207">
        <ele>790</ele>
        <time>2020-10-28T10:21:33.120Z</time>
      </trkpt>
      <trkpt lat="48.04708" lon="6.84208">
        <ele>791</ele>
        <time>2020-10-28T10:21:34.121Z</time>
      </trkpt>
      <trkpt lat="48.04709" lon="6.84209">
        <ele>791</ele>
        <time>2020-10-28T10:21:35.121Z</time>
      </trkpt>
      <trkpt lat="48.0471" lon="6.84211">
        <ele>791</ele>
        <time>2020-10-28T10:21:36.121Z</time>
      </trkpt>
      <trkpt lat="48.04711" lon="6.84212">
        <ele>791</ele>
        <time>2020-10-28T10:21:37.121Z</time>
      </trkpt>
      <trkpt lat="48.04712" lon="6.84215">
        <ele>790</ele>
        <time>2020-10-28T10:21:38.121Z</time>
      </trkpt>
      <trkpt lat="48.04713" lon="6.84216">
        <ele>790</ele>
        <time>2020-10-28T10:21:39.121Z</time>
      </trkpt>
      <trkpt lat="48.04714" lon="6.84218">
        <ele>790</ele>
        <time>2020-10-28T10:21:40.121Z</time>
      </trkpt>
      <trkpt lat="48.04714" lon="6.84219">
        <ele>790</ele>
        <time>2020-10-28T10:21:41.121Z</time>
      </trkpt>
      <trkpt lat="48.04715" lon="6.84222">
        <ele>789</ele>
        <time>2020-10-28T10:21:42.121Z</time>
      </trkpt>
      <trkpt lat="48.04715" lon="6.84224">
        <ele>789</ele>
        <time>2020-10-28T10:21:43.121Z</time>
      </trkpt>
      <trkpt lat="48.04716" lon="6.84225">
        <ele>789</ele>
        <time>2020-10-28T10:21:44.121Z</time>
      </trkpt>
      <trkpt lat="48.04717" lon="6.84227">
        <ele>789</ele>
        <time>2020-10-28T10:21:45.121Z</time>
      </trkpt>
      <trkpt lat="48.04717" lon="6.84229">
        <ele>789</ele>
        <time>2020-10-28T10:21:46.121Z</time>
      </trkpt>
      <trkpt lat="48.04718" lon="6.84232">
        <ele>789</ele>
        <time>2020-10-28T10:21:47.121Z</time>
      </trkpt>
      <trkpt lat="48.04718" lon="6.84234">
        <ele>789</ele>
        <time>2020-10-28T10:21:48.121Z</time>
      </trkpt>
      <trkpt lat="48.04718" lon="6.84236">
        <ele>788</ele>
        <time>2020-10-28T10:21:49.120Z</time>
      </trkpt>
      <trkpt lat="48.04718" lon="6.84237">
        <ele>788</ele>
        <time>2020-10-28T10:21:50.121Z</time>
      </trkpt>
      <trkpt lat="48.04719" lon="6.84237">
        <ele>788</ele>
        <time>2020-10-28T10:21:51.120Z</time>
      </trkpt>
      <trkpt lat="48.0472" lon="6.84237">
        <ele>788</ele>
        <time>2020-10-28T10:21:52.121Z</time>
      </trkpt>
      <trkpt lat="48.0472" lon="6.84236">
        <ele>788</ele>
        <time>2020-10-28T10:21:53.121Z</time>
      </trkpt>
      <trkpt lat="48.04721" lon="6.84236">
        <ele>788</ele>
        <time>2020-10-28T10:21:54.121Z</time>
      </trkpt>
      <trkpt lat="48.04721" lon="6.84236">
        <ele>787</ele>
        <time>2020-10-28T10:21:55.121Z</time>
      </trkpt>
      <trkpt lat="48.04722" lon="6.84237">
        <ele>787</ele>
        <time>2020-10-28T10:21:56.121Z</time>
      </trkpt>
      <trkpt lat="48.04723" lon="6.84237">
        <ele>788</ele>
        <time>2020-10-28T10:21:57.121Z</time>
      </trkpt>
      <trkpt lat="48.04723" lon="6.84237">
        <ele>787</ele>
        <time>2020-10-28T10:21:58.121Z</time>
      </trkpt>
      <trkpt lat="48.04724" lon="6.84237">
        <ele>787</ele>
        <time>2020-10-28T10:21:59.120Z</time>
      </trkpt>
      <trkpt lat="48.04725" lon="6.84238">
        <ele>787</ele>
        <time>2020-10-28T10:22:00.121Z</time>
      </trkpt>
      <trkpt lat="48.04725" lon="6.84239">
        <ele>787</ele>
        <time>2020-10-28T10:22:01.121Z</time>
      </trkpt>
      <trkpt lat="48.04725" lon="6.84241">
        <ele>787</ele>
        <time>2020-10-28T10:22:02.121Z</time>
      </trkpt>
      <trkpt lat="48.04725" lon="6.84243">
        <ele>786</ele>
        <time>2020-10-28T10:22:03.121Z</time>
      </trkpt>
      <trkpt lat="48.04725" lon="6.84244">
        <ele>786</ele>
        <time>2020-10-28T10:22:04.120Z</time>
      </trkpt>
      <trkpt lat="48.04726" lon="6.84245">
        <ele>786</ele>
        <time>2020-10-28T10:22:05.121Z</time>
      </trkpt>
      <trkpt lat="48.04727" lon="6.84245">
        <ele>786</ele>
        <time>2020-10-28T10:22:06.121Z</time>
      </trkpt>
      <trkpt lat="48.04727" lon="6.84245">
        <ele>786</ele>
        <time>2020-10-28T10:22:07.121Z</time>
      </trkpt>
      <trkpt lat="48.04727" lon="6.84245">
        <ele>786</ele>
        <time>2020-10-28T10:22:08.121Z</time>
      </trkpt>
      <trkpt lat="48.04727" lon="6.84245">
        <ele>786</ele>
        <time>2020-10-28T10:22:09.121Z</time>
      </trkpt>
      <trkpt lat="48.04727" lon="6.84246">
        <ele>786</ele>
        <time>2020-10-28T10:22:10.121Z</time>
      </trkpt>
      <trkpt lat="48.04727" lon="6.84246">
        <ele>786</ele>
        <time>2020-10-28T10:22:11.121Z</time>
      </trkpt>
      <trkpt lat="48.04728" lon="6.84247">
        <ele>786</ele>
        <time>2020-10-28T10:22:12.121Z</time>
      </trkpt>
      <trkpt lat="48.04728" lon="6.84247">
        <ele>786</ele>
        <time>2020-10-28T10:22:13.121Z</time>
      </trkpt>
      <trkpt lat="48.04728" lon="6.84247">
        <ele>786</ele>
        <time>2020-10-28T10:22:14.121Z</time>
      </trkpt>
      <trkpt lat="48.04729" lon="6.84247">
        <ele>785</ele>
        <time>2020-10-28T10:22:15.121Z</time>
      </trkpt>
      <trkpt lat="48.0473" lon="6.84247">
        <ele>785</ele>
        <time>2020-10-28T10:22:16.120Z</time>
      </trkpt>
      <trkpt lat="48.0473" lon="6.84248">
        <ele>784</ele>
        <time>2020-10-28T10:22:17.121Z</time>
      </trkpt>
      <trkpt lat="48.04731" lon="6.84248">
        <ele>784</ele>
        <time>2020-10-28T10:22:18.121Z</time>
      </trkpt>
      <trkpt lat="48.04732" lon="6.84249">
        <ele>783</ele>
        <time>2020-10-28T10:22:19.121Z</time>
      </trkpt>
      <trkpt lat="48.04733" lon="6.84249">
        <ele>783</ele>
        <time>2020-10-28T10:22:20.121Z</time>
      </trkpt>
      <trkpt lat="48.04734" lon="6.8425">
        <ele>783</ele>
        <time>2020-10-28T10:22:21.120Z</time>
      </trkpt>
      <trkpt lat="48.04735" lon="6.8425">
        <ele>783</ele>
        <time>2020-10-28T10:22:22.121Z</time>
      </trkpt>
      <trkpt lat="48.04736" lon="6.84251">
        <ele>782</ele>
        <time>2020-10-28T10:22:25.241Z</time>
      </trkpt>
      <trkpt lat="48.04736" lon="6.84252">
        <ele>783</ele>
        <time>2020-10-28T10:22:26.241Z</time>
      </trkpt>
      <trkpt lat="48.04736" lon="6.84253">
        <ele>783</ele>
        <time>2020-10-28T10:22:27.241Z</time>
      </trkpt>
      <trkpt lat="48.04736" lon="6.84254">
        <ele>784</ele>
        <time>2020-10-28T10:22:28.241Z</time>
      </trkpt>
      <trkpt lat="48.04736" lon="6.84254">
        <ele>785</ele>
        <time>2020-10-28T10:22:29.241Z</time>
      </trkpt>
      <trkpt lat="48.04737" lon="6.84255">
        <ele>785</ele>
        <time>2020-10-28T10:22:30.241Z</time>
      </trkpt>
      <trkpt lat="48.04737" lon="6.84256">
        <ele>786</ele>
        <time>2020-10-28T10:22:31.240Z</time>
      </trkpt>
      <trkpt lat="48.04738" lon="6.84256">
        <ele>787</ele>
        <time>2020-10-28T10:22:32.240Z</time>
      </trkpt>
      <trkpt lat="48.04738" lon="6.84257">
        <ele>787</ele>
        <time>2020-10-28T10:22:33.241Z</time>
      </trkpt>
      <trkpt lat="48.04739" lon="6.84258">
        <ele>787</ele>
        <time>2020-10-28T10:22:34.241Z</time>
      </trkpt>
      <trkpt lat="48.04739" lon="6.84259">
        <ele>787</ele>
        <time>2020-10-28T10:22:35.241Z</time>
      </trkpt>
      <trkpt lat="48.04739" lon="6.8426">
        <ele>787</ele>
        <time>2020-10-28T10:22:36.241Z</time>
      </trkpt>
      <trkpt lat="48.04741" lon="6.84262">
        <ele>787</ele>
        <time>2020-10-28T10:22:37.241Z</time>
      </trkpt>
      <trkpt lat="48.04742" lon="6.84262">
        <ele>787</ele>
        <time>2020-10-28T10:22:38.241Z</time>
      </trkpt>
      <trkpt lat="48.04743" lon="6.84264">
        <ele>787</ele>
        <time>2020-10-28T10:22:39.240Z</time>
      </trkpt>
      <trkpt lat="48.04744" lon="6.84266">
        <ele>787</ele>
        <time>2020-10-28T10:22:40.241Z</time>
      </trkpt>
      <trkpt lat="48.04746" lon="6.84271">
        <ele>786</ele>
        <time>2020-10-28T10:22:41.241Z</time>
      </trkpt>
      <trkpt lat="48.04747" lon="6.84275">
        <ele>786</ele>
        <time>2020-10-28T10:22:42.240Z</time>
      </trkpt>
      <trkpt lat="48.04748" lon="6.84277">
        <ele>785</ele>
        <time>2020-10-28T10:22:43.241Z</time>
      </trkpt>
      <trkpt lat="48.04749" lon="6.84279">
        <ele>784</ele>
        <time>2020-10-28T10:22:44.241Z</time>
      </trkpt>
      <trkpt lat="48.04749" lon="6.84281">
        <ele>784</ele>
        <time>2020-10-28T10:22:48.228Z</time>
      </trkpt>
      <trkpt lat="48.04749" lon="6.84282">
        <ele>784</ele>
        <time>2020-10-28T10:22:49.228Z</time>
      </trkpt>
      <trkpt lat="48.04748" lon="6.84283">
        <ele>783</ele>
        <time>2020-10-28T10:23:00.105Z</time>
      </trkpt>
      <trkpt lat="48.04747" lon="6.84285">
        <ele>783</ele>
        <time>2020-10-28T10:23:03.996Z</time>
      </trkpt>
      <trkpt lat="48.04746" lon="6.84286">
        <ele>783</ele>
        <time>2020-10-28T10:23:04.996Z</time>
      </trkpt>
      <trkpt lat="48.04746" lon="6.84286">
        <ele>783</ele>
        <time>2020-10-28T10:23:05.995Z</time>
      </trkpt>
      <trkpt lat="48.04746" lon="6.84288">
        <ele>783</ele>
        <time>2020-10-28T10:23:06.995Z</time>
      </trkpt>
      <trkpt lat="48.04746" lon="6.84289">
        <ele>783</ele>
        <time>2020-10-28T10:23:07.996Z</time>
      </trkpt>
      <trkpt lat="48.04746" lon="6.8429">
        <ele>783</ele>
        <time>2020-10-28T10:23:08.996Z</time>
      </trkpt>
      <trkpt lat="48.04747" lon="6.84291">
        <ele>783</ele>
        <time>2020-10-28T10:23:09.996Z</time>
      </trkpt>
      <trkpt lat="48.04747" lon="6.84292">
        <ele>783</ele>
        <time>2020-10-28T10:23:10.996Z</time>
      </trkpt>
      <trkpt lat="48.04747" lon="6.84293">
        <ele>784</ele>
        <time>2020-10-28T10:23:13.952Z</time>
      </trkpt>
      <trkpt lat="48.04746" lon="6.84295">
        <ele>784</ele>
        <time>2020-10-28T10:23:14.953Z</time>
      </trkpt>
      <trkpt lat="48.04746" lon="6.84296">
        <ele>785</ele>
        <time>2020-10-28T10:23:15.953Z</time>
      </trkpt>
      <trkpt lat="48.04745" lon="6.84297">
        <ele>785</ele>
        <time>2020-10-28T10:23:19.987Z</time>
      </trkpt>
      <trkpt lat="48.04744" lon="6.84298">
        <ele>785</ele>
        <time>2020-10-28T10:23:20.988Z</time>
      </trkpt>
      <trkpt lat="48.04743" lon="6.84298">
        <ele>785</ele>
        <time>2020-10-28T10:23:21.988Z</time>
      </trkpt>
      <trkpt lat="48.04742" lon="6.84298">
        <ele>785</ele>
        <time>2020-10-28T10:23:25.000Z</time>
      </trkpt>
      <trkpt lat="48.04741" lon="6.84299">
        <ele>786</ele>
        <time>2020-10-28T10:23:25.999Z</time>
      </trkpt>
      <trkpt lat="48.04741" lon="6.843">
        <ele>786</ele>
        <time>2020-10-28T10:23:26.999Z</time>
      </trkpt>
      <trkpt lat="48.0474" lon="6.84301">
        <ele>787</ele>
        <time>2020-10-28T10:23:28.000Z</time>
      </trkpt>
      <trkpt lat="48.0474" lon="6.84301">
        <ele>787</ele>
        <time>2020-10-28T10:23:42.021Z</time>
      </trkpt>
      <trkpt lat="48.04739" lon="6.84301">
        <ele>787</ele>
        <time>2020-10-28T10:23:43.020Z</time>
      </trkpt>
      <trkpt lat="48.04741" lon="6.84303">
        <ele>773</ele>
        <time>2020-10-28T10:23:44.022Z</time>
      </trkpt>
      <trkpt lat="48.04741" lon="6.84305">
        <ele>772</ele>
        <time>2020-10-28T10:23:45.022Z</time>
      </trkpt>
      <trkpt lat="48.04742" lon="6.84306">
        <ele>772</ele>
        <time>2020-10-28T10:23:46.021Z</time>
      </trkpt>
      <trkpt lat="48.04743" lon="6.84308">
        <ele>772</ele>
        <time>2020-10-28T10:23:47.022Z</time>
      </trkpt>
      <trkpt lat="48.04744" lon="6.84309">
        <ele>772</ele>
        <time>2020-10-28T10:23:48.022Z</time>
      </trkpt>
      <trkpt lat="48.04745" lon="6.84309">
        <ele>772</ele>
        <time>2020-10-28T10:23:49.022Z</time>
      </trkpt>
      <trkpt lat="48.04745" lon="6.8431">
        <ele>772</ele>
        <time>2020-10-28T10:23:50.022Z</time>
      </trkpt>
      <trkpt lat="48.04746" lon="6.84312">
        <ele>772</ele>
        <time>2020-10-28T10:23:51.021Z</time>
      </trkpt>
      <trkpt lat="48.04746" lon="6.84313">
        <ele>772</ele>
        <time>2020-10-28T10:23:52.022Z</time>
      </trkpt>
      <trkpt lat="48.04745" lon="6.84315">
        <ele>772</ele>
        <time>2020-10-28T10:23:53.022Z</time>
      </trkpt>
      <trkpt lat="48.04745" lon="6.84315">
        <ele>773</ele>
        <time>2020-10-28T10:23:54.022Z</time>
      </trkpt>
      <trkpt lat="48.04744" lon="6.84316">
        <ele>773</ele>
        <time>2020-10-28T10:23:55.022Z</time>
      </trkpt>
      <trkpt lat="48.04743" lon="6.84316">
        <ele>774</ele>
        <time>2020-10-28T10:23:56.021Z</time>
      </trkpt>
      <trkpt lat="48.04742" lon="6.84316">
        <ele>774</ele>
        <time>2020-10-28T10:23:57.021Z</time>
      </trkpt>
      <trkpt lat="48.04741" lon="6.84315">
        <ele>774</ele>
        <time>2020-10-28T10:23:58.021Z</time>
      </trkpt>
      <trkpt lat="48.04741" lon="6.84314">
        <ele>774</ele>
        <time>2020-10-28T10:23:59.021Z</time>
      </trkpt>
      <trkpt lat="48.0474" lon="6.84313">
        <ele>774</ele>
        <time>2020-10-28T10:24:00.021Z</time>
      </trkpt>
      <trkpt lat="48.0474" lon="6.84313">
        <ele>773</ele>
        <time>2020-10-28T10:24:01.021Z</time>
      </trkpt>
      <trkpt lat="48.0474" lon="6.84312">
        <ele>773</ele>
        <time>2020-10-28T10:24:02.022Z</time>
      </trkpt>
      <trkpt lat="48.04739" lon="6.84312">
        <ele>773</ele>
        <time>2020-10-28T10:24:03.022Z</time>
      </trkpt>
      <trkpt lat="48.04738" lon="6.84313">
        <ele>772</ele>
        <time>2020-10-28T10:24:04.022Z</time>
      </trkpt>
      <trkpt lat="48.04738" lon="6.84313">
        <ele>772</ele>
        <time>2020-10-28T10:24:05.022Z</time>
      </trkpt>
      <trkpt lat="48.04737" lon="6.84313">
        <ele>772</ele>
        <time>2020-10-28T10:24:06.021Z</time>
      </trkpt>
      <trkpt lat="48.04734" lon="6.84313">
        <ele>771</ele>
        <time>2020-10-28T10:24:07.022Z</time>
      </trkpt>
      <trkpt lat="48.04733" lon="6.84313">
        <ele>771</ele>
        <time>2020-10-28T10:24:08.022Z</time>
      </trkpt>
      <trkpt lat="48.04732" lon="6.84313">
        <ele>771</ele>
        <time>2020-10-28T10:24:09.021Z</time>
      </trkpt>
      <trkpt lat="48.04731" lon="6.84313">
        <ele>771</ele>
        <time>2020-10-28T10:24:10.022Z</time>
      </trkpt>
      <trkpt lat="48.0473" lon="6.84313">
        <ele>771</ele>
        <time>2020-10-28T10:24:11.021Z</time>
      </trkpt>
      <trkpt lat="48.04729" lon="6.84313">
        <ele>770</ele>
        <time>2020-10-28T10:24:12.022Z</time>
      </trkpt>
      <trkpt lat="48.04727" lon="6.84313">
        <ele>770</ele>
        <time>2020-10-28T10:24:13.022Z</time>
      </trkpt>
      <trkpt lat="48.04725" lon="6.84313">
        <ele>770</ele>
        <time>2020-10-28T10:24:14.021Z</time>
      </trkpt>
      <trkpt lat="48.04724" lon="6.84313">
        <ele>770</ele>
        <time>2020-10-28T10:24:15.022Z</time>
      </trkpt>
      <trkpt lat="48.04724" lon="6.84312">
        <ele>770</ele>
        <time>2020-10-28T10:24:16.022Z</time>
      </trkpt>
      <trkpt lat="48.04722" lon="6.84313">
        <ele>770</ele>
        <time>2020-10-28T10:24:17.022Z</time>
      </trkpt>
      <trkpt lat="48.04721" lon="6.84312">
        <ele>769</ele>
        <time>2020-10-28T10:24:18.021Z</time>
      </trkpt>
      <trkpt lat="48.04721" lon="6.84311">
        <ele>769</ele>
        <time>2020-10-28T10:24:19.022Z</time>
      </trkpt>
      <trkpt lat="48.0472" lon="6.8431">
        <ele>769</ele>
        <time>2020-10-28T10:24:20.022Z</time>
      </trkpt>
      <trkpt lat="48.04721" lon="6.8431">
        <ele>769</ele>
        <time>2020-10-28T10:24:21.022Z</time>
      </trkpt>
      <trkpt lat="48.04721" lon="6.84308">
        <ele>769</ele>
        <time>2020-10-28T10:24:22.022Z</time>
      </trkpt>
      <trkpt lat="48.0472" lon="6.84307">
        <ele>769</ele>
        <time>2020-10-28T10:24:23.022Z</time>
      </trkpt>
      <trkpt lat="48.0472" lon="6.84306">
        <ele>769</ele>
        <time>2020-10-28T10:24:24.022Z</time>
      </trkpt>
      <trkpt lat="48.04719" lon="6.84306">
        <ele>769</ele>
        <time>2020-10-28T10:24:25.022Z</time>
      </trkpt>
      <trkpt lat="48.04718" lon="6.84305">
        <ele>769</ele>
        <time>2020-10-28T10:24:26.022Z</time>
      </trkpt>
      <trkpt lat="48.04718" lon="6.84305">
        <ele>769</ele>
        <time>2020-10-28T10:24:27.022Z</time>
      </trkpt>
      <trkpt lat="48.04717" lon="6.84305">
        <ele>769</ele>
        <time>2020-10-28T10:24:28.022Z</time>
      </trkpt>
      <trkpt lat="48.04717" lon="6.84305">
        <ele>769</ele>
        <time>2020-10-28T10:24:29.021Z</time>
      </trkpt>
      <trkpt lat="48.04717" lon="6.84305">
        <ele>768</ele>
        <time>2020-10-28T10:24:30.021Z</time>
      </trkpt>
      <trkpt lat="48.04717" lon="6.84306">
        <ele>767</ele>
        <time>2020-10-28T10:24:31.022Z</time>
      </trkpt>
      <trkpt lat="48.04717" lon="6.84306">
        <ele>767</ele>
        <time>2020-10-28T10:24:32.022Z</time>
      </trkpt>
      <trkpt lat="48.04717" lon="6.84306">
        <ele>767</ele>
        <time>2020-10-28T10:24:33.021Z</time>
      </trkpt>
      <trkpt lat="48.04717" lon="6.84306">
        <ele>767</ele>
        <time>2020-10-28T10:24:34.022Z</time>
      </trkpt>
      <trkpt lat="48.04717" lon="6.84305">
        <ele>767</ele>
        <time>2020-10-28T10:24:35.022Z</time>
      </trkpt>
      <trkpt lat="48.04717" lon="6.84304">
        <ele>766</ele>
        <time>2020-10-28T10:24:36.022Z</time>
      </trkpt>
      <trkpt lat="48.04717" lon="6.84303">
        <ele>766</ele>
        <time>2020-10-28T10:24:37.021Z</time>
      </trkpt>
      <trkpt lat="48.04718" lon="6.84303">
        <ele>767</ele>
        <time>2020-10-28T10:24:38.022Z</time>
      </trkpt>
      <trkpt lat="48.04718" lon="6.84302">
        <ele>767</ele>
        <time>2020-10-28T10:24:39.021Z</time>
      </trkpt>
      <trkpt lat="48.04718" lon="6.84302">
        <ele>768</ele>
        <time>2020-10-28T10:24:40.022Z</time>
      </trkpt>
      <trkpt lat="48.04717" lon="6.84301">
        <ele>768</ele>
        <time>2020-10-28T10:24:41.022Z</time>
      </trkpt>
      <trkpt lat="48.04716" lon="6.84301">
        <ele>769</ele>
        <time>2020-10-28T10:24:42.022Z</time>
      </trkpt>
      <trkpt lat="48.04715" lon="6.843">
        <ele>770</ele>
        <time>2020-10-28T10:24:43.021Z</time>
      </trkpt>
      <trkpt lat="48.04715" lon="6.843">
        <ele>770</ele>
        <time>2020-10-28T10:24:44.021Z</time>
      </trkpt>
      <trkpt lat="48.04714" lon="6.84299">
        <ele>771</ele>
        <time>2020-10-28T10:24:45.022Z</time>
      </trkpt>
      <trkpt lat="48.04714" lon="6.84299">
        <ele>771</ele>
        <time>2020-10-28T10:24:46.021Z</time>
      </trkpt>
      <trkpt lat="48.04714" lon="6.84298">
        <ele>772</ele>
        <time>2020-10-28T10:24:47.022Z</time>
      </trkpt>
      <trkpt lat="48.04713" lon="6.84298">
        <ele>772</ele>
        <time>2020-10-28T10:24:48.022Z</time>
      </trkpt>
      <trkpt lat="48.04713" lon="6.84298">
        <ele>772</ele>
        <time>2020-10-28T10:24:49.022Z</time>
      </trkpt>
      <trkpt lat="48.04712" lon="6.84297">
        <ele>773</ele>
        <time>2020-10-28T10:24:50.022Z</time>
      </trkpt>
      <trkpt lat="48.04711" lon="6.84294">
        <ele>778</ele>
        <time>2020-10-28T10:24:51.022Z</time>
      </trkpt>
      <trkpt lat="48.0471" lon="6.84292">
        <ele>779</ele>
        <time>2020-10-28T10:24:52.022Z</time>
      </trkpt>
      <trkpt lat="48.0471" lon="6.84291">
        <ele>780</ele>
        <time>2020-10-28T10:24:53.022Z</time>
      </trkpt>
      <trkpt lat="48.0471" lon="6.84291">
        <ele>780</ele>
        <time>2020-10-28T10:24:54.022Z</time>
      </trkpt>
      <trkpt lat="48.04709" lon="6.84291">
        <ele>781</ele>
        <time>2020-10-28T10:24:55.022Z</time>
      </trkpt>
      <trkpt lat="48.04709" lon="6.84291">
        <ele>782</ele>
        <time>2020-10-28T10:24:56.022Z</time>
      </trkpt>
      <trkpt lat="48.04709" lon="6.84292">
        <ele>783</ele>
        <time>2020-10-28T10:24:57.022Z</time>
      </trkpt>
      <trkpt lat="48.0471" lon="6.84293">
        <ele>783</ele>
        <time>2020-10-28T10:24:58.023Z</time>
      </trkpt>
      <trkpt lat="48.04711" lon="6.84293">
        <ele>783</ele>
        <time>2020-10-28T10:24:59.023Z</time>
      </trkpt>
      <trkpt lat="48.04712" lon="6.84293">
        <ele>783</ele>
        <time>2020-10-28T10:25:00.022Z</time>
      </trkpt>
      <trkpt lat="48.04711" lon="6.84292">
        <ele>783</ele>
        <time>2020-10-28T10:25:01.023Z</time>
      </trkpt>
      <trkpt lat="48.04711" lon="6.84292">
        <ele>782</ele>
        <time>2020-10-28T10:25:02.023Z</time>
      </trkpt>
      <trkpt lat="48.04711" lon="6.84292">
        <ele>782</ele>
        <time>2020-10-28T10:25:03.022Z</time>
      </trkpt>
      <trkpt lat="48.04711" lon="6.84292">
        <ele>781</ele>
        <time>2020-10-28T10:25:04.023Z</time>
      </trkpt>
      <trkpt lat="48.04711" lon="6.84293">
        <ele>781</ele>
        <time>2020-10-28T10:25:05.023Z</time>
      </trkpt>
      <trkpt lat="48.04711" lon="6.84293">
        <ele>780</ele>
        <time>2020-10-28T10:25:06.022Z</time>
      </trkpt>
      <trkpt lat="48.04711" lon="6.84294">
        <ele>780</ele>
        <time>2020-10-28T10:25:07.023Z</time>
      </trkpt>
      <trkpt lat="48.04711" lon="6.84295">
        <ele>780</ele>
        <time>2020-10-28T10:25:08.022Z</time>
      </trkpt>
      <trkpt lat="48.04712" lon="6.84294">
        <ele>780</ele>
        <time>2020-10-28T10:25:09.023Z</time>
      </trkpt>
      <trkpt lat="48.04714" lon="6.84293">
        <ele>780</ele>
        <time>2020-10-28T10:25:10.023Z</time>
      </trkpt>
      <trkpt lat="48.04716" lon="6.84293">
        <ele>781</ele>
        <time>2020-10-28T10:25:11.024Z</time>
      </trkpt>
      <trkpt lat="48.04718" lon="6.84294">
        <ele>780</ele>
        <time>2020-10-28T10:25:12.024Z</time>
      </trkpt>
      <trkpt lat="48.04718" lon="6.84295">
        <ele>780</ele>
        <time>2020-10-28T10:25:13.024Z</time>
      </trkpt>
      <trkpt lat="48.04718" lon="6.84295">
        <ele>780</ele>
        <time>2020-10-28T10:25:14.023Z</time>
      </trkpt>
      <trkpt lat="48.0472" lon="6.84306">
        <ele>780</ele>
        <time>2020-10-28T10:25:15.025Z</time>
      </trkpt>
      <trkpt lat="48.04722" lon="6.84306">
        <ele>780</ele>
        <time>2020-10-28T10:25:16.025Z</time>
      </trkpt>
      <trkpt lat="48.04723" lon="6.84306">
        <ele>780</ele>
        <time>2020-10-28T10:25:17.025Z</time>
      </trkpt>
      <trkpt lat="48.04724" lon="6.84306">
        <ele>780</ele>
        <time>2020-10-28T10:25:18.024Z</time>
      </trkpt>
      <trkpt lat="48.04724" lon="6.84307">
        <ele>780</ele>
        <time>2020-10-28T10:25:19.025Z</time>
      </trkpt>
      <trkpt lat="48.04724" lon="6.84307">
        <ele>780</ele>
        <time>2020-10-28T10:25:20.024Z</time>
      </trkpt>
      <trkpt lat="48.04725" lon="6.84307">
        <ele>780</ele>
        <time>2020-10-28T10:25:21.024Z</time>
      </trkpt>
      <trkpt lat="48.04724" lon="6.84304">
        <ele>769</ele>
        <time>2020-10-28T10:25:22.025Z</time>
      </trkpt>
      <trkpt lat="48.04723" lon="6.84303">
        <ele>769</ele>
        <time>2020-10-28T10:25:23.025Z</time>
      </trkpt>
      <trkpt lat="48.04723" lon="6.84302">
        <ele>769</ele>
        <time>2020-10-28T10:25:24.025Z</time>
      </trkpt>
      <trkpt lat="48.04722" lon="6.843">
        <ele>769</ele>
        <time>2020-10-28T10:25:25.025Z</time>
      </trkpt>
      <trkpt lat="48.04722" lon="6.84299">
        <ele>769</ele>
        <time>2020-10-28T10:25:26.025Z</time>
      </trkpt>
      <trkpt lat="48.04722" lon="6.84298">
        <ele>769</ele>
        <time>2020-10-28T10:25:27.025Z</time>
      </trkpt>
      <trkpt lat="48.04721" lon="6.84298">
        <ele>768</ele>
        <time>2020-10-28T10:25:28.025Z</time>
      </trkpt>
      <trkpt lat="48.04721" lon="6.84297">
        <ele>768</ele>
        <time>2020-10-28T10:25:29.024Z</time>
      </trkpt>
      <trkpt lat="48.0472" lon="6.84297">
        <ele>767</ele>
        <time>2020-10-28T10:25:30.025Z</time>
      </trkpt>
      <trkpt lat="48.04719" lon="6.84296">
        <ele>767</ele>
        <time>2020-10-28T10:25:31.025Z</time>
      </trkpt>
      <trkpt lat="48.04718" lon="6.84296">
        <ele>767</ele>
        <time>2020-10-28T10:25:32.025Z</time>
      </trkpt>
      <trkpt lat="48.04717" lon="6.84295">
        <ele>766</ele>
        <time>2020-10-28T10:25:33.024Z</time>
      </trkpt>
      <trkpt lat="48.04717" lon="6.84294">
        <ele>766</ele>
        <time>2020-10-28T10:25:34.025Z</time>
      </trkpt>
      <trkpt lat="48.04717" lon="6.84293">
        <ele>766</ele>
        <time>2020-10-28T10:25:35.025Z</time>
      </trkpt>
      <trkpt lat="48.04717" lon="6.84293">
        <ele>766</ele>
        <time>2020-10-28T10:25:36.025Z</time>
      </trkpt>
      <trkpt lat="48.04716" lon="6.84294">
        <ele>766</ele>
        <time>2020-10-28T10:25:37.025Z</time>
      </trkpt>
      <trkpt lat="48.04714" lon="6.84293">
        <ele>766</ele>
        <time>2020-10-28T10:25:38.024Z</time>
      </trkpt>
      <trkpt lat="48.04711" lon="6.84293">
        <ele>767</ele>
        <time>2020-10-28T10:25:39.024Z</time>
      </trkpt>
      <trkpt lat="48.04711" lon="6.84294">
        <ele>767</ele>
        <time>2020-10-28T10:25:40.025Z</time>
      </trkpt>
      <trkpt lat="48.04711" lon="6.84295">
        <ele>768</ele>
        <time>2020-10-28T10:25:41.025Z</time>
      </trkpt>
      <trkpt lat="48.04711" lon="6.84296">
        <ele>768</ele>
        <time>2020-10-28T10:25:42.025Z</time>
      </trkpt>
      <trkpt lat="48.04711" lon="6.84297">
        <ele>768</ele>
        <time>2020-10-28T10:25:43.025Z</time>
      </trkpt>
      <trkpt lat="48.04712" lon="6.84298">
        <ele>768</ele>
        <time>2020-10-28T10:25:44.024Z</time>
      </trkpt>
      <trkpt lat="48.04713" lon="6.843">
        <ele>768</ele>
        <time>2020-10-28T10:25:45.025Z</time>
      </trkpt>
      <trkpt lat="48.04714" lon="6.84301">
        <ele>768</ele>
        <time>2020-10-28T10:25:46.024Z</time>
      </trkpt>
      <trkpt lat="48.04714" lon="6.84301">
        <ele>769</ele>
        <time>2020-10-28T10:25:47.025Z</time>
      </trkpt>
      <trkpt lat="48.04715" lon="6.84301">
        <ele>769</ele>
        <time>2020-10-28T10:25:48.024Z</time>
      </trkpt>
      <trkpt lat="48.04715" lon="6.84301">
        <ele>769</ele>
        <time>2020-10-28T10:25:49.025Z</time>
      </trkpt>
      <trkpt lat="48.04715" lon="6.84301">
        <ele>770</ele>
        <time>2020-10-28T10:25:50.025Z</time>
      </trkpt>
      <trkpt lat="48.04715" lon="6.84302">
        <ele>770</ele>
        <time>2020-10-28T10:25:51.025Z</time>
      </trkpt>
      <trkpt lat="48.04715" lon="6.84303">
        <ele>770</ele>
        <time>2020-10-28T10:25:52.025Z</time>
      </trkpt>
      <trkpt lat="48.04714" lon="6.84304">
        <ele>770</ele>
        <time>2020-10-28T10:25:53.025Z</time>
      </trkpt>
      <trkpt lat="48.04714" lon="6.84305">
        <ele>771</ele>
        <time>2020-10-28T10:25:54.025Z</time>
      </trkpt>
      <trkpt lat="48.04713" lon="6.84306">
        <ele>771</ele>
        <time>2020-10-28T10:25:55.025Z</time>
      </trkpt>
      <trkpt lat="48.04713" lon="6.84307">
        <ele>771</ele>
        <time>2020-10-28T10:25:56.025Z</time>
      </trkpt>
      <trkpt lat="48.04714" lon="6.84308">
        <ele>771</ele>
        <time>2020-10-28T10:25:57.024Z</time>
      </trkpt>
      <trkpt lat="48.04714" lon="6.8431">
        <ele>771</ele>
        <time>2020-10-28T10:25:58.025Z</time>
      </trkpt>
      <trkpt lat="48.04715" lon="6.84311">
        <ele>771</ele>
        <time>2020-10-28T10:25:59.025Z</time>
      </trkpt>
      <trkpt lat="48.04715" lon="6.84311">
        <ele>771</ele>
        <time>2020-10-28T10:26:00.024Z</time>
      </trkpt>
      <trkpt lat="48.04715" lon="6.84313">
        <ele>771</ele>
        <time>2020-10-28T10:26:01.025Z</time>
      </trkpt>
      <trkpt lat="48.04715" lon="6.84314">
        <ele>771</ele>
        <time>2020-10-28T10:26:02.025Z</time>
      </trkpt>
      <trkpt lat="48.04715" lon="6.84315">
        <ele>771</ele>
        <time>2020-10-28T10:26:03.025Z</time>
      </trkpt>
      <trkpt lat="48.04715" lon="6.84316">
        <ele>770</ele>
        <time>2020-10-28T10:26:04.025Z</time>
      </trkpt>
      <trkpt lat="48.04715" lon="6.84317">
        <ele>770</ele>
        <time>2020-10-28T10:26:05.025Z</time>
      </trkpt>
      <trkpt lat="48.04715" lon="6.84318">
        <ele>770</ele>
        <time>2020-10-28T10:26:06.024Z</time>
      </trkpt>
      <trkpt lat="48.04715" lon="6.84319">
        <ele>770</ele>
        <time>2020-10-28T10:26:07.025Z</time>
      </trkpt>
      <trkpt lat="48.04716" lon="6.8432">
        <ele>770</ele>
        <time>2020-10-28T10:26:08.025Z</time>
      </trkpt>
      <trkpt lat="48.04717" lon="6.84322">
        <ele>771</ele>
        <time>2020-10-28T10:26:09.025Z</time>
      </trkpt>
      <trkpt lat="48.04717" lon="6.84324">
        <ele>772</ele>
        <time>2020-10-28T10:26:10.024Z</time>
      </trkpt>
      <trkpt lat="48.04716" lon="6.84325">
        <ele>772</ele>
        <time>2020-10-28T10:26:11.025Z</time>
      </trkpt>
      <trkpt lat="48.04715" lon="6.84326">
        <ele>773</ele>
        <time>2020-10-28T10:26:12.025Z</time>
      </trkpt>
      <trkpt lat="48.04713" lon="6.84327">
        <ele>773</ele>
        <time>2020-10-28T10:26:13.024Z</time>
      </trkpt>
      <trkpt lat="48.04711" lon="6.84327">
        <ele>774</ele>
        <time>2020-10-28T10:26:14.025Z</time>
      </trkpt>
      <trkpt lat="48.0471" lon="6.84327">
        <ele>774</ele>
        <time>2020-10-28T10:26:15.025Z</time>
      </trkpt>
      <trkpt lat="48.04709" lon="6.84326">
        <ele>775</ele>
        <time>2020-10-28T10:26:16.025Z</time>
      </trkpt>
      <trkpt lat="48.04708" lon="6.84326">
        <ele>775</ele>
        <time>2020-10-28T10:26:17.024Z</time>
      </trkpt>
      <trkpt lat="48.04707" lon="6.84325">
        <ele>775</ele>
        <time>2020-10-28T10:26:18.024Z</time>
      </trkpt>
      <trkpt lat="48.04706" lon="6.84325">
        <ele>775</ele>
        <time>2020-10-28T10:26:19.024Z</time>
      </trkpt>
      <trkpt lat="48.04705" lon="6.84325">
        <ele>775</ele>
        <time>2020-10-28T10:26:20.025Z</time>
      </trkpt>
      <trkpt lat="48.04705" lon="6.84325">
        <ele>775</ele>
        <time>2020-10-28T10:26:21.025Z</time>
      </trkpt>
      <trkpt lat="48.04704" lon="6.84325">
        <ele>774</ele>
        <time>2020-10-28T10:26:22.025Z</time>
      </trkpt>
      <trkpt lat="48.04703" lon="6.84325">
        <ele>774</ele>
        <time>2020-10-28T10:26:23.024Z</time>
      </trkpt>
      <trkpt lat="48.04702" lon="6.84325">
        <ele>774</ele>
        <time>2020-10-28T10:26:24.024Z</time>
      </trkpt>
      <trkpt lat="48.04701" lon="6.84326">
        <ele>774</ele>
        <time>2020-10-28T10:26:25.024Z</time>
      </trkpt>
      <trkpt lat="48.047" lon="6.84326">
        <ele>774</ele>
        <time>2020-10-28T10:26:29.117Z</time>
      </trkpt>
      <trkpt lat="48.04699" lon="6.84326">
        <ele>774</ele>
        <time>2020-10-28T10:26:30.117Z</time>
      </trkpt>
      <trkpt lat="48.04698" lon="6.84326">
        <ele>774</ele>
        <time>2020-10-28T10:26:31.116Z</time>
      </trkpt>
      <trkpt lat="48.04696" lon="6.84325">
        <ele>774</ele>
        <time>2020-10-28T10:26:32.117Z</time>
      </trkpt>
      <trkpt lat="48.04695" lon="6.84324">
        <ele>774</ele>
        <time>2020-10-28T10:26:33.117Z</time>
      </trkpt>
      <trkpt lat="48.04694" lon="6.84323">
        <ele>774</ele>
        <time>2020-10-28T10:26:34.117Z</time>
      </trkpt>
      <trkpt lat="48.04694" lon="6.84322">
        <ele>774</ele>
        <time>2020-10-28T10:26:35.117Z</time>
      </trkpt>
      <trkpt lat="48.04693" lon="6.84321">
        <ele>774</ele>
        <time>2020-10-28T10:26:36.116Z</time>
      </trkpt>
      <trkpt lat="48.04692" lon="6.8432">
        <ele>773</ele>
        <time>2020-10-28T10:26:37.116Z</time>
      </trkpt>
      <trkpt lat="48.0469" lon="6.84319">
        <ele>773</ele>
        <time>2020-10-28T10:26:38.116Z</time>
      </trkpt>
      <trkpt lat="48.04689" lon="6.84317">
        <ele>772</ele>
        <time>2020-10-28T10:26:39.117Z</time>
      </trkpt>
      <trkpt lat="48.04689" lon="6.84315">
        <ele>772</ele>
        <time>2020-10-28T10:26:40.117Z</time>
      </trkpt>
      <trkpt lat="48.04689" lon="6.84314">
        <ele>771</ele>
        <time>2020-10-28T10:26:41.116Z</time>
      </trkpt>
      <trkpt lat="48.04688" lon="6.84313">
        <ele>770</ele>
        <time>2020-10-28T10:26:42.116Z</time>
      </trkpt>
      <trkpt lat="48.04687" lon="6.84312">
        <ele>769</ele>
        <time>2020-10-28T10:26:43.117Z</time>
      </trkpt>
      <trkpt lat="48.04686" lon="6.84312">
        <ele>768</ele>
        <time>2020-10-28T10:26:44.117Z</time>
      </trkpt>
      <trkpt lat="48.04685" lon="6.84311">
        <ele>767</ele>
        <time>2020-10-28T10:26:45.117Z</time>
      </trkpt>
      <trkpt lat="48.04685" lon="6.8431">
        <ele>766</ele>
        <time>2020-10-28T10:26:46.116Z</time>
      </trkpt>
      <trkpt lat="48.04683" lon="6.84309">
        <ele>765</ele>
        <time>2020-10-28T10:26:47.116Z</time>
      </trkpt>
      <trkpt lat="48.04683" lon="6.84309">
        <ele>764</ele>
        <time>2020-10-28T10:26:48.116Z</time>
      </trkpt>
      <trkpt lat="48.04682" lon="6.84309">
        <ele>764</ele>
        <time>2020-10-28T10:26:49.117Z</time>
      </trkpt>
      <trkpt lat="48.04681" lon="6.84308">
        <ele>763</ele>
        <time>2020-10-28T10:26:50.117Z</time>
      </trkpt>
      <trkpt lat="48.0468" lon="6.84308">
        <ele>763</ele>
        <time>2020-10-28T10:26:51.117Z</time>
      </trkpt>
      <trkpt lat="48.04679" lon="6.84307">
        <ele>764</ele>
        <time>2020-10-28T10:26:52.116Z</time>
      </trkpt>
      <trkpt lat="48.04679" lon="6.84306">
        <ele>765</ele>
        <time>2020-10-28T10:26:53.117Z</time>
      </trkpt>
      <trkpt lat="48.04678" lon="6.84306">
        <ele>765</ele>
        <time>2020-10-28T10:26:54.117Z</time>
      </trkpt>
      <trkpt lat="48.04677" lon="6.84306">
        <ele>766</ele>
        <time>2020-10-28T10:26:55.117Z</time>
      </trkpt>
      <trkpt lat="48.04676" lon="6.84305">
        <ele>767</ele>
        <time>2020-10-28T10:26:56.116Z</time>
      </trkpt>
      <trkpt lat="48.04676" lon="6.84305">
        <ele>768</ele>
        <time>2020-10-28T10:26:57.117Z</time>
      </trkpt>
      <trkpt lat="48.04675" lon="6.84305">
        <ele>769</ele>
        <time>2020-10-28T10:26:58.116Z</time>
      </trkpt>
      <trkpt lat="48.04674" lon="6.84306">
        <ele>769</ele>
        <time>2020-10-28T10:26:59.116Z</time>
      </trkpt>
      <trkpt lat="48.04672" lon="6.84306">
        <ele>770</ele>
        <time>2020-10-28T10:27:00.116Z</time>
      </trkpt>
      <trkpt lat="48.04672" lon="6.84306">
        <ele>771</ele>
        <time>2020-10-28T10:27:01.117Z</time>
      </trkpt>
      <trkpt lat="48.04671" lon="6.84306">
        <ele>771</ele>
        <time>2020-10-28T10:27:02.117Z</time>
      </trkpt>
      <trkpt lat="48.04671" lon="6.84306">
        <ele>771</ele>
        <time>2020-10-28T10:27:03.116Z</time>
      </trkpt>
      <trkpt lat="48.04671" lon="6.84305">
        <ele>771</ele>
        <time>2020-10-28T10:27:04.116Z</time>
      </trkpt>
      <trkpt lat="48.04671" lon="6.84304">
        <ele>771</ele>
        <time>2020-10-28T10:27:05.116Z</time>
      </trkpt>
      <trkpt lat="48.0467" lon="6.84304">
        <ele>771</ele>
        <time>2020-10-28T10:27:06.117Z</time>
      </trkpt>
      <trkpt lat="48.0467" lon="6.84304">
        <ele>771</ele>
        <time>2020-10-28T10:27:10.228Z</time>
      </trkpt>
      <trkpt lat="48.04669" lon="6.84304">
        <ele>771</ele>
        <time>2020-10-28T10:27:11.228Z</time>
      </trkpt>
      <trkpt lat="48.04669" lon="6.84303">
        <ele>771</ele>
        <time>2020-10-28T10:27:12.228Z</time>
      </trkpt>
      <trkpt lat="48.04669" lon="6.84303">
        <ele>771</ele>
        <time>2020-10-28T10:27:13.228Z</time>
      </trkpt>
      <trkpt lat="48.04669" lon="6.84302">
        <ele>771</ele>
        <time>2020-10-28T10:27:17.227Z</time>
      </trkpt>
      <trkpt lat="48.04669" lon="6.84301">
        <ele>770</ele>
        <time>2020-10-28T10:27:21.107Z</time>
      </trkpt>
      <trkpt lat="48.04669" lon="6.84301">
        <ele>770</ele>
        <time>2020-10-28T10:27:22.107Z</time>
      </trkpt>
      <trkpt lat="48.04668" lon="6.84301">
        <ele>770</ele>
        <time>2020-10-28T10:27:27.990Z</time>
      </trkpt>
      <trkpt lat="48.04667" lon="6.84301">
        <ele>771</ele>
        <time>2020-10-28T10:27:28.991Z</time>
      </trkpt>
      <trkpt lat="48.04665" lon="6.84301">
        <ele>771</ele>
        <time>2020-10-28T10:27:29.990Z</time>
      </trkpt>
      <trkpt lat="48.04664" lon="6.843">
        <ele>771</ele>
        <time>2020-10-28T10:27:30.991Z</time>
      </trkpt>
      <trkpt lat="48.04662" lon="6.843">
        <ele>772</ele>
        <time>2020-10-28T10:27:31.991Z</time>
      </trkpt>
      <trkpt lat="48.0466" lon="6.843">
        <ele>772</ele>
        <time>2020-10-28T10:27:32.990Z</time>
      </trkpt>
      <trkpt lat="48.04659" lon="6.843">
        <ele>772</ele>
        <time>2020-10-28T10:27:33.991Z</time>
      </trkpt>
      <trkpt lat="48.04659" lon="6.843">
        <ele>772</ele>
        <time>2020-10-28T10:27:34.991Z</time>
      </trkpt>
      <trkpt lat="48.04658" lon="6.84299">
        <ele>771</ele>
        <time>2020-10-28T10:27:35.991Z</time>
      </trkpt>
      <trkpt lat="48.04657" lon="6.84299">
        <ele>771</ele>
        <time>2020-10-28T10:27:36.991Z</time>
      </trkpt>
      <trkpt lat="48.04656" lon="6.84299">
        <ele>771</ele>
        <time>2020-10-28T10:27:37.991Z</time>
      </trkpt>
      <trkpt lat="48.04655" lon="6.84299">
        <ele>771</ele>
        <time>2020-10-28T10:27:38.990Z</time>
      </trkpt>
      <trkpt lat="48.04654" lon="6.84298">
        <ele>771</ele>
        <time>2020-10-28T10:27:39.990Z</time>
      </trkpt>
      <trkpt lat="48.04653" lon="6.84297">
        <ele>771</ele>
        <time>2020-10-28T10:27:40.990Z</time>
      </trkpt>
      <trkpt lat="48.04652" lon="6.84296">
        <ele>772</ele>
        <time>2020-10-28T10:27:41.990Z</time>
      </trkpt>
      <trkpt lat="48.04652" lon="6.84295">
        <ele>772</ele>
        <time>2020-10-28T10:27:42.991Z</time>
      </trkpt>
      <trkpt lat="48.04651" lon="6.84294">
        <ele>773</ele>
        <time>2020-10-28T10:27:43.990Z</time>
      </trkpt>
      <trkpt lat="48.04649" lon="6.84292">
        <ele>774</ele>
        <time>2020-10-28T10:27:44.991Z</time>
      </trkpt>
      <trkpt lat="48.04648" lon="6.84292">
        <ele>775</ele>
        <time>2020-10-28T10:27:45.991Z</time>
      </trkpt>
      <trkpt lat="48.04646" lon="6.84291">
        <ele>776</ele>
        <time>2020-10-28T10:27:46.990Z</time>
      </trkpt>
      <trkpt lat="48.04644" lon="6.8429">
        <ele>776</ele>
        <time>2020-10-28T10:27:47.991Z</time>
      </trkpt>
      <trkpt lat="48.04644" lon="6.84289">
        <ele>777</ele>
        <time>2020-10-28T10:27:48.991Z</time>
      </trkpt>
      <trkpt lat="48.04643" lon="6.84289">
        <ele>778</ele>
        <time>2020-10-28T10:27:49.991Z</time>
      </trkpt>
      <trkpt lat="48.04643" lon="6.84288">
        <ele>779</ele>
        <time>2020-10-28T10:27:50.991Z</time>
      </trkpt>
      <trkpt lat="48.04642" lon="6.84287">
        <ele>780</ele>
        <time>2020-10-28T10:27:51.991Z</time>
      </trkpt>
      <trkpt lat="48.04641" lon="6.84285">
        <ele>781</ele>
        <time>2020-10-28T10:27:52.990Z</time>
      </trkpt>
      <trkpt lat="48.0464" lon="6.84284">
        <ele>782</ele>
        <time>2020-10-28T10:27:53.991Z</time>
      </trkpt>
      <trkpt lat="48.04639" lon="6.84283">
        <ele>782</ele>
        <time>2020-10-28T10:27:54.990Z</time>
      </trkpt>
      <trkpt lat="48.04639" lon="6.84282">
        <ele>783</ele>
        <time>2020-10-28T10:27:55.991Z</time>
      </trkpt>
      <trkpt lat="48.04637" lon="6.84281">
        <ele>784</ele>
        <time>2020-10-28T10:27:56.991Z</time>
      </trkpt>
      <trkpt lat="48.04636" lon="6.84281">
        <ele>784</ele>
        <time>2020-10-28T10:27:57.990Z</time>
      </trkpt>
      <trkpt lat="48.04635" lon="6.8428">
        <ele>785</ele>
        <time>2020-10-28T10:27:58.990Z</time>
      </trkpt>
      <trkpt lat="48.04634" lon="6.8428">
        <ele>785</ele>
        <time>2020-10-28T10:27:59.991Z</time>
      </trkpt>
      <trkpt lat="48.04634" lon="6.8428">
        <ele>785</ele>
        <time>2020-10-28T10:28:00.990Z</time>
      </trkpt>
      <trkpt lat="48.04633" lon="6.84279">
        <ele>785</ele>
        <time>2020-10-28T10:28:01.991Z</time>
      </trkpt>
      <trkpt lat="48.04631" lon="6.84278">
        <ele>784</ele>
        <time>2020-10-28T10:28:02.991Z</time>
      </trkpt>
      <trkpt lat="48.0463" lon="6.84277">
        <ele>784</ele>
        <time>2020-10-28T10:28:03.990Z</time>
      </trkpt>
      <trkpt lat="48.0463" lon="6.84276">
        <ele>784</ele>
        <time>2020-10-28T10:28:04.991Z</time>
      </trkpt>
      <trkpt lat="48.04629" lon="6.84276">
        <ele>784</ele>
        <time>2020-10-28T10:28:05.991Z</time>
      </trkpt>
      <trkpt lat="48.04629" lon="6.84275">
        <ele>785</ele>
        <time>2020-10-28T10:28:06.991Z</time>
      </trkpt>
      <trkpt lat="48.04629" lon="6.84275">
        <ele>785</ele>
        <time>2020-10-28T10:28:07.991Z</time>
      </trkpt>
      <trkpt lat="48.04628" lon="6.84275">
        <ele>785</ele>
        <time>2020-10-28T10:28:08.991Z</time>
      </trkpt>
      <trkpt lat="48.04628" lon="6.84274">
        <ele>785</ele>
        <time>2020-10-28T10:28:09.991Z</time>
      </trkpt>
      <trkpt lat="48.04627" lon="6.84273">
        <ele>785</ele>
        <time>2020-10-28T10:28:10.991Z</time>
      </trkpt>
      <trkpt lat="48.04627" lon="6.84273">
        <ele>784</ele>
        <time>2020-10-28T10:28:11.991Z</time>
      </trkpt>
      <trkpt lat="48.04627" lon="6.84271">
        <ele>784</ele>
        <time>2020-10-28T10:28:12.991Z</time>
      </trkpt>
      <trkpt lat="48.04627" lon="6.8427">
        <ele>784</ele>
        <time>2020-10-28T10:28:13.991Z</time>
      </trkpt>
      <trkpt lat="48.04627" lon="6.84269">
        <ele>784</ele>
        <time>2020-10-28T10:28:14.990Z</time>
      </trkpt>
      <trkpt lat="48.04627" lon="6.84269">
        <ele>784</ele>
        <time>2020-10-28T10:28:15.991Z</time>
      </trkpt>
      <trkpt lat="48.04627" lon="6.84268">
        <ele>784</ele>
        <time>2020-10-28T10:28:16.990Z</time>
      </trkpt>
      <trkpt lat="48.04627" lon="6.84267">
        <ele>783</ele>
        <time>2020-10-28T10:28:17.991Z</time>
      </trkpt>
      <trkpt lat="48.04627" lon="6.84265">
        <ele>783</ele>
        <time>2020-10-28T10:28:18.991Z</time>
      </trkpt>
      <trkpt lat="48.04626" lon="6.84263">
        <ele>782</ele>
        <time>2020-10-28T10:28:19.991Z</time>
      </trkpt>
      <trkpt lat="48.04626" lon="6.84261">
        <ele>782</ele>
        <time>2020-10-28T10:28:20.990Z</time>
      </trkpt>
      <trkpt lat="48.04626" lon="6.84259">
        <ele>783</ele>
        <time>2020-10-28T10:28:21.990Z</time>
      </trkpt>
      <trkpt lat="48.04626" lon="6.84257">
        <ele>783</ele>
        <time>2020-10-28T10:28:22.991Z</time>
      </trkpt>
      <trkpt lat="48.04626" lon="6.84256">
        <ele>784</ele>
        <time>2020-10-28T10:28:23.990Z</time>
      </trkpt>
      <trkpt lat="48.04627" lon="6.84255">
        <ele>785</ele>
        <time>2020-10-28T10:28:24.991Z</time>
      </trkpt>
      <trkpt lat="48.04628" lon="6.84253">
        <ele>785</ele>
        <time>2020-10-28T10:28:25.991Z</time>
      </trkpt>
      <trkpt lat="48.04628" lon="6.84253">
        <ele>786</ele>
        <time>2020-10-28T10:28:26.991Z</time>
      </trkpt>
      <trkpt lat="48.04629" lon="6.84252">
        <ele>786</ele>
        <time>2020-10-28T10:28:27.991Z</time>
      </trkpt>
      <trkpt lat="48.04629" lon="6.84251">
        <ele>787</ele>
        <time>2020-10-28T10:28:28.991Z</time>
      </trkpt>
      <trkpt lat="48.04629" lon="6.8425">
        <ele>787</ele>
        <time>2020-10-28T10:28:45.120Z</time>
      </trkpt>
      <trkpt lat="48.0463" lon="6.84249">
        <ele>788</ele>
        <time>2020-10-28T10:28:46.121Z</time>
      </trkpt>
      <trkpt lat="48.0463" lon="6.84248">
        <ele>789</ele>
        <time>2020-10-28T10:29:40.998Z</time>
      </trkpt>
      <trkpt lat="48.0463" lon="6.84247">
        <ele>790</ele>
        <time>2020-10-28T10:29:41.998Z</time>
      </trkpt>
      <trkpt lat="48.04629" lon="6.84247">
        <ele>790</ele>
        <time>2020-10-28T10:29:42.998Z</time>
      </trkpt>
      <trkpt lat="48.04628" lon="6.84247">
        <ele>791</ele>
        <time>2020-10-28T10:29:43.998Z</time>
      </trkpt>
      <trkpt lat="48.04627" lon="6.84246">
        <ele>791</ele>
        <time>2020-10-28T10:29:44.998Z</time>
      </trkpt>
      <trkpt lat="48.04626" lon="6.84246">
        <ele>792</ele>
        <time>2020-10-28T10:29:45.997Z</time>
      </trkpt>
      <trkpt lat="48.04625" lon="6.84246">
        <ele>792</ele>
        <time>2020-10-28T10:29:46.997Z</time>
      </trkpt>
      <trkpt lat="48.04624" lon="6.84245">
        <ele>793</ele>
        <time>2020-10-28T10:29:50.106Z</time>
      </trkpt>
      <trkpt lat="48.04623" lon="6.84246">
        <ele>793</ele>
        <time>2020-10-28T10:29:51.105Z</time>
      </trkpt>
      <trkpt lat="48.04622" lon="6.84246">
        <ele>793</ele>
        <time>2020-10-28T10:29:52.106Z</time>
      </trkpt>
      <trkpt lat="48.04621" lon="6.84247">
        <ele>793</ele>
        <time>2020-10-28T10:29:53.105Z</time>
      </trkpt>
      <trkpt lat="48.04619" lon="6.84247">
        <ele>793</ele>
        <time>2020-10-28T10:29:54.106Z</time>
      </trkpt>
      <trkpt lat="48.04619" lon="6.84247">
        <ele>793</ele>
        <time>2020-10-28T10:30:13.247Z</time>
      </trkpt>
      <trkpt lat="48.04618" lon="6.84247">
        <ele>794</ele>
        <time>2020-10-28T10:30:14.247Z</time>
      </trkpt>
      <trkpt lat="48.04618" lon="6.84248">
        <ele>794</ele>
        <time>2020-10-28T10:30:18.357Z</time>
      </trkpt>
      <trkpt lat="48.04617" lon="6.84248">
        <ele>794</ele>
        <time>2020-10-28T10:30:19.357Z</time>
      </trkpt>
      <trkpt lat="48.04616" lon="6.84248">
        <ele>795</ele>
        <time>2020-10-28T10:30:20.358Z</time>
      </trkpt>
      <trkpt lat="48.04614" lon="6.84248">
        <ele>795</ele>
        <time>2020-10-28T10:30:21.357Z</time>
      </trkpt>
      <trkpt lat="48.04613" lon="6.84248">
        <ele>795</ele>
        <time>2020-10-28T10:30:22.358Z</time>
      </trkpt>
      <trkpt lat="48.04612" lon="6.84248">
        <ele>796</ele>
        <time>2020-10-28T10:30:23.358Z</time>
      </trkpt>
      <trkpt lat="48.04611" lon="6.84247">
        <ele>796</ele>
        <time>2020-10-28T10:30:24.358Z</time>
      </trkpt>
      <trkpt lat="48.04609" lon="6.84247">
        <ele>796</ele>
        <time>2020-10-28T10:30:25.357Z</time>
      </trkpt>
      <trkpt lat="48.04608" lon="6.84246">
        <ele>795</ele>
        <time>2020-10-28T10:30:26.357Z</time>
      </trkpt>
      <trkpt lat="48.04606" lon="6.84245">
        <ele>795</ele>
        <time>2020-10-28T10:30:27.358Z</time>
      </trkpt>
      <trkpt lat="48.04605" lon="6.84245">
        <ele>794</ele>
        <time>2020-10-28T10:30:28.358Z</time>
      </trkpt>
      <trkpt lat="48.04604" lon="6.84244">
        <ele>794</ele>
        <time>2020-10-28T10:30:29.358Z</time>
      </trkpt>
      <trkpt lat="48.04604" lon="6.84243">
        <ele>794</ele>
        <time>2020-10-28T10:30:30.357Z</time>
      </trkpt>
      <trkpt lat="48.04603" lon="6.84243">
        <ele>793</ele>
        <time>2020-10-28T10:30:31.357Z</time>
      </trkpt>
      <trkpt lat="48.04602" lon="6.84242">
        <ele>792</ele>
        <time>2020-10-28T10:30:32.358Z</time>
      </trkpt>
      <trkpt lat="48.04601" lon="6.84242">
        <ele>792</ele>
        <time>2020-10-28T10:30:33.358Z</time>
      </trkpt>
      <trkpt lat="48.04599" lon="6.84242">
        <ele>791</ele>
        <time>2020-10-28T10:30:34.358Z</time>
      </trkpt>
      <trkpt lat="48.04598" lon="6.84242">
        <ele>791</ele>
        <time>2020-10-28T10:30:35.358Z</time>
      </trkpt>
      <trkpt lat="48.04597" lon="6.84242">
        <ele>791</ele>
        <time>2020-10-28T10:30:36.358Z</time>
      </trkpt>
      <trkpt lat="48.04596" lon="6.84242">
        <ele>791</ele>
        <time>2020-10-28T10:30:37.357Z</time>
      </trkpt>
      <trkpt lat="48.04594" lon="6.84243">
        <ele>791</ele>
        <time>2020-10-28T10:30:38.358Z</time>
      </trkpt>
      <trkpt lat="48.04593" lon="6.84243">
        <ele>792</ele>
        <time>2020-10-28T10:30:39.358Z</time>
      </trkpt>
      <trkpt lat="48.04592" lon="6.84242">
        <ele>792</ele>
        <time>2020-10-28T10:30:40.358Z</time>
      </trkpt>
      <trkpt lat="48.04592" lon="6.84242">
        <ele>793</ele>
        <time>2020-10-28T10:30:41.358Z</time>
      </trkpt>
      <trkpt lat="48.04591" lon="6.84242">
        <ele>793</ele>
        <time>2020-10-28T10:30:42.357Z</time>
      </trkpt>
      <trkpt lat="48.04591" lon="6.84241">
        <ele>794</ele>
        <time>2020-10-28T10:30:43.358Z</time>
      </trkpt>
      <trkpt lat="48.0459" lon="6.8424">
        <ele>795</ele>
        <time>2020-10-28T10:30:44.358Z</time>
      </trkpt>
      <trkpt lat="48.0459" lon="6.84239">
        <ele>795</ele>
        <time>2020-10-28T10:30:50.382Z</time>
      </trkpt>
      <trkpt lat="48.04591" lon="6.84239">
        <ele>795</ele>
        <time>2020-10-28T10:30:51.381Z</time>
      </trkpt>
      <trkpt lat="48.0459" lon="6.84239">
        <ele>796</ele>
        <time>2020-10-28T10:30:52.382Z</time>
      </trkpt>
      <trkpt lat="48.0459" lon="6.84238">
        <ele>796</ele>
        <time>2020-10-28T10:30:53.382Z</time>
      </trkpt>
      <trkpt lat="48.04589" lon="6.84238">
        <ele>796</ele>
        <time>2020-10-28T10:30:54.382Z</time>
      </trkpt>
      <trkpt lat="48.04589" lon="6.84238">
        <ele>796</ele>
        <time>2020-10-28T10:30:55.381Z</time>
      </trkpt>
      <trkpt lat="48.04588" lon="6.84237">
        <ele>795</ele>
        <time>2020-10-28T10:30:56.382Z</time>
      </trkpt>
      <trkpt lat="48.04587" lon="6.84236">
        <ele>795</ele>
        <time>2020-10-28T10:30:57.382Z</time>
      </trkpt>
      <trkpt lat="48.04586" lon="6.84235">
        <ele>795</ele>
        <time>2020-10-28T10:30:58.382Z</time>
      </trkpt>
      <trkpt lat="48.04584" lon="6.84234">
        <ele>795</ele>
        <time>2020-10-28T10:30:59.382Z</time>
      </trkpt>
      <trkpt lat="48.04583" lon="6.84233">
        <ele>796</ele>
        <time>2020-10-28T10:31:02.494Z</time>
      </trkpt>
      <trkpt lat="48.04582" lon="6.84232">
        <ele>796</ele>
        <time>2020-10-28T10:31:03.494Z</time>
      </trkpt>
      <trkpt lat="48.0458" lon="6.84232">
        <ele>796</ele>
        <time>2020-10-28T10:31:04.494Z</time>
      </trkpt>
      <trkpt lat="48.04579" lon="6.84232">
        <ele>797</ele>
        <time>2020-10-28T10:31:19.597Z</time>
      </trkpt>
      <trkpt lat="48.04577" lon="6.84232">
        <ele>797</ele>
        <time>2020-10-28T10:31:20.597Z</time>
      </trkpt>
      <trkpt lat="48.04576" lon="6.84231">
        <ele>798</ele>
        <time>2020-10-28T10:31:21.597Z</time>
      </trkpt>
      <trkpt lat="48.04575" lon="6.84231">
        <ele>798</ele>
        <time>2020-10-28T10:31:22.597Z</time>
      </trkpt>
      <trkpt lat="48.04574" lon="6.8423">
        <ele>798</ele>
        <time>2020-10-28T10:31:23.597Z</time>
      </trkpt>
      <trkpt lat="48.04574" lon="6.8423">
        <ele>798</ele>
        <time>2020-10-28T10:31:24.598Z</time>
      </trkpt>
      <trkpt lat="48.04572" lon="6.8423">
        <ele>798</ele>
        <time>2020-10-28T10:31:25.598Z</time>
      </trkpt>
      <trkpt lat="48.04571" lon="6.8423">
        <ele>798</ele>
        <time>2020-10-28T10:31:26.598Z</time>
      </trkpt>
      <trkpt lat="48.0457" lon="6.8423">
        <ele>799</ele>
        <time>2020-10-28T10:31:27.598Z</time>
      </trkpt>
      <trkpt lat="48.04568" lon="6.8423">
        <ele>799</ele>
        <time>2020-10-28T10:31:28.597Z</time>
      </trkpt>
      <trkpt lat="48.04567" lon="6.84231">
        <ele>800</ele>
        <time>2020-10-28T10:32:49.743Z</time>
      </trkpt>
      <trkpt lat="48.04566" lon="6.84231">
        <ele>800</ele>
        <time>2020-10-28T10:32:50.744Z</time>
      </trkpt>
      <trkpt lat="48.04565" lon="6.84231">
        <ele>800</ele>
        <time>2020-10-28T10:32:51.744Z</time>
      </trkpt>
      <trkpt lat="48.04564" lon="6.84231">
        <ele>800</ele>
        <time>2020-10-28T10:32:52.744Z</time>
      </trkpt>
      <trkpt lat="48.04562" lon="6.84231">
        <ele>801</ele>
        <time>2020-10-28T10:32:53.744Z</time>
      </trkpt>
      <trkpt lat="48.04561" lon="6.84231">
        <ele>801</ele>
        <time>2020-10-28T10:32:55.854Z</time>
      </trkpt>
      <trkpt lat="48.0456" lon="6.84231">
        <ele>801</ele>
        <time>2020-10-28T10:32:56.855Z</time>
      </trkpt>
      <trkpt lat="48.04558" lon="6.84232">
        <ele>801</ele>
        <time>2020-10-28T10:32:57.855Z</time>
      </trkpt>
      <trkpt lat="48.04557" lon="6.84232">
        <ele>801</ele>
        <time>2020-10-28T10:32:58.855Z</time>
      </trkpt>
      <trkpt lat="48.04555" lon="6.84231">
        <ele>801</ele>
        <time>2020-10-28T10:32:59.855Z</time>
      </trkpt>
      <trkpt lat="48.04554" lon="6.8423">
        <ele>801</ele>
        <time>2020-10-28T10:33:00.854Z</time>
      </trkpt>
      <trkpt lat="48.04553" lon="6.84229">
        <ele>801</ele>
        <time>2020-10-28T10:33:01.855Z</time>
      </trkpt>
      <trkpt lat="48.04553" lon="6.8423">
        <ele>802</ele>
        <time>2020-10-28T10:33:02.855Z</time>
      </trkpt>
      <trkpt lat="48.04552" lon="6.8423">
        <ele>802</ele>
        <time>2020-10-28T10:33:03.855Z</time>
      </trkpt>
      <trkpt lat="48.04551" lon="6.8423">
        <ele>802</ele>
        <time>2020-10-28T10:33:07.881Z</time>
      </trkpt>
      <trkpt lat="48.04551" lon="6.8423">
        <ele>802</ele>
        <time>2020-10-28T10:33:08.881Z</time>
      </trkpt>
      <trkpt lat="48.0455" lon="6.8423">
        <ele>803</ele>
        <time>2020-10-28T10:33:09.881Z</time>
      </trkpt>
      <trkpt lat="48.04548" lon="6.84228">
        <ele>804</ele>
        <time>2020-10-28T10:33:10.882Z</time>
      </trkpt>
      <trkpt lat="48.04546" lon="6.84228">
        <ele>805</ele>
        <time>2020-10-28T10:33:11.882Z</time>
      </trkpt>
      <trkpt lat="48.04546" lon="6.84227">
        <ele>805</ele>
        <time>2020-10-28T10:33:12.882Z</time>
      </trkpt>
      <trkpt lat="48.04547" lon="6.84227">
        <ele>806</ele>
        <time>2020-10-28T10:33:13.882Z</time>
      </trkpt>
      <trkpt lat="48.04547" lon="6.84227">
        <ele>806</ele>
        <time>2020-10-28T10:33:14.882Z</time>
      </trkpt>
      <trkpt lat="48.04542" lon="6.84224">
        <ele>808</ele>
        <time>2020-10-28T10:33:15.882Z</time>
      </trkpt>
      <trkpt lat="48.04542" lon="6.84223">
        <ele>809</ele>
        <time>2020-10-28T10:33:16.883Z</time>
      </trkpt>
      <trkpt lat="48.04541" lon="6.84222">
        <ele>810</ele>
        <time>2020-10-28T10:33:17.882Z</time>
      </trkpt>
      <trkpt lat="48.04541" lon="6.84221">
        <ele>810</ele>
        <time>2020-10-28T10:33:18.882Z</time>
      </trkpt>
      <trkpt lat="48.0454" lon="6.84221">
        <ele>810</ele>
        <time>2020-10-28T10:33:19.882Z</time>
      </trkpt>
      <trkpt lat="48.0454" lon="6.8422">
        <ele>811</ele>
        <time>2020-10-28T10:33:20.882Z</time>
      </trkpt>
      <trkpt lat="48.04539" lon="6.8422">
        <ele>811</ele>
        <time>2020-10-28T10:33:21.882Z</time>
      </trkpt>
      <trkpt lat="48.04538" lon="6.84218">
        <ele>812</ele>
        <time>2020-10-28T10:33:22.882Z</time>
      </trkpt>
      <trkpt lat="48.04537" lon="6.84217">
        <ele>812</ele>
        <time>2020-10-28T10:33:23.883Z</time>
      </trkpt>
      <trkpt lat="48.04536" lon="6.84217">
        <ele>813</ele>
        <time>2020-10-28T10:33:24.882Z</time>
      </trkpt>
      <trkpt lat="48.04536" lon="6.84216">
        <ele>813</ele>
        <time>2020-10-28T10:33:25.882Z</time>
      </trkpt>
      <trkpt lat="48.04535" lon="6.84216">
        <ele>814</ele>
        <time>2020-10-28T10:33:26.882Z</time>
      </trkpt>
      <trkpt lat="48.04534" lon="6.84215">
        <ele>814</ele>
        <time>2020-10-28T10:33:27.883Z</time>
      </trkpt>
      <trkpt lat="48.04533" lon="6.84215">
        <ele>814</ele>
        <time>2020-10-28T10:33:28.882Z</time>
      </trkpt>
      <trkpt lat="48.04531" lon="6.84214">
        <ele>815</ele>
        <time>2020-10-28T10:33:30.960Z</time>
      </trkpt>
      <trkpt lat="48.04531" lon="6.84214">
        <ele>815</ele>
        <time>2020-10-28T10:33:31.960Z</time>
      </trkpt>
      <trkpt lat="48.0453" lon="6.84214">
        <ele>815</ele>
        <time>2020-10-28T10:33:32.960Z</time>
      </trkpt>
      <trkpt lat="48.04528" lon="6.84214">
        <ele>815</ele>
        <time>2020-10-28T10:33:33.960Z</time>
      </trkpt>
      <trkpt lat="48.04527" lon="6.84214">
        <ele>816</ele>
        <time>2020-10-28T10:33:34.961Z</time>
      </trkpt>
      <trkpt lat="48.04527" lon="6.84214">
        <ele>816</ele>
        <time>2020-10-28T10:33:35.961Z</time>
      </trkpt>
      <trkpt lat="48.04526" lon="6.84213">
        <ele>816</ele>
        <time>2020-10-28T10:33:36.962Z</time>
      </trkpt>
      <trkpt lat="48.04525" lon="6.84212">
        <ele>816</ele>
        <time>2020-10-28T10:33:37.962Z</time>
      </trkpt>
      <trkpt lat="48.04523" lon="6.84212">
        <ele>817</ele>
        <time>2020-10-28T10:33:38.961Z</time>
      </trkpt>
      <trkpt lat="48.04522" lon="6.84211">
        <ele>817</ele>
        <time>2020-10-28T10:33:39.962Z</time>
      </trkpt>
      <trkpt lat="48.04521" lon="6.84211">
        <ele>817</ele>
        <time>2020-10-28T10:33:40.962Z</time>
      </trkpt>
      <trkpt lat="48.0452" lon="6.84211">
        <ele>817</ele>
        <time>2020-10-28T10:33:41.961Z</time>
      </trkpt>
      <trkpt lat="48.04515" lon="6.84211">
        <ele>815</ele>
        <time>2020-10-28T10:33:42.962Z</time>
      </trkpt>
      <trkpt lat="48.04514" lon="6.84211">
        <ele>815</ele>
        <time>2020-10-28T10:33:43.962Z</time>
      </trkpt>
      <trkpt lat="48.04513" lon="6.84211">
        <ele>815</ele>
        <time>2020-10-28T10:33:44.961Z</time>
      </trkpt>
      <trkpt lat="48.04514" lon="6.84213">
        <ele>816</ele>
        <time>2020-10-28T10:33:45.962Z</time>
      </trkpt>
      <trkpt lat="48.04514" lon="6.84215">
        <ele>816</ele>
        <time>2020-10-28T10:33:46.961Z</time>
      </trkpt>
      <trkpt lat="48.04514" lon="6.84215">
        <ele>816</ele>
        <time>2020-10-28T10:33:47.961Z</time>
      </trkpt>
      <trkpt lat="48.04514" lon="6.84216">
        <ele>816</ele>
        <time>2020-10-28T10:33:48.962Z</time>
      </trkpt>
      <trkpt lat="48.04513" lon="6.84216">
        <ele>816</ele>
        <time>2020-10-28T10:33:49.962Z</time>
      </trkpt>
      <trkpt lat="48.04512" lon="6.84217">
        <ele>815</ele>
        <time>2020-10-28T10:33:50.962Z</time>
      </trkpt>
      <trkpt lat="48.04512" lon="6.84217">
        <ele>816</ele>
        <time>2020-10-28T10:33:51.962Z</time>
      </trkpt>
      <trkpt lat="48.04512" lon="6.84217">
        <ele>816</ele>
        <time>2020-10-28T10:33:52.961Z</time>
      </trkpt>
      <trkpt lat="48.04511" lon="6.84216">
        <ele>816</ele>
        <time>2020-10-28T10:33:53.961Z</time>
      </trkpt>
      <trkpt lat="48.04511" lon="6.84216">
        <ele>816</ele>
        <time>2020-10-28T10:33:54.962Z</time>
      </trkpt>
      <trkpt lat="48.0451" lon="6.84216">
        <ele>816</ele>
        <time>2020-10-28T10:33:55.961Z</time>
      </trkpt>
      <trkpt lat="48.0451" lon="6.84216">
        <ele>816</ele>
        <time>2020-10-28T10:33:56.961Z</time>
      </trkpt>
      <trkpt lat="48.04509" lon="6.84217">
        <ele>816</ele>
        <time>2020-10-28T10:33:57.961Z</time>
      </trkpt>
      <trkpt lat="48.04508" lon="6.84217">
        <ele>816</ele>
        <time>2020-10-28T10:33:58.961Z</time>
      </trkpt>
      <trkpt lat="48.04507" lon="6.84217">
        <ele>816</ele>
        <time>2020-10-28T10:33:59.962Z</time>
      </trkpt>
      <trkpt lat="48.04506" lon="6.84218">
        <ele>816</ele>
        <time>2020-10-28T10:34:00.962Z</time>
      </trkpt>
      <trkpt lat="48.04506" lon="6.8422">
        <ele>817</ele>
        <time>2020-10-28T10:34:01.962Z</time>
      </trkpt>
      <trkpt lat="48.04505" lon="6.84221">
        <ele>817</ele>
        <time>2020-10-28T10:34:02.962Z</time>
      </trkpt>
      <trkpt lat="48.04505" lon="6.84222">
        <ele>817</ele>
        <time>2020-10-28T10:34:03.962Z</time>
      </trkpt>
      <trkpt lat="48.04504" lon="6.84222">
        <ele>816</ele>
        <time>2020-10-28T10:34:04.961Z</time>
      </trkpt>
      <trkpt lat="48.04503" lon="6.84222">
        <ele>815</ele>
        <time>2020-10-28T10:34:05.962Z</time>
      </trkpt>
      <trkpt lat="48.04502" lon="6.84223">
        <ele>815</ele>
        <time>2020-10-28T10:34:06.961Z</time>
      </trkpt>
      <trkpt lat="48.04501" lon="6.84223">
        <ele>814</ele>
        <time>2020-10-28T10:34:07.961Z</time>
      </trkpt>
      <trkpt lat="48.04498" lon="6.84222">
        <ele>813</ele>
        <time>2020-10-28T10:34:08.962Z</time>
      </trkpt>
      <trkpt lat="48.04496" lon="6.84221">
        <ele>812</ele>
        <time>2020-10-28T10:34:09.961Z</time>
      </trkpt>
      <trkpt lat="48.04495" lon="6.84221">
        <ele>811</ele>
        <time>2020-10-28T10:34:10.961Z</time>
      </trkpt>
      <trkpt lat="48.04494" lon="6.84221">
        <ele>811</ele>
        <time>2020-10-28T10:34:11.961Z</time>
      </trkpt>
      <trkpt lat="48.04494" lon="6.84221">
        <ele>810</ele>
        <time>2020-10-28T10:34:12.961Z</time>
      </trkpt>
      <trkpt lat="48.04494" lon="6.84221">
        <ele>809</ele>
        <time>2020-10-28T10:34:13.962Z</time>
      </trkpt>
      <trkpt lat="48.04494" lon="6.84222">
        <ele>809</ele>
        <time>2020-10-28T10:34:14.961Z</time>
      </trkpt>
      <trkpt lat="48.04494" lon="6.84222">
        <ele>809</ele>
        <time>2020-10-28T10:34:15.962Z</time>
      </trkpt>
      <trkpt lat="48.04494" lon="6.84222">
        <ele>809</ele>
        <time>2020-10-28T10:34:16.962Z</time>
      </trkpt>
      <trkpt lat="48.04494" lon="6.84221">
        <ele>809</ele>
        <time>2020-10-28T10:34:17.961Z</time>
      </trkpt>
      <trkpt lat="48.04493" lon="6.84221">
        <ele>809</ele>
        <time>2020-10-28T10:34:18.962Z</time>
      </trkpt>
      <trkpt lat="48.04493" lon="6.84221">
        <ele>810</ele>
        <time>2020-10-28T10:34:19.962Z</time>
      </trkpt>
      <trkpt lat="48.04492" lon="6.8422">
        <ele>810</ele>
        <time>2020-10-28T10:34:20.962Z</time>
      </trkpt>
      <trkpt lat="48.04492" lon="6.8422">
        <ele>811</ele>
        <time>2020-10-28T10:34:21.961Z</time>
      </trkpt>
      <trkpt lat="48.04492" lon="6.8422">
        <ele>811</ele>
        <time>2020-10-28T10:34:22.961Z</time>
      </trkpt>
      <trkpt lat="48.04492" lon="6.8422">
        <ele>812</ele>
        <time>2020-10-28T10:34:23.962Z</time>
      </trkpt>
      <trkpt lat="48.04492" lon="6.8422">
        <ele>813</ele>
        <time>2020-10-28T10:34:24.961Z</time>
      </trkpt>
      <trkpt lat="48.04491" lon="6.8422">
        <ele>813</ele>
        <time>2020-10-28T10:34:25.962Z</time>
      </trkpt>
      <trkpt lat="48.04491" lon="6.8422">
        <ele>813</ele>
        <time>2020-10-28T10:34:26.962Z</time>
      </trkpt>
      <trkpt lat="48.04489" lon="6.8422">
        <ele>814</ele>
        <time>2020-10-28T10:34:27.961Z</time>
      </trkpt>
      <trkpt lat="48.04489" lon="6.84221">
        <ele>814</ele>
        <time>2020-10-28T10:34:28.962Z</time>
      </trkpt>
      <trkpt lat="48.04488" lon="6.84221">
        <ele>815</ele>
        <time>2020-10-28T10:34:29.962Z</time>
      </trkpt>
      <trkpt lat="48.04484" lon="6.84225">
        <ele>816</ele>
        <time>2020-10-28T10:34:30.962Z</time>
      </trkpt>
      <trkpt lat="48.04483" lon="6.84225">
        <ele>816</ele>
        <time>2020-10-28T10:34:31.962Z</time>
      </trkpt>
      <trkpt lat="48.04483" lon="6.84225">
        <ele>817</ele>
        <time>2020-10-28T10:34:32.961Z</time>
      </trkpt>
      <trkpt lat="48.04481" lon="6.84226">
        <ele>818</ele>
        <time>2020-10-28T10:34:33.961Z</time>
      </trkpt>
      <trkpt lat="48.0448" lon="6.84227">
        <ele>818</ele>
        <time>2020-10-28T10:34:34.961Z</time>
      </trkpt>
      <trkpt lat="48.04478" lon="6.84227">
        <ele>819</ele>
        <time>2020-10-28T10:34:35.962Z</time>
      </trkpt>
      <trkpt lat="48.04477" lon="6.84227">
        <ele>820</ele>
        <time>2020-10-28T10:34:36.961Z</time>
      </trkpt>
      <trkpt lat="48.04477" lon="6.84227">
        <ele>821</ele>
        <time>2020-10-28T10:34:37.962Z</time>
      </trkpt>
      <trkpt lat="48.04476" lon="6.84227">
        <ele>822</ele>
        <time>2020-10-28T10:34:38.961Z</time>
      </trkpt>
      <trkpt lat="48.04475" lon="6.84228">
        <ele>822</ele>
        <time>2020-10-28T10:34:39.961Z</time>
      </trkpt>
      <trkpt lat="48.04475" lon="6.84228">
        <ele>823</ele>
        <time>2020-10-28T10:34:40.962Z</time>
      </trkpt>
      <trkpt lat="48.04475" lon="6.84228">
        <ele>824</ele>
        <time>2020-10-28T10:34:41.962Z</time>
      </trkpt>
      <trkpt lat="48.04474" lon="6.84229">
        <ele>825</ele>
        <time>2020-10-28T10:34:42.962Z</time>
      </trkpt>
      <trkpt lat="48.04473" lon="6.8423">
        <ele>825</ele>
        <time>2020-10-28T10:34:43.962Z</time>
      </trkpt>
      <trkpt lat="48.04472" lon="6.84231">
        <ele>826</ele>
        <time>2020-10-28T10:34:44.962Z</time>
      </trkpt>
      <trkpt lat="48.04472" lon="6.84232">
        <ele>827</ele>
        <time>2020-10-28T10:34:45.962Z</time>
      </trkpt>
      <trkpt lat="48.04471" lon="6.84233">
        <ele>827</ele>
        <time>2020-10-28T10:34:46.962Z</time>
      </trkpt>
      <trkpt lat="48.0447" lon="6.84233">
        <ele>828</ele>
        <time>2020-10-28T10:34:47.961Z</time>
      </trkpt>
      <trkpt lat="48.0447" lon="6.84233">
        <ele>828</ele>
        <time>2020-10-28T10:34:48.962Z</time>
      </trkpt>
      <trkpt lat="48.04469" lon="6.84234">
        <ele>829</ele>
        <time>2020-10-28T10:34:49.962Z</time>
      </trkpt>
      <trkpt lat="48.04468" lon="6.84234">
        <ele>829</ele>
        <time>2020-10-28T10:34:50.961Z</time>
      </trkpt>
      <trkpt lat="48.04467" lon="6.84234">
        <ele>829</ele>
        <time>2020-10-28T10:34:51.962Z</time>
      </trkpt>
      <trkpt lat="48.04467" lon="6.84234">
        <ele>829</ele>
        <time>2020-10-28T10:34:52.961Z</time>
      </trkpt>
      <trkpt lat="48.04466" lon="6.84233">
        <ele>829</ele>
        <time>2020-10-28T10:34:53.962Z</time>
      </trkpt>
      <trkpt lat="48.04465" lon="6.84233">
        <ele>828</ele>
        <time>2020-10-28T10:34:54.962Z</time>
      </trkpt>
      <trkpt lat="48.04464" lon="6.84232">
        <ele>828</ele>
        <time>2020-10-28T10:34:55.962Z</time>
      </trkpt>
      <trkpt lat="48.04464" lon="6.84232">
        <ele>828</ele>
        <time>2020-10-28T10:34:56.961Z</time>
      </trkpt>
      <trkpt lat="48.04458" lon="6.84235">
        <ele>829</ele>
        <time>2020-10-28T10:34:57.962Z</time>
      </trkpt>
      <trkpt lat="48.04458" lon="6.84236">
        <ele>829</ele>
        <time>2020-10-28T10:34:58.961Z</time>
      </trkpt>
      <trkpt lat="48.04456" lon="6.84237">
        <ele>829</ele>
        <time>2020-10-28T10:34:59.961Z</time>
      </trkpt>
      <trkpt lat="48.04453" lon="6.84238">
        <ele>829</ele>
        <time>2020-10-28T10:35:00.962Z</time>
      </trkpt>
      <trkpt lat="48.04452" lon="6.84238">
        <ele>829</ele>
        <time>2020-10-28T10:35:01.961Z</time>
      </trkpt>
      <trkpt lat="48.04452" lon="6.84239">
        <ele>829</ele>
        <time>2020-10-28T10:35:02.961Z</time>
      </trkpt>
      <trkpt lat="48.04451" lon="6.8424">
        <ele>829</ele>
        <time>2020-10-28T10:35:03.961Z</time>
      </trkpt>
      <trkpt lat="48.04451" lon="6.8424">
        <ele>829</ele>
        <time>2020-10-28T10:35:04.961Z</time>
      </trkpt>
      <trkpt lat="48.04448" lon="6.84241">
        <ele>830</ele>
        <time>2020-10-28T10:35:05.961Z</time>
      </trkpt>
      <trkpt lat="48.04447" lon="6.84242">
        <ele>830</ele>
        <time>2020-10-28T10:35:06.961Z</time>
      </trkpt>
      <trkpt lat="48.04445" lon="6.84242">
        <ele>830</ele>
        <time>2020-10-28T10:35:07.961Z</time>
      </trkpt>
      <trkpt lat="48.04444" lon="6.84243">
        <ele>830</ele>
        <time>2020-10-28T10:35:08.961Z</time>
      </trkpt>
      <trkpt lat="48.04442" lon="6.84243">
        <ele>830</ele>
        <time>2020-10-28T10:35:09.961Z</time>
      </trkpt>
      <trkpt lat="48.04442" lon="6.84244">
        <ele>830</ele>
        <time>2020-10-28T10:35:10.961Z</time>
      </trkpt>
      <trkpt lat="48.04441" lon="6.84244">
        <ele>829</ele>
        <time>2020-10-28T10:35:11.961Z</time>
      </trkpt>
      <trkpt lat="48.0444" lon="6.84245">
        <ele>829</ele>
        <time>2020-10-28T10:35:12.961Z</time>
      </trkpt>
      <trkpt lat="48.0444" lon="6.84245">
        <ele>828</ele>
        <time>2020-10-28T10:35:13.961Z</time>
      </trkpt>
      <trkpt lat="48.0444" lon="6.84246">
        <ele>828</ele>
        <time>2020-10-28T10:35:14.961Z</time>
      </trkpt>
      <trkpt lat="48.04441" lon="6.84246">
        <ele>828</ele>
        <time>2020-10-28T10:35:15.961Z</time>
      </trkpt>
      <trkpt lat="48.04442" lon="6.84248">
        <ele>827</ele>
        <time>2020-10-28T10:35:16.961Z</time>
      </trkpt>
      <trkpt lat="48.04436" lon="6.84249">
        <ele>828</ele>
        <time>2020-10-28T10:35:17.961Z</time>
      </trkpt>
      <trkpt lat="48.0443" lon="6.8425">
        <ele>825</ele>
        <time>2020-10-28T10:35:18.962Z</time>
      </trkpt>
      <trkpt lat="48.0443" lon="6.8425">
        <ele>824</ele>
        <time>2020-10-28T10:35:19.962Z</time>
      </trkpt>
      <trkpt lat="48.0443" lon="6.8425">
        <ele>823</ele>
        <time>2020-10-28T10:35:20.962Z</time>
      </trkpt>
      <trkpt lat="48.04427" lon="6.84251">
        <ele>823</ele>
        <time>2020-10-28T10:35:21.963Z</time>
      </trkpt>
      <trkpt lat="48.04426" lon="6.84252">
        <ele>824</ele>
        <time>2020-10-28T10:35:22.963Z</time>
      </trkpt>
      <trkpt lat="48.04426" lon="6.84253">
        <ele>825</ele>
        <time>2020-10-28T10:35:23.963Z</time>
      </trkpt>
      <trkpt lat="48.04425" lon="6.84253">
        <ele>826</ele>
        <time>2020-10-28T10:35:24.962Z</time>
      </trkpt>
      <trkpt lat="48.04424" lon="6.84253">
        <ele>827</ele>
        <time>2020-10-28T10:35:25.963Z</time>
      </trkpt>
      <trkpt lat="48.04424" lon="6.84254">
        <ele>827</ele>
        <time>2020-10-28T10:35:26.963Z</time>
      </trkpt>
      <trkpt lat="48.04424" lon="6.84254">
        <ele>828</ele>
        <time>2020-10-28T10:35:29.985Z</time>
      </trkpt>
      <trkpt lat="48.04423" lon="6.84254">
        <ele>828</ele>
        <time>2020-10-28T10:36:12.855Z</time>
      </trkpt>
      <trkpt lat="48.04424" lon="6.84254">
        <ele>828</ele>
        <time>2020-10-28T10:36:13.855Z</time>
      </trkpt>
      <trkpt lat="48.04424" lon="6.84254">
        <ele>828</ele>
        <time>2020-10-28T10:36:14.855Z</time>
      </trkpt>
      <trkpt lat="48.04424" lon="6.84255">
        <ele>827</ele>
        <time>2020-10-28T10:36:15.855Z</time>
      </trkpt>
      <trkpt lat="48.04424" lon="6.84255">
        <ele>827</ele>
        <time>2020-10-28T10:36:16.855Z</time>
      </trkpt>
      <trkpt lat="48.04423" lon="6.84257">
        <ele>827</ele>
        <time>2020-10-28T10:36:21.977Z</time>
      </trkpt>
      <trkpt lat="48.04423" lon="6.84257">
        <ele>827</ele>
        <time>2020-10-28T10:36:22.977Z</time>
      </trkpt>
      <trkpt lat="48.04424" lon="6.84258">
        <ele>827</ele>
        <time>2020-10-28T10:36:23.977Z</time>
      </trkpt>
      <trkpt lat="48.04423" lon="6.84259">
        <ele>827</ele>
        <time>2020-10-28T10:36:24.977Z</time>
      </trkpt>
      <trkpt lat="48.04423" lon="6.8426">
        <ele>826</ele>
        <time>2020-10-28T10:36:26.964Z</time>
      </trkpt>
      <trkpt lat="48.04423" lon="6.84261">
        <ele>826</ele>
        <time>2020-10-28T10:36:27.963Z</time>
      </trkpt>
      <trkpt lat="48.04422" lon="6.84262">
        <ele>826</ele>
        <time>2020-10-28T10:36:28.963Z</time>
      </trkpt>
      <trkpt lat="48.04422" lon="6.84263">
        <ele>826</ele>
        <time>2020-10-28T10:36:29.963Z</time>
      </trkpt>
      <trkpt lat="48.04422" lon="6.84264">
        <ele>826</ele>
        <time>2020-10-28T10:36:30.963Z</time>
      </trkpt>
      <trkpt lat="48.04422" lon="6.84265">
        <ele>825</ele>
        <time>2020-10-28T10:36:31.963Z</time>
      </trkpt>
      <trkpt lat="48.04421" lon="6.84266">
        <ele>825</ele>
        <time>2020-10-28T10:36:37.979Z</time>
      </trkpt>
      <trkpt lat="48.04421" lon="6.84268">
        <ele>825</ele>
        <time>2020-10-28T10:36:38.978Z</time>
      </trkpt>
      <trkpt lat="48.0442" lon="6.84269">
        <ele>825</ele>
        <time>2020-10-28T10:36:39.978Z</time>
      </trkpt>
      <trkpt lat="48.04421" lon="6.84272">
        <ele>825</ele>
        <time>2020-10-28T10:36:40.978Z</time>
      </trkpt>
      <trkpt lat="48.04422" lon="6.84274">
        <ele>825</ele>
        <time>2020-10-28T10:36:54.006Z</time>
      </trkpt>
      <trkpt lat="48.04423" lon="6.84277">
        <ele>826</ele>
        <time>2020-10-28T10:37:01.875Z</time>
      </trkpt>
      <trkpt lat="48.04422" lon="6.8428">
        <ele>826</ele>
        <time>2020-10-28T10:37:02.874Z</time>
      </trkpt>
      <trkpt lat="48.04421" lon="6.84282">
        <ele>826</ele>
        <time>2020-10-28T10:37:03.875Z</time>
      </trkpt>
      <trkpt lat="48.04421" lon="6.84285">
        <ele>826</ele>
        <time>2020-10-28T10:37:04.875Z</time>
      </trkpt>
      <trkpt lat="48.04421" lon="6.84287">
        <ele>827</ele>
        <time>2020-10-28T10:37:05.874Z</time>
      </trkpt>
      <trkpt lat="48.04421" lon="6.84288">
        <ele>828</ele>
        <time>2020-10-28T10:37:06.874Z</time>
      </trkpt>
      <trkpt lat="48.04421" lon="6.8429">
        <ele>829</ele>
        <time>2020-10-28T10:37:07.874Z</time>
      </trkpt>
      <trkpt lat="48.0442" lon="6.84292">
        <ele>830</ele>
        <time>2020-10-28T10:37:08.874Z</time>
      </trkpt>
      <trkpt lat="48.04419" lon="6.84293">
        <ele>831</ele>
        <time>2020-10-28T10:37:09.874Z</time>
      </trkpt>
      <trkpt lat="48.04419" lon="6.84293">
        <ele>832</ele>
        <time>2020-10-28T10:37:10.874Z</time>
      </trkpt>
      <trkpt lat="48.04418" lon="6.84294">
        <ele>832</ele>
        <time>2020-10-28T10:37:11.874Z</time>
      </trkpt>
      <trkpt lat="48.04418" lon="6.84295">
        <ele>833</ele>
        <time>2020-10-28T10:37:12.874Z</time>
      </trkpt>
      <trkpt lat="48.04417" lon="6.84295">
        <ele>834</ele>
        <time>2020-10-28T10:37:14.966Z</time>
      </trkpt>
      <trkpt lat="48.04416" lon="6.84296">
        <ele>834</ele>
        <time>2020-10-28T10:37:15.966Z</time>
      </trkpt>
      <trkpt lat="48.04415" lon="6.84297">
        <ele>835</ele>
        <time>2020-10-28T10:37:16.966Z</time>
      </trkpt>
      <trkpt lat="48.04414" lon="6.84298">
        <ele>835</ele>
        <time>2020-10-28T10:37:17.967Z</time>
      </trkpt>
      <trkpt lat="48.04414" lon="6.84299">
        <ele>836</ele>
        <time>2020-10-28T10:37:18.967Z</time>
      </trkpt>
      <trkpt lat="48.04414" lon="6.84301">
        <ele>836</ele>
        <time>2020-10-28T10:37:19.967Z</time>
      </trkpt>
      <trkpt lat="48.04413" lon="6.84303">
        <ele>836</ele>
        <time>2020-10-28T10:37:20.966Z</time>
      </trkpt>
      <trkpt lat="48.04412" lon="6.84304">
        <ele>836</ele>
        <time>2020-10-28T10:37:21.966Z</time>
      </trkpt>
      <trkpt lat="48.04411" lon="6.84305">
        <ele>836</ele>
        <time>2020-10-28T10:37:22.966Z</time>
      </trkpt>
      <trkpt lat="48.04411" lon="6.84308">
        <ele>836</ele>
        <time>2020-10-28T10:37:23.966Z</time>
      </trkpt>
      <trkpt lat="48.0441" lon="6.8431">
        <ele>836</ele>
        <time>2020-10-28T10:37:26.982Z</time>
      </trkpt>
      <trkpt lat="48.0441" lon="6.84312">
        <ele>836</ele>
        <time>2020-10-28T10:37:27.982Z</time>
      </trkpt>
      <trkpt lat="48.04409" lon="6.84313">
        <ele>835</ele>
        <time>2020-10-28T10:37:28.982Z</time>
      </trkpt>
      <trkpt lat="48.04409" lon="6.84315">
        <ele>835</ele>
        <time>2020-10-28T10:37:29.982Z</time>
      </trkpt>
      <trkpt lat="48.04408" lon="6.84316">
        <ele>834</ele>
        <time>2020-10-28T10:37:30.981Z</time>
      </trkpt>
      <trkpt lat="48.04407" lon="6.84318">
        <ele>833</ele>
        <time>2020-10-28T10:37:31.981Z</time>
      </trkpt>
      <trkpt lat="48.04407" lon="6.8432">
        <ele>833</ele>
        <time>2020-10-28T10:37:32.981Z</time>
      </trkpt>
      <trkpt lat="48.04406" lon="6.84322">
        <ele>833</ele>
        <time>2020-10-28T10:37:33.981Z</time>
      </trkpt>
      <trkpt lat="48.04405" lon="6.84323">
        <ele>834</ele>
        <time>2020-10-28T10:37:34.981Z</time>
      </trkpt>
      <trkpt lat="48.04405" lon="6.84325">
        <ele>834</ele>
        <time>2020-10-28T10:37:35.982Z</time>
      </trkpt>
      <trkpt lat="48.04405" lon="6.84326">
        <ele>835</ele>
        <time>2020-10-28T10:37:36.981Z</time>
      </trkpt>
      <trkpt lat="48.04404" lon="6.84327">
        <ele>835</ele>
        <time>2020-10-28T10:37:37.981Z</time>
      </trkpt>
      <trkpt lat="48.04405" lon="6.84329">
        <ele>836</ele>
        <time>2020-10-28T10:37:38.982Z</time>
      </trkpt>
      <trkpt lat="48.04405" lon="6.8433">
        <ele>836</ele>
        <time>2020-10-28T10:37:39.982Z</time>
      </trkpt>
      <trkpt lat="48.04405" lon="6.84331">
        <ele>836</ele>
        <time>2020-10-28T10:37:40.981Z</time>
      </trkpt>
      <trkpt lat="48.04405" lon="6.84332">
        <ele>837</ele>
        <time>2020-10-28T10:37:41.981Z</time>
      </trkpt>
      <trkpt lat="48.04403" lon="6.84334">
        <ele>837</ele>
        <time>2020-10-28T10:37:42.981Z</time>
      </trkpt>
      <trkpt lat="48.04402" lon="6.84336">
        <ele>838</ele>
        <time>2020-10-28T10:37:43.981Z</time>
      </trkpt>
      <trkpt lat="48.04401" lon="6.84338">
        <ele>838</ele>
        <time>2020-10-28T10:37:44.981Z</time>
      </trkpt>
      <trkpt lat="48.044" lon="6.8434">
        <ele>839</ele>
        <time>2020-10-28T10:37:45.981Z</time>
      </trkpt>
      <trkpt lat="48.04399" lon="6.84342">
        <ele>839</ele>
        <time>2020-10-28T10:37:46.981Z</time>
      </trkpt>
      <trkpt lat="48.04398" lon="6.84344">
        <ele>839</ele>
        <time>2020-10-28T10:37:47.981Z</time>
      </trkpt>
      <trkpt lat="48.04397" lon="6.84346">
        <ele>840</ele>
        <time>2020-10-28T10:37:48.981Z</time>
      </trkpt>
      <trkpt lat="48.04396" lon="6.84348">
        <ele>840</ele>
        <time>2020-10-28T10:37:49.982Z</time>
      </trkpt>
      <trkpt lat="48.04396" lon="6.8435">
        <ele>840</ele>
        <time>2020-10-28T10:37:50.981Z</time>
      </trkpt>
      <trkpt lat="48.04395" lon="6.84351">
        <ele>841</ele>
        <time>2020-10-28T10:37:51.981Z</time>
      </trkpt>
      <trkpt lat="48.04395" lon="6.84353">
        <ele>841</ele>
        <time>2020-10-28T10:37:52.981Z</time>
      </trkpt>
      <trkpt lat="48.04394" lon="6.84355">
        <ele>841</ele>
        <time>2020-10-28T10:37:53.981Z</time>
      </trkpt>
      <trkpt lat="48.04393" lon="6.84356">
        <ele>841</ele>
        <time>2020-10-28T10:37:54.981Z</time>
      </trkpt>
      <trkpt lat="48.04392" lon="6.84357">
        <ele>841</ele>
        <time>2020-10-28T10:37:55.981Z</time>
      </trkpt>
      <trkpt lat="48.04392" lon="6.8436">
        <ele>841</ele>
        <time>2020-10-28T10:37:56.981Z</time>
      </trkpt>
      <trkpt lat="48.04392" lon="6.84362">
        <ele>841</ele>
        <time>2020-10-28T10:37:57.982Z</time>
      </trkpt>
      <trkpt lat="48.04393" lon="6.84365">
        <ele>842</ele>
        <time>2020-10-28T10:37:58.981Z</time>
      </trkpt>
      <trkpt lat="48.04392" lon="6.84366">
        <ele>842</ele>
        <time>2020-10-28T10:37:59.981Z</time>
      </trkpt>
      <trkpt lat="48.04392" lon="6.84368">
        <ele>842</ele>
        <time>2020-10-28T10:38:00.981Z</time>
      </trkpt>
      <trkpt lat="48.04392" lon="6.84369">
        <ele>842</ele>
        <time>2020-10-28T10:38:01.981Z</time>
      </trkpt>
      <trkpt lat="48.04391" lon="6.8437">
        <ele>842</ele>
        <time>2020-10-28T10:38:02.981Z</time>
      </trkpt>
      <trkpt lat="48.04391" lon="6.84371">
        <ele>842</ele>
        <time>2020-10-28T10:38:03.982Z</time>
      </trkpt>
      <trkpt lat="48.0439" lon="6.84372">
        <ele>843</ele>
        <time>2020-10-28T10:38:04.982Z</time>
      </trkpt>
      <trkpt lat="48.0439" lon="6.84373">
        <ele>843</ele>
        <time>2020-10-28T10:38:05.982Z</time>
      </trkpt>
      <trkpt lat="48.04389" lon="6.84374">
        <ele>844</ele>
        <time>2020-10-28T10:38:06.982Z</time>
      </trkpt>
      <trkpt lat="48.04389" lon="6.84375">
        <ele>845</ele>
        <time>2020-10-28T10:38:07.981Z</time>
      </trkpt>
      <trkpt lat="48.04388" lon="6.84376">
        <ele>846</ele>
        <time>2020-10-28T10:38:08.981Z</time>
      </trkpt>
      <trkpt lat="48.04387" lon="6.84377">
        <ele>847</ele>
        <time>2020-10-28T10:38:09.981Z</time>
      </trkpt>
      <trkpt lat="48.04387" lon="6.84379">
        <ele>848</ele>
        <time>2020-10-28T10:38:10.981Z</time>
      </trkpt>
      <trkpt lat="48.04386" lon="6.8438">
        <ele>849</ele>
        <time>2020-10-28T10:38:11.981Z</time>
      </trkpt>
      <trkpt lat="48.04386" lon="6.84381">
        <ele>849</ele>
        <time>2020-10-28T10:38:12.981Z</time>
      </trkpt>
      <trkpt lat="48.04384" lon="6.84382">
        <ele>850</ele>
        <time>2020-10-28T10:38:13.981Z</time>
      </trkpt>
      <trkpt lat="48.04383" lon="6.84385">
        <ele>850</ele>
        <time>2020-10-28T10:38:14.981Z</time>
      </trkpt>
      <trkpt lat="48.04382" lon="6.84386">
        <ele>850</ele>
        <time>2020-10-28T10:38:15.981Z</time>
      </trkpt>
      <trkpt lat="48.04381" lon="6.84388">
        <ele>850</ele>
        <time>2020-10-28T10:38:16.981Z</time>
      </trkpt>
      <trkpt lat="48.0438" lon="6.8439">
        <ele>850</ele>
        <time>2020-10-28T10:38:17.981Z</time>
      </trkpt>
      <trkpt lat="48.04378" lon="6.84392">
        <ele>850</ele>
        <time>2020-10-28T10:38:18.981Z</time>
      </trkpt>
      <trkpt lat="48.04377" lon="6.84394">
        <ele>850</ele>
        <time>2020-10-28T10:38:19.981Z</time>
      </trkpt>
      <trkpt lat="48.04377" lon="6.84396">
        <ele>850</ele>
        <time>2020-10-28T10:38:20.981Z</time>
      </trkpt>
      <trkpt lat="48.04376" lon="6.84398">
        <ele>850</ele>
        <time>2020-10-28T10:38:21.981Z</time>
      </trkpt>
      <trkpt lat="48.04376" lon="6.84399">
        <ele>851</ele>
        <time>2020-10-28T10:38:22.981Z</time>
      </trkpt>
      <trkpt lat="48.04375" lon="6.84401">
        <ele>851</ele>
        <time>2020-10-28T10:38:23.981Z</time>
      </trkpt>
      <trkpt lat="48.04374" lon="6.84402">
        <ele>851</ele>
        <time>2020-10-28T10:38:24.982Z</time>
      </trkpt>
      <trkpt lat="48.04374" lon="6.84402">
        <ele>851</ele>
        <time>2020-10-28T10:38:25.982Z</time>
      </trkpt>
      <trkpt lat="48.04372" lon="6.84405">
        <ele>852</ele>
        <time>2020-10-28T10:38:26.981Z</time>
      </trkpt>
      <trkpt lat="48.0437" lon="6.84406">
        <ele>852</ele>
        <time>2020-10-28T10:38:27.982Z</time>
      </trkpt>
      <trkpt lat="48.04369" lon="6.84408">
        <ele>852</ele>
        <time>2020-10-28T10:38:28.981Z</time>
      </trkpt>
      <trkpt lat="48.04368" lon="6.84409">
        <ele>853</ele>
        <time>2020-10-28T10:38:29.982Z</time>
      </trkpt>
      <trkpt lat="48.04368" lon="6.84411">
        <ele>853</ele>
        <time>2020-10-28T10:38:30.981Z</time>
      </trkpt>
      <trkpt lat="48.04367" lon="6.84414">
        <ele>854</ele>
        <time>2020-10-28T10:38:31.981Z</time>
      </trkpt>
      <trkpt lat="48.04367" lon="6.84415">
        <ele>854</ele>
        <time>2020-10-28T10:38:32.981Z</time>
      </trkpt>
      <trkpt lat="48.04367" lon="6.84417">
        <ele>854</ele>
        <time>2020-10-28T10:38:33.981Z</time>
      </trkpt>
      <trkpt lat="48.04368" lon="6.84419">
        <ele>855</ele>
        <time>2020-10-28T10:38:34.981Z</time>
      </trkpt>
      <trkpt lat="48.04366" lon="6.84422">
        <ele>855</ele>
        <time>2020-10-28T10:38:35.981Z</time>
      </trkpt>
      <trkpt lat="48.04365" lon="6.84423">
        <ele>855</ele>
        <time>2020-10-28T10:38:36.982Z</time>
      </trkpt>
      <trkpt lat="48.04364" lon="6.84424">
        <ele>855</ele>
        <time>2020-10-28T10:38:43.141Z</time>
      </trkpt>
      <trkpt lat="48.04362" lon="6.84427">
        <ele>856</ele>
        <time>2020-10-28T10:38:44.141Z</time>
      </trkpt>
      <trkpt lat="48.0436" lon="6.8443">
        <ele>856</ele>
        <time>2020-10-28T10:38:45.141Z</time>
      </trkpt>
      <trkpt lat="48.0436" lon="6.84432">
        <ele>856</ele>
        <time>2020-10-28T10:38:46.141Z</time>
      </trkpt>
      <trkpt lat="48.0436" lon="6.84434">
        <ele>857</ele>
        <time>2020-10-28T10:38:48.229Z</time>
      </trkpt>
      <trkpt lat="48.04358" lon="6.84434">
        <ele>857</ele>
        <time>2020-10-28T10:38:49.229Z</time>
      </trkpt>
      <trkpt lat="48.04357" lon="6.84435">
        <ele>857</ele>
        <time>2020-10-28T10:38:50.229Z</time>
      </trkpt>
      <trkpt lat="48.04356" lon="6.84437">
        <ele>857</ele>
        <time>2020-10-28T10:38:51.229Z</time>
      </trkpt>
      <trkpt lat="48.04354" lon="6.84439">
        <ele>858</ele>
        <time>2020-10-28T10:38:52.229Z</time>
      </trkpt>
      <trkpt lat="48.04354" lon="6.84441">
        <ele>858</ele>
        <time>2020-10-28T10:38:53.229Z</time>
      </trkpt>
      <trkpt lat="48.04354" lon="6.84443">
        <ele>858</ele>
        <time>2020-10-28T10:38:54.230Z</time>
      </trkpt>
      <trkpt lat="48.04354" lon="6.84444">
        <ele>859</ele>
        <time>2020-10-28T10:38:55.229Z</time>
      </trkpt>
      <trkpt lat="48.04354" lon="6.84446">
        <ele>859</ele>
        <time>2020-10-28T10:38:56.229Z</time>
      </trkpt>
      <trkpt lat="48.04355" lon="6.84447">
        <ele>860</ele>
        <time>2020-10-28T10:38:57.229Z</time>
      </trkpt>
      <trkpt lat="48.04355" lon="6.84448">
        <ele>860</ele>
        <time>2020-10-28T10:38:58.229Z</time>
      </trkpt>
      <trkpt lat="48.04356" lon="6.84448">
        <ele>860</ele>
        <time>2020-10-28T10:38:59.229Z</time>
      </trkpt>
      <trkpt lat="48.04357" lon="6.84449">
        <ele>861</ele>
        <time>2020-10-28T10:39:00.230Z</time>
      </trkpt>
      <trkpt lat="48.04358" lon="6.8445">
        <ele>861</ele>
        <time>2020-10-28T10:39:01.229Z</time>
      </trkpt>
      <trkpt lat="48.04359" lon="6.8445">
        <ele>860</ele>
        <time>2020-10-28T10:39:02.229Z</time>
      </trkpt>
      <trkpt lat="48.04361" lon="6.84451">
        <ele>860</ele>
        <time>2020-10-28T10:39:03.229Z</time>
      </trkpt>
      <trkpt lat="48.04362" lon="6.84452">
        <ele>860</ele>
        <time>2020-10-28T10:39:04.229Z</time>
      </trkpt>
      <trkpt lat="48.04363" lon="6.84453">
        <ele>861</ele>
        <time>2020-10-28T10:39:05.229Z</time>
      </trkpt>
      <trkpt lat="48.04364" lon="6.84453">
        <ele>861</ele>
        <time>2020-10-28T10:39:06.229Z</time>
      </trkpt>
      <trkpt lat="48.04365" lon="6.84453">
        <ele>861</ele>
        <time>2020-10-28T10:39:07.229Z</time>
      </trkpt>
      <trkpt lat="48.04366" lon="6.84452">
        <ele>861</ele>
        <time>2020-10-28T10:39:08.229Z</time>
      </trkpt>
      <trkpt lat="48.04366" lon="6.84451">
        <ele>862</ele>
        <time>2020-10-28T10:39:09.229Z</time>
      </trkpt>
      <trkpt lat="48.04366" lon="6.84451">
        <ele>863</ele>
        <time>2020-10-28T10:39:10.230Z</time>
      </trkpt>
      <trkpt lat="48.04367" lon="6.84451">
        <ele>863</ele>
        <time>2020-10-28T10:39:11.229Z</time>
      </trkpt>
      <trkpt lat="48.04367" lon="6.84451">
        <ele>864</ele>
        <time>2020-10-28T10:39:12.229Z</time>
      </trkpt>
      <trkpt lat="48.04367" lon="6.84451">
        <ele>864</ele>
        <time>2020-10-28T10:39:13.229Z</time>
      </trkpt>
      <trkpt lat="48.04367" lon="6.84451">
        <ele>865</ele>
        <time>2020-10-28T10:39:14.230Z</time>
      </trkpt>
      <trkpt lat="48.04368" lon="6.84451">
        <ele>865</ele>
        <time>2020-10-28T10:39:15.229Z</time>
      </trkpt>
      <trkpt lat="48.04368" lon="6.84451">
        <ele>866</ele>
        <time>2020-10-28T10:39:16.230Z</time>
      </trkpt>
      <trkpt lat="48.04368" lon="6.84451">
        <ele>867</ele>
        <time>2020-10-28T10:39:17.229Z</time>
      </trkpt>
      <trkpt lat="48.0437" lon="6.84451">
        <ele>868</ele>
        <time>2020-10-28T10:39:18.230Z</time>
      </trkpt>
      <trkpt lat="48.04371" lon="6.84451">
        <ele>869</ele>
        <time>2020-10-28T10:39:19.229Z</time>
      </trkpt>
      <trkpt lat="48.04374" lon="6.84452">
        <ele>870</ele>
        <time>2020-10-28T10:39:21.357Z</time>
      </trkpt>
      <trkpt lat="48.04373" lon="6.84452">
        <ele>871</ele>
        <time>2020-10-28T10:39:22.357Z</time>
      </trkpt>
      <trkpt lat="48.0437" lon="6.84452">
        <ele>872</ele>
        <time>2020-10-28T10:39:23.358Z</time>
      </trkpt>
      <trkpt lat="48.04368" lon="6.84451">
        <ele>872</ele>
        <time>2020-10-28T10:39:24.358Z</time>
      </trkpt>
      <trkpt lat="48.04367" lon="6.8445">
        <ele>873</ele>
        <time>2020-10-28T10:39:25.358Z</time>
      </trkpt>
      <trkpt lat="48.04365" lon="6.8445">
        <ele>873</ele>
        <time>2020-10-28T10:39:26.357Z</time>
      </trkpt>
      <trkpt lat="48.04363" lon="6.8445">
        <ele>873</ele>
        <time>2020-10-28T10:39:27.357Z</time>
      </trkpt>
      <trkpt lat="48.04362" lon="6.84449">
        <ele>873</ele>
        <time>2020-10-28T10:39:28.357Z</time>
      </trkpt>
      <trkpt lat="48.04361" lon="6.84448">
        <ele>873</ele>
        <time>2020-10-28T10:39:29.358Z</time>
      </trkpt>
      <trkpt lat="48.0436" lon="6.84448">
        <ele>873</ele>
        <time>2020-10-28T10:39:30.357Z</time>
      </trkpt>
      <trkpt lat="48.04359" lon="6.84448">
        <ele>872</ele>
        <time>2020-10-28T10:39:31.358Z</time>
      </trkpt>
      <trkpt lat="48.04358" lon="6.84449">
        <ele>872</ele>
        <time>2020-10-28T10:39:32.358Z</time>
      </trkpt>
      <trkpt lat="48.04357" lon="6.84449">
        <ele>871</ele>
        <time>2020-10-28T10:39:33.357Z</time>
      </trkpt>
      <trkpt lat="48.04356" lon="6.8445">
        <ele>871</ele>
        <time>2020-10-28T10:39:34.357Z</time>
      </trkpt>
      <trkpt lat="48.04356" lon="6.84451">
        <ele>870</ele>
        <time>2020-10-28T10:39:35.357Z</time>
      </trkpt>
      <trkpt lat="48.04356" lon="6.84452">
        <ele>870</ele>
        <time>2020-10-28T10:39:36.358Z</time>
      </trkpt>
      <trkpt lat="48.04355" lon="6.84453">
        <ele>870</ele>
        <time>2020-10-28T10:39:37.358Z</time>
      </trkpt>
      <trkpt lat="48.04354" lon="6.84454">
        <ele>870</ele>
        <time>2020-10-28T10:39:38.357Z</time>
      </trkpt>
      <trkpt lat="48.04354" lon="6.84455">
        <ele>869</ele>
        <time>2020-10-28T10:39:39.357Z</time>
      </trkpt>
      <trkpt lat="48.04353" lon="6.84456">
        <ele>869</ele>
        <time>2020-10-28T10:39:40.357Z</time>
      </trkpt>
      <trkpt lat="48.04353" lon="6.84457">
        <ele>870</ele>
        <time>2020-10-28T10:39:41.357Z</time>
      </trkpt>
      <trkpt lat="48.04353" lon="6.84459">
        <ele>870</ele>
        <time>2020-10-28T10:39:42.357Z</time>
      </trkpt>
      <trkpt lat="48.04353" lon="6.8446">
        <ele>871</ele>
        <time>2020-10-28T10:39:43.357Z</time>
      </trkpt>
      <trkpt lat="48.04353" lon="6.84461">
        <ele>871</ele>
        <time>2020-10-28T10:39:47.478Z</time>
      </trkpt>
      <trkpt lat="48.04352" lon="6.84462">
        <ele>871</ele>
        <time>2020-10-28T10:39:48.478Z</time>
      </trkpt>
      <trkpt lat="48.04351" lon="6.84462">
        <ele>871</ele>
        <time>2020-10-28T10:39:49.478Z</time>
      </trkpt>
      <trkpt lat="48.0435" lon="6.84461">
        <ele>871</ele>
        <time>2020-10-28T10:39:50.479Z</time>
      </trkpt>
      <trkpt lat="48.04349" lon="6.84461">
        <ele>871</ele>
        <time>2020-10-28T10:39:51.479Z</time>
      </trkpt>
      <trkpt lat="48.04348" lon="6.84461">
        <ele>870</ele>
        <time>2020-10-28T10:39:52.479Z</time>
      </trkpt>
      <trkpt lat="48.04346" lon="6.84461">
        <ele>870</ele>
        <time>2020-10-28T10:39:53.478Z</time>
      </trkpt>
      <trkpt lat="48.04345" lon="6.8446">
        <ele>870</ele>
        <time>2020-10-28T10:39:54.478Z</time>
      </trkpt>
      <trkpt lat="48.04344" lon="6.84459">
        <ele>869</ele>
        <time>2020-10-28T10:39:55.479Z</time>
      </trkpt>
      <trkpt lat="48.04343" lon="6.84458">
        <ele>869</ele>
        <time>2020-10-28T10:39:56.479Z</time>
      </trkpt>
      <trkpt lat="48.04342" lon="6.84458">
        <ele>868</ele>
        <time>2020-10-28T10:39:57.479Z</time>
      </trkpt>
      <trkpt lat="48.04341" lon="6.84457">
        <ele>868</ele>
        <time>2020-10-28T10:40:27.508Z</time>
      </trkpt>
      <trkpt lat="48.0434" lon="6.84455">
        <ele>868</ele>
        <time>2020-10-28T10:40:28.508Z</time>
      </trkpt>
      <trkpt lat="48.04339" lon="6.84454">
        <ele>867</ele>
        <time>2020-10-28T10:40:29.509Z</time>
      </trkpt>
      <trkpt lat="48.04338" lon="6.84452">
        <ele>867</ele>
        <time>2020-10-28T10:40:30.509Z</time>
      </trkpt>
      <trkpt lat="48.04337" lon="6.84451">
        <ele>867</ele>
        <time>2020-10-28T10:40:31.509Z</time>
      </trkpt>
      <trkpt lat="48.04337" lon="6.8445">
        <ele>868</ele>
        <time>2020-10-28T10:40:32.509Z</time>
      </trkpt>
      <trkpt lat="48.04338" lon="6.84451">
        <ele>868</ele>
        <time>2020-10-28T10:40:33.509Z</time>
      </trkpt>
      <trkpt lat="48.0434" lon="6.84451">
        <ele>869</ele>
        <time>2020-10-28T10:40:35.485Z</time>
      </trkpt>
      <trkpt lat="48.04342" lon="6.84452">
        <ele>869</ele>
        <time>2020-10-28T10:40:38.355Z</time>
      </trkpt>
      <trkpt lat="48.04343" lon="6.84452">
        <ele>870</ele>
        <time>2020-10-28T10:40:39.354Z</time>
      </trkpt>
      <trkpt lat="48.04344" lon="6.84453">
        <ele>870</ele>
        <time>2020-10-28T10:40:40.354Z</time>
      </trkpt>
      <trkpt lat="48.04344" lon="6.84455">
        <ele>871</ele>
        <time>2020-10-28T10:40:41.354Z</time>
      </trkpt>
      <trkpt lat="48.04345" lon="6.84456">
        <ele>871</ele>
        <time>2020-10-28T10:40:42.355Z</time>
      </trkpt>
      <trkpt lat="48.04346" lon="6.84457">
        <ele>872</ele>
        <time>2020-10-28T10:40:43.355Z</time>
      </trkpt>
      <trkpt lat="48.04347" lon="6.84458">
        <ele>872</ele>
        <time>2020-10-28T10:40:44.355Z</time>
      </trkpt>
      <trkpt lat="48.04347" lon="6.84459">
        <ele>872</ele>
        <time>2020-10-28T10:40:45.355Z</time>
      </trkpt>
      <trkpt lat="48.04348" lon="6.84461">
        <ele>872</ele>
        <time>2020-10-28T10:40:46.355Z</time>
      </trkpt>
      <trkpt lat="48.04349" lon="6.84461">
        <ele>873</ele>
        <time>2020-10-28T10:40:47.355Z</time>
      </trkpt>
      <trkpt lat="48.0435" lon="6.84462">
        <ele>873</ele>
        <time>2020-10-28T10:40:48.354Z</time>
      </trkpt>
      <trkpt lat="48.0435" lon="6.84462">
        <ele>873</ele>
        <time>2020-10-28T10:40:49.355Z</time>
      </trkpt>
      <trkpt lat="48.04351" lon="6.84463">
        <ele>874</ele>
        <time>2020-10-28T10:40:50.355Z</time>
      </trkpt>
      <trkpt lat="48.04352" lon="6.84463">
        <ele>874</ele>
        <time>2020-10-28T10:40:51.355Z</time>
      </trkpt>
      <trkpt lat="48.04352" lon="6.84463">
        <ele>875</ele>
        <time>2020-10-28T10:40:52.355Z</time>
      </trkpt>
      <trkpt lat="48.04353" lon="6.84463">
        <ele>875</ele>
        <time>2020-10-28T10:40:53.355Z</time>
      </trkpt>
      <trkpt lat="48.04354" lon="6.84464">
        <ele>876</ele>
        <time>2020-10-28T10:40:54.354Z</time>
      </trkpt>
      <trkpt lat="48.04355" lon="6.84465">
        <ele>876</ele>
        <time>2020-10-28T10:40:55.355Z</time>
      </trkpt>
      <trkpt lat="48.04356" lon="6.84466">
        <ele>877</ele>
        <time>2020-10-28T10:40:56.355Z</time>
      </trkpt>
      <trkpt lat="48.04358" lon="6.84467">
        <ele>877</ele>
        <time>2020-10-28T10:40:57.354Z</time>
      </trkpt>
      <trkpt lat="48.04359" lon="6.84468">
        <ele>876</ele>
        <time>2020-10-28T10:40:58.355Z</time>
      </trkpt>
      <trkpt lat="48.0436" lon="6.84469">
        <ele>876</ele>
        <time>2020-10-28T10:40:59.355Z</time>
      </trkpt>
      <trkpt lat="48.04361" lon="6.8447">
        <ele>875</ele>
        <time>2020-10-28T10:41:00.355Z</time>
      </trkpt>
      <trkpt lat="48.04362" lon="6.84471">
        <ele>874</ele>
        <time>2020-10-28T10:41:01.355Z</time>
      </trkpt>
      <trkpt lat="48.04363" lon="6.84471">
        <ele>873</ele>
        <time>2020-10-28T10:41:08.510Z</time>
      </trkpt>
      <trkpt lat="48.04364" lon="6.84472">
        <ele>873</ele>
        <time>2020-10-28T10:41:09.510Z</time>
      </trkpt>
      <trkpt lat="48.04366" lon="6.84473">
        <ele>872</ele>
        <time>2020-10-28T10:41:10.510Z</time>
      </trkpt>
      <trkpt lat="48.04367" lon="6.84473">
        <ele>871</ele>
        <time>2020-10-28T10:41:11.510Z</time>
      </trkpt>
      <trkpt lat="48.04369" lon="6.84473">
        <ele>870</ele>
        <time>2020-10-28T10:41:12.510Z</time>
      </trkpt>
      <trkpt lat="48.0437" lon="6.84474">
        <ele>869</ele>
        <time>2020-10-28T10:41:13.510Z</time>
      </trkpt>
      <trkpt lat="48.04371" lon="6.84474">
        <ele>869</ele>
        <time>2020-10-28T10:41:14.510Z</time>
      </trkpt>
      <trkpt lat="48.04373" lon="6.84475">
        <ele>868</ele>
        <time>2020-10-28T10:41:15.509Z</time>
      </trkpt>
      <trkpt lat="48.04375" lon="6.84477">
        <ele>867</ele>
        <time>2020-10-28T10:41:16.510Z</time>
      </trkpt>
      <trkpt lat="48.04377" lon="6.84478">
        <ele>867</ele>
        <time>2020-10-28T10:41:17.510Z</time>
      </trkpt>
      <trkpt lat="48.04379" lon="6.84478">
        <ele>867</ele>
        <time>2020-10-28T10:41:18.509Z</time>
      </trkpt>
      <trkpt lat="48.0438" lon="6.84479">
        <ele>866</ele>
        <time>2020-10-28T10:41:19.510Z</time>
      </trkpt>
      <trkpt lat="48.04381" lon="6.8448">
        <ele>865</ele>
        <time>2020-10-28T10:41:20.510Z</time>
      </trkpt>
      <trkpt lat="48.04382" lon="6.8448">
        <ele>865</ele>
        <time>2020-10-28T10:41:21.509Z</time>
      </trkpt>
      <trkpt lat="48.04383" lon="6.8448">
        <ele>865</ele>
        <time>2020-10-28T10:41:22.510Z</time>
      </trkpt>
      <trkpt lat="48.04384" lon="6.8448">
        <ele>865</ele>
        <time>2020-10-28T10:41:23.510Z</time>
      </trkpt>
      <trkpt lat="48.04386" lon="6.8448">
        <ele>864</ele>
        <time>2020-10-28T10:41:24.510Z</time>
      </trkpt>
      <trkpt lat="48.04387" lon="6.8448">
        <ele>863</ele>
        <time>2020-10-28T10:41:25.510Z</time>
      </trkpt>
      <trkpt lat="48.04388" lon="6.8448">
        <ele>863</ele>
        <time>2020-10-28T10:41:26.509Z</time>
      </trkpt>
      <trkpt lat="48.0439" lon="6.84481">
        <ele>862</ele>
        <time>2020-10-28T10:41:27.510Z</time>
      </trkpt>
      <trkpt lat="48.04391" lon="6.84482">
        <ele>862</ele>
        <time>2020-10-28T10:41:28.509Z</time>
      </trkpt>
      <trkpt lat="48.04392" lon="6.84483">
        <ele>861</ele>
        <time>2020-10-28T10:41:29.510Z</time>
      </trkpt>
      <trkpt lat="48.04392" lon="6.84483">
        <ele>861</ele>
        <time>2020-10-28T10:41:30.509Z</time>
      </trkpt>
      <trkpt lat="48.04393" lon="6.84483">
        <ele>860</ele>
        <time>2020-10-28T10:41:31.509Z</time>
      </trkpt>
      <trkpt lat="48.04395" lon="6.84483">
        <ele>860</ele>
        <time>2020-10-28T10:41:32.510Z</time>
      </trkpt>
      <trkpt lat="48.04396" lon="6.84483">
        <ele>860</ele>
        <time>2020-10-28T10:41:33.510Z</time>
      </trkpt>
      <trkpt lat="48.04398" lon="6.84483">
        <ele>860</ele>
        <time>2020-10-28T10:41:34.510Z</time>
      </trkpt>
      <trkpt lat="48.044" lon="6.84483">
        <ele>860</ele>
        <time>2020-10-28T10:41:35.510Z</time>
      </trkpt>
      <trkpt lat="48.04401" lon="6.84484">
        <ele>860</ele>
        <time>2020-10-28T10:41:36.510Z</time>
      </trkpt>
      <trkpt lat="48.04402" lon="6.84485">
        <ele>860</ele>
        <time>2020-10-28T10:41:37.510Z</time>
      </trkpt>
      <trkpt lat="48.04404" lon="6.84486">
        <ele>860</ele>
        <time>2020-10-28T10:41:38.510Z</time>
      </trkpt>
      <trkpt lat="48.04406" lon="6.84486">
        <ele>859</ele>
        <time>2020-10-28T10:41:39.509Z</time>
      </trkpt>
      <trkpt lat="48.04408" lon="6.84488">
        <ele>859</ele>
        <time>2020-10-28T10:41:40.509Z</time>
      </trkpt>
      <trkpt lat="48.0441" lon="6.84489">
        <ele>859</ele>
        <time>2020-10-28T10:41:41.510Z</time>
      </trkpt>
      <trkpt lat="48.04411" lon="6.84489">
        <ele>859</ele>
        <time>2020-10-28T10:41:42.510Z</time>
      </trkpt>
      <trkpt lat="48.04413" lon="6.84491">
        <ele>858</ele>
        <time>2020-10-28T10:41:43.510Z</time>
      </trkpt>
      <trkpt lat="48.04414" lon="6.84493">
        <ele>858</ele>
        <time>2020-10-28T10:41:44.510Z</time>
      </trkpt>
      <trkpt lat="48.04416" lon="6.84494">
        <ele>857</ele>
        <time>2020-10-28T10:41:45.510Z</time>
      </trkpt>
      <trkpt lat="48.04417" lon="6.84495">
        <ele>857</ele>
        <time>2020-10-28T10:41:46.509Z</time>
      </trkpt>
      <trkpt lat="48.04418" lon="6.84495">
        <ele>856</ele>
        <time>2020-10-28T10:41:47.510Z</time>
      </trkpt>
      <trkpt lat="48.0442" lon="6.84496">
        <ele>856</ele>
        <time>2020-10-28T10:41:48.510Z</time>
      </trkpt>
      <trkpt lat="48.0442" lon="6.84498">
        <ele>856</ele>
        <time>2020-10-28T10:41:49.510Z</time>
      </trkpt>
      <trkpt lat="48.04421" lon="6.84499">
        <ele>856</ele>
        <time>2020-10-28T10:41:50.509Z</time>
      </trkpt>
      <trkpt lat="48.04422" lon="6.845">
        <ele>856</ele>
        <time>2020-10-28T10:41:51.510Z</time>
      </trkpt>
      <trkpt lat="48.04423" lon="6.84502">
        <ele>856</ele>
        <time>2020-10-28T10:41:52.509Z</time>
      </trkpt>
      <trkpt lat="48.04424" lon="6.84504">
        <ele>856</ele>
        <time>2020-10-28T10:41:53.510Z</time>
      </trkpt>
      <trkpt lat="48.04426" lon="6.84506">
        <ele>856</ele>
        <time>2020-10-28T10:41:54.510Z</time>
      </trkpt>
      <trkpt lat="48.04427" lon="6.84507">
        <ele>857</ele>
        <time>2020-10-28T10:43:29.635Z</time>
      </trkpt>
      <trkpt lat="48.04428" lon="6.84508">
        <ele>857</ele>
        <time>2020-10-28T10:43:30.636Z</time>
      </trkpt>
      <trkpt lat="48.04429" lon="6.8451">
        <ele>858</ele>
        <time>2020-10-28T10:43:31.635Z</time>
      </trkpt>
      <trkpt lat="48.0443" lon="6.84511">
        <ele>858</ele>
        <time>2020-10-28T10:43:32.636Z</time>
      </trkpt>
      <trkpt lat="48.04431" lon="6.84512">
        <ele>859</ele>
        <time>2020-10-28T10:43:33.635Z</time>
      </trkpt>
      <trkpt lat="48.04433" lon="6.84514">
        <ele>859</ele>
        <time>2020-10-28T10:43:34.636Z</time>
      </trkpt>
      <trkpt lat="48.04434" lon="6.84516">
        <ele>860</ele>
        <time>2020-10-28T10:43:35.636Z</time>
      </trkpt>
      <trkpt lat="48.04437" lon="6.84517">
        <ele>860</ele>
        <time>2020-10-28T10:43:36.636Z</time>
      </trkpt>
      <trkpt lat="48.04439" lon="6.84518">
        <ele>861</ele>
        <time>2020-10-28T10:43:37.636Z</time>
      </trkpt>
      <trkpt lat="48.04441" lon="6.84519">
        <ele>861</ele>
        <time>2020-10-28T10:43:38.636Z</time>
      </trkpt>
      <trkpt lat="48.04443" lon="6.84521">
        <ele>862</ele>
        <time>2020-10-28T10:43:39.636Z</time>
      </trkpt>
      <trkpt lat="48.04444" lon="6.84523">
        <ele>862</ele>
        <time>2020-10-28T10:43:40.636Z</time>
      </trkpt>
      <trkpt lat="48.04445" lon="6.84524">
        <ele>862</ele>
        <time>2020-10-28T10:43:41.636Z</time>
      </trkpt>
      <trkpt lat="48.04446" lon="6.84526">
        <ele>862</ele>
        <time>2020-10-28T10:43:42.635Z</time>
      </trkpt>
      <trkpt lat="48.04446" lon="6.84528">
        <ele>862</ele>
        <time>2020-10-28T10:43:43.635Z</time>
      </trkpt>
      <trkpt lat="48.04447" lon="6.84531">
        <ele>862</ele>
        <time>2020-10-28T10:43:44.635Z</time>
      </trkpt>
      <trkpt lat="48.04448" lon="6.84534">
        <ele>863</ele>
        <time>2020-10-28T10:43:45.636Z</time>
      </trkpt>
      <trkpt lat="48.04448" lon="6.84536">
        <ele>863</ele>
        <time>2020-10-28T10:44:03.757Z</time>
      </trkpt>
      <trkpt lat="48.0445" lon="6.84538">
        <ele>863</ele>
        <time>2020-10-28T10:44:04.758Z</time>
      </trkpt>
      <trkpt lat="48.04451" lon="6.8454">
        <ele>863</ele>
        <time>2020-10-28T10:44:05.758Z</time>
      </trkpt>
      <trkpt lat="48.04452" lon="6.84542">
        <ele>863</ele>
        <time>2020-10-28T10:44:06.758Z</time>
      </trkpt>
      <trkpt lat="48.04452" lon="6.84543">
        <ele>864</ele>
        <time>2020-10-28T10:44:07.758Z</time>
      </trkpt>
      <trkpt lat="48.04452" lon="6.84545">
        <ele>864</ele>
        <time>2020-10-28T10:44:08.758Z</time>
      </trkpt>
      <trkpt lat="48.04452" lon="6.84546">
        <ele>864</ele>
        <time>2020-10-28T10:44:09.757Z</time>
      </trkpt>
      <trkpt lat="48.04452" lon="6.84547">
        <ele>865</ele>
        <time>2020-10-28T10:44:10.758Z</time>
      </trkpt>
      <trkpt lat="48.04453" lon="6.84549">
        <ele>865</ele>
        <time>2020-10-28T10:44:11.758Z</time>
      </trkpt>
      <trkpt lat="48.04454" lon="6.84551">
        <ele>865</ele>
        <time>2020-10-28T10:44:12.758Z</time>
      </trkpt>
      <trkpt lat="48.04455" lon="6.84553">
        <ele>864</ele>
        <time>2020-10-28T10:44:13.758Z</time>
      </trkpt>
      <trkpt lat="48.04456" lon="6.84555">
        <ele>864</ele>
        <time>2020-10-28T10:44:14.757Z</time>
      </trkpt>
      <trkpt lat="48.04457" lon="6.84558">
        <ele>863</ele>
        <time>2020-10-28T10:44:15.758Z</time>
      </trkpt>
      <trkpt lat="48.04458" lon="6.8456">
        <ele>863</ele>
        <time>2020-10-28T10:44:16.758Z</time>
      </trkpt>
      <trkpt lat="48.04458" lon="6.84562">
        <ele>862</ele>
        <time>2020-10-28T10:44:17.758Z</time>
      </trkpt>
      <trkpt lat="48.04458" lon="6.84565">
        <ele>862</ele>
        <time>2020-10-28T10:44:18.758Z</time>
      </trkpt>
      <trkpt lat="48.04458" lon="6.84567">
        <ele>861</ele>
        <time>2020-10-28T10:44:19.758Z</time>
      </trkpt>
      <trkpt lat="48.04458" lon="6.84569">
        <ele>860</ele>
        <time>2020-10-28T10:44:20.758Z</time>
      </trkpt>
      <trkpt lat="48.04458" lon="6.84571">
        <ele>860</ele>
        <time>2020-10-28T10:44:21.758Z</time>
      </trkpt>
      <trkpt lat="48.04457" lon="6.84573">
        <ele>860</ele>
        <time>2020-10-28T10:44:22.758Z</time>
      </trkpt>
      <trkpt lat="48.04457" lon="6.84575">
        <ele>859</ele>
        <time>2020-10-28T10:44:23.758Z</time>
      </trkpt>
      <trkpt lat="48.04457" lon="6.84578">
        <ele>859</ele>
        <time>2020-10-28T10:44:24.758Z</time>
      </trkpt>
      <trkpt lat="48.04457" lon="6.8458">
        <ele>859</ele>
        <time>2020-10-28T10:44:25.758Z</time>
      </trkpt>
      <trkpt lat="48.04458" lon="6.84583">
        <ele>858</ele>
        <time>2020-10-28T10:44:59.766Z</time>
      </trkpt>
      <trkpt lat="48.04458" lon="6.84586">
        <ele>858</ele>
        <time>2020-10-28T10:45:00.765Z</time>
      </trkpt>
      <trkpt lat="48.04458" lon="6.84588">
        <ele>857</ele>
        <time>2020-10-28T10:45:01.766Z</time>
      </trkpt>
      <trkpt lat="48.04458" lon="6.84591">
        <ele>857</ele>
        <time>2020-10-28T10:45:02.766Z</time>
      </trkpt>
      <trkpt lat="48.0446" lon="6.84593">
        <ele>857</ele>
        <time>2020-10-28T10:45:03.766Z</time>
      </trkpt>
      <trkpt lat="48.04462" lon="6.84595">
        <ele>856</ele>
        <time>2020-10-28T10:45:04.766Z</time>
      </trkpt>
      <trkpt lat="48.04463" lon="6.84596">
        <ele>856</ele>
        <time>2020-10-28T10:45:05.765Z</time>
      </trkpt>
      <trkpt lat="48.04465" lon="6.84598">
        <ele>856</ele>
        <time>2020-10-28T10:45:06.766Z</time>
      </trkpt>
      <trkpt lat="48.04466" lon="6.84599">
        <ele>856</ele>
        <time>2020-10-28T10:45:07.766Z</time>
      </trkpt>
      <trkpt lat="48.04467" lon="6.84601">
        <ele>855</ele>
        <time>2020-10-28T10:45:08.765Z</time>
      </trkpt>
      <trkpt lat="48.04468" lon="6.84603">
        <ele>855</ele>
        <time>2020-10-28T10:45:09.766Z</time>
      </trkpt>
      <trkpt lat="48.04469" lon="6.84604">
        <ele>855</ele>
        <time>2020-10-28T10:45:10.766Z</time>
      </trkpt>
      <trkpt lat="48.04469" lon="6.84606">
        <ele>855</ele>
        <time>2020-10-28T10:45:11.766Z</time>
      </trkpt>
      <trkpt lat="48.0447" lon="6.84607">
        <ele>855</ele>
        <time>2020-10-28T10:45:12.765Z</time>
      </trkpt>
      <trkpt lat="48.04472" lon="6.84608">
        <ele>855</ele>
        <time>2020-10-28T10:45:13.766Z</time>
      </trkpt>
      <trkpt lat="48.04473" lon="6.84609">
        <ele>855</ele>
        <time>2020-10-28T10:45:14.766Z</time>
      </trkpt>
      <trkpt lat="48.04475" lon="6.8461">
        <ele>855</ele>
        <time>2020-10-28T10:45:15.766Z</time>
      </trkpt>
      <trkpt lat="48.04475" lon="6.84612">
        <ele>855</ele>
        <time>2020-10-28T10:45:16.765Z</time>
      </trkpt>
      <trkpt lat="48.04476" lon="6.84614">
        <ele>855</ele>
        <time>2020-10-28T10:45:17.766Z</time>
      </trkpt>
      <trkpt lat="48.04476" lon="6.84615">
        <ele>855</ele>
        <time>2020-10-28T10:45:18.765Z</time>
      </trkpt>
      <trkpt lat="48.04477" lon="6.84618">
        <ele>855</ele>
        <time>2020-10-28T10:45:19.765Z</time>
      </trkpt>
      <trkpt lat="48.04478" lon="6.8462">
        <ele>855</ele>
        <time>2020-10-28T10:45:20.766Z</time>
      </trkpt>
      <trkpt lat="48.04478" lon="6.84622">
        <ele>855</ele>
        <time>2020-10-28T10:45:21.766Z</time>
      </trkpt>
      <trkpt lat="48.04479" lon="6.84624">
        <ele>855</ele>
        <time>2020-10-28T10:45:22.766Z</time>
      </trkpt>
      <trkpt lat="48.0448" lon="6.84626">
        <ele>854</ele>
        <time>2020-10-28T10:45:29.848Z</time>
      </trkpt>
      <trkpt lat="48.04481" lon="6.84628">
        <ele>854</ele>
        <time>2020-10-28T10:45:30.848Z</time>
      </trkpt>
      <trkpt lat="48.04481" lon="6.84629">
        <ele>854</ele>
        <time>2020-10-28T10:45:31.848Z</time>
      </trkpt>
      <trkpt lat="48.04482" lon="6.8463">
        <ele>853</ele>
        <time>2020-10-28T10:45:32.848Z</time>
      </trkpt>
      <trkpt lat="48.04482" lon="6.84632">
        <ele>853</ele>
        <time>2020-10-28T10:45:33.847Z</time>
      </trkpt>
      <trkpt lat="48.04482" lon="6.84633">
        <ele>853</ele>
        <time>2020-10-28T10:45:34.847Z</time>
      </trkpt>
      <trkpt lat="48.04482" lon="6.84635">
        <ele>853</ele>
        <time>2020-10-28T10:45:35.848Z</time>
      </trkpt>
      <trkpt lat="48.04483" lon="6.84636">
        <ele>854</ele>
        <time>2020-10-28T10:45:36.848Z</time>
      </trkpt>
      <trkpt lat="48.04483" lon="6.84637">
        <ele>854</ele>
        <time>2020-10-28T10:45:37.848Z</time>
      </trkpt>
      <trkpt lat="48.04484" lon="6.84638">
        <ele>854</ele>
        <time>2020-10-28T10:45:38.848Z</time>
      </trkpt>
      <trkpt lat="48.04485" lon="6.8464">
        <ele>854</ele>
        <time>2020-10-28T10:45:39.848Z</time>
      </trkpt>
      <trkpt lat="48.04486" lon="6.84642">
        <ele>855</ele>
        <time>2020-10-28T10:45:40.848Z</time>
      </trkpt>
      <trkpt lat="48.04487" lon="6.84643">
        <ele>855</ele>
        <time>2020-10-28T10:45:41.848Z</time>
      </trkpt>
      <trkpt lat="48.04489" lon="6.84645">
        <ele>855</ele>
        <time>2020-10-28T10:45:42.848Z</time>
      </trkpt>
      <trkpt lat="48.0449" lon="6.84646">
        <ele>855</ele>
        <time>2020-10-28T10:45:43.848Z</time>
      </trkpt>
      <trkpt lat="48.04491" lon="6.84648">
        <ele>855</ele>
        <time>2020-10-28T10:45:44.848Z</time>
      </trkpt>
      <trkpt lat="48.04492" lon="6.84649">
        <ele>855</ele>
        <time>2020-10-28T10:45:48.848Z</time>
      </trkpt>
      <trkpt lat="48.04492" lon="6.8465">
        <ele>856</ele>
        <time>2020-10-28T10:45:49.848Z</time>
      </trkpt>
      <trkpt lat="48.04493" lon="6.84651">
        <ele>856</ele>
        <time>2020-10-28T10:45:50.848Z</time>
      </trkpt>
      <trkpt lat="48.04494" lon="6.84651">
        <ele>857</ele>
        <time>2020-10-28T10:45:51.847Z</time>
      </trkpt>
      <trkpt lat="48.04496" lon="6.84652">
        <ele>858</ele>
        <time>2020-10-28T10:45:52.848Z</time>
      </trkpt>
      <trkpt lat="48.04497" lon="6.84653">
        <ele>858</ele>
        <time>2020-10-28T10:45:53.848Z</time>
      </trkpt>
      <trkpt lat="48.04498" lon="6.84653">
        <ele>859</ele>
        <time>2020-10-28T10:45:54.848Z</time>
      </trkpt>
      <trkpt lat="48.04499" lon="6.84654">
        <ele>860</ele>
        <time>2020-10-28T10:45:55.848Z</time>
      </trkpt>
      <trkpt lat="48.045" lon="6.84654">
        <ele>861</ele>
        <time>2020-10-28T10:45:56.847Z</time>
      </trkpt>
      <trkpt lat="48.04501" lon="6.84655">
        <ele>861</ele>
        <time>2020-10-28T10:45:57.847Z</time>
      </trkpt>
      <trkpt lat="48.04503" lon="6.84655">
        <ele>862</ele>
        <time>2020-10-28T10:45:58.848Z</time>
      </trkpt>
      <trkpt lat="48.04504" lon="6.84655">
        <ele>863</ele>
        <time>2020-10-28T10:45:59.848Z</time>
      </trkpt>
      <trkpt lat="48.04505" lon="6.84656">
        <ele>863</ele>
        <time>2020-10-28T10:46:00.848Z</time>
      </trkpt>
      <trkpt lat="48.04506" lon="6.84656">
        <ele>864</ele>
        <time>2020-10-28T10:46:01.848Z</time>
      </trkpt>
      <trkpt lat="48.04507" lon="6.84657">
        <ele>864</ele>
        <time>2020-10-28T10:46:02.847Z</time>
      </trkpt>
      <trkpt lat="48.04508" lon="6.84657">
        <ele>865</ele>
        <time>2020-10-28T10:46:03.847Z</time>
      </trkpt>
      <trkpt lat="48.04509" lon="6.84656">
        <ele>865</ele>
        <time>2020-10-28T10:46:04.848Z</time>
      </trkpt>
      <trkpt lat="48.04511" lon="6.84656">
        <ele>865</ele>
        <time>2020-10-28T10:46:05.848Z</time>
      </trkpt>
      <trkpt lat="48.04512" lon="6.84655">
        <ele>866</ele>
        <time>2020-10-28T10:46:06.847Z</time>
      </trkpt>
      <trkpt lat="48.04514" lon="6.84655">
        <ele>866</ele>
        <time>2020-10-28T10:46:07.847Z</time>
      </trkpt>
      <trkpt lat="48.04514" lon="6.84656">
        <ele>866</ele>
        <time>2020-10-28T10:46:08.848Z</time>
      </trkpt>
      <trkpt lat="48.04515" lon="6.84656">
        <ele>866</ele>
        <time>2020-10-28T10:46:09.848Z</time>
      </trkpt>
      <trkpt lat="48.04516" lon="6.84656">
        <ele>866</ele>
        <time>2020-10-28T10:46:10.848Z</time>
      </trkpt>
      <trkpt lat="48.04517" lon="6.84656">
        <ele>866</ele>
        <time>2020-10-28T10:46:11.848Z</time>
      </trkpt>
      <trkpt lat="48.04518" lon="6.84657">
        <ele>866</ele>
        <time>2020-10-28T10:46:12.848Z</time>
      </trkpt>
      <trkpt lat="48.04519" lon="6.84657">
        <ele>866</ele>
        <time>2020-10-28T10:46:13.848Z</time>
      </trkpt>
      <trkpt lat="48.0452" lon="6.84658">
        <ele>866</ele>
        <time>2020-10-28T10:46:14.848Z</time>
      </trkpt>
      <trkpt lat="48.04521" lon="6.84658">
        <ele>866</ele>
        <time>2020-10-28T10:46:15.848Z</time>
      </trkpt>
      <trkpt lat="48.04522" lon="6.84658">
        <ele>865</ele>
        <time>2020-10-28T10:46:16.848Z</time>
      </trkpt>
      <trkpt lat="48.04523" lon="6.84658">
        <ele>865</ele>
        <time>2020-10-28T10:46:17.847Z</time>
      </trkpt>
      <trkpt lat="48.04524" lon="6.84658">
        <ele>865</ele>
        <time>2020-10-28T10:46:18.848Z</time>
      </trkpt>
      <trkpt lat="48.04524" lon="6.84659">
        <ele>864</ele>
        <time>2020-10-28T10:46:19.847Z</time>
      </trkpt>
      <trkpt lat="48.04525" lon="6.8466">
        <ele>864</ele>
        <time>2020-10-28T10:46:20.847Z</time>
      </trkpt>
      <trkpt lat="48.04526" lon="6.84662">
        <ele>863</ele>
        <time>2020-10-28T10:46:21.848Z</time>
      </trkpt>
      <trkpt lat="48.04528" lon="6.84664">
        <ele>863</ele>
        <time>2020-10-28T10:46:22.848Z</time>
      </trkpt>
      <trkpt lat="48.0453" lon="6.84665">
        <ele>863</ele>
        <time>2020-10-28T10:46:23.848Z</time>
      </trkpt>
      <trkpt lat="48.04532" lon="6.84666">
        <ele>862</ele>
        <time>2020-10-28T10:46:24.848Z</time>
      </trkpt>
      <trkpt lat="48.04534" lon="6.84667">
        <ele>862</ele>
        <time>2020-10-28T10:46:25.848Z</time>
      </trkpt>
      <trkpt lat="48.04536" lon="6.84668">
        <ele>862</ele>
        <time>2020-10-28T10:46:26.848Z</time>
      </trkpt>
      <trkpt lat="48.04538" lon="6.8467">
        <ele>862</ele>
        <time>2020-10-28T10:46:27.847Z</time>
      </trkpt>
      <trkpt lat="48.04539" lon="6.84671">
        <ele>862</ele>
        <time>2020-10-28T10:46:28.848Z</time>
      </trkpt>
      <trkpt lat="48.04541" lon="6.84673">
        <ele>862</ele>
        <time>2020-10-28T10:46:29.848Z</time>
      </trkpt>
      <trkpt lat="48.04543" lon="6.84675">
        <ele>862</ele>
        <time>2020-10-28T10:46:30.848Z</time>
      </trkpt>
      <trkpt lat="48.04545" lon="6.84677">
        <ele>862</ele>
        <time>2020-10-28T10:46:31.847Z</time>
      </trkpt>
      <trkpt lat="48.04548" lon="6.84678">
        <ele>861</ele>
        <time>2020-10-28T10:46:32.848Z</time>
      </trkpt>
      <trkpt lat="48.04549" lon="6.8468">
        <ele>861</ele>
        <time>2020-10-28T10:46:33.848Z</time>
      </trkpt>
      <trkpt lat="48.04551" lon="6.84681">
        <ele>860</ele>
        <time>2020-10-28T10:46:34.848Z</time>
      </trkpt>
      <trkpt lat="48.04552" lon="6.84683">
        <ele>860</ele>
        <time>2020-10-28T10:46:35.848Z</time>
      </trkpt>
      <trkpt lat="48.04553" lon="6.84684">
        <ele>859</ele>
        <time>2020-10-28T10:46:36.848Z</time>
      </trkpt>
      <trkpt lat="48.04554" lon="6.84685">
        <ele>859</ele>
        <time>2020-10-28T10:46:37.848Z</time>
      </trkpt>
      <trkpt lat="48.04555" lon="6.84686">
        <ele>858</ele>
        <time>2020-10-28T10:46:38.848Z</time>
      </trkpt>
      <trkpt lat="48.04556" lon="6.84688">
        <ele>857</ele>
        <time>2020-10-28T10:46:39.847Z</time>
      </trkpt>
      <trkpt lat="48.04557" lon="6.84689">
        <ele>857</ele>
        <time>2020-10-28T10:46:40.848Z</time>
      </trkpt>
      <trkpt lat="48.04558" lon="6.84691">
        <ele>856</ele>
        <time>2020-10-28T10:46:41.848Z</time>
      </trkpt>
      <trkpt lat="48.04559" lon="6.84693">
        <ele>856</ele>
        <time>2020-10-28T10:46:42.848Z</time>
      </trkpt>
      <trkpt lat="48.04559" lon="6.84695">
        <ele>856</ele>
        <time>2020-10-28T10:46:43.848Z</time>
      </trkpt>
      <trkpt lat="48.0456" lon="6.84697">
        <ele>856</ele>
        <time>2020-10-28T10:46:44.848Z</time>
      </trkpt>
      <trkpt lat="48.04561" lon="6.84699">
        <ele>855</ele>
        <time>2020-10-28T10:46:45.848Z</time>
      </trkpt>
      <trkpt lat="48.04562" lon="6.84701">
        <ele>855</ele>
        <time>2020-10-28T10:46:46.848Z</time>
      </trkpt>
      <trkpt lat="48.04563" lon="6.84703">
        <ele>854</ele>
        <time>2020-10-28T10:46:47.847Z</time>
      </trkpt>
      <trkpt lat="48.04564" lon="6.84705">
        <ele>853</ele>
        <time>2020-10-28T10:46:48.848Z</time>
      </trkpt>
      <trkpt lat="48.04565" lon="6.84707">
        <ele>853</ele>
        <time>2020-10-28T10:46:49.847Z</time>
      </trkpt>
      <trkpt lat="48.04566" lon="6.84709">
        <ele>852</ele>
        <time>2020-10-28T10:46:50.848Z</time>
      </trkpt>
      <trkpt lat="48.04567" lon="6.84711">
        <ele>852</ele>
        <time>2020-10-28T10:46:51.847Z</time>
      </trkpt>
      <trkpt lat="48.04568" lon="6.84712">
        <ele>851</ele>
        <time>2020-10-28T10:46:52.847Z</time>
      </trkpt>
      <trkpt lat="48.04568" lon="6.84713">
        <ele>851</ele>
        <time>2020-10-28T10:46:53.847Z</time>
      </trkpt>
      <trkpt lat="48.0457" lon="6.84715">
        <ele>851</ele>
        <time>2020-10-28T10:46:54.848Z</time>
      </trkpt>
      <trkpt lat="48.04572" lon="6.84716">
        <ele>852</ele>
        <time>2020-10-28T10:46:55.848Z</time>
      </trkpt>
      <trkpt lat="48.04574" lon="6.84717">
        <ele>852</ele>
        <time>2020-10-28T10:46:56.847Z</time>
      </trkpt>
      <trkpt lat="48.04576" lon="6.84719">
        <ele>853</ele>
        <time>2020-10-28T10:46:57.847Z</time>
      </trkpt>
      <trkpt lat="48.04578" lon="6.8472">
        <ele>853</ele>
        <time>2020-10-28T10:46:58.848Z</time>
      </trkpt>
      <trkpt lat="48.04579" lon="6.84722">
        <ele>853</ele>
        <time>2020-10-28T10:46:59.847Z</time>
      </trkpt>
      <trkpt lat="48.0458" lon="6.84724">
        <ele>854</ele>
        <time>2020-10-28T10:47:00.848Z</time>
      </trkpt>
      <trkpt lat="48.04582" lon="6.84726">
        <ele>854</ele>
        <time>2020-10-28T10:47:01.847Z</time>
      </trkpt>
      <trkpt lat="48.04583" lon="6.84728">
        <ele>854</ele>
        <time>2020-10-28T10:47:02.847Z</time>
      </trkpt>
      <trkpt lat="48.04584" lon="6.84729">
        <ele>854</ele>
        <time>2020-10-28T10:47:03.848Z</time>
      </trkpt>
      <trkpt lat="48.04585" lon="6.84731">
        <ele>855</ele>
        <time>2020-10-28T10:47:04.848Z</time>
      </trkpt>
      <trkpt lat="48.04586" lon="6.84733">
        <ele>855</ele>
        <time>2020-10-28T10:47:05.847Z</time>
      </trkpt>
      <trkpt lat="48.04587" lon="6.84734">
        <ele>855</ele>
        <time>2020-10-28T10:47:06.848Z</time>
      </trkpt>
      <trkpt lat="48.04588" lon="6.84736">
        <ele>854</ele>
        <time>2020-10-28T10:47:07.848Z</time>
      </trkpt>
      <trkpt lat="48.04589" lon="6.84737">
        <ele>855</ele>
        <time>2020-10-28T10:47:08.847Z</time>
      </trkpt>
      <trkpt lat="48.0459" lon="6.84738">
        <ele>855</ele>
        <time>2020-10-28T10:47:09.848Z</time>
      </trkpt>
      <trkpt lat="48.04592" lon="6.84739">
        <ele>855</ele>
        <time>2020-10-28T10:47:10.848Z</time>
      </trkpt>
      <trkpt lat="48.04593" lon="6.8474">
        <ele>855</ele>
        <time>2020-10-28T10:47:11.848Z</time>
      </trkpt>
      <trkpt lat="48.04594" lon="6.84741">
        <ele>856</ele>
        <time>2020-10-28T10:47:12.848Z</time>
      </trkpt>
      <trkpt lat="48.04595" lon="6.84742">
        <ele>856</ele>
        <time>2020-10-28T10:47:13.847Z</time>
      </trkpt>
      <trkpt lat="48.04596" lon="6.84743">
        <ele>857</ele>
        <time>2020-10-28T10:47:14.848Z</time>
      </trkpt>
      <trkpt lat="48.04597" lon="6.84744">
        <ele>857</ele>
        <time>2020-10-28T10:47:15.848Z</time>
      </trkpt>
      <trkpt lat="48.04598" lon="6.84745">
        <ele>857</ele>
        <time>2020-10-28T10:47:16.848Z</time>
      </trkpt>
      <trkpt lat="48.046" lon="6.84746">
        <ele>856</ele>
        <time>2020-10-28T10:47:17.847Z</time>
      </trkpt>
      <trkpt lat="48.046" lon="6.84748">
        <ele>856</ele>
        <time>2020-10-28T10:47:18.847Z</time>
      </trkpt>
      <trkpt lat="48.04601" lon="6.84749">
        <ele>856</ele>
        <time>2020-10-28T10:47:19.848Z</time>
      </trkpt>
      <trkpt lat="48.04602" lon="6.84751">
        <ele>856</ele>
        <time>2020-10-28T10:47:20.848Z</time>
      </trkpt>
      <trkpt lat="48.04603" lon="6.84752">
        <ele>856</ele>
        <time>2020-10-28T10:47:21.847Z</time>
      </trkpt>
      <trkpt lat="48.04604" lon="6.84754">
        <ele>856</ele>
        <time>2020-10-28T10:47:22.847Z</time>
      </trkpt>
      <trkpt lat="48.04606" lon="6.84756">
        <ele>856</ele>
        <time>2020-10-28T10:47:23.848Z</time>
      </trkpt>
      <trkpt lat="48.04606" lon="6.84758">
        <ele>855</ele>
        <time>2020-10-28T10:47:24.848Z</time>
      </trkpt>
      <trkpt lat="48.04606" lon="6.8476">
        <ele>856</ele>
        <time>2020-10-28T10:47:25.847Z</time>
      </trkpt>
      <trkpt lat="48.04608" lon="6.84762">
        <ele>855</ele>
        <time>2020-10-28T10:47:26.848Z</time>
      </trkpt>
      <trkpt lat="48.04609" lon="6.84764">
        <ele>855</ele>
        <time>2020-10-28T10:47:27.847Z</time>
      </trkpt>
      <trkpt lat="48.04609" lon="6.84766">
        <ele>855</ele>
        <time>2020-10-28T10:47:28.848Z</time>
      </trkpt>
      <trkpt lat="48.04611" lon="6.84768">
        <ele>855</ele>
        <time>2020-10-28T10:47:29.847Z</time>
      </trkpt>
      <trkpt lat="48.04612" lon="6.84769">
        <ele>855</ele>
        <time>2020-10-28T10:47:30.848Z</time>
      </trkpt>
      <trkpt lat="48.04613" lon="6.84771">
        <ele>855</ele>
        <time>2020-10-28T10:47:31.848Z</time>
      </trkpt>
      <trkpt lat="48.04614" lon="6.84773">
        <ele>854</ele>
        <time>2020-10-28T10:47:32.848Z</time>
      </trkpt>
      <trkpt lat="48.04614" lon="6.84774">
        <ele>854</ele>
        <time>2020-10-28T10:47:33.847Z</time>
      </trkpt>
      <trkpt lat="48.04615" lon="6.84776">
        <ele>854</ele>
        <time>2020-10-28T10:47:34.847Z</time>
      </trkpt>
      <trkpt lat="48.04617" lon="6.84778">
        <ele>854</ele>
        <time>2020-10-28T10:47:35.848Z</time>
      </trkpt>
      <trkpt lat="48.04618" lon="6.84779">
        <ele>854</ele>
        <time>2020-10-28T10:47:36.848Z</time>
      </trkpt>
      <trkpt lat="48.04618" lon="6.84781">
        <ele>853</ele>
        <time>2020-10-28T10:47:37.848Z</time>
      </trkpt>
      <trkpt lat="48.0462" lon="6.84783">
        <ele>853</ele>
        <time>2020-10-28T10:47:38.847Z</time>
      </trkpt>
      <trkpt lat="48.04621" lon="6.84784">
        <ele>853</ele>
        <time>2020-10-28T10:47:39.848Z</time>
      </trkpt>
      <trkpt lat="48.04622" lon="6.84785">
        <ele>853</ele>
        <time>2020-10-28T10:47:40.848Z</time>
      </trkpt>
      <trkpt lat="48.04624" lon="6.84787">
        <ele>853</ele>
        <time>2020-10-28T10:47:41.848Z</time>
      </trkpt>
      <trkpt lat="48.04625" lon="6.84789">
        <ele>853</ele>
        <time>2020-10-28T10:47:42.847Z</time>
      </trkpt>
      <trkpt lat="48.04626" lon="6.84791">
        <ele>854</ele>
        <time>2020-10-28T10:47:43.847Z</time>
      </trkpt>
      <trkpt lat="48.04627" lon="6.84792">
        <ele>854</ele>
        <time>2020-10-28T10:47:44.848Z</time>
      </trkpt>
      <trkpt lat="48.04627" lon="6.84794">
        <ele>853</ele>
        <time>2020-10-28T10:47:45.847Z</time>
      </trkpt>
      <trkpt lat="48.04629" lon="6.84796">
        <ele>853</ele>
        <time>2020-10-28T10:47:46.847Z</time>
      </trkpt>
      <trkpt lat="48.04629" lon="6.84797">
        <ele>853</ele>
        <time>2020-10-28T10:47:47.847Z</time>
      </trkpt>
      <trkpt lat="48.0463" lon="6.84798">
        <ele>852</ele>
        <time>2020-10-28T10:47:48.848Z</time>
      </trkpt>
      <trkpt lat="48.04631" lon="6.84799">
        <ele>852</ele>
        <time>2020-10-28T10:47:49.848Z</time>
      </trkpt>
      <trkpt lat="48.04633" lon="6.84801">
        <ele>851</ele>
        <time>2020-10-28T10:47:56.902Z</time>
      </trkpt>
      <trkpt lat="48.04633" lon="6.84802">
        <ele>851</ele>
        <time>2020-10-28T10:47:57.902Z</time>
      </trkpt>
      <trkpt lat="48.04634" lon="6.84803">
        <ele>850</ele>
        <time>2020-10-28T10:47:58.902Z</time>
      </trkpt>
      <trkpt lat="48.04635" lon="6.84804">
        <ele>850</ele>
        <time>2020-10-28T10:47:59.902Z</time>
      </trkpt>
      <trkpt lat="48.04636" lon="6.84805">
        <ele>849</ele>
        <time>2020-10-28T10:48:00.902Z</time>
      </trkpt>
      <trkpt lat="48.04637" lon="6.84806">
        <ele>849</ele>
        <time>2020-10-28T10:48:01.902Z</time>
      </trkpt>
      <trkpt lat="48.04638" lon="6.84807">
        <ele>849</ele>
        <time>2020-10-28T10:48:31.012Z</time>
      </trkpt>
      <trkpt lat="48.04638" lon="6.84808">
        <ele>848</ele>
        <time>2020-10-28T10:48:32.013Z</time>
      </trkpt>
      <trkpt lat="48.04639" lon="6.84809">
        <ele>848</ele>
        <time>2020-10-28T10:48:33.013Z</time>
      </trkpt>
      <trkpt lat="48.0464" lon="6.8481">
        <ele>848</ele>
        <time>2020-10-28T10:48:34.012Z</time>
      </trkpt>
      <trkpt lat="48.04642" lon="6.84811">
        <ele>848</ele>
        <time>2020-10-28T10:48:35.012Z</time>
      </trkpt>
      <trkpt lat="48.04644" lon="6.84812">
        <ele>848</ele>
        <time>2020-10-28T10:48:36.013Z</time>
      </trkpt>
      <trkpt lat="48.04645" lon="6.84813">
        <ele>848</ele>
        <time>2020-10-28T10:48:37.013Z</time>
      </trkpt>
      <trkpt lat="48.04646" lon="6.84813">
        <ele>848</ele>
        <time>2020-10-28T10:48:38.012Z</time>
      </trkpt>
      <trkpt lat="48.04648" lon="6.84814">
        <ele>849</ele>
        <time>2020-10-28T10:48:39.012Z</time>
      </trkpt>
      <trkpt lat="48.04648" lon="6.84815">
        <ele>849</ele>
        <time>2020-10-28T10:48:40.012Z</time>
      </trkpt>
      <trkpt lat="48.04649" lon="6.84816">
        <ele>849</ele>
        <time>2020-10-28T10:48:41.013Z</time>
      </trkpt>
      <trkpt lat="48.0465" lon="6.84817">
        <ele>849</ele>
        <time>2020-10-28T10:48:42.013Z</time>
      </trkpt>
      <trkpt lat="48.04651" lon="6.84818">
        <ele>849</ele>
        <time>2020-10-28T10:48:43.013Z</time>
      </trkpt>
      <trkpt lat="48.04652" lon="6.84819">
        <ele>849</ele>
        <time>2020-10-28T10:48:44.012Z</time>
      </trkpt>
      <trkpt lat="48.04653" lon="6.8482">
        <ele>849</ele>
        <time>2020-10-28T10:48:45.013Z</time>
      </trkpt>
      <trkpt lat="48.04654" lon="6.84821">
        <ele>849</ele>
        <time>2020-10-28T10:48:46.013Z</time>
      </trkpt>
      <trkpt lat="48.04655" lon="6.84822">
        <ele>849</ele>
        <time>2020-10-28T10:48:47.013Z</time>
      </trkpt>
      <trkpt lat="48.04656" lon="6.84823">
        <ele>849</ele>
        <time>2020-10-28T10:48:48.012Z</time>
      </trkpt>
      <trkpt lat="48.04657" lon="6.84824">
        <ele>848</ele>
        <time>2020-10-28T10:48:49.013Z</time>
      </trkpt>
      <trkpt lat="48.04658" lon="6.84825">
        <ele>848</ele>
        <time>2020-10-28T10:48:50.012Z</time>
      </trkpt>
      <trkpt lat="48.04659" lon="6.84826">
        <ele>847</ele>
        <time>2020-10-28T10:48:51.013Z</time>
      </trkpt>
      <trkpt lat="48.04661" lon="6.84827">
        <ele>846</ele>
        <time>2020-10-28T10:48:52.012Z</time>
      </trkpt>
      <trkpt lat="48.04662" lon="6.84828">
        <ele>846</ele>
        <time>2020-10-28T10:48:53.013Z</time>
      </trkpt>
      <trkpt lat="48.04663" lon="6.84829">
        <ele>846</ele>
        <time>2020-10-28T10:48:54.012Z</time>
      </trkpt>
      <trkpt lat="48.04665" lon="6.84831">
        <ele>845</ele>
        <time>2020-10-28T10:48:55.012Z</time>
      </trkpt>
      <trkpt lat="48.04667" lon="6.84832">
        <ele>845</ele>
        <time>2020-10-28T10:48:56.013Z</time>
      </trkpt>
      <trkpt lat="48.04669" lon="6.84833">
        <ele>844</ele>
        <time>2020-10-28T10:48:57.013Z</time>
      </trkpt>
      <trkpt lat="48.0467" lon="6.84835">
        <ele>844</ele>
        <time>2020-10-28T10:48:58.013Z</time>
      </trkpt>
      <trkpt lat="48.04671" lon="6.84837">
        <ele>844</ele>
        <time>2020-10-28T10:48:59.012Z</time>
      </trkpt>
      <trkpt lat="48.04672" lon="6.84838">
        <ele>844</ele>
        <time>2020-10-28T10:49:00.013Z</time>
      </trkpt>
      <trkpt lat="48.04673" lon="6.84839">
        <ele>843</ele>
        <time>2020-10-28T10:49:01.013Z</time>
      </trkpt>
      <trkpt lat="48.04674" lon="6.8484">
        <ele>843</ele>
        <time>2020-10-28T10:49:02.013Z</time>
      </trkpt>
      <trkpt lat="48.04676" lon="6.8484">
        <ele>843</ele>
        <time>2020-10-28T10:49:03.013Z</time>
      </trkpt>
      <trkpt lat="48.04678" lon="6.84841">
        <ele>842</ele>
        <time>2020-10-28T10:49:04.013Z</time>
      </trkpt>
      <trkpt lat="48.0468" lon="6.84841">
        <ele>842</ele>
        <time>2020-10-28T10:49:05.013Z</time>
      </trkpt>
      <trkpt lat="48.04682" lon="6.84842">
        <ele>842</ele>
        <time>2020-10-28T10:49:06.013Z</time>
      </trkpt>
      <trkpt lat="48.04683" lon="6.84842">
        <ele>842</ele>
        <time>2020-10-28T10:49:07.013Z</time>
      </trkpt>
      <trkpt lat="48.04685" lon="6.84843">
        <ele>842</ele>
        <time>2020-10-28T10:49:08.013Z</time>
      </trkpt>
      <trkpt lat="48.04686" lon="6.84845">
        <ele>842</ele>
        <time>2020-10-28T10:49:09.013Z</time>
      </trkpt>
      <trkpt lat="48.04687" lon="6.84846">
        <ele>842</ele>
        <time>2020-10-28T10:49:10.012Z</time>
      </trkpt>
      <trkpt lat="48.04687" lon="6.84847">
        <ele>842</ele>
        <time>2020-10-28T10:49:11.013Z</time>
      </trkpt>
      <trkpt lat="48.04688" lon="6.84848">
        <ele>842</ele>
        <time>2020-10-28T10:49:12.013Z</time>
      </trkpt>
      <trkpt lat="48.04689" lon="6.84849">
        <ele>842</ele>
        <time>2020-10-28T10:49:13.013Z</time>
      </trkpt>
      <trkpt lat="48.0469" lon="6.8485">
        <ele>842</ele>
        <time>2020-10-28T10:49:14.012Z</time>
      </trkpt>
      <trkpt lat="48.04691" lon="6.84851">
        <ele>842</ele>
        <time>2020-10-28T10:49:15.012Z</time>
      </trkpt>
      <trkpt lat="48.04692" lon="6.84852">
        <ele>843</ele>
        <time>2020-10-28T10:49:16.012Z</time>
      </trkpt>
      <trkpt lat="48.04694" lon="6.84853">
        <ele>843</ele>
        <time>2020-10-28T10:49:17.013Z</time>
      </trkpt>
      <trkpt lat="48.04695" lon="6.84854">
        <ele>843</ele>
        <time>2020-10-28T10:49:18.012Z</time>
      </trkpt>
      <trkpt lat="48.04696" lon="6.84855">
        <ele>843</ele>
        <time>2020-10-28T10:49:19.012Z</time>
      </trkpt>
      <trkpt lat="48.04698" lon="6.84856">
        <ele>843</ele>
        <time>2020-10-28T10:49:20.013Z</time>
      </trkpt>
      <trkpt lat="48.04699" lon="6.84857">
        <ele>843</ele>
        <time>2020-10-28T10:49:21.013Z</time>
      </trkpt>
      <trkpt lat="48.047" lon="6.84858">
        <ele>843</ele>
        <time>2020-10-28T10:49:22.013Z</time>
      </trkpt>
      <trkpt lat="48.04702" lon="6.84859">
        <ele>843</ele>
        <time>2020-10-28T10:49:23.013Z</time>
      </trkpt>
      <trkpt lat="48.04703" lon="6.8486">
        <ele>843</ele>
        <time>2020-10-28T10:49:24.012Z</time>
      </trkpt>
      <trkpt lat="48.04704" lon="6.84861">
        <ele>843</ele>
        <time>2020-10-28T10:49:25.013Z</time>
      </trkpt>
      <trkpt lat="48.04706" lon="6.84862">
        <ele>843</ele>
        <time>2020-10-28T10:49:26.013Z</time>
      </trkpt>
      <trkpt lat="48.04708" lon="6.84862">
        <ele>844</ele>
        <time>2020-10-28T10:49:27.013Z</time>
      </trkpt>
      <trkpt lat="48.0471" lon="6.84864">
        <ele>844</ele>
        <time>2020-10-28T10:49:28.013Z</time>
      </trkpt>
      <trkpt lat="48.04711" lon="6.84866">
        <ele>844</ele>
        <time>2020-10-28T10:49:29.013Z</time>
      </trkpt>
      <trkpt lat="48.04713" lon="6.84867">
        <ele>844</ele>
        <time>2020-10-28T10:49:30.013Z</time>
      </trkpt>
      <trkpt lat="48.04715" lon="6.8487">
        <ele>844</ele>
        <time>2020-10-28T10:49:31.013Z</time>
      </trkpt>
      <trkpt lat="48.04717" lon="6.84872">
        <ele>844</ele>
        <time>2020-10-28T10:49:32.013Z</time>
      </trkpt>
      <trkpt lat="48.04718" lon="6.84875">
        <ele>843</ele>
        <time>2020-10-28T10:49:33.013Z</time>
      </trkpt>
      <trkpt lat="48.04719" lon="6.84877">
        <ele>843</ele>
        <time>2020-10-28T10:49:34.013Z</time>
      </trkpt>
      <trkpt lat="48.0472" lon="6.84879">
        <ele>843</ele>
        <time>2020-10-28T10:49:35.012Z</time>
      </trkpt>
      <trkpt lat="48.04722" lon="6.8488">
        <ele>842</ele>
        <time>2020-10-28T10:49:36.013Z</time>
      </trkpt>
      <trkpt lat="48.04724" lon="6.84882">
        <ele>841</ele>
        <time>2020-10-28T10:49:37.013Z</time>
      </trkpt>
      <trkpt lat="48.04724" lon="6.84885">
        <ele>840</ele>
        <time>2020-10-28T10:49:38.013Z</time>
      </trkpt>
      <trkpt lat="48.04725" lon="6.84887">
        <ele>840</ele>
        <time>2020-10-28T10:49:39.012Z</time>
      </trkpt>
      <trkpt lat="48.04725" lon="6.84889">
        <ele>839</ele>
        <time>2020-10-28T10:49:40.012Z</time>
      </trkpt>
      <trkpt lat="48.04725" lon="6.8489">
        <ele>838</ele>
        <time>2020-10-28T10:49:41.012Z</time>
      </trkpt>
      <trkpt lat="48.04726" lon="6.84893">
        <ele>837</ele>
        <time>2020-10-28T10:49:42.013Z</time>
      </trkpt>
      <trkpt lat="48.04726" lon="6.84896">
        <ele>836</ele>
        <time>2020-10-28T10:49:43.013Z</time>
      </trkpt>
      <trkpt lat="48.04726" lon="6.84899">
        <ele>835</ele>
        <time>2020-10-28T10:49:44.012Z</time>
      </trkpt>
      <trkpt lat="48.04725" lon="6.84901">
        <ele>835</ele>
        <time>2020-10-28T10:49:45.013Z</time>
      </trkpt>
      <trkpt lat="48.04725" lon="6.84904">
        <ele>834</ele>
        <time>2020-10-28T10:49:46.013Z</time>
      </trkpt>
      <trkpt lat="48.04724" lon="6.84907">
        <ele>834</ele>
        <time>2020-10-28T10:49:47.013Z</time>
      </trkpt>
      <trkpt lat="48.04724" lon="6.84908">
        <ele>833</ele>
        <time>2020-10-28T10:49:48.013Z</time>
      </trkpt>
      <trkpt lat="48.04723" lon="6.8491">
        <ele>833</ele>
        <time>2020-10-28T10:49:49.012Z</time>
      </trkpt>
      <trkpt lat="48.04723" lon="6.84912">
        <ele>832</ele>
        <time>2020-10-28T10:49:50.013Z</time>
      </trkpt>
      <trkpt lat="48.04722" lon="6.84914">
        <ele>832</ele>
        <time>2020-10-28T10:49:51.013Z</time>
      </trkpt>
      <trkpt lat="48.04722" lon="6.84915">
        <ele>831</ele>
        <time>2020-10-28T10:49:52.013Z</time>
      </trkpt>
      <trkpt lat="48.04722" lon="6.84917">
        <ele>831</ele>
        <time>2020-10-28T10:49:53.013Z</time>
      </trkpt>
      <trkpt lat="48.04722" lon="6.84919">
        <ele>830</ele>
        <time>2020-10-28T10:49:54.013Z</time>
      </trkpt>
      <trkpt lat="48.04722" lon="6.84921">
        <ele>830</ele>
        <time>2020-10-28T10:49:55.013Z</time>
      </trkpt>
      <trkpt lat="48.04722" lon="6.84923">
        <ele>829</ele>
        <time>2020-10-28T10:49:56.013Z</time>
      </trkpt>
      <trkpt lat="48.04722" lon="6.84925">
        <ele>829</ele>
        <time>2020-10-28T10:49:57.013Z</time>
      </trkpt>
      <trkpt lat="48.04722" lon="6.84927">
        <ele>829</ele>
        <time>2020-10-28T10:49:58.013Z</time>
      </trkpt>
      <trkpt lat="48.04722" lon="6.84929">
        <ele>828</ele>
        <time>2020-10-28T10:49:59.013Z</time>
      </trkpt>
      <trkpt lat="48.04722" lon="6.84931">
        <ele>828</ele>
        <time>2020-10-28T10:50:00.012Z</time>
      </trkpt>
      <trkpt lat="48.04722" lon="6.84934">
        <ele>828</ele>
        <time>2020-10-28T10:50:01.013Z</time>
      </trkpt>
      <trkpt lat="48.04721" lon="6.84936">
        <ele>828</ele>
        <time>2020-10-28T10:50:02.013Z</time>
      </trkpt>
      <trkpt lat="48.04721" lon="6.84938">
        <ele>828</ele>
        <time>2020-10-28T10:50:03.013Z</time>
      </trkpt>
      <trkpt lat="48.0472" lon="6.8494">
        <ele>828</ele>
        <time>2020-10-28T10:50:04.012Z</time>
      </trkpt>
      <trkpt lat="48.0472" lon="6.84942">
        <ele>828</ele>
        <time>2020-10-28T10:50:05.012Z</time>
      </trkpt>
      <trkpt lat="48.0472" lon="6.84944">
        <ele>828</ele>
        <time>2020-10-28T10:50:06.013Z</time>
      </trkpt>
      <trkpt lat="48.0472" lon="6.84946">
        <ele>828</ele>
        <time>2020-10-28T10:50:07.013Z</time>
      </trkpt>
      <trkpt lat="48.0472" lon="6.84949">
        <ele>828</ele>
        <time>2020-10-28T10:50:08.013Z</time>
      </trkpt>
      <trkpt lat="48.0472" lon="6.84951">
        <ele>829</ele>
        <time>2020-10-28T10:50:09.013Z</time>
      </trkpt>
      <trkpt lat="48.0472" lon="6.84953">
        <ele>829</ele>
        <time>2020-10-28T10:50:10.013Z</time>
      </trkpt>
      <trkpt lat="48.04721" lon="6.84955">
        <ele>829</ele>
        <time>2020-10-28T10:50:11.012Z</time>
      </trkpt>
      <trkpt lat="48.0472" lon="6.84956">
        <ele>829</ele>
        <time>2020-10-28T10:50:12.013Z</time>
      </trkpt>
      <trkpt lat="48.0472" lon="6.84958">
        <ele>829</ele>
        <time>2020-10-28T10:50:13.012Z</time>
      </trkpt>
      <trkpt lat="48.04721" lon="6.8496">
        <ele>829</ele>
        <time>2020-10-28T10:50:14.013Z</time>
      </trkpt>
      <trkpt lat="48.04721" lon="6.84962">
        <ele>829</ele>
        <time>2020-10-28T10:50:15.012Z</time>
      </trkpt>
      <trkpt lat="48.04721" lon="6.84965">
        <ele>829</ele>
        <time>2020-10-28T10:50:16.013Z</time>
      </trkpt>
      <trkpt lat="48.04721" lon="6.84967">
        <ele>829</ele>
        <time>2020-10-28T10:50:17.013Z</time>
      </trkpt>
      <trkpt lat="48.04721" lon="6.84969">
        <ele>829</ele>
        <time>2020-10-28T10:50:18.012Z</time>
      </trkpt>
      <trkpt lat="48.04721" lon="6.84972">
        <ele>829</ele>
        <time>2020-10-28T10:50:19.013Z</time>
      </trkpt>
      <trkpt lat="48.04721" lon="6.84974">
        <ele>829</ele>
        <time>2020-10-28T10:50:20.013Z</time>
      </trkpt>
      <trkpt lat="48.04721" lon="6.84977">
        <ele>830</ele>
        <time>2020-10-28T10:50:21.013Z</time>
      </trkpt>
      <trkpt lat="48.04721" lon="6.84979">
        <ele>830</ele>
        <time>2020-10-28T10:50:22.013Z</time>
      </trkpt>
      <trkpt lat="48.04722" lon="6.84981">
        <ele>831</ele>
        <time>2020-10-28T10:50:23.013Z</time>
      </trkpt>
      <trkpt lat="48.04723" lon="6.84984">
        <ele>831</ele>
        <time>2020-10-28T10:50:24.013Z</time>
      </trkpt>
      <trkpt lat="48.04723" lon="6.84986">
        <ele>832</ele>
        <time>2020-10-28T10:50:25.012Z</time>
      </trkpt>
      <trkpt lat="48.04723" lon="6.84988">
        <ele>832</ele>
        <time>2020-10-28T10:50:26.013Z</time>
      </trkpt>
      <trkpt lat="48.04724" lon="6.8499">
        <ele>832</ele>
        <time>2020-10-28T10:50:27.013Z</time>
      </trkpt>
      <trkpt lat="48.04724" lon="6.84992">
        <ele>832</ele>
        <time>2020-10-28T10:50:28.013Z</time>
      </trkpt>
      <trkpt lat="48.04724" lon="6.84994">
        <ele>832</ele>
        <time>2020-10-28T10:50:29.013Z</time>
      </trkpt>
      <trkpt lat="48.04724" lon="6.84996">
        <ele>833</ele>
        <time>2020-10-28T10:50:30.012Z</time>
      </trkpt>
      <trkpt lat="48.04724" lon="6.84998">
        <ele>833</ele>
        <time>2020-10-28T10:50:31.012Z</time>
      </trkpt>
      <trkpt lat="48.04724" lon="6.85001">
        <ele>833</ele>
        <time>2020-10-28T10:50:32.012Z</time>
      </trkpt>
      <trkpt lat="48.04725" lon="6.85004">
        <ele>833</ele>
        <time>2020-10-28T10:50:33.013Z</time>
      </trkpt>
      <trkpt lat="48.04725" lon="6.85006">
        <ele>834</ele>
        <time>2020-10-28T10:50:34.013Z</time>
      </trkpt>
      <trkpt lat="48.04725" lon="6.85008">
        <ele>833</ele>
        <time>2020-10-28T10:50:35.013Z</time>
      </trkpt>
      <trkpt lat="48.04725" lon="6.8501">
        <ele>833</ele>
        <time>2020-10-28T10:50:36.013Z</time>
      </trkpt>
      <trkpt lat="48.04725" lon="6.85013">
        <ele>832</ele>
        <time>2020-10-28T10:50:37.013Z</time>
      </trkpt>
      <trkpt lat="48.04725" lon="6.85015">
        <ele>831</ele>
        <time>2020-10-28T10:50:38.013Z</time>
      </trkpt>
      <trkpt lat="48.04725" lon="6.85017">
        <ele>830</ele>
        <time>2020-10-28T10:50:39.013Z</time>
      </trkpt>
      <trkpt lat="48.04725" lon="6.85019">
        <ele>829</ele>
        <time>2020-10-28T10:50:40.012Z</time>
      </trkpt>
      <trkpt lat="48.04725" lon="6.85022">
        <ele>828</ele>
        <time>2020-10-28T10:50:41.013Z</time>
      </trkpt>
      <trkpt lat="48.04726" lon="6.85024">
        <ele>827</ele>
        <time>2020-10-28T10:50:42.012Z</time>
      </trkpt>
      <trkpt lat="48.04726" lon="6.85026">
        <ele>827</ele>
        <time>2020-10-28T10:50:43.013Z</time>
      </trkpt>
      <trkpt lat="48.04726" lon="6.85028">
        <ele>826</ele>
        <time>2020-10-28T10:50:44.013Z</time>
      </trkpt>
      <trkpt lat="48.04726" lon="6.8503">
        <ele>826</ele>
        <time>2020-10-28T10:50:45.012Z</time>
      </trkpt>
      <trkpt lat="48.04726" lon="6.85032">
        <ele>825</ele>
        <time>2020-10-28T10:50:46.013Z</time>
      </trkpt>
      <trkpt lat="48.04725" lon="6.85034">
        <ele>825</ele>
        <time>2020-10-28T10:50:47.012Z</time>
      </trkpt>
      <trkpt lat="48.04725" lon="6.85036">
        <ele>824</ele>
        <time>2020-10-28T10:50:48.013Z</time>
      </trkpt>
      <trkpt lat="48.04725" lon="6.85038">
        <ele>824</ele>
        <time>2020-10-28T10:50:49.012Z</time>
      </trkpt>
      <trkpt lat="48.04725" lon="6.8504">
        <ele>823</ele>
        <time>2020-10-28T10:50:50.013Z</time>
      </trkpt>
      <trkpt lat="48.04724" lon="6.85042">
        <ele>823</ele>
        <time>2020-10-28T10:50:51.013Z</time>
      </trkpt>
      <trkpt lat="48.04724" lon="6.85045">
        <ele>823</ele>
        <time>2020-10-28T10:50:52.013Z</time>
      </trkpt>
      <trkpt lat="48.04723" lon="6.85047">
        <ele>822</ele>
        <time>2020-10-28T10:50:53.013Z</time>
      </trkpt>
      <trkpt lat="48.04723" lon="6.85049">
        <ele>822</ele>
        <time>2020-10-28T10:50:54.013Z</time>
      </trkpt>
      <trkpt lat="48.04722" lon="6.85051">
        <ele>822</ele>
        <time>2020-10-28T10:50:55.012Z</time>
      </trkpt>
      <trkpt lat="48.04721" lon="6.85053">
        <ele>822</ele>
        <time>2020-10-28T10:50:56.013Z</time>
      </trkpt>
      <trkpt lat="48.0472" lon="6.85054">
        <ele>822</ele>
        <time>2020-10-28T10:50:57.012Z</time>
      </trkpt>
      <trkpt lat="48.0472" lon="6.85056">
        <ele>822</ele>
        <time>2020-10-28T10:50:58.013Z</time>
      </trkpt>
      <trkpt lat="48.0472" lon="6.85058">
        <ele>822</ele>
        <time>2020-10-28T10:50:59.013Z</time>
      </trkpt>
      <trkpt lat="48.0472" lon="6.8506">
        <ele>823</ele>
        <time>2020-10-28T10:51:00.012Z</time>
      </trkpt>
      <trkpt lat="48.0472" lon="6.85062">
        <ele>823</ele>
        <time>2020-10-28T10:51:01.013Z</time>
      </trkpt>
      <trkpt lat="48.0472" lon="6.85064">
        <ele>824</ele>
        <time>2020-10-28T10:51:02.012Z</time>
      </trkpt>
      <trkpt lat="48.0472" lon="6.85066">
        <ele>824</ele>
        <time>2020-10-28T10:51:03.013Z</time>
      </trkpt>
      <trkpt lat="48.04721" lon="6.85068">
        <ele>825</ele>
        <time>2020-10-28T10:51:04.013Z</time>
      </trkpt>
      <trkpt lat="48.04721" lon="6.8507">
        <ele>825</ele>
        <time>2020-10-28T10:51:05.013Z</time>
      </trkpt>
      <trkpt lat="48.04722" lon="6.85071">
        <ele>825</ele>
        <time>2020-10-28T10:51:06.013Z</time>
      </trkpt>
      <trkpt lat="48.04723" lon="6.85072">
        <ele>825</ele>
        <time>2020-10-28T10:51:07.012Z</time>
      </trkpt>
      <trkpt lat="48.04723" lon="6.85073">
        <ele>825</ele>
        <time>2020-10-28T10:51:08.013Z</time>
      </trkpt>
      <trkpt lat="48.04724" lon="6.85074">
        <ele>826</ele>
        <time>2020-10-28T10:51:09.013Z</time>
      </trkpt>
      <trkpt lat="48.04725" lon="6.85076">
        <ele>826</ele>
        <time>2020-10-28T10:51:10.013Z</time>
      </trkpt>
      <trkpt lat="48.04726" lon="6.85077">
        <ele>826</ele>
        <time>2020-10-28T10:51:11.012Z</time>
      </trkpt>
      <trkpt lat="48.04726" lon="6.85078">
        <ele>826</ele>
        <time>2020-10-28T10:51:12.013Z</time>
      </trkpt>
      <trkpt lat="48.04727" lon="6.8508">
        <ele>827</ele>
        <time>2020-10-28T10:51:13.012Z</time>
      </trkpt>
      <trkpt lat="48.04729" lon="6.85082">
        <ele>827</ele>
        <time>2020-10-28T10:51:14.012Z</time>
      </trkpt>
      <trkpt lat="48.04729" lon="6.85083">
        <ele>827</ele>
        <time>2020-10-28T10:51:15.012Z</time>
      </trkpt>
      <trkpt lat="48.0473" lon="6.85084">
        <ele>827</ele>
        <time>2020-10-28T10:51:16.013Z</time>
      </trkpt>
      <trkpt lat="48.0473" lon="6.85085">
        <ele>828</ele>
        <time>2020-10-28T10:51:17.012Z</time>
      </trkpt>
      <trkpt lat="48.04731" lon="6.85086">
        <ele>828</ele>
        <time>2020-10-28T10:51:18.013Z</time>
      </trkpt>
      <trkpt lat="48.0473" lon="6.85088">
        <ele>828</ele>
        <time>2020-10-28T10:51:19.013Z</time>
      </trkpt>
      <trkpt lat="48.04731" lon="6.85089">
        <ele>828</ele>
        <time>2020-10-28T10:51:20.013Z</time>
      </trkpt>
      <trkpt lat="48.0473" lon="6.85091">
        <ele>828</ele>
        <time>2020-10-28T10:51:21.013Z</time>
      </trkpt>
      <trkpt lat="48.04731" lon="6.85092">
        <ele>829</ele>
        <time>2020-10-28T10:51:22.013Z</time>
      </trkpt>
      <trkpt lat="48.04731" lon="6.85094">
        <ele>829</ele>
        <time>2020-10-28T10:51:23.012Z</time>
      </trkpt>
      <trkpt lat="48.04732" lon="6.85097">
        <ele>829</ele>
        <time>2020-10-28T10:51:24.013Z</time>
      </trkpt>
      <trkpt lat="48.04733" lon="6.85099">
        <ele>828</ele>
        <time>2020-10-28T10:51:25.013Z</time>
      </trkpt>
      <trkpt lat="48.04733" lon="6.85101">
        <ele>828</ele>
        <time>2020-10-28T10:51:26.013Z</time>
      </trkpt>
      <trkpt lat="48.04734" lon="6.85103">
        <ele>828</ele>
        <time>2020-10-28T10:51:27.012Z</time>
      </trkpt>
      <trkpt lat="48.04735" lon="6.85104">
        <ele>829</ele>
        <time>2020-10-28T10:51:28.013Z</time>
      </trkpt>
      <trkpt lat="48.04736" lon="6.85106">
        <ele>829</ele>
        <time>2020-10-28T10:51:29.013Z</time>
      </trkpt>
      <trkpt lat="48.04736" lon="6.85108">
        <ele>829</ele>
        <time>2020-10-28T10:51:30.013Z</time>
      </trkpt>
      <trkpt lat="48.04736" lon="6.85111">
        <ele>828</ele>
        <time>2020-10-28T10:51:31.013Z</time>
      </trkpt>
      <trkpt lat="48.04737" lon="6.85113">
        <ele>828</ele>
        <time>2020-10-28T10:51:32.013Z</time>
      </trkpt>
      <trkpt lat="48.04737" lon="6.85115">
        <ele>828</ele>
        <time>2020-10-28T10:51:33.013Z</time>
      </trkpt>
      <trkpt lat="48.04738" lon="6.85117">
        <ele>827</ele>
        <time>2020-10-28T10:51:34.013Z</time>
      </trkpt>
      <trkpt lat="48.04739" lon="6.85119">
        <ele>827</ele>
        <time>2020-10-28T10:51:35.012Z</time>
      </trkpt>
      <trkpt lat="48.0474" lon="6.85121">
        <ele>827</ele>
        <time>2020-10-28T10:51:36.013Z</time>
      </trkpt>
      <trkpt lat="48.0474" lon="6.85123">
        <ele>826</ele>
        <time>2020-10-28T10:51:37.013Z</time>
      </trkpt>
      <trkpt lat="48.04741" lon="6.85125">
        <ele>826</ele>
        <time>2020-10-28T10:51:38.013Z</time>
      </trkpt>
      <trkpt lat="48.04741" lon="6.85128">
        <ele>825</ele>
        <time>2020-10-28T10:51:39.012Z</time>
      </trkpt>
      <trkpt lat="48.04741" lon="6.85131">
        <ele>825</ele>
        <time>2020-10-28T10:51:40.013Z</time>
      </trkpt>
      <trkpt lat="48.0474" lon="6.85133">
        <ele>824</ele>
        <time>2020-10-28T10:51:41.013Z</time>
      </trkpt>
      <trkpt lat="48.0474" lon="6.85134">
        <ele>824</ele>
        <time>2020-10-28T10:51:42.013Z</time>
      </trkpt>
      <trkpt lat="48.0474" lon="6.85136">
        <ele>823</ele>
        <time>2020-10-28T10:51:43.013Z</time>
      </trkpt>
      <trkpt lat="48.0474" lon="6.85139">
        <ele>823</ele>
        <time>2020-10-28T10:51:44.013Z</time>
      </trkpt>
      <trkpt lat="48.04741" lon="6.85141">
        <ele>822</ele>
        <time>2020-10-28T10:51:45.013Z</time>
      </trkpt>
      <trkpt lat="48.04741" lon="6.85143">
        <ele>822</ele>
        <time>2020-10-28T10:51:46.013Z</time>
      </trkpt>
      <trkpt lat="48.04741" lon="6.85145">
        <ele>822</ele>
        <time>2020-10-28T10:51:47.012Z</time>
      </trkpt>
      <trkpt lat="48.0474" lon="6.85147">
        <ele>822</ele>
        <time>2020-10-28T10:51:48.013Z</time>
      </trkpt>
      <trkpt lat="48.0474" lon="6.8515">
        <ele>821</ele>
        <time>2020-10-28T10:51:49.013Z</time>
      </trkpt>
      <trkpt lat="48.0474" lon="6.85152">
        <ele>821</ele>
        <time>2020-10-28T10:51:50.013Z</time>
      </trkpt>
      <trkpt lat="48.04739" lon="6.85154">
        <ele>821</ele>
        <time>2020-10-28T10:51:51.013Z</time>
      </trkpt>
      <trkpt lat="48.04739" lon="6.85155">
        <ele>821</ele>
        <time>2020-10-28T10:51:52.013Z</time>
      </trkpt>
      <trkpt lat="48.04738" lon="6.85157">
        <ele>821</ele>
        <time>2020-10-28T10:51:53.012Z</time>
      </trkpt>
      <trkpt lat="48.04737" lon="6.85159">
        <ele>821</ele>
        <time>2020-10-28T10:51:54.013Z</time>
      </trkpt>
      <trkpt lat="48.04736" lon="6.85161">
        <ele>821</ele>
        <time>2020-10-28T10:51:55.013Z</time>
      </trkpt>
      <trkpt lat="48.04735" lon="6.85162">
        <ele>821</ele>
        <time>2020-10-28T10:51:56.013Z</time>
      </trkpt>
      <trkpt lat="48.04734" lon="6.85164">
        <ele>820</ele>
        <time>2020-10-28T10:51:57.013Z</time>
      </trkpt>
      <trkpt lat="48.04733" lon="6.85165">
        <ele>820</ele>
        <time>2020-10-28T10:51:58.012Z</time>
      </trkpt>
      <trkpt lat="48.04732" lon="6.85168">
        <ele>820</ele>
        <time>2020-10-28T10:51:59.012Z</time>
      </trkpt>
      <trkpt lat="48.04731" lon="6.85169">
        <ele>820</ele>
        <time>2020-10-28T10:52:00.013Z</time>
      </trkpt>
      <trkpt lat="48.0473" lon="6.85171">
        <ele>820</ele>
        <time>2020-10-28T10:52:01.012Z</time>
      </trkpt>
      <trkpt lat="48.0473" lon="6.85173">
        <ele>820</ele>
        <time>2020-10-28T10:52:02.013Z</time>
      </trkpt>
      <trkpt lat="48.0473" lon="6.85177">
        <ele>820</ele>
        <time>2020-10-28T10:52:03.013Z</time>
      </trkpt>
      <trkpt lat="48.04729" lon="6.85179">
        <ele>820</ele>
        <time>2020-10-28T10:52:04.013Z</time>
      </trkpt>
      <trkpt lat="48.04728" lon="6.85181">
        <ele>819</ele>
        <time>2020-10-28T10:52:05.013Z</time>
      </trkpt>
      <trkpt lat="48.04727" lon="6.85183">
        <ele>819</ele>
        <time>2020-10-28T10:52:06.013Z</time>
      </trkpt>
      <trkpt lat="48.04727" lon="6.85185">
        <ele>819</ele>
        <time>2020-10-28T10:52:07.013Z</time>
      </trkpt>
      <trkpt lat="48.04727" lon="6.85187">
        <ele>819</ele>
        <time>2020-10-28T10:52:08.012Z</time>
      </trkpt>
      <trkpt lat="48.04726" lon="6.85189">
        <ele>819</ele>
        <time>2020-10-28T10:52:09.012Z</time>
      </trkpt>
      <trkpt lat="48.04726" lon="6.8519">
        <ele>819</ele>
        <time>2020-10-28T10:52:10.013Z</time>
      </trkpt>
      <trkpt lat="48.04725" lon="6.85191">
        <ele>819</ele>
        <time>2020-10-28T10:52:11.012Z</time>
      </trkpt>
      <trkpt lat="48.04724" lon="6.85191">
        <ele>819</ele>
        <time>2020-10-28T10:52:12.013Z</time>
      </trkpt>
      <trkpt lat="48.04722" lon="6.85192">
        <ele>820</ele>
        <time>2020-10-28T10:52:13.012Z</time>
      </trkpt>
      <trkpt lat="48.0472" lon="6.85193">
        <ele>820</ele>
        <time>2020-10-28T10:52:14.013Z</time>
      </trkpt>
      <trkpt lat="48.04719" lon="6.85194">
        <ele>820</ele>
        <time>2020-10-28T10:52:15.013Z</time>
      </trkpt>
      <trkpt lat="48.04717" lon="6.85195">
        <ele>821</ele>
        <time>2020-10-28T10:52:16.013Z</time>
      </trkpt>
      <trkpt lat="48.04716" lon="6.85196">
        <ele>821</ele>
        <time>2020-10-28T10:52:17.013Z</time>
      </trkpt>
      <trkpt lat="48.04715" lon="6.85196">
        <ele>821</ele>
        <time>2020-10-28T10:52:18.013Z</time>
      </trkpt>
      <trkpt lat="48.04715" lon="6.85197">
        <ele>822</ele>
        <time>2020-10-28T10:52:19.013Z</time>
      </trkpt>
      <trkpt lat="48.04714" lon="6.85197">
        <ele>822</ele>
        <time>2020-10-28T10:52:20.013Z</time>
      </trkpt>
      <trkpt lat="48.04713" lon="6.85198">
        <ele>822</ele>
        <time>2020-10-28T10:52:21.013Z</time>
      </trkpt>
      <trkpt lat="48.04712" lon="6.85199">
        <ele>822</ele>
        <time>2020-10-28T10:52:22.012Z</time>
      </trkpt>
      <trkpt lat="48.04711" lon="6.85201">
        <ele>823</ele>
        <time>2020-10-28T10:52:23.013Z</time>
      </trkpt>
      <trkpt lat="48.0471" lon="6.85202">
        <ele>823</ele>
        <time>2020-10-28T10:52:24.012Z</time>
      </trkpt>
      <trkpt lat="48.04709" lon="6.85203">
        <ele>823</ele>
        <time>2020-10-28T10:52:25.012Z</time>
      </trkpt>
      <trkpt lat="48.04708" lon="6.85205">
        <ele>822</ele>
        <time>2020-10-28T10:52:26.013Z</time>
      </trkpt>
      <trkpt lat="48.04707" lon="6.85207">
        <ele>822</ele>
        <time>2020-10-28T10:52:27.012Z</time>
      </trkpt>
      <trkpt lat="48.04707" lon="6.85209">
        <ele>821</ele>
        <time>2020-10-28T10:52:28.013Z</time>
      </trkpt>
      <trkpt lat="48.04706" lon="6.85211">
        <ele>821</ele>
        <time>2020-10-28T10:52:29.013Z</time>
      </trkpt>
      <trkpt lat="48.04705" lon="6.85212">
        <ele>820</ele>
        <time>2020-10-28T10:52:30.013Z</time>
      </trkpt>
      <trkpt lat="48.04703" lon="6.85213">
        <ele>820</ele>
        <time>2020-10-28T10:52:31.013Z</time>
      </trkpt>
      <trkpt lat="48.04702" lon="6.85215">
        <ele>820</ele>
        <time>2020-10-28T10:52:32.013Z</time>
      </trkpt>
      <trkpt lat="48.04702" lon="6.85216">
        <ele>819</ele>
        <time>2020-10-28T10:52:33.013Z</time>
      </trkpt>
      <trkpt lat="48.04701" lon="6.85218">
        <ele>819</ele>
        <time>2020-10-28T10:52:34.013Z</time>
      </trkpt>
      <trkpt lat="48.047" lon="6.85221">
        <ele>819</ele>
        <time>2020-10-28T10:52:35.013Z</time>
      </trkpt>
      <trkpt lat="48.04699" lon="6.85223">
        <ele>819</ele>
        <time>2020-10-28T10:52:36.013Z</time>
      </trkpt>
      <trkpt lat="48.04699" lon="6.85225">
        <ele>819</ele>
        <time>2020-10-28T10:52:37.013Z</time>
      </trkpt>
      <trkpt lat="48.04698" lon="6.85226">
        <ele>819</ele>
        <time>2020-10-28T10:52:38.013Z</time>
      </trkpt>
      <trkpt lat="48.04696" lon="6.85228">
        <ele>819</ele>
        <time>2020-10-28T10:52:39.013Z</time>
      </trkpt>
      <trkpt lat="48.04695" lon="6.85228">
        <ele>819</ele>
        <time>2020-10-28T10:52:40.012Z</time>
      </trkpt>
      <trkpt lat="48.04693" lon="6.85229">
        <ele>819</ele>
        <time>2020-10-28T10:52:41.013Z</time>
      </trkpt>
      <trkpt lat="48.04692" lon="6.85229">
        <ele>819</ele>
        <time>2020-10-28T10:52:42.013Z</time>
      </trkpt>
      <trkpt lat="48.0469" lon="6.85229">
        <ele>819</ele>
        <time>2020-10-28T10:52:43.013Z</time>
      </trkpt>
      <trkpt lat="48.04689" lon="6.8523">
        <ele>820</ele>
        <time>2020-10-28T10:52:44.013Z</time>
      </trkpt>
      <trkpt lat="48.04688" lon="6.8523">
        <ele>820</ele>
        <time>2020-10-28T10:52:45.013Z</time>
      </trkpt>
      <trkpt lat="48.04687" lon="6.8523">
        <ele>820</ele>
        <time>2020-10-28T10:52:46.013Z</time>
      </trkpt>
      <trkpt lat="48.04686" lon="6.85231">
        <ele>821</ele>
        <time>2020-10-28T10:52:47.012Z</time>
      </trkpt>
      <trkpt lat="48.04686" lon="6.85231">
        <ele>821</ele>
        <time>2020-10-28T10:52:48.013Z</time>
      </trkpt>
      <trkpt lat="48.04686" lon="6.85232">
        <ele>821</ele>
        <time>2020-10-28T10:52:49.013Z</time>
      </trkpt>
      <trkpt lat="48.04686" lon="6.85232">
        <ele>822</ele>
        <time>2020-10-28T10:52:50.013Z</time>
      </trkpt>
      <trkpt lat="48.04685" lon="6.85233">
        <ele>822</ele>
        <time>2020-10-28T10:52:51.013Z</time>
      </trkpt>
      <trkpt lat="48.04684" lon="6.85233">
        <ele>823</ele>
        <time>2020-10-28T10:52:52.013Z</time>
      </trkpt>
      <trkpt lat="48.04682" lon="6.85233">
        <ele>824</ele>
        <time>2020-10-28T10:52:53.013Z</time>
      </trkpt>
      <trkpt lat="48.04677" lon="6.85234">
        <ele>824</ele>
        <time>2020-10-28T10:52:54.012Z</time>
      </trkpt>
      <trkpt lat="48.04673" lon="6.85236">
        <ele>825</ele>
        <time>2020-10-28T10:52:55.013Z</time>
      </trkpt>
      <trkpt lat="48.04669" lon="6.85237">
        <ele>826</ele>
        <time>2020-10-28T10:52:56.013Z</time>
      </trkpt>
      <trkpt lat="48.04668" lon="6.85238">
        <ele>826</ele>
        <time>2020-10-28T10:52:57.013Z</time>
      </trkpt>
      <trkpt lat="48.04668" lon="6.85238">
        <ele>827</ele>
        <time>2020-10-28T10:52:58.013Z</time>
      </trkpt>
      <trkpt lat="48.04668" lon="6.85239">
        <ele>827</ele>
        <time>2020-10-28T10:52:59.013Z</time>
      </trkpt>
      <trkpt lat="48.04668" lon="6.85239">
        <ele>828</ele>
        <time>2020-10-28T10:53:00.013Z</time>
      </trkpt>
      <trkpt lat="48.04667" lon="6.85239">
        <ele>828</ele>
        <time>2020-10-28T10:53:01.013Z</time>
      </trkpt>
      <trkpt lat="48.04665" lon="6.85239">
        <ele>829</ele>
        <time>2020-10-28T10:53:02.013Z</time>
      </trkpt>
      <trkpt lat="48.04664" lon="6.85239">
        <ele>829</ele>
        <time>2020-10-28T10:53:03.013Z</time>
      </trkpt>
      <trkpt lat="48.04663" lon="6.85239">
        <ele>829</ele>
        <time>2020-10-28T10:53:04.012Z</time>
      </trkpt>
      <trkpt lat="48.04662" lon="6.85239">
        <ele>830</ele>
        <time>2020-10-28T10:53:05.013Z</time>
      </trkpt>
      <trkpt lat="48.04662" lon="6.8524">
        <ele>830</ele>
        <time>2020-10-28T10:53:06.013Z</time>
      </trkpt>
      <trkpt lat="48.04662" lon="6.8524">
        <ele>831</ele>
        <time>2020-10-28T10:53:07.013Z</time>
      </trkpt>
      <trkpt lat="48.04661" lon="6.8524">
        <ele>831</ele>
        <time>2020-10-28T10:53:08.013Z</time>
      </trkpt>
      <trkpt lat="48.0466" lon="6.8524">
        <ele>831</ele>
        <time>2020-10-28T10:53:09.012Z</time>
      </trkpt>
      <trkpt lat="48.04659" lon="6.85241">
        <ele>831</ele>
        <time>2020-10-28T10:53:10.013Z</time>
      </trkpt>
      <trkpt lat="48.04658" lon="6.85241">
        <ele>830</ele>
        <time>2020-10-28T10:53:11.013Z</time>
      </trkpt>
      <trkpt lat="48.04656" lon="6.85243">
        <ele>830</ele>
        <time>2020-10-28T10:53:12.013Z</time>
      </trkpt>
      <trkpt lat="48.04655" lon="6.85244">
        <ele>830</ele>
        <time>2020-10-28T10:53:13.013Z</time>
      </trkpt>
      <trkpt lat="48.04654" lon="6.85247">
        <ele>830</ele>
        <time>2020-10-28T10:53:14.013Z</time>
      </trkpt>
      <trkpt lat="48.04653" lon="6.85249">
        <ele>829</ele>
        <time>2020-10-28T10:53:15.013Z</time>
      </trkpt>
      <trkpt lat="48.04651" lon="6.85253">
        <ele>828</ele>
        <time>2020-10-28T10:53:16.013Z</time>
      </trkpt>
      <trkpt lat="48.04649" lon="6.85256">
        <ele>827</ele>
        <time>2020-10-28T10:53:17.013Z</time>
      </trkpt>
      <trkpt lat="48.04647" lon="6.85259">
        <ele>826</ele>
        <time>2020-10-28T10:53:18.012Z</time>
      </trkpt>
      <trkpt lat="48.04647" lon="6.85261">
        <ele>825</ele>
        <time>2020-10-28T10:53:19.013Z</time>
      </trkpt>
      <trkpt lat="48.04645" lon="6.85263">
        <ele>824</ele>
        <time>2020-10-28T10:53:20.013Z</time>
      </trkpt>
      <trkpt lat="48.04644" lon="6.85266">
        <ele>824</ele>
        <time>2020-10-28T10:53:21.013Z</time>
      </trkpt>
      <trkpt lat="48.04643" lon="6.85268">
        <ele>823</ele>
        <time>2020-10-28T10:53:22.013Z</time>
      </trkpt>
      <trkpt lat="48.04642" lon="6.8527">
        <ele>823</ele>
        <time>2020-10-28T10:53:23.013Z</time>
      </trkpt>
      <trkpt lat="48.04641" lon="6.85273">
        <ele>823</ele>
        <time>2020-10-28T10:53:24.012Z</time>
      </trkpt>
      <trkpt lat="48.0464" lon="6.85275">
        <ele>822</ele>
        <time>2020-10-28T10:53:25.012Z</time>
      </trkpt>
      <trkpt lat="48.0464" lon="6.85277">
        <ele>821</ele>
        <time>2020-10-28T10:53:26.013Z</time>
      </trkpt>
      <trkpt lat="48.04639" lon="6.85279">
        <ele>821</ele>
        <time>2020-10-28T10:53:27.012Z</time>
      </trkpt>
      <trkpt lat="48.04639" lon="6.85281">
        <ele>820</ele>
        <time>2020-10-28T10:53:28.013Z</time>
      </trkpt>
      <trkpt lat="48.04639" lon="6.85285">
        <ele>820</ele>
        <time>2020-10-28T10:53:29.012Z</time>
      </trkpt>
      <trkpt lat="48.04639" lon="6.85287">
        <ele>820</ele>
        <time>2020-10-28T10:53:30.013Z</time>
      </trkpt>
      <trkpt lat="48.04639" lon="6.8529">
        <ele>820</ele>
        <time>2020-10-28T10:53:31.013Z</time>
      </trkpt>
      <trkpt lat="48.04638" lon="6.85293">
        <ele>820</ele>
        <time>2020-10-28T10:53:35.162Z</time>
      </trkpt>
      <trkpt lat="48.04638" lon="6.85295">
        <ele>819</ele>
        <time>2020-10-28T10:53:36.162Z</time>
      </trkpt>
      <trkpt lat="48.04638" lon="6.85298">
        <ele>819</ele>
        <time>2020-10-28T10:53:37.162Z</time>
      </trkpt>
      <trkpt lat="48.04638" lon="6.853">
        <ele>818</ele>
        <time>2020-10-28T10:53:38.162Z</time>
      </trkpt>
      <trkpt lat="48.04637" lon="6.85302">
        <ele>818</ele>
        <time>2020-10-28T10:53:39.162Z</time>
      </trkpt>
      <trkpt lat="48.04637" lon="6.85305">
        <ele>818</ele>
        <time>2020-10-28T10:54:23.248Z</time>
      </trkpt>
      <trkpt lat="48.04636" lon="6.85307">
        <ele>818</ele>
        <time>2020-10-28T10:54:24.247Z</time>
      </trkpt>
      <trkpt lat="48.04636" lon="6.8531">
        <ele>817</ele>
        <time>2020-10-28T10:54:25.248Z</time>
      </trkpt>
      <trkpt lat="48.04636" lon="6.85312">
        <ele>817</ele>
        <time>2020-10-28T10:54:26.248Z</time>
      </trkpt>
      <trkpt lat="48.04635" lon="6.85315">
        <ele>817</ele>
        <time>2020-10-28T10:54:27.248Z</time>
      </trkpt>
      <trkpt lat="48.04635" lon="6.85317">
        <ele>817</ele>
        <time>2020-10-28T10:54:28.247Z</time>
      </trkpt>
      <trkpt lat="48.04635" lon="6.85318">
        <ele>817</ele>
        <time>2020-10-28T10:54:29.248Z</time>
      </trkpt>
      <trkpt lat="48.04635" lon="6.8532">
        <ele>817</ele>
        <time>2020-10-28T10:54:30.248Z</time>
      </trkpt>
      <trkpt lat="48.04635" lon="6.85323">
        <ele>817</ele>
        <time>2020-10-28T10:54:31.248Z</time>
      </trkpt>
      <trkpt lat="48.04634" lon="6.85325">
        <ele>818</ele>
        <time>2020-10-28T10:54:32.248Z</time>
      </trkpt>
      <trkpt lat="48.04634" lon="6.85327">
        <ele>818</ele>
        <time>2020-10-28T10:54:33.248Z</time>
      </trkpt>
      <trkpt lat="48.04634" lon="6.85329">
        <ele>818</ele>
        <time>2020-10-28T10:54:34.248Z</time>
      </trkpt>
      <trkpt lat="48.04635" lon="6.85331">
        <ele>818</ele>
        <time>2020-10-28T10:54:35.248Z</time>
      </trkpt>
      <trkpt lat="48.04635" lon="6.85334">
        <ele>818</ele>
        <time>2020-10-28T10:54:36.247Z</time>
      </trkpt>
      <trkpt lat="48.04635" lon="6.85335">
        <ele>818</ele>
        <time>2020-10-28T10:54:37.248Z</time>
      </trkpt>
      <trkpt lat="48.04634" lon="6.85337">
        <ele>818</ele>
        <time>2020-10-28T10:54:38.248Z</time>
      </trkpt>
      <trkpt lat="48.04634" lon="6.85339">
        <ele>818</ele>
        <time>2020-10-28T10:54:39.248Z</time>
      </trkpt>
      <trkpt lat="48.04633" lon="6.8534">
        <ele>818</ele>
        <time>2020-10-28T10:54:40.248Z</time>
      </trkpt>
      <trkpt lat="48.04633" lon="6.85342">
        <ele>818</ele>
        <time>2020-10-28T10:54:41.248Z</time>
      </trkpt>
      <trkpt lat="48.04632" lon="6.85344">
        <ele>818</ele>
        <time>2020-10-28T10:54:42.248Z</time>
      </trkpt>
      <trkpt lat="48.0463" lon="6.85346">
        <ele>819</ele>
        <time>2020-10-28T10:54:43.248Z</time>
      </trkpt>
      <trkpt lat="48.0463" lon="6.85347">
        <ele>819</ele>
        <time>2020-10-28T10:54:44.247Z</time>
      </trkpt>
      <trkpt lat="48.0463" lon="6.85349">
        <ele>819</ele>
        <time>2020-10-28T10:54:45.248Z</time>
      </trkpt>
      <trkpt lat="48.0463" lon="6.85351">
        <ele>819</ele>
        <time>2020-10-28T10:54:46.248Z</time>
      </trkpt>
      <trkpt lat="48.04629" lon="6.85353">
        <ele>819</ele>
        <time>2020-10-28T10:54:47.248Z</time>
      </trkpt>
      <trkpt lat="48.04629" lon="6.85355">
        <ele>819</ele>
        <time>2020-10-28T10:54:48.248Z</time>
      </trkpt>
      <trkpt lat="48.04629" lon="6.85359">
        <ele>818</ele>
        <time>2020-10-28T10:54:49.247Z</time>
      </trkpt>
      <trkpt lat="48.04629" lon="6.85361">
        <ele>818</ele>
        <time>2020-10-28T10:54:50.247Z</time>
      </trkpt>
      <trkpt lat="48.04629" lon="6.85365">
        <ele>818</ele>
        <time>2020-10-28T10:54:51.248Z</time>
      </trkpt>
      <trkpt lat="48.04628" lon="6.85367">
        <ele>818</ele>
        <time>2020-10-28T10:54:52.247Z</time>
      </trkpt>
      <trkpt lat="48.04628" lon="6.8537">
        <ele>818</ele>
        <time>2020-10-28T10:54:53.247Z</time>
      </trkpt>
      <trkpt lat="48.04628" lon="6.85373">
        <ele>818</ele>
        <time>2020-10-28T10:54:54.248Z</time>
      </trkpt>
      <trkpt lat="48.04628" lon="6.85375">
        <ele>818</ele>
        <time>2020-10-28T10:54:55.248Z</time>
      </trkpt>
      <trkpt lat="48.04628" lon="6.85378">
        <ele>819</ele>
        <time>2020-10-28T10:54:56.248Z</time>
      </trkpt>
      <trkpt lat="48.04628" lon="6.85381">
        <ele>819</ele>
        <time>2020-10-28T10:54:57.247Z</time>
      </trkpt>
      <trkpt lat="48.04627" lon="6.85382">
        <ele>820</ele>
        <time>2020-10-28T10:54:58.248Z</time>
      </trkpt>
      <trkpt lat="48.04626" lon="6.85384">
        <ele>821</ele>
        <time>2020-10-28T10:54:59.248Z</time>
      </trkpt>
      <trkpt lat="48.04625" lon="6.85386">
        <ele>821</ele>
        <time>2020-10-28T10:55:00.248Z</time>
      </trkpt>
      <trkpt lat="48.04624" lon="6.85388">
        <ele>822</ele>
        <time>2020-10-28T10:55:01.248Z</time>
      </trkpt>
      <trkpt lat="48.04624" lon="6.8539">
        <ele>823</ele>
        <time>2020-10-28T10:55:02.248Z</time>
      </trkpt>
      <trkpt lat="48.04624" lon="6.85392">
        <ele>824</ele>
        <time>2020-10-28T10:55:03.248Z</time>
      </trkpt>
      <trkpt lat="48.04624" lon="6.85394">
        <ele>825</ele>
        <time>2020-10-28T10:55:04.248Z</time>
      </trkpt>
      <trkpt lat="48.04624" lon="6.85395">
        <ele>827</ele>
        <time>2020-10-28T10:55:05.248Z</time>
      </trkpt>
      <trkpt lat="48.04625" lon="6.85397">
        <ele>828</ele>
        <time>2020-10-28T10:55:06.247Z</time>
      </trkpt>
      <trkpt lat="48.04626" lon="6.85398">
        <ele>829</ele>
        <time>2020-10-28T10:55:07.248Z</time>
      </trkpt>
      <trkpt lat="48.04627" lon="6.854">
        <ele>830</ele>
        <time>2020-10-28T10:55:08.248Z</time>
      </trkpt>
      <trkpt lat="48.04627" lon="6.85401">
        <ele>831</ele>
        <time>2020-10-28T10:55:09.248Z</time>
      </trkpt>
      <trkpt lat="48.04628" lon="6.85403">
        <ele>832</ele>
        <time>2020-10-28T10:55:10.248Z</time>
      </trkpt>
      <trkpt lat="48.04629" lon="6.85405">
        <ele>833</ele>
        <time>2020-10-28T10:55:11.248Z</time>
      </trkpt>
      <trkpt lat="48.04631" lon="6.85407">
        <ele>834</ele>
        <time>2020-10-28T10:55:12.248Z</time>
      </trkpt>
      <trkpt lat="48.04631" lon="6.85409">
        <ele>834</ele>
        <time>2020-10-28T10:55:13.248Z</time>
      </trkpt>
      <trkpt lat="48.04632" lon="6.85411">
        <ele>835</ele>
        <time>2020-10-28T10:55:14.248Z</time>
      </trkpt>
      <trkpt lat="48.04633" lon="6.85412">
        <ele>835</ele>
        <time>2020-10-28T10:55:15.248Z</time>
      </trkpt>
      <trkpt lat="48.04635" lon="6.85413">
        <ele>835</ele>
        <time>2020-10-28T10:55:16.247Z</time>
      </trkpt>
      <trkpt lat="48.04636" lon="6.85415">
        <ele>836</ele>
        <time>2020-10-28T10:55:17.248Z</time>
      </trkpt>
      <trkpt lat="48.04637" lon="6.85416">
        <ele>836</ele>
        <time>2020-10-28T10:55:18.248Z</time>
      </trkpt>
      <trkpt lat="48.04638" lon="6.85417">
        <ele>836</ele>
        <time>2020-10-28T10:55:19.248Z</time>
      </trkpt>
      <trkpt lat="48.04639" lon="6.85418">
        <ele>836</ele>
        <time>2020-10-28T10:55:20.248Z</time>
      </trkpt>
      <trkpt lat="48.04641" lon="6.85418">
        <ele>837</ele>
        <time>2020-10-28T10:55:21.247Z</time>
      </trkpt>
      <trkpt lat="48.04642" lon="6.85418">
        <ele>837</ele>
        <time>2020-10-28T10:55:22.248Z</time>
      </trkpt>
      <trkpt lat="48.04644" lon="6.85419">
        <ele>837</ele>
        <time>2020-10-28T10:55:23.247Z</time>
      </trkpt>
      <trkpt lat="48.04645" lon="6.8542">
        <ele>838</ele>
        <time>2020-10-28T10:55:24.248Z</time>
      </trkpt>
      <trkpt lat="48.04646" lon="6.85421">
        <ele>838</ele>
        <time>2020-10-28T10:55:25.248Z</time>
      </trkpt>
      <trkpt lat="48.04647" lon="6.85421">
        <ele>838</ele>
        <time>2020-10-28T10:55:26.248Z</time>
      </trkpt>
      <trkpt lat="48.04648" lon="6.85422">
        <ele>838</ele>
        <time>2020-10-28T10:55:27.248Z</time>
      </trkpt>
      <trkpt lat="48.04649" lon="6.85423">
        <ele>838</ele>
        <time>2020-10-28T10:55:28.248Z</time>
      </trkpt>
      <trkpt lat="48.0465" lon="6.85424">
        <ele>838</ele>
        <time>2020-10-28T10:55:29.248Z</time>
      </trkpt>
      <trkpt lat="48.04651" lon="6.85425">
        <ele>838</ele>
        <time>2020-10-28T10:55:30.248Z</time>
      </trkpt>
      <trkpt lat="48.04652" lon="6.85426">
        <ele>838</ele>
        <time>2020-10-28T10:55:31.247Z</time>
      </trkpt>
      <trkpt lat="48.04652" lon="6.85426">
        <ele>838</ele>
        <time>2020-10-28T10:55:32.248Z</time>
      </trkpt>
      <trkpt lat="48.04653" lon="6.85426">
        <ele>838</ele>
        <time>2020-10-28T10:55:33.248Z</time>
      </trkpt>
      <trkpt lat="48.04654" lon="6.85427">
        <ele>838</ele>
        <time>2020-10-28T10:55:34.248Z</time>
      </trkpt>
      <trkpt lat="48.04655" lon="6.85427">
        <ele>838</ele>
        <time>2020-10-28T10:55:35.248Z</time>
      </trkpt>
      <trkpt lat="48.04656" lon="6.85427">
        <ele>839</ele>
        <time>2020-10-28T10:55:36.247Z</time>
      </trkpt>
      <trkpt lat="48.04657" lon="6.85427">
        <ele>839</ele>
        <time>2020-10-28T10:55:37.248Z</time>
      </trkpt>
      <trkpt lat="48.04658" lon="6.85428">
        <ele>839</ele>
        <time>2020-10-28T10:55:38.248Z</time>
      </trkpt>
      <trkpt lat="48.04659" lon="6.85429">
        <ele>839</ele>
        <time>2020-10-28T10:55:39.248Z</time>
      </trkpt>
      <trkpt lat="48.0466" lon="6.8543">
        <ele>839</ele>
        <time>2020-10-28T10:55:40.248Z</time>
      </trkpt>
      <trkpt lat="48.04662" lon="6.85432">
        <ele>839</ele>
        <time>2020-10-28T10:55:41.248Z</time>
      </trkpt>
      <trkpt lat="48.04663" lon="6.85433">
        <ele>839</ele>
        <time>2020-10-28T10:55:42.248Z</time>
      </trkpt>
      <trkpt lat="48.04664" lon="6.85435">
        <ele>839</ele>
        <time>2020-10-28T10:55:43.248Z</time>
      </trkpt>
      <trkpt lat="48.04666" lon="6.85436">
        <ele>838</ele>
        <time>2020-10-28T10:55:44.248Z</time>
      </trkpt>
      <trkpt lat="48.04667" lon="6.85437">
        <ele>838</ele>
        <time>2020-10-28T10:55:45.247Z</time>
      </trkpt>
      <trkpt lat="48.04668" lon="6.85439">
        <ele>837</ele>
        <time>2020-10-28T10:55:46.248Z</time>
      </trkpt>
      <trkpt lat="48.04668" lon="6.85442">
        <ele>836</ele>
        <time>2020-10-28T10:55:47.247Z</time>
      </trkpt>
      <trkpt lat="48.04669" lon="6.85444">
        <ele>836</ele>
        <time>2020-10-28T10:55:48.248Z</time>
      </trkpt>
      <trkpt lat="48.0467" lon="6.85446">
        <ele>835</ele>
        <time>2020-10-28T10:55:49.248Z</time>
      </trkpt>
      <trkpt lat="48.04671" lon="6.85448">
        <ele>834</ele>
        <time>2020-10-28T10:55:50.248Z</time>
      </trkpt>
      <trkpt lat="48.04671" lon="6.8545">
        <ele>834</ele>
        <time>2020-10-28T10:55:51.248Z</time>
      </trkpt>
      <trkpt lat="48.04672" lon="6.85453">
        <ele>833</ele>
        <time>2020-10-28T10:55:52.248Z</time>
      </trkpt>
      <trkpt lat="48.04672" lon="6.85456">
        <ele>833</ele>
        <time>2020-10-28T10:55:53.248Z</time>
      </trkpt>
      <trkpt lat="48.04672" lon="6.85458">
        <ele>832</ele>
        <time>2020-10-28T10:55:54.248Z</time>
      </trkpt>
      <trkpt lat="48.04673" lon="6.8546">
        <ele>832</ele>
        <time>2020-10-28T10:55:55.248Z</time>
      </trkpt>
      <trkpt lat="48.04673" lon="6.85462">
        <ele>832</ele>
        <time>2020-10-28T10:55:56.248Z</time>
      </trkpt>
      <trkpt lat="48.04674" lon="6.85465">
        <ele>832</ele>
        <time>2020-10-28T10:55:57.248Z</time>
      </trkpt>
      <trkpt lat="48.04675" lon="6.85466">
        <ele>831</ele>
        <time>2020-10-28T10:55:58.248Z</time>
      </trkpt>
      <trkpt lat="48.04676" lon="6.85468">
        <ele>831</ele>
        <time>2020-10-28T10:55:59.248Z</time>
      </trkpt>
      <trkpt lat="48.04676" lon="6.8547">
        <ele>830</ele>
        <time>2020-10-28T10:56:00.248Z</time>
      </trkpt>
      <trkpt lat="48.04676" lon="6.85471">
        <ele>830</ele>
        <time>2020-10-28T10:56:01.248Z</time>
      </trkpt>
      <trkpt lat="48.04677" lon="6.85473">
        <ele>829</ele>
        <time>2020-10-28T10:56:02.248Z</time>
      </trkpt>
      <trkpt lat="48.04678" lon="6.85475">
        <ele>828</ele>
        <time>2020-10-28T10:56:03.248Z</time>
      </trkpt>
      <trkpt lat="48.0468" lon="6.85475">
        <ele>828</ele>
        <time>2020-10-28T10:56:04.248Z</time>
      </trkpt>
      <trkpt lat="48.04681" lon="6.85476">
        <ele>827</ele>
        <time>2020-10-28T10:56:05.248Z</time>
      </trkpt>
      <trkpt lat="48.04682" lon="6.85478">
        <ele>826</ele>
        <time>2020-10-28T10:56:06.248Z</time>
      </trkpt>
      <trkpt lat="48.04683" lon="6.85479">
        <ele>826</ele>
        <time>2020-10-28T10:56:07.248Z</time>
      </trkpt>
      <trkpt lat="48.04684" lon="6.85481">
        <ele>825</ele>
        <time>2020-10-28T10:56:08.248Z</time>
      </trkpt>
      <trkpt lat="48.04685" lon="6.85483">
        <ele>825</ele>
        <time>2020-10-28T10:56:09.248Z</time>
      </trkpt>
      <trkpt lat="48.04686" lon="6.85484">
        <ele>825</ele>
        <time>2020-10-28T10:56:10.248Z</time>
      </trkpt>
      <trkpt lat="48.04687" lon="6.85487">
        <ele>825</ele>
        <time>2020-10-28T10:56:11.248Z</time>
      </trkpt>
      <trkpt lat="48.04688" lon="6.85489">
        <ele>825</ele>
        <time>2020-10-28T10:56:12.248Z</time>
      </trkpt>
      <trkpt lat="48.04689" lon="6.85491">
        <ele>825</ele>
        <time>2020-10-28T10:56:13.247Z</time>
      </trkpt>
      <trkpt lat="48.04689" lon="6.85493">
        <ele>825</ele>
        <time>2020-10-28T10:56:14.248Z</time>
      </trkpt>
      <trkpt lat="48.04689" lon="6.85495">
        <ele>824</ele>
        <time>2020-10-28T10:56:15.248Z</time>
      </trkpt>
      <trkpt lat="48.04689" lon="6.85498">
        <ele>824</ele>
        <time>2020-10-28T10:56:16.248Z</time>
      </trkpt>
      <trkpt lat="48.04689" lon="6.855">
        <ele>824</ele>
        <time>2020-10-28T10:56:17.248Z</time>
      </trkpt>
      <trkpt lat="48.04689" lon="6.85503">
        <ele>823</ele>
        <time>2020-10-28T10:56:18.248Z</time>
      </trkpt>
      <trkpt lat="48.0469" lon="6.85505">
        <ele>822</ele>
        <time>2020-10-28T10:56:19.247Z</time>
      </trkpt>
      <trkpt lat="48.0469" lon="6.85508">
        <ele>822</ele>
        <time>2020-10-28T10:56:20.248Z</time>
      </trkpt>
      <trkpt lat="48.04691" lon="6.8551">
        <ele>821</ele>
        <time>2020-10-28T10:56:21.247Z</time>
      </trkpt>
      <trkpt lat="48.04691" lon="6.85512">
        <ele>820</ele>
        <time>2020-10-28T10:56:22.248Z</time>
      </trkpt>
      <trkpt lat="48.0469" lon="6.85515">
        <ele>820</ele>
        <time>2020-10-28T10:56:23.248Z</time>
      </trkpt>
      <trkpt lat="48.0469" lon="6.85518">
        <ele>820</ele>
        <time>2020-10-28T10:56:24.248Z</time>
      </trkpt>
      <trkpt lat="48.0469" lon="6.8552">
        <ele>820</ele>
        <time>2020-10-28T10:56:25.248Z</time>
      </trkpt>
      <trkpt lat="48.0469" lon="6.85521">
        <ele>820</ele>
        <time>2020-10-28T10:56:26.247Z</time>
      </trkpt>
      <trkpt lat="48.0469" lon="6.85523">
        <ele>819</ele>
        <time>2020-10-28T10:56:27.248Z</time>
      </trkpt>
      <trkpt lat="48.04689" lon="6.85524">
        <ele>819</ele>
        <time>2020-10-28T10:56:28.248Z</time>
      </trkpt>
      <trkpt lat="48.04689" lon="6.85526">
        <ele>819</ele>
        <time>2020-10-28T10:56:29.247Z</time>
      </trkpt>
      <trkpt lat="48.04689" lon="6.85528">
        <ele>819</ele>
        <time>2020-10-28T10:56:30.248Z</time>
      </trkpt>
      <trkpt lat="48.04689" lon="6.85529">
        <ele>820</ele>
        <time>2020-10-28T10:56:31.248Z</time>
      </trkpt>
      <trkpt lat="48.04689" lon="6.85531">
        <ele>820</ele>
        <time>2020-10-28T10:56:32.248Z</time>
      </trkpt>
      <trkpt lat="48.04689" lon="6.85532">
        <ele>820</ele>
        <time>2020-10-28T10:56:33.248Z</time>
      </trkpt>
      <trkpt lat="48.04689" lon="6.85534">
        <ele>820</ele>
        <time>2020-10-28T10:56:34.248Z</time>
      </trkpt>
      <trkpt lat="48.04688" lon="6.85536">
        <ele>820</ele>
        <time>2020-10-28T10:56:35.248Z</time>
      </trkpt>
      <trkpt lat="48.04688" lon="6.85538">
        <ele>820</ele>
        <time>2020-10-28T10:56:36.247Z</time>
      </trkpt>
      <trkpt lat="48.04688" lon="6.85541">
        <ele>820</ele>
        <time>2020-10-28T10:56:37.248Z</time>
      </trkpt>
      <trkpt lat="48.04688" lon="6.85543">
        <ele>820</ele>
        <time>2020-10-28T10:56:38.248Z</time>
      </trkpt>
      <trkpt lat="48.04687" lon="6.85544">
        <ele>820</ele>
        <time>2020-10-28T10:56:39.248Z</time>
      </trkpt>
      <trkpt lat="48.04688" lon="6.85546">
        <ele>820</ele>
        <time>2020-10-28T10:56:40.248Z</time>
      </trkpt>
      <trkpt lat="48.04688" lon="6.85548">
        <ele>820</ele>
        <time>2020-10-28T10:56:41.248Z</time>
      </trkpt>
      <trkpt lat="48.04688" lon="6.85552">
        <ele>820</ele>
        <time>2020-10-28T10:56:42.248Z</time>
      </trkpt>
      <trkpt lat="48.04688" lon="6.85555">
        <ele>820</ele>
        <time>2020-10-28T10:56:43.248Z</time>
      </trkpt>
      <trkpt lat="48.04688" lon="6.85557">
        <ele>820</ele>
        <time>2020-10-28T10:56:44.248Z</time>
      </trkpt>
      <trkpt lat="48.04689" lon="6.85559">
        <ele>820</ele>
        <time>2020-10-28T10:56:45.248Z</time>
      </trkpt>
      <trkpt lat="48.04689" lon="6.85561">
        <ele>820</ele>
        <time>2020-10-28T10:56:46.247Z</time>
      </trkpt>
      <trkpt lat="48.0469" lon="6.85564">
        <ele>820</ele>
        <time>2020-10-28T10:56:47.248Z</time>
      </trkpt>
      <trkpt lat="48.04691" lon="6.85566">
        <ele>820</ele>
        <time>2020-10-28T10:56:48.248Z</time>
      </trkpt>
      <trkpt lat="48.04692" lon="6.85567">
        <ele>821</ele>
        <time>2020-10-28T10:56:49.248Z</time>
      </trkpt>
      <trkpt lat="48.04692" lon="6.85568">
        <ele>821</ele>
        <time>2020-10-28T10:56:50.248Z</time>
      </trkpt>
      <trkpt lat="48.04693" lon="6.8557">
        <ele>821</ele>
        <time>2020-10-28T10:56:51.247Z</time>
      </trkpt>
      <trkpt lat="48.04694" lon="6.85571">
        <ele>821</ele>
        <time>2020-10-28T10:56:52.248Z</time>
      </trkpt>
      <trkpt lat="48.04695" lon="6.85572">
        <ele>821</ele>
        <time>2020-10-28T10:56:53.248Z</time>
      </trkpt>
      <trkpt lat="48.04696" lon="6.85574">
        <ele>822</ele>
        <time>2020-10-28T10:56:54.248Z</time>
      </trkpt>
      <trkpt lat="48.04697" lon="6.85575">
        <ele>822</ele>
        <time>2020-10-28T10:56:55.248Z</time>
      </trkpt>
      <trkpt lat="48.04698" lon="6.85576">
        <ele>822</ele>
        <time>2020-10-28T10:56:56.248Z</time>
      </trkpt>
      <trkpt lat="48.04699" lon="6.85578">
        <ele>822</ele>
        <time>2020-10-28T10:56:57.248Z</time>
      </trkpt>
      <trkpt lat="48.047" lon="6.85579">
        <ele>823</ele>
        <time>2020-10-28T10:56:58.247Z</time>
      </trkpt>
      <trkpt lat="48.04701" lon="6.8558">
        <ele>823</ele>
        <time>2020-10-28T10:56:59.248Z</time>
      </trkpt>
      <trkpt lat="48.04703" lon="6.85582">
        <ele>823</ele>
        <time>2020-10-28T10:57:00.248Z</time>
      </trkpt>
      <trkpt lat="48.04705" lon="6.85584">
        <ele>823</ele>
        <time>2020-10-28T10:57:01.247Z</time>
      </trkpt>
      <trkpt lat="48.04707" lon="6.85585">
        <ele>823</ele>
        <time>2020-10-28T10:57:02.248Z</time>
      </trkpt>
      <trkpt lat="48.04709" lon="6.85585">
        <ele>823</ele>
        <time>2020-10-28T10:57:03.248Z</time>
      </trkpt>
      <trkpt lat="48.04709" lon="6.85587">
        <ele>823</ele>
        <time>2020-10-28T10:57:04.248Z</time>
      </trkpt>
      <trkpt lat="48.0471" lon="6.85588">
        <ele>824</ele>
        <time>2020-10-28T10:57:05.248Z</time>
      </trkpt>
      <trkpt lat="48.04711" lon="6.85589">
        <ele>824</ele>
        <time>2020-10-28T10:57:06.248Z</time>
      </trkpt>
      <trkpt lat="48.04713" lon="6.8559">
        <ele>824</ele>
        <time>2020-10-28T10:57:07.248Z</time>
      </trkpt>
      <trkpt lat="48.04714" lon="6.85591">
        <ele>825</ele>
        <time>2020-10-28T10:57:08.248Z</time>
      </trkpt>
      <trkpt lat="48.04716" lon="6.85593">
        <ele>825</ele>
        <time>2020-10-28T10:57:09.247Z</time>
      </trkpt>
      <trkpt lat="48.04717" lon="6.85594">
        <ele>825</ele>
        <time>2020-10-28T10:57:10.248Z</time>
      </trkpt>
      <trkpt lat="48.04718" lon="6.85595">
        <ele>826</ele>
        <time>2020-10-28T10:57:11.247Z</time>
      </trkpt>
      <trkpt lat="48.04719" lon="6.85596">
        <ele>826</ele>
        <time>2020-10-28T10:57:12.248Z</time>
      </trkpt>
      <trkpt lat="48.0472" lon="6.85598">
        <ele>826</ele>
        <time>2020-10-28T10:57:13.248Z</time>
      </trkpt>
      <trkpt lat="48.04721" lon="6.856">
        <ele>827</ele>
        <time>2020-10-28T10:57:14.248Z</time>
      </trkpt>
      <trkpt lat="48.04721" lon="6.85601">
        <ele>827</ele>
        <time>2020-10-28T10:57:15.247Z</time>
      </trkpt>
      <trkpt lat="48.04722" lon="6.85603">
        <ele>828</ele>
        <time>2020-10-28T10:57:16.248Z</time>
      </trkpt>
      <trkpt lat="48.04723" lon="6.85605">
        <ele>828</ele>
        <time>2020-10-28T10:57:17.247Z</time>
      </trkpt>
      <trkpt lat="48.04724" lon="6.85607">
        <ele>829</ele>
        <time>2020-10-28T10:57:18.248Z</time>
      </trkpt>
      <trkpt lat="48.04726" lon="6.85609">
        <ele>829</ele>
        <time>2020-10-28T10:57:19.248Z</time>
      </trkpt>
      <trkpt lat="48.04727" lon="6.85611">
        <ele>829</ele>
        <time>2020-10-28T10:57:20.247Z</time>
      </trkpt>
      <trkpt lat="48.04728" lon="6.85612">
        <ele>830</ele>
        <time>2020-10-28T10:57:21.247Z</time>
      </trkpt>
      <trkpt lat="48.04729" lon="6.85614">
        <ele>830</ele>
        <time>2020-10-28T10:57:22.248Z</time>
      </trkpt>
      <trkpt lat="48.0473" lon="6.85616">
        <ele>830</ele>
        <time>2020-10-28T10:57:23.247Z</time>
      </trkpt>
      <trkpt lat="48.0473" lon="6.85618">
        <ele>830</ele>
        <time>2020-10-28T10:57:24.248Z</time>
      </trkpt>
      <trkpt lat="48.04731" lon="6.8562">
        <ele>831</ele>
        <time>2020-10-28T10:57:28.235Z</time>
      </trkpt>
      <trkpt lat="48.04731" lon="6.85623">
        <ele>831</ele>
        <time>2020-10-28T10:57:29.235Z</time>
      </trkpt>
      <trkpt lat="48.04732" lon="6.85626">
        <ele>831</ele>
        <time>2020-10-28T10:57:30.235Z</time>
      </trkpt>
      <trkpt lat="48.04732" lon="6.8563">
        <ele>832</ele>
        <time>2020-10-28T10:57:31.235Z</time>
      </trkpt>
      <trkpt lat="48.04732" lon="6.85634">
        <ele>832</ele>
        <time>2020-10-28T10:57:32.235Z</time>
      </trkpt>
      <trkpt lat="48.04733" lon="6.85638">
        <ele>832</ele>
        <time>2020-10-28T10:57:33.234Z</time>
      </trkpt>
      <trkpt lat="48.04734" lon="6.85641">
        <ele>831</ele>
        <time>2020-10-28T10:57:34.234Z</time>
      </trkpt>
      <trkpt lat="48.04734" lon="6.85644">
        <ele>831</ele>
        <time>2020-10-28T10:57:35.235Z</time>
      </trkpt>
      <trkpt lat="48.04733" lon="6.85647">
        <ele>831</ele>
        <time>2020-10-28T10:57:36.234Z</time>
      </trkpt>
      <trkpt lat="48.04734" lon="6.8565">
        <ele>831</ele>
        <time>2020-10-28T10:57:37.235Z</time>
      </trkpt>
      <trkpt lat="48.04735" lon="6.85652">
        <ele>830</ele>
        <time>2020-10-28T10:57:38.235Z</time>
      </trkpt>
      <trkpt lat="48.04735" lon="6.85653">
        <ele>830</ele>
        <time>2020-10-28T10:57:39.234Z</time>
      </trkpt>
      <trkpt lat="48.04736" lon="6.85655">
        <ele>830</ele>
        <time>2020-10-28T10:57:40.235Z</time>
      </trkpt>
      <trkpt lat="48.04737" lon="6.85656">
        <ele>830</ele>
        <time>2020-10-28T10:57:41.235Z</time>
      </trkpt>
      <trkpt lat="48.04738" lon="6.85658">
        <ele>830</ele>
        <time>2020-10-28T10:57:42.234Z</time>
      </trkpt>
      <trkpt lat="48.04738" lon="6.85659">
        <ele>831</ele>
        <time>2020-10-28T10:57:45.228Z</time>
      </trkpt>
      <trkpt lat="48.04739" lon="6.8566">
        <ele>831</ele>
        <time>2020-10-28T10:57:46.228Z</time>
      </trkpt>
      <trkpt lat="48.0474" lon="6.85661">
        <ele>832</ele>
        <time>2020-10-28T10:57:47.228Z</time>
      </trkpt>
      <trkpt lat="48.04741" lon="6.85662">
        <ele>832</ele>
        <time>2020-10-28T10:57:48.228Z</time>
      </trkpt>
      <trkpt lat="48.04742" lon="6.85664">
        <ele>833</ele>
        <time>2020-10-28T10:57:49.228Z</time>
      </trkpt>
      <trkpt lat="48.04741" lon="6.85666">
        <ele>833</ele>
        <time>2020-10-28T10:57:50.227Z</time>
      </trkpt>
      <trkpt lat="48.04741" lon="6.85668">
        <ele>834</ele>
        <time>2020-10-28T10:57:51.228Z</time>
      </trkpt>
      <trkpt lat="48.04742" lon="6.85669">
        <ele>834</ele>
        <time>2020-10-28T10:57:52.227Z</time>
      </trkpt>
      <trkpt lat="48.04743" lon="6.8567">
        <ele>835</ele>
        <time>2020-10-28T10:57:53.227Z</time>
      </trkpt>
      <trkpt lat="48.04743" lon="6.85671">
        <ele>835</ele>
        <time>2020-10-28T10:57:54.227Z</time>
      </trkpt>
      <trkpt lat="48.04744" lon="6.85672">
        <ele>836</ele>
        <time>2020-10-28T10:57:55.227Z</time>
      </trkpt>
      <trkpt lat="48.04745" lon="6.85672">
        <ele>837</ele>
        <time>2020-10-28T10:57:56.227Z</time>
      </trkpt>
      <trkpt lat="48.04746" lon="6.85673">
        <ele>838</ele>
        <time>2020-10-28T10:57:57.227Z</time>
      </trkpt>
      <trkpt lat="48.04747" lon="6.85673">
        <ele>838</ele>
        <time>2020-10-28T10:57:58.228Z</time>
      </trkpt>
      <trkpt lat="48.04748" lon="6.85674">
        <ele>839</ele>
        <time>2020-10-28T10:57:59.228Z</time>
      </trkpt>
      <trkpt lat="48.04749" lon="6.85675">
        <ele>839</ele>
        <time>2020-10-28T10:58:00.228Z</time>
      </trkpt>
      <trkpt lat="48.0475" lon="6.85676">
        <ele>840</ele>
        <time>2020-10-28T10:58:01.227Z</time>
      </trkpt>
      <trkpt lat="48.04751" lon="6.85677">
        <ele>840</ele>
        <time>2020-10-28T10:58:02.228Z</time>
      </trkpt>
      <trkpt lat="48.04753" lon="6.85679">
        <ele>840</ele>
        <time>2020-10-28T10:58:03.228Z</time>
      </trkpt>
      <trkpt lat="48.04754" lon="6.8568">
        <ele>841</ele>
        <time>2020-10-28T10:58:04.228Z</time>
      </trkpt>
      <trkpt lat="48.04755" lon="6.85681">
        <ele>841</ele>
        <time>2020-10-28T10:58:05.228Z</time>
      </trkpt>
      <trkpt lat="48.04756" lon="6.85683">
        <ele>841</ele>
        <time>2020-10-28T10:58:06.227Z</time>
      </trkpt>
      <trkpt lat="48.04757" lon="6.85684">
        <ele>841</ele>
        <time>2020-10-28T10:58:09.371Z</time>
      </trkpt>
      <trkpt lat="48.04759" lon="6.85686">
        <ele>840</ele>
        <time>2020-10-28T10:58:10.371Z</time>
      </trkpt>
      <trkpt lat="48.0476" lon="6.85687">
        <ele>840</ele>
        <time>2020-10-28T10:58:11.371Z</time>
      </trkpt>
      <trkpt lat="48.04761" lon="6.85689">
        <ele>840</ele>
        <time>2020-10-28T10:58:12.370Z</time>
      </trkpt>
      <trkpt lat="48.04763" lon="6.8569">
        <ele>840</ele>
        <time>2020-10-28T10:58:13.371Z</time>
      </trkpt>
      <trkpt lat="48.04764" lon="6.85691">
        <ele>840</ele>
        <time>2020-10-28T10:58:14.371Z</time>
      </trkpt>
      <trkpt lat="48.04766" lon="6.85692">
        <ele>840</ele>
        <time>2020-10-28T10:58:15.371Z</time>
      </trkpt>
      <trkpt lat="48.04767" lon="6.85692">
        <ele>840</ele>
        <time>2020-10-28T10:58:16.371Z</time>
      </trkpt>
      <trkpt lat="48.04769" lon="6.85693">
        <ele>840</ele>
        <time>2020-10-28T10:58:17.371Z</time>
      </trkpt>
      <trkpt lat="48.0477" lon="6.85695">
        <ele>840</ele>
        <time>2020-10-28T10:58:18.371Z</time>
      </trkpt>
      <trkpt lat="48.04772" lon="6.85697">
        <ele>841</ele>
        <time>2020-10-28T10:58:19.371Z</time>
      </trkpt>
      <trkpt lat="48.04773" lon="6.85699">
        <ele>841</ele>
        <time>2020-10-28T10:58:20.370Z</time>
      </trkpt>
      <trkpt lat="48.04774" lon="6.85701">
        <ele>842</ele>
        <time>2020-10-28T10:58:21.371Z</time>
      </trkpt>
      <trkpt lat="48.04776" lon="6.85703">
        <ele>842</ele>
        <time>2020-10-28T10:58:22.370Z</time>
      </trkpt>
      <trkpt lat="48.04777" lon="6.85705">
        <ele>842</ele>
        <time>2020-10-28T10:58:23.371Z</time>
      </trkpt>
      <trkpt lat="48.04779" lon="6.85705">
        <ele>842</ele>
        <time>2020-10-28T10:58:24.371Z</time>
      </trkpt>
      <trkpt lat="48.0478" lon="6.85707">
        <ele>842</ele>
        <time>2020-10-28T10:58:25.371Z</time>
      </trkpt>
      <trkpt lat="48.04782" lon="6.85708">
        <ele>842</ele>
        <time>2020-10-28T10:58:26.371Z</time>
      </trkpt>
      <trkpt lat="48.04782" lon="6.85708">
        <ele>843</ele>
        <time>2020-10-28T10:58:27.371Z</time>
      </trkpt>
      <trkpt lat="48.04783" lon="6.85709">
        <ele>843</ele>
        <time>2020-10-28T10:58:28.370Z</time>
      </trkpt>
      <trkpt lat="48.04784" lon="6.85709">
        <ele>844</ele>
        <time>2020-10-28T10:58:29.371Z</time>
      </trkpt>
      <trkpt lat="48.04784" lon="6.8571">
        <ele>844</ele>
        <time>2020-10-28T10:58:30.371Z</time>
      </trkpt>
      <trkpt lat="48.04785" lon="6.8571">
        <ele>845</ele>
        <time>2020-10-28T10:58:31.371Z</time>
      </trkpt>
      <trkpt lat="48.04786" lon="6.85709">
        <ele>845</ele>
        <time>2020-10-28T10:58:32.371Z</time>
      </trkpt>
      <trkpt lat="48.04787" lon="6.85709">
        <ele>845</ele>
        <time>2020-10-28T10:58:33.370Z</time>
      </trkpt>
      <trkpt lat="48.04789" lon="6.85709">
        <ele>846</ele>
        <time>2020-10-28T10:58:34.371Z</time>
      </trkpt>
      <trkpt lat="48.04789" lon="6.85709">
        <ele>846</ele>
        <time>2020-10-28T10:58:35.371Z</time>
      </trkpt>
      <trkpt lat="48.0479" lon="6.85709">
        <ele>847</ele>
        <time>2020-10-28T10:58:36.371Z</time>
      </trkpt>
      <trkpt lat="48.04791" lon="6.8571">
        <ele>848</ele>
        <time>2020-10-28T10:58:37.370Z</time>
      </trkpt>
      <trkpt lat="48.04793" lon="6.8571">
        <ele>848</ele>
        <time>2020-10-28T10:58:38.371Z</time>
      </trkpt>
      <trkpt lat="48.04793" lon="6.85709">
        <ele>849</ele>
        <time>2020-10-28T10:58:39.371Z</time>
      </trkpt>
      <trkpt lat="48.04794" lon="6.8571">
        <ele>849</ele>
        <time>2020-10-28T10:58:40.371Z</time>
      </trkpt>
      <trkpt lat="48.04795" lon="6.85711">
        <ele>850</ele>
        <time>2020-10-28T10:58:41.371Z</time>
      </trkpt>
      <trkpt lat="48.04797" lon="6.85712">
        <ele>850</ele>
        <time>2020-10-28T10:58:42.370Z</time>
      </trkpt>
      <trkpt lat="48.04797" lon="6.85712">
        <ele>851</ele>
        <time>2020-10-28T10:58:43.371Z</time>
      </trkpt>
      <trkpt lat="48.04799" lon="6.85713">
        <ele>851</ele>
        <time>2020-10-28T10:58:44.371Z</time>
      </trkpt>
      <trkpt lat="48.04799" lon="6.85713">
        <ele>852</ele>
        <time>2020-10-28T10:58:45.370Z</time>
      </trkpt>
      <trkpt lat="48.04801" lon="6.85714">
        <ele>853</ele>
        <time>2020-10-28T10:58:46.371Z</time>
      </trkpt>
      <trkpt lat="48.04802" lon="6.85714">
        <ele>853</ele>
        <time>2020-10-28T10:58:47.371Z</time>
      </trkpt>
      <trkpt lat="48.04804" lon="6.85714">
        <ele>854</ele>
        <time>2020-10-28T10:58:48.370Z</time>
      </trkpt>
      <trkpt lat="48.04805" lon="6.85715">
        <ele>855</ele>
        <time>2020-10-28T10:58:49.371Z</time>
      </trkpt>
      <trkpt lat="48.04807" lon="6.85715">
        <ele>855</ele>
        <time>2020-10-28T10:58:50.371Z</time>
      </trkpt>
      <trkpt lat="48.04808" lon="6.85715">
        <ele>855</ele>
        <time>2020-10-28T10:58:51.371Z</time>
      </trkpt>
      <trkpt lat="48.04809" lon="6.85715">
        <ele>855</ele>
        <time>2020-10-28T10:58:52.371Z</time>
      </trkpt>
      <trkpt lat="48.04811" lon="6.85716">
        <ele>856</ele>
        <time>2020-10-28T10:58:53.370Z</time>
      </trkpt>
      <trkpt lat="48.04813" lon="6.85716">
        <ele>856</ele>
        <time>2020-10-28T10:58:54.370Z</time>
      </trkpt>
      <trkpt lat="48.04814" lon="6.85718">
        <ele>856</ele>
        <time>2020-10-28T10:58:55.371Z</time>
      </trkpt>
      <trkpt lat="48.04816" lon="6.85719">
        <ele>856</ele>
        <time>2020-10-28T10:58:56.371Z</time>
      </trkpt>
      <trkpt lat="48.04816" lon="6.85721">
        <ele>856</ele>
        <time>2020-10-28T10:58:57.371Z</time>
      </trkpt>
      <trkpt lat="48.04818" lon="6.85721">
        <ele>856</ele>
        <time>2020-10-28T10:58:58.370Z</time>
      </trkpt>
      <trkpt lat="48.04819" lon="6.85722">
        <ele>856</ele>
        <time>2020-10-28T10:58:59.371Z</time>
      </trkpt>
      <trkpt lat="48.04821" lon="6.85723">
        <ele>856</ele>
        <time>2020-10-28T10:59:00.371Z</time>
      </trkpt>
      <trkpt lat="48.04823" lon="6.85723">
        <ele>856</ele>
        <time>2020-10-28T10:59:01.371Z</time>
      </trkpt>
      <trkpt lat="48.04826" lon="6.85723">
        <ele>856</ele>
        <time>2020-10-28T10:59:02.370Z</time>
      </trkpt>
      <trkpt lat="48.04828" lon="6.85723">
        <ele>856</ele>
        <time>2020-10-28T10:59:03.371Z</time>
      </trkpt>
      <trkpt lat="48.0483" lon="6.85724">
        <ele>856</ele>
        <time>2020-10-28T10:59:04.370Z</time>
      </trkpt>
      <trkpt lat="48.04832" lon="6.85725">
        <ele>855</ele>
        <time>2020-10-28T10:59:05.371Z</time>
      </trkpt>
      <trkpt lat="48.04833" lon="6.85726">
        <ele>855</ele>
        <time>2020-10-28T10:59:06.371Z</time>
      </trkpt>
      <trkpt lat="48.04834" lon="6.85727">
        <ele>854</ele>
        <time>2020-10-28T10:59:07.371Z</time>
      </trkpt>
      <trkpt lat="48.04835" lon="6.85728">
        <ele>854</ele>
        <time>2020-10-28T10:59:08.371Z</time>
      </trkpt>
      <trkpt lat="48.04836" lon="6.85729">
        <ele>853</ele>
        <time>2020-10-28T10:59:09.370Z</time>
      </trkpt>
      <trkpt lat="48.04837" lon="6.8573">
        <ele>853</ele>
        <time>2020-10-28T10:59:10.371Z</time>
      </trkpt>
      <trkpt lat="48.04839" lon="6.85731">
        <ele>853</ele>
        <time>2020-10-28T10:59:11.371Z</time>
      </trkpt>
      <trkpt lat="48.0484" lon="6.85732">
        <ele>853</ele>
        <time>2020-10-28T10:59:12.371Z</time>
      </trkpt>
      <trkpt lat="48.04841" lon="6.85733">
        <ele>853</ele>
        <time>2020-10-28T10:59:13.371Z</time>
      </trkpt>
      <trkpt lat="48.04843" lon="6.85734">
        <ele>853</ele>
        <time>2020-10-28T10:59:14.371Z</time>
      </trkpt>
      <trkpt lat="48.04844" lon="6.85736">
        <ele>853</ele>
        <time>2020-10-28T10:59:15.370Z</time>
      </trkpt>
      <trkpt lat="48.04846" lon="6.85738">
        <ele>853</ele>
        <time>2020-10-28T10:59:16.371Z</time>
      </trkpt>
      <trkpt lat="48.04847" lon="6.8574">
        <ele>853</ele>
        <time>2020-10-28T10:59:17.371Z</time>
      </trkpt>
      <trkpt lat="48.04848" lon="6.85741">
        <ele>853</ele>
        <time>2020-10-28T10:59:18.371Z</time>
      </trkpt>
      <trkpt lat="48.04849" lon="6.85743">
        <ele>853</ele>
        <time>2020-10-28T10:59:19.371Z</time>
      </trkpt>
      <trkpt lat="48.0485" lon="6.85744">
        <ele>853</ele>
        <time>2020-10-28T10:59:20.371Z</time>
      </trkpt>
      <trkpt lat="48.04851" lon="6.85745">
        <ele>852</ele>
        <time>2020-10-28T10:59:21.371Z</time>
      </trkpt>
      <trkpt lat="48.04852" lon="6.85746">
        <ele>852</ele>
        <time>2020-10-28T10:59:22.370Z</time>
      </trkpt>
      <trkpt lat="48.04853" lon="6.85748">
        <ele>852</ele>
        <time>2020-10-28T10:59:23.371Z</time>
      </trkpt>
      <trkpt lat="48.04854" lon="6.85749">
        <ele>852</ele>
        <time>2020-10-28T10:59:24.371Z</time>
      </trkpt>
      <trkpt lat="48.04855" lon="6.85751">
        <ele>852</ele>
        <time>2020-10-28T10:59:25.371Z</time>
      </trkpt>
      <trkpt lat="48.04856" lon="6.85752">
        <ele>852</ele>
        <time>2020-10-28T10:59:26.370Z</time>
      </trkpt>
      <trkpt lat="48.04858" lon="6.85754">
        <ele>853</ele>
        <time>2020-10-28T10:59:27.371Z</time>
      </trkpt>
      <trkpt lat="48.04859" lon="6.85756">
        <ele>853</ele>
        <time>2020-10-28T10:59:28.371Z</time>
      </trkpt>
      <trkpt lat="48.0486" lon="6.85757">
        <ele>853</ele>
        <time>2020-10-28T10:59:29.371Z</time>
      </trkpt>
      <trkpt lat="48.04862" lon="6.8576">
        <ele>853</ele>
        <time>2020-10-28T10:59:30.371Z</time>
      </trkpt>
      <trkpt lat="48.04863" lon="6.85763">
        <ele>854</ele>
        <time>2020-10-28T10:59:31.371Z</time>
      </trkpt>
      <trkpt lat="48.04864" lon="6.85767">
        <ele>854</ele>
        <time>2020-10-28T10:59:32.371Z</time>
      </trkpt>
      <trkpt lat="48.04865" lon="6.85771">
        <ele>854</ele>
        <time>2020-10-28T10:59:33.371Z</time>
      </trkpt>
      <trkpt lat="48.04866" lon="6.85774">
        <ele>854</ele>
        <time>2020-10-28T10:59:34.371Z</time>
      </trkpt>
      <trkpt lat="48.04867" lon="6.85777">
        <ele>853</ele>
        <time>2020-10-28T10:59:36.487Z</time>
      </trkpt>
      <trkpt lat="48.04868" lon="6.85779">
        <ele>853</ele>
        <time>2020-10-28T10:59:37.486Z</time>
      </trkpt>
      <trkpt lat="48.04869" lon="6.85782">
        <ele>852</ele>
        <time>2020-10-28T10:59:38.486Z</time>
      </trkpt>
      <trkpt lat="48.0487" lon="6.85784">
        <ele>851</ele>
        <time>2020-10-28T10:59:39.487Z</time>
      </trkpt>
      <trkpt lat="48.0487" lon="6.85786">
        <ele>851</ele>
        <time>2020-10-28T10:59:40.487Z</time>
      </trkpt>
      <trkpt lat="48.04871" lon="6.85788">
        <ele>850</ele>
        <time>2020-10-28T10:59:41.487Z</time>
      </trkpt>
      <trkpt lat="48.04871" lon="6.85789">
        <ele>850</ele>
        <time>2020-10-28T10:59:42.487Z</time>
      </trkpt>
      <trkpt lat="48.04872" lon="6.85791">
        <ele>850</ele>
        <time>2020-10-28T10:59:43.487Z</time>
      </trkpt>
      <trkpt lat="48.04873" lon="6.85793">
        <ele>850</ele>
        <time>2020-10-28T10:59:44.487Z</time>
      </trkpt>
      <trkpt lat="48.04873" lon="6.85796">
        <ele>850</ele>
        <time>2020-10-28T10:59:45.487Z</time>
      </trkpt>
      <trkpt lat="48.04873" lon="6.85798">
        <ele>850</ele>
        <time>2020-10-28T10:59:46.487Z</time>
      </trkpt>
      <trkpt lat="48.04874" lon="6.858">
        <ele>850</ele>
        <time>2020-10-28T10:59:47.487Z</time>
      </trkpt>
      <trkpt lat="48.04875" lon="6.85803">
        <ele>850</ele>
        <time>2020-10-28T10:59:48.486Z</time>
      </trkpt>
      <trkpt lat="48.04875" lon="6.85806">
        <ele>850</ele>
        <time>2020-10-28T10:59:49.486Z</time>
      </trkpt>
      <trkpt lat="48.04875" lon="6.85808">
        <ele>850</ele>
        <time>2020-10-28T10:59:50.487Z</time>
      </trkpt>
      <trkpt lat="48.04876" lon="6.85811">
        <ele>850</ele>
        <time>2020-10-28T10:59:51.487Z</time>
      </trkpt>
      <trkpt lat="48.04877" lon="6.85814">
        <ele>851</ele>
        <time>2020-10-28T10:59:52.487Z</time>
      </trkpt>
      <trkpt lat="48.04879" lon="6.85817">
        <ele>851</ele>
        <time>2020-10-28T10:59:53.487Z</time>
      </trkpt>
      <trkpt lat="48.04879" lon="6.85819">
        <ele>851</ele>
        <time>2020-10-28T10:59:54.487Z</time>
      </trkpt>
      <trkpt lat="48.0488" lon="6.8582">
        <ele>851</ele>
        <time>2020-10-28T10:59:55.487Z</time>
      </trkpt>
      <trkpt lat="48.04881" lon="6.85822">
        <ele>851</ele>
        <time>2020-10-28T10:59:56.486Z</time>
      </trkpt>
      <trkpt lat="48.04881" lon="6.85823">
        <ele>851</ele>
        <time>2020-10-28T10:59:57.487Z</time>
      </trkpt>
      <trkpt lat="48.04882" lon="6.85825">
        <ele>851</ele>
        <time>2020-10-28T10:59:58.487Z</time>
      </trkpt>
      <trkpt lat="48.04883" lon="6.85826">
        <ele>851</ele>
        <time>2020-10-28T10:59:59.487Z</time>
      </trkpt>
      <trkpt lat="48.04884" lon="6.85828">
        <ele>851</ele>
        <time>2020-10-28T11:00:00.487Z</time>
      </trkpt>
      <trkpt lat="48.04885" lon="6.8583">
        <ele>851</ele>
        <time>2020-10-28T11:00:01.487Z</time>
      </trkpt>
      <trkpt lat="48.04886" lon="6.85831">
        <ele>851</ele>
        <time>2020-10-28T11:00:02.487Z</time>
      </trkpt>
      <trkpt lat="48.04888" lon="6.85832">
        <ele>851</ele>
        <time>2020-10-28T11:00:03.486Z</time>
      </trkpt>
      <trkpt lat="48.04889" lon="6.85834">
        <ele>851</ele>
        <time>2020-10-28T11:00:04.486Z</time>
      </trkpt>
      <trkpt lat="48.04891" lon="6.85836">
        <ele>851</ele>
        <time>2020-10-28T11:00:05.487Z</time>
      </trkpt>
      <trkpt lat="48.04892" lon="6.85837">
        <ele>851</ele>
        <time>2020-10-28T11:00:06.487Z</time>
      </trkpt>
      <trkpt lat="48.04893" lon="6.85839">
        <ele>851</ele>
        <time>2020-10-28T11:00:07.486Z</time>
      </trkpt>
      <trkpt lat="48.04894" lon="6.8584">
        <ele>850</ele>
        <time>2020-10-28T11:00:08.486Z</time>
      </trkpt>
      <trkpt lat="48.04895" lon="6.85841">
        <ele>850</ele>
        <time>2020-10-28T11:00:09.486Z</time>
      </trkpt>
      <trkpt lat="48.04895" lon="6.85843">
        <ele>849</ele>
        <time>2020-10-28T11:00:10.487Z</time>
      </trkpt>
      <trkpt lat="48.04897" lon="6.85845">
        <ele>848</ele>
        <time>2020-10-28T11:00:11.487Z</time>
      </trkpt>
      <trkpt lat="48.04897" lon="6.85848">
        <ele>848</ele>
        <time>2020-10-28T11:00:12.487Z</time>
      </trkpt>
      <trkpt lat="48.04899" lon="6.8585">
        <ele>847</ele>
        <time>2020-10-28T11:00:13.486Z</time>
      </trkpt>
      <trkpt lat="48.049" lon="6.85853">
        <ele>847</ele>
        <time>2020-10-28T11:00:14.487Z</time>
      </trkpt>
      <trkpt lat="48.04901" lon="6.85855">
        <ele>847</ele>
        <time>2020-10-28T11:00:15.487Z</time>
      </trkpt>
      <trkpt lat="48.04901" lon="6.85856">
        <ele>847</ele>
        <time>2020-10-28T11:00:16.487Z</time>
      </trkpt>
      <trkpt lat="48.04902" lon="6.85858">
        <ele>847</ele>
        <time>2020-10-28T11:00:17.486Z</time>
      </trkpt>
      <trkpt lat="48.04903" lon="6.85859">
        <ele>847</ele>
        <time>2020-10-28T11:00:18.486Z</time>
      </trkpt>
      <trkpt lat="48.04903" lon="6.85861">
        <ele>847</ele>
        <time>2020-10-28T11:00:19.486Z</time>
      </trkpt>
      <trkpt lat="48.04904" lon="6.85862">
        <ele>846</ele>
        <time>2020-10-28T11:00:20.487Z</time>
      </trkpt>
      <trkpt lat="48.04904" lon="6.85864">
        <ele>846</ele>
        <time>2020-10-28T11:00:21.487Z</time>
      </trkpt>
      <trkpt lat="48.04905" lon="6.85866">
        <ele>846</ele>
        <time>2020-10-28T11:00:22.487Z</time>
      </trkpt>
      <trkpt lat="48.04906" lon="6.85868">
        <ele>846</ele>
        <time>2020-10-28T11:00:23.487Z</time>
      </trkpt>
      <trkpt lat="48.04905" lon="6.85869">
        <ele>846</ele>
        <time>2020-10-28T11:00:24.486Z</time>
      </trkpt>
      <trkpt lat="48.04905" lon="6.85871">
        <ele>846</ele>
        <time>2020-10-28T11:00:25.487Z</time>
      </trkpt>
      <trkpt lat="48.04905" lon="6.85873">
        <ele>846</ele>
        <time>2020-10-28T11:00:26.487Z</time>
      </trkpt>
      <trkpt lat="48.04906" lon="6.85875">
        <ele>846</ele>
        <time>2020-10-28T11:00:27.486Z</time>
      </trkpt>
      <trkpt lat="48.04906" lon="6.85877">
        <ele>845</ele>
        <time>2020-10-28T11:00:28.487Z</time>
      </trkpt>
      <trkpt lat="48.04906" lon="6.85879">
        <ele>844</ele>
        <time>2020-10-28T11:00:29.487Z</time>
      </trkpt>
      <trkpt lat="48.04906" lon="6.85881">
        <ele>844</ele>
        <time>2020-10-28T11:00:30.487Z</time>
      </trkpt>
      <trkpt lat="48.04906" lon="6.85883">
        <ele>843</ele>
        <time>2020-10-28T11:00:31.487Z</time>
      </trkpt>
      <trkpt lat="48.04907" lon="6.85884">
        <ele>843</ele>
        <time>2020-10-28T11:00:32.487Z</time>
      </trkpt>
      <trkpt lat="48.04906" lon="6.85884">
        <ele>842</ele>
        <time>2020-10-28T11:00:33.487Z</time>
      </trkpt>
      <trkpt lat="48.04904" lon="6.85887">
        <ele>839</ele>
        <time>2020-10-28T11:00:34.488Z</time>
      </trkpt>
      <trkpt lat="48.04902" lon="6.85888">
        <ele>839</ele>
        <time>2020-10-28T11:00:35.488Z</time>
      </trkpt>
      <trkpt lat="48.04902" lon="6.85888">
        <ele>838</ele>
        <time>2020-10-28T11:00:36.487Z</time>
      </trkpt>
      <trkpt lat="48.04903" lon="6.85889">
        <ele>837</ele>
        <time>2020-10-28T11:00:37.488Z</time>
      </trkpt>
      <trkpt lat="48.04902" lon="6.8589">
        <ele>837</ele>
        <time>2020-10-28T11:00:38.488Z</time>
      </trkpt>
      <trkpt lat="48.04903" lon="6.85891">
        <ele>835</ele>
        <time>2020-10-28T11:00:39.488Z</time>
      </trkpt>
      <trkpt lat="48.04904" lon="6.85892">
        <ele>834</ele>
        <time>2020-10-28T11:00:40.488Z</time>
      </trkpt>
      <trkpt lat="48.04904" lon="6.85892">
        <ele>833</ele>
        <time>2020-10-28T11:00:41.488Z</time>
      </trkpt>
      <trkpt lat="48.04904" lon="6.85893">
        <ele>832</ele>
        <time>2020-10-28T11:00:42.489Z</time>
      </trkpt>
      <trkpt lat="48.04903" lon="6.85893">
        <ele>832</ele>
        <time>2020-10-28T11:00:43.488Z</time>
      </trkpt>
      <trkpt lat="48.04903" lon="6.85894">
        <ele>831</ele>
        <time>2020-10-28T11:00:44.489Z</time>
      </trkpt>
      <trkpt lat="48.04903" lon="6.85895">
        <ele>831</ele>
        <time>2020-10-28T11:00:45.488Z</time>
      </trkpt>
      <trkpt lat="48.04903" lon="6.85896">
        <ele>830</ele>
        <time>2020-10-28T11:00:46.488Z</time>
      </trkpt>
      <trkpt lat="48.04903" lon="6.85896">
        <ele>830</ele>
        <time>2020-10-28T11:00:47.489Z</time>
      </trkpt>
      <trkpt lat="48.04903" lon="6.85897">
        <ele>830</ele>
        <time>2020-10-28T11:00:48.488Z</time>
      </trkpt>
      <trkpt lat="48.04903" lon="6.85898">
        <ele>830</ele>
        <time>2020-10-28T11:00:49.489Z</time>
      </trkpt>
      <trkpt lat="48.04903" lon="6.85899">
        <ele>830</ele>
        <time>2020-10-28T11:00:50.488Z</time>
      </trkpt>
      <trkpt lat="48.04904" lon="6.859">
        <ele>830</ele>
        <time>2020-10-28T11:00:51.488Z</time>
      </trkpt>
      <trkpt lat="48.04904" lon="6.85902">
        <ele>830</ele>
        <time>2020-10-28T11:00:52.489Z</time>
      </trkpt>
      <trkpt lat="48.04904" lon="6.85905">
        <ele>830</ele>
        <time>2020-10-28T11:00:53.489Z</time>
      </trkpt>
      <trkpt lat="48.04904" lon="6.85906">
        <ele>830</ele>
        <time>2020-10-28T11:00:54.489Z</time>
      </trkpt>
      <trkpt lat="48.04905" lon="6.85908">
        <ele>830</ele>
        <time>2020-10-28T11:00:55.489Z</time>
      </trkpt>
      <trkpt lat="48.04906" lon="6.85909">
        <ele>830</ele>
        <time>2020-10-28T11:00:56.489Z</time>
      </trkpt>
      <trkpt lat="48.04906" lon="6.8591">
        <ele>830</ele>
        <time>2020-10-28T11:00:57.489Z</time>
      </trkpt>
      <trkpt lat="48.04907" lon="6.85911">
        <ele>830</ele>
        <time>2020-10-28T11:00:58.489Z</time>
      </trkpt>
      <trkpt lat="48.04908" lon="6.85913">
        <ele>829</ele>
        <time>2020-10-28T11:00:59.488Z</time>
      </trkpt>
      <trkpt lat="48.04909" lon="6.85914">
        <ele>829</ele>
        <time>2020-10-28T11:01:00.489Z</time>
      </trkpt>
      <trkpt lat="48.04909" lon="6.85915">
        <ele>829</ele>
        <time>2020-10-28T11:01:01.488Z</time>
      </trkpt>
      <trkpt lat="48.0491" lon="6.85916">
        <ele>829</ele>
        <time>2020-10-28T11:01:02.489Z</time>
      </trkpt>
      <trkpt lat="48.0491" lon="6.85917">
        <ele>829</ele>
        <time>2020-10-28T11:01:03.488Z</time>
      </trkpt>
      <trkpt lat="48.0491" lon="6.85918">
        <ele>829</ele>
        <time>2020-10-28T11:01:04.489Z</time>
      </trkpt>
      <trkpt lat="48.04911" lon="6.85919">
        <ele>829</ele>
        <time>2020-10-28T11:01:05.489Z</time>
      </trkpt>
      <trkpt lat="48.04913" lon="6.8592">
        <ele>829</ele>
        <time>2020-10-28T11:01:06.489Z</time>
      </trkpt>
      <trkpt lat="48.04914" lon="6.85921">
        <ele>829</ele>
        <time>2020-10-28T11:01:07.489Z</time>
      </trkpt>
      <trkpt lat="48.04915" lon="6.85922">
        <ele>829</ele>
        <time>2020-10-28T11:01:08.489Z</time>
      </trkpt>
      <trkpt lat="48.04915" lon="6.85924">
        <ele>829</ele>
        <time>2020-10-28T11:01:09.489Z</time>
      </trkpt>
      <trkpt lat="48.04915" lon="6.85925">
        <ele>828</ele>
        <time>2020-10-28T11:01:10.488Z</time>
      </trkpt>
      <trkpt lat="48.04916" lon="6.85926">
        <ele>828</ele>
        <time>2020-10-28T11:01:11.489Z</time>
      </trkpt>
      <trkpt lat="48.04916" lon="6.85928">
        <ele>828</ele>
        <time>2020-10-28T11:01:12.489Z</time>
      </trkpt>
      <trkpt lat="48.04917" lon="6.8593">
        <ele>827</ele>
        <time>2020-10-28T11:01:13.489Z</time>
      </trkpt>
      <trkpt lat="48.04917" lon="6.85931">
        <ele>827</ele>
        <time>2020-10-28T11:01:14.489Z</time>
      </trkpt>
      <trkpt lat="48.04918" lon="6.85932">
        <ele>827</ele>
        <time>2020-10-28T11:01:15.489Z</time>
      </trkpt>
      <trkpt lat="48.04918" lon="6.85933">
        <ele>827</ele>
        <time>2020-10-28T11:01:16.488Z</time>
      </trkpt>
      <trkpt lat="48.04919" lon="6.85934">
        <ele>827</ele>
        <time>2020-10-28T11:01:17.489Z</time>
      </trkpt>
      <trkpt lat="48.04919" lon="6.85934">
        <ele>827</ele>
        <time>2020-10-28T11:01:18.489Z</time>
      </trkpt>
      <trkpt lat="48.0492" lon="6.85934">
        <ele>827</ele>
        <time>2020-10-28T11:01:19.489Z</time>
      </trkpt>
      <trkpt lat="48.04921" lon="6.85933">
        <ele>826</ele>
        <time>2020-10-28T11:01:20.488Z</time>
      </trkpt>
      <trkpt lat="48.0492" lon="6.85933">
        <ele>826</ele>
        <time>2020-10-28T11:01:21.489Z</time>
      </trkpt>
      <trkpt lat="48.0492" lon="6.85933">
        <ele>826</ele>
        <time>2020-10-28T11:01:22.489Z</time>
      </trkpt>
      <trkpt lat="48.0492" lon="6.85933">
        <ele>826</ele>
        <time>2020-10-28T11:01:23.489Z</time>
      </trkpt>
      <trkpt lat="48.04921" lon="6.85933">
        <ele>826</ele>
        <time>2020-10-28T11:01:24.489Z</time>
      </trkpt>
      <trkpt lat="48.0492" lon="6.85934">
        <ele>827</ele>
        <time>2020-10-28T11:01:25.490Z</time>
      </trkpt>
      <trkpt lat="48.0492" lon="6.85934">
        <ele>827</ele>
        <time>2020-10-28T11:01:26.489Z</time>
      </trkpt>
      <trkpt lat="48.0492" lon="6.85935">
        <ele>827</ele>
        <time>2020-10-28T11:01:27.489Z</time>
      </trkpt>
      <trkpt lat="48.04918" lon="6.85935">
        <ele>828</ele>
        <time>2020-10-28T11:01:28.490Z</time>
      </trkpt>
      <trkpt lat="48.04918" lon="6.85935">
        <ele>828</ele>
        <time>2020-10-28T11:01:29.490Z</time>
      </trkpt>
      <trkpt lat="48.0492" lon="6.85935">
        <ele>828</ele>
        <time>2020-10-28T11:01:30.490Z</time>
      </trkpt>
      <trkpt lat="48.04921" lon="6.85933">
        <ele>829</ele>
        <time>2020-10-28T11:01:31.490Z</time>
      </trkpt>
      <trkpt lat="48.04921" lon="6.85933">
        <ele>829</ele>
        <time>2020-10-28T11:01:32.490Z</time>
      </trkpt>
      <trkpt lat="48.04921" lon="6.85933">
        <ele>830</ele>
        <time>2020-10-28T11:01:33.490Z</time>
      </trkpt>
      <trkpt lat="48.04921" lon="6.85933">
        <ele>831</ele>
        <time>2020-10-28T11:01:34.490Z</time>
      </trkpt>
      <trkpt lat="48.0492" lon="6.85933">
        <ele>832</ele>
        <time>2020-10-28T11:01:35.490Z</time>
      </trkpt>
      <trkpt lat="48.04921" lon="6.85931">
        <ele>845</ele>
        <time>2020-10-28T11:01:36.489Z</time>
      </trkpt>
      <trkpt lat="48.04923" lon="6.85931">
        <ele>845</ele>
        <time>2020-10-28T11:01:37.490Z</time>
      </trkpt>
      <trkpt lat="48.04925" lon="6.85932">
        <ele>845</ele>
        <time>2020-10-28T11:01:38.489Z</time>
      </trkpt>
      <trkpt lat="48.04926" lon="6.85933">
        <ele>844</ele>
        <time>2020-10-28T11:01:39.490Z</time>
      </trkpt>
      <trkpt lat="48.04928" lon="6.85934">
        <ele>844</ele>
        <time>2020-10-28T11:01:40.489Z</time>
      </trkpt>
      <trkpt lat="48.04929" lon="6.85934">
        <ele>844</ele>
        <time>2020-10-28T11:01:41.490Z</time>
      </trkpt>
      <trkpt lat="48.0493" lon="6.85936">
        <ele>843</ele>
        <time>2020-10-28T11:01:42.490Z</time>
      </trkpt>
      <trkpt lat="48.04931" lon="6.85938">
        <ele>843</ele>
        <time>2020-10-28T11:01:43.489Z</time>
      </trkpt>
      <trkpt lat="48.04932" lon="6.8594">
        <ele>842</ele>
        <time>2020-10-28T11:01:44.489Z</time>
      </trkpt>
      <trkpt lat="48.04933" lon="6.85943">
        <ele>841</ele>
        <time>2020-10-28T11:01:45.489Z</time>
      </trkpt>
      <trkpt lat="48.04934" lon="6.85945">
        <ele>840</ele>
        <time>2020-10-28T11:01:46.490Z</time>
      </trkpt>
      <trkpt lat="48.04935" lon="6.85948">
        <ele>840</ele>
        <time>2020-10-28T11:01:47.489Z</time>
      </trkpt>
      <trkpt lat="48.04936" lon="6.85951">
        <ele>839</ele>
        <time>2020-10-28T11:01:48.490Z</time>
      </trkpt>
      <trkpt lat="48.04936" lon="6.85953">
        <ele>839</ele>
        <time>2020-10-28T11:01:49.490Z</time>
      </trkpt>
      <trkpt lat="48.04936" lon="6.85955">
        <ele>838</ele>
        <time>2020-10-28T11:01:50.489Z</time>
      </trkpt>
      <trkpt lat="48.04937" lon="6.85956">
        <ele>838</ele>
        <time>2020-10-28T11:01:51.490Z</time>
      </trkpt>
      <trkpt lat="48.04938" lon="6.85958">
        <ele>837</ele>
        <time>2020-10-28T11:01:52.489Z</time>
      </trkpt>
      <trkpt lat="48.04939" lon="6.8596">
        <ele>836</ele>
        <time>2020-10-28T11:01:53.490Z</time>
      </trkpt>
      <trkpt lat="48.04939" lon="6.85962">
        <ele>836</ele>
        <time>2020-10-28T11:01:54.489Z</time>
      </trkpt>
      <trkpt lat="48.04939" lon="6.85963">
        <ele>835</ele>
        <time>2020-10-28T11:01:55.489Z</time>
      </trkpt>
      <trkpt lat="48.04939" lon="6.85965">
        <ele>834</ele>
        <time>2020-10-28T11:01:56.490Z</time>
      </trkpt>
      <trkpt lat="48.04938" lon="6.85968">
        <ele>833</ele>
        <time>2020-10-28T11:01:57.490Z</time>
      </trkpt>
      <trkpt lat="48.04937" lon="6.8597">
        <ele>832</ele>
        <time>2020-10-28T11:01:58.490Z</time>
      </trkpt>
      <trkpt lat="48.04936" lon="6.85972">
        <ele>830</ele>
        <time>2020-10-28T11:01:59.490Z</time>
      </trkpt>
      <trkpt lat="48.04934" lon="6.85974">
        <ele>829</ele>
        <time>2020-10-28T11:02:00.489Z</time>
      </trkpt>
      <trkpt lat="48.04934" lon="6.85977">
        <ele>827</ele>
        <time>2020-10-28T11:02:01.490Z</time>
      </trkpt>
      <trkpt lat="48.04934" lon="6.85979">
        <ele>826</ele>
        <time>2020-10-28T11:02:02.489Z</time>
      </trkpt>
      <trkpt lat="48.04934" lon="6.8598">
        <ele>824</ele>
        <time>2020-10-28T11:02:03.489Z</time>
      </trkpt>
      <trkpt lat="48.04933" lon="6.85982">
        <ele>822</ele>
        <time>2020-10-28T11:02:04.489Z</time>
      </trkpt>
      <trkpt lat="48.04933" lon="6.85984">
        <ele>820</ele>
        <time>2020-10-28T11:02:05.489Z</time>
      </trkpt>
      <trkpt lat="48.04931" lon="6.85986">
        <ele>819</ele>
        <time>2020-10-28T11:02:06.489Z</time>
      </trkpt>
      <trkpt lat="48.0493" lon="6.85988">
        <ele>817</ele>
        <time>2020-10-28T11:02:07.489Z</time>
      </trkpt>
      <trkpt lat="48.04929" lon="6.8599">
        <ele>816</ele>
        <time>2020-10-28T11:02:08.489Z</time>
      </trkpt>
      <trkpt lat="48.04929" lon="6.85992">
        <ele>815</ele>
        <time>2020-10-28T11:02:09.489Z</time>
      </trkpt>
      <trkpt lat="48.04928" lon="6.85994">
        <ele>814</ele>
        <time>2020-10-28T11:02:10.490Z</time>
      </trkpt>
      <trkpt lat="48.04928" lon="6.85996">
        <ele>814</ele>
        <time>2020-10-28T11:02:11.489Z</time>
      </trkpt>
      <trkpt lat="48.04928" lon="6.85998">
        <ele>813</ele>
        <time>2020-10-28T11:02:12.489Z</time>
      </trkpt>
      <trkpt lat="48.04927" lon="6.86001">
        <ele>813</ele>
        <time>2020-10-28T11:02:13.489Z</time>
      </trkpt>
      <trkpt lat="48.04927" lon="6.86004">
        <ele>813</ele>
        <time>2020-10-28T11:02:14.489Z</time>
      </trkpt>
      <trkpt lat="48.04927" lon="6.86006">
        <ele>813</ele>
        <time>2020-10-28T11:02:15.490Z</time>
      </trkpt>
      <trkpt lat="48.04927" lon="6.86009">
        <ele>813</ele>
        <time>2020-10-28T11:02:16.489Z</time>
      </trkpt>
      <trkpt lat="48.04927" lon="6.86011">
        <ele>812</ele>
        <time>2020-10-28T11:02:17.489Z</time>
      </trkpt>
      <trkpt lat="48.04926" lon="6.86014">
        <ele>812</ele>
        <time>2020-10-28T11:02:18.489Z</time>
      </trkpt>
      <trkpt lat="48.04926" lon="6.86017">
        <ele>812</ele>
        <time>2020-10-28T11:02:19.489Z</time>
      </trkpt>
      <trkpt lat="48.04925" lon="6.8602">
        <ele>812</ele>
        <time>2020-10-28T11:02:20.489Z</time>
      </trkpt>
      <trkpt lat="48.04925" lon="6.86023">
        <ele>812</ele>
        <time>2020-10-28T11:02:21.490Z</time>
      </trkpt>
      <trkpt lat="48.04924" lon="6.86025">
        <ele>812</ele>
        <time>2020-10-28T11:02:22.490Z</time>
      </trkpt>
      <trkpt lat="48.04925" lon="6.86028">
        <ele>812</ele>
        <time>2020-10-28T11:02:23.489Z</time>
      </trkpt>
      <trkpt lat="48.04926" lon="6.86031">
        <ele>813</ele>
        <time>2020-10-28T11:02:24.489Z</time>
      </trkpt>
      <trkpt lat="48.04926" lon="6.86032">
        <ele>813</ele>
        <time>2020-10-28T11:02:25.490Z</time>
      </trkpt>
      <trkpt lat="48.04926" lon="6.86034">
        <ele>813</ele>
        <time>2020-10-28T11:02:26.489Z</time>
      </trkpt>
      <trkpt lat="48.04926" lon="6.86036">
        <ele>813</ele>
        <time>2020-10-28T11:02:27.489Z</time>
      </trkpt>
      <trkpt lat="48.04925" lon="6.86039">
        <ele>813</ele>
        <time>2020-10-28T11:02:28.489Z</time>
      </trkpt>
      <trkpt lat="48.04925" lon="6.86041">
        <ele>813</ele>
        <time>2020-10-28T11:02:29.489Z</time>
      </trkpt>
      <trkpt lat="48.04925" lon="6.86043">
        <ele>813</ele>
        <time>2020-10-28T11:02:30.489Z</time>
      </trkpt>
      <trkpt lat="48.04925" lon="6.86045">
        <ele>813</ele>
        <time>2020-10-28T11:02:31.489Z</time>
      </trkpt>
      <trkpt lat="48.04925" lon="6.86047">
        <ele>813</ele>
        <time>2020-10-28T11:02:32.489Z</time>
      </trkpt>
      <trkpt lat="48.04925" lon="6.86049">
        <ele>814</ele>
        <time>2020-10-28T11:02:33.489Z</time>
      </trkpt>
      <trkpt lat="48.04924" lon="6.86051">
        <ele>814</ele>
        <time>2020-10-28T11:02:34.489Z</time>
      </trkpt>
      <trkpt lat="48.04924" lon="6.86053">
        <ele>814</ele>
        <time>2020-10-28T11:02:35.490Z</time>
      </trkpt>
      <trkpt lat="48.04924" lon="6.86055">
        <ele>815</ele>
        <time>2020-10-28T11:02:36.489Z</time>
      </trkpt>
      <trkpt lat="48.04925" lon="6.86057">
        <ele>815</ele>
        <time>2020-10-28T11:02:37.489Z</time>
      </trkpt>
      <trkpt lat="48.04925" lon="6.8606">
        <ele>815</ele>
        <time>2020-10-28T11:02:38.490Z</time>
      </trkpt>
      <trkpt lat="48.04925" lon="6.86062">
        <ele>815</ele>
        <time>2020-10-28T11:02:39.490Z</time>
      </trkpt>
      <trkpt lat="48.04925" lon="6.86065">
        <ele>815</ele>
        <time>2020-10-28T11:02:40.490Z</time>
      </trkpt>
      <trkpt lat="48.04926" lon="6.86067">
        <ele>815</ele>
        <time>2020-10-28T11:02:41.489Z</time>
      </trkpt>
      <trkpt lat="48.04927" lon="6.86069">
        <ele>816</ele>
        <time>2020-10-28T11:02:42.489Z</time>
      </trkpt>
      <trkpt lat="48.04928" lon="6.86072">
        <ele>817</ele>
        <time>2020-10-28T11:02:43.490Z</time>
      </trkpt>
      <trkpt lat="48.04929" lon="6.86075">
        <ele>818</ele>
        <time>2020-10-28T11:02:45.628Z</time>
      </trkpt>
      <trkpt lat="48.04929" lon="6.86077">
        <ele>819</ele>
        <time>2020-10-28T11:02:46.627Z</time>
      </trkpt>
      <trkpt lat="48.04929" lon="6.86078">
        <ele>819</ele>
        <time>2020-10-28T11:02:47.627Z</time>
      </trkpt>
      <trkpt lat="48.04929" lon="6.86078">
        <ele>820</ele>
        <time>2020-10-28T11:02:48.628Z</time>
      </trkpt>
      <trkpt lat="48.0493" lon="6.86079">
        <ele>821</ele>
        <time>2020-10-28T11:02:49.628Z</time>
      </trkpt>
      <trkpt lat="48.04931" lon="6.86081">
        <ele>821</ele>
        <time>2020-10-28T11:02:50.628Z</time>
      </trkpt>
      <trkpt lat="48.04932" lon="6.86082">
        <ele>822</ele>
        <time>2020-10-28T11:02:51.628Z</time>
      </trkpt>
      <trkpt lat="48.04932" lon="6.86083">
        <ele>822</ele>
        <time>2020-10-28T11:02:52.628Z</time>
      </trkpt>
      <trkpt lat="48.04932" lon="6.86084">
        <ele>823</ele>
        <time>2020-10-28T11:02:53.628Z</time>
      </trkpt>
      <trkpt lat="48.04933" lon="6.86085">
        <ele>823</ele>
        <time>2020-10-28T11:02:54.628Z</time>
      </trkpt>
      <trkpt lat="48.04935" lon="6.86086">
        <ele>823</ele>
        <time>2020-10-28T11:02:55.628Z</time>
      </trkpt>
      <trkpt lat="48.04936" lon="6.86087">
        <ele>823</ele>
        <time>2020-10-28T11:02:56.628Z</time>
      </trkpt>
      <trkpt lat="48.04937" lon="6.86089">
        <ele>822</ele>
        <time>2020-10-28T11:02:57.628Z</time>
      </trkpt>
      <trkpt lat="48.04938" lon="6.86091">
        <ele>822</ele>
        <time>2020-10-28T11:02:58.628Z</time>
      </trkpt>
      <trkpt lat="48.04938" lon="6.86093">
        <ele>822</ele>
        <time>2020-10-28T11:02:59.628Z</time>
      </trkpt>
      <trkpt lat="48.04939" lon="6.86095">
        <ele>823</ele>
        <time>2020-10-28T11:03:00.627Z</time>
      </trkpt>
      <trkpt lat="48.04939" lon="6.86097">
        <ele>823</ele>
        <time>2020-10-28T11:03:01.627Z</time>
      </trkpt>
      <trkpt lat="48.0494" lon="6.861">
        <ele>823</ele>
        <time>2020-10-28T11:03:02.628Z</time>
      </trkpt>
      <trkpt lat="48.0494" lon="6.86102">
        <ele>823</ele>
        <time>2020-10-28T11:03:03.628Z</time>
      </trkpt>
      <trkpt lat="48.0494" lon="6.86104">
        <ele>824</ele>
        <time>2020-10-28T11:03:04.628Z</time>
      </trkpt>
      <trkpt lat="48.04941" lon="6.86107">
        <ele>823</ele>
        <time>2020-10-28T11:03:05.627Z</time>
      </trkpt>
      <trkpt lat="48.04941" lon="6.86109">
        <ele>823</ele>
        <time>2020-10-28T11:03:06.627Z</time>
      </trkpt>
      <trkpt lat="48.04941" lon="6.86111">
        <ele>823</ele>
        <time>2020-10-28T11:03:07.628Z</time>
      </trkpt>
      <trkpt lat="48.04941" lon="6.86112">
        <ele>822</ele>
        <time>2020-10-28T11:03:08.628Z</time>
      </trkpt>
      <trkpt lat="48.04941" lon="6.86114">
        <ele>822</ele>
        <time>2020-10-28T11:03:12.760Z</time>
      </trkpt>
      <trkpt lat="48.0494" lon="6.86116">
        <ele>821</ele>
        <time>2020-10-28T11:03:13.760Z</time>
      </trkpt>
      <trkpt lat="48.0494" lon="6.86118">
        <ele>819</ele>
        <time>2020-10-28T11:03:14.760Z</time>
      </trkpt>
      <trkpt lat="48.0494" lon="6.8612">
        <ele>818</ele>
        <time>2020-10-28T11:03:46.881Z</time>
      </trkpt>
      <trkpt lat="48.04939" lon="6.86123">
        <ele>817</ele>
        <time>2020-10-28T11:03:47.881Z</time>
      </trkpt>
      <trkpt lat="48.04938" lon="6.86125">
        <ele>816</ele>
        <time>2020-10-28T11:03:48.881Z</time>
      </trkpt>
      <trkpt lat="48.04936" lon="6.86128">
        <ele>815</ele>
        <time>2020-10-28T11:08:17.885Z</time>
      </trkpt>
      <trkpt lat="48.04936" lon="6.8613">
        <ele>814</ele>
        <time>2020-10-28T11:08:27.746Z</time>
      </trkpt>
      <trkpt lat="48.04935" lon="6.86133">
        <ele>813</ele>
        <time>2020-10-28T11:08:28.747Z</time>
      </trkpt>
      <trkpt lat="48.04935" lon="6.86136">
        <ele>813</ele>
        <time>2020-10-28T11:08:29.747Z</time>
      </trkpt>
      <trkpt lat="48.04934" lon="6.86139">
        <ele>812</ele>
        <time>2020-10-28T11:08:30.747Z</time>
      </trkpt>
      <trkpt lat="48.04933" lon="6.86142">
        <ele>812</ele>
        <time>2020-10-28T11:08:31.746Z</time>
      </trkpt>
      <trkpt lat="48.04932" lon="6.86144">
        <ele>811</ele>
        <time>2020-10-28T11:08:32.747Z</time>
      </trkpt>
      <trkpt lat="48.04932" lon="6.86146">
        <ele>811</ele>
        <time>2020-10-28T11:08:33.747Z</time>
      </trkpt>
      <trkpt lat="48.04931" lon="6.86148">
        <ele>811</ele>
        <time>2020-10-28T11:08:34.746Z</time>
      </trkpt>
      <trkpt lat="48.0493" lon="6.8615">
        <ele>810</ele>
        <time>2020-10-28T11:08:35.747Z</time>
      </trkpt>
      <trkpt lat="48.0493" lon="6.86152">
        <ele>810</ele>
        <time>2020-10-28T11:08:36.746Z</time>
      </trkpt>
      <trkpt lat="48.04929" lon="6.86153">
        <ele>809</ele>
        <time>2020-10-28T11:08:37.747Z</time>
      </trkpt>
      <trkpt lat="48.04929" lon="6.86155">
        <ele>809</ele>
        <time>2020-10-28T11:08:38.747Z</time>
      </trkpt>
      <trkpt lat="48.04928" lon="6.86157">
        <ele>808</ele>
        <time>2020-10-28T11:08:39.747Z</time>
      </trkpt>
      <trkpt lat="48.04928" lon="6.86159">
        <ele>808</ele>
        <time>2020-10-28T11:08:40.747Z</time>
      </trkpt>
      <trkpt lat="48.04928" lon="6.86161">
        <ele>807</ele>
        <time>2020-10-28T11:08:41.747Z</time>
      </trkpt>
      <trkpt lat="48.04928" lon="6.86163">
        <ele>807</ele>
        <time>2020-10-28T11:08:42.746Z</time>
      </trkpt>
      <trkpt lat="48.04928" lon="6.86165">
        <ele>807</ele>
        <time>2020-10-28T11:08:43.746Z</time>
      </trkpt>
      <trkpt lat="48.04928" lon="6.86167">
        <ele>807</ele>
        <time>2020-10-28T11:08:44.746Z</time>
      </trkpt>
      <trkpt lat="48.04928" lon="6.86169">
        <ele>807</ele>
        <time>2020-10-28T11:08:45.746Z</time>
      </trkpt>
      <trkpt lat="48.04928" lon="6.86171">
        <ele>806</ele>
        <time>2020-10-28T11:08:46.747Z</time>
      </trkpt>
      <trkpt lat="48.04927" lon="6.86173">
        <ele>806</ele>
        <time>2020-10-28T11:08:47.747Z</time>
      </trkpt>
      <trkpt lat="48.04928" lon="6.86176">
        <ele>806</ele>
        <time>2020-10-28T11:08:48.746Z</time>
      </trkpt>
      <trkpt lat="48.04928" lon="6.86179">
        <ele>806</ele>
        <time>2020-10-28T11:08:49.747Z</time>
      </trkpt>
      <trkpt lat="48.04928" lon="6.86181">
        <ele>806</ele>
        <time>2020-10-28T11:08:50.747Z</time>
      </trkpt>
      <trkpt lat="48.04928" lon="6.86183">
        <ele>806</ele>
        <time>2020-10-28T11:08:51.747Z</time>
      </trkpt>
      <trkpt lat="48.04927" lon="6.86184">
        <ele>806</ele>
        <time>2020-10-28T11:08:52.746Z</time>
      </trkpt>
      <trkpt lat="48.04926" lon="6.86186">
        <ele>806</ele>
        <time>2020-10-28T11:08:53.746Z</time>
      </trkpt>
      <trkpt lat="48.04926" lon="6.86188">
        <ele>806</ele>
        <time>2020-10-28T11:08:54.747Z</time>
      </trkpt>
      <trkpt lat="48.04925" lon="6.8619">
        <ele>806</ele>
        <time>2020-10-28T11:08:55.747Z</time>
      </trkpt>
      <trkpt lat="48.04924" lon="6.86192">
        <ele>805</ele>
        <time>2020-10-28T11:08:56.747Z</time>
      </trkpt>
      <trkpt lat="48.04924" lon="6.86194">
        <ele>805</ele>
        <time>2020-10-28T11:08:57.747Z</time>
      </trkpt>
      <trkpt lat="48.04924" lon="6.86197">
        <ele>805</ele>
        <time>2020-10-28T11:08:58.747Z</time>
      </trkpt>
      <trkpt lat="48.04924" lon="6.86199">
        <ele>805</ele>
        <time>2020-10-28T11:08:59.747Z</time>
      </trkpt>
      <trkpt lat="48.04924" lon="6.86201">
        <ele>805</ele>
        <time>2020-10-28T11:09:00.747Z</time>
      </trkpt>
      <trkpt lat="48.04923" lon="6.86203">
        <ele>805</ele>
        <time>2020-10-28T11:09:01.746Z</time>
      </trkpt>
      <trkpt lat="48.04923" lon="6.86205">
        <ele>806</ele>
        <time>2020-10-28T11:09:02.746Z</time>
      </trkpt>
      <trkpt lat="48.04923" lon="6.86208">
        <ele>806</ele>
        <time>2020-10-28T11:09:03.746Z</time>
      </trkpt>
      <trkpt lat="48.04922" lon="6.86211">
        <ele>806</ele>
        <time>2020-10-28T11:09:04.747Z</time>
      </trkpt>
      <trkpt lat="48.04921" lon="6.86213">
        <ele>806</ele>
        <time>2020-10-28T11:09:05.747Z</time>
      </trkpt>
      <trkpt lat="48.0492" lon="6.86213">
        <ele>806</ele>
        <time>2020-10-28T11:09:06.746Z</time>
      </trkpt>
      <trkpt lat="48.04919" lon="6.86215">
        <ele>806</ele>
        <time>2020-10-28T11:09:07.747Z</time>
      </trkpt>
      <trkpt lat="48.04918" lon="6.86216">
        <ele>805</ele>
        <time>2020-10-28T11:09:14.906Z</time>
      </trkpt>
      <trkpt lat="48.04917" lon="6.86218">
        <ele>805</ele>
        <time>2020-10-28T11:09:15.905Z</time>
      </trkpt>
      <trkpt lat="48.04916" lon="6.86219">
        <ele>805</ele>
        <time>2020-10-28T11:09:16.906Z</time>
      </trkpt>
      <trkpt lat="48.04915" lon="6.8622">
        <ele>805</ele>
        <time>2020-10-28T11:09:17.906Z</time>
      </trkpt>
      <trkpt lat="48.04914" lon="6.86221">
        <ele>805</ele>
        <time>2020-10-28T11:09:18.906Z</time>
      </trkpt>
      <trkpt lat="48.04913" lon="6.86223">
        <ele>805</ele>
        <time>2020-10-28T11:09:19.905Z</time>
      </trkpt>
      <trkpt lat="48.04912" lon="6.86225">
        <ele>805</ele>
        <time>2020-10-28T11:09:20.906Z</time>
      </trkpt>
      <trkpt lat="48.04911" lon="6.86226">
        <ele>805</ele>
        <time>2020-10-28T11:10:29.017Z</time>
      </trkpt>
      <trkpt lat="48.0491" lon="6.86228">
        <ele>806</ele>
        <time>2020-10-28T11:10:30.017Z</time>
      </trkpt>
      <trkpt lat="48.04909" lon="6.86229">
        <ele>806</ele>
        <time>2020-10-28T11:10:31.016Z</time>
      </trkpt>
      <trkpt lat="48.04908" lon="6.86231">
        <ele>806</ele>
        <time>2020-10-28T11:10:32.017Z</time>
      </trkpt>
      <trkpt lat="48.04907" lon="6.86232">
        <ele>806</ele>
        <time>2020-10-28T11:10:33.017Z</time>
      </trkpt>
      <trkpt lat="48.04907" lon="6.86234">
        <ele>806</ele>
        <time>2020-10-28T11:10:34.017Z</time>
      </trkpt>
      <trkpt lat="48.04907" lon="6.86237">
        <ele>806</ele>
        <time>2020-10-28T11:10:35.017Z</time>
      </trkpt>
      <trkpt lat="48.04906" lon="6.86239">
        <ele>806</ele>
        <time>2020-10-28T11:10:36.017Z</time>
      </trkpt>
      <trkpt lat="48.04907" lon="6.86241">
        <ele>806</ele>
        <time>2020-10-28T11:10:37.016Z</time>
      </trkpt>
      <trkpt lat="48.04907" lon="6.86243">
        <ele>805</ele>
        <time>2020-10-28T11:10:38.017Z</time>
      </trkpt>
      <trkpt lat="48.04907" lon="6.86245">
        <ele>805</ele>
        <time>2020-10-28T11:10:39.017Z</time>
      </trkpt>
      <trkpt lat="48.04906" lon="6.86246">
        <ele>805</ele>
        <time>2020-10-28T11:10:40.017Z</time>
      </trkpt>
      <trkpt lat="48.04906" lon="6.86248">
        <ele>805</ele>
        <time>2020-10-28T11:10:41.017Z</time>
      </trkpt>
      <trkpt lat="48.04906" lon="6.8625">
        <ele>804</ele>
        <time>2020-10-28T11:10:42.017Z</time>
      </trkpt>
      <trkpt lat="48.04906" lon="6.86251">
        <ele>804</ele>
        <time>2020-10-28T11:10:43.017Z</time>
      </trkpt>
      <trkpt lat="48.04906" lon="6.86253">
        <ele>804</ele>
        <time>2020-10-28T11:10:44.017Z</time>
      </trkpt>
      <trkpt lat="48.04907" lon="6.86254">
        <ele>803</ele>
        <time>2020-10-28T11:10:45.017Z</time>
      </trkpt>
      <trkpt lat="48.04908" lon="6.86256">
        <ele>803</ele>
        <time>2020-10-28T11:10:46.017Z</time>
      </trkpt>
      <trkpt lat="48.04908" lon="6.86259">
        <ele>802</ele>
        <time>2020-10-28T11:10:47.017Z</time>
      </trkpt>
      <trkpt lat="48.04908" lon="6.86261">
        <ele>802</ele>
        <time>2020-10-28T11:10:48.017Z</time>
      </trkpt>
      <trkpt lat="48.04909" lon="6.86264">
        <ele>801</ele>
        <time>2020-10-28T11:10:49.016Z</time>
      </trkpt>
      <trkpt lat="48.0491" lon="6.86266">
        <ele>801</ele>
        <time>2020-10-28T11:10:50.017Z</time>
      </trkpt>
      <trkpt lat="48.04909" lon="6.86268">
        <ele>800</ele>
        <time>2020-10-28T11:10:51.017Z</time>
      </trkpt>
      <trkpt lat="48.04909" lon="6.8627">
        <ele>800</ele>
        <time>2020-10-28T11:10:52.016Z</time>
      </trkpt>
      <trkpt lat="48.0491" lon="6.86272">
        <ele>800</ele>
        <time>2020-10-28T11:10:53.017Z</time>
      </trkpt>
      <trkpt lat="48.0491" lon="6.86273">
        <ele>799</ele>
        <time>2020-10-28T11:10:54.017Z</time>
      </trkpt>
      <trkpt lat="48.0491" lon="6.86274">
        <ele>799</ele>
        <time>2020-10-28T11:10:55.017Z</time>
      </trkpt>
      <trkpt lat="48.04911" lon="6.86275">
        <ele>798</ele>
        <time>2020-10-28T11:10:56.016Z</time>
      </trkpt>
      <trkpt lat="48.04911" lon="6.86277">
        <ele>797</ele>
        <time>2020-10-28T11:10:57.017Z</time>
      </trkpt>
      <trkpt lat="48.04912" lon="6.86278">
        <ele>797</ele>
        <time>2020-10-28T11:10:58.016Z</time>
      </trkpt>
      <trkpt lat="48.04912" lon="6.8628">
        <ele>796</ele>
        <time>2020-10-28T11:10:59.016Z</time>
      </trkpt>
      <trkpt lat="48.04912" lon="6.86281">
        <ele>796</ele>
        <time>2020-10-28T11:11:00.017Z</time>
      </trkpt>
      <trkpt lat="48.04913" lon="6.86282">
        <ele>796</ele>
        <time>2020-10-28T11:11:01.016Z</time>
      </trkpt>
      <trkpt lat="48.04913" lon="6.86284">
        <ele>795</ele>
        <time>2020-10-28T11:13:41.173Z</time>
      </trkpt>
      <trkpt lat="48.04913" lon="6.86285">
        <ele>795</ele>
        <time>2020-10-28T11:13:42.174Z</time>
      </trkpt>
      <trkpt lat="48.04913" lon="6.86286">
        <ele>795</ele>
        <time>2020-10-28T11:13:43.174Z</time>
      </trkpt>
      <trkpt lat="48.04913" lon="6.86288">
        <ele>795</ele>
        <time>2020-10-28T11:13:44.174Z</time>
      </trkpt>
      <trkpt lat="48.04913" lon="6.86289">
        <ele>795</ele>
        <time>2020-10-28T11:13:45.174Z</time>
      </trkpt>
      <trkpt lat="48.04912" lon="6.86291">
        <ele>795</ele>
        <time>2020-10-28T11:13:46.174Z</time>
      </trkpt>
      <trkpt lat="48.04911" lon="6.86293">
        <ele>794</ele>
        <time>2020-10-28T11:13:47.174Z</time>
      </trkpt>
      <trkpt lat="48.04911" lon="6.86294">
        <ele>794</ele>
        <time>2020-10-28T11:13:48.174Z</time>
      </trkpt>
      <trkpt lat="48.04911" lon="6.86296">
        <ele>793</ele>
        <time>2020-10-28T11:13:49.174Z</time>
      </trkpt>
      <trkpt lat="48.04911" lon="6.86298">
        <ele>793</ele>
        <time>2020-10-28T11:13:50.174Z</time>
      </trkpt>
      <trkpt lat="48.0491" lon="6.863">
        <ele>793</ele>
        <time>2020-10-28T11:13:51.174Z</time>
      </trkpt>
      <trkpt lat="48.04911" lon="6.86302">
        <ele>793</ele>
        <time>2020-10-28T11:13:52.174Z</time>
      </trkpt>
      <trkpt lat="48.0491" lon="6.86304">
        <ele>792</ele>
        <time>2020-10-28T11:13:53.174Z</time>
      </trkpt>
      <trkpt lat="48.0491" lon="6.86307">
        <ele>792</ele>
        <time>2020-10-28T11:13:54.174Z</time>
      </trkpt>
      <trkpt lat="48.0491" lon="6.86309">
        <ele>792</ele>
        <time>2020-10-28T11:13:55.174Z</time>
      </trkpt>
      <trkpt lat="48.0491" lon="6.86311">
        <ele>793</ele>
        <time>2020-10-28T11:13:56.174Z</time>
      </trkpt>
      <trkpt lat="48.0491" lon="6.86313">
        <ele>793</ele>
        <time>2020-10-28T11:13:57.173Z</time>
      </trkpt>
      <trkpt lat="48.04909" lon="6.86315">
        <ele>793</ele>
        <time>2020-10-28T11:13:58.174Z</time>
      </trkpt>
      <trkpt lat="48.04909" lon="6.86317">
        <ele>794</ele>
        <time>2020-10-28T11:13:59.174Z</time>
      </trkpt>
      <trkpt lat="48.04908" lon="6.8632">
        <ele>794</ele>
        <time>2020-10-28T11:14:00.174Z</time>
      </trkpt>
      <trkpt lat="48.04908" lon="6.86322">
        <ele>795</ele>
        <time>2020-10-28T11:14:01.174Z</time>
      </trkpt>
      <trkpt lat="48.04908" lon="6.86324">
        <ele>796</ele>
        <time>2020-10-28T11:14:02.174Z</time>
      </trkpt>
      <trkpt lat="48.04908" lon="6.86326">
        <ele>796</ele>
        <time>2020-10-28T11:14:03.174Z</time>
      </trkpt>
      <trkpt lat="48.04908" lon="6.86328">
        <ele>797</ele>
        <time>2020-10-28T11:14:04.173Z</time>
      </trkpt>
      <trkpt lat="48.04908" lon="6.86329">
        <ele>798</ele>
        <time>2020-10-28T11:14:05.173Z</time>
      </trkpt>
      <trkpt lat="48.04909" lon="6.86331">
        <ele>799</ele>
        <time>2020-10-28T11:14:06.174Z</time>
      </trkpt>
      <trkpt lat="48.0491" lon="6.86332">
        <ele>799</ele>
        <time>2020-10-28T11:14:07.174Z</time>
      </trkpt>
      <trkpt lat="48.0491" lon="6.86333">
        <ele>800</ele>
        <time>2020-10-28T11:14:08.173Z</time>
      </trkpt>
      <trkpt lat="48.04911" lon="6.86334">
        <ele>801</ele>
        <time>2020-10-28T11:14:09.173Z</time>
      </trkpt>
      <trkpt lat="48.04912" lon="6.86334">
        <ele>802</ele>
        <time>2020-10-28T11:14:10.174Z</time>
      </trkpt>
      <trkpt lat="48.04913" lon="6.86333">
        <ele>803</ele>
        <time>2020-10-28T11:14:11.173Z</time>
      </trkpt>
      <trkpt lat="48.04914" lon="6.86332">
        <ele>803</ele>
        <time>2020-10-28T11:14:12.173Z</time>
      </trkpt>
      <trkpt lat="48.04915" lon="6.86332">
        <ele>804</ele>
        <time>2020-10-28T11:14:13.174Z</time>
      </trkpt>
      <trkpt lat="48.04916" lon="6.86333">
        <ele>804</ele>
        <time>2020-10-28T11:14:14.174Z</time>
      </trkpt>
      <trkpt lat="48.04916" lon="6.86333">
        <ele>805</ele>
        <time>2020-10-28T11:14:15.174Z</time>
      </trkpt>
      <trkpt lat="48.04918" lon="6.86334">
        <ele>805</ele>
        <time>2020-10-28T11:14:16.174Z</time>
      </trkpt>
      <trkpt lat="48.04919" lon="6.86334">
        <ele>805</ele>
        <time>2020-10-28T11:14:17.174Z</time>
      </trkpt>
      <trkpt lat="48.0492" lon="6.86335">
        <ele>806</ele>
        <time>2020-10-28T11:14:18.174Z</time>
      </trkpt>
      <trkpt lat="48.04921" lon="6.86335">
        <ele>806</ele>
        <time>2020-10-28T11:14:19.174Z</time>
      </trkpt>
      <trkpt lat="48.04922" lon="6.86335">
        <ele>806</ele>
        <time>2020-10-28T11:14:20.174Z</time>
      </trkpt>
      <trkpt lat="48.04924" lon="6.86336">
        <ele>807</ele>
        <time>2020-10-28T11:14:21.174Z</time>
      </trkpt>
      <trkpt lat="48.04926" lon="6.86337">
        <ele>807</ele>
        <time>2020-10-28T11:14:22.174Z</time>
      </trkpt>
      <trkpt lat="48.04928" lon="6.86338">
        <ele>807</ele>
        <time>2020-10-28T11:14:23.174Z</time>
      </trkpt>
      <trkpt lat="48.0493" lon="6.86339">
        <ele>807</ele>
        <time>2020-10-28T11:14:24.174Z</time>
      </trkpt>
      <trkpt lat="48.04931" lon="6.86341">
        <ele>808</ele>
        <time>2020-10-28T11:14:25.173Z</time>
      </trkpt>
      <trkpt lat="48.04932" lon="6.86342">
        <ele>809</ele>
        <time>2020-10-28T11:14:26.174Z</time>
      </trkpt>
      <trkpt lat="48.04933" lon="6.86343">
        <ele>810</ele>
        <time>2020-10-28T11:14:27.174Z</time>
      </trkpt>
      <trkpt lat="48.04934" lon="6.86344">
        <ele>810</ele>
        <time>2020-10-28T11:14:28.174Z</time>
      </trkpt>
      <trkpt lat="48.04936" lon="6.86346">
        <ele>811</ele>
        <time>2020-10-28T11:14:29.174Z</time>
      </trkpt>
      <trkpt lat="48.04937" lon="6.86347">
        <ele>812</ele>
        <time>2020-10-28T11:14:30.174Z</time>
      </trkpt>
      <trkpt lat="48.04938" lon="6.86349">
        <ele>812</ele>
        <time>2020-10-28T11:14:31.173Z</time>
      </trkpt>
      <trkpt lat="48.04939" lon="6.86351">
        <ele>812</ele>
        <time>2020-10-28T11:14:32.173Z</time>
      </trkpt>
      <trkpt lat="48.0494" lon="6.86353">
        <ele>812</ele>
        <time>2020-10-28T11:14:33.174Z</time>
      </trkpt>
      <trkpt lat="48.04941" lon="6.86356">
        <ele>813</ele>
        <time>2020-10-28T11:14:34.174Z</time>
      </trkpt>
      <trkpt lat="48.04942" lon="6.86359">
        <ele>813</ele>
        <time>2020-10-28T11:14:35.173Z</time>
      </trkpt>
      <trkpt lat="48.04944" lon="6.86361">
        <ele>813</ele>
        <time>2020-10-28T11:14:36.174Z</time>
      </trkpt>
      <trkpt lat="48.04945" lon="6.86364">
        <ele>813</ele>
        <time>2020-10-28T11:14:37.173Z</time>
      </trkpt>
      <trkpt lat="48.04946" lon="6.86367">
        <ele>812</ele>
        <time>2020-10-28T11:14:38.174Z</time>
      </trkpt>
      <trkpt lat="48.04947" lon="6.8637">
        <ele>812</ele>
        <time>2020-10-28T11:14:39.173Z</time>
      </trkpt>
      <trkpt lat="48.04948" lon="6.86373">
        <ele>812</ele>
        <time>2020-10-28T11:14:40.173Z</time>
      </trkpt>
      <trkpt lat="48.04949" lon="6.86376">
        <ele>813</ele>
        <time>2020-10-28T11:14:41.174Z</time>
      </trkpt>
      <trkpt lat="48.04949" lon="6.86379">
        <ele>813</ele>
        <time>2020-10-28T11:14:42.174Z</time>
      </trkpt>
      <trkpt lat="48.0495" lon="6.86381">
        <ele>813</ele>
        <time>2020-10-28T11:14:43.174Z</time>
      </trkpt>
      <trkpt lat="48.04951" lon="6.86384">
        <ele>813</ele>
        <time>2020-10-28T11:14:44.174Z</time>
      </trkpt>
      <trkpt lat="48.04951" lon="6.86387">
        <ele>813</ele>
        <time>2020-10-28T11:14:45.173Z</time>
      </trkpt>
      <trkpt lat="48.04952" lon="6.86389">
        <ele>812</ele>
        <time>2020-10-28T11:14:46.174Z</time>
      </trkpt>
      <trkpt lat="48.04952" lon="6.86392">
        <ele>812</ele>
        <time>2020-10-28T11:14:47.174Z</time>
      </trkpt>
      <trkpt lat="48.04953" lon="6.86394">
        <ele>811</ele>
        <time>2020-10-28T11:14:48.173Z</time>
      </trkpt>
      <trkpt lat="48.04953" lon="6.86397">
        <ele>811</ele>
        <time>2020-10-28T11:14:49.173Z</time>
      </trkpt>
      <trkpt lat="48.04954" lon="6.86399">
        <ele>810</ele>
        <time>2020-10-28T11:14:50.173Z</time>
      </trkpt>
      <trkpt lat="48.04955" lon="6.86401">
        <ele>809</ele>
        <time>2020-10-28T11:14:51.174Z</time>
      </trkpt>
      <trkpt lat="48.04956" lon="6.86403">
        <ele>808</ele>
        <time>2020-10-28T11:14:52.174Z</time>
      </trkpt>
      <trkpt lat="48.04957" lon="6.86404">
        <ele>807</ele>
        <time>2020-10-28T11:14:53.174Z</time>
      </trkpt>
      <trkpt lat="48.04958" lon="6.86406">
        <ele>807</ele>
        <time>2020-10-28T11:14:54.174Z</time>
      </trkpt>
      <trkpt lat="48.0496" lon="6.86407">
        <ele>807</ele>
        <time>2020-10-28T11:14:55.174Z</time>
      </trkpt>
      <trkpt lat="48.0496" lon="6.86409">
        <ele>806</ele>
        <time>2020-10-28T11:14:56.174Z</time>
      </trkpt>
      <trkpt lat="48.04961" lon="6.8641">
        <ele>806</ele>
        <time>2020-10-28T11:14:57.174Z</time>
      </trkpt>
      <trkpt lat="48.04961" lon="6.86412">
        <ele>806</ele>
        <time>2020-10-28T11:14:58.174Z</time>
      </trkpt>
      <trkpt lat="48.04963" lon="6.86413">
        <ele>805</ele>
        <time>2020-10-28T11:14:59.174Z</time>
      </trkpt>
      <trkpt lat="48.04963" lon="6.86414">
        <ele>805</ele>
        <time>2020-10-28T11:15:00.174Z</time>
      </trkpt>
      <trkpt lat="48.04964" lon="6.86415">
        <ele>805</ele>
        <time>2020-10-28T11:15:01.174Z</time>
      </trkpt>
      <trkpt lat="48.04965" lon="6.86417">
        <ele>805</ele>
        <time>2020-10-28T11:15:02.174Z</time>
      </trkpt>
      <trkpt lat="48.04966" lon="6.86419">
        <ele>805</ele>
        <time>2020-10-28T11:15:03.174Z</time>
      </trkpt>
      <trkpt lat="48.04967" lon="6.86421">
        <ele>805</ele>
        <time>2020-10-28T11:15:04.173Z</time>
      </trkpt>
      <trkpt lat="48.04968" lon="6.86423">
        <ele>805</ele>
        <time>2020-10-28T11:15:05.174Z</time>
      </trkpt>
      <trkpt lat="48.0497" lon="6.86424">
        <ele>805</ele>
        <time>2020-10-28T11:15:06.174Z</time>
      </trkpt>
      <trkpt lat="48.04971" lon="6.86425">
        <ele>805</ele>
        <time>2020-10-28T11:15:07.174Z</time>
      </trkpt>
      <trkpt lat="48.04972" lon="6.86427">
        <ele>805</ele>
        <time>2020-10-28T11:15:08.174Z</time>
      </trkpt>
      <trkpt lat="48.04973" lon="6.86428">
        <ele>805</ele>
        <time>2020-10-28T11:15:09.174Z</time>
      </trkpt>
      <trkpt lat="48.04974" lon="6.8643">
        <ele>805</ele>
        <time>2020-10-28T11:15:10.173Z</time>
      </trkpt>
      <trkpt lat="48.04975" lon="6.86431">
        <ele>805</ele>
        <time>2020-10-28T11:15:11.173Z</time>
      </trkpt>
      <trkpt lat="48.04976" lon="6.86432">
        <ele>805</ele>
        <time>2020-10-28T11:15:12.173Z</time>
      </trkpt>
      <trkpt lat="48.04978" lon="6.86434">
        <ele>805</ele>
        <time>2020-10-28T11:15:13.174Z</time>
      </trkpt>
      <trkpt lat="48.04979" lon="6.86435">
        <ele>805</ele>
        <time>2020-10-28T11:15:14.174Z</time>
      </trkpt>
      <trkpt lat="48.0498" lon="6.86436">
        <ele>805</ele>
        <time>2020-10-28T11:15:15.174Z</time>
      </trkpt>
      <trkpt lat="48.04981" lon="6.86437">
        <ele>805</ele>
        <time>2020-10-28T11:15:16.174Z</time>
      </trkpt>
      <trkpt lat="48.04982" lon="6.86438">
        <ele>806</ele>
        <time>2020-10-28T11:15:17.174Z</time>
      </trkpt>
      <trkpt lat="48.04983" lon="6.86439">
        <ele>806</ele>
        <time>2020-10-28T11:15:18.174Z</time>
      </trkpt>
      <trkpt lat="48.04984" lon="6.86439">
        <ele>807</ele>
        <time>2020-10-28T11:15:19.174Z</time>
      </trkpt>
      <trkpt lat="48.04985" lon="6.8644">
        <ele>807</ele>
        <time>2020-10-28T11:15:20.174Z</time>
      </trkpt>
      <trkpt lat="48.04986" lon="6.86441">
        <ele>807</ele>
        <time>2020-10-28T11:15:21.174Z</time>
      </trkpt>
      <trkpt lat="48.04987" lon="6.86442">
        <ele>807</ele>
        <time>2020-10-28T11:15:22.174Z</time>
      </trkpt>
      <trkpt lat="48.04988" lon="6.86442">
        <ele>807</ele>
        <time>2020-10-28T11:15:23.173Z</time>
      </trkpt>
      <trkpt lat="48.04989" lon="6.86442">
        <ele>807</ele>
        <time>2020-10-28T11:15:24.174Z</time>
      </trkpt>
      <trkpt lat="48.0499" lon="6.86443">
        <ele>807</ele>
        <time>2020-10-28T11:15:25.174Z</time>
      </trkpt>
      <trkpt lat="48.0499" lon="6.86443">
        <ele>808</ele>
        <time>2020-10-28T11:15:26.174Z</time>
      </trkpt>
      <trkpt lat="48.04991" lon="6.86443">
        <ele>808</ele>
        <time>2020-10-28T11:15:27.174Z</time>
      </trkpt>
      <trkpt lat="48.04991" lon="6.86443">
        <ele>808</ele>
        <time>2020-10-28T11:15:28.174Z</time>
      </trkpt>
      <trkpt lat="48.04991" lon="6.86443">
        <ele>807</ele>
        <time>2020-10-28T11:15:29.174Z</time>
      </trkpt>
      <trkpt lat="48.04986" lon="6.86444">
        <ele>805</ele>
        <time>2020-10-28T11:15:30.173Z</time>
      </trkpt>
      <trkpt lat="48.04985" lon="6.86443">
        <ele>805</ele>
        <time>2020-10-28T11:15:31.174Z</time>
      </trkpt>
      <trkpt lat="48.04984" lon="6.86442">
        <ele>805</ele>
        <time>2020-10-28T11:15:32.173Z</time>
      </trkpt>
      <trkpt lat="48.04982" lon="6.8644">
        <ele>805</ele>
        <time>2020-10-28T11:15:33.173Z</time>
      </trkpt>
      <trkpt lat="48.0498" lon="6.8644">
        <ele>805</ele>
        <time>2020-10-28T11:15:34.174Z</time>
      </trkpt>
      <trkpt lat="48.04977" lon="6.86439">
        <ele>805</ele>
        <time>2020-10-28T11:15:35.174Z</time>
      </trkpt>
      <trkpt lat="48.04976" lon="6.86438">
        <ele>805</ele>
        <time>2020-10-28T11:15:36.174Z</time>
      </trkpt>
      <trkpt lat="48.04974" lon="6.86436">
        <ele>805</ele>
        <time>2020-10-28T11:15:37.173Z</time>
      </trkpt>
      <trkpt lat="48.04973" lon="6.86435">
        <ele>806</ele>
        <time>2020-10-28T11:15:38.174Z</time>
      </trkpt>
      <trkpt lat="48.04971" lon="6.86433">
        <ele>806</ele>
        <time>2020-10-28T11:15:39.173Z</time>
      </trkpt>
      <trkpt lat="48.0497" lon="6.86432">
        <ele>806</ele>
        <time>2020-10-28T11:15:40.173Z</time>
      </trkpt>
      <trkpt lat="48.04969" lon="6.8643">
        <ele>806</ele>
        <time>2020-10-28T11:15:41.174Z</time>
      </trkpt>
      <trkpt lat="48.04967" lon="6.86429">
        <ele>806</ele>
        <time>2020-10-28T11:15:42.173Z</time>
      </trkpt>
      <trkpt lat="48.04966" lon="6.86428">
        <ele>806</ele>
        <time>2020-10-28T11:15:43.174Z</time>
      </trkpt>
      <trkpt lat="48.04966" lon="6.86428">
        <ele>806</ele>
        <time>2020-10-28T11:15:44.173Z</time>
      </trkpt>
      <trkpt lat="48.04966" lon="6.86427">
        <ele>806</ele>
        <time>2020-10-28T11:15:45.174Z</time>
      </trkpt>
      <trkpt lat="48.04966" lon="6.86427">
        <ele>806</ele>
        <time>2020-10-28T11:15:46.174Z</time>
      </trkpt>
      <trkpt lat="48.04964" lon="6.86419">
        <ele>801</ele>
        <time>2020-10-28T11:15:47.176Z</time>
      </trkpt>
      <trkpt lat="48.04963" lon="6.86418">
        <ele>801</ele>
        <time>2020-10-28T11:15:48.176Z</time>
      </trkpt>
      <trkpt lat="48.04961" lon="6.86416">
        <ele>801</ele>
        <time>2020-10-28T11:15:49.175Z</time>
      </trkpt>
      <trkpt lat="48.0496" lon="6.86414">
        <ele>802</ele>
        <time>2020-10-28T11:15:50.176Z</time>
      </trkpt>
      <trkpt lat="48.04959" lon="6.86412">
        <ele>802</ele>
        <time>2020-10-28T11:15:51.176Z</time>
      </trkpt>
      <trkpt lat="48.04957" lon="6.86411">
        <ele>802</ele>
        <time>2020-10-28T11:15:52.176Z</time>
      </trkpt>
      <trkpt lat="48.04955" lon="6.86409">
        <ele>802</ele>
        <time>2020-10-28T11:15:53.176Z</time>
      </trkpt>
      <trkpt lat="48.04954" lon="6.86406">
        <ele>801</ele>
        <time>2020-10-28T11:15:54.176Z</time>
      </trkpt>
      <trkpt lat="48.04952" lon="6.86404">
        <ele>802</ele>
        <time>2020-10-28T11:15:55.176Z</time>
      </trkpt>
      <trkpt lat="48.04951" lon="6.86402">
        <ele>803</ele>
        <time>2020-10-28T11:15:56.176Z</time>
      </trkpt>
      <trkpt lat="48.0495" lon="6.86401">
        <ele>803</ele>
        <time>2020-10-28T11:15:57.176Z</time>
      </trkpt>
      <trkpt lat="48.04949" lon="6.86398">
        <ele>803</ele>
        <time>2020-10-28T11:15:58.175Z</time>
      </trkpt>
      <trkpt lat="48.04948" lon="6.86396">
        <ele>804</ele>
        <time>2020-10-28T11:15:59.175Z</time>
      </trkpt>
      <trkpt lat="48.04949" lon="6.86395">
        <ele>804</ele>
        <time>2020-10-28T11:16:00.176Z</time>
      </trkpt>
      <trkpt lat="48.04948" lon="6.86393">
        <ele>804</ele>
        <time>2020-10-28T11:16:01.176Z</time>
      </trkpt>
      <trkpt lat="48.04947" lon="6.8639">
        <ele>804</ele>
        <time>2020-10-28T11:16:02.176Z</time>
      </trkpt>
      <trkpt lat="48.04947" lon="6.86388">
        <ele>804</ele>
        <time>2020-10-28T11:16:03.176Z</time>
      </trkpt>
      <trkpt lat="48.04946" lon="6.86385">
        <ele>804</ele>
        <time>2020-10-28T11:16:04.176Z</time>
      </trkpt>
      <trkpt lat="48.04946" lon="6.86384">
        <ele>804</ele>
        <time>2020-10-28T11:16:05.175Z</time>
      </trkpt>
      <trkpt lat="48.04946" lon="6.86382">
        <ele>803</ele>
        <time>2020-10-28T11:16:06.176Z</time>
      </trkpt>
      <trkpt lat="48.04945" lon="6.86379">
        <ele>803</ele>
        <time>2020-10-28T11:16:07.176Z</time>
      </trkpt>
      <trkpt lat="48.04944" lon="6.86377">
        <ele>803</ele>
        <time>2020-10-28T11:16:08.176Z</time>
      </trkpt>
      <trkpt lat="48.04944" lon="6.86375">
        <ele>803</ele>
        <time>2020-10-28T11:16:09.175Z</time>
      </trkpt>
      <trkpt lat="48.04943" lon="6.86372">
        <ele>803</ele>
        <time>2020-10-28T11:16:10.176Z</time>
      </trkpt>
      <trkpt lat="48.04943" lon="6.8637">
        <ele>803</ele>
        <time>2020-10-28T11:16:11.175Z</time>
      </trkpt>
      <trkpt lat="48.04942" lon="6.86368">
        <ele>803</ele>
        <time>2020-10-28T11:16:12.176Z</time>
      </trkpt>
      <trkpt lat="48.04942" lon="6.86366">
        <ele>803</ele>
        <time>2020-10-28T11:16:13.175Z</time>
      </trkpt>
      <trkpt lat="48.04942" lon="6.86365">
        <ele>804</ele>
        <time>2020-10-28T11:16:14.176Z</time>
      </trkpt>
      <trkpt lat="48.04942" lon="6.86364">
        <ele>804</ele>
        <time>2020-10-28T11:16:15.176Z</time>
      </trkpt>
      <trkpt lat="48.04942" lon="6.86363">
        <ele>805</ele>
        <time>2020-10-28T11:16:16.176Z</time>
      </trkpt>
      <trkpt lat="48.04942" lon="6.86363">
        <ele>805</ele>
        <time>2020-10-28T11:16:17.175Z</time>
      </trkpt>
      <trkpt lat="48.04943" lon="6.86363">
        <ele>805</ele>
        <time>2020-10-28T11:16:18.176Z</time>
      </trkpt>
      <trkpt lat="48.04944" lon="6.86363">
        <ele>805</ele>
        <time>2020-10-28T11:16:19.175Z</time>
      </trkpt>
      <trkpt lat="48.04944" lon="6.86363">
        <ele>805</ele>
        <time>2020-10-28T11:16:20.176Z</time>
      </trkpt>
      <trkpt lat="48.04944" lon="6.86363">
        <ele>805</ele>
        <time>2020-10-28T11:16:21.176Z</time>
      </trkpt>
      <trkpt lat="48.04941" lon="6.86357">
        <ele>808</ele>
        <time>2020-10-28T11:16:22.177Z</time>
      </trkpt>
      <trkpt lat="48.0494" lon="6.86356">
        <ele>808</ele>
        <time>2020-10-28T11:16:23.177Z</time>
      </trkpt>
      <trkpt lat="48.04939" lon="6.86355">
        <ele>808</ele>
        <time>2020-10-28T11:16:24.176Z</time>
      </trkpt>
      <trkpt lat="48.04938" lon="6.86353">
        <ele>808</ele>
        <time>2020-10-28T11:16:25.176Z</time>
      </trkpt>
      <trkpt lat="48.04937" lon="6.86352">
        <ele>808</ele>
        <time>2020-10-28T11:16:26.177Z</time>
      </trkpt>
      <trkpt lat="48.04935" lon="6.86352">
        <ele>808</ele>
        <time>2020-10-28T11:16:27.177Z</time>
      </trkpt>
      <trkpt lat="48.04933" lon="6.86351">
        <ele>808</ele>
        <time>2020-10-28T11:16:28.176Z</time>
      </trkpt>
      <trkpt lat="48.04932" lon="6.8635">
        <ele>808</ele>
        <time>2020-10-28T11:16:29.176Z</time>
      </trkpt>
      <trkpt lat="48.04931" lon="6.8635">
        <ele>808</ele>
        <time>2020-10-28T11:16:30.177Z</time>
      </trkpt>
      <trkpt lat="48.0493" lon="6.86349">
        <ele>807</ele>
        <time>2020-10-28T11:16:31.177Z</time>
      </trkpt>
      <trkpt lat="48.04928" lon="6.86349">
        <ele>807</ele>
        <time>2020-10-28T11:16:32.177Z</time>
      </trkpt>
      <trkpt lat="48.04927" lon="6.86348">
        <ele>807</ele>
        <time>2020-10-28T11:16:33.177Z</time>
      </trkpt>
      <trkpt lat="48.04926" lon="6.86348">
        <ele>807</ele>
        <time>2020-10-28T11:16:34.177Z</time>
      </trkpt>
      <trkpt lat="48.04925" lon="6.86347">
        <ele>807</ele>
        <time>2020-10-28T11:16:35.177Z</time>
      </trkpt>
      <trkpt lat="48.04924" lon="6.86347">
        <ele>807</ele>
        <time>2020-10-28T11:16:36.176Z</time>
      </trkpt>
      <trkpt lat="48.04923" lon="6.86346">
        <ele>808</ele>
        <time>2020-10-28T11:16:37.177Z</time>
      </trkpt>
      <trkpt lat="48.04922" lon="6.86345">
        <ele>808</ele>
        <time>2020-10-28T11:16:38.177Z</time>
      </trkpt>
      <trkpt lat="48.0492" lon="6.86344">
        <ele>808</ele>
        <time>2020-10-28T11:16:39.177Z</time>
      </trkpt>
      <trkpt lat="48.04919" lon="6.86343">
        <ele>808</ele>
        <time>2020-10-28T11:16:40.177Z</time>
      </trkpt>
      <trkpt lat="48.04917" lon="6.86342">
        <ele>808</ele>
        <time>2020-10-28T11:16:41.177Z</time>
      </trkpt>
      <trkpt lat="48.04916" lon="6.86342">
        <ele>808</ele>
        <time>2020-10-28T11:16:42.177Z</time>
      </trkpt>
      <trkpt lat="48.04915" lon="6.86341">
        <ele>808</ele>
        <time>2020-10-28T11:16:43.177Z</time>
      </trkpt>
      <trkpt lat="48.04913" lon="6.8634">
        <ele>808</ele>
        <time>2020-10-28T11:16:44.177Z</time>
      </trkpt>
      <trkpt lat="48.04912" lon="6.86339">
        <ele>808</ele>
        <time>2020-10-28T11:16:45.176Z</time>
      </trkpt>
      <trkpt lat="48.04909" lon="6.86338">
        <ele>808</ele>
        <time>2020-10-28T11:16:46.177Z</time>
      </trkpt>
      <trkpt lat="48.04907" lon="6.86336">
        <ele>809</ele>
        <time>2020-10-28T11:16:47.177Z</time>
      </trkpt>
      <trkpt lat="48.04906" lon="6.86334">
        <ele>809</ele>
        <time>2020-10-28T11:16:48.177Z</time>
      </trkpt>
      <trkpt lat="48.04905" lon="6.86332">
        <ele>809</ele>
        <time>2020-10-28T11:16:49.176Z</time>
      </trkpt>
      <trkpt lat="48.04905" lon="6.8633">
        <ele>810</ele>
        <time>2020-10-28T11:16:50.176Z</time>
      </trkpt>
      <trkpt lat="48.04903" lon="6.86328">
        <ele>810</ele>
        <time>2020-10-28T11:16:51.177Z</time>
      </trkpt>
      <trkpt lat="48.04903" lon="6.86326">
        <ele>811</ele>
        <time>2020-10-28T11:16:52.177Z</time>
      </trkpt>
      <trkpt lat="48.04903" lon="6.86323">
        <ele>812</ele>
        <time>2020-10-28T11:16:53.177Z</time>
      </trkpt>
      <trkpt lat="48.04904" lon="6.86321">
        <ele>812</ele>
        <time>2020-10-28T11:16:54.177Z</time>
      </trkpt>
      <trkpt lat="48.04903" lon="6.86319">
        <ele>813</ele>
        <time>2020-10-28T11:16:55.176Z</time>
      </trkpt>
      <trkpt lat="48.04904" lon="6.86317">
        <ele>814</ele>
        <time>2020-10-28T11:16:56.176Z</time>
      </trkpt>
      <trkpt lat="48.04904" lon="6.86315">
        <ele>815</ele>
        <time>2020-10-28T11:16:57.177Z</time>
      </trkpt>
      <trkpt lat="48.04904" lon="6.86312">
        <ele>815</ele>
        <time>2020-10-28T11:16:58.176Z</time>
      </trkpt>
      <trkpt lat="48.04904" lon="6.8631">
        <ele>815</ele>
        <time>2020-10-28T11:16:59.177Z</time>
      </trkpt>
      <trkpt lat="48.04905" lon="6.86308">
        <ele>815</ele>
        <time>2020-10-28T11:17:00.176Z</time>
      </trkpt>
      <trkpt lat="48.04905" lon="6.86306">
        <ele>815</ele>
        <time>2020-10-28T11:17:01.176Z</time>
      </trkpt>
      <trkpt lat="48.04905" lon="6.86304">
        <ele>815</ele>
        <time>2020-10-28T11:17:02.177Z</time>
      </trkpt>
      <trkpt lat="48.04906" lon="6.86303">
        <ele>814</ele>
        <time>2020-10-28T11:17:03.177Z</time>
      </trkpt>
      <trkpt lat="48.04906" lon="6.86301">
        <ele>814</ele>
        <time>2020-10-28T11:17:04.177Z</time>
      </trkpt>
      <trkpt lat="48.04906" lon="6.86298">
        <ele>814</ele>
        <time>2020-10-28T11:17:05.177Z</time>
      </trkpt>
      <trkpt lat="48.04906" lon="6.86296">
        <ele>813</ele>
        <time>2020-10-28T11:17:06.176Z</time>
      </trkpt>
      <trkpt lat="48.04906" lon="6.86295">
        <ele>813</ele>
        <time>2020-10-28T11:17:07.176Z</time>
      </trkpt>
      <trkpt lat="48.04906" lon="6.86292">
        <ele>812</ele>
        <time>2020-10-28T11:17:08.177Z</time>
      </trkpt>
      <trkpt lat="48.04906" lon="6.8629">
        <ele>811</ele>
        <time>2020-10-28T11:17:09.177Z</time>
      </trkpt>
      <trkpt lat="48.04906" lon="6.86288">
        <ele>811</ele>
        <time>2020-10-28T11:17:10.177Z</time>
      </trkpt>
      <trkpt lat="48.04906" lon="6.86287">
        <ele>810</ele>
        <time>2020-10-28T11:17:11.177Z</time>
      </trkpt>
      <trkpt lat="48.04906" lon="6.86284">
        <ele>810</ele>
        <time>2020-10-28T11:17:12.177Z</time>
      </trkpt>
      <trkpt lat="48.04905" lon="6.86283">
        <ele>810</ele>
        <time>2020-10-28T11:17:13.176Z</time>
      </trkpt>
      <trkpt lat="48.04905" lon="6.86281">
        <ele>809</ele>
        <time>2020-10-28T11:17:14.177Z</time>
      </trkpt>
      <trkpt lat="48.04904" lon="6.8628">
        <ele>809</ele>
        <time>2020-10-28T11:17:15.177Z</time>
      </trkpt>
      <trkpt lat="48.04904" lon="6.86278">
        <ele>808</ele>
        <time>2020-10-28T11:17:16.176Z</time>
      </trkpt>
      <trkpt lat="48.04904" lon="6.86278">
        <ele>808</ele>
        <time>2020-10-28T11:17:17.177Z</time>
      </trkpt>
      <trkpt lat="48.04904" lon="6.86277">
        <ele>808</ele>
        <time>2020-10-28T11:17:18.176Z</time>
      </trkpt>
      <trkpt lat="48.04903" lon="6.86276">
        <ele>807</ele>
        <time>2020-10-28T11:17:19.177Z</time>
      </trkpt>
      <trkpt lat="48.04902" lon="6.86275">
        <ele>807</ele>
        <time>2020-10-28T11:17:20.177Z</time>
      </trkpt>
      <trkpt lat="48.04902" lon="6.86273">
        <ele>807</ele>
        <time>2020-10-28T11:17:21.176Z</time>
      </trkpt>
      <trkpt lat="48.04901" lon="6.86271">
        <ele>806</ele>
        <time>2020-10-28T11:17:22.177Z</time>
      </trkpt>
      <trkpt lat="48.049" lon="6.86269">
        <ele>806</ele>
        <time>2020-10-28T11:17:23.176Z</time>
      </trkpt>
      <trkpt lat="48.04899" lon="6.86268">
        <ele>806</ele>
        <time>2020-10-28T11:17:24.177Z</time>
      </trkpt>
      <trkpt lat="48.04898" lon="6.86266">
        <ele>807</ele>
        <time>2020-10-28T11:17:25.177Z</time>
      </trkpt>
      <trkpt lat="48.04898" lon="6.86263">
        <ele>807</ele>
        <time>2020-10-28T11:17:26.177Z</time>
      </trkpt>
      <trkpt lat="48.04899" lon="6.86261">
        <ele>807</ele>
        <time>2020-10-28T11:17:27.177Z</time>
      </trkpt>
      <trkpt lat="48.04899" lon="6.86258">
        <ele>808</ele>
        <time>2020-10-28T11:17:28.177Z</time>
      </trkpt>
      <trkpt lat="48.04899" lon="6.86256">
        <ele>808</ele>
        <time>2020-10-28T11:17:29.176Z</time>
      </trkpt>
      <trkpt lat="48.049" lon="6.86253">
        <ele>809</ele>
        <time>2020-10-28T11:17:30.177Z</time>
      </trkpt>
      <trkpt lat="48.049" lon="6.86251">
        <ele>810</ele>
        <time>2020-10-28T11:17:31.177Z</time>
      </trkpt>
      <trkpt lat="48.04901" lon="6.86249">
        <ele>810</ele>
        <time>2020-10-28T11:17:32.176Z</time>
      </trkpt>
      <trkpt lat="48.04901" lon="6.86247">
        <ele>810</ele>
        <time>2020-10-28T11:17:33.177Z</time>
      </trkpt>
      <trkpt lat="48.04902" lon="6.86245">
        <ele>811</ele>
        <time>2020-10-28T11:17:34.176Z</time>
      </trkpt>
      <trkpt lat="48.04902" lon="6.86242">
        <ele>811</ele>
        <time>2020-10-28T11:17:35.177Z</time>
      </trkpt>
      <trkpt lat="48.04902" lon="6.8624">
        <ele>811</ele>
        <time>2020-10-28T11:17:36.177Z</time>
      </trkpt>
      <trkpt lat="48.04902" lon="6.86238">
        <ele>812</ele>
        <time>2020-10-28T11:17:37.177Z</time>
      </trkpt>
      <trkpt lat="48.04903" lon="6.86236">
        <ele>812</ele>
        <time>2020-10-28T11:17:38.176Z</time>
      </trkpt>
      <trkpt lat="48.04904" lon="6.86233">
        <ele>813</ele>
        <time>2020-10-28T11:17:39.177Z</time>
      </trkpt>
      <trkpt lat="48.04905" lon="6.86231">
        <ele>813</ele>
        <time>2020-10-28T11:17:40.177Z</time>
      </trkpt>
      <trkpt lat="48.04906" lon="6.86229">
        <ele>813</ele>
        <time>2020-10-28T11:17:41.177Z</time>
      </trkpt>
      <trkpt lat="48.04907" lon="6.86226">
        <ele>813</ele>
        <time>2020-10-28T11:17:42.177Z</time>
      </trkpt>
      <trkpt lat="48.04908" lon="6.86224">
        <ele>814</ele>
        <time>2020-10-28T11:17:43.176Z</time>
      </trkpt>
      <trkpt lat="48.0491" lon="6.86222">
        <ele>814</ele>
        <time>2020-10-28T11:17:44.176Z</time>
      </trkpt>
      <trkpt lat="48.04911" lon="6.8622">
        <ele>814</ele>
        <time>2020-10-28T11:17:45.176Z</time>
      </trkpt>
      <trkpt lat="48.04911" lon="6.86219">
        <ele>814</ele>
        <time>2020-10-28T11:17:46.177Z</time>
      </trkpt>
      <trkpt lat="48.04912" lon="6.86217">
        <ele>813</ele>
        <time>2020-10-28T11:17:47.176Z</time>
      </trkpt>
      <trkpt lat="48.04912" lon="6.86216">
        <ele>813</ele>
        <time>2020-10-28T11:17:48.176Z</time>
      </trkpt>
      <trkpt lat="48.04913" lon="6.86214">
        <ele>813</ele>
        <time>2020-10-28T11:17:49.177Z</time>
      </trkpt>
      <trkpt lat="48.04913" lon="6.86212">
        <ele>812</ele>
        <time>2020-10-28T11:17:50.177Z</time>
      </trkpt>
      <trkpt lat="48.04914" lon="6.86211">
        <ele>813</ele>
        <time>2020-10-28T11:17:51.177Z</time>
      </trkpt>
      <trkpt lat="48.04915" lon="6.86208">
        <ele>813</ele>
        <time>2020-10-28T11:17:52.177Z</time>
      </trkpt>
      <trkpt lat="48.04916" lon="6.86206">
        <ele>813</ele>
        <time>2020-10-28T11:17:53.177Z</time>
      </trkpt>
      <trkpt lat="48.04917" lon="6.86204">
        <ele>813</ele>
        <time>2020-10-28T11:17:54.177Z</time>
      </trkpt>
      <trkpt lat="48.04919" lon="6.86202">
        <ele>813</ele>
        <time>2020-10-28T11:17:55.177Z</time>
      </trkpt>
      <trkpt lat="48.04919" lon="6.86201">
        <ele>813</ele>
        <time>2020-10-28T11:17:56.177Z</time>
      </trkpt>
      <trkpt lat="48.0492" lon="6.86199">
        <ele>813</ele>
        <time>2020-10-28T11:17:57.177Z</time>
      </trkpt>
      <trkpt lat="48.0492" lon="6.86198">
        <ele>814</ele>
        <time>2020-10-28T11:17:58.177Z</time>
      </trkpt>
      <trkpt lat="48.0492" lon="6.86196">
        <ele>814</ele>
        <time>2020-10-28T11:17:59.177Z</time>
      </trkpt>
      <trkpt lat="48.0492" lon="6.86195">
        <ele>814</ele>
        <time>2020-10-28T11:18:00.177Z</time>
      </trkpt>
      <trkpt lat="48.04921" lon="6.86193">
        <ele>814</ele>
        <time>2020-10-28T11:18:01.177Z</time>
      </trkpt>
      <trkpt lat="48.04921" lon="6.86191">
        <ele>814</ele>
        <time>2020-10-28T11:18:02.177Z</time>
      </trkpt>
      <trkpt lat="48.04921" lon="6.8619">
        <ele>814</ele>
        <time>2020-10-28T11:18:03.176Z</time>
      </trkpt>
      <trkpt lat="48.04921" lon="6.86188">
        <ele>815</ele>
        <time>2020-10-28T11:18:04.176Z</time>
      </trkpt>
      <trkpt lat="48.04921" lon="6.86188">
        <ele>815</ele>
        <time>2020-10-28T11:18:05.177Z</time>
      </trkpt>
      <trkpt lat="48.04921" lon="6.86188">
        <ele>815</ele>
        <time>2020-10-28T11:18:06.176Z</time>
      </trkpt>
      <trkpt lat="48.04921" lon="6.86188">
        <ele>814</ele>
        <time>2020-10-28T11:18:07.176Z</time>
      </trkpt>
      <trkpt lat="48.04921" lon="6.8619">
        <ele>814</ele>
        <time>2020-10-28T11:18:08.176Z</time>
      </trkpt>
      <trkpt lat="48.0492" lon="6.86191">
        <ele>814</ele>
        <time>2020-10-28T11:18:09.177Z</time>
      </trkpt>
      <trkpt lat="48.0492" lon="6.86192">
        <ele>814</ele>
        <time>2020-10-28T11:18:10.177Z</time>
      </trkpt>
      <trkpt lat="48.0492" lon="6.86191">
        <ele>814</ele>
        <time>2020-10-28T11:18:11.177Z</time>
      </trkpt>
      <trkpt lat="48.0492" lon="6.8619">
        <ele>813</ele>
        <time>2020-10-28T11:18:12.178Z</time>
      </trkpt>
      <trkpt lat="48.0492" lon="6.86189">
        <ele>812</ele>
        <time>2020-10-28T11:18:13.178Z</time>
      </trkpt>
      <trkpt lat="48.0492" lon="6.86188">
        <ele>812</ele>
        <time>2020-10-28T11:18:14.178Z</time>
      </trkpt>
      <trkpt lat="48.0492" lon="6.86187">
        <ele>812</ele>
        <time>2020-10-28T11:18:15.178Z</time>
      </trkpt>
      <trkpt lat="48.0492" lon="6.86187">
        <ele>811</ele>
        <time>2020-10-28T11:18:16.178Z</time>
      </trkpt>
      <trkpt lat="48.0492" lon="6.86186">
        <ele>811</ele>
        <time>2020-10-28T11:18:17.178Z</time>
      </trkpt>
      <trkpt lat="48.0492" lon="6.86186">
        <ele>811</ele>
        <time>2020-10-28T11:18:18.178Z</time>
      </trkpt>
      <trkpt lat="48.04921" lon="6.86185">
        <ele>811</ele>
        <time>2020-10-28T11:18:19.178Z</time>
      </trkpt>
      <trkpt lat="48.04922" lon="6.86184">
        <ele>811</ele>
        <time>2020-10-28T11:18:20.178Z</time>
      </trkpt>
      <trkpt lat="48.04922" lon="6.86184">
        <ele>810</ele>
        <time>2020-10-28T11:18:21.178Z</time>
      </trkpt>
      <trkpt lat="48.04922" lon="6.86183">
        <ele>810</ele>
        <time>2020-10-28T11:18:22.177Z</time>
      </trkpt>
      <trkpt lat="48.04922" lon="6.86183">
        <ele>810</ele>
        <time>2020-10-28T11:18:23.177Z</time>
      </trkpt>
      <trkpt lat="48.04921" lon="6.86183">
        <ele>810</ele>
        <time>2020-10-28T11:18:24.178Z</time>
      </trkpt>
      <trkpt lat="48.0492" lon="6.86183">
        <ele>811</ele>
        <time>2020-10-28T11:18:25.178Z</time>
      </trkpt>
      <trkpt lat="48.04919" lon="6.86183">
        <ele>811</ele>
        <time>2020-10-28T11:18:26.178Z</time>
      </trkpt>
      <trkpt lat="48.04919" lon="6.86182">
        <ele>812</ele>
        <time>2020-10-28T11:18:27.178Z</time>
      </trkpt>
      <trkpt lat="48.04919" lon="6.86184">
        <ele>814</ele>
        <time>2020-10-28T11:18:28.179Z</time>
      </trkpt>
      <trkpt lat="48.04919" lon="6.86184">
        <ele>815</ele>
        <time>2020-10-28T11:18:29.179Z</time>
      </trkpt>
      <trkpt lat="48.04919" lon="6.86184">
        <ele>814</ele>
        <time>2020-10-28T11:18:30.179Z</time>
      </trkpt>
      <trkpt lat="48.04918" lon="6.86185">
        <ele>815</ele>
        <time>2020-10-28T11:18:31.179Z</time>
      </trkpt>
      <trkpt lat="48.04919" lon="6.86186">
        <ele>815</ele>
        <time>2020-10-28T11:18:32.179Z</time>
      </trkpt>
      <trkpt lat="48.04919" lon="6.86187">
        <ele>815</ele>
        <time>2020-10-28T11:18:33.179Z</time>
      </trkpt>
      <trkpt lat="48.0492" lon="6.86187">
        <ele>815</ele>
        <time>2020-10-28T11:18:34.179Z</time>
      </trkpt>
      <trkpt lat="48.0492" lon="6.86188">
        <ele>815</ele>
        <time>2020-10-28T11:18:35.178Z</time>
      </trkpt>
      <trkpt lat="48.0492" lon="6.86188">
        <ele>815</ele>
        <time>2020-10-28T11:18:36.179Z</time>
      </trkpt>
      <trkpt lat="48.04921" lon="6.86189">
        <ele>815</ele>
        <time>2020-10-28T11:18:37.179Z</time>
      </trkpt>
      <trkpt lat="48.04922" lon="6.8619">
        <ele>816</ele>
        <time>2020-10-28T11:18:38.179Z</time>
      </trkpt>
      <trkpt lat="48.04923" lon="6.86192">
        <ele>816</ele>
        <time>2020-10-28T11:18:39.178Z</time>
      </trkpt>
      <trkpt lat="48.04923" lon="6.86194">
        <ele>815</ele>
        <time>2020-10-28T11:18:40.179Z</time>
      </trkpt>
      <trkpt lat="48.04921" lon="6.86196">
        <ele>815</ele>
        <time>2020-10-28T11:18:41.179Z</time>
      </trkpt>
      <trkpt lat="48.0492" lon="6.86198">
        <ele>814</ele>
        <time>2020-10-28T11:18:42.179Z</time>
      </trkpt>
      <trkpt lat="48.0492" lon="6.86199">
        <ele>814</ele>
        <time>2020-10-28T11:18:43.178Z</time>
      </trkpt>
      <trkpt lat="48.04921" lon="6.86201">
        <ele>813</ele>
        <time>2020-10-28T11:18:44.178Z</time>
      </trkpt>
      <trkpt lat="48.04921" lon="6.86202">
        <ele>812</ele>
        <time>2020-10-28T11:18:45.179Z</time>
      </trkpt>
      <trkpt lat="48.04921" lon="6.86204">
        <ele>811</ele>
        <time>2020-10-28T11:18:46.179Z</time>
      </trkpt>
      <trkpt lat="48.04921" lon="6.86205">
        <ele>811</ele>
        <time>2020-10-28T11:18:47.179Z</time>
      </trkpt>
      <trkpt lat="48.04922" lon="6.86205">
        <ele>810</ele>
        <time>2020-10-28T11:18:48.179Z</time>
      </trkpt>
      <trkpt lat="48.04922" lon="6.86206">
        <ele>809</ele>
        <time>2020-10-28T11:18:49.178Z</time>
      </trkpt>
      <trkpt lat="48.04922" lon="6.86207">
        <ele>809</ele>
        <time>2020-10-28T11:18:50.179Z</time>
      </trkpt>
      <trkpt lat="48.04922" lon="6.86208">
        <ele>808</ele>
        <time>2020-10-28T11:18:51.179Z</time>
      </trkpt>
      <trkpt lat="48.04922" lon="6.86209">
        <ele>807</ele>
        <time>2020-10-28T11:18:52.178Z</time>
      </trkpt>
      <trkpt lat="48.04923" lon="6.8621">
        <ele>806</ele>
        <time>2020-10-28T11:18:53.178Z</time>
      </trkpt>
      <trkpt lat="48.04923" lon="6.8621">
        <ele>806</ele>
        <time>2020-10-28T11:18:54.178Z</time>
      </trkpt>
      <trkpt lat="48.04924" lon="6.86209">
        <ele>805</ele>
        <time>2020-10-28T11:18:55.179Z</time>
      </trkpt>
      <trkpt lat="48.04925" lon="6.86209">
        <ele>805</ele>
        <time>2020-10-28T11:18:56.179Z</time>
      </trkpt>
      <trkpt lat="48.04925" lon="6.86208">
        <ele>804</ele>
        <time>2020-10-28T11:18:57.178Z</time>
      </trkpt>
      <trkpt lat="48.04925" lon="6.86208">
        <ele>804</ele>
        <time>2020-10-28T11:18:58.179Z</time>
      </trkpt>
      <trkpt lat="48.04926" lon="6.86207">
        <ele>804</ele>
        <time>2020-10-28T11:18:59.178Z</time>
      </trkpt>
      <trkpt lat="48.04927" lon="6.86207">
        <ele>804</ele>
        <time>2020-10-28T11:19:00.179Z</time>
      </trkpt>
      <trkpt lat="48.04927" lon="6.86207">
        <ele>804</ele>
        <time>2020-10-28T11:19:01.179Z</time>
      </trkpt>
      <trkpt lat="48.04927" lon="6.86207">
        <ele>804</ele>
        <time>2020-10-28T11:19:02.178Z</time>
      </trkpt>
      <trkpt lat="48.04929" lon="6.86206">
        <ele>803</ele>
        <time>2020-10-28T11:19:03.179Z</time>
      </trkpt>
      <trkpt lat="48.0493" lon="6.86206">
        <ele>803</ele>
        <time>2020-10-28T11:19:04.178Z</time>
      </trkpt>
      <trkpt lat="48.04931" lon="6.86206">
        <ele>803</ele>
        <time>2020-10-28T11:19:05.178Z</time>
      </trkpt>
      <trkpt lat="48.04931" lon="6.86206">
        <ele>803</ele>
        <time>2020-10-28T11:19:06.179Z</time>
      </trkpt>
      <trkpt lat="48.04932" lon="6.86206">
        <ele>803</ele>
        <time>2020-10-28T11:19:07.179Z</time>
      </trkpt>
      <trkpt lat="48.04932" lon="6.86205">
        <ele>803</ele>
        <time>2020-10-28T11:19:08.178Z</time>
      </trkpt>
      <trkpt lat="48.04933" lon="6.86204">
        <ele>803</ele>
        <time>2020-10-28T11:19:09.179Z</time>
      </trkpt>
      <trkpt lat="48.04934" lon="6.86203">
        <ele>803</ele>
        <time>2020-10-28T11:19:10.179Z</time>
      </trkpt>
      <trkpt lat="48.04935" lon="6.86202">
        <ele>802</ele>
        <time>2020-10-28T11:19:11.178Z</time>
      </trkpt>
      <trkpt lat="48.04936" lon="6.86201">
        <ele>802</ele>
        <time>2020-10-28T11:19:12.179Z</time>
      </trkpt>
      <trkpt lat="48.04937" lon="6.862">
        <ele>801</ele>
        <time>2020-10-28T11:19:13.179Z</time>
      </trkpt>
      <trkpt lat="48.04938" lon="6.862">
        <ele>800</ele>
        <time>2020-10-28T11:19:14.179Z</time>
      </trkpt>
      <trkpt lat="48.04939" lon="6.86199">
        <ele>800</ele>
        <time>2020-10-28T11:19:15.178Z</time>
      </trkpt>
      <trkpt lat="48.0494" lon="6.86198">
        <ele>800</ele>
        <time>2020-10-28T11:19:16.178Z</time>
      </trkpt>
      <trkpt lat="48.0494" lon="6.86197">
        <ele>800</ele>
        <time>2020-10-28T11:19:17.179Z</time>
      </trkpt>
      <trkpt lat="48.04941" lon="6.86197">
        <ele>800</ele>
        <time>2020-10-28T11:19:18.179Z</time>
      </trkpt>
      <trkpt lat="48.04942" lon="6.86196">
        <ele>800</ele>
        <time>2020-10-28T11:19:19.179Z</time>
      </trkpt>
      <trkpt lat="48.04943" lon="6.86196">
        <ele>801</ele>
        <time>2020-10-28T11:19:20.178Z</time>
      </trkpt>
      <trkpt lat="48.04944" lon="6.86196">
        <ele>801</ele>
        <time>2020-10-28T11:19:21.179Z</time>
      </trkpt>
      <trkpt lat="48.04944" lon="6.86196">
        <ele>801</ele>
        <time>2020-10-28T11:19:22.178Z</time>
      </trkpt>
      <trkpt lat="48.04944" lon="6.86195">
        <ele>802</ele>
        <time>2020-10-28T11:19:23.179Z</time>
      </trkpt>
      <trkpt lat="48.04947" lon="6.86193">
        <ele>801</ele>
        <time>2020-10-28T11:19:24.180Z</time>
      </trkpt>
      <trkpt lat="48.04947" lon="6.86192">
        <ele>801</ele>
        <time>2020-10-28T11:19:25.179Z</time>
      </trkpt>
      <trkpt lat="48.04947" lon="6.86191">
        <ele>801</ele>
        <time>2020-10-28T11:19:26.179Z</time>
      </trkpt>
      <trkpt lat="48.04948" lon="6.8619">
        <ele>801</ele>
        <time>2020-10-28T11:19:27.180Z</time>
      </trkpt>
      <trkpt lat="48.04949" lon="6.86189">
        <ele>801</ele>
        <time>2020-10-28T11:19:28.179Z</time>
      </trkpt>
      <trkpt lat="48.0495" lon="6.86188">
        <ele>801</ele>
        <time>2020-10-28T11:19:29.179Z</time>
      </trkpt>
      <trkpt lat="48.0495" lon="6.86188">
        <ele>801</ele>
        <time>2020-10-28T11:19:30.179Z</time>
      </trkpt>
      <trkpt lat="48.04951" lon="6.86187">
        <ele>801</ele>
        <time>2020-10-28T11:19:31.179Z</time>
      </trkpt>
      <trkpt lat="48.04951" lon="6.86187">
        <ele>801</ele>
        <time>2020-10-28T11:19:32.179Z</time>
      </trkpt>
      <trkpt lat="48.04952" lon="6.86186">
        <ele>801</ele>
        <time>2020-10-28T11:19:33.179Z</time>
      </trkpt>
      <trkpt lat="48.04953" lon="6.86184">
        <ele>801</ele>
        <time>2020-10-28T11:19:34.180Z</time>
      </trkpt>
      <trkpt lat="48.04954" lon="6.86183">
        <ele>801</ele>
        <time>2020-10-28T11:19:35.179Z</time>
      </trkpt>
      <trkpt lat="48.04954" lon="6.86182">
        <ele>801</ele>
        <time>2020-10-28T11:19:36.180Z</time>
      </trkpt>
      <trkpt lat="48.04955" lon="6.86182">
        <ele>802</ele>
        <time>2020-10-28T11:19:37.180Z</time>
      </trkpt>
      <trkpt lat="48.04956" lon="6.86182">
        <ele>802</ele>
        <time>2020-10-28T11:19:38.180Z</time>
      </trkpt>
      <trkpt lat="48.04957" lon="6.86182">
        <ele>802</ele>
        <time>2020-10-28T11:19:39.179Z</time>
      </trkpt>
      <trkpt lat="48.04958" lon="6.86182">
        <ele>802</ele>
        <time>2020-10-28T11:19:40.180Z</time>
      </trkpt>
      <trkpt lat="48.04958" lon="6.86182">
        <ele>802</ele>
        <time>2020-10-28T11:19:41.180Z</time>
      </trkpt>
      <trkpt lat="48.0496" lon="6.86182">
        <ele>802</ele>
        <time>2020-10-28T11:19:42.180Z</time>
      </trkpt>
      <trkpt lat="48.0496" lon="6.86183">
        <ele>802</ele>
        <time>2020-10-28T11:19:43.180Z</time>
      </trkpt>
      <trkpt lat="48.0496" lon="6.86183">
        <ele>801</ele>
        <time>2020-10-28T11:19:44.179Z</time>
      </trkpt>
      <trkpt lat="48.04961" lon="6.86183">
        <ele>801</ele>
        <time>2020-10-28T11:19:45.179Z</time>
      </trkpt>
      <trkpt lat="48.04962" lon="6.86183">
        <ele>801</ele>
        <time>2020-10-28T11:19:46.180Z</time>
      </trkpt>
      <trkpt lat="48.04962" lon="6.86182">
        <ele>800</ele>
        <time>2020-10-28T11:19:47.180Z</time>
      </trkpt>
      <trkpt lat="48.04964" lon="6.86181">
        <ele>800</ele>
        <time>2020-10-28T11:19:48.179Z</time>
      </trkpt>
      <trkpt lat="48.04964" lon="6.86179">
        <ele>800</ele>
        <time>2020-10-28T11:19:49.180Z</time>
      </trkpt>
      <trkpt lat="48.04964" lon="6.86178">
        <ele>800</ele>
        <time>2020-10-28T11:19:50.179Z</time>
      </trkpt>
      <trkpt lat="48.04965" lon="6.86177">
        <ele>800</ele>
        <time>2020-10-28T11:19:51.180Z</time>
      </trkpt>
      <trkpt lat="48.04967" lon="6.86176">
        <ele>800</ele>
        <time>2020-10-28T11:19:52.179Z</time>
      </trkpt>
      <trkpt lat="48.04967" lon="6.86175">
        <ele>800</ele>
        <time>2020-10-28T11:19:53.179Z</time>
      </trkpt>
      <trkpt lat="48.04969" lon="6.86175">
        <ele>800</ele>
        <time>2020-10-28T11:19:54.180Z</time>
      </trkpt>
      <trkpt lat="48.0497" lon="6.86174">
        <ele>800</ele>
        <time>2020-10-28T11:19:55.180Z</time>
      </trkpt>
      <trkpt lat="48.04971" lon="6.86174">
        <ele>800</ele>
        <time>2020-10-28T11:19:56.180Z</time>
      </trkpt>
      <trkpt lat="48.04972" lon="6.86173">
        <ele>800</ele>
        <time>2020-10-28T11:19:57.180Z</time>
      </trkpt>
      <trkpt lat="48.04973" lon="6.86173">
        <ele>800</ele>
        <time>2020-10-28T11:19:58.180Z</time>
      </trkpt>
      <trkpt lat="48.04974" lon="6.86172">
        <ele>800</ele>
        <time>2020-10-28T11:19:59.179Z</time>
      </trkpt>
      <trkpt lat="48.04975" lon="6.86172">
        <ele>800</ele>
        <time>2020-10-28T11:20:00.180Z</time>
      </trkpt>
      <trkpt lat="48.04975" lon="6.86171">
        <ele>799</ele>
        <time>2020-10-28T11:20:01.180Z</time>
      </trkpt>
      <trkpt lat="48.04975" lon="6.86171">
        <ele>799</ele>
        <time>2020-10-28T11:20:02.180Z</time>
      </trkpt>
      <trkpt lat="48.04975" lon="6.86171">
        <ele>799</ele>
        <time>2020-10-28T11:20:03.179Z</time>
      </trkpt>
      <trkpt lat="48.04976" lon="6.86171">
        <ele>798</ele>
        <time>2020-10-28T11:20:04.180Z</time>
      </trkpt>
      <trkpt lat="48.04977" lon="6.8617">
        <ele>798</ele>
        <time>2020-10-28T11:20:05.179Z</time>
      </trkpt>
      <trkpt lat="48.04978" lon="6.8617">
        <ele>797</ele>
        <time>2020-10-28T11:20:06.180Z</time>
      </trkpt>
      <trkpt lat="48.04978" lon="6.86169">
        <ele>796</ele>
        <time>2020-10-28T11:20:07.179Z</time>
      </trkpt>
      <trkpt lat="48.04978" lon="6.86168">
        <ele>795</ele>
        <time>2020-10-28T11:20:08.180Z</time>
      </trkpt>
      <trkpt lat="48.0498" lon="6.86168">
        <ele>795</ele>
        <time>2020-10-28T11:20:09.180Z</time>
      </trkpt>
      <trkpt lat="48.0498" lon="6.86168">
        <ele>794</ele>
        <time>2020-10-28T11:20:10.180Z</time>
      </trkpt>
      <trkpt lat="48.04981" lon="6.86168">
        <ele>794</ele>
        <time>2020-10-28T11:20:11.179Z</time>
      </trkpt>
      <trkpt lat="48.04982" lon="6.86168">
        <ele>793</ele>
        <time>2020-10-28T11:20:12.180Z</time>
      </trkpt>
      <trkpt lat="48.04983" lon="6.86169">
        <ele>792</ele>
        <time>2020-10-28T11:20:13.180Z</time>
      </trkpt>
      <trkpt lat="48.04983" lon="6.86169">
        <ele>791</ele>
        <time>2020-10-28T11:20:14.180Z</time>
      </trkpt>
      <trkpt lat="48.04985" lon="6.86169">
        <ele>789</ele>
        <time>2020-10-28T11:20:15.180Z</time>
      </trkpt>
      <trkpt lat="48.04986" lon="6.86169">
        <ele>788</ele>
        <time>2020-10-28T11:20:16.180Z</time>
      </trkpt>
      <trkpt lat="48.04987" lon="6.86169">
        <ele>787</ele>
        <time>2020-10-28T11:20:17.179Z</time>
      </trkpt>
      <trkpt lat="48.04987" lon="6.86168">
        <ele>787</ele>
        <time>2020-10-28T11:20:18.180Z</time>
      </trkpt>
      <trkpt lat="48.04987" lon="6.86167">
        <ele>786</ele>
        <time>2020-10-28T11:20:19.180Z</time>
      </trkpt>
      <trkpt lat="48.04987" lon="6.86166">
        <ele>786</ele>
        <time>2020-10-28T11:20:20.180Z</time>
      </trkpt>
      <trkpt lat="48.04987" lon="6.86165">
        <ele>786</ele>
        <time>2020-10-28T11:20:21.180Z</time>
      </trkpt>
      <trkpt lat="48.04988" lon="6.86164">
        <ele>786</ele>
        <time>2020-10-28T11:20:22.179Z</time>
      </trkpt>
      <trkpt lat="48.04989" lon="6.86163">
        <ele>786</ele>
        <time>2020-10-28T11:20:23.179Z</time>
      </trkpt>
      <trkpt lat="48.04989" lon="6.86162">
        <ele>786</ele>
        <time>2020-10-28T11:20:24.180Z</time>
      </trkpt>
      <trkpt lat="48.0499" lon="6.86161">
        <ele>786</ele>
        <time>2020-10-28T11:20:25.180Z</time>
      </trkpt>
      <trkpt lat="48.04991" lon="6.8616">
        <ele>786</ele>
        <time>2020-10-28T11:20:26.180Z</time>
      </trkpt>
      <trkpt lat="48.04992" lon="6.86159">
        <ele>786</ele>
        <time>2020-10-28T11:20:27.180Z</time>
      </trkpt>
      <trkpt lat="48.04993" lon="6.86158">
        <ele>786</ele>
        <time>2020-10-28T11:20:28.180Z</time>
      </trkpt>
      <trkpt lat="48.04994" lon="6.86157">
        <ele>786</ele>
        <time>2020-10-28T11:20:29.180Z</time>
      </trkpt>
      <trkpt lat="48.04994" lon="6.86156">
        <ele>786</ele>
        <time>2020-10-28T11:20:30.179Z</time>
      </trkpt>
      <trkpt lat="48.04994" lon="6.86156">
        <ele>786</ele>
        <time>2020-10-28T11:20:31.179Z</time>
      </trkpt>
      <trkpt lat="48.04994" lon="6.86155">
        <ele>786</ele>
        <time>2020-10-28T11:20:32.180Z</time>
      </trkpt>
      <trkpt lat="48.04995" lon="6.86154">
        <ele>786</ele>
        <time>2020-10-28T11:20:33.179Z</time>
      </trkpt>
      <trkpt lat="48.04996" lon="6.86154">
        <ele>785</ele>
        <time>2020-10-28T11:20:34.180Z</time>
      </trkpt>
      <trkpt lat="48.04996" lon="6.86153">
        <ele>785</ele>
        <time>2020-10-28T11:20:35.180Z</time>
      </trkpt>
      <trkpt lat="48.04997" lon="6.86152">
        <ele>785</ele>
        <time>2020-10-28T11:20:36.180Z</time>
      </trkpt>
      <trkpt lat="48.04998" lon="6.86151">
        <ele>784</ele>
        <time>2020-10-28T11:20:37.180Z</time>
      </trkpt>
      <trkpt lat="48.04999" lon="6.86151">
        <ele>783</ele>
        <time>2020-10-28T11:20:38.180Z</time>
      </trkpt>
      <trkpt lat="48.04999" lon="6.86151">
        <ele>782</ele>
        <time>2020-10-28T11:20:39.180Z</time>
      </trkpt>
      <trkpt lat="48.05" lon="6.8615">
        <ele>781</ele>
        <time>2020-10-28T11:20:40.180Z</time>
      </trkpt>
      <trkpt lat="48.05001" lon="6.86148">
        <ele>781</ele>
        <time>2020-10-28T11:20:41.180Z</time>
      </trkpt>
      <trkpt lat="48.05002" lon="6.86148">
        <ele>780</ele>
        <time>2020-10-28T11:20:42.180Z</time>
      </trkpt>
      <trkpt lat="48.05003" lon="6.86147">
        <ele>780</ele>
        <time>2020-10-28T11:20:43.180Z</time>
      </trkpt>
      <trkpt lat="48.05004" lon="6.86146">
        <ele>780</ele>
        <time>2020-10-28T11:20:44.180Z</time>
      </trkpt>
      <trkpt lat="48.05006" lon="6.86144">
        <ele>780</ele>
        <time>2020-10-28T11:20:45.180Z</time>
      </trkpt>
      <trkpt lat="48.05007" lon="6.86143">
        <ele>780</ele>
        <time>2020-10-28T11:20:46.180Z</time>
      </trkpt>
      <trkpt lat="48.05007" lon="6.86142">
        <ele>780</ele>
        <time>2020-10-28T11:20:47.180Z</time>
      </trkpt>
      <trkpt lat="48.05007" lon="6.86141">
        <ele>780</ele>
        <time>2020-10-28T11:20:48.179Z</time>
      </trkpt>
      <trkpt lat="48.05008" lon="6.86139">
        <ele>781</ele>
        <time>2020-10-28T11:20:49.180Z</time>
      </trkpt>
      <trkpt lat="48.05009" lon="6.86137">
        <ele>781</ele>
        <time>2020-10-28T11:20:50.180Z</time>
      </trkpt>
      <trkpt lat="48.0501" lon="6.86136">
        <ele>782</ele>
        <time>2020-10-28T11:20:51.180Z</time>
      </trkpt>
      <trkpt lat="48.05009" lon="6.86134">
        <ele>782</ele>
        <time>2020-10-28T11:20:52.180Z</time>
      </trkpt>
      <trkpt lat="48.05009" lon="6.86132">
        <ele>783</ele>
        <time>2020-10-28T11:20:53.180Z</time>
      </trkpt>
      <trkpt lat="48.05009" lon="6.86132">
        <ele>784</ele>
        <time>2020-10-28T11:20:54.180Z</time>
      </trkpt>
      <trkpt lat="48.0501" lon="6.86131">
        <ele>784</ele>
        <time>2020-10-28T11:20:55.180Z</time>
      </trkpt>
      <trkpt lat="48.0501" lon="6.86131">
        <ele>784</ele>
        <time>2020-10-28T11:20:56.180Z</time>
      </trkpt>
      <trkpt lat="48.0501" lon="6.8613">
        <ele>784</ele>
        <time>2020-10-28T11:20:57.180Z</time>
      </trkpt>
      <trkpt lat="48.05011" lon="6.86129">
        <ele>784</ele>
        <time>2020-10-28T11:20:58.179Z</time>
      </trkpt>
      <trkpt lat="48.05012" lon="6.86128">
        <ele>784</ele>
        <time>2020-10-28T11:20:59.180Z</time>
      </trkpt>
      <trkpt lat="48.05012" lon="6.86126">
        <ele>784</ele>
        <time>2020-10-28T11:21:00.180Z</time>
      </trkpt>
      <trkpt lat="48.05013" lon="6.86124">
        <ele>785</ele>
        <time>2020-10-28T11:21:01.180Z</time>
      </trkpt>
      <trkpt lat="48.05013" lon="6.86123">
        <ele>785</ele>
        <time>2020-10-28T11:21:02.180Z</time>
      </trkpt>
      <trkpt lat="48.05014" lon="6.86122">
        <ele>785</ele>
        <time>2020-10-28T11:21:03.180Z</time>
      </trkpt>
      <trkpt lat="48.05015" lon="6.8612">
        <ele>785</ele>
        <time>2020-10-28T11:21:04.180Z</time>
      </trkpt>
      <trkpt lat="48.05016" lon="6.86119">
        <ele>785</ele>
        <time>2020-10-28T11:21:05.180Z</time>
      </trkpt>
      <trkpt lat="48.05017" lon="6.86118">
        <ele>785</ele>
        <time>2020-10-28T11:21:06.180Z</time>
      </trkpt>
      <trkpt lat="48.05018" lon="6.86117">
        <ele>786</ele>
        <time>2020-10-28T11:21:07.180Z</time>
      </trkpt>
      <trkpt lat="48.0502" lon="6.86117">
        <ele>786</ele>
        <time>2020-10-28T11:21:08.179Z</time>
      </trkpt>
      <trkpt lat="48.0502" lon="6.86116">
        <ele>786</ele>
        <time>2020-10-28T11:21:09.180Z</time>
      </trkpt>
      <trkpt lat="48.05022" lon="6.86114">
        <ele>786</ele>
        <time>2020-10-28T11:21:10.180Z</time>
      </trkpt>
      <trkpt lat="48.05023" lon="6.86114">
        <ele>786</ele>
        <time>2020-10-28T11:21:11.179Z</time>
      </trkpt>
      <trkpt lat="48.05025" lon="6.86113">
        <ele>786</ele>
        <time>2020-10-28T11:21:12.180Z</time>
      </trkpt>
      <trkpt lat="48.05026" lon="6.86111">
        <ele>786</ele>
        <time>2020-10-28T11:21:13.180Z</time>
      </trkpt>
      <trkpt lat="48.05027" lon="6.8611">
        <ele>786</ele>
        <time>2020-10-28T11:21:14.179Z</time>
      </trkpt>
      <trkpt lat="48.05027" lon="6.86109">
        <ele>785</ele>
        <time>2020-10-28T11:21:15.180Z</time>
      </trkpt>
      <trkpt lat="48.05027" lon="6.86108">
        <ele>785</ele>
        <time>2020-10-28T11:21:16.179Z</time>
      </trkpt>
      <trkpt lat="48.05028" lon="6.86106">
        <ele>785</ele>
        <time>2020-10-28T11:21:17.180Z</time>
      </trkpt>
      <trkpt lat="48.05029" lon="6.86105">
        <ele>784</ele>
        <time>2020-10-28T11:21:18.180Z</time>
      </trkpt>
      <trkpt lat="48.0503" lon="6.86104">
        <ele>784</ele>
        <time>2020-10-28T11:21:19.180Z</time>
      </trkpt>
      <trkpt lat="48.05031" lon="6.86104">
        <ele>784</ele>
        <time>2020-10-28T11:21:20.180Z</time>
      </trkpt>
      <trkpt lat="48.05032" lon="6.86103">
        <ele>783</ele>
        <time>2020-10-28T11:21:21.180Z</time>
      </trkpt>
      <trkpt lat="48.05033" lon="6.86102">
        <ele>783</ele>
        <time>2020-10-28T11:21:22.180Z</time>
      </trkpt>
      <trkpt lat="48.05034" lon="6.861">
        <ele>783</ele>
        <time>2020-10-28T11:21:23.180Z</time>
      </trkpt>
      <trkpt lat="48.05036" lon="6.86099">
        <ele>783</ele>
        <time>2020-10-28T11:21:24.180Z</time>
      </trkpt>
      <trkpt lat="48.05037" lon="6.86099">
        <ele>783</ele>
        <time>2020-10-28T11:21:25.180Z</time>
      </trkpt>
      <trkpt lat="48.05039" lon="6.86099">
        <ele>783</ele>
        <time>2020-10-28T11:21:26.180Z</time>
      </trkpt>
      <trkpt lat="48.05041" lon="6.86097">
        <ele>783</ele>
        <time>2020-10-28T11:21:27.180Z</time>
      </trkpt>
      <trkpt lat="48.05043" lon="6.86095">
        <ele>783</ele>
        <time>2020-10-28T11:21:28.179Z</time>
      </trkpt>
      <trkpt lat="48.05045" lon="6.86093">
        <ele>782</ele>
        <time>2020-10-28T11:21:29.180Z</time>
      </trkpt>
      <trkpt lat="48.05046" lon="6.86092">
        <ele>782</ele>
        <time>2020-10-28T11:21:30.180Z</time>
      </trkpt>
      <trkpt lat="48.05047" lon="6.86091">
        <ele>782</ele>
        <time>2020-10-28T11:21:31.180Z</time>
      </trkpt>
      <trkpt lat="48.05048" lon="6.86089">
        <ele>781</ele>
        <time>2020-10-28T11:21:32.180Z</time>
      </trkpt>
      <trkpt lat="48.05049" lon="6.86088">
        <ele>781</ele>
        <time>2020-10-28T11:21:33.179Z</time>
      </trkpt>
      <trkpt lat="48.05049" lon="6.86088">
        <ele>780</ele>
        <time>2020-10-28T11:21:34.180Z</time>
      </trkpt>
      <trkpt lat="48.05049" lon="6.86087">
        <ele>780</ele>
        <time>2020-10-28T11:21:35.179Z</time>
      </trkpt>
      <trkpt lat="48.0505" lon="6.86086">
        <ele>780</ele>
        <time>2020-10-28T11:21:36.179Z</time>
      </trkpt>
      <trkpt lat="48.05051" lon="6.86085">
        <ele>780</ele>
        <time>2020-10-28T11:21:37.179Z</time>
      </trkpt>
      <trkpt lat="48.05052" lon="6.86084">
        <ele>780</ele>
        <time>2020-10-28T11:21:38.180Z</time>
      </trkpt>
      <trkpt lat="48.05053" lon="6.86082">
        <ele>780</ele>
        <time>2020-10-28T11:21:39.180Z</time>
      </trkpt>
      <trkpt lat="48.05053" lon="6.86081">
        <ele>781</ele>
        <time>2020-10-28T11:21:40.180Z</time>
      </trkpt>
      <trkpt lat="48.05053" lon="6.8608">
        <ele>781</ele>
        <time>2020-10-28T11:21:41.180Z</time>
      </trkpt>
      <trkpt lat="48.05054" lon="6.86079">
        <ele>781</ele>
        <time>2020-10-28T11:21:42.180Z</time>
      </trkpt>
      <trkpt lat="48.05055" lon="6.86078">
        <ele>781</ele>
        <time>2020-10-28T11:21:43.179Z</time>
      </trkpt>
      <trkpt lat="48.05055" lon="6.86077">
        <ele>781</ele>
        <time>2020-10-28T11:21:44.180Z</time>
      </trkpt>
      <trkpt lat="48.05056" lon="6.86075">
        <ele>781</ele>
        <time>2020-10-28T11:21:45.180Z</time>
      </trkpt>
      <trkpt lat="48.05058" lon="6.86072">
        <ele>780</ele>
        <time>2020-10-28T11:21:46.180Z</time>
      </trkpt>
      <trkpt lat="48.05059" lon="6.8607">
        <ele>780</ele>
        <time>2020-10-28T11:21:47.180Z</time>
      </trkpt>
      <trkpt lat="48.05059" lon="6.86067">
        <ele>780</ele>
        <time>2020-10-28T11:21:48.180Z</time>
      </trkpt>
      <trkpt lat="48.0506" lon="6.86065">
        <ele>780</ele>
        <time>2020-10-28T11:21:49.180Z</time>
      </trkpt>
      <trkpt lat="48.05061" lon="6.86063">
        <ele>780</ele>
        <time>2020-10-28T11:21:50.180Z</time>
      </trkpt>
      <trkpt lat="48.05061" lon="6.86061">
        <ele>779</ele>
        <time>2020-10-28T11:21:51.180Z</time>
      </trkpt>
      <trkpt lat="48.05061" lon="6.86059">
        <ele>779</ele>
        <time>2020-10-28T11:21:52.180Z</time>
      </trkpt>
      <trkpt lat="48.0506" lon="6.86058">
        <ele>778</ele>
        <time>2020-10-28T11:21:53.180Z</time>
      </trkpt>
      <trkpt lat="48.05061" lon="6.86056">
        <ele>778</ele>
        <time>2020-10-28T11:21:54.179Z</time>
      </trkpt>
      <trkpt lat="48.05061" lon="6.86054">
        <ele>778</ele>
        <time>2020-10-28T11:21:55.179Z</time>
      </trkpt>
      <trkpt lat="48.05061" lon="6.86054">
        <ele>777</ele>
        <time>2020-10-28T11:21:56.180Z</time>
      </trkpt>
      <trkpt lat="48.05061" lon="6.86053">
        <ele>777</ele>
        <time>2020-10-28T11:21:57.180Z</time>
      </trkpt>
      <trkpt lat="48.05061" lon="6.86051">
        <ele>777</ele>
        <time>2020-10-28T11:21:58.180Z</time>
      </trkpt>
      <trkpt lat="48.05062" lon="6.86048">
        <ele>777</ele>
        <time>2020-10-28T11:21:59.180Z</time>
      </trkpt>
      <trkpt lat="48.05063" lon="6.86046">
        <ele>777</ele>
        <time>2020-10-28T11:22:00.180Z</time>
      </trkpt>
      <trkpt lat="48.05063" lon="6.86044">
        <ele>777</ele>
        <time>2020-10-28T11:22:01.179Z</time>
      </trkpt>
      <trkpt lat="48.05064" lon="6.86042">
        <ele>778</ele>
        <time>2020-10-28T11:22:02.180Z</time>
      </trkpt>
      <trkpt lat="48.05065" lon="6.8604">
        <ele>778</ele>
        <time>2020-10-28T11:22:03.180Z</time>
      </trkpt>
      <trkpt lat="48.05067" lon="6.86038">
        <ele>778</ele>
        <time>2020-10-28T11:22:04.180Z</time>
      </trkpt>
      <trkpt lat="48.05068" lon="6.86037">
        <ele>778</ele>
        <time>2020-10-28T11:22:05.180Z</time>
      </trkpt>
      <trkpt lat="48.05069" lon="6.86036">
        <ele>779</ele>
        <time>2020-10-28T11:22:06.180Z</time>
      </trkpt>
      <trkpt lat="48.05069" lon="6.86035">
        <ele>779</ele>
        <time>2020-10-28T11:22:07.180Z</time>
      </trkpt>
      <trkpt lat="48.0507" lon="6.86035">
        <ele>780</ele>
        <time>2020-10-28T11:22:08.180Z</time>
      </trkpt>
      <trkpt lat="48.05071" lon="6.86034">
        <ele>780</ele>
        <time>2020-10-28T11:22:09.180Z</time>
      </trkpt>
      <trkpt lat="48.05071" lon="6.86034">
        <ele>781</ele>
        <time>2020-10-28T11:22:10.180Z</time>
      </trkpt>
      <trkpt lat="48.05071" lon="6.86033">
        <ele>781</ele>
        <time>2020-10-28T11:22:11.180Z</time>
      </trkpt>
      <trkpt lat="48.05071" lon="6.86032">
        <ele>782</ele>
        <time>2020-10-28T11:22:12.180Z</time>
      </trkpt>
      <trkpt lat="48.05072" lon="6.8603">
        <ele>782</ele>
        <time>2020-10-28T11:22:13.180Z</time>
      </trkpt>
      <trkpt lat="48.05073" lon="6.86029">
        <ele>782</ele>
        <time>2020-10-28T11:22:14.180Z</time>
      </trkpt>
      <trkpt lat="48.05073" lon="6.86028">
        <ele>782</ele>
        <time>2020-10-28T11:22:15.180Z</time>
      </trkpt>
      <trkpt lat="48.05074" lon="6.86027">
        <ele>782</ele>
        <time>2020-10-28T11:22:16.180Z</time>
      </trkpt>
      <trkpt lat="48.05074" lon="6.86026">
        <ele>782</ele>
        <time>2020-10-28T11:22:17.180Z</time>
      </trkpt>
      <trkpt lat="48.05075" lon="6.86026">
        <ele>782</ele>
        <time>2020-10-28T11:22:18.180Z</time>
      </trkpt>
      <trkpt lat="48.05075" lon="6.86024">
        <ele>782</ele>
        <time>2020-10-28T11:22:19.180Z</time>
      </trkpt>
      <trkpt lat="48.05076" lon="6.86023">
        <ele>782</ele>
        <time>2020-10-28T11:22:20.180Z</time>
      </trkpt>
      <trkpt lat="48.05078" lon="6.86022">
        <ele>782</ele>
        <time>2020-10-28T11:22:21.180Z</time>
      </trkpt>
      <trkpt lat="48.0508" lon="6.86022">
        <ele>782</ele>
        <time>2020-10-28T11:22:22.180Z</time>
      </trkpt>
      <trkpt lat="48.05081" lon="6.86022">
        <ele>782</ele>
        <time>2020-10-28T11:22:23.180Z</time>
      </trkpt>
      <trkpt lat="48.05082" lon="6.86022">
        <ele>782</ele>
        <time>2020-10-28T11:22:24.180Z</time>
      </trkpt>
      <trkpt lat="48.05084" lon="6.86021">
        <ele>782</ele>
        <time>2020-10-28T11:22:25.181Z</time>
      </trkpt>
      <trkpt lat="48.05085" lon="6.8602">
        <ele>781</ele>
        <time>2020-10-28T11:22:26.181Z</time>
      </trkpt>
      <trkpt lat="48.05086" lon="6.86018">
        <ele>781</ele>
        <time>2020-10-28T11:22:27.180Z</time>
      </trkpt>
      <trkpt lat="48.05086" lon="6.86017">
        <ele>781</ele>
        <time>2020-10-28T11:22:28.181Z</time>
      </trkpt>
      <trkpt lat="48.05086" lon="6.86016">
        <ele>781</ele>
        <time>2020-10-28T11:22:29.181Z</time>
      </trkpt>
      <trkpt lat="48.05087" lon="6.86015">
        <ele>781</ele>
        <time>2020-10-28T11:22:30.180Z</time>
      </trkpt>
      <trkpt lat="48.05088" lon="6.86014">
        <ele>781</ele>
        <time>2020-10-28T11:22:31.181Z</time>
      </trkpt>
      <trkpt lat="48.05089" lon="6.86013">
        <ele>781</ele>
        <time>2020-10-28T11:22:32.180Z</time>
      </trkpt>
      <trkpt lat="48.0509" lon="6.86011">
        <ele>781</ele>
        <time>2020-10-28T11:22:33.181Z</time>
      </trkpt>
      <trkpt lat="48.05091" lon="6.86009">
        <ele>781</ele>
        <time>2020-10-28T11:22:34.181Z</time>
      </trkpt>
      <trkpt lat="48.05092" lon="6.86007">
        <ele>781</ele>
        <time>2020-10-28T11:22:35.180Z</time>
      </trkpt>
      <trkpt lat="48.05093" lon="6.86006">
        <ele>781</ele>
        <time>2020-10-28T11:22:36.181Z</time>
      </trkpt>
      <trkpt lat="48.05094" lon="6.86005">
        <ele>781</ele>
        <time>2020-10-28T11:22:37.180Z</time>
      </trkpt>
      <trkpt lat="48.05094" lon="6.86004">
        <ele>782</ele>
        <time>2020-10-28T11:22:38.181Z</time>
      </trkpt>
      <trkpt lat="48.05095" lon="6.86003">
        <ele>782</ele>
        <time>2020-10-28T11:22:39.181Z</time>
      </trkpt>
      <trkpt lat="48.05096" lon="6.86003">
        <ele>782</ele>
        <time>2020-10-28T11:22:40.181Z</time>
      </trkpt>
      <trkpt lat="48.05097" lon="6.86002">
        <ele>782</ele>
        <time>2020-10-28T11:22:41.181Z</time>
      </trkpt>
      <trkpt lat="48.05098" lon="6.86001">
        <ele>782</ele>
        <time>2020-10-28T11:22:42.180Z</time>
      </trkpt>
      <trkpt lat="48.05099" lon="6.86001">
        <ele>782</ele>
        <time>2020-10-28T11:22:43.181Z</time>
      </trkpt>
      <trkpt lat="48.051" lon="6.86001">
        <ele>782</ele>
        <time>2020-10-28T11:22:44.181Z</time>
      </trkpt>
      <trkpt lat="48.05101" lon="6.86">
        <ele>782</ele>
        <time>2020-10-28T11:22:45.180Z</time>
      </trkpt>
      <trkpt lat="48.05102" lon="6.86">
        <ele>782</ele>
        <time>2020-10-28T11:22:46.180Z</time>
      </trkpt>
      <trkpt lat="48.05104" lon="6.85999">
        <ele>782</ele>
        <time>2020-10-28T11:22:47.180Z</time>
      </trkpt>
      <trkpt lat="48.05105" lon="6.85999">
        <ele>781</ele>
        <time>2020-10-28T11:22:48.181Z</time>
      </trkpt>
      <trkpt lat="48.05106" lon="6.86">
        <ele>781</ele>
        <time>2020-10-28T11:22:49.180Z</time>
      </trkpt>
      <trkpt lat="48.05106" lon="6.86">
        <ele>781</ele>
        <time>2020-10-28T11:22:50.181Z</time>
      </trkpt>
      <trkpt lat="48.05107" lon="6.86001">
        <ele>781</ele>
        <time>2020-10-28T11:22:51.180Z</time>
      </trkpt>
      <trkpt lat="48.05108" lon="6.86001">
        <ele>780</ele>
        <time>2020-10-28T11:22:52.180Z</time>
      </trkpt>
      <trkpt lat="48.0511" lon="6.86001">
        <ele>780</ele>
        <time>2020-10-28T11:22:53.181Z</time>
      </trkpt>
      <trkpt lat="48.05112" lon="6.86001">
        <ele>780</ele>
        <time>2020-10-28T11:22:54.181Z</time>
      </trkpt>
      <trkpt lat="48.05114" lon="6.86002">
        <ele>779</ele>
        <time>2020-10-28T11:22:55.180Z</time>
      </trkpt>
      <trkpt lat="48.05115" lon="6.86002">
        <ele>779</ele>
        <time>2020-10-28T11:22:56.181Z</time>
      </trkpt>
      <trkpt lat="48.05116" lon="6.86002">
        <ele>778</ele>
        <time>2020-10-28T11:22:57.181Z</time>
      </trkpt>
      <trkpt lat="48.05117" lon="6.86003">
        <ele>778</ele>
        <time>2020-10-28T11:22:58.180Z</time>
      </trkpt>
      <trkpt lat="48.05118" lon="6.86003">
        <ele>777</ele>
        <time>2020-10-28T11:22:59.180Z</time>
      </trkpt>
      <trkpt lat="48.05119" lon="6.86003">
        <ele>777</ele>
        <time>2020-10-28T11:23:00.180Z</time>
      </trkpt>
      <trkpt lat="48.05119" lon="6.86003">
        <ele>777</ele>
        <time>2020-10-28T11:23:01.180Z</time>
      </trkpt>
      <trkpt lat="48.0512" lon="6.86003">
        <ele>777</ele>
        <time>2020-10-28T11:23:02.181Z</time>
      </trkpt>
      <trkpt lat="48.05121" lon="6.86003">
        <ele>777</ele>
        <time>2020-10-28T11:23:03.181Z</time>
      </trkpt>
      <trkpt lat="48.05121" lon="6.86004">
        <ele>777</ele>
        <time>2020-10-28T11:23:04.181Z</time>
      </trkpt>
      <trkpt lat="48.05122" lon="6.86004">
        <ele>777</ele>
        <time>2020-10-28T11:23:05.181Z</time>
      </trkpt>
      <trkpt lat="48.05122" lon="6.86004">
        <ele>776</ele>
        <time>2020-10-28T11:23:06.181Z</time>
      </trkpt>
      <trkpt lat="48.05122" lon="6.86003">
        <ele>776</ele>
        <time>2020-10-28T11:23:07.181Z</time>
      </trkpt>
      <trkpt lat="48.05122" lon="6.86002">
        <ele>775</ele>
        <time>2020-10-28T11:23:08.180Z</time>
      </trkpt>
      <trkpt lat="48.05122" lon="6.86002">
        <ele>774</ele>
        <time>2020-10-28T11:23:09.180Z</time>
      </trkpt>
      <trkpt lat="48.05123" lon="6.86">
        <ele>774</ele>
        <time>2020-10-28T11:23:10.181Z</time>
      </trkpt>
      <trkpt lat="48.05126" lon="6.85997">
        <ele>771</ele>
        <time>2020-10-28T11:23:11.182Z</time>
      </trkpt>
      <trkpt lat="48.05126" lon="6.85996">
        <ele>770</ele>
        <time>2020-10-28T11:23:12.182Z</time>
      </trkpt>
      <trkpt lat="48.05127" lon="6.85995">
        <ele>770</ele>
        <time>2020-10-28T11:23:13.181Z</time>
      </trkpt>
      <trkpt lat="48.05128" lon="6.85994">
        <ele>770</ele>
        <time>2020-10-28T11:23:14.182Z</time>
      </trkpt>
      <trkpt lat="48.05129" lon="6.85994">
        <ele>769</ele>
        <time>2020-10-28T11:23:15.182Z</time>
      </trkpt>
      <trkpt lat="48.05131" lon="6.85993">
        <ele>769</ele>
        <time>2020-10-28T11:23:16.182Z</time>
      </trkpt>
      <trkpt lat="48.05132" lon="6.85994">
        <ele>769</ele>
        <time>2020-10-28T11:23:17.182Z</time>
      </trkpt>
      <trkpt lat="48.05133" lon="6.85994">
        <ele>768</ele>
        <time>2020-10-28T11:23:18.181Z</time>
      </trkpt>
      <trkpt lat="48.05133" lon="6.85994">
        <ele>768</ele>
        <time>2020-10-28T11:23:19.182Z</time>
      </trkpt>
      <trkpt lat="48.05134" lon="6.85994">
        <ele>768</ele>
        <time>2020-10-28T11:23:20.182Z</time>
      </trkpt>
      <trkpt lat="48.05134" lon="6.85995">
        <ele>768</ele>
        <time>2020-10-28T11:23:21.182Z</time>
      </trkpt>
      <trkpt lat="48.05135" lon="6.85995">
        <ele>768</ele>
        <time>2020-10-28T11:23:22.182Z</time>
      </trkpt>
      <trkpt lat="48.05136" lon="6.85995">
        <ele>768</ele>
        <time>2020-10-28T11:23:23.181Z</time>
      </trkpt>
      <trkpt lat="48.05137" lon="6.85996">
        <ele>768</ele>
        <time>2020-10-28T11:23:24.182Z</time>
      </trkpt>
      <trkpt lat="48.05138" lon="6.85995">
        <ele>767</ele>
        <time>2020-10-28T11:23:25.182Z</time>
      </trkpt>
      <trkpt lat="48.05139" lon="6.85995">
        <ele>767</ele>
        <time>2020-10-28T11:23:26.181Z</time>
      </trkpt>
      <trkpt lat="48.05141" lon="6.85995">
        <ele>767</ele>
        <time>2020-10-28T11:23:27.182Z</time>
      </trkpt>
      <trkpt lat="48.05141" lon="6.85995">
        <ele>766</ele>
        <time>2020-10-28T11:23:28.182Z</time>
      </trkpt>
      <trkpt lat="48.05142" lon="6.85994">
        <ele>765</ele>
        <time>2020-10-28T11:23:29.182Z</time>
      </trkpt>
      <trkpt lat="48.05144" lon="6.85993">
        <ele>765</ele>
        <time>2020-10-28T11:23:30.182Z</time>
      </trkpt>
      <trkpt lat="48.05145" lon="6.85992">
        <ele>764</ele>
        <time>2020-10-28T11:23:31.182Z</time>
      </trkpt>
      <trkpt lat="48.05147" lon="6.85991">
        <ele>764</ele>
        <time>2020-10-28T11:23:32.182Z</time>
      </trkpt>
      <trkpt lat="48.05147" lon="6.85991">
        <ele>764</ele>
        <time>2020-10-28T11:23:33.182Z</time>
      </trkpt>
      <trkpt lat="48.05148" lon="6.85989">
        <ele>763</ele>
        <time>2020-10-28T11:23:34.181Z</time>
      </trkpt>
      <trkpt lat="48.05148" lon="6.85988">
        <ele>763</ele>
        <time>2020-10-28T11:23:35.181Z</time>
      </trkpt>
      <trkpt lat="48.05149" lon="6.85988">
        <ele>763</ele>
        <time>2020-10-28T11:23:36.181Z</time>
      </trkpt>
      <trkpt lat="48.0515" lon="6.85987">
        <ele>762</ele>
        <time>2020-10-28T11:23:37.182Z</time>
      </trkpt>
      <trkpt lat="48.05151" lon="6.85987">
        <ele>762</ele>
        <time>2020-10-28T11:23:38.182Z</time>
      </trkpt>
      <trkpt lat="48.05153" lon="6.85987">
        <ele>762</ele>
        <time>2020-10-28T11:23:39.182Z</time>
      </trkpt>
      <trkpt lat="48.05154" lon="6.85987">
        <ele>762</ele>
        <time>2020-10-28T11:23:40.182Z</time>
      </trkpt>
      <trkpt lat="48.05156" lon="6.85987">
        <ele>761</ele>
        <time>2020-10-28T11:23:41.182Z</time>
      </trkpt>
      <trkpt lat="48.05157" lon="6.85986">
        <ele>761</ele>
        <time>2020-10-28T11:23:42.182Z</time>
      </trkpt>
      <trkpt lat="48.05158" lon="6.85986">
        <ele>761</ele>
        <time>2020-10-28T11:23:43.182Z</time>
      </trkpt>
      <trkpt lat="48.05159" lon="6.85985">
        <ele>761</ele>
        <time>2020-10-28T11:23:44.182Z</time>
      </trkpt>
      <trkpt lat="48.05159" lon="6.85984">
        <ele>761</ele>
        <time>2020-10-28T11:23:45.181Z</time>
      </trkpt>
      <trkpt lat="48.0516" lon="6.85984">
        <ele>760</ele>
        <time>2020-10-28T11:23:46.182Z</time>
      </trkpt>
      <trkpt lat="48.05161" lon="6.85984">
        <ele>760</ele>
        <time>2020-10-28T11:23:47.182Z</time>
      </trkpt>
      <trkpt lat="48.05162" lon="6.85984">
        <ele>760</ele>
        <time>2020-10-28T11:23:48.182Z</time>
      </trkpt>
      <trkpt lat="48.05163" lon="6.85983">
        <ele>759</ele>
        <time>2020-10-28T11:23:49.182Z</time>
      </trkpt>
      <trkpt lat="48.05164" lon="6.85983">
        <ele>759</ele>
        <time>2020-10-28T11:23:50.182Z</time>
      </trkpt>
      <trkpt lat="48.05165" lon="6.85982">
        <ele>759</ele>
        <time>2020-10-28T11:23:51.181Z</time>
      </trkpt>
      <trkpt lat="48.05165" lon="6.85982">
        <ele>759</ele>
        <time>2020-10-28T11:23:52.181Z</time>
      </trkpt>
      <trkpt lat="48.05166" lon="6.85982">
        <ele>758</ele>
        <time>2020-10-28T11:23:53.182Z</time>
      </trkpt>
      <trkpt lat="48.05166" lon="6.85981">
        <ele>758</ele>
        <time>2020-10-28T11:23:54.182Z</time>
      </trkpt>
      <trkpt lat="48.05166" lon="6.8598">
        <ele>758</ele>
        <time>2020-10-28T11:23:55.182Z</time>
      </trkpt>
      <trkpt lat="48.05166" lon="6.85979">
        <ele>757</ele>
        <time>2020-10-28T11:23:56.181Z</time>
      </trkpt>
      <trkpt lat="48.05167" lon="6.85979">
        <ele>757</ele>
        <time>2020-10-28T11:23:57.182Z</time>
      </trkpt>
      <trkpt lat="48.05167" lon="6.85979">
        <ele>757</ele>
        <time>2020-10-28T11:23:58.182Z</time>
      </trkpt>
      <trkpt lat="48.05167" lon="6.85979">
        <ele>756</ele>
        <time>2020-10-28T11:23:59.182Z</time>
      </trkpt>
      <trkpt lat="48.05167" lon="6.8598">
        <ele>756</ele>
        <time>2020-10-28T11:24:00.182Z</time>
      </trkpt>
      <trkpt lat="48.05167" lon="6.85979">
        <ele>756</ele>
        <time>2020-10-28T11:24:01.181Z</time>
      </trkpt>
      <trkpt lat="48.05167" lon="6.85977">
        <ele>755</ele>
        <time>2020-10-28T11:24:02.182Z</time>
      </trkpt>
      <trkpt lat="48.05167" lon="6.85976">
        <ele>755</ele>
        <time>2020-10-28T11:24:03.181Z</time>
      </trkpt>
      <trkpt lat="48.05167" lon="6.85975">
        <ele>754</ele>
        <time>2020-10-28T11:24:04.181Z</time>
      </trkpt>
      <trkpt lat="48.05168" lon="6.85975">
        <ele>754</ele>
        <time>2020-10-28T11:24:05.182Z</time>
      </trkpt>
      <trkpt lat="48.05169" lon="6.85976">
        <ele>754</ele>
        <time>2020-10-28T11:24:06.182Z</time>
      </trkpt>
      <trkpt lat="48.0517" lon="6.85977">
        <ele>755</ele>
        <time>2020-10-28T11:24:07.182Z</time>
      </trkpt>
      <trkpt lat="48.0517" lon="6.85978">
        <ele>755</ele>
        <time>2020-10-28T11:24:08.182Z</time>
      </trkpt>
      <trkpt lat="48.0517" lon="6.85979">
        <ele>755</ele>
        <time>2020-10-28T11:24:09.181Z</time>
      </trkpt>
      <trkpt lat="48.05171" lon="6.8598">
        <ele>756</ele>
        <time>2020-10-28T11:24:10.182Z</time>
      </trkpt>
      <trkpt lat="48.05171" lon="6.85981">
        <ele>756</ele>
        <time>2020-10-28T11:24:11.182Z</time>
      </trkpt>
      <trkpt lat="48.05171" lon="6.85982">
        <ele>757</ele>
        <time>2020-10-28T11:24:12.181Z</time>
      </trkpt>
      <trkpt lat="48.05171" lon="6.85984">
        <ele>757</ele>
        <time>2020-10-28T11:24:13.181Z</time>
      </trkpt>
      <trkpt lat="48.05171" lon="6.85986">
        <ele>757</ele>
        <time>2020-10-28T11:24:14.182Z</time>
      </trkpt>
      <trkpt lat="48.05171" lon="6.85988">
        <ele>757</ele>
        <time>2020-10-28T11:24:15.182Z</time>
      </trkpt>
      <trkpt lat="48.05172" lon="6.8599">
        <ele>756</ele>
        <time>2020-10-28T11:24:16.182Z</time>
      </trkpt>
      <trkpt lat="48.05172" lon="6.85992">
        <ele>756</ele>
        <time>2020-10-28T11:24:17.182Z</time>
      </trkpt>
      <trkpt lat="48.05172" lon="6.85994">
        <ele>756</ele>
        <time>2020-10-28T11:24:18.182Z</time>
      </trkpt>
      <trkpt lat="48.05172" lon="6.85997">
        <ele>756</ele>
        <time>2020-10-28T11:24:19.181Z</time>
      </trkpt>
      <trkpt lat="48.05172" lon="6.85999">
        <ele>756</ele>
        <time>2020-10-28T11:24:20.182Z</time>
      </trkpt>
      <trkpt lat="48.05171" lon="6.86001">
        <ele>755</ele>
        <time>2020-10-28T11:24:21.182Z</time>
      </trkpt>
      <trkpt lat="48.05171" lon="6.86004">
        <ele>755</ele>
        <time>2020-10-28T11:24:22.181Z</time>
      </trkpt>
      <trkpt lat="48.0517" lon="6.86006">
        <ele>754</ele>
        <time>2020-10-28T11:24:23.181Z</time>
      </trkpt>
      <trkpt lat="48.0517" lon="6.86009">
        <ele>754</ele>
        <time>2020-10-28T11:24:24.181Z</time>
      </trkpt>
      <trkpt lat="48.05169" lon="6.86012">
        <ele>753</ele>
        <time>2020-10-28T11:24:25.181Z</time>
      </trkpt>
      <trkpt lat="48.05169" lon="6.86014">
        <ele>753</ele>
        <time>2020-10-28T11:24:26.181Z</time>
      </trkpt>
      <trkpt lat="48.05169" lon="6.86017">
        <ele>753</ele>
        <time>2020-10-28T11:24:27.182Z</time>
      </trkpt>
      <trkpt lat="48.05168" lon="6.8602">
        <ele>752</ele>
        <time>2020-10-28T11:24:28.182Z</time>
      </trkpt>
      <trkpt lat="48.05168" lon="6.86023">
        <ele>752</ele>
        <time>2020-10-28T11:24:29.182Z</time>
      </trkpt>
      <trkpt lat="48.05168" lon="6.86025">
        <ele>752</ele>
        <time>2020-10-28T11:24:30.182Z</time>
      </trkpt>
      <trkpt lat="48.05169" lon="6.86028">
        <ele>752</ele>
        <time>2020-10-28T11:24:31.182Z</time>
      </trkpt>
      <trkpt lat="48.05168" lon="6.86031">
        <ele>752</ele>
        <time>2020-10-28T11:24:32.182Z</time>
      </trkpt>
      <trkpt lat="48.05168" lon="6.86035">
        <ele>752</ele>
        <time>2020-10-28T11:24:33.182Z</time>
      </trkpt>
      <trkpt lat="48.05168" lon="6.86038">
        <ele>752</ele>
        <time>2020-10-28T11:24:34.182Z</time>
      </trkpt>
      <trkpt lat="48.05168" lon="6.86041">
        <ele>752</ele>
        <time>2020-10-28T11:24:35.182Z</time>
      </trkpt>
      <trkpt lat="48.05167" lon="6.86044">
        <ele>752</ele>
        <time>2020-10-28T11:24:36.182Z</time>
      </trkpt>
      <trkpt lat="48.05166" lon="6.86046">
        <ele>751</ele>
        <time>2020-10-28T11:24:37.182Z</time>
      </trkpt>
      <trkpt lat="48.05165" lon="6.86048">
        <ele>751</ele>
        <time>2020-10-28T11:24:38.182Z</time>
      </trkpt>
      <trkpt lat="48.05164" lon="6.86051">
        <ele>751</ele>
        <time>2020-10-28T11:24:39.181Z</time>
      </trkpt>
      <trkpt lat="48.05162" lon="6.86053">
        <ele>750</ele>
        <time>2020-10-28T11:24:42.258Z</time>
      </trkpt>
      <trkpt lat="48.05161" lon="6.86055">
        <ele>750</ele>
        <time>2020-10-28T11:24:43.258Z</time>
      </trkpt>
      <trkpt lat="48.05161" lon="6.86057">
        <ele>750</ele>
        <time>2020-10-28T11:24:44.258Z</time>
      </trkpt>
      <trkpt lat="48.0516" lon="6.86059">
        <ele>750</ele>
        <time>2020-10-28T11:24:45.257Z</time>
      </trkpt>
      <trkpt lat="48.0516" lon="6.86061">
        <ele>750</ele>
        <time>2020-10-28T11:24:46.258Z</time>
      </trkpt>
      <trkpt lat="48.05159" lon="6.86063">
        <ele>749</ele>
        <time>2020-10-28T11:24:47.258Z</time>
      </trkpt>
      <trkpt lat="48.05159" lon="6.86065">
        <ele>749</ele>
        <time>2020-10-28T11:24:48.258Z</time>
      </trkpt>
      <trkpt lat="48.05159" lon="6.86067">
        <ele>749</ele>
        <time>2020-10-28T11:24:49.257Z</time>
      </trkpt>
      <trkpt lat="48.05158" lon="6.86068">
        <ele>749</ele>
        <time>2020-10-28T11:24:50.258Z</time>
      </trkpt>
      <trkpt lat="48.05157" lon="6.8607">
        <ele>749</ele>
        <time>2020-10-28T11:24:51.258Z</time>
      </trkpt>
      <trkpt lat="48.05156" lon="6.86072">
        <ele>750</ele>
        <time>2020-10-28T11:24:52.258Z</time>
      </trkpt>
      <trkpt lat="48.05156" lon="6.86073">
        <ele>750</ele>
        <time>2020-10-28T11:24:53.258Z</time>
      </trkpt>
      <trkpt lat="48.05155" lon="6.86076">
        <ele>750</ele>
        <time>2020-10-28T11:24:54.258Z</time>
      </trkpt>
      <trkpt lat="48.05154" lon="6.86078">
        <ele>751</ele>
        <time>2020-10-28T11:24:55.258Z</time>
      </trkpt>
      <trkpt lat="48.05153" lon="6.86079">
        <ele>751</ele>
        <time>2020-10-28T11:24:56.258Z</time>
      </trkpt>
      <trkpt lat="48.05151" lon="6.86081">
        <ele>751</ele>
        <time>2020-10-28T11:24:57.257Z</time>
      </trkpt>
      <trkpt lat="48.05151" lon="6.86084">
        <ele>751</ele>
        <time>2020-10-28T11:24:58.258Z</time>
      </trkpt>
      <trkpt lat="48.05151" lon="6.86085">
        <ele>751</ele>
        <time>2020-10-28T11:24:59.257Z</time>
      </trkpt>
      <trkpt lat="48.05151" lon="6.86087">
        <ele>752</ele>
        <time>2020-10-28T11:25:00.258Z</time>
      </trkpt>
      <trkpt lat="48.05151" lon="6.86089">
        <ele>752</ele>
        <time>2020-10-28T11:25:01.257Z</time>
      </trkpt>
      <trkpt lat="48.0515" lon="6.8609">
        <ele>752</ele>
        <time>2020-10-28T11:25:04.257Z</time>
      </trkpt>
      <trkpt lat="48.0515" lon="6.86092">
        <ele>752</ele>
        <time>2020-10-28T11:25:05.258Z</time>
      </trkpt>
      <trkpt lat="48.0515" lon="6.86095">
        <ele>752</ele>
        <time>2020-10-28T11:25:06.257Z</time>
      </trkpt>
      <trkpt lat="48.0515" lon="6.86097">
        <ele>753</ele>
        <time>2020-10-28T11:25:07.258Z</time>
      </trkpt>
      <trkpt lat="48.05149" lon="6.86099">
        <ele>753</ele>
        <time>2020-10-28T11:25:08.257Z</time>
      </trkpt>
      <trkpt lat="48.05148" lon="6.86102">
        <ele>754</ele>
        <time>2020-10-28T11:25:09.257Z</time>
      </trkpt>
      <trkpt lat="48.05148" lon="6.86104">
        <ele>754</ele>
        <time>2020-10-28T11:25:10.257Z</time>
      </trkpt>
      <trkpt lat="48.05148" lon="6.86106">
        <ele>755</ele>
        <time>2020-10-28T11:25:11.258Z</time>
      </trkpt>
      <trkpt lat="48.05148" lon="6.86107">
        <ele>755</ele>
        <time>2020-10-28T11:25:12.257Z</time>
      </trkpt>
      <trkpt lat="48.05148" lon="6.86109">
        <ele>756</ele>
        <time>2020-10-28T11:25:13.258Z</time>
      </trkpt>
      <trkpt lat="48.05148" lon="6.86112">
        <ele>756</ele>
        <time>2020-10-28T11:25:14.258Z</time>
      </trkpt>
      <trkpt lat="48.05147" lon="6.86114">
        <ele>756</ele>
        <time>2020-10-28T11:25:15.258Z</time>
      </trkpt>
      <trkpt lat="48.05146" lon="6.86116">
        <ele>756</ele>
        <time>2020-10-28T11:25:16.258Z</time>
      </trkpt>
      <trkpt lat="48.05145" lon="6.86119">
        <ele>756</ele>
        <time>2020-10-28T11:25:17.258Z</time>
      </trkpt>
      <trkpt lat="48.05144" lon="6.8612">
        <ele>755</ele>
        <time>2020-10-28T11:25:18.257Z</time>
      </trkpt>
      <trkpt lat="48.05143" lon="6.86122">
        <ele>755</ele>
        <time>2020-10-28T11:25:19.257Z</time>
      </trkpt>
      <trkpt lat="48.05142" lon="6.86124">
        <ele>755</ele>
        <time>2020-10-28T11:25:20.257Z</time>
      </trkpt>
      <trkpt lat="48.05141" lon="6.86126">
        <ele>755</ele>
        <time>2020-10-28T11:25:21.257Z</time>
      </trkpt>
      <trkpt lat="48.05141" lon="6.86128">
        <ele>755</ele>
        <time>2020-10-28T11:25:22.258Z</time>
      </trkpt>
      <trkpt lat="48.0514" lon="6.8613">
        <ele>755</ele>
        <time>2020-10-28T11:25:23.257Z</time>
      </trkpt>
      <trkpt lat="48.05139" lon="6.86133">
        <ele>755</ele>
        <time>2020-10-28T11:25:24.257Z</time>
      </trkpt>
      <trkpt lat="48.05138" lon="6.86135">
        <ele>755</ele>
        <time>2020-10-28T11:25:25.258Z</time>
      </trkpt>
      <trkpt lat="48.05138" lon="6.86138">
        <ele>755</ele>
        <time>2020-10-28T11:25:26.258Z</time>
      </trkpt>
      <trkpt lat="48.05137" lon="6.8614">
        <ele>756</ele>
        <time>2020-10-28T11:25:27.258Z</time>
      </trkpt>
      <trkpt lat="48.05136" lon="6.86142">
        <ele>756</ele>
        <time>2020-10-28T11:25:28.258Z</time>
      </trkpt>
      <trkpt lat="48.05135" lon="6.86144">
        <ele>757</ele>
        <time>2020-10-28T11:25:29.258Z</time>
      </trkpt>
      <trkpt lat="48.05134" lon="6.86147">
        <ele>758</ele>
        <time>2020-10-28T11:25:30.258Z</time>
      </trkpt>
      <trkpt lat="48.05133" lon="6.86148">
        <ele>758</ele>
        <time>2020-10-28T11:25:31.257Z</time>
      </trkpt>
      <trkpt lat="48.05132" lon="6.8615">
        <ele>759</ele>
        <time>2020-10-28T11:25:32.257Z</time>
      </trkpt>
      <trkpt lat="48.05131" lon="6.86151">
        <ele>759</ele>
        <time>2020-10-28T11:25:33.258Z</time>
      </trkpt>
      <trkpt lat="48.05131" lon="6.86153">
        <ele>759</ele>
        <time>2020-10-28T11:25:34.257Z</time>
      </trkpt>
      <trkpt lat="48.0513" lon="6.86155">
        <ele>760</ele>
        <time>2020-10-28T11:25:35.257Z</time>
      </trkpt>
      <trkpt lat="48.0513" lon="6.86157">
        <ele>760</ele>
        <time>2020-10-28T11:25:36.258Z</time>
      </trkpt>
      <trkpt lat="48.0513" lon="6.86158">
        <ele>760</ele>
        <time>2020-10-28T11:25:37.258Z</time>
      </trkpt>
      <trkpt lat="48.0513" lon="6.8616">
        <ele>760</ele>
        <time>2020-10-28T11:25:38.258Z</time>
      </trkpt>
      <trkpt lat="48.0513" lon="6.86162">
        <ele>759</ele>
        <time>2020-10-28T11:25:39.258Z</time>
      </trkpt>
      <trkpt lat="48.0513" lon="6.86164">
        <ele>759</ele>
        <time>2020-10-28T11:25:40.258Z</time>
      </trkpt>
      <trkpt lat="48.0513" lon="6.86165">
        <ele>759</ele>
        <time>2020-10-28T11:25:41.258Z</time>
      </trkpt>
      <trkpt lat="48.0513" lon="6.86168">
        <ele>759</ele>
        <time>2020-10-28T11:25:42.258Z</time>
      </trkpt>
      <trkpt lat="48.0513" lon="6.8617">
        <ele>759</ele>
        <time>2020-10-28T11:25:43.258Z</time>
      </trkpt>
      <trkpt lat="48.05131" lon="6.86172">
        <ele>759</ele>
        <time>2020-10-28T11:25:44.257Z</time>
      </trkpt>
      <trkpt lat="48.05131" lon="6.86173">
        <ele>759</ele>
        <time>2020-10-28T11:25:45.258Z</time>
      </trkpt>
      <trkpt lat="48.05131" lon="6.86175">
        <ele>758</ele>
        <time>2020-10-28T11:25:46.258Z</time>
      </trkpt>
      <trkpt lat="48.05131" lon="6.86177">
        <ele>758</ele>
        <time>2020-10-28T11:25:47.257Z</time>
      </trkpt>
      <trkpt lat="48.05131" lon="6.86179">
        <ele>758</ele>
        <time>2020-10-28T11:25:48.258Z</time>
      </trkpt>
      <trkpt lat="48.05131" lon="6.86181">
        <ele>758</ele>
        <time>2020-10-28T11:25:49.258Z</time>
      </trkpt>
      <trkpt lat="48.0513" lon="6.86183">
        <ele>758</ele>
        <time>2020-10-28T11:25:50.258Z</time>
      </trkpt>
      <trkpt lat="48.0513" lon="6.86184">
        <ele>758</ele>
        <time>2020-10-28T11:25:51.258Z</time>
      </trkpt>
      <trkpt lat="48.0513" lon="6.86186">
        <ele>758</ele>
        <time>2020-10-28T11:25:52.258Z</time>
      </trkpt>
      <trkpt lat="48.0513" lon="6.86188">
        <ele>758</ele>
        <time>2020-10-28T11:25:53.258Z</time>
      </trkpt>
      <trkpt lat="48.0513" lon="6.8619">
        <ele>758</ele>
        <time>2020-10-28T11:25:54.258Z</time>
      </trkpt>
      <trkpt lat="48.05131" lon="6.86191">
        <ele>758</ele>
        <time>2020-10-28T11:25:55.258Z</time>
      </trkpt>
      <trkpt lat="48.05131" lon="6.86193">
        <ele>758</ele>
        <time>2020-10-28T11:25:56.258Z</time>
      </trkpt>
      <trkpt lat="48.05132" lon="6.86195">
        <ele>757</ele>
        <time>2020-10-28T11:25:57.257Z</time>
      </trkpt>
      <trkpt lat="48.05134" lon="6.86197">
        <ele>757</ele>
        <time>2020-10-28T11:25:58.258Z</time>
      </trkpt>
      <trkpt lat="48.05134" lon="6.86199">
        <ele>757</ele>
        <time>2020-10-28T11:25:59.258Z</time>
      </trkpt>
      <trkpt lat="48.05134" lon="6.862">
        <ele>757</ele>
        <time>2020-10-28T11:26:00.258Z</time>
      </trkpt>
      <trkpt lat="48.05134" lon="6.86202">
        <ele>757</ele>
        <time>2020-10-28T11:26:01.257Z</time>
      </trkpt>
      <trkpt lat="48.05135" lon="6.86204">
        <ele>757</ele>
        <time>2020-10-28T11:26:02.257Z</time>
      </trkpt>
      <trkpt lat="48.05136" lon="6.86205">
        <ele>757</ele>
        <time>2020-10-28T11:26:03.258Z</time>
      </trkpt>
      <trkpt lat="48.05136" lon="6.86206">
        <ele>757</ele>
        <time>2020-10-28T11:26:04.258Z</time>
      </trkpt>
      <trkpt lat="48.05137" lon="6.86208">
        <ele>757</ele>
        <time>2020-10-28T11:26:05.258Z</time>
      </trkpt>
      <trkpt lat="48.05138" lon="6.8621">
        <ele>757</ele>
        <time>2020-10-28T11:26:08.250Z</time>
      </trkpt>
      <trkpt lat="48.05138" lon="6.86212">
        <ele>757</ele>
        <time>2020-10-28T11:27:15.167Z</time>
      </trkpt>
      <trkpt lat="48.05138" lon="6.86214">
        <ele>757</ele>
        <time>2020-10-28T11:27:16.168Z</time>
      </trkpt>
      <trkpt lat="48.05139" lon="6.86215">
        <ele>756</ele>
        <time>2020-10-28T11:27:17.168Z</time>
      </trkpt>
      <trkpt lat="48.05139" lon="6.86217">
        <ele>756</ele>
        <time>2020-10-28T11:27:18.168Z</time>
      </trkpt>
      <trkpt lat="48.0514" lon="6.86219">
        <ele>756</ele>
        <time>2020-10-28T11:27:19.168Z</time>
      </trkpt>
      <trkpt lat="48.0514" lon="6.86221">
        <ele>756</ele>
        <time>2020-10-28T11:27:20.167Z</time>
      </trkpt>
      <trkpt lat="48.05141" lon="6.86223">
        <ele>756</ele>
        <time>2020-10-28T11:27:21.168Z</time>
      </trkpt>
      <trkpt lat="48.05142" lon="6.86225">
        <ele>756</ele>
        <time>2020-10-28T11:27:22.168Z</time>
      </trkpt>
      <trkpt lat="48.05142" lon="6.86227">
        <ele>756</ele>
        <time>2020-10-28T11:27:23.167Z</time>
      </trkpt>
      <trkpt lat="48.05142" lon="6.86228">
        <ele>756</ele>
        <time>2020-10-28T11:27:24.167Z</time>
      </trkpt>
      <trkpt lat="48.05143" lon="6.8623">
        <ele>757</ele>
        <time>2020-10-28T11:27:25.167Z</time>
      </trkpt>
      <trkpt lat="48.05143" lon="6.86231">
        <ele>757</ele>
        <time>2020-10-28T11:27:26.168Z</time>
      </trkpt>
      <trkpt lat="48.05144" lon="6.86233">
        <ele>757</ele>
        <time>2020-10-28T11:27:27.168Z</time>
      </trkpt>
      <trkpt lat="48.05144" lon="6.86235">
        <ele>757</ele>
        <time>2020-10-28T11:27:28.168Z</time>
      </trkpt>
      <trkpt lat="48.05145" lon="6.86236">
        <ele>757</ele>
        <time>2020-10-28T11:27:29.168Z</time>
      </trkpt>
      <trkpt lat="48.05146" lon="6.86238">
        <ele>757</ele>
        <time>2020-10-28T11:27:30.167Z</time>
      </trkpt>
      <trkpt lat="48.05147" lon="6.86239">
        <ele>757</ele>
        <time>2020-10-28T11:27:31.168Z</time>
      </trkpt>
      <trkpt lat="48.05147" lon="6.86241">
        <ele>757</ele>
        <time>2020-10-28T11:27:32.167Z</time>
      </trkpt>
      <trkpt lat="48.05148" lon="6.86242">
        <ele>757</ele>
        <time>2020-10-28T11:27:33.168Z</time>
      </trkpt>
      <trkpt lat="48.05149" lon="6.86244">
        <ele>757</ele>
        <time>2020-10-28T11:27:34.168Z</time>
      </trkpt>
      <trkpt lat="48.0515" lon="6.86246">
        <ele>758</ele>
        <time>2020-10-28T11:27:35.168Z</time>
      </trkpt>
      <trkpt lat="48.0515" lon="6.86247">
        <ele>758</ele>
        <time>2020-10-28T11:27:36.168Z</time>
      </trkpt>
      <trkpt lat="48.05151" lon="6.86248">
        <ele>759</ele>
        <time>2020-10-28T11:27:37.168Z</time>
      </trkpt>
      <trkpt lat="48.05152" lon="6.86249">
        <ele>759</ele>
        <time>2020-10-28T11:27:38.168Z</time>
      </trkpt>
      <trkpt lat="48.05153" lon="6.86251">
        <ele>760</ele>
        <time>2020-10-28T11:27:39.168Z</time>
      </trkpt>
      <trkpt lat="48.05154" lon="6.86252">
        <ele>760</ele>
        <time>2020-10-28T11:27:40.167Z</time>
      </trkpt>
      <trkpt lat="48.05155" lon="6.86254">
        <ele>760</ele>
        <time>2020-10-28T11:27:41.168Z</time>
      </trkpt>
      <trkpt lat="48.05156" lon="6.86255">
        <ele>760</ele>
        <time>2020-10-28T11:27:42.168Z</time>
      </trkpt>
      <trkpt lat="48.05157" lon="6.86256">
        <ele>761</ele>
        <time>2020-10-28T11:27:43.168Z</time>
      </trkpt>
      <trkpt lat="48.05159" lon="6.86256">
        <ele>761</ele>
        <time>2020-10-28T11:27:44.168Z</time>
      </trkpt>
      <trkpt lat="48.0516" lon="6.86256">
        <ele>762</ele>
        <time>2020-10-28T11:27:45.168Z</time>
      </trkpt>
      <trkpt lat="48.05161" lon="6.86256">
        <ele>762</ele>
        <time>2020-10-28T11:27:46.168Z</time>
      </trkpt>
      <trkpt lat="48.05162" lon="6.86256">
        <ele>763</ele>
        <time>2020-10-28T11:27:47.168Z</time>
      </trkpt>
      <trkpt lat="48.05163" lon="6.86255">
        <ele>763</ele>
        <time>2020-10-28T11:27:48.168Z</time>
      </trkpt>
      <trkpt lat="48.05164" lon="6.86254">
        <ele>763</ele>
        <time>2020-10-28T11:27:49.167Z</time>
      </trkpt>
      <trkpt lat="48.05165" lon="6.86253">
        <ele>764</ele>
        <time>2020-10-28T11:27:50.168Z</time>
      </trkpt>
      <trkpt lat="48.05165" lon="6.86252">
        <ele>764</ele>
        <time>2020-10-28T11:27:51.168Z</time>
      </trkpt>
      <trkpt lat="48.05166" lon="6.8625">
        <ele>765</ele>
        <time>2020-10-28T11:27:52.168Z</time>
      </trkpt>
      <trkpt lat="48.05167" lon="6.86248">
        <ele>765</ele>
        <time>2020-10-28T11:27:53.168Z</time>
      </trkpt>
      <trkpt lat="48.05167" lon="6.86246">
        <ele>766</ele>
        <time>2020-10-28T11:27:54.167Z</time>
      </trkpt>
      <trkpt lat="48.05168" lon="6.86244">
        <ele>766</ele>
        <time>2020-10-28T11:27:55.167Z</time>
      </trkpt>
      <trkpt lat="48.05169" lon="6.86242">
        <ele>766</ele>
        <time>2020-10-28T11:27:56.168Z</time>
      </trkpt>
      <trkpt lat="48.0517" lon="6.86241">
        <ele>767</ele>
        <time>2020-10-28T11:27:57.168Z</time>
      </trkpt>
      <trkpt lat="48.05171" lon="6.86238">
        <ele>767</ele>
        <time>2020-10-28T11:27:58.168Z</time>
      </trkpt>
      <trkpt lat="48.05171" lon="6.86237">
        <ele>768</ele>
        <time>2020-10-28T11:27:59.168Z</time>
      </trkpt>
      <trkpt lat="48.05172" lon="6.86236">
        <ele>768</ele>
        <time>2020-10-28T11:28:00.167Z</time>
      </trkpt>
      <trkpt lat="48.05173" lon="6.86233">
        <ele>768</ele>
        <time>2020-10-28T11:28:01.167Z</time>
      </trkpt>
      <trkpt lat="48.05174" lon="6.8623">
        <ele>768</ele>
        <time>2020-10-28T11:28:02.168Z</time>
      </trkpt>
      <trkpt lat="48.05175" lon="6.86228">
        <ele>768</ele>
        <time>2020-10-28T11:28:03.167Z</time>
      </trkpt>
      <trkpt lat="48.05176" lon="6.86226">
        <ele>769</ele>
        <time>2020-10-28T11:28:04.167Z</time>
      </trkpt>
      <trkpt lat="48.05177" lon="6.86224">
        <ele>769</ele>
        <time>2020-10-28T11:28:05.167Z</time>
      </trkpt>
      <trkpt lat="48.05177" lon="6.86222">
        <ele>769</ele>
        <time>2020-10-28T11:28:06.168Z</time>
      </trkpt>
      <trkpt lat="48.05178" lon="6.8622">
        <ele>770</ele>
        <time>2020-10-28T11:28:07.168Z</time>
      </trkpt>
      <trkpt lat="48.05179" lon="6.86219">
        <ele>770</ele>
        <time>2020-10-28T11:28:08.167Z</time>
      </trkpt>
      <trkpt lat="48.05179" lon="6.86217">
        <ele>771</ele>
        <time>2020-10-28T11:28:09.167Z</time>
      </trkpt>
      <trkpt lat="48.0518" lon="6.86215">
        <ele>772</ele>
        <time>2020-10-28T11:28:10.168Z</time>
      </trkpt>
      <trkpt lat="48.05181" lon="6.86214">
        <ele>772</ele>
        <time>2020-10-28T11:28:11.167Z</time>
      </trkpt>
      <trkpt lat="48.05181" lon="6.86212">
        <ele>773</ele>
        <time>2020-10-28T11:28:12.167Z</time>
      </trkpt>
      <trkpt lat="48.05181" lon="6.8621">
        <ele>774</ele>
        <time>2020-10-28T11:28:13.168Z</time>
      </trkpt>
      <trkpt lat="48.05183" lon="6.86209">
        <ele>774</ele>
        <time>2020-10-28T11:28:14.168Z</time>
      </trkpt>
      <trkpt lat="48.05184" lon="6.86208">
        <ele>775</ele>
        <time>2020-10-28T11:28:15.167Z</time>
      </trkpt>
      <trkpt lat="48.05186" lon="6.86207">
        <ele>775</ele>
        <time>2020-10-28T11:28:16.168Z</time>
      </trkpt>
      <trkpt lat="48.05187" lon="6.86205">
        <ele>775</ele>
        <time>2020-10-28T11:28:17.168Z</time>
      </trkpt>
      <trkpt lat="48.05188" lon="6.86204">
        <ele>775</ele>
        <time>2020-10-28T11:28:18.168Z</time>
      </trkpt>
      <trkpt lat="48.05189" lon="6.86202">
        <ele>775</ele>
        <time>2020-10-28T11:28:19.168Z</time>
      </trkpt>
      <trkpt lat="48.0519" lon="6.86201">
        <ele>775</ele>
        <time>2020-10-28T11:28:20.168Z</time>
      </trkpt>
      <trkpt lat="48.05191" lon="6.86199">
        <ele>775</ele>
        <time>2020-10-28T11:28:21.168Z</time>
      </trkpt>
      <trkpt lat="48.05192" lon="6.86198">
        <ele>775</ele>
        <time>2020-10-28T11:28:22.168Z</time>
      </trkpt>
      <trkpt lat="48.05193" lon="6.86197">
        <ele>775</ele>
        <time>2020-10-28T11:28:23.167Z</time>
      </trkpt>
      <trkpt lat="48.05194" lon="6.86196">
        <ele>775</ele>
        <time>2020-10-28T11:28:24.167Z</time>
      </trkpt>
      <trkpt lat="48.05195" lon="6.86195">
        <ele>775</ele>
        <time>2020-10-28T11:28:25.168Z</time>
      </trkpt>
      <trkpt lat="48.05196" lon="6.86194">
        <ele>775</ele>
        <time>2020-10-28T11:28:26.168Z</time>
      </trkpt>
      <trkpt lat="48.05197" lon="6.86194">
        <ele>775</ele>
        <time>2020-10-28T11:28:27.167Z</time>
      </trkpt>
      <trkpt lat="48.05198" lon="6.86193">
        <ele>774</ele>
        <time>2020-10-28T11:28:28.168Z</time>
      </trkpt>
      <trkpt lat="48.05199" lon="6.86192">
        <ele>774</ele>
        <time>2020-10-28T11:28:29.168Z</time>
      </trkpt>
      <trkpt lat="48.05199" lon="6.86192">
        <ele>774</ele>
        <time>2020-10-28T11:28:30.168Z</time>
      </trkpt>
      <trkpt lat="48.052" lon="6.8619">
        <ele>774</ele>
        <time>2020-10-28T11:28:31.168Z</time>
      </trkpt>
      <trkpt lat="48.05201" lon="6.86189">
        <ele>774</ele>
        <time>2020-10-28T11:28:32.168Z</time>
      </trkpt>
      <trkpt lat="48.05201" lon="6.86188">
        <ele>774</ele>
        <time>2020-10-28T11:28:33.167Z</time>
      </trkpt>
      <trkpt lat="48.05202" lon="6.86187">
        <ele>775</ele>
        <time>2020-10-28T11:28:34.167Z</time>
      </trkpt>
      <trkpt lat="48.05203" lon="6.86186">
        <ele>775</ele>
        <time>2020-10-28T11:28:35.167Z</time>
      </trkpt>
      <trkpt lat="48.05203" lon="6.86185">
        <ele>775</ele>
        <time>2020-10-28T11:28:42.268Z</time>
      </trkpt>
      <trkpt lat="48.05204" lon="6.86185">
        <ele>775</ele>
        <time>2020-10-28T11:28:44.151Z</time>
      </trkpt>
      <trkpt lat="48.05205" lon="6.86184">
        <ele>775</ele>
        <time>2020-10-28T11:28:45.151Z</time>
      </trkpt>
      <trkpt lat="48.05206" lon="6.86184">
        <ele>775</ele>
        <time>2020-10-28T11:28:46.152Z</time>
      </trkpt>
      <trkpt lat="48.05206" lon="6.86183">
        <ele>775</ele>
        <time>2020-10-28T11:28:47.151Z</time>
      </trkpt>
      <trkpt lat="48.05207" lon="6.86182">
        <ele>775</ele>
        <time>2020-10-28T11:28:48.152Z</time>
      </trkpt>
      <trkpt lat="48.05208" lon="6.86181">
        <ele>775</ele>
        <time>2020-10-28T11:28:49.151Z</time>
      </trkpt>
      <trkpt lat="48.05209" lon="6.86179">
        <ele>774</ele>
        <time>2020-10-28T11:28:50.152Z</time>
      </trkpt>
      <trkpt lat="48.05209" lon="6.86179">
        <ele>774</ele>
        <time>2020-10-28T11:28:51.152Z</time>
      </trkpt>
      <trkpt lat="48.0521" lon="6.86177">
        <ele>774</ele>
        <time>2020-10-28T11:28:52.151Z</time>
      </trkpt>
      <trkpt lat="48.05211" lon="6.86177">
        <ele>773</ele>
        <time>2020-10-28T11:28:53.152Z</time>
      </trkpt>
      <trkpt lat="48.05212" lon="6.86176">
        <ele>773</ele>
        <time>2020-10-28T11:28:54.151Z</time>
      </trkpt>
      <trkpt lat="48.05213" lon="6.86174">
        <ele>772</ele>
        <time>2020-10-28T11:28:55.152Z</time>
      </trkpt>
      <trkpt lat="48.05214" lon="6.86173">
        <ele>772</ele>
        <time>2020-10-28T11:28:56.152Z</time>
      </trkpt>
      <trkpt lat="48.05215" lon="6.86172">
        <ele>772</ele>
        <time>2020-10-28T11:28:57.152Z</time>
      </trkpt>
      <trkpt lat="48.05216" lon="6.86171">
        <ele>772</ele>
        <time>2020-10-28T11:28:58.152Z</time>
      </trkpt>
      <trkpt lat="48.05216" lon="6.8617">
        <ele>771</ele>
        <time>2020-10-28T11:28:59.151Z</time>
      </trkpt>
      <trkpt lat="48.05216" lon="6.86169">
        <ele>771</ele>
        <time>2020-10-28T11:29:00.151Z</time>
      </trkpt>
      <trkpt lat="48.05217" lon="6.86168">
        <ele>771</ele>
        <time>2020-10-28T11:29:01.152Z</time>
      </trkpt>
      <trkpt lat="48.05218" lon="6.86168">
        <ele>771</ele>
        <time>2020-10-28T11:29:02.152Z</time>
      </trkpt>
      <trkpt lat="48.0522" lon="6.86165">
        <ele>770</ele>
        <time>2020-10-28T11:29:03.152Z</time>
      </trkpt>
      <trkpt lat="48.0522" lon="6.86163">
        <ele>770</ele>
        <time>2020-10-28T11:29:04.151Z</time>
      </trkpt>
      <trkpt lat="48.0522" lon="6.86162">
        <ele>770</ele>
        <time>2020-10-28T11:29:05.151Z</time>
      </trkpt>
      <trkpt lat="48.05221" lon="6.86161">
        <ele>770</ele>
        <time>2020-10-28T11:29:06.151Z</time>
      </trkpt>
      <trkpt lat="48.05222" lon="6.8616">
        <ele>769</ele>
        <time>2020-10-28T11:29:07.152Z</time>
      </trkpt>
      <trkpt lat="48.05223" lon="6.86159">
        <ele>769</ele>
        <time>2020-10-28T11:29:08.152Z</time>
      </trkpt>
      <trkpt lat="48.05223" lon="6.86158">
        <ele>769</ele>
        <time>2020-10-28T11:29:09.152Z</time>
      </trkpt>
      <trkpt lat="48.05224" lon="6.86158">
        <ele>769</ele>
        <time>2020-10-28T11:29:10.151Z</time>
      </trkpt>
      <trkpt lat="48.05225" lon="6.86158">
        <ele>769</ele>
        <time>2020-10-28T11:29:11.152Z</time>
      </trkpt>
      <trkpt lat="48.05227" lon="6.86157">
        <ele>769</ele>
        <time>2020-10-28T11:29:12.152Z</time>
      </trkpt>
      <trkpt lat="48.05228" lon="6.86156">
        <ele>768</ele>
        <time>2020-10-28T11:29:13.151Z</time>
      </trkpt>
      <trkpt lat="48.0523" lon="6.86154">
        <ele>768</ele>
        <time>2020-10-28T11:29:14.152Z</time>
      </trkpt>
      <trkpt lat="48.05231" lon="6.86152">
        <ele>768</ele>
        <time>2020-10-28T11:29:15.152Z</time>
      </trkpt>
      <trkpt lat="48.05232" lon="6.86151">
        <ele>767</ele>
        <time>2020-10-28T11:29:16.152Z</time>
      </trkpt>
      <trkpt lat="48.05233" lon="6.8615">
        <ele>767</ele>
        <time>2020-10-28T11:29:17.151Z</time>
      </trkpt>
      <trkpt lat="48.05233" lon="6.86149">
        <ele>766</ele>
        <time>2020-10-28T11:29:18.152Z</time>
      </trkpt>
      <trkpt lat="48.05234" lon="6.86149">
        <ele>766</ele>
        <time>2020-10-28T11:29:19.152Z</time>
      </trkpt>
      <trkpt lat="48.05235" lon="6.86148">
        <ele>765</ele>
        <time>2020-10-28T11:29:20.152Z</time>
      </trkpt>
      <trkpt lat="48.05236" lon="6.86147">
        <ele>764</ele>
        <time>2020-10-28T11:29:21.151Z</time>
      </trkpt>
      <trkpt lat="48.05237" lon="6.86147">
        <ele>763</ele>
        <time>2020-10-28T11:29:22.152Z</time>
      </trkpt>
      <trkpt lat="48.05238" lon="6.86146">
        <ele>762</ele>
        <time>2020-10-28T11:29:23.151Z</time>
      </trkpt>
      <trkpt lat="48.0524" lon="6.86146">
        <ele>761</ele>
        <time>2020-10-28T11:29:24.152Z</time>
      </trkpt>
      <trkpt lat="48.05241" lon="6.86146">
        <ele>760</ele>
        <time>2020-10-28T11:29:25.152Z</time>
      </trkpt>
      <trkpt lat="48.05242" lon="6.86145">
        <ele>759</ele>
        <time>2020-10-28T11:29:26.151Z</time>
      </trkpt>
      <trkpt lat="48.05244" lon="6.86144">
        <ele>758</ele>
        <time>2020-10-28T11:29:27.152Z</time>
      </trkpt>
      <trkpt lat="48.05245" lon="6.86142">
        <ele>758</ele>
        <time>2020-10-28T11:29:28.152Z</time>
      </trkpt>
      <trkpt lat="48.05246" lon="6.86142">
        <ele>757</ele>
        <time>2020-10-28T11:29:29.152Z</time>
      </trkpt>
      <trkpt lat="48.05247" lon="6.86141">
        <ele>757</ele>
        <time>2020-10-28T11:29:30.152Z</time>
      </trkpt>
      <trkpt lat="48.05249" lon="6.8614">
        <ele>757</ele>
        <time>2020-10-28T11:29:31.151Z</time>
      </trkpt>
      <trkpt lat="48.0525" lon="6.86139">
        <ele>758</ele>
        <time>2020-10-28T11:29:32.152Z</time>
      </trkpt>
      <trkpt lat="48.05251" lon="6.86138">
        <ele>758</ele>
        <time>2020-10-28T11:29:33.152Z</time>
      </trkpt>
      <trkpt lat="48.05252" lon="6.86137">
        <ele>758</ele>
        <time>2020-10-28T11:29:34.151Z</time>
      </trkpt>
      <trkpt lat="48.05253" lon="6.86136">
        <ele>759</ele>
        <time>2020-10-28T11:29:35.151Z</time>
      </trkpt>
      <trkpt lat="48.05255" lon="6.86136">
        <ele>759</ele>
        <time>2020-10-28T11:29:36.152Z</time>
      </trkpt>
      <trkpt lat="48.05256" lon="6.86135">
        <ele>758</ele>
        <time>2020-10-28T11:29:37.151Z</time>
      </trkpt>
      <trkpt lat="48.05258" lon="6.86134">
        <ele>758</ele>
        <time>2020-10-28T11:29:38.152Z</time>
      </trkpt>
      <trkpt lat="48.05259" lon="6.86133">
        <ele>758</ele>
        <time>2020-10-28T11:29:39.152Z</time>
      </trkpt>
      <trkpt lat="48.0526" lon="6.86132">
        <ele>758</ele>
        <time>2020-10-28T11:29:40.152Z</time>
      </trkpt>
      <trkpt lat="48.05261" lon="6.86131">
        <ele>758</ele>
        <time>2020-10-28T11:29:41.152Z</time>
      </trkpt>
      <trkpt lat="48.05264" lon="6.8613">
        <ele>758</ele>
        <time>2020-10-28T11:29:42.151Z</time>
      </trkpt>
      <trkpt lat="48.05266" lon="6.86129">
        <ele>758</ele>
        <time>2020-10-28T11:29:43.152Z</time>
      </trkpt>
      <trkpt lat="48.05267" lon="6.86129">
        <ele>758</ele>
        <time>2020-10-28T11:29:44.152Z</time>
      </trkpt>
      <trkpt lat="48.05268" lon="6.86129">
        <ele>758</ele>
        <time>2020-10-28T11:29:45.151Z</time>
      </trkpt>
      <trkpt lat="48.05269" lon="6.86129">
        <ele>758</ele>
        <time>2020-10-28T11:29:46.152Z</time>
      </trkpt>
      <trkpt lat="48.0527" lon="6.86129">
        <ele>758</ele>
        <time>2020-10-28T11:29:47.152Z</time>
      </trkpt>
      <trkpt lat="48.0527" lon="6.86129">
        <ele>758</ele>
        <time>2020-10-28T11:29:48.152Z</time>
      </trkpt>
      <trkpt lat="48.05271" lon="6.86129">
        <ele>758</ele>
        <time>2020-10-28T11:29:49.151Z</time>
      </trkpt>
      <trkpt lat="48.05272" lon="6.86129">
        <ele>758</ele>
        <time>2020-10-28T11:29:50.151Z</time>
      </trkpt>
      <trkpt lat="48.05274" lon="6.86128">
        <ele>758</ele>
        <time>2020-10-28T11:29:51.152Z</time>
      </trkpt>
      <trkpt lat="48.05275" lon="6.86127">
        <ele>758</ele>
        <time>2020-10-28T11:29:52.151Z</time>
      </trkpt>
      <trkpt lat="48.05276" lon="6.86126">
        <ele>758</ele>
        <time>2020-10-28T11:29:53.152Z</time>
      </trkpt>
      <trkpt lat="48.05278" lon="6.86126">
        <ele>757</ele>
        <time>2020-10-28T11:29:54.152Z</time>
      </trkpt>
      <trkpt lat="48.05279" lon="6.86125">
        <ele>757</ele>
        <time>2020-10-28T11:29:55.152Z</time>
      </trkpt>
      <trkpt lat="48.0528" lon="6.86126">
        <ele>758</ele>
        <time>2020-10-28T11:29:56.152Z</time>
      </trkpt>
      <trkpt lat="48.05281" lon="6.86126">
        <ele>758</ele>
        <time>2020-10-28T11:29:57.151Z</time>
      </trkpt>
      <trkpt lat="48.05281" lon="6.86126">
        <ele>757</ele>
        <time>2020-10-28T11:29:58.152Z</time>
      </trkpt>
      <trkpt lat="48.05282" lon="6.86126">
        <ele>757</ele>
        <time>2020-10-28T11:29:59.152Z</time>
      </trkpt>
      <trkpt lat="48.05283" lon="6.86126">
        <ele>756</ele>
        <time>2020-10-28T11:30:00.152Z</time>
      </trkpt>
      <trkpt lat="48.05284" lon="6.86126">
        <ele>756</ele>
        <time>2020-10-28T11:30:01.152Z</time>
      </trkpt>
      <trkpt lat="48.05285" lon="6.86127">
        <ele>755</ele>
        <time>2020-10-28T11:30:02.152Z</time>
      </trkpt>
      <trkpt lat="48.05286" lon="6.86126">
        <ele>755</ele>
        <time>2020-10-28T11:30:03.152Z</time>
      </trkpt>
      <trkpt lat="48.05287" lon="6.86126">
        <ele>755</ele>
        <time>2020-10-28T11:30:04.152Z</time>
      </trkpt>
      <trkpt lat="48.05288" lon="6.86126">
        <ele>755</ele>
        <time>2020-10-28T11:30:05.151Z</time>
      </trkpt>
      <trkpt lat="48.05289" lon="6.86125">
        <ele>755</ele>
        <time>2020-10-28T11:30:06.151Z</time>
      </trkpt>
      <trkpt lat="48.0529" lon="6.86124">
        <ele>754</ele>
        <time>2020-10-28T11:30:07.152Z</time>
      </trkpt>
      <trkpt lat="48.05292" lon="6.86123">
        <ele>754</ele>
        <time>2020-10-28T11:30:08.151Z</time>
      </trkpt>
      <trkpt lat="48.05293" lon="6.86122">
        <ele>754</ele>
        <time>2020-10-28T11:30:09.152Z</time>
      </trkpt>
      <trkpt lat="48.05294" lon="6.86121">
        <ele>754</ele>
        <time>2020-10-28T11:30:10.151Z</time>
      </trkpt>
      <trkpt lat="48.05295" lon="6.86121">
        <ele>753</ele>
        <time>2020-10-28T11:30:11.152Z</time>
      </trkpt>
      <trkpt lat="48.05296" lon="6.8612">
        <ele>753</ele>
        <time>2020-10-28T11:30:12.151Z</time>
      </trkpt>
      <trkpt lat="48.05297" lon="6.8612">
        <ele>753</ele>
        <time>2020-10-28T11:30:13.152Z</time>
      </trkpt>
      <trkpt lat="48.05298" lon="6.86119">
        <ele>753</ele>
        <time>2020-10-28T11:30:14.152Z</time>
      </trkpt>
      <trkpt lat="48.05298" lon="6.86119">
        <ele>753</ele>
        <time>2020-10-28T11:30:15.151Z</time>
      </trkpt>
      <trkpt lat="48.05299" lon="6.86119">
        <ele>753</ele>
        <time>2020-10-28T11:30:16.152Z</time>
      </trkpt>
      <trkpt lat="48.05299" lon="6.86118">
        <ele>752</ele>
        <time>2020-10-28T11:30:17.152Z</time>
      </trkpt>
      <trkpt lat="48.05299" lon="6.86118">
        <ele>752</ele>
        <time>2020-10-28T11:30:18.152Z</time>
      </trkpt>
      <trkpt lat="48.05299" lon="6.86118">
        <ele>752</ele>
        <time>2020-10-28T11:30:19.152Z</time>
      </trkpt>
      <trkpt lat="48.053" lon="6.86117">
        <ele>753</ele>
        <time>2020-10-28T11:30:20.152Z</time>
      </trkpt>
      <trkpt lat="48.05301" lon="6.86116">
        <ele>753</ele>
        <time>2020-10-28T11:30:21.152Z</time>
      </trkpt>
      <trkpt lat="48.05302" lon="6.86115">
        <ele>754</ele>
        <time>2020-10-28T11:30:22.151Z</time>
      </trkpt>
      <trkpt lat="48.05303" lon="6.86114">
        <ele>754</ele>
        <time>2020-10-28T11:30:23.152Z</time>
      </trkpt>
      <trkpt lat="48.05305" lon="6.86114">
        <ele>754</ele>
        <time>2020-10-28T11:30:24.152Z</time>
      </trkpt>
      <trkpt lat="48.05306" lon="6.86113">
        <ele>754</ele>
        <time>2020-10-28T11:30:25.152Z</time>
      </trkpt>
      <trkpt lat="48.05307" lon="6.86112">
        <ele>753</ele>
        <time>2020-10-28T11:30:26.152Z</time>
      </trkpt>
      <trkpt lat="48.05308" lon="6.8611">
        <ele>753</ele>
        <time>2020-10-28T11:30:27.152Z</time>
      </trkpt>
      <trkpt lat="48.05309" lon="6.86108">
        <ele>753</ele>
        <time>2020-10-28T11:30:28.151Z</time>
      </trkpt>
      <trkpt lat="48.0531" lon="6.86106">
        <ele>753</ele>
        <time>2020-10-28T11:30:29.151Z</time>
      </trkpt>
      <trkpt lat="48.0531" lon="6.86104">
        <ele>753</ele>
        <time>2020-10-28T11:30:30.152Z</time>
      </trkpt>
      <trkpt lat="48.0531" lon="6.86102">
        <ele>754</ele>
        <time>2020-10-28T11:30:31.151Z</time>
      </trkpt>
      <trkpt lat="48.05311" lon="6.861">
        <ele>754</ele>
        <time>2020-10-28T11:30:32.151Z</time>
      </trkpt>
      <trkpt lat="48.05311" lon="6.86098">
        <ele>755</ele>
        <time>2020-10-28T11:30:33.151Z</time>
      </trkpt>
      <trkpt lat="48.05312" lon="6.86097">
        <ele>755</ele>
        <time>2020-10-28T11:30:34.151Z</time>
      </trkpt>
      <trkpt lat="48.05313" lon="6.86095">
        <ele>755</ele>
        <time>2020-10-28T11:30:35.151Z</time>
      </trkpt>
      <trkpt lat="48.05314" lon="6.86093">
        <ele>756</ele>
        <time>2020-10-28T11:30:36.152Z</time>
      </trkpt>
      <trkpt lat="48.05315" lon="6.86092">
        <ele>756</ele>
        <time>2020-10-28T11:30:37.152Z</time>
      </trkpt>
      <trkpt lat="48.05317" lon="6.86091">
        <ele>755</ele>
        <time>2020-10-28T11:30:38.151Z</time>
      </trkpt>
      <trkpt lat="48.05317" lon="6.86091">
        <ele>755</ele>
        <time>2020-10-28T11:30:39.152Z</time>
      </trkpt>
      <trkpt lat="48.05318" lon="6.86091">
        <ele>755</ele>
        <time>2020-10-28T11:30:40.152Z</time>
      </trkpt>
      <trkpt lat="48.05319" lon="6.86091">
        <ele>754</ele>
        <time>2020-10-28T11:30:41.151Z</time>
      </trkpt>
      <trkpt lat="48.0532" lon="6.8609">
        <ele>754</ele>
        <time>2020-10-28T11:30:42.152Z</time>
      </trkpt>
      <trkpt lat="48.05321" lon="6.86089">
        <ele>753</ele>
        <time>2020-10-28T11:30:43.151Z</time>
      </trkpt>
      <trkpt lat="48.05323" lon="6.86087">
        <ele>753</ele>
        <time>2020-10-28T11:30:44.152Z</time>
      </trkpt>
      <trkpt lat="48.05324" lon="6.86086">
        <ele>752</ele>
        <time>2020-10-28T11:30:45.151Z</time>
      </trkpt>
      <trkpt lat="48.05325" lon="6.86085">
        <ele>752</ele>
        <time>2020-10-28T11:30:46.152Z</time>
      </trkpt>
      <trkpt lat="48.05326" lon="6.86085">
        <ele>751</ele>
        <time>2020-10-28T11:30:47.152Z</time>
      </trkpt>
      <trkpt lat="48.05327" lon="6.86084">
        <ele>751</ele>
        <time>2020-10-28T11:30:48.152Z</time>
      </trkpt>
      <trkpt lat="48.05328" lon="6.86083">
        <ele>751</ele>
        <time>2020-10-28T11:30:49.151Z</time>
      </trkpt>
      <trkpt lat="48.0533" lon="6.86081">
        <ele>751</ele>
        <time>2020-10-28T11:30:50.151Z</time>
      </trkpt>
      <trkpt lat="48.05331" lon="6.8608">
        <ele>751</ele>
        <time>2020-10-28T11:30:51.151Z</time>
      </trkpt>
      <trkpt lat="48.05332" lon="6.86078">
        <ele>750</ele>
        <time>2020-10-28T11:30:52.151Z</time>
      </trkpt>
      <trkpt lat="48.05333" lon="6.86077">
        <ele>750</ele>
        <time>2020-10-28T11:30:53.151Z</time>
      </trkpt>
      <trkpt lat="48.05334" lon="6.86076">
        <ele>750</ele>
        <time>2020-10-28T11:30:54.151Z</time>
      </trkpt>
      <trkpt lat="48.05335" lon="6.86075">
        <ele>749</ele>
        <time>2020-10-28T11:30:55.151Z</time>
      </trkpt>
      <trkpt lat="48.05337" lon="6.86073">
        <ele>749</ele>
        <time>2020-10-28T11:30:56.151Z</time>
      </trkpt>
      <trkpt lat="48.05338" lon="6.86072">
        <ele>749</ele>
        <time>2020-10-28T11:30:57.151Z</time>
      </trkpt>
      <trkpt lat="48.05339" lon="6.86071">
        <ele>750</ele>
        <time>2020-10-28T11:30:58.151Z</time>
      </trkpt>
      <trkpt lat="48.0534" lon="6.86069">
        <ele>750</ele>
        <time>2020-10-28T11:30:59.152Z</time>
      </trkpt>
      <trkpt lat="48.05341" lon="6.86068">
        <ele>750</ele>
        <time>2020-10-28T11:31:00.151Z</time>
      </trkpt>
      <trkpt lat="48.05342" lon="6.86067">
        <ele>749</ele>
        <time>2020-10-28T11:31:01.151Z</time>
      </trkpt>
      <trkpt lat="48.05343" lon="6.86066">
        <ele>749</ele>
        <time>2020-10-28T11:31:02.152Z</time>
      </trkpt>
      <trkpt lat="48.05344" lon="6.86065">
        <ele>749</ele>
        <time>2020-10-28T11:31:03.152Z</time>
      </trkpt>
      <trkpt lat="48.05345" lon="6.86064">
        <ele>749</ele>
        <time>2020-10-28T11:31:04.151Z</time>
      </trkpt>
      <trkpt lat="48.05346" lon="6.86063">
        <ele>748</ele>
        <time>2020-10-28T11:31:05.151Z</time>
      </trkpt>
      <trkpt lat="48.05347" lon="6.86062">
        <ele>748</ele>
        <time>2020-10-28T11:31:06.152Z</time>
      </trkpt>
      <trkpt lat="48.05348" lon="6.86061">
        <ele>747</ele>
        <time>2020-10-28T11:31:07.151Z</time>
      </trkpt>
      <trkpt lat="48.0535" lon="6.86059">
        <ele>747</ele>
        <time>2020-10-28T11:31:08.152Z</time>
      </trkpt>
      <trkpt lat="48.05351" lon="6.86058">
        <ele>747</ele>
        <time>2020-10-28T11:31:09.152Z</time>
      </trkpt>
      <trkpt lat="48.05353" lon="6.86056">
        <ele>746</ele>
        <time>2020-10-28T11:31:10.152Z</time>
      </trkpt>
      <trkpt lat="48.05354" lon="6.86055">
        <ele>746</ele>
        <time>2020-10-28T11:31:11.152Z</time>
      </trkpt>
      <trkpt lat="48.05355" lon="6.86053">
        <ele>746</ele>
        <time>2020-10-28T11:31:12.152Z</time>
      </trkpt>
      <trkpt lat="48.05356" lon="6.86052">
        <ele>746</ele>
        <time>2020-10-28T11:31:13.152Z</time>
      </trkpt>
      <trkpt lat="48.05357" lon="6.8605">
        <ele>746</ele>
        <time>2020-10-28T11:31:14.152Z</time>
      </trkpt>
      <trkpt lat="48.05358" lon="6.86048">
        <ele>746</ele>
        <time>2020-10-28T11:31:15.152Z</time>
      </trkpt>
      <trkpt lat="48.0536" lon="6.86047">
        <ele>746</ele>
        <time>2020-10-28T11:31:16.151Z</time>
      </trkpt>
      <trkpt lat="48.05361" lon="6.86045">
        <ele>745</ele>
        <time>2020-10-28T11:31:17.152Z</time>
      </trkpt>
      <trkpt lat="48.05362" lon="6.86044">
        <ele>745</ele>
        <time>2020-10-28T11:31:18.152Z</time>
      </trkpt>
      <trkpt lat="48.05364" lon="6.86043">
        <ele>745</ele>
        <time>2020-10-28T11:31:19.151Z</time>
      </trkpt>
      <trkpt lat="48.05365" lon="6.86042">
        <ele>745</ele>
        <time>2020-10-28T11:31:20.152Z</time>
      </trkpt>
      <trkpt lat="48.05366" lon="6.8604">
        <ele>745</ele>
        <time>2020-10-28T11:31:21.152Z</time>
      </trkpt>
      <trkpt lat="48.05367" lon="6.86039">
        <ele>745</ele>
        <time>2020-10-28T11:31:22.151Z</time>
      </trkpt>
      <trkpt lat="48.05369" lon="6.86038">
        <ele>745</ele>
        <time>2020-10-28T11:31:23.152Z</time>
      </trkpt>
      <trkpt lat="48.0537" lon="6.86037">
        <ele>745</ele>
        <time>2020-10-28T11:31:24.152Z</time>
      </trkpt>
      <trkpt lat="48.05371" lon="6.86037">
        <ele>745</ele>
        <time>2020-10-28T11:31:25.152Z</time>
      </trkpt>
      <trkpt lat="48.05373" lon="6.86036">
        <ele>745</ele>
        <time>2020-10-28T11:31:26.151Z</time>
      </trkpt>
      <trkpt lat="48.05374" lon="6.86035">
        <ele>744</ele>
        <time>2020-10-28T11:31:27.152Z</time>
      </trkpt>
      <trkpt lat="48.05375" lon="6.86034">
        <ele>744</ele>
        <time>2020-10-28T11:31:28.152Z</time>
      </trkpt>
      <trkpt lat="48.05376" lon="6.86033">
        <ele>744</ele>
        <time>2020-10-28T11:31:29.152Z</time>
      </trkpt>
      <trkpt lat="48.05378" lon="6.86033">
        <ele>743</ele>
        <time>2020-10-28T11:31:30.152Z</time>
      </trkpt>
      <trkpt lat="48.05379" lon="6.86032">
        <ele>743</ele>
        <time>2020-10-28T11:31:31.152Z</time>
      </trkpt>
      <trkpt lat="48.0538" lon="6.86031">
        <ele>743</ele>
        <time>2020-10-28T11:31:32.152Z</time>
      </trkpt>
      <trkpt lat="48.05381" lon="6.8603">
        <ele>743</ele>
        <time>2020-10-28T11:31:33.152Z</time>
      </trkpt>
      <trkpt lat="48.05383" lon="6.8603">
        <ele>743</ele>
        <time>2020-10-28T11:31:34.152Z</time>
      </trkpt>
      <trkpt lat="48.05384" lon="6.86029">
        <ele>742</ele>
        <time>2020-10-28T11:31:35.151Z</time>
      </trkpt>
      <trkpt lat="48.05385" lon="6.86028">
        <ele>742</ele>
        <time>2020-10-28T11:31:36.151Z</time>
      </trkpt>
      <trkpt lat="48.05387" lon="6.86027">
        <ele>742</ele>
        <time>2020-10-28T11:31:37.152Z</time>
      </trkpt>
      <trkpt lat="48.05388" lon="6.86027">
        <ele>742</ele>
        <time>2020-10-28T11:31:38.152Z</time>
      </trkpt>
      <trkpt lat="48.0539" lon="6.86026">
        <ele>742</ele>
        <time>2020-10-28T11:31:39.152Z</time>
      </trkpt>
      <trkpt lat="48.05391" lon="6.86025">
        <ele>742</ele>
        <time>2020-10-28T11:31:40.152Z</time>
      </trkpt>
      <trkpt lat="48.05392" lon="6.86024">
        <ele>742</ele>
        <time>2020-10-28T11:31:41.152Z</time>
      </trkpt>
      <trkpt lat="48.05394" lon="6.86023">
        <ele>742</ele>
        <time>2020-10-28T11:31:42.152Z</time>
      </trkpt>
      <trkpt lat="48.05395" lon="6.86022">
        <ele>743</ele>
        <time>2020-10-28T11:31:43.152Z</time>
      </trkpt>
      <trkpt lat="48.05397" lon="6.86021">
        <ele>743</ele>
        <time>2020-10-28T11:31:44.152Z</time>
      </trkpt>
      <trkpt lat="48.05398" lon="6.8602">
        <ele>744</ele>
        <time>2020-10-28T11:31:45.152Z</time>
      </trkpt>
      <trkpt lat="48.05399" lon="6.8602">
        <ele>744</ele>
        <time>2020-10-28T11:31:46.152Z</time>
      </trkpt>
      <trkpt lat="48.05401" lon="6.86019">
        <ele>744</ele>
        <time>2020-10-28T11:31:47.152Z</time>
      </trkpt>
      <trkpt lat="48.05402" lon="6.86019">
        <ele>744</ele>
        <time>2020-10-28T11:31:48.151Z</time>
      </trkpt>
      <trkpt lat="48.05403" lon="6.86018">
        <ele>744</ele>
        <time>2020-10-28T11:31:49.151Z</time>
      </trkpt>
      <trkpt lat="48.05405" lon="6.86017">
        <ele>744</ele>
        <time>2020-10-28T11:31:50.151Z</time>
      </trkpt>
      <trkpt lat="48.05406" lon="6.86015">
        <ele>744</ele>
        <time>2020-10-28T11:31:51.152Z</time>
      </trkpt>
      <trkpt lat="48.05407" lon="6.86014">
        <ele>745</ele>
        <time>2020-10-28T11:31:52.151Z</time>
      </trkpt>
      <trkpt lat="48.05409" lon="6.86012">
        <ele>745</ele>
        <time>2020-10-28T11:31:53.152Z</time>
      </trkpt>
      <trkpt lat="48.0541" lon="6.86011">
        <ele>745</ele>
        <time>2020-10-28T11:31:54.152Z</time>
      </trkpt>
      <trkpt lat="48.05411" lon="6.86011">
        <ele>744</ele>
        <time>2020-10-28T11:31:55.151Z</time>
      </trkpt>
      <trkpt lat="48.05412" lon="6.8601">
        <ele>744</ele>
        <time>2020-10-28T11:31:56.152Z</time>
      </trkpt>
      <trkpt lat="48.05414" lon="6.8601">
        <ele>743</ele>
        <time>2020-10-28T11:31:57.152Z</time>
      </trkpt>
      <trkpt lat="48.05415" lon="6.86009">
        <ele>742</ele>
        <time>2020-10-28T11:31:58.151Z</time>
      </trkpt>
      <trkpt lat="48.05416" lon="6.86007">
        <ele>742</ele>
        <time>2020-10-28T11:31:59.152Z</time>
      </trkpt>
      <trkpt lat="48.05417" lon="6.86006">
        <ele>741</ele>
        <time>2020-10-28T11:32:00.152Z</time>
      </trkpt>
      <trkpt lat="48.05419" lon="6.86005">
        <ele>741</ele>
        <time>2020-10-28T11:32:01.151Z</time>
      </trkpt>
      <trkpt lat="48.0542" lon="6.86004">
        <ele>740</ele>
        <time>2020-10-28T11:32:02.152Z</time>
      </trkpt>
      <trkpt lat="48.0542" lon="6.86003">
        <ele>739</ele>
        <time>2020-10-28T11:32:03.151Z</time>
      </trkpt>
      <trkpt lat="48.05422" lon="6.86">
        <ele>739</ele>
        <time>2020-10-28T11:32:04.152Z</time>
      </trkpt>
      <trkpt lat="48.05423" lon="6.85996">
        <ele>740</ele>
        <time>2020-10-28T11:32:05.152Z</time>
      </trkpt>
      <trkpt lat="48.05424" lon="6.85996">
        <ele>741</ele>
        <time>2020-10-28T11:32:06.152Z</time>
      </trkpt>
      <trkpt lat="48.05425" lon="6.85996">
        <ele>742</ele>
        <time>2020-10-28T11:32:07.152Z</time>
      </trkpt>
      <trkpt lat="48.05426" lon="6.85995">
        <ele>742</ele>
        <time>2020-10-28T11:32:08.152Z</time>
      </trkpt>
      <trkpt lat="48.05427" lon="6.85994">
        <ele>743</ele>
        <time>2020-10-28T11:32:09.152Z</time>
      </trkpt>
      <trkpt lat="48.05429" lon="6.85993">
        <ele>744</ele>
        <time>2020-10-28T11:32:10.152Z</time>
      </trkpt>
      <trkpt lat="48.0543" lon="6.85992">
        <ele>744</ele>
        <time>2020-10-28T11:32:11.152Z</time>
      </trkpt>
      <trkpt lat="48.05431" lon="6.85991">
        <ele>745</ele>
        <time>2020-10-28T11:32:12.152Z</time>
      </trkpt>
      <trkpt lat="48.05432" lon="6.8599">
        <ele>745</ele>
        <time>2020-10-28T11:32:13.152Z</time>
      </trkpt>
      <trkpt lat="48.05434" lon="6.85989">
        <ele>746</ele>
        <time>2020-10-28T11:32:14.151Z</time>
      </trkpt>
      <trkpt lat="48.05435" lon="6.85988">
        <ele>746</ele>
        <time>2020-10-28T11:32:15.151Z</time>
      </trkpt>
      <trkpt lat="48.05436" lon="6.85987">
        <ele>746</ele>
        <time>2020-10-28T11:32:16.151Z</time>
      </trkpt>
      <trkpt lat="48.05438" lon="6.85986">
        <ele>746</ele>
        <time>2020-10-28T11:32:17.151Z</time>
      </trkpt>
      <trkpt lat="48.05439" lon="6.85985">
        <ele>747</ele>
        <time>2020-10-28T11:32:18.151Z</time>
      </trkpt>
      <trkpt lat="48.0544" lon="6.85983">
        <ele>748</ele>
        <time>2020-10-28T11:32:19.152Z</time>
      </trkpt>
      <trkpt lat="48.05442" lon="6.85982">
        <ele>748</ele>
        <time>2020-10-28T11:32:20.152Z</time>
      </trkpt>
      <trkpt lat="48.05443" lon="6.85981">
        <ele>748</ele>
        <time>2020-10-28T11:32:21.152Z</time>
      </trkpt>
      <trkpt lat="48.05444" lon="6.85981">
        <ele>748</ele>
        <time>2020-10-28T11:32:22.151Z</time>
      </trkpt>
      <trkpt lat="48.05445" lon="6.8598">
        <ele>749</ele>
        <time>2020-10-28T11:32:23.151Z</time>
      </trkpt>
      <trkpt lat="48.05446" lon="6.85979">
        <ele>749</ele>
        <time>2020-10-28T11:32:24.152Z</time>
      </trkpt>
      <trkpt lat="48.05447" lon="6.85979">
        <ele>748</ele>
        <time>2020-10-28T11:32:25.152Z</time>
      </trkpt>
      <trkpt lat="48.05449" lon="6.85979">
        <ele>748</ele>
        <time>2020-10-28T11:32:26.152Z</time>
      </trkpt>
      <trkpt lat="48.0545" lon="6.85978">
        <ele>748</ele>
        <time>2020-10-28T11:32:27.152Z</time>
      </trkpt>
      <trkpt lat="48.05452" lon="6.85978">
        <ele>748</ele>
        <time>2020-10-28T11:32:28.152Z</time>
      </trkpt>
      <trkpt lat="48.05453" lon="6.85979">
        <ele>748</ele>
        <time>2020-10-28T11:32:29.151Z</time>
      </trkpt>
      <trkpt lat="48.05455" lon="6.8598">
        <ele>748</ele>
        <time>2020-10-28T11:32:30.152Z</time>
      </trkpt>
      <trkpt lat="48.05456" lon="6.85981">
        <ele>748</ele>
        <time>2020-10-28T11:32:31.152Z</time>
      </trkpt>
      <trkpt lat="48.05457" lon="6.85981">
        <ele>748</ele>
        <time>2020-10-28T11:32:32.152Z</time>
      </trkpt>
      <trkpt lat="48.05459" lon="6.85982">
        <ele>748</ele>
        <time>2020-10-28T11:32:33.152Z</time>
      </trkpt>
      <trkpt lat="48.0546" lon="6.85982">
        <ele>748</ele>
        <time>2020-10-28T11:32:34.151Z</time>
      </trkpt>
      <trkpt lat="48.05462" lon="6.85982">
        <ele>749</ele>
        <time>2020-10-28T11:32:35.151Z</time>
      </trkpt>
      <trkpt lat="48.05463" lon="6.85982">
        <ele>749</ele>
        <time>2020-10-28T11:32:36.152Z</time>
      </trkpt>
      <trkpt lat="48.05465" lon="6.85982">
        <ele>749</ele>
        <time>2020-10-28T11:32:37.152Z</time>
      </trkpt>
      <trkpt lat="48.05466" lon="6.85982">
        <ele>749</ele>
        <time>2020-10-28T11:32:38.152Z</time>
      </trkpt>
      <trkpt lat="48.05467" lon="6.85981">
        <ele>749</ele>
        <time>2020-10-28T11:32:39.152Z</time>
      </trkpt>
      <trkpt lat="48.05468" lon="6.85981">
        <ele>750</ele>
        <time>2020-10-28T11:32:40.152Z</time>
      </trkpt>
      <trkpt lat="48.0547" lon="6.8598">
        <ele>750</ele>
        <time>2020-10-28T11:32:41.152Z</time>
      </trkpt>
      <trkpt lat="48.05471" lon="6.85979">
        <ele>750</ele>
        <time>2020-10-28T11:32:42.152Z</time>
      </trkpt>
      <trkpt lat="48.05472" lon="6.85979">
        <ele>751</ele>
        <time>2020-10-28T11:32:43.152Z</time>
      </trkpt>
      <trkpt lat="48.05473" lon="6.85978">
        <ele>751</ele>
        <time>2020-10-28T11:32:44.152Z</time>
      </trkpt>
      <trkpt lat="48.05474" lon="6.85977">
        <ele>751</ele>
        <time>2020-10-28T11:32:45.152Z</time>
      </trkpt>
      <trkpt lat="48.05475" lon="6.85976">
        <ele>751</ele>
        <time>2020-10-28T11:32:46.151Z</time>
      </trkpt>
      <trkpt lat="48.05476" lon="6.85975">
        <ele>752</ele>
        <time>2020-10-28T11:32:47.151Z</time>
      </trkpt>
      <trkpt lat="48.05478" lon="6.85974">
        <ele>752</ele>
        <time>2020-10-28T11:32:48.152Z</time>
      </trkpt>
      <trkpt lat="48.05478" lon="6.85973">
        <ele>752</ele>
        <time>2020-10-28T11:32:49.152Z</time>
      </trkpt>
      <trkpt lat="48.05479" lon="6.85972">
        <ele>753</ele>
        <time>2020-10-28T11:32:50.152Z</time>
      </trkpt>
      <trkpt lat="48.0548" lon="6.85972">
        <ele>753</ele>
        <time>2020-10-28T11:32:51.152Z</time>
      </trkpt>
      <trkpt lat="48.05481" lon="6.85971">
        <ele>753</ele>
        <time>2020-10-28T11:32:52.151Z</time>
      </trkpt>
      <trkpt lat="48.05483" lon="6.85971">
        <ele>754</ele>
        <time>2020-10-28T11:32:53.151Z</time>
      </trkpt>
      <trkpt lat="48.05484" lon="6.8597">
        <ele>754</ele>
        <time>2020-10-28T11:32:54.152Z</time>
      </trkpt>
      <trkpt lat="48.05486" lon="6.8597">
        <ele>754</ele>
        <time>2020-10-28T11:32:55.151Z</time>
      </trkpt>
      <trkpt lat="48.05488" lon="6.8597">
        <ele>754</ele>
        <time>2020-10-28T11:32:56.151Z</time>
      </trkpt>
      <trkpt lat="48.0549" lon="6.8597">
        <ele>754</ele>
        <time>2020-10-28T11:32:57.152Z</time>
      </trkpt>
      <trkpt lat="48.05492" lon="6.8597">
        <ele>753</ele>
        <time>2020-10-28T11:32:58.151Z</time>
      </trkpt>
      <trkpt lat="48.05493" lon="6.8597">
        <ele>753</ele>
        <time>2020-10-28T11:32:59.152Z</time>
      </trkpt>
      <trkpt lat="48.05495" lon="6.8597">
        <ele>752</ele>
        <time>2020-10-28T11:33:00.152Z</time>
      </trkpt>
      <trkpt lat="48.05496" lon="6.8597">
        <ele>752</ele>
        <time>2020-10-28T11:33:01.152Z</time>
      </trkpt>
      <trkpt lat="48.05497" lon="6.85969">
        <ele>751</ele>
        <time>2020-10-28T11:33:02.152Z</time>
      </trkpt>
      <trkpt lat="48.05497" lon="6.85968">
        <ele>751</ele>
        <time>2020-10-28T11:33:03.152Z</time>
      </trkpt>
      <trkpt lat="48.05498" lon="6.85967">
        <ele>751</ele>
        <time>2020-10-28T11:33:04.152Z</time>
      </trkpt>
      <trkpt lat="48.05499" lon="6.85966">
        <ele>751</ele>
        <time>2020-10-28T11:33:05.152Z</time>
      </trkpt>
      <trkpt lat="48.055" lon="6.85965">
        <ele>750</ele>
        <time>2020-10-28T11:33:06.151Z</time>
      </trkpt>
      <trkpt lat="48.05501" lon="6.85965">
        <ele>750</ele>
        <time>2020-10-28T11:33:07.151Z</time>
      </trkpt>
      <trkpt lat="48.05502" lon="6.85964">
        <ele>749</ele>
        <time>2020-10-28T11:33:08.152Z</time>
      </trkpt>
      <trkpt lat="48.05503" lon="6.85962">
        <ele>749</ele>
        <time>2020-10-28T11:33:09.151Z</time>
      </trkpt>
      <trkpt lat="48.05504" lon="6.85961">
        <ele>749</ele>
        <time>2020-10-28T11:33:10.152Z</time>
      </trkpt>
      <trkpt lat="48.05505" lon="6.8596">
        <ele>748</ele>
        <time>2020-10-28T11:33:11.152Z</time>
      </trkpt>
      <trkpt lat="48.05506" lon="6.85958">
        <ele>748</ele>
        <time>2020-10-28T11:33:12.151Z</time>
      </trkpt>
      <trkpt lat="48.05507" lon="6.85957">
        <ele>748</ele>
        <time>2020-10-28T11:33:13.152Z</time>
      </trkpt>
      <trkpt lat="48.05508" lon="6.85956">
        <ele>748</ele>
        <time>2020-10-28T11:33:14.152Z</time>
      </trkpt>
      <trkpt lat="48.05509" lon="6.85955">
        <ele>747</ele>
        <time>2020-10-28T11:33:15.152Z</time>
      </trkpt>
      <trkpt lat="48.05509" lon="6.85954">
        <ele>747</ele>
        <time>2020-10-28T11:33:16.152Z</time>
      </trkpt>
      <trkpt lat="48.0551" lon="6.85953">
        <ele>746</ele>
        <time>2020-10-28T11:33:17.152Z</time>
      </trkpt>
      <trkpt lat="48.0551" lon="6.85952">
        <ele>746</ele>
        <time>2020-10-28T11:33:18.152Z</time>
      </trkpt>
      <trkpt lat="48.05511" lon="6.85951">
        <ele>745</ele>
        <time>2020-10-28T11:33:19.151Z</time>
      </trkpt>
      <trkpt lat="48.05512" lon="6.8595">
        <ele>744</ele>
        <time>2020-10-28T11:33:20.151Z</time>
      </trkpt>
      <trkpt lat="48.05513" lon="6.85949">
        <ele>744</ele>
        <time>2020-10-28T11:33:21.152Z</time>
      </trkpt>
      <trkpt lat="48.05514" lon="6.85948">
        <ele>744</ele>
        <time>2020-10-28T11:33:22.152Z</time>
      </trkpt>
      <trkpt lat="48.05515" lon="6.85947">
        <ele>744</ele>
        <time>2020-10-28T11:33:23.151Z</time>
      </trkpt>
      <trkpt lat="48.05515" lon="6.85947">
        <ele>745</ele>
        <time>2020-10-28T11:33:24.151Z</time>
      </trkpt>
      <trkpt lat="48.05515" lon="6.85946">
        <ele>745</ele>
        <time>2020-10-28T11:33:25.151Z</time>
      </trkpt>
      <trkpt lat="48.05516" lon="6.85945">
        <ele>745</ele>
        <time>2020-10-28T11:33:26.152Z</time>
      </trkpt>
      <trkpt lat="48.05517" lon="6.85944">
        <ele>746</ele>
        <time>2020-10-28T11:33:27.151Z</time>
      </trkpt>
      <trkpt lat="48.05518" lon="6.85943">
        <ele>746</ele>
        <time>2020-10-28T11:33:28.152Z</time>
      </trkpt>
      <trkpt lat="48.05519" lon="6.85942">
        <ele>746</ele>
        <time>2020-10-28T11:33:29.152Z</time>
      </trkpt>
      <trkpt lat="48.05521" lon="6.85941">
        <ele>746</ele>
        <time>2020-10-28T11:33:30.152Z</time>
      </trkpt>
      <trkpt lat="48.05522" lon="6.8594">
        <ele>747</ele>
        <time>2020-10-28T11:33:31.152Z</time>
      </trkpt>
      <trkpt lat="48.05523" lon="6.8594">
        <ele>747</ele>
        <time>2020-10-28T11:33:32.152Z</time>
      </trkpt>
      <trkpt lat="48.05524" lon="6.85939">
        <ele>747</ele>
        <time>2020-10-28T11:33:33.152Z</time>
      </trkpt>
      <trkpt lat="48.05525" lon="6.85938">
        <ele>748</ele>
        <time>2020-10-28T11:33:34.151Z</time>
      </trkpt>
      <trkpt lat="48.05526" lon="6.85937">
        <ele>748</ele>
        <time>2020-10-28T11:33:35.152Z</time>
      </trkpt>
      <trkpt lat="48.05528" lon="6.85936">
        <ele>748</ele>
        <time>2020-10-28T11:33:36.152Z</time>
      </trkpt>
      <trkpt lat="48.05529" lon="6.85935">
        <ele>748</ele>
        <time>2020-10-28T11:33:37.152Z</time>
      </trkpt>
      <trkpt lat="48.05531" lon="6.85933">
        <ele>749</ele>
        <time>2020-10-28T11:33:38.152Z</time>
      </trkpt>
      <trkpt lat="48.05532" lon="6.85932">
        <ele>749</ele>
        <time>2020-10-28T11:33:39.152Z</time>
      </trkpt>
      <trkpt lat="48.05533" lon="6.85931">
        <ele>749</ele>
        <time>2020-10-28T11:33:40.152Z</time>
      </trkpt>
      <trkpt lat="48.05534" lon="6.85929">
        <ele>749</ele>
        <time>2020-10-28T11:33:41.152Z</time>
      </trkpt>
      <trkpt lat="48.05535" lon="6.85928">
        <ele>750</ele>
        <time>2020-10-28T11:33:42.152Z</time>
      </trkpt>
      <trkpt lat="48.05537" lon="6.85927">
        <ele>750</ele>
        <time>2020-10-28T11:33:43.152Z</time>
      </trkpt>
      <trkpt lat="48.05538" lon="6.85926">
        <ele>750</ele>
        <time>2020-10-28T11:33:44.152Z</time>
      </trkpt>
      <trkpt lat="48.05539" lon="6.85925">
        <ele>750</ele>
        <time>2020-10-28T11:33:45.152Z</time>
      </trkpt>
      <trkpt lat="48.0554" lon="6.85924">
        <ele>750</ele>
        <time>2020-10-28T11:33:46.152Z</time>
      </trkpt>
      <trkpt lat="48.05541" lon="6.85922">
        <ele>750</ele>
        <time>2020-10-28T11:33:47.152Z</time>
      </trkpt>
      <trkpt lat="48.05542" lon="6.85921">
        <ele>750</ele>
        <time>2020-10-28T11:33:48.152Z</time>
      </trkpt>
      <trkpt lat="48.05543" lon="6.85919">
        <ele>750</ele>
        <time>2020-10-28T11:33:49.152Z</time>
      </trkpt>
      <trkpt lat="48.05544" lon="6.85918">
        <ele>750</ele>
        <time>2020-10-28T11:33:50.152Z</time>
      </trkpt>
      <trkpt lat="48.05545" lon="6.85918">
        <ele>750</ele>
        <time>2020-10-28T11:33:51.152Z</time>
      </trkpt>
      <trkpt lat="48.05546" lon="6.85917">
        <ele>750</ele>
        <time>2020-10-28T11:33:52.152Z</time>
      </trkpt>
      <trkpt lat="48.05548" lon="6.85916">
        <ele>750</ele>
        <time>2020-10-28T11:33:53.151Z</time>
      </trkpt>
      <trkpt lat="48.05549" lon="6.85916">
        <ele>750</ele>
        <time>2020-10-28T11:33:54.152Z</time>
      </trkpt>
      <trkpt lat="48.0555" lon="6.85915">
        <ele>750</ele>
        <time>2020-10-28T11:33:55.152Z</time>
      </trkpt>
      <trkpt lat="48.05551" lon="6.85914">
        <ele>751</ele>
        <time>2020-10-28T11:33:56.151Z</time>
      </trkpt>
      <trkpt lat="48.05553" lon="6.85912">
        <ele>751</ele>
        <time>2020-10-28T11:33:57.152Z</time>
      </trkpt>
      <trkpt lat="48.05555" lon="6.85911">
        <ele>751</ele>
        <time>2020-10-28T11:33:58.151Z</time>
      </trkpt>
      <trkpt lat="48.05556" lon="6.8591">
        <ele>752</ele>
        <time>2020-10-28T11:33:59.152Z</time>
      </trkpt>
      <trkpt lat="48.05558" lon="6.85909">
        <ele>752</ele>
        <time>2020-10-28T11:34:00.152Z</time>
      </trkpt>
      <trkpt lat="48.0556" lon="6.85908">
        <ele>752</ele>
        <time>2020-10-28T11:34:01.151Z</time>
      </trkpt>
      <trkpt lat="48.05561" lon="6.85907">
        <ele>752</ele>
        <time>2020-10-28T11:34:02.151Z</time>
      </trkpt>
      <trkpt lat="48.05562" lon="6.85906">
        <ele>752</ele>
        <time>2020-10-28T11:34:03.152Z</time>
      </trkpt>
      <trkpt lat="48.05563" lon="6.85906">
        <ele>752</ele>
        <time>2020-10-28T11:34:04.151Z</time>
      </trkpt>
      <trkpt lat="48.05565" lon="6.85906">
        <ele>752</ele>
        <time>2020-10-28T11:34:05.152Z</time>
      </trkpt>
      <trkpt lat="48.05566" lon="6.85906">
        <ele>751</ele>
        <time>2020-10-28T11:34:06.152Z</time>
      </trkpt>
      <trkpt lat="48.05567" lon="6.85906">
        <ele>751</ele>
        <time>2020-10-28T11:34:07.151Z</time>
      </trkpt>
      <trkpt lat="48.05568" lon="6.85906">
        <ele>750</ele>
        <time>2020-10-28T11:34:08.151Z</time>
      </trkpt>
      <trkpt lat="48.0557" lon="6.85906">
        <ele>750</ele>
        <time>2020-10-28T11:34:09.151Z</time>
      </trkpt>
      <trkpt lat="48.05571" lon="6.85906">
        <ele>750</ele>
        <time>2020-10-28T11:34:10.152Z</time>
      </trkpt>
      <trkpt lat="48.05573" lon="6.85905">
        <ele>750</ele>
        <time>2020-10-28T11:34:11.151Z</time>
      </trkpt>
      <trkpt lat="48.05574" lon="6.85904">
        <ele>750</ele>
        <time>2020-10-28T11:34:12.152Z</time>
      </trkpt>
      <trkpt lat="48.05575" lon="6.85903">
        <ele>751</ele>
        <time>2020-10-28T11:34:13.152Z</time>
      </trkpt>
      <trkpt lat="48.05576" lon="6.85902">
        <ele>751</ele>
        <time>2020-10-28T11:34:14.152Z</time>
      </trkpt>
      <trkpt lat="48.05578" lon="6.85902">
        <ele>751</ele>
        <time>2020-10-28T11:34:15.152Z</time>
      </trkpt>
      <trkpt lat="48.05579" lon="6.859">
        <ele>752</ele>
        <time>2020-10-28T11:34:16.152Z</time>
      </trkpt>
      <trkpt lat="48.05581" lon="6.85899">
        <ele>752</ele>
        <time>2020-10-28T11:34:17.151Z</time>
      </trkpt>
      <trkpt lat="48.05582" lon="6.85898">
        <ele>752</ele>
        <time>2020-10-28T11:34:18.152Z</time>
      </trkpt>
      <trkpt lat="48.05584" lon="6.85897">
        <ele>752</ele>
        <time>2020-10-28T11:34:19.152Z</time>
      </trkpt>
      <trkpt lat="48.05585" lon="6.85896">
        <ele>752</ele>
        <time>2020-10-28T11:34:20.152Z</time>
      </trkpt>
      <trkpt lat="48.05586" lon="6.85894">
        <ele>752</ele>
        <time>2020-10-28T11:34:21.151Z</time>
      </trkpt>
      <trkpt lat="48.05587" lon="6.85893">
        <ele>752</ele>
        <time>2020-10-28T11:34:22.152Z</time>
      </trkpt>
      <trkpt lat="48.05589" lon="6.85892">
        <ele>752</ele>
        <time>2020-10-28T11:34:23.152Z</time>
      </trkpt>
      <trkpt lat="48.0559" lon="6.8589">
        <ele>752</ele>
        <time>2020-10-28T11:34:24.152Z</time>
      </trkpt>
      <trkpt lat="48.05591" lon="6.85889">
        <ele>752</ele>
        <time>2020-10-28T11:34:25.152Z</time>
      </trkpt>
      <trkpt lat="48.05593" lon="6.85887">
        <ele>752</ele>
        <time>2020-10-28T11:34:26.152Z</time>
      </trkpt>
      <trkpt lat="48.05593" lon="6.85885">
        <ele>752</ele>
        <time>2020-10-28T11:34:27.152Z</time>
      </trkpt>
      <trkpt lat="48.05595" lon="6.85883">
        <ele>751</ele>
        <time>2020-10-28T11:34:28.152Z</time>
      </trkpt>
      <trkpt lat="48.05596" lon="6.85882">
        <ele>751</ele>
        <time>2020-10-28T11:34:29.152Z</time>
      </trkpt>
      <trkpt lat="48.05597" lon="6.8588">
        <ele>752</ele>
        <time>2020-10-28T11:34:30.152Z</time>
      </trkpt>
      <trkpt lat="48.05599" lon="6.85879">
        <ele>752</ele>
        <time>2020-10-28T11:34:31.151Z</time>
      </trkpt>
      <trkpt lat="48.056" lon="6.85878">
        <ele>751</ele>
        <time>2020-10-28T11:34:32.151Z</time>
      </trkpt>
      <trkpt lat="48.05601" lon="6.85878">
        <ele>751</ele>
        <time>2020-10-28T11:34:33.152Z</time>
      </trkpt>
      <trkpt lat="48.05602" lon="6.85878">
        <ele>752</ele>
        <time>2020-10-28T11:34:34.152Z</time>
      </trkpt>
      <trkpt lat="48.05604" lon="6.85877">
        <ele>751</ele>
        <time>2020-10-28T11:34:35.151Z</time>
      </trkpt>
      <trkpt lat="48.05605" lon="6.85877">
        <ele>751</ele>
        <time>2020-10-28T11:34:36.152Z</time>
      </trkpt>
      <trkpt lat="48.05606" lon="6.85876">
        <ele>751</ele>
        <time>2020-10-28T11:34:37.152Z</time>
      </trkpt>
      <trkpt lat="48.05607" lon="6.85876">
        <ele>751</ele>
        <time>2020-10-28T11:34:38.152Z</time>
      </trkpt>
      <trkpt lat="48.05608" lon="6.85875">
        <ele>751</ele>
        <time>2020-10-28T11:34:39.151Z</time>
      </trkpt>
      <trkpt lat="48.05609" lon="6.85874">
        <ele>751</ele>
        <time>2020-10-28T11:34:40.151Z</time>
      </trkpt>
      <trkpt lat="48.0561" lon="6.85873">
        <ele>751</ele>
        <time>2020-10-28T11:34:41.152Z</time>
      </trkpt>
      <trkpt lat="48.05612" lon="6.85871">
        <ele>751</ele>
        <time>2020-10-28T11:34:42.152Z</time>
      </trkpt>
      <trkpt lat="48.05613" lon="6.8587">
        <ele>751</ele>
        <time>2020-10-28T11:34:43.152Z</time>
      </trkpt>
      <trkpt lat="48.05615" lon="6.85868">
        <ele>751</ele>
        <time>2020-10-28T11:34:44.151Z</time>
      </trkpt>
      <trkpt lat="48.05616" lon="6.85868">
        <ele>751</ele>
        <time>2020-10-28T11:34:45.152Z</time>
      </trkpt>
      <trkpt lat="48.05617" lon="6.85867">
        <ele>751</ele>
        <time>2020-10-28T11:34:46.151Z</time>
      </trkpt>
      <trkpt lat="48.05618" lon="6.85867">
        <ele>751</ele>
        <time>2020-10-28T11:34:47.152Z</time>
      </trkpt>
      <trkpt lat="48.05619" lon="6.85866">
        <ele>751</ele>
        <time>2020-10-28T11:34:48.151Z</time>
      </trkpt>
      <trkpt lat="48.0562" lon="6.85865">
        <ele>751</ele>
        <time>2020-10-28T11:34:49.151Z</time>
      </trkpt>
      <trkpt lat="48.05621" lon="6.85864">
        <ele>752</ele>
        <time>2020-10-28T11:34:50.152Z</time>
      </trkpt>
      <trkpt lat="48.05622" lon="6.85863">
        <ele>752</ele>
        <time>2020-10-28T11:34:51.151Z</time>
      </trkpt>
      <trkpt lat="48.05624" lon="6.85862">
        <ele>753</ele>
        <time>2020-10-28T11:34:52.152Z</time>
      </trkpt>
      <trkpt lat="48.05626" lon="6.85861">
        <ele>753</ele>
        <time>2020-10-28T11:34:53.151Z</time>
      </trkpt>
      <trkpt lat="48.05627" lon="6.8586">
        <ele>753</ele>
        <time>2020-10-28T11:34:54.151Z</time>
      </trkpt>
      <trkpt lat="48.05627" lon="6.85859">
        <ele>753</ele>
        <time>2020-10-28T11:34:55.152Z</time>
      </trkpt>
      <trkpt lat="48.05629" lon="6.85859">
        <ele>753</ele>
        <time>2020-10-28T11:34:56.152Z</time>
      </trkpt>
      <trkpt lat="48.0563" lon="6.85858">
        <ele>754</ele>
        <time>2020-10-28T11:34:57.152Z</time>
      </trkpt>
      <trkpt lat="48.05632" lon="6.85857">
        <ele>754</ele>
        <time>2020-10-28T11:34:58.152Z</time>
      </trkpt>
      <trkpt lat="48.05633" lon="6.85856">
        <ele>754</ele>
        <time>2020-10-28T11:34:59.152Z</time>
      </trkpt>
      <trkpt lat="48.05634" lon="6.85856">
        <ele>754</ele>
        <time>2020-10-28T11:35:00.152Z</time>
      </trkpt>
      <trkpt lat="48.05635" lon="6.85855">
        <ele>754</ele>
        <time>2020-10-28T11:35:01.152Z</time>
      </trkpt>
      <trkpt lat="48.05637" lon="6.85853">
        <ele>754</ele>
        <time>2020-10-28T11:35:02.152Z</time>
      </trkpt>
      <trkpt lat="48.05638" lon="6.85853">
        <ele>755</ele>
        <time>2020-10-28T11:35:03.152Z</time>
      </trkpt>
      <trkpt lat="48.05639" lon="6.85852">
        <ele>755</ele>
        <time>2020-10-28T11:35:04.152Z</time>
      </trkpt>
      <trkpt lat="48.0564" lon="6.85852">
        <ele>755</ele>
        <time>2020-10-28T11:35:05.152Z</time>
      </trkpt>
      <trkpt lat="48.05641" lon="6.85851">
        <ele>755</ele>
        <time>2020-10-28T11:35:06.151Z</time>
      </trkpt>
      <trkpt lat="48.05643" lon="6.8585">
        <ele>756</ele>
        <time>2020-10-28T11:35:07.152Z</time>
      </trkpt>
      <trkpt lat="48.05645" lon="6.8585">
        <ele>756</ele>
        <time>2020-10-28T11:35:08.151Z</time>
      </trkpt>
      <trkpt lat="48.05646" lon="6.8585">
        <ele>757</ele>
        <time>2020-10-28T11:35:09.152Z</time>
      </trkpt>
      <trkpt lat="48.05648" lon="6.85849">
        <ele>757</ele>
        <time>2020-10-28T11:35:10.151Z</time>
      </trkpt>
      <trkpt lat="48.05649" lon="6.85849">
        <ele>756</ele>
        <time>2020-10-28T11:35:11.152Z</time>
      </trkpt>
      <trkpt lat="48.0565" lon="6.85848">
        <ele>756</ele>
        <time>2020-10-28T11:35:12.151Z</time>
      </trkpt>
      <trkpt lat="48.05652" lon="6.85848">
        <ele>756</ele>
        <time>2020-10-28T11:35:13.152Z</time>
      </trkpt>
      <trkpt lat="48.05652" lon="6.85847">
        <ele>756</ele>
        <time>2020-10-28T11:35:14.152Z</time>
      </trkpt>
      <trkpt lat="48.05653" lon="6.85846">
        <ele>756</ele>
        <time>2020-10-28T11:35:15.151Z</time>
      </trkpt>
      <trkpt lat="48.05654" lon="6.85845">
        <ele>757</ele>
        <time>2020-10-28T11:35:16.151Z</time>
      </trkpt>
      <trkpt lat="48.05655" lon="6.85843">
        <ele>757</ele>
        <time>2020-10-28T11:35:17.151Z</time>
      </trkpt>
      <trkpt lat="48.05656" lon="6.85842">
        <ele>757</ele>
        <time>2020-10-28T11:35:18.151Z</time>
      </trkpt>
      <trkpt lat="48.05658" lon="6.85841">
        <ele>757</ele>
        <time>2020-10-28T11:35:19.152Z</time>
      </trkpt>
      <trkpt lat="48.05659" lon="6.8584">
        <ele>757</ele>
        <time>2020-10-28T11:35:20.151Z</time>
      </trkpt>
      <trkpt lat="48.0566" lon="6.85839">
        <ele>757</ele>
        <time>2020-10-28T11:35:21.152Z</time>
      </trkpt>
      <trkpt lat="48.05662" lon="6.85838">
        <ele>757</ele>
        <time>2020-10-28T11:35:22.151Z</time>
      </trkpt>
      <trkpt lat="48.05663" lon="6.85838">
        <ele>758</ele>
        <time>2020-10-28T11:35:23.152Z</time>
      </trkpt>
      <trkpt lat="48.05665" lon="6.85837">
        <ele>758</ele>
        <time>2020-10-28T11:35:24.152Z</time>
      </trkpt>
      <trkpt lat="48.05666" lon="6.85836">
        <ele>758</ele>
        <time>2020-10-28T11:35:25.152Z</time>
      </trkpt>
      <trkpt lat="48.05668" lon="6.85835">
        <ele>757</ele>
        <time>2020-10-28T11:35:26.151Z</time>
      </trkpt>
      <trkpt lat="48.05669" lon="6.85834">
        <ele>758</ele>
        <time>2020-10-28T11:35:27.151Z</time>
      </trkpt>
      <trkpt lat="48.0567" lon="6.85833">
        <ele>758</ele>
        <time>2020-10-28T11:35:28.152Z</time>
      </trkpt>
      <trkpt lat="48.05671" lon="6.85833">
        <ele>758</ele>
        <time>2020-10-28T11:35:29.151Z</time>
      </trkpt>
      <trkpt lat="48.05672" lon="6.85832">
        <ele>758</ele>
        <time>2020-10-28T11:35:30.151Z</time>
      </trkpt>
      <trkpt lat="48.05673" lon="6.8583">
        <ele>757</ele>
        <time>2020-10-28T11:35:31.151Z</time>
      </trkpt>
      <trkpt lat="48.05674" lon="6.85829">
        <ele>757</ele>
        <time>2020-10-28T11:35:32.151Z</time>
      </trkpt>
      <trkpt lat="48.05676" lon="6.85828">
        <ele>757</ele>
        <time>2020-10-28T11:35:33.152Z</time>
      </trkpt>
      <trkpt lat="48.05677" lon="6.85826">
        <ele>757</ele>
        <time>2020-10-28T11:35:34.151Z</time>
      </trkpt>
      <trkpt lat="48.05678" lon="6.85825">
        <ele>758</ele>
        <time>2020-10-28T11:35:35.152Z</time>
      </trkpt>
      <trkpt lat="48.05679" lon="6.85823">
        <ele>758</ele>
        <time>2020-10-28T11:35:36.152Z</time>
      </trkpt>
      <trkpt lat="48.05681" lon="6.85822">
        <ele>758</ele>
        <time>2020-10-28T11:35:37.152Z</time>
      </trkpt>
      <trkpt lat="48.05682" lon="6.8582">
        <ele>758</ele>
        <time>2020-10-28T11:35:44.301Z</time>
      </trkpt>
      <trkpt lat="48.05683" lon="6.85819">
        <ele>758</ele>
        <time>2020-10-28T11:35:45.301Z</time>
      </trkpt>
      <trkpt lat="48.05684" lon="6.85817">
        <ele>758</ele>
        <time>2020-10-28T11:35:46.300Z</time>
      </trkpt>
      <trkpt lat="48.05685" lon="6.85816">
        <ele>758</ele>
        <time>2020-10-28T11:35:47.301Z</time>
      </trkpt>
      <trkpt lat="48.05686" lon="6.85815">
        <ele>758</ele>
        <time>2020-10-28T11:35:48.301Z</time>
      </trkpt>
      <trkpt lat="48.05687" lon="6.85813">
        <ele>758</ele>
        <time>2020-10-28T11:35:49.301Z</time>
      </trkpt>
      <trkpt lat="48.05688" lon="6.85811">
        <ele>758</ele>
        <time>2020-10-28T11:35:50.301Z</time>
      </trkpt>
      <trkpt lat="48.05689" lon="6.8581">
        <ele>758</ele>
        <time>2020-10-28T11:35:51.300Z</time>
      </trkpt>
      <trkpt lat="48.0569" lon="6.85808">
        <ele>758</ele>
        <time>2020-10-28T11:35:52.301Z</time>
      </trkpt>
      <trkpt lat="48.05692" lon="6.85807">
        <ele>758</ele>
        <time>2020-10-28T11:35:53.301Z</time>
      </trkpt>
      <trkpt lat="48.05693" lon="6.85805">
        <ele>758</ele>
        <time>2020-10-28T11:35:54.301Z</time>
      </trkpt>
      <trkpt lat="48.05694" lon="6.85804">
        <ele>757</ele>
        <time>2020-10-28T11:35:55.301Z</time>
      </trkpt>
      <trkpt lat="48.05695" lon="6.85802">
        <ele>757</ele>
        <time>2020-10-28T11:35:56.301Z</time>
      </trkpt>
      <trkpt lat="48.05696" lon="6.85801">
        <ele>757</ele>
        <time>2020-10-28T11:35:57.300Z</time>
      </trkpt>
      <trkpt lat="48.05697" lon="6.858">
        <ele>757</ele>
        <time>2020-10-28T11:35:58.301Z</time>
      </trkpt>
      <trkpt lat="48.05698" lon="6.85799">
        <ele>756</ele>
        <time>2020-10-28T11:35:59.301Z</time>
      </trkpt>
      <trkpt lat="48.05699" lon="6.85798">
        <ele>756</ele>
        <time>2020-10-28T11:36:00.301Z</time>
      </trkpt>
      <trkpt lat="48.057" lon="6.85796">
        <ele>756</ele>
        <time>2020-10-28T11:36:01.301Z</time>
      </trkpt>
      <trkpt lat="48.05701" lon="6.85795">
        <ele>755</ele>
        <time>2020-10-28T11:36:02.301Z</time>
      </trkpt>
      <trkpt lat="48.05703" lon="6.85794">
        <ele>755</ele>
        <time>2020-10-28T11:36:03.301Z</time>
      </trkpt>
      <trkpt lat="48.05704" lon="6.85792">
        <ele>755</ele>
        <time>2020-10-28T11:36:04.301Z</time>
      </trkpt>
      <trkpt lat="48.05705" lon="6.85791">
        <ele>755</ele>
        <time>2020-10-28T11:36:05.301Z</time>
      </trkpt>
      <trkpt lat="48.05706" lon="6.8579">
        <ele>755</ele>
        <time>2020-10-28T11:36:06.300Z</time>
      </trkpt>
      <trkpt lat="48.05707" lon="6.85789">
        <ele>756</ele>
        <time>2020-10-28T11:36:07.301Z</time>
      </trkpt>
      <trkpt lat="48.05708" lon="6.85787">
        <ele>756</ele>
        <time>2020-10-28T11:36:08.301Z</time>
      </trkpt>
      <trkpt lat="48.05709" lon="6.85786">
        <ele>757</ele>
        <time>2020-10-28T11:36:09.301Z</time>
      </trkpt>
      <trkpt lat="48.0571" lon="6.85785">
        <ele>757</ele>
        <time>2020-10-28T11:36:10.301Z</time>
      </trkpt>
      <trkpt lat="48.05711" lon="6.85784">
        <ele>757</ele>
        <time>2020-10-28T11:36:11.301Z</time>
      </trkpt>
      <trkpt lat="48.05712" lon="6.85783">
        <ele>758</ele>
        <time>2020-10-28T11:36:38.301Z</time>
      </trkpt>
      <trkpt lat="48.05713" lon="6.85782">
        <ele>758</ele>
        <time>2020-10-28T11:36:39.302Z</time>
      </trkpt>
      <trkpt lat="48.05714" lon="6.85781">
        <ele>758</ele>
        <time>2020-10-28T11:36:40.302Z</time>
      </trkpt>
      <trkpt lat="48.05715" lon="6.8578">
        <ele>759</ele>
        <time>2020-10-28T11:36:41.302Z</time>
      </trkpt>
      <trkpt lat="48.05717" lon="6.85779">
        <ele>759</ele>
        <time>2020-10-28T11:36:42.302Z</time>
      </trkpt>
      <trkpt lat="48.05718" lon="6.85778">
        <ele>759</ele>
        <time>2020-10-28T11:36:43.302Z</time>
      </trkpt>
      <trkpt lat="48.05719" lon="6.85777">
        <ele>759</ele>
        <time>2020-10-28T11:36:44.301Z</time>
      </trkpt>
      <trkpt lat="48.0572" lon="6.85776">
        <ele>759</ele>
        <time>2020-10-28T11:36:45.302Z</time>
      </trkpt>
      <trkpt lat="48.05721" lon="6.85775">
        <ele>758</ele>
        <time>2020-10-28T11:36:46.302Z</time>
      </trkpt>
      <trkpt lat="48.05722" lon="6.85774">
        <ele>758</ele>
        <time>2020-10-28T11:36:47.302Z</time>
      </trkpt>
      <trkpt lat="48.05724" lon="6.85773">
        <ele>758</ele>
        <time>2020-10-28T11:36:48.301Z</time>
      </trkpt>
      <trkpt lat="48.05725" lon="6.85772">
        <ele>758</ele>
        <time>2020-10-28T11:36:49.302Z</time>
      </trkpt>
      <trkpt lat="48.05726" lon="6.85771">
        <ele>759</ele>
        <time>2020-10-28T11:36:50.302Z</time>
      </trkpt>
      <trkpt lat="48.05728" lon="6.85769">
        <ele>759</ele>
        <time>2020-10-28T11:36:51.302Z</time>
      </trkpt>
      <trkpt lat="48.05729" lon="6.85768">
        <ele>760</ele>
        <time>2020-10-28T11:36:52.302Z</time>
      </trkpt>
      <trkpt lat="48.0573" lon="6.85767">
        <ele>760</ele>
        <time>2020-10-28T11:36:53.301Z</time>
      </trkpt>
      <trkpt lat="48.05732" lon="6.85765">
        <ele>761</ele>
        <time>2020-10-28T11:36:54.302Z</time>
      </trkpt>
      <trkpt lat="48.05733" lon="6.85764">
        <ele>761</ele>
        <time>2020-10-28T11:36:55.302Z</time>
      </trkpt>
      <trkpt lat="48.05734" lon="6.85763">
        <ele>762</ele>
        <time>2020-10-28T11:36:56.302Z</time>
      </trkpt>
      <trkpt lat="48.05735" lon="6.85761">
        <ele>762</ele>
        <time>2020-10-28T11:36:57.302Z</time>
      </trkpt>
      <trkpt lat="48.05736" lon="6.8576">
        <ele>762</ele>
        <time>2020-10-28T11:36:58.302Z</time>
      </trkpt>
      <trkpt lat="48.05737" lon="6.85759">
        <ele>762</ele>
        <time>2020-10-28T11:36:59.302Z</time>
      </trkpt>
      <trkpt lat="48.05739" lon="6.85758">
        <ele>762</ele>
        <time>2020-10-28T11:37:00.302Z</time>
      </trkpt>
      <trkpt lat="48.0574" lon="6.85757">
        <ele>762</ele>
        <time>2020-10-28T11:37:01.302Z</time>
      </trkpt>
      <trkpt lat="48.05741" lon="6.85757">
        <ele>762</ele>
        <time>2020-10-28T11:37:02.301Z</time>
      </trkpt>
      <trkpt lat="48.05743" lon="6.85756">
        <ele>762</ele>
        <time>2020-10-28T11:37:03.302Z</time>
      </trkpt>
      <trkpt lat="48.05744" lon="6.85755">
        <ele>762</ele>
        <time>2020-10-28T11:37:04.301Z</time>
      </trkpt>
      <trkpt lat="48.05746" lon="6.85754">
        <ele>762</ele>
        <time>2020-10-28T11:37:05.302Z</time>
      </trkpt>
      <trkpt lat="48.05747" lon="6.85752">
        <ele>763</ele>
        <time>2020-10-28T11:37:06.302Z</time>
      </trkpt>
      <trkpt lat="48.05749" lon="6.85751">
        <ele>763</ele>
        <time>2020-10-28T11:37:07.302Z</time>
      </trkpt>
      <trkpt lat="48.0575" lon="6.8575">
        <ele>764</ele>
        <time>2020-10-28T11:37:08.302Z</time>
      </trkpt>
      <trkpt lat="48.05751" lon="6.85749">
        <ele>764</ele>
        <time>2020-10-28T11:37:09.301Z</time>
      </trkpt>
      <trkpt lat="48.05752" lon="6.85748">
        <ele>764</ele>
        <time>2020-10-28T11:37:10.302Z</time>
      </trkpt>
      <trkpt lat="48.05754" lon="6.85746">
        <ele>764</ele>
        <time>2020-10-28T11:37:11.301Z</time>
      </trkpt>
      <trkpt lat="48.05755" lon="6.85745">
        <ele>764</ele>
        <time>2020-10-28T11:37:12.302Z</time>
      </trkpt>
      <trkpt lat="48.05756" lon="6.85744">
        <ele>764</ele>
        <time>2020-10-28T11:37:13.301Z</time>
      </trkpt>
      <trkpt lat="48.05757" lon="6.85743">
        <ele>764</ele>
        <time>2020-10-28T11:37:14.302Z</time>
      </trkpt>
      <trkpt lat="48.05758" lon="6.85743">
        <ele>764</ele>
        <time>2020-10-28T11:37:15.302Z</time>
      </trkpt>
      <trkpt lat="48.0576" lon="6.85743">
        <ele>765</ele>
        <time>2020-10-28T11:37:16.302Z</time>
      </trkpt>
      <trkpt lat="48.05761" lon="6.85742">
        <ele>765</ele>
        <time>2020-10-28T11:37:17.302Z</time>
      </trkpt>
      <trkpt lat="48.05763" lon="6.85741">
        <ele>765</ele>
        <time>2020-10-28T11:37:18.302Z</time>
      </trkpt>
      <trkpt lat="48.05764" lon="6.85741">
        <ele>764</ele>
        <time>2020-10-28T11:37:19.302Z</time>
      </trkpt>
      <trkpt lat="48.05765" lon="6.8574">
        <ele>764</ele>
        <time>2020-10-28T11:37:20.302Z</time>
      </trkpt>
      <trkpt lat="48.05766" lon="6.8574">
        <ele>763</ele>
        <time>2020-10-28T11:37:21.301Z</time>
      </trkpt>
      <trkpt lat="48.05767" lon="6.8574">
        <ele>763</ele>
        <time>2020-10-28T11:37:22.301Z</time>
      </trkpt>
      <trkpt lat="48.05769" lon="6.85739">
        <ele>763</ele>
        <time>2020-10-28T11:37:23.302Z</time>
      </trkpt>
      <trkpt lat="48.0577" lon="6.85739">
        <ele>763</ele>
        <time>2020-10-28T11:37:24.301Z</time>
      </trkpt>
      <trkpt lat="48.05772" lon="6.85738">
        <ele>763</ele>
        <time>2020-10-28T11:37:25.301Z</time>
      </trkpt>
      <trkpt lat="48.05772" lon="6.85737">
        <ele>764</ele>
        <time>2020-10-28T11:37:26.302Z</time>
      </trkpt>
      <trkpt lat="48.05774" lon="6.85738">
        <ele>764</ele>
        <time>2020-10-28T11:37:27.302Z</time>
      </trkpt>
      <trkpt lat="48.05775" lon="6.85738">
        <ele>764</ele>
        <time>2020-10-28T11:37:28.301Z</time>
      </trkpt>
      <trkpt lat="48.05776" lon="6.85738">
        <ele>764</ele>
        <time>2020-10-28T11:37:29.302Z</time>
      </trkpt>
      <trkpt lat="48.05777" lon="6.85738">
        <ele>764</ele>
        <time>2020-10-28T11:37:30.301Z</time>
      </trkpt>
      <trkpt lat="48.05778" lon="6.85738">
        <ele>765</ele>
        <time>2020-10-28T11:37:31.302Z</time>
      </trkpt>
      <trkpt lat="48.0578" lon="6.85738">
        <ele>764</ele>
        <time>2020-10-28T11:37:32.302Z</time>
      </trkpt>
      <trkpt lat="48.05781" lon="6.85738">
        <ele>764</ele>
        <time>2020-10-28T11:37:33.302Z</time>
      </trkpt>
      <trkpt lat="48.05783" lon="6.85738">
        <ele>764</ele>
        <time>2020-10-28T11:37:34.302Z</time>
      </trkpt>
      <trkpt lat="48.05784" lon="6.85738">
        <ele>764</ele>
        <time>2020-10-28T11:37:35.302Z</time>
      </trkpt>
      <trkpt lat="48.05786" lon="6.85737">
        <ele>764</ele>
        <time>2020-10-28T11:37:36.302Z</time>
      </trkpt>
      <trkpt lat="48.05787" lon="6.85737">
        <ele>763</ele>
        <time>2020-10-28T11:37:37.302Z</time>
      </trkpt>
      <trkpt lat="48.05789" lon="6.85737">
        <ele>763</ele>
        <time>2020-10-28T11:37:38.302Z</time>
      </trkpt>
      <trkpt lat="48.0579" lon="6.85737">
        <ele>763</ele>
        <time>2020-10-28T11:37:39.302Z</time>
      </trkpt>
      <trkpt lat="48.05791" lon="6.85737">
        <ele>763</ele>
        <time>2020-10-28T11:37:40.302Z</time>
      </trkpt>
      <trkpt lat="48.05793" lon="6.85737">
        <ele>763</ele>
        <time>2020-10-28T11:37:41.302Z</time>
      </trkpt>
      <trkpt lat="48.05794" lon="6.85737">
        <ele>763</ele>
        <time>2020-10-28T11:37:42.301Z</time>
      </trkpt>
      <trkpt lat="48.05796" lon="6.85737">
        <ele>763</ele>
        <time>2020-10-28T11:37:43.302Z</time>
      </trkpt>
      <trkpt lat="48.05797" lon="6.85736">
        <ele>762</ele>
        <time>2020-10-28T11:37:44.301Z</time>
      </trkpt>
      <trkpt lat="48.05798" lon="6.85736">
        <ele>762</ele>
        <time>2020-10-28T11:37:45.302Z</time>
      </trkpt>
      <trkpt lat="48.058" lon="6.85736">
        <ele>762</ele>
        <time>2020-10-28T11:37:46.302Z</time>
      </trkpt>
      <trkpt lat="48.05801" lon="6.85735">
        <ele>762</ele>
        <time>2020-10-28T11:37:47.302Z</time>
      </trkpt>
      <trkpt lat="48.05803" lon="6.85735">
        <ele>762</ele>
        <time>2020-10-28T11:37:48.301Z</time>
      </trkpt>
      <trkpt lat="48.05804" lon="6.85734">
        <ele>762</ele>
        <time>2020-10-28T11:37:49.302Z</time>
      </trkpt>
      <trkpt lat="48.05806" lon="6.85734">
        <ele>762</ele>
        <time>2020-10-28T11:37:50.302Z</time>
      </trkpt>
      <trkpt lat="48.05807" lon="6.85735">
        <ele>762</ele>
        <time>2020-10-28T11:37:51.302Z</time>
      </trkpt>
      <trkpt lat="48.05808" lon="6.85735">
        <ele>762</ele>
        <time>2020-10-28T11:37:52.301Z</time>
      </trkpt>
      <trkpt lat="48.0581" lon="6.85735">
        <ele>761</ele>
        <time>2020-10-28T11:37:53.302Z</time>
      </trkpt>
      <trkpt lat="48.05812" lon="6.85735">
        <ele>761</ele>
        <time>2020-10-28T11:37:54.302Z</time>
      </trkpt>
      <trkpt lat="48.05813" lon="6.85735">
        <ele>761</ele>
        <time>2020-10-28T11:37:55.302Z</time>
      </trkpt>
      <trkpt lat="48.05815" lon="6.85735">
        <ele>760</ele>
        <time>2020-10-28T11:37:56.302Z</time>
      </trkpt>
      <trkpt lat="48.05816" lon="6.85733">
        <ele>760</ele>
        <time>2020-10-28T11:37:57.301Z</time>
      </trkpt>
      <trkpt lat="48.05817" lon="6.85733">
        <ele>760</ele>
        <time>2020-10-28T11:37:58.302Z</time>
      </trkpt>
      <trkpt lat="48.05819" lon="6.85733">
        <ele>760</ele>
        <time>2020-10-28T11:37:59.302Z</time>
      </trkpt>
      <trkpt lat="48.0582" lon="6.85732">
        <ele>760</ele>
        <time>2020-10-28T11:38:00.302Z</time>
      </trkpt>
      <trkpt lat="48.05822" lon="6.85732">
        <ele>760</ele>
        <time>2020-10-28T11:38:01.302Z</time>
      </trkpt>
      <trkpt lat="48.05823" lon="6.85732">
        <ele>760</ele>
        <time>2020-10-28T11:38:02.302Z</time>
      </trkpt>
      <trkpt lat="48.05824" lon="6.85731">
        <ele>760</ele>
        <time>2020-10-28T11:38:03.302Z</time>
      </trkpt>
      <trkpt lat="48.05825" lon="6.85731">
        <ele>760</ele>
        <time>2020-10-28T11:38:04.302Z</time>
      </trkpt>
      <trkpt lat="48.05826" lon="6.85731">
        <ele>760</ele>
        <time>2020-10-28T11:38:05.302Z</time>
      </trkpt>
      <trkpt lat="48.05828" lon="6.85731">
        <ele>760</ele>
        <time>2020-10-28T11:38:06.301Z</time>
      </trkpt>
      <trkpt lat="48.0583" lon="6.85733">
        <ele>760</ele>
        <time>2020-10-28T11:38:07.302Z</time>
      </trkpt>
      <trkpt lat="48.05831" lon="6.85733">
        <ele>760</ele>
        <time>2020-10-28T11:38:08.302Z</time>
      </trkpt>
      <trkpt lat="48.05833" lon="6.85732">
        <ele>760</ele>
        <time>2020-10-28T11:38:09.302Z</time>
      </trkpt>
      <trkpt lat="48.05834" lon="6.85732">
        <ele>760</ele>
        <time>2020-10-28T11:38:10.302Z</time>
      </trkpt>
      <trkpt lat="48.05835" lon="6.85731">
        <ele>760</ele>
        <time>2020-10-28T11:38:11.301Z</time>
      </trkpt>
      <trkpt lat="48.05836" lon="6.8573">
        <ele>760</ele>
        <time>2020-10-28T11:38:12.302Z</time>
      </trkpt>
      <trkpt lat="48.05837" lon="6.85729">
        <ele>759</ele>
        <time>2020-10-28T11:38:13.302Z</time>
      </trkpt>
      <trkpt lat="48.05839" lon="6.85729">
        <ele>759</ele>
        <time>2020-10-28T11:38:14.301Z</time>
      </trkpt>
      <trkpt lat="48.0584" lon="6.85729">
        <ele>759</ele>
        <time>2020-10-28T11:38:15.301Z</time>
      </trkpt>
      <trkpt lat="48.05842" lon="6.85728">
        <ele>759</ele>
        <time>2020-10-28T11:38:16.301Z</time>
      </trkpt>
      <trkpt lat="48.05843" lon="6.85728">
        <ele>759</ele>
        <time>2020-10-28T11:38:17.302Z</time>
      </trkpt>
      <trkpt lat="48.05844" lon="6.85727">
        <ele>759</ele>
        <time>2020-10-28T11:38:18.301Z</time>
      </trkpt>
      <trkpt lat="48.05845" lon="6.85726">
        <ele>759</ele>
        <time>2020-10-28T11:38:19.302Z</time>
      </trkpt>
      <trkpt lat="48.05846" lon="6.85724">
        <ele>759</ele>
        <time>2020-10-28T11:38:20.302Z</time>
      </trkpt>
      <trkpt lat="48.05847" lon="6.85723">
        <ele>760</ele>
        <time>2020-10-28T11:38:21.301Z</time>
      </trkpt>
      <trkpt lat="48.05848" lon="6.85723">
        <ele>760</ele>
        <time>2020-10-28T11:38:22.302Z</time>
      </trkpt>
      <trkpt lat="48.05849" lon="6.85724">
        <ele>761</ele>
        <time>2020-10-28T11:38:23.301Z</time>
      </trkpt>
      <trkpt lat="48.0585" lon="6.85723">
        <ele>761</ele>
        <time>2020-10-28T11:38:24.301Z</time>
      </trkpt>
      <trkpt lat="48.05853" lon="6.85723">
        <ele>762</ele>
        <time>2020-10-28T11:38:25.301Z</time>
      </trkpt>
      <trkpt lat="48.05855" lon="6.85722">
        <ele>762</ele>
        <time>2020-10-28T11:38:26.302Z</time>
      </trkpt>
      <trkpt lat="48.05856" lon="6.85722">
        <ele>762</ele>
        <time>2020-10-28T11:38:27.302Z</time>
      </trkpt>
      <trkpt lat="48.05858" lon="6.85721">
        <ele>762</ele>
        <time>2020-10-28T11:38:28.301Z</time>
      </trkpt>
      <trkpt lat="48.0586" lon="6.8572">
        <ele>762</ele>
        <time>2020-10-28T11:38:29.302Z</time>
      </trkpt>
      <trkpt lat="48.05861" lon="6.8572">
        <ele>762</ele>
        <time>2020-10-28T11:38:30.302Z</time>
      </trkpt>
      <trkpt lat="48.05863" lon="6.85719">
        <ele>762</ele>
        <time>2020-10-28T11:38:31.302Z</time>
      </trkpt>
      <trkpt lat="48.05864" lon="6.85719">
        <ele>762</ele>
        <time>2020-10-28T11:38:32.302Z</time>
      </trkpt>
      <trkpt lat="48.05865" lon="6.85719">
        <ele>763</ele>
        <time>2020-10-28T11:38:33.301Z</time>
      </trkpt>
      <trkpt lat="48.05867" lon="6.85719">
        <ele>763</ele>
        <time>2020-10-28T11:38:34.302Z</time>
      </trkpt>
      <trkpt lat="48.05869" lon="6.85719">
        <ele>763</ele>
        <time>2020-10-28T11:38:35.301Z</time>
      </trkpt>
      <trkpt lat="48.05871" lon="6.85719">
        <ele>764</ele>
        <time>2020-10-28T11:38:36.302Z</time>
      </trkpt>
      <trkpt lat="48.05872" lon="6.85719">
        <ele>764</ele>
        <time>2020-10-28T11:38:37.301Z</time>
      </trkpt>
      <trkpt lat="48.05873" lon="6.8572">
        <ele>764</ele>
        <time>2020-10-28T11:38:38.302Z</time>
      </trkpt>
      <trkpt lat="48.05874" lon="6.8572">
        <ele>764</ele>
        <time>2020-10-28T11:38:39.302Z</time>
      </trkpt>
      <trkpt lat="48.05876" lon="6.8572">
        <ele>765</ele>
        <time>2020-10-28T11:38:40.302Z</time>
      </trkpt>
      <trkpt lat="48.05877" lon="6.8572">
        <ele>765</ele>
        <time>2020-10-28T11:38:41.301Z</time>
      </trkpt>
      <trkpt lat="48.05879" lon="6.85721">
        <ele>765</ele>
        <time>2020-10-28T11:38:42.302Z</time>
      </trkpt>
      <trkpt lat="48.0588" lon="6.85722">
        <ele>765</ele>
        <time>2020-10-28T11:38:43.302Z</time>
      </trkpt>
      <trkpt lat="48.05881" lon="6.85723">
        <ele>765</ele>
        <time>2020-10-28T11:38:44.302Z</time>
      </trkpt>
      <trkpt lat="48.05882" lon="6.85724">
        <ele>766</ele>
        <time>2020-10-28T11:38:45.301Z</time>
      </trkpt>
      <trkpt lat="48.05883" lon="6.85726">
        <ele>766</ele>
        <time>2020-10-28T11:38:46.302Z</time>
      </trkpt>
      <trkpt lat="48.05883" lon="6.85728">
        <ele>766</ele>
        <time>2020-10-28T11:38:47.302Z</time>
      </trkpt>
      <trkpt lat="48.05884" lon="6.85731">
        <ele>766</ele>
        <time>2020-10-28T11:38:48.302Z</time>
      </trkpt>
      <trkpt lat="48.05885" lon="6.85732">
        <ele>766</ele>
        <time>2020-10-28T11:38:49.301Z</time>
      </trkpt>
      <trkpt lat="48.05886" lon="6.85734">
        <ele>766</ele>
        <time>2020-10-28T11:38:50.302Z</time>
      </trkpt>
      <trkpt lat="48.05887" lon="6.85736">
        <ele>766</ele>
        <time>2020-10-28T11:38:51.302Z</time>
      </trkpt>
      <trkpt lat="48.05888" lon="6.85738">
        <ele>766</ele>
        <time>2020-10-28T11:38:52.302Z</time>
      </trkpt>
      <trkpt lat="48.05889" lon="6.85739">
        <ele>766</ele>
        <time>2020-10-28T11:38:53.302Z</time>
      </trkpt>
      <trkpt lat="48.05889" lon="6.85738">
        <ele>766</ele>
        <time>2020-10-28T11:38:54.301Z</time>
      </trkpt>
      <trkpt lat="48.0589" lon="6.85739">
        <ele>766</ele>
        <time>2020-10-28T11:38:55.302Z</time>
      </trkpt>
      <trkpt lat="48.05891" lon="6.85741">
        <ele>765</ele>
        <time>2020-10-28T11:38:56.302Z</time>
      </trkpt>
      <trkpt lat="48.05891" lon="6.85742">
        <ele>765</ele>
        <time>2020-10-28T11:38:57.302Z</time>
      </trkpt>
      <trkpt lat="48.05893" lon="6.85742">
        <ele>765</ele>
        <time>2020-10-28T11:38:58.301Z</time>
      </trkpt>
      <trkpt lat="48.05894" lon="6.85743">
        <ele>765</ele>
        <time>2020-10-28T11:38:59.301Z</time>
      </trkpt>
      <trkpt lat="48.05895" lon="6.85744">
        <ele>765</ele>
        <time>2020-10-28T11:39:00.302Z</time>
      </trkpt>
      <trkpt lat="48.05896" lon="6.85746">
        <ele>765</ele>
        <time>2020-10-28T11:39:01.302Z</time>
      </trkpt>
      <trkpt lat="48.05895" lon="6.85747">
        <ele>764</ele>
        <time>2020-10-28T11:39:02.302Z</time>
      </trkpt>
      <trkpt lat="48.05895" lon="6.85748">
        <ele>764</ele>
        <time>2020-10-28T11:39:03.302Z</time>
      </trkpt>
      <trkpt lat="48.05893" lon="6.85751">
        <ele>764</ele>
        <time>2020-10-28T11:39:04.302Z</time>
      </trkpt>
      <trkpt lat="48.05894" lon="6.85752">
        <ele>763</ele>
        <time>2020-10-28T11:39:05.302Z</time>
      </trkpt>
      <trkpt lat="48.05895" lon="6.85753">
        <ele>763</ele>
        <time>2020-10-28T11:39:06.301Z</time>
      </trkpt>
      <trkpt lat="48.05895" lon="6.85753">
        <ele>762</ele>
        <time>2020-10-28T11:39:07.302Z</time>
      </trkpt>
      <trkpt lat="48.05896" lon="6.85753">
        <ele>762</ele>
        <time>2020-10-28T11:39:08.302Z</time>
      </trkpt>
      <trkpt lat="48.05897" lon="6.85754">
        <ele>761</ele>
        <time>2020-10-28T11:39:09.301Z</time>
      </trkpt>
      <trkpt lat="48.05898" lon="6.85754">
        <ele>761</ele>
        <time>2020-10-28T11:39:10.301Z</time>
      </trkpt>
      <trkpt lat="48.05898" lon="6.85756">
        <ele>761</ele>
        <time>2020-10-28T11:39:11.301Z</time>
      </trkpt>
      <trkpt lat="48.05899" lon="6.85759">
        <ele>760</ele>
        <time>2020-10-28T11:39:12.302Z</time>
      </trkpt>
      <trkpt lat="48.059" lon="6.85762">
        <ele>760</ele>
        <time>2020-10-28T11:39:13.301Z</time>
      </trkpt>
      <trkpt lat="48.05902" lon="6.85764">
        <ele>759</ele>
        <time>2020-10-28T11:39:14.301Z</time>
      </trkpt>
      <trkpt lat="48.05903" lon="6.85766">
        <ele>759</ele>
        <time>2020-10-28T11:39:15.301Z</time>
      </trkpt>
      <trkpt lat="48.05904" lon="6.85768">
        <ele>759</ele>
        <time>2020-10-28T11:39:16.302Z</time>
      </trkpt>
      <trkpt lat="48.05904" lon="6.8577">
        <ele>759</ele>
        <time>2020-10-28T11:39:17.302Z</time>
      </trkpt>
      <trkpt lat="48.05904" lon="6.85771">
        <ele>759</ele>
        <time>2020-10-28T11:39:18.302Z</time>
      </trkpt>
      <trkpt lat="48.05905" lon="6.85773">
        <ele>759</ele>
        <time>2020-10-28T11:39:19.301Z</time>
      </trkpt>
      <trkpt lat="48.05905" lon="6.85774">
        <ele>759</ele>
        <time>2020-10-28T11:39:20.302Z</time>
      </trkpt>
      <trkpt lat="48.05905" lon="6.85775">
        <ele>759</ele>
        <time>2020-10-28T11:39:21.301Z</time>
      </trkpt>
      <trkpt lat="48.05906" lon="6.85777">
        <ele>759</ele>
        <time>2020-10-28T11:39:22.302Z</time>
      </trkpt>
      <trkpt lat="48.05906" lon="6.85778">
        <ele>759</ele>
        <time>2020-10-28T11:39:33.407Z</time>
      </trkpt>
      <trkpt lat="48.05906" lon="6.8578">
        <ele>759</ele>
        <time>2020-10-28T11:39:34.406Z</time>
      </trkpt>
      <trkpt lat="48.05907" lon="6.85781">
        <ele>759</ele>
        <time>2020-10-28T11:39:35.407Z</time>
      </trkpt>
      <trkpt lat="48.05907" lon="6.85783">
        <ele>759</ele>
        <time>2020-10-28T11:39:44.282Z</time>
      </trkpt>
      <trkpt lat="48.05908" lon="6.85785">
        <ele>760</ele>
        <time>2020-10-28T11:39:45.282Z</time>
      </trkpt>
      <trkpt lat="48.05908" lon="6.85786">
        <ele>760</ele>
        <time>2020-10-28T11:39:46.283Z</time>
      </trkpt>
      <trkpt lat="48.05909" lon="6.85787">
        <ele>761</ele>
        <time>2020-10-28T11:39:47.282Z</time>
      </trkpt>
      <trkpt lat="48.0591" lon="6.85789">
        <ele>761</ele>
        <time>2020-10-28T11:39:48.283Z</time>
      </trkpt>
      <trkpt lat="48.05912" lon="6.8579">
        <ele>762</ele>
        <time>2020-10-28T11:39:49.283Z</time>
      </trkpt>
      <trkpt lat="48.05913" lon="6.85792">
        <ele>763</ele>
        <time>2020-10-28T11:39:50.283Z</time>
      </trkpt>
      <trkpt lat="48.05914" lon="6.85792">
        <ele>764</ele>
        <time>2020-10-28T11:39:51.282Z</time>
      </trkpt>
      <trkpt lat="48.05915" lon="6.85794">
        <ele>765</ele>
        <time>2020-10-28T11:39:52.283Z</time>
      </trkpt>
      <trkpt lat="48.05916" lon="6.85794">
        <ele>766</ele>
        <time>2020-10-28T11:39:53.282Z</time>
      </trkpt>
      <trkpt lat="48.05918" lon="6.85795">
        <ele>767</ele>
        <time>2020-10-28T11:39:54.283Z</time>
      </trkpt>
      <trkpt lat="48.05919" lon="6.85796">
        <ele>768</ele>
        <time>2020-10-28T11:39:55.283Z</time>
      </trkpt>
      <trkpt lat="48.05921" lon="6.85798">
        <ele>769</ele>
        <time>2020-10-28T11:39:56.283Z</time>
      </trkpt>
      <trkpt lat="48.05922" lon="6.858">
        <ele>770</ele>
        <time>2020-10-28T11:39:57.282Z</time>
      </trkpt>
      <trkpt lat="48.05923" lon="6.85801">
        <ele>771</ele>
        <time>2020-10-28T11:39:58.282Z</time>
      </trkpt>
      <trkpt lat="48.05924" lon="6.85802">
        <ele>772</ele>
        <time>2020-10-28T11:39:59.282Z</time>
      </trkpt>
      <trkpt lat="48.05925" lon="6.85802">
        <ele>773</ele>
        <time>2020-10-28T11:40:00.283Z</time>
      </trkpt>
      <trkpt lat="48.05925" lon="6.85802">
        <ele>774</ele>
        <time>2020-10-28T11:40:01.283Z</time>
      </trkpt>
      <trkpt lat="48.05927" lon="6.85801">
        <ele>775</ele>
        <time>2020-10-28T11:40:02.282Z</time>
      </trkpt>
      <trkpt lat="48.05927" lon="6.85802">
        <ele>776</ele>
        <time>2020-10-28T11:40:03.283Z</time>
      </trkpt>
      <trkpt lat="48.05928" lon="6.85802">
        <ele>776</ele>
        <time>2020-10-28T11:40:04.283Z</time>
      </trkpt>
      <trkpt lat="48.05929" lon="6.85803">
        <ele>777</ele>
        <time>2020-10-28T11:40:05.283Z</time>
      </trkpt>
      <trkpt lat="48.05929" lon="6.85804">
        <ele>778</ele>
        <time>2020-10-28T11:40:06.283Z</time>
      </trkpt>
      <trkpt lat="48.0593" lon="6.85805">
        <ele>778</ele>
        <time>2020-10-28T11:40:07.282Z</time>
      </trkpt>
      <trkpt lat="48.05931" lon="6.85805">
        <ele>779</ele>
        <time>2020-10-28T11:40:08.283Z</time>
      </trkpt>
      <trkpt lat="48.05932" lon="6.85806">
        <ele>779</ele>
        <time>2020-10-28T11:40:09.282Z</time>
      </trkpt>
      <trkpt lat="48.05934" lon="6.85806">
        <ele>780</ele>
        <time>2020-10-28T11:40:10.282Z</time>
      </trkpt>
      <trkpt lat="48.05936" lon="6.85807">
        <ele>780</ele>
        <time>2020-10-28T11:40:11.283Z</time>
      </trkpt>
      <trkpt lat="48.05937" lon="6.85807">
        <ele>780</ele>
        <time>2020-10-28T11:40:12.282Z</time>
      </trkpt>
      <trkpt lat="48.05937" lon="6.85807">
        <ele>781</ele>
        <time>2020-10-28T11:40:13.283Z</time>
      </trkpt>
      <trkpt lat="48.05939" lon="6.85806">
        <ele>781</ele>
        <time>2020-10-28T11:40:14.283Z</time>
      </trkpt>
      <trkpt lat="48.05939" lon="6.85806">
        <ele>781</ele>
        <time>2020-10-28T11:40:15.283Z</time>
      </trkpt>
      <trkpt lat="48.0594" lon="6.85806">
        <ele>781</ele>
        <time>2020-10-28T11:40:16.282Z</time>
      </trkpt>
      <trkpt lat="48.0594" lon="6.85806">
        <ele>781</ele>
        <time>2020-10-28T11:40:17.283Z</time>
      </trkpt>
      <trkpt lat="48.05941" lon="6.85807">
        <ele>781</ele>
        <time>2020-10-28T11:40:18.283Z</time>
      </trkpt>
      <trkpt lat="48.05942" lon="6.85807">
        <ele>781</ele>
        <time>2020-10-28T11:40:19.282Z</time>
      </trkpt>
      <trkpt lat="48.05942" lon="6.85807">
        <ele>781</ele>
        <time>2020-10-28T11:40:20.283Z</time>
      </trkpt>
      <trkpt lat="48.05942" lon="6.85807">
        <ele>781</ele>
        <time>2020-10-28T11:40:21.283Z</time>
      </trkpt>
      <trkpt lat="48.05943" lon="6.85807">
        <ele>781</ele>
        <time>2020-10-28T11:40:22.283Z</time>
      </trkpt>
      <trkpt lat="48.05945" lon="6.85807">
        <ele>781</ele>
        <time>2020-10-28T11:40:23.283Z</time>
      </trkpt>
      <trkpt lat="48.05946" lon="6.85807">
        <ele>781</ele>
        <time>2020-10-28T11:40:24.282Z</time>
      </trkpt>
      <trkpt lat="48.05946" lon="6.85808">
        <ele>781</ele>
        <time>2020-10-28T11:40:25.283Z</time>
      </trkpt>
      <trkpt lat="48.05947" lon="6.85808">
        <ele>781</ele>
        <time>2020-10-28T11:40:26.283Z</time>
      </trkpt>
      <trkpt lat="48.05948" lon="6.85808">
        <ele>781</ele>
        <time>2020-10-28T11:40:27.282Z</time>
      </trkpt>
      <trkpt lat="48.0595" lon="6.85808">
        <ele>781</ele>
        <time>2020-10-28T11:40:28.282Z</time>
      </trkpt>
      <trkpt lat="48.05951" lon="6.85809">
        <ele>781</ele>
        <time>2020-10-28T11:40:29.283Z</time>
      </trkpt>
      <trkpt lat="48.05951" lon="6.8581">
        <ele>781</ele>
        <time>2020-10-28T11:40:30.283Z</time>
      </trkpt>
      <trkpt lat="48.05951" lon="6.8581">
        <ele>781</ele>
        <time>2020-10-28T11:40:31.282Z</time>
      </trkpt>
      <trkpt lat="48.05952" lon="6.8581">
        <ele>782</ele>
        <time>2020-10-28T11:40:32.283Z</time>
      </trkpt>
      <trkpt lat="48.05953" lon="6.8581">
        <ele>782</ele>
        <time>2020-10-28T11:40:33.283Z</time>
      </trkpt>
      <trkpt lat="48.05954" lon="6.85809">
        <ele>782</ele>
        <time>2020-10-28T11:40:34.283Z</time>
      </trkpt>
      <trkpt lat="48.05955" lon="6.85809">
        <ele>782</ele>
        <time>2020-10-28T11:40:35.282Z</time>
      </trkpt>
      <trkpt lat="48.05956" lon="6.85809">
        <ele>782</ele>
        <time>2020-10-28T11:40:36.283Z</time>
      </trkpt>
      <trkpt lat="48.05957" lon="6.85809">
        <ele>782</ele>
        <time>2020-10-28T11:40:37.283Z</time>
      </trkpt>
      <trkpt lat="48.05958" lon="6.85809">
        <ele>782</ele>
        <time>2020-10-28T11:40:38.282Z</time>
      </trkpt>
      <trkpt lat="48.0596" lon="6.85809">
        <ele>783</ele>
        <time>2020-10-28T11:40:39.283Z</time>
      </trkpt>
      <trkpt lat="48.05962" lon="6.85808">
        <ele>783</ele>
        <time>2020-10-28T11:40:40.283Z</time>
      </trkpt>
      <trkpt lat="48.05962" lon="6.85806">
        <ele>783</ele>
        <time>2020-10-28T11:40:41.283Z</time>
      </trkpt>
      <trkpt lat="48.05963" lon="6.85805">
        <ele>783</ele>
        <time>2020-10-28T11:40:42.283Z</time>
      </trkpt>
      <trkpt lat="48.05965" lon="6.85805">
        <ele>783</ele>
        <time>2020-10-28T11:40:43.283Z</time>
      </trkpt>
      <trkpt lat="48.05966" lon="6.85804">
        <ele>783</ele>
        <time>2020-10-28T11:40:44.283Z</time>
      </trkpt>
      <trkpt lat="48.05967" lon="6.85804">
        <ele>784</ele>
        <time>2020-10-28T11:40:45.282Z</time>
      </trkpt>
      <trkpt lat="48.05968" lon="6.85804">
        <ele>784</ele>
        <time>2020-10-28T11:40:46.283Z</time>
      </trkpt>
      <trkpt lat="48.05969" lon="6.85803">
        <ele>784</ele>
        <time>2020-10-28T11:40:47.283Z</time>
      </trkpt>
      <trkpt lat="48.05969" lon="6.85802">
        <ele>784</ele>
        <time>2020-10-28T11:40:48.283Z</time>
      </trkpt>
      <trkpt lat="48.0597" lon="6.85802">
        <ele>785</ele>
        <time>2020-10-28T11:40:49.282Z</time>
      </trkpt>
      <trkpt lat="48.05971" lon="6.85801">
        <ele>785</ele>
        <time>2020-10-28T11:40:50.283Z</time>
      </trkpt>
      <trkpt lat="48.05972" lon="6.85802">
        <ele>785</ele>
        <time>2020-10-28T11:40:51.283Z</time>
      </trkpt>
      <trkpt lat="48.05974" lon="6.85802">
        <ele>786</ele>
        <time>2020-10-28T11:41:04.412Z</time>
      </trkpt>
      <trkpt lat="48.05975" lon="6.85803">
        <ele>786</ele>
        <time>2020-10-28T11:41:05.413Z</time>
      </trkpt>
      <trkpt lat="48.05976" lon="6.85803">
        <ele>786</ele>
        <time>2020-10-28T11:41:06.412Z</time>
      </trkpt>
      <trkpt lat="48.05978" lon="6.85804">
        <ele>786</ele>
        <time>2020-10-28T11:41:07.413Z</time>
      </trkpt>
      <trkpt lat="48.05978" lon="6.85805">
        <ele>785</ele>
        <time>2020-10-28T11:41:08.412Z</time>
      </trkpt>
      <trkpt lat="48.05978" lon="6.85804">
        <ele>785</ele>
        <time>2020-10-28T11:41:09.412Z</time>
      </trkpt>
      <trkpt lat="48.05979" lon="6.85802">
        <ele>785</ele>
        <time>2020-10-28T11:41:10.413Z</time>
      </trkpt>
      <trkpt lat="48.05979" lon="6.85801">
        <ele>784</ele>
        <time>2020-10-28T11:41:11.412Z</time>
      </trkpt>
      <trkpt lat="48.0598" lon="6.85799">
        <ele>784</ele>
        <time>2020-10-28T11:41:12.413Z</time>
      </trkpt>
      <trkpt lat="48.05981" lon="6.85799">
        <ele>783</ele>
        <time>2020-10-28T11:41:13.413Z</time>
      </trkpt>
      <trkpt lat="48.05982" lon="6.85799">
        <ele>783</ele>
        <time>2020-10-28T11:41:14.413Z</time>
      </trkpt>
      <trkpt lat="48.05983" lon="6.85799">
        <ele>783</ele>
        <time>2020-10-28T11:41:15.413Z</time>
      </trkpt>
      <trkpt lat="48.05984" lon="6.858">
        <ele>783</ele>
        <time>2020-10-28T11:41:16.412Z</time>
      </trkpt>
      <trkpt lat="48.05985" lon="6.858">
        <ele>783</ele>
        <time>2020-10-28T11:41:17.413Z</time>
      </trkpt>
      <trkpt lat="48.05986" lon="6.858">
        <ele>783</ele>
        <time>2020-10-28T11:41:18.412Z</time>
      </trkpt>
      <trkpt lat="48.05987" lon="6.858">
        <ele>783</ele>
        <time>2020-10-28T11:41:19.413Z</time>
      </trkpt>
      <trkpt lat="48.05987" lon="6.85799">
        <ele>783</ele>
        <time>2020-10-28T11:41:20.413Z</time>
      </trkpt>
      <trkpt lat="48.05988" lon="6.85798">
        <ele>783</ele>
        <time>2020-10-28T11:41:21.412Z</time>
      </trkpt>
      <trkpt lat="48.05988" lon="6.85798">
        <ele>784</ele>
        <time>2020-10-28T11:41:22.413Z</time>
      </trkpt>
      <trkpt lat="48.05989" lon="6.85797">
        <ele>783</ele>
        <time>2020-10-28T11:41:23.412Z</time>
      </trkpt>
      <trkpt lat="48.0599" lon="6.85798">
        <ele>784</ele>
        <time>2020-10-28T11:41:24.412Z</time>
      </trkpt>
      <trkpt lat="48.05991" lon="6.85797">
        <ele>784</ele>
        <time>2020-10-28T11:41:25.412Z</time>
      </trkpt>
      <trkpt lat="48.05992" lon="6.85797">
        <ele>784</ele>
        <time>2020-10-28T11:41:26.413Z</time>
      </trkpt>
      <trkpt lat="48.05994" lon="6.85796">
        <ele>784</ele>
        <time>2020-10-28T11:41:27.412Z</time>
      </trkpt>
      <trkpt lat="48.05996" lon="6.85796">
        <ele>784</ele>
        <time>2020-10-28T11:41:28.412Z</time>
      </trkpt>
      <trkpt lat="48.05999" lon="6.85796">
        <ele>784</ele>
        <time>2020-10-28T11:41:29.413Z</time>
      </trkpt>
      <trkpt lat="48.06" lon="6.85795">
        <ele>784</ele>
        <time>2020-10-28T11:41:30.413Z</time>
      </trkpt>
      <trkpt lat="48.06002" lon="6.85795">
        <ele>785</ele>
        <time>2020-10-28T11:41:31.413Z</time>
      </trkpt>
      <trkpt lat="48.06004" lon="6.85795">
        <ele>785</ele>
        <time>2020-10-28T11:41:32.413Z</time>
      </trkpt>
      <trkpt lat="48.06005" lon="6.85795">
        <ele>786</ele>
        <time>2020-10-28T11:41:33.413Z</time>
      </trkpt>
      <trkpt lat="48.06007" lon="6.85796">
        <ele>786</ele>
        <time>2020-10-28T11:41:34.413Z</time>
      </trkpt>
      <trkpt lat="48.06008" lon="6.85796">
        <ele>786</ele>
        <time>2020-10-28T11:41:35.413Z</time>
      </trkpt>
      <trkpt lat="48.06008" lon="6.85796">
        <ele>786</ele>
        <time>2020-10-28T11:41:36.413Z</time>
      </trkpt>
      <trkpt lat="48.06009" lon="6.85796">
        <ele>785</ele>
        <time>2020-10-28T11:41:37.413Z</time>
      </trkpt>
      <trkpt lat="48.0601" lon="6.85797">
        <ele>785</ele>
        <time>2020-10-28T11:41:38.412Z</time>
      </trkpt>
      <trkpt lat="48.06011" lon="6.85799">
        <ele>784</ele>
        <time>2020-10-28T11:41:39.413Z</time>
      </trkpt>
      <trkpt lat="48.06012" lon="6.858">
        <ele>784</ele>
        <time>2020-10-28T11:41:40.413Z</time>
      </trkpt>
      <trkpt lat="48.06014" lon="6.85801">
        <ele>783</ele>
        <time>2020-10-28T11:41:41.412Z</time>
      </trkpt>
      <trkpt lat="48.06016" lon="6.85803">
        <ele>783</ele>
        <time>2020-10-28T11:41:42.413Z</time>
      </trkpt>
      <trkpt lat="48.06018" lon="6.85805">
        <ele>783</ele>
        <time>2020-10-28T11:41:43.412Z</time>
      </trkpt>
      <trkpt lat="48.0602" lon="6.85806">
        <ele>783</ele>
        <time>2020-10-28T11:41:44.413Z</time>
      </trkpt>
      <trkpt lat="48.06021" lon="6.85807">
        <ele>784</ele>
        <time>2020-10-28T11:41:45.413Z</time>
      </trkpt>
      <trkpt lat="48.06022" lon="6.85808">
        <ele>784</ele>
        <time>2020-10-28T11:41:46.413Z</time>
      </trkpt>
      <trkpt lat="48.06023" lon="6.85808">
        <ele>785</ele>
        <time>2020-10-28T11:41:47.413Z</time>
      </trkpt>
      <trkpt lat="48.06025" lon="6.85809">
        <ele>786</ele>
        <time>2020-10-28T11:41:48.412Z</time>
      </trkpt>
      <trkpt lat="48.06026" lon="6.8581">
        <ele>786</ele>
        <time>2020-10-28T11:41:49.413Z</time>
      </trkpt>
      <trkpt lat="48.06028" lon="6.85811">
        <ele>787</ele>
        <time>2020-10-28T11:41:50.413Z</time>
      </trkpt>
      <trkpt lat="48.06029" lon="6.85812">
        <ele>788</ele>
        <time>2020-10-28T11:41:51.413Z</time>
      </trkpt>
      <trkpt lat="48.0603" lon="6.85813">
        <ele>788</ele>
        <time>2020-10-28T11:41:52.413Z</time>
      </trkpt>
      <trkpt lat="48.06031" lon="6.85813">
        <ele>789</ele>
        <time>2020-10-28T11:41:53.413Z</time>
      </trkpt>
      <trkpt lat="48.06032" lon="6.85814">
        <ele>789</ele>
        <time>2020-10-28T11:41:54.412Z</time>
      </trkpt>
      <trkpt lat="48.06033" lon="6.85816">
        <ele>790</ele>
        <time>2020-10-28T11:41:55.412Z</time>
      </trkpt>
      <trkpt lat="48.06034" lon="6.85817">
        <ele>790</ele>
        <time>2020-10-28T11:41:56.413Z</time>
      </trkpt>
      <trkpt lat="48.06035" lon="6.85819">
        <ele>791</ele>
        <time>2020-10-28T11:41:57.413Z</time>
      </trkpt>
      <trkpt lat="48.06035" lon="6.85821">
        <ele>791</ele>
        <time>2020-10-28T11:41:58.413Z</time>
      </trkpt>
      <trkpt lat="48.06036" lon="6.85823">
        <ele>791</ele>
        <time>2020-10-28T11:41:59.413Z</time>
      </trkpt>
      <trkpt lat="48.06038" lon="6.85825">
        <ele>791</ele>
        <time>2020-10-28T11:42:00.413Z</time>
      </trkpt>
      <trkpt lat="48.06039" lon="6.85826">
        <ele>792</ele>
        <time>2020-10-28T11:42:01.413Z</time>
      </trkpt>
      <trkpt lat="48.06041" lon="6.85827">
        <ele>792</ele>
        <time>2020-10-28T11:42:02.413Z</time>
      </trkpt>
      <trkpt lat="48.06042" lon="6.85828">
        <ele>792</ele>
        <time>2020-10-28T11:42:03.413Z</time>
      </trkpt>
      <trkpt lat="48.06043" lon="6.8583">
        <ele>792</ele>
        <time>2020-10-28T11:42:04.413Z</time>
      </trkpt>
      <trkpt lat="48.06045" lon="6.85831">
        <ele>793</ele>
        <time>2020-10-28T11:42:05.412Z</time>
      </trkpt>
      <trkpt lat="48.06046" lon="6.85833">
        <ele>793</ele>
        <time>2020-10-28T11:42:06.413Z</time>
      </trkpt>
      <trkpt lat="48.06048" lon="6.85835">
        <ele>793</ele>
        <time>2020-10-28T11:42:07.413Z</time>
      </trkpt>
      <trkpt lat="48.06049" lon="6.85836">
        <ele>794</ele>
        <time>2020-10-28T11:42:08.413Z</time>
      </trkpt>
      <trkpt lat="48.0605" lon="6.85837">
        <ele>794</ele>
        <time>2020-10-28T11:42:09.412Z</time>
      </trkpt>
      <trkpt lat="48.06051" lon="6.8584">
        <ele>795</ele>
        <time>2020-10-28T11:42:10.413Z</time>
      </trkpt>
      <trkpt lat="48.06053" lon="6.85842">
        <ele>796</ele>
        <time>2020-10-28T11:42:11.412Z</time>
      </trkpt>
      <trkpt lat="48.06054" lon="6.85843">
        <ele>796</ele>
        <time>2020-10-28T11:42:12.413Z</time>
      </trkpt>
      <trkpt lat="48.06055" lon="6.85845">
        <ele>797</ele>
        <time>2020-10-28T11:42:13.412Z</time>
      </trkpt>
      <trkpt lat="48.06056" lon="6.85847">
        <ele>797</ele>
        <time>2020-10-28T11:42:14.413Z</time>
      </trkpt>
      <trkpt lat="48.06057" lon="6.85848">
        <ele>797</ele>
        <time>2020-10-28T11:42:15.412Z</time>
      </trkpt>
      <trkpt lat="48.06058" lon="6.8585">
        <ele>797</ele>
        <time>2020-10-28T11:42:17.528Z</time>
      </trkpt>
      <trkpt lat="48.06058" lon="6.85852">
        <ele>796</ele>
        <time>2020-10-28T11:42:18.528Z</time>
      </trkpt>
      <trkpt lat="48.06059" lon="6.85853">
        <ele>796</ele>
        <time>2020-10-28T11:42:19.528Z</time>
      </trkpt>
      <trkpt lat="48.0606" lon="6.85855">
        <ele>796</ele>
        <time>2020-10-28T11:42:20.528Z</time>
      </trkpt>
      <trkpt lat="48.06062" lon="6.85857">
        <ele>796</ele>
        <time>2020-10-28T11:42:21.528Z</time>
      </trkpt>
      <trkpt lat="48.06062" lon="6.85859">
        <ele>795</ele>
        <time>2020-10-28T11:42:22.528Z</time>
      </trkpt>
      <trkpt lat="48.06062" lon="6.85861">
        <ele>795</ele>
        <time>2020-10-28T11:42:23.528Z</time>
      </trkpt>
      <trkpt lat="48.06063" lon="6.85862">
        <ele>795</ele>
        <time>2020-10-28T11:42:24.528Z</time>
      </trkpt>
      <trkpt lat="48.06063" lon="6.85864">
        <ele>794</ele>
        <time>2020-10-28T11:42:25.527Z</time>
      </trkpt>
      <trkpt lat="48.06064" lon="6.85865">
        <ele>794</ele>
        <time>2020-10-28T11:42:26.527Z</time>
      </trkpt>
      <trkpt lat="48.06064" lon="6.85867">
        <ele>794</ele>
        <time>2020-10-28T11:42:27.527Z</time>
      </trkpt>
      <trkpt lat="48.06064" lon="6.85869">
        <ele>794</ele>
        <time>2020-10-28T11:42:28.527Z</time>
      </trkpt>
      <trkpt lat="48.06064" lon="6.85871">
        <ele>793</ele>
        <time>2020-10-28T11:42:29.528Z</time>
      </trkpt>
      <trkpt lat="48.06064" lon="6.85873">
        <ele>793</ele>
        <time>2020-10-28T11:42:30.528Z</time>
      </trkpt>
      <trkpt lat="48.06065" lon="6.85875">
        <ele>793</ele>
        <time>2020-10-28T11:42:31.527Z</time>
      </trkpt>
      <trkpt lat="48.06064" lon="6.85877">
        <ele>792</ele>
        <time>2020-10-28T11:42:32.528Z</time>
      </trkpt>
      <trkpt lat="48.06064" lon="6.8588">
        <ele>792</ele>
        <time>2020-10-28T11:42:33.527Z</time>
      </trkpt>
      <trkpt lat="48.06064" lon="6.85882">
        <ele>791</ele>
        <time>2020-10-28T11:42:34.528Z</time>
      </trkpt>
      <trkpt lat="48.06064" lon="6.85884">
        <ele>791</ele>
        <time>2020-10-28T11:42:35.528Z</time>
      </trkpt>
      <trkpt lat="48.06064" lon="6.85886">
        <ele>790</ele>
        <time>2020-10-28T11:42:36.527Z</time>
      </trkpt>
      <trkpt lat="48.06064" lon="6.85888">
        <ele>789</ele>
        <time>2020-10-28T11:42:37.528Z</time>
      </trkpt>
      <trkpt lat="48.06063" lon="6.8589">
        <ele>789</ele>
        <time>2020-10-28T11:42:38.528Z</time>
      </trkpt>
      <trkpt lat="48.06063" lon="6.85893">
        <ele>788</ele>
        <time>2020-10-28T11:42:39.527Z</time>
      </trkpt>
      <trkpt lat="48.06062" lon="6.85895">
        <ele>788</ele>
        <time>2020-10-28T11:42:40.528Z</time>
      </trkpt>
      <trkpt lat="48.06062" lon="6.85897">
        <ele>788</ele>
        <time>2020-10-28T11:42:41.528Z</time>
      </trkpt>
      <trkpt lat="48.06062" lon="6.85899">
        <ele>788</ele>
        <time>2020-10-28T11:42:42.527Z</time>
      </trkpt>
      <trkpt lat="48.06061" lon="6.85901">
        <ele>787</ele>
        <time>2020-10-28T11:42:43.528Z</time>
      </trkpt>
      <trkpt lat="48.06061" lon="6.85903">
        <ele>786</ele>
        <time>2020-10-28T11:42:44.528Z</time>
      </trkpt>
      <trkpt lat="48.0606" lon="6.85904">
        <ele>786</ele>
        <time>2020-10-28T11:42:45.528Z</time>
      </trkpt>
      <trkpt lat="48.0606" lon="6.85907">
        <ele>785</ele>
        <time>2020-10-28T11:42:46.528Z</time>
      </trkpt>
      <trkpt lat="48.0606" lon="6.85908">
        <ele>784</ele>
        <time>2020-10-28T11:42:47.528Z</time>
      </trkpt>
      <trkpt lat="48.0606" lon="6.85911">
        <ele>783</ele>
        <time>2020-10-28T11:42:48.527Z</time>
      </trkpt>
      <trkpt lat="48.0606" lon="6.85913">
        <ele>783</ele>
        <time>2020-10-28T11:42:49.527Z</time>
      </trkpt>
      <trkpt lat="48.0606" lon="6.85914">
        <ele>782</ele>
        <time>2020-10-28T11:42:50.528Z</time>
      </trkpt>
      <trkpt lat="48.0606" lon="6.85916">
        <ele>781</ele>
        <time>2020-10-28T11:42:51.528Z</time>
      </trkpt>
      <trkpt lat="48.0606" lon="6.85917">
        <ele>780</ele>
        <time>2020-10-28T11:42:52.528Z</time>
      </trkpt>
      <trkpt lat="48.06059" lon="6.85919">
        <ele>780</ele>
        <time>2020-10-28T11:42:53.528Z</time>
      </trkpt>
      <trkpt lat="48.06059" lon="6.85921">
        <ele>779</ele>
        <time>2020-10-28T11:42:54.527Z</time>
      </trkpt>
      <trkpt lat="48.06058" lon="6.85922">
        <ele>779</ele>
        <time>2020-10-28T11:42:55.527Z</time>
      </trkpt>
      <trkpt lat="48.06058" lon="6.85923">
        <ele>778</ele>
        <time>2020-10-28T11:42:56.527Z</time>
      </trkpt>
      <trkpt lat="48.06058" lon="6.85924">
        <ele>778</ele>
        <time>2020-10-28T11:42:57.527Z</time>
      </trkpt>
      <trkpt lat="48.06058" lon="6.85924">
        <ele>778</ele>
        <time>2020-10-28T11:42:58.527Z</time>
      </trkpt>
      <trkpt lat="48.06057" lon="6.85924">
        <ele>778</ele>
        <time>2020-10-28T11:42:59.527Z</time>
      </trkpt>
      <trkpt lat="48.06054" lon="6.85918">
        <ele>779</ele>
        <time>2020-10-28T11:43:00.528Z</time>
      </trkpt>
      <trkpt lat="48.06053" lon="6.85917">
        <ele>779</ele>
        <time>2020-10-28T11:43:01.528Z</time>
      </trkpt>
      <trkpt lat="48.06053" lon="6.85916">
        <ele>780</ele>
        <time>2020-10-28T11:43:02.528Z</time>
      </trkpt>
      <trkpt lat="48.06053" lon="6.85916">
        <ele>780</ele>
        <time>2020-10-28T11:43:03.528Z</time>
      </trkpt>
      <trkpt lat="48.06052" lon="6.85916">
        <ele>779</ele>
        <time>2020-10-28T11:43:04.528Z</time>
      </trkpt>
      <trkpt lat="48.06052" lon="6.85917">
        <ele>779</ele>
        <time>2020-10-28T11:43:05.528Z</time>
      </trkpt>
      <trkpt lat="48.06053" lon="6.85919">
        <ele>778</ele>
        <time>2020-10-28T11:43:06.529Z</time>
      </trkpt>
      <trkpt lat="48.06054" lon="6.85918">
        <ele>778</ele>
        <time>2020-10-28T11:43:07.530Z</time>
      </trkpt>
      <trkpt lat="48.06053" lon="6.85916">
        <ele>777</ele>
        <time>2020-10-28T11:43:08.530Z</time>
      </trkpt>
      <trkpt lat="48.06053" lon="6.85915">
        <ele>777</ele>
        <time>2020-10-28T11:43:09.530Z</time>
      </trkpt>
      <trkpt lat="48.06053" lon="6.85915">
        <ele>777</ele>
        <time>2020-10-28T11:43:10.530Z</time>
      </trkpt>
      <trkpt lat="48.06053" lon="6.85914">
        <ele>776</ele>
        <time>2020-10-28T11:43:11.530Z</time>
      </trkpt>
      <trkpt lat="48.06053" lon="6.85914">
        <ele>776</ele>
        <time>2020-10-28T11:43:12.530Z</time>
      </trkpt>
      <trkpt lat="48.06053" lon="6.85913">
        <ele>776</ele>
        <time>2020-10-28T11:43:13.530Z</time>
      </trkpt>
      <trkpt lat="48.06053" lon="6.85913">
        <ele>775</ele>
        <time>2020-10-28T11:43:14.530Z</time>
      </trkpt>
      <trkpt lat="48.06053" lon="6.85912">
        <ele>775</ele>
        <time>2020-10-28T11:43:15.530Z</time>
      </trkpt>
      <trkpt lat="48.06056" lon="6.85914">
        <ele>776</ele>
        <time>2020-10-28T11:43:16.530Z</time>
      </trkpt>
      <trkpt lat="48.06062" lon="6.85918">
        <ele>776</ele>
        <time>2020-10-28T11:43:17.531Z</time>
      </trkpt>
      <trkpt lat="48.06063" lon="6.85919">
        <ele>776</ele>
        <time>2020-10-28T11:43:18.531Z</time>
      </trkpt>
      <trkpt lat="48.06063" lon="6.85918">
        <ele>775</ele>
        <time>2020-10-28T11:43:19.530Z</time>
      </trkpt>
      <trkpt lat="48.06063" lon="6.85918">
        <ele>775</ele>
        <time>2020-10-28T11:43:20.531Z</time>
      </trkpt>
      <trkpt lat="48.06062" lon="6.85918">
        <ele>775</ele>
        <time>2020-10-28T11:43:21.530Z</time>
      </trkpt>
      <trkpt lat="48.06062" lon="6.85917">
        <ele>776</ele>
        <time>2020-10-28T11:43:22.530Z</time>
      </trkpt>
      <trkpt lat="48.06058" lon="6.85915">
        <ele>785</ele>
        <time>2020-10-28T11:43:23.531Z</time>
      </trkpt>
      <trkpt lat="48.06058" lon="6.85923">
        <ele>786</ele>
        <time>2020-10-28T11:43:24.531Z</time>
      </trkpt>
      <trkpt lat="48.06058" lon="6.85924">
        <ele>785</ele>
        <time>2020-10-28T11:43:25.530Z</time>
      </trkpt>
      <trkpt lat="48.06059" lon="6.85924">
        <ele>785</ele>
        <time>2020-10-28T11:43:26.530Z</time>
      </trkpt>
      <trkpt lat="48.0606" lon="6.85924">
        <ele>784</ele>
        <time>2020-10-28T11:43:27.530Z</time>
      </trkpt>
      <trkpt lat="48.0606" lon="6.85924">
        <ele>784</ele>
        <time>2020-10-28T11:43:28.531Z</time>
      </trkpt>
      <trkpt lat="48.06059" lon="6.85921">
        <ele>780</ele>
        <time>2020-10-28T11:43:29.533Z</time>
      </trkpt>
      <trkpt lat="48.06058" lon="6.85921">
        <ele>779</ele>
        <time>2020-10-28T11:43:30.532Z</time>
      </trkpt>
      <trkpt lat="48.06056" lon="6.85913">
        <ele>769</ele>
        <time>2020-10-28T11:43:31.533Z</time>
      </trkpt>
      <trkpt lat="48.06056" lon="6.85912">
        <ele>768</ele>
        <time>2020-10-28T11:43:32.534Z</time>
      </trkpt>
      <trkpt lat="48.06056" lon="6.85912">
        <ele>767</ele>
        <time>2020-10-28T11:43:33.533Z</time>
      </trkpt>
      <trkpt lat="48.06059" lon="6.85914">
        <ele>750</ele>
        <time>2020-10-28T11:43:34.534Z</time>
      </trkpt>
      <trkpt lat="48.06061" lon="6.85924">
        <ele>762</ele>
        <time>2020-10-28T11:43:35.534Z</time>
      </trkpt>
      <trkpt lat="48.06061" lon="6.85927">
        <ele>763</ele>
        <time>2020-10-28T11:43:36.534Z</time>
      </trkpt>
      <trkpt lat="48.06061" lon="6.8593">
        <ele>764</ele>
        <time>2020-10-28T11:43:37.533Z</time>
      </trkpt>
      <trkpt lat="48.06061" lon="6.85932">
        <ele>764</ele>
        <time>2020-10-28T11:43:38.533Z</time>
      </trkpt>
      <trkpt lat="48.06061" lon="6.85935">
        <ele>765</ele>
        <time>2020-10-28T11:43:39.534Z</time>
      </trkpt>
      <trkpt lat="48.06061" lon="6.85938">
        <ele>766</ele>
        <time>2020-10-28T11:43:40.534Z</time>
      </trkpt>
      <trkpt lat="48.0606" lon="6.8594">
        <ele>768</ele>
        <time>2020-10-28T11:43:41.534Z</time>
      </trkpt>
      <trkpt lat="48.06059" lon="6.85943">
        <ele>769</ele>
        <time>2020-10-28T11:43:42.533Z</time>
      </trkpt>
      <trkpt lat="48.06059" lon="6.85946">
        <ele>770</ele>
        <time>2020-10-28T11:43:43.534Z</time>
      </trkpt>
      <trkpt lat="48.06058" lon="6.85948">
        <ele>771</ele>
        <time>2020-10-28T11:43:44.533Z</time>
      </trkpt>
      <trkpt lat="48.06058" lon="6.8595">
        <ele>772</ele>
        <time>2020-10-28T11:43:45.533Z</time>
      </trkpt>
      <trkpt lat="48.06057" lon="6.85952">
        <ele>773</ele>
        <time>2020-10-28T11:43:46.533Z</time>
      </trkpt>
      <trkpt lat="48.06056" lon="6.85954">
        <ele>773</ele>
        <time>2020-10-28T11:43:47.534Z</time>
      </trkpt>
      <trkpt lat="48.06056" lon="6.85956">
        <ele>774</ele>
        <time>2020-10-28T11:43:48.534Z</time>
      </trkpt>
      <trkpt lat="48.06056" lon="6.85958">
        <ele>775</ele>
        <time>2020-10-28T11:43:49.533Z</time>
      </trkpt>
      <trkpt lat="48.06056" lon="6.85959">
        <ele>776</ele>
        <time>2020-10-28T11:43:50.533Z</time>
      </trkpt>
      <trkpt lat="48.06056" lon="6.8596">
        <ele>777</ele>
        <time>2020-10-28T11:43:51.534Z</time>
      </trkpt>
      <trkpt lat="48.06057" lon="6.85961">
        <ele>778</ele>
        <time>2020-10-28T11:43:52.534Z</time>
      </trkpt>
      <trkpt lat="48.06057" lon="6.85963">
        <ele>779</ele>
        <time>2020-10-28T11:43:53.534Z</time>
      </trkpt>
      <trkpt lat="48.06056" lon="6.85965">
        <ele>780</ele>
        <time>2020-10-28T11:43:54.534Z</time>
      </trkpt>
      <trkpt lat="48.06055" lon="6.85967">
        <ele>781</ele>
        <time>2020-10-28T11:43:55.534Z</time>
      </trkpt>
      <trkpt lat="48.06055" lon="6.85968">
        <ele>782</ele>
        <time>2020-10-28T11:43:56.533Z</time>
      </trkpt>
      <trkpt lat="48.06055" lon="6.85969">
        <ele>782</ele>
        <time>2020-10-28T11:43:57.534Z</time>
      </trkpt>
      <trkpt lat="48.06055" lon="6.85973">
        <ele>783</ele>
        <time>2020-10-28T11:43:58.533Z</time>
      </trkpt>
      <trkpt lat="48.06055" lon="6.85975">
        <ele>783</ele>
        <time>2020-10-28T11:43:59.533Z</time>
      </trkpt>
      <trkpt lat="48.06055" lon="6.85978">
        <ele>783</ele>
        <time>2020-10-28T11:44:00.534Z</time>
      </trkpt>
      <trkpt lat="48.06055" lon="6.8598">
        <ele>784</ele>
        <time>2020-10-28T11:44:01.533Z</time>
      </trkpt>
      <trkpt lat="48.06054" lon="6.85982">
        <ele>784</ele>
        <time>2020-10-28T11:44:02.533Z</time>
      </trkpt>
      <trkpt lat="48.06054" lon="6.85983">
        <ele>785</ele>
        <time>2020-10-28T11:44:03.534Z</time>
      </trkpt>
      <trkpt lat="48.06053" lon="6.85984">
        <ele>786</ele>
        <time>2020-10-28T11:44:04.533Z</time>
      </trkpt>
      <trkpt lat="48.06053" lon="6.85986">
        <ele>786</ele>
        <time>2020-10-28T11:44:05.533Z</time>
      </trkpt>
      <trkpt lat="48.06052" lon="6.85987">
        <ele>786</ele>
        <time>2020-10-28T11:44:06.533Z</time>
      </trkpt>
      <trkpt lat="48.06052" lon="6.85989">
        <ele>787</ele>
        <time>2020-10-28T11:44:07.534Z</time>
      </trkpt>
      <trkpt lat="48.06051" lon="6.85991">
        <ele>787</ele>
        <time>2020-10-28T11:44:08.534Z</time>
      </trkpt>
      <trkpt lat="48.06051" lon="6.85992">
        <ele>788</ele>
        <time>2020-10-28T11:44:09.534Z</time>
      </trkpt>
      <trkpt lat="48.0605" lon="6.85994">
        <ele>788</ele>
        <time>2020-10-28T11:44:10.534Z</time>
      </trkpt>
      <trkpt lat="48.06051" lon="6.85995">
        <ele>789</ele>
        <time>2020-10-28T11:44:11.533Z</time>
      </trkpt>
      <trkpt lat="48.06051" lon="6.85996">
        <ele>789</ele>
        <time>2020-10-28T11:44:12.534Z</time>
      </trkpt>
      <trkpt lat="48.06051" lon="6.85998">
        <ele>790</ele>
        <time>2020-10-28T11:44:13.534Z</time>
      </trkpt>
      <trkpt lat="48.06051" lon="6.86">
        <ele>790</ele>
        <time>2020-10-28T11:44:14.534Z</time>
      </trkpt>
      <trkpt lat="48.06051" lon="6.86002">
        <ele>790</ele>
        <time>2020-10-28T11:44:15.533Z</time>
      </trkpt>
      <trkpt lat="48.0605" lon="6.86004">
        <ele>790</ele>
        <time>2020-10-28T11:44:16.533Z</time>
      </trkpt>
      <trkpt lat="48.06051" lon="6.86007">
        <ele>791</ele>
        <time>2020-10-28T11:44:17.533Z</time>
      </trkpt>
      <trkpt lat="48.06051" lon="6.86009">
        <ele>791</ele>
        <time>2020-10-28T11:44:18.534Z</time>
      </trkpt>
      <trkpt lat="48.0605" lon="6.86011">
        <ele>792</ele>
        <time>2020-10-28T11:44:19.533Z</time>
      </trkpt>
      <trkpt lat="48.0605" lon="6.86013">
        <ele>793</ele>
        <time>2020-10-28T11:44:20.533Z</time>
      </trkpt>
      <trkpt lat="48.0605" lon="6.86014">
        <ele>793</ele>
        <time>2020-10-28T11:44:21.534Z</time>
      </trkpt>
      <trkpt lat="48.0605" lon="6.86016">
        <ele>793</ele>
        <time>2020-10-28T11:44:26.582Z</time>
      </trkpt>
      <trkpt lat="48.06049" lon="6.86018">
        <ele>794</ele>
        <time>2020-10-28T11:44:27.582Z</time>
      </trkpt>
      <trkpt lat="48.06048" lon="6.8602">
        <ele>794</ele>
        <time>2020-10-28T11:44:28.582Z</time>
      </trkpt>
      <trkpt lat="48.06048" lon="6.86022">
        <ele>795</ele>
        <time>2020-10-28T11:44:29.581Z</time>
      </trkpt>
      <trkpt lat="48.06047" lon="6.86023">
        <ele>795</ele>
        <time>2020-10-28T11:44:30.581Z</time>
      </trkpt>
      <trkpt lat="48.06047" lon="6.86025">
        <ele>796</ele>
        <time>2020-10-28T11:44:31.582Z</time>
      </trkpt>
      <trkpt lat="48.06047" lon="6.86026">
        <ele>797</ele>
        <time>2020-10-28T11:44:32.581Z</time>
      </trkpt>
      <trkpt lat="48.06046" lon="6.86027">
        <ele>798</ele>
        <time>2020-10-28T11:44:33.581Z</time>
      </trkpt>
      <trkpt lat="48.06046" lon="6.86028">
        <ele>799</ele>
        <time>2020-10-28T11:44:34.582Z</time>
      </trkpt>
      <trkpt lat="48.06046" lon="6.8603">
        <ele>800</ele>
        <time>2020-10-28T11:44:35.581Z</time>
      </trkpt>
      <trkpt lat="48.06045" lon="6.86031">
        <ele>801</ele>
        <time>2020-10-28T11:44:36.582Z</time>
      </trkpt>
      <trkpt lat="48.06045" lon="6.86033">
        <ele>801</ele>
        <time>2020-10-28T11:44:37.582Z</time>
      </trkpt>
      <trkpt lat="48.06044" lon="6.86034">
        <ele>802</ele>
        <time>2020-10-28T11:44:38.582Z</time>
      </trkpt>
      <trkpt lat="48.06044" lon="6.86036">
        <ele>803</ele>
        <time>2020-10-28T11:44:39.582Z</time>
      </trkpt>
      <trkpt lat="48.06044" lon="6.86038">
        <ele>804</ele>
        <time>2020-10-28T11:44:40.582Z</time>
      </trkpt>
      <trkpt lat="48.06044" lon="6.86039">
        <ele>804</ele>
        <time>2020-10-28T11:44:41.582Z</time>
      </trkpt>
      <trkpt lat="48.06044" lon="6.8604">
        <ele>805</ele>
        <time>2020-10-28T11:44:42.582Z</time>
      </trkpt>
      <trkpt lat="48.06044" lon="6.86041">
        <ele>805</ele>
        <time>2020-10-28T11:44:43.582Z</time>
      </trkpt>
      <trkpt lat="48.06044" lon="6.86043">
        <ele>805</ele>
        <time>2020-10-28T11:44:44.581Z</time>
      </trkpt>
      <trkpt lat="48.06043" lon="6.86045">
        <ele>806</ele>
        <time>2020-10-28T11:44:45.581Z</time>
      </trkpt>
      <trkpt lat="48.06042" lon="6.86047">
        <ele>806</ele>
        <time>2020-10-28T11:44:46.581Z</time>
      </trkpt>
      <trkpt lat="48.06042" lon="6.86049">
        <ele>806</ele>
        <time>2020-10-28T11:44:47.581Z</time>
      </trkpt>
      <trkpt lat="48.06042" lon="6.86051">
        <ele>806</ele>
        <time>2020-10-28T11:44:48.582Z</time>
      </trkpt>
      <trkpt lat="48.06043" lon="6.86054">
        <ele>806</ele>
        <time>2020-10-28T11:44:49.582Z</time>
      </trkpt>
      <trkpt lat="48.06042" lon="6.86056">
        <ele>806</ele>
        <time>2020-10-28T11:44:50.581Z</time>
      </trkpt>
      <trkpt lat="48.06042" lon="6.86058">
        <ele>806</ele>
        <time>2020-10-28T11:44:51.582Z</time>
      </trkpt>
      <trkpt lat="48.06042" lon="6.8606">
        <ele>806</ele>
        <time>2020-10-28T11:44:52.582Z</time>
      </trkpt>
      <trkpt lat="48.06043" lon="6.86062">
        <ele>806</ele>
        <time>2020-10-28T11:44:53.582Z</time>
      </trkpt>
      <trkpt lat="48.06043" lon="6.86063">
        <ele>806</ele>
        <time>2020-10-28T11:44:58.733Z</time>
      </trkpt>
      <trkpt lat="48.06043" lon="6.86065">
        <ele>806</ele>
        <time>2020-10-28T11:44:59.734Z</time>
      </trkpt>
      <trkpt lat="48.06044" lon="6.86067">
        <ele>806</ele>
        <time>2020-10-28T11:45:00.734Z</time>
      </trkpt>
      <trkpt lat="48.06044" lon="6.86068">
        <ele>805</ele>
        <time>2020-10-28T11:45:24.840Z</time>
      </trkpt>
      <trkpt lat="48.06044" lon="6.86069">
        <ele>805</ele>
        <time>2020-10-28T11:45:25.840Z</time>
      </trkpt>
      <trkpt lat="48.06044" lon="6.8607">
        <ele>805</ele>
        <time>2020-10-28T11:45:26.841Z</time>
      </trkpt>
      <trkpt lat="48.06044" lon="6.86072">
        <ele>804</ele>
        <time>2020-10-28T11:45:27.841Z</time>
      </trkpt>
      <trkpt lat="48.06044" lon="6.86073">
        <ele>804</ele>
        <time>2020-10-28T11:45:28.841Z</time>
      </trkpt>
      <trkpt lat="48.06045" lon="6.86073">
        <ele>804</ele>
        <time>2020-10-28T11:45:29.841Z</time>
      </trkpt>
      <trkpt lat="48.06045" lon="6.86074">
        <ele>804</ele>
        <time>2020-10-28T11:45:30.841Z</time>
      </trkpt>
      <trkpt lat="48.06046" lon="6.86075">
        <ele>804</ele>
        <time>2020-10-28T11:45:31.840Z</time>
      </trkpt>
      <trkpt lat="48.06048" lon="6.86076">
        <ele>804</ele>
        <time>2020-10-28T11:45:32.841Z</time>
      </trkpt>
      <trkpt lat="48.0605" lon="6.86077">
        <ele>805</ele>
        <time>2020-10-28T11:45:33.841Z</time>
      </trkpt>
      <trkpt lat="48.06051" lon="6.86077">
        <ele>805</ele>
        <time>2020-10-28T11:45:34.841Z</time>
      </trkpt>
      <trkpt lat="48.06051" lon="6.86078">
        <ele>806</ele>
        <time>2020-10-28T11:45:35.840Z</time>
      </trkpt>
      <trkpt lat="48.06052" lon="6.8608">
        <ele>807</ele>
        <time>2020-10-28T11:45:36.841Z</time>
      </trkpt>
      <trkpt lat="48.06053" lon="6.86081">
        <ele>807</ele>
        <time>2020-10-28T11:45:37.840Z</time>
      </trkpt>
      <trkpt lat="48.06052" lon="6.86083">
        <ele>808</ele>
        <time>2020-10-28T11:45:38.841Z</time>
      </trkpt>
      <trkpt lat="48.06052" lon="6.86084">
        <ele>809</ele>
        <time>2020-10-28T11:45:39.841Z</time>
      </trkpt>
      <trkpt lat="48.06052" lon="6.86085">
        <ele>810</ele>
        <time>2020-10-28T11:45:40.840Z</time>
      </trkpt>
      <trkpt lat="48.06052" lon="6.86086">
        <ele>810</ele>
        <time>2020-10-28T11:45:41.841Z</time>
      </trkpt>
      <trkpt lat="48.06053" lon="6.86087">
        <ele>811</ele>
        <time>2020-10-28T11:45:42.840Z</time>
      </trkpt>
      <trkpt lat="48.06053" lon="6.86088">
        <ele>812</ele>
        <time>2020-10-28T11:45:43.840Z</time>
      </trkpt>
      <trkpt lat="48.06053" lon="6.8609">
        <ele>812</ele>
        <time>2020-10-28T11:45:44.840Z</time>
      </trkpt>
      <trkpt lat="48.06054" lon="6.86091">
        <ele>812</ele>
        <time>2020-10-28T11:45:45.840Z</time>
      </trkpt>
      <trkpt lat="48.06055" lon="6.86092">
        <ele>812</ele>
        <time>2020-10-28T11:45:46.841Z</time>
      </trkpt>
      <trkpt lat="48.06055" lon="6.86092">
        <ele>812</ele>
        <time>2020-10-28T11:45:49.949Z</time>
      </trkpt>
      <trkpt lat="48.06056" lon="6.86093">
        <ele>812</ele>
        <time>2020-10-28T11:45:50.949Z</time>
      </trkpt>
      <trkpt lat="48.06057" lon="6.86094">
        <ele>812</ele>
        <time>2020-10-28T11:45:51.949Z</time>
      </trkpt>
      <trkpt lat="48.06058" lon="6.86096">
        <ele>812</ele>
        <time>2020-10-28T11:45:52.948Z</time>
      </trkpt>
      <trkpt lat="48.06059" lon="6.86097">
        <ele>812</ele>
        <time>2020-10-28T11:45:53.949Z</time>
      </trkpt>
      <trkpt lat="48.0606" lon="6.86098">
        <ele>812</ele>
        <time>2020-10-28T11:45:54.949Z</time>
      </trkpt>
      <trkpt lat="48.06061" lon="6.861">
        <ele>813</ele>
        <time>2020-10-28T11:45:55.948Z</time>
      </trkpt>
      <trkpt lat="48.06062" lon="6.86102">
        <ele>813</ele>
        <time>2020-10-28T11:45:56.949Z</time>
      </trkpt>
      <trkpt lat="48.06063" lon="6.86104">
        <ele>813</ele>
        <time>2020-10-28T11:45:57.948Z</time>
      </trkpt>
      <trkpt lat="48.06064" lon="6.86105">
        <ele>813</ele>
        <time>2020-10-28T11:45:58.948Z</time>
      </trkpt>
      <trkpt lat="48.06066" lon="6.86107">
        <ele>814</ele>
        <time>2020-10-28T11:45:59.948Z</time>
      </trkpt>
      <trkpt lat="48.06067" lon="6.86109">
        <ele>814</ele>
        <time>2020-10-28T11:46:00.949Z</time>
      </trkpt>
      <trkpt lat="48.06068" lon="6.86111">
        <ele>815</ele>
        <time>2020-10-28T11:46:01.949Z</time>
      </trkpt>
      <trkpt lat="48.06069" lon="6.86113">
        <ele>815</ele>
        <time>2020-10-28T11:46:02.948Z</time>
      </trkpt>
      <trkpt lat="48.06069" lon="6.86114">
        <ele>816</ele>
        <time>2020-10-28T11:46:03.949Z</time>
      </trkpt>
      <trkpt lat="48.0607" lon="6.86115">
        <ele>816</ele>
        <time>2020-10-28T11:46:04.949Z</time>
      </trkpt>
      <trkpt lat="48.06071" lon="6.86117">
        <ele>816</ele>
        <time>2020-10-28T11:46:05.948Z</time>
      </trkpt>
      <trkpt lat="48.06072" lon="6.86119">
        <ele>816</ele>
        <time>2020-10-28T11:46:06.949Z</time>
      </trkpt>
      <trkpt lat="48.06073" lon="6.86121">
        <ele>816</ele>
        <time>2020-10-28T11:46:07.948Z</time>
      </trkpt>
      <trkpt lat="48.06073" lon="6.86122">
        <ele>816</ele>
        <time>2020-10-28T11:46:08.949Z</time>
      </trkpt>
      <trkpt lat="48.06075" lon="6.86123">
        <ele>816</ele>
        <time>2020-10-28T11:46:09.948Z</time>
      </trkpt>
      <trkpt lat="48.06076" lon="6.86124">
        <ele>816</ele>
        <time>2020-10-28T11:46:10.948Z</time>
      </trkpt>
      <trkpt lat="48.06077" lon="6.86125">
        <ele>816</ele>
        <time>2020-10-28T11:46:11.949Z</time>
      </trkpt>
      <trkpt lat="48.06078" lon="6.86125">
        <ele>816</ele>
        <time>2020-10-28T11:46:12.949Z</time>
      </trkpt>
      <trkpt lat="48.06079" lon="6.86126">
        <ele>816</ele>
        <time>2020-10-28T11:46:17.040Z</time>
      </trkpt>
      <trkpt lat="48.0608" lon="6.86127">
        <ele>816</ele>
        <time>2020-10-28T11:46:18.041Z</time>
      </trkpt>
      <trkpt lat="48.06081" lon="6.86128">
        <ele>816</ele>
        <time>2020-10-28T11:46:19.041Z</time>
      </trkpt>
      <trkpt lat="48.06081" lon="6.86129">
        <ele>816</ele>
        <time>2020-10-28T11:46:20.040Z</time>
      </trkpt>
      <trkpt lat="48.06082" lon="6.8613">
        <ele>816</ele>
        <time>2020-10-28T11:46:21.041Z</time>
      </trkpt>
      <trkpt lat="48.06083" lon="6.86131">
        <ele>815</ele>
        <time>2020-10-28T11:46:22.041Z</time>
      </trkpt>
      <trkpt lat="48.06084" lon="6.86131">
        <ele>815</ele>
        <time>2020-10-28T11:46:23.040Z</time>
      </trkpt>
      <trkpt lat="48.06085" lon="6.86131">
        <ele>815</ele>
        <time>2020-10-28T11:46:24.041Z</time>
      </trkpt>
      <trkpt lat="48.06085" lon="6.86131">
        <ele>815</ele>
        <time>2020-10-28T11:46:25.041Z</time>
      </trkpt>
      <trkpt lat="48.06086" lon="6.86131">
        <ele>814</ele>
        <time>2020-10-28T11:46:26.040Z</time>
      </trkpt>
      <trkpt lat="48.06087" lon="6.86131">
        <ele>814</ele>
        <time>2020-10-28T11:46:27.041Z</time>
      </trkpt>
      <trkpt lat="48.06088" lon="6.86132">
        <ele>814</ele>
        <time>2020-10-28T11:46:28.040Z</time>
      </trkpt>
      <trkpt lat="48.0609" lon="6.86132">
        <ele>814</ele>
        <time>2020-10-28T11:46:29.040Z</time>
      </trkpt>
      <trkpt lat="48.06091" lon="6.86132">
        <ele>814</ele>
        <time>2020-10-28T11:46:30.041Z</time>
      </trkpt>
      <trkpt lat="48.06092" lon="6.86131">
        <ele>814</ele>
        <time>2020-10-28T11:46:31.040Z</time>
      </trkpt>
      <trkpt lat="48.06093" lon="6.86131">
        <ele>814</ele>
        <time>2020-10-28T11:46:32.040Z</time>
      </trkpt>
      <trkpt lat="48.06094" lon="6.86131">
        <ele>814</ele>
        <time>2020-10-28T11:46:33.040Z</time>
      </trkpt>
      <trkpt lat="48.06095" lon="6.86132">
        <ele>814</ele>
        <time>2020-10-28T11:46:34.041Z</time>
      </trkpt>
      <trkpt lat="48.06096" lon="6.86132">
        <ele>814</ele>
        <time>2020-10-28T11:46:35.041Z</time>
      </trkpt>
      <trkpt lat="48.06096" lon="6.86133">
        <ele>814</ele>
        <time>2020-10-28T11:46:36.040Z</time>
      </trkpt>
      <trkpt lat="48.06097" lon="6.86133">
        <ele>814</ele>
        <time>2020-10-28T11:47:00.041Z</time>
      </trkpt>
      <trkpt lat="48.06098" lon="6.86132">
        <ele>814</ele>
        <time>2020-10-28T11:47:01.041Z</time>
      </trkpt>
      <trkpt lat="48.061" lon="6.86132">
        <ele>815</ele>
        <time>2020-10-28T11:47:02.042Z</time>
      </trkpt>
      <trkpt lat="48.061" lon="6.86131">
        <ele>815</ele>
        <time>2020-10-28T11:47:03.041Z</time>
      </trkpt>
      <trkpt lat="48.06101" lon="6.86131">
        <ele>815</ele>
        <time>2020-10-28T11:47:04.042Z</time>
      </trkpt>
      <trkpt lat="48.06102" lon="6.86131">
        <ele>815</ele>
        <time>2020-10-28T11:47:05.042Z</time>
      </trkpt>
      <trkpt lat="48.06103" lon="6.8613">
        <ele>815</ele>
        <time>2020-10-28T11:47:08.161Z</time>
      </trkpt>
      <trkpt lat="48.06103" lon="6.86129">
        <ele>815</ele>
        <time>2020-10-28T11:47:09.160Z</time>
      </trkpt>
      <trkpt lat="48.06105" lon="6.86129">
        <ele>815</ele>
        <time>2020-10-28T11:47:10.160Z</time>
      </trkpt>
      <trkpt lat="48.06106" lon="6.86129">
        <ele>815</ele>
        <time>2020-10-28T11:47:11.160Z</time>
      </trkpt>
      <trkpt lat="48.06107" lon="6.8613">
        <ele>815</ele>
        <time>2020-10-28T11:47:12.161Z</time>
      </trkpt>
      <trkpt lat="48.06107" lon="6.8613">
        <ele>815</ele>
        <time>2020-10-28T11:47:13.161Z</time>
      </trkpt>
      <trkpt lat="48.06107" lon="6.8613">
        <ele>815</ele>
        <time>2020-10-28T11:47:14.161Z</time>
      </trkpt>
      <trkpt lat="48.06108" lon="6.86131">
        <ele>815</ele>
        <time>2020-10-28T11:47:15.160Z</time>
      </trkpt>
      <trkpt lat="48.06109" lon="6.86132">
        <ele>814</ele>
        <time>2020-10-28T11:47:16.161Z</time>
      </trkpt>
      <trkpt lat="48.0611" lon="6.86133">
        <ele>814</ele>
        <time>2020-10-28T11:47:17.160Z</time>
      </trkpt>
      <trkpt lat="48.06112" lon="6.86134">
        <ele>815</ele>
        <time>2020-10-28T11:47:18.160Z</time>
      </trkpt>
      <trkpt lat="48.06114" lon="6.86135">
        <ele>815</ele>
        <time>2020-10-28T11:47:19.161Z</time>
      </trkpt>
      <trkpt lat="48.06115" lon="6.86136">
        <ele>815</ele>
        <time>2020-10-28T11:47:20.161Z</time>
      </trkpt>
      <trkpt lat="48.06117" lon="6.86137">
        <ele>815</ele>
        <time>2020-10-28T11:47:21.161Z</time>
      </trkpt>
      <trkpt lat="48.06117" lon="6.86138">
        <ele>816</ele>
        <time>2020-10-28T11:47:36.308Z</time>
      </trkpt>
      <trkpt lat="48.06117" lon="6.86138">
        <ele>816</ele>
        <time>2020-10-28T11:47:39.170Z</time>
      </trkpt>
      <trkpt lat="48.06118" lon="6.86139">
        <ele>816</ele>
        <time>2020-10-28T11:47:40.170Z</time>
      </trkpt>
      <trkpt lat="48.06118" lon="6.8614">
        <ele>816</ele>
        <time>2020-10-28T11:47:41.171Z</time>
      </trkpt>
      <trkpt lat="48.06119" lon="6.86141">
        <ele>816</ele>
        <time>2020-10-28T11:48:47.318Z</time>
      </trkpt>
      <trkpt lat="48.0612" lon="6.86143">
        <ele>816</ele>
        <time>2020-10-28T11:48:48.319Z</time>
      </trkpt>
      <trkpt lat="48.06121" lon="6.86144">
        <ele>816</ele>
        <time>2020-10-28T11:48:49.319Z</time>
      </trkpt>
      <trkpt lat="48.06122" lon="6.86146">
        <ele>815</ele>
        <time>2020-10-28T11:48:50.318Z</time>
      </trkpt>
      <trkpt lat="48.06122" lon="6.86148">
        <ele>815</ele>
        <time>2020-10-28T11:48:51.319Z</time>
      </trkpt>
      <trkpt lat="48.06123" lon="6.8615">
        <ele>814</ele>
        <time>2020-10-28T11:48:52.318Z</time>
      </trkpt>
      <trkpt lat="48.06124" lon="6.86152">
        <ele>814</ele>
        <time>2020-10-28T11:49:13.433Z</time>
      </trkpt>
      <trkpt lat="48.06124" lon="6.86153">
        <ele>813</ele>
        <time>2020-10-28T11:49:14.434Z</time>
      </trkpt>
      <trkpt lat="48.06124" lon="6.86154">
        <ele>813</ele>
        <time>2020-10-28T11:49:15.433Z</time>
      </trkpt>
      <trkpt lat="48.06125" lon="6.86155">
        <ele>813</ele>
        <time>2020-10-28T11:49:16.434Z</time>
      </trkpt>
      <trkpt lat="48.06126" lon="6.86157">
        <ele>812</ele>
        <time>2020-10-28T11:49:17.434Z</time>
      </trkpt>
      <trkpt lat="48.06127" lon="6.86159">
        <ele>812</ele>
        <time>2020-10-28T11:49:18.434Z</time>
      </trkpt>
      <trkpt lat="48.06127" lon="6.8616">
        <ele>812</ele>
        <time>2020-10-28T11:49:19.434Z</time>
      </trkpt>
      <trkpt lat="48.06128" lon="6.86162">
        <ele>811</ele>
        <time>2020-10-28T11:49:20.434Z</time>
      </trkpt>
      <trkpt lat="48.06128" lon="6.86163">
        <ele>811</ele>
        <time>2020-10-28T11:49:21.434Z</time>
      </trkpt>
      <trkpt lat="48.06129" lon="6.86164">
        <ele>810</ele>
        <time>2020-10-28T11:49:22.434Z</time>
      </trkpt>
      <trkpt lat="48.0613" lon="6.86165">
        <ele>810</ele>
        <time>2020-10-28T11:49:23.434Z</time>
      </trkpt>
      <trkpt lat="48.06131" lon="6.86167">
        <ele>810</ele>
        <time>2020-10-28T11:49:24.433Z</time>
      </trkpt>
      <trkpt lat="48.06132" lon="6.86168">
        <ele>810</ele>
        <time>2020-10-28T11:49:25.433Z</time>
      </trkpt>
      <trkpt lat="48.06133" lon="6.8617">
        <ele>810</ele>
        <time>2020-10-28T11:49:26.434Z</time>
      </trkpt>
      <trkpt lat="48.06133" lon="6.8617">
        <ele>810</ele>
        <time>2020-10-28T11:49:27.433Z</time>
      </trkpt>
      <trkpt lat="48.06134" lon="6.86171">
        <ele>810</ele>
        <time>2020-10-28T11:49:28.434Z</time>
      </trkpt>
      <trkpt lat="48.06135" lon="6.86172">
        <ele>810</ele>
        <time>2020-10-28T11:49:29.433Z</time>
      </trkpt>
      <trkpt lat="48.06135" lon="6.86173">
        <ele>810</ele>
        <time>2020-10-28T11:49:30.434Z</time>
      </trkpt>
      <trkpt lat="48.06134" lon="6.86174">
        <ele>809</ele>
        <time>2020-10-28T11:49:31.434Z</time>
      </trkpt>
      <trkpt lat="48.06135" lon="6.86174">
        <ele>808</ele>
        <time>2020-10-28T11:49:32.434Z</time>
      </trkpt>
      <trkpt lat="48.06135" lon="6.86175">
        <ele>807</ele>
        <time>2020-10-28T11:49:33.433Z</time>
      </trkpt>
      <trkpt lat="48.06135" lon="6.86176">
        <ele>806</ele>
        <time>2020-10-28T11:49:34.434Z</time>
      </trkpt>
      <trkpt lat="48.06136" lon="6.86176">
        <ele>805</ele>
        <time>2020-10-28T11:49:35.433Z</time>
      </trkpt>
      <trkpt lat="48.06136" lon="6.86177">
        <ele>804</ele>
        <time>2020-10-28T11:49:36.434Z</time>
      </trkpt>
      <trkpt lat="48.06136" lon="6.86177">
        <ele>802</ele>
        <time>2020-10-28T11:49:37.434Z</time>
      </trkpt>
      <trkpt lat="48.06136" lon="6.86177">
        <ele>801</ele>
        <time>2020-10-28T11:49:38.434Z</time>
      </trkpt>
      <trkpt lat="48.06136" lon="6.86178">
        <ele>799</ele>
        <time>2020-10-28T11:49:39.435Z</time>
      </trkpt>
      <trkpt lat="48.06136" lon="6.86179">
        <ele>798</ele>
        <time>2020-10-28T11:49:40.435Z</time>
      </trkpt>
      <trkpt lat="48.06137" lon="6.86179">
        <ele>797</ele>
        <time>2020-10-28T11:49:41.434Z</time>
      </trkpt>
      <trkpt lat="48.06137" lon="6.8618">
        <ele>794</ele>
        <time>2020-10-28T11:49:42.435Z</time>
      </trkpt>
      <trkpt lat="48.06138" lon="6.86181">
        <ele>794</ele>
        <time>2020-10-28T11:49:43.436Z</time>
      </trkpt>
      <trkpt lat="48.06139" lon="6.86182">
        <ele>793</ele>
        <time>2020-10-28T11:49:44.435Z</time>
      </trkpt>
      <trkpt lat="48.0614" lon="6.86184">
        <ele>793</ele>
        <time>2020-10-28T11:49:45.435Z</time>
      </trkpt>
      <trkpt lat="48.06141" lon="6.86186">
        <ele>793</ele>
        <time>2020-10-28T11:49:46.436Z</time>
      </trkpt>
      <trkpt lat="48.06142" lon="6.86188">
        <ele>793</ele>
        <time>2020-10-28T11:49:47.436Z</time>
      </trkpt>
      <trkpt lat="48.06143" lon="6.86189">
        <ele>793</ele>
        <time>2020-10-28T11:49:48.436Z</time>
      </trkpt>
      <trkpt lat="48.06144" lon="6.8619">
        <ele>793</ele>
        <time>2020-10-28T11:49:49.436Z</time>
      </trkpt>
      <trkpt lat="48.06145" lon="6.86192">
        <ele>793</ele>
        <time>2020-10-28T11:49:50.436Z</time>
      </trkpt>
      <trkpt lat="48.06146" lon="6.86192">
        <ele>793</ele>
        <time>2020-10-28T11:49:51.436Z</time>
      </trkpt>
      <trkpt lat="48.06147" lon="6.86193">
        <ele>793</ele>
        <time>2020-10-28T11:49:52.436Z</time>
      </trkpt>
      <trkpt lat="48.06148" lon="6.86194">
        <ele>794</ele>
        <time>2020-10-28T11:49:53.436Z</time>
      </trkpt>
      <trkpt lat="48.06149" lon="6.86196">
        <ele>794</ele>
        <time>2020-10-28T11:49:54.436Z</time>
      </trkpt>
      <trkpt lat="48.0615" lon="6.86197">
        <ele>794</ele>
        <time>2020-10-28T11:49:55.435Z</time>
      </trkpt>
      <trkpt lat="48.06151" lon="6.86198">
        <ele>795</ele>
        <time>2020-10-28T11:49:56.435Z</time>
      </trkpt>
      <trkpt lat="48.06152" lon="6.86198">
        <ele>796</ele>
        <time>2020-10-28T11:49:57.435Z</time>
      </trkpt>
      <trkpt lat="48.06153" lon="6.86198">
        <ele>796</ele>
        <time>2020-10-28T11:49:58.436Z</time>
      </trkpt>
      <trkpt lat="48.06154" lon="6.86199">
        <ele>797</ele>
        <time>2020-10-28T11:49:59.436Z</time>
      </trkpt>
      <trkpt lat="48.06155" lon="6.86199">
        <ele>797</ele>
        <time>2020-10-28T11:50:00.435Z</time>
      </trkpt>
      <trkpt lat="48.06157" lon="6.862">
        <ele>797</ele>
        <time>2020-10-28T11:50:01.435Z</time>
      </trkpt>
      <trkpt lat="48.06158" lon="6.862">
        <ele>797</ele>
        <time>2020-10-28T11:50:02.436Z</time>
      </trkpt>
      <trkpt lat="48.06159" lon="6.86201">
        <ele>797</ele>
        <time>2020-10-28T11:50:03.436Z</time>
      </trkpt>
      <trkpt lat="48.06159" lon="6.86202">
        <ele>797</ele>
        <time>2020-10-28T11:50:04.436Z</time>
      </trkpt>
      <trkpt lat="48.0616" lon="6.86203">
        <ele>798</ele>
        <time>2020-10-28T11:50:05.435Z</time>
      </trkpt>
      <trkpt lat="48.06161" lon="6.86204">
        <ele>798</ele>
        <time>2020-10-28T11:50:06.436Z</time>
      </trkpt>
      <trkpt lat="48.06163" lon="6.86205">
        <ele>799</ele>
        <time>2020-10-28T11:50:07.436Z</time>
      </trkpt>
      <trkpt lat="48.06164" lon="6.86206">
        <ele>799</ele>
        <time>2020-10-28T11:50:08.436Z</time>
      </trkpt>
      <trkpt lat="48.06166" lon="6.86207">
        <ele>799</ele>
        <time>2020-10-28T11:50:09.436Z</time>
      </trkpt>
      <trkpt lat="48.06168" lon="6.86208">
        <ele>800</ele>
        <time>2020-10-28T11:50:10.435Z</time>
      </trkpt>
      <trkpt lat="48.0617" lon="6.86209">
        <ele>800</ele>
        <time>2020-10-28T11:50:11.436Z</time>
      </trkpt>
      <trkpt lat="48.06172" lon="6.8621">
        <ele>801</ele>
        <time>2020-10-28T11:50:12.436Z</time>
      </trkpt>
      <trkpt lat="48.06173" lon="6.86212">
        <ele>802</ele>
        <time>2020-10-28T11:50:13.436Z</time>
      </trkpt>
      <trkpt lat="48.06175" lon="6.86213">
        <ele>803</ele>
        <time>2020-10-28T11:50:14.436Z</time>
      </trkpt>
      <trkpt lat="48.06176" lon="6.86213">
        <ele>804</ele>
        <time>2020-10-28T11:50:15.436Z</time>
      </trkpt>
      <trkpt lat="48.06178" lon="6.86213">
        <ele>804</ele>
        <time>2020-10-28T11:50:16.436Z</time>
      </trkpt>
      <trkpt lat="48.06179" lon="6.86213">
        <ele>805</ele>
        <time>2020-10-28T11:50:17.435Z</time>
      </trkpt>
      <trkpt lat="48.06181" lon="6.86214">
        <ele>805</ele>
        <time>2020-10-28T11:50:18.435Z</time>
      </trkpt>
      <trkpt lat="48.06183" lon="6.86214">
        <ele>805</ele>
        <time>2020-10-28T11:50:19.436Z</time>
      </trkpt>
      <trkpt lat="48.06184" lon="6.86213">
        <ele>806</ele>
        <time>2020-10-28T11:50:20.436Z</time>
      </trkpt>
      <trkpt lat="48.06185" lon="6.86213">
        <ele>806</ele>
        <time>2020-10-28T11:50:21.436Z</time>
      </trkpt>
      <trkpt lat="48.06186" lon="6.86213">
        <ele>806</ele>
        <time>2020-10-28T11:50:22.436Z</time>
      </trkpt>
      <trkpt lat="48.06187" lon="6.86214">
        <ele>807</ele>
        <time>2020-10-28T11:50:23.435Z</time>
      </trkpt>
      <trkpt lat="48.06188" lon="6.86215">
        <ele>807</ele>
        <time>2020-10-28T11:50:24.436Z</time>
      </trkpt>
      <trkpt lat="48.06189" lon="6.86215">
        <ele>808</ele>
        <time>2020-10-28T11:50:25.436Z</time>
      </trkpt>
      <trkpt lat="48.0619" lon="6.86215">
        <ele>809</ele>
        <time>2020-10-28T11:50:26.436Z</time>
      </trkpt>
      <trkpt lat="48.06189" lon="6.8621">
        <ele>810</ele>
        <time>2020-10-28T11:50:27.436Z</time>
      </trkpt>
      <trkpt lat="48.0619" lon="6.8621">
        <ele>810</ele>
        <time>2020-10-28T11:50:28.437Z</time>
      </trkpt>
      <trkpt lat="48.0619" lon="6.86209">
        <ele>809</ele>
        <time>2020-10-28T11:50:29.436Z</time>
      </trkpt>
      <trkpt lat="48.0619" lon="6.86209">
        <ele>809</ele>
        <time>2020-10-28T11:50:30.436Z</time>
      </trkpt>
      <trkpt lat="48.0619" lon="6.86209">
        <ele>809</ele>
        <time>2020-10-28T11:50:31.436Z</time>
      </trkpt>
      <trkpt lat="48.06193" lon="6.86203">
        <ele>816</ele>
        <time>2020-10-28T11:50:32.438Z</time>
      </trkpt>
      <trkpt lat="48.06194" lon="6.86202">
        <ele>816</ele>
        <time>2020-10-28T11:50:33.437Z</time>
      </trkpt>
      <trkpt lat="48.06195" lon="6.86201">
        <ele>816</ele>
        <time>2020-10-28T11:50:34.437Z</time>
      </trkpt>
      <trkpt lat="48.06197" lon="6.862">
        <ele>815</ele>
        <time>2020-10-28T11:50:35.438Z</time>
      </trkpt>
      <trkpt lat="48.06199" lon="6.862">
        <ele>815</ele>
        <time>2020-10-28T11:50:36.437Z</time>
      </trkpt>
      <trkpt lat="48.06201" lon="6.86201">
        <ele>815</ele>
        <time>2020-10-28T11:50:37.438Z</time>
      </trkpt>
      <trkpt lat="48.06203" lon="6.86202">
        <ele>814</ele>
        <time>2020-10-28T11:50:38.437Z</time>
      </trkpt>
      <trkpt lat="48.06204" lon="6.86202">
        <ele>814</ele>
        <time>2020-10-28T11:50:39.437Z</time>
      </trkpt>
      <trkpt lat="48.06205" lon="6.86202">
        <ele>814</ele>
        <time>2020-10-28T11:50:40.437Z</time>
      </trkpt>
      <trkpt lat="48.06205" lon="6.86202">
        <ele>814</ele>
        <time>2020-10-28T11:50:41.438Z</time>
      </trkpt>
      <trkpt lat="48.06206" lon="6.86202">
        <ele>814</ele>
        <time>2020-10-28T11:50:42.438Z</time>
      </trkpt>
      <trkpt lat="48.06207" lon="6.86202">
        <ele>814</ele>
        <time>2020-10-28T11:50:43.437Z</time>
      </trkpt>
      <trkpt lat="48.06208" lon="6.86202">
        <ele>814</ele>
        <time>2020-10-28T11:50:44.438Z</time>
      </trkpt>
      <trkpt lat="48.06208" lon="6.86201">
        <ele>813</ele>
        <time>2020-10-28T11:50:45.438Z</time>
      </trkpt>
      <trkpt lat="48.06208" lon="6.862">
        <ele>813</ele>
        <time>2020-10-28T11:50:46.438Z</time>
      </trkpt>
      <trkpt lat="48.06208" lon="6.862">
        <ele>813</ele>
        <time>2020-10-28T11:50:47.437Z</time>
      </trkpt>
      <trkpt lat="48.06208" lon="6.86199">
        <ele>813</ele>
        <time>2020-10-28T11:50:48.437Z</time>
      </trkpt>
      <trkpt lat="48.06208" lon="6.86198">
        <ele>812</ele>
        <time>2020-10-28T11:50:50.301Z</time>
      </trkpt>
      <trkpt lat="48.06208" lon="6.86197">
        <ele>811</ele>
        <time>2020-10-28T11:50:51.301Z</time>
      </trkpt>
      <trkpt lat="48.06208" lon="6.86196">
        <ele>810</ele>
        <time>2020-10-28T11:50:52.302Z</time>
      </trkpt>
      <trkpt lat="48.06209" lon="6.86196">
        <ele>809</ele>
        <time>2020-10-28T11:50:53.301Z</time>
      </trkpt>
      <trkpt lat="48.0621" lon="6.86195">
        <ele>809</ele>
        <time>2020-10-28T11:50:54.301Z</time>
      </trkpt>
      <trkpt lat="48.06211" lon="6.86196">
        <ele>808</ele>
        <time>2020-10-28T11:50:55.301Z</time>
      </trkpt>
      <trkpt lat="48.06212" lon="6.86196">
        <ele>807</ele>
        <time>2020-10-28T11:50:56.301Z</time>
      </trkpt>
      <trkpt lat="48.06213" lon="6.86196">
        <ele>807</ele>
        <time>2020-10-28T11:50:57.301Z</time>
      </trkpt>
      <trkpt lat="48.06214" lon="6.86196">
        <ele>806</ele>
        <time>2020-10-28T11:50:58.301Z</time>
      </trkpt>
      <trkpt lat="48.06216" lon="6.86196">
        <ele>806</ele>
        <time>2020-10-28T11:50:59.301Z</time>
      </trkpt>
      <trkpt lat="48.06216" lon="6.86196">
        <ele>805</ele>
        <time>2020-10-28T11:51:00.302Z</time>
      </trkpt>
      <trkpt lat="48.06217" lon="6.86196">
        <ele>805</ele>
        <time>2020-10-28T11:51:01.302Z</time>
      </trkpt>
      <trkpt lat="48.06217" lon="6.86195">
        <ele>804</ele>
        <time>2020-10-28T11:51:02.302Z</time>
      </trkpt>
      <trkpt lat="48.06218" lon="6.86195">
        <ele>804</ele>
        <time>2020-10-28T11:51:03.302Z</time>
      </trkpt>
      <trkpt lat="48.06219" lon="6.86194">
        <ele>804</ele>
        <time>2020-10-28T11:51:04.302Z</time>
      </trkpt>
      <trkpt lat="48.06219" lon="6.86194">
        <ele>804</ele>
        <time>2020-10-28T11:51:05.302Z</time>
      </trkpt>
      <trkpt lat="48.0622" lon="6.86195">
        <ele>804</ele>
        <time>2020-10-28T11:51:06.302Z</time>
      </trkpt>
      <trkpt lat="48.06221" lon="6.86196">
        <ele>804</ele>
        <time>2020-10-28T11:51:07.302Z</time>
      </trkpt>
      <trkpt lat="48.06223" lon="6.86197">
        <ele>804</ele>
        <time>2020-10-28T11:51:08.302Z</time>
      </trkpt>
      <trkpt lat="48.06224" lon="6.86198">
        <ele>804</ele>
        <time>2020-10-28T11:51:09.302Z</time>
      </trkpt>
      <trkpt lat="48.06225" lon="6.86198">
        <ele>804</ele>
        <time>2020-10-28T11:51:10.301Z</time>
      </trkpt>
      <trkpt lat="48.06227" lon="6.86199">
        <ele>804</ele>
        <time>2020-10-28T11:51:11.302Z</time>
      </trkpt>
      <trkpt lat="48.06228" lon="6.862">
        <ele>804</ele>
        <time>2020-10-28T11:51:12.302Z</time>
      </trkpt>
      <trkpt lat="48.06229" lon="6.86202">
        <ele>804</ele>
        <time>2020-10-28T11:51:13.302Z</time>
      </trkpt>
      <trkpt lat="48.0623" lon="6.86203">
        <ele>804</ele>
        <time>2020-10-28T11:51:14.302Z</time>
      </trkpt>
      <trkpt lat="48.06231" lon="6.86204">
        <ele>804</ele>
        <time>2020-10-28T11:51:15.302Z</time>
      </trkpt>
      <trkpt lat="48.0623" lon="6.86203">
        <ele>804</ele>
        <time>2020-10-28T11:51:16.301Z</time>
      </trkpt>
      <trkpt lat="48.06229" lon="6.86202">
        <ele>803</ele>
        <time>2020-10-28T11:51:17.302Z</time>
      </trkpt>
      <trkpt lat="48.06229" lon="6.86202">
        <ele>803</ele>
        <time>2020-10-28T11:51:18.302Z</time>
      </trkpt>
      <trkpt lat="48.06229" lon="6.86203">
        <ele>802</ele>
        <time>2020-10-28T11:51:19.302Z</time>
      </trkpt>
      <trkpt lat="48.06228" lon="6.86203">
        <ele>802</ele>
        <time>2020-10-28T11:51:20.302Z</time>
      </trkpt>
      <trkpt lat="48.06228" lon="6.86204">
        <ele>802</ele>
        <time>2020-10-28T11:51:21.302Z</time>
      </trkpt>
      <trkpt lat="48.06229" lon="6.86211">
        <ele>811</ele>
        <time>2020-10-28T11:51:22.303Z</time>
      </trkpt>
      <trkpt lat="48.06223" lon="6.86215">
        <ele>810</ele>
        <time>2020-10-28T11:51:23.303Z</time>
      </trkpt>
      <trkpt lat="48.06222" lon="6.86215">
        <ele>810</ele>
        <time>2020-10-28T11:51:24.303Z</time>
      </trkpt>
      <trkpt lat="48.06221" lon="6.86216">
        <ele>810</ele>
        <time>2020-10-28T11:51:25.302Z</time>
      </trkpt>
      <trkpt lat="48.0622" lon="6.86216">
        <ele>810</ele>
        <time>2020-10-28T11:51:26.303Z</time>
      </trkpt>
      <trkpt lat="48.06222" lon="6.86217">
        <ele>811</ele>
        <time>2020-10-28T11:51:27.302Z</time>
      </trkpt>
      <trkpt lat="48.06222" lon="6.86217">
        <ele>811</ele>
        <time>2020-10-28T11:51:28.302Z</time>
      </trkpt>
      <trkpt lat="48.06221" lon="6.86208">
        <ele>804</ele>
        <time>2020-10-28T11:51:29.303Z</time>
      </trkpt>
      <trkpt lat="48.06221" lon="6.86206">
        <ele>804</ele>
        <time>2020-10-28T11:51:30.302Z</time>
      </trkpt>
      <trkpt lat="48.06222" lon="6.86204">
        <ele>804</ele>
        <time>2020-10-28T11:51:31.303Z</time>
      </trkpt>
      <trkpt lat="48.06222" lon="6.86201">
        <ele>804</ele>
        <time>2020-10-28T11:51:32.303Z</time>
      </trkpt>
      <trkpt lat="48.06223" lon="6.862">
        <ele>804</ele>
        <time>2020-10-28T11:51:33.303Z</time>
      </trkpt>
      <trkpt lat="48.06223" lon="6.86197">
        <ele>805</ele>
        <time>2020-10-28T11:51:34.302Z</time>
      </trkpt>
      <trkpt lat="48.06224" lon="6.86195">
        <ele>805</ele>
        <time>2020-10-28T11:51:35.303Z</time>
      </trkpt>
      <trkpt lat="48.06225" lon="6.86193">
        <ele>805</ele>
        <time>2020-10-28T11:51:36.303Z</time>
      </trkpt>
      <trkpt lat="48.06226" lon="6.86192">
        <ele>805</ele>
        <time>2020-10-28T11:51:37.302Z</time>
      </trkpt>
      <trkpt lat="48.06227" lon="6.86192">
        <ele>805</ele>
        <time>2020-10-28T11:51:38.303Z</time>
      </trkpt>
      <trkpt lat="48.06229" lon="6.86192">
        <ele>805</ele>
        <time>2020-10-28T11:51:39.303Z</time>
      </trkpt>
      <trkpt lat="48.0623" lon="6.86191">
        <ele>805</ele>
        <time>2020-10-28T11:51:40.303Z</time>
      </trkpt>
      <trkpt lat="48.06231" lon="6.8619">
        <ele>805</ele>
        <time>2020-10-28T11:51:41.303Z</time>
      </trkpt>
      <trkpt lat="48.06232" lon="6.8619">
        <ele>806</ele>
        <time>2020-10-28T11:51:42.303Z</time>
      </trkpt>
      <trkpt lat="48.06233" lon="6.8619">
        <ele>806</ele>
        <time>2020-10-28T11:51:43.303Z</time>
      </trkpt>
      <trkpt lat="48.06234" lon="6.86189">
        <ele>806</ele>
        <time>2020-10-28T11:51:44.303Z</time>
      </trkpt>
      <trkpt lat="48.06235" lon="6.86189">
        <ele>806</ele>
        <time>2020-10-28T11:51:45.303Z</time>
      </trkpt>
      <trkpt lat="48.06236" lon="6.86189">
        <ele>806</ele>
        <time>2020-10-28T11:51:46.303Z</time>
      </trkpt>
      <trkpt lat="48.06236" lon="6.86189">
        <ele>806</ele>
        <time>2020-10-28T11:51:47.303Z</time>
      </trkpt>
      <trkpt lat="48.06236" lon="6.86189">
        <ele>806</ele>
        <time>2020-10-28T11:51:48.302Z</time>
      </trkpt>
      <trkpt lat="48.06237" lon="6.86188">
        <ele>805</ele>
        <time>2020-10-28T11:51:49.305Z</time>
      </trkpt>
      <trkpt lat="48.06238" lon="6.86188">
        <ele>805</ele>
        <time>2020-10-28T11:51:50.305Z</time>
      </trkpt>
      <trkpt lat="48.06239" lon="6.86188">
        <ele>805</ele>
        <time>2020-10-28T11:51:51.305Z</time>
      </trkpt>
      <trkpt lat="48.06239" lon="6.86189">
        <ele>804</ele>
        <time>2020-10-28T11:51:52.305Z</time>
      </trkpt>
      <trkpt lat="48.0624" lon="6.86189">
        <ele>804</ele>
        <time>2020-10-28T11:51:53.305Z</time>
      </trkpt>
      <trkpt lat="48.06241" lon="6.86189">
        <ele>805</ele>
        <time>2020-10-28T11:51:54.304Z</time>
      </trkpt>
      <trkpt lat="48.06243" lon="6.86189">
        <ele>805</ele>
        <time>2020-10-28T11:51:55.305Z</time>
      </trkpt>
      <trkpt lat="48.06244" lon="6.86188">
        <ele>805</ele>
        <time>2020-10-28T11:51:56.305Z</time>
      </trkpt>
      <trkpt lat="48.06244" lon="6.86187">
        <ele>805</ele>
        <time>2020-10-28T11:51:57.305Z</time>
      </trkpt>
      <trkpt lat="48.06246" lon="6.86186">
        <ele>805</ele>
        <time>2020-10-28T11:51:58.305Z</time>
      </trkpt>
      <trkpt lat="48.06246" lon="6.86186">
        <ele>805</ele>
        <time>2020-10-28T11:51:59.305Z</time>
      </trkpt>
      <trkpt lat="48.06247" lon="6.86185">
        <ele>805</ele>
        <time>2020-10-28T11:52:00.304Z</time>
      </trkpt>
      <trkpt lat="48.06248" lon="6.86184">
        <ele>805</ele>
        <time>2020-10-28T11:52:01.305Z</time>
      </trkpt>
      <trkpt lat="48.06249" lon="6.86183">
        <ele>805</ele>
        <time>2020-10-28T11:52:02.304Z</time>
      </trkpt>
      <trkpt lat="48.06249" lon="6.86184">
        <ele>805</ele>
        <time>2020-10-28T11:52:03.304Z</time>
      </trkpt>
      <trkpt lat="48.06251" lon="6.86185">
        <ele>805</ele>
        <time>2020-10-28T11:52:04.305Z</time>
      </trkpt>
      <trkpt lat="48.06252" lon="6.86186">
        <ele>804</ele>
        <time>2020-10-28T11:52:05.305Z</time>
      </trkpt>
      <trkpt lat="48.06252" lon="6.86186">
        <ele>803</ele>
        <time>2020-10-28T11:52:06.304Z</time>
      </trkpt>
      <trkpt lat="48.06253" lon="6.86188">
        <ele>803</ele>
        <time>2020-10-28T11:52:07.305Z</time>
      </trkpt>
      <trkpt lat="48.06254" lon="6.86189">
        <ele>803</ele>
        <time>2020-10-28T11:52:08.305Z</time>
      </trkpt>
      <trkpt lat="48.06255" lon="6.8619">
        <ele>802</ele>
        <time>2020-10-28T11:52:09.305Z</time>
      </trkpt>
      <trkpt lat="48.06256" lon="6.86192">
        <ele>801</ele>
        <time>2020-10-28T11:52:10.305Z</time>
      </trkpt>
      <trkpt lat="48.06256" lon="6.86193">
        <ele>800</ele>
        <time>2020-10-28T11:52:11.305Z</time>
      </trkpt>
      <trkpt lat="48.06257" lon="6.86193">
        <ele>799</ele>
        <time>2020-10-28T11:52:12.305Z</time>
      </trkpt>
      <trkpt lat="48.06257" lon="6.86194">
        <ele>798</ele>
        <time>2020-10-28T11:52:13.305Z</time>
      </trkpt>
      <trkpt lat="48.06258" lon="6.86195">
        <ele>798</ele>
        <time>2020-10-28T11:52:14.305Z</time>
      </trkpt>
      <trkpt lat="48.06259" lon="6.86195">
        <ele>797</ele>
        <time>2020-10-28T11:52:15.305Z</time>
      </trkpt>
      <trkpt lat="48.06261" lon="6.86198">
        <ele>797</ele>
        <time>2020-10-28T11:52:16.305Z</time>
      </trkpt>
      <trkpt lat="48.06262" lon="6.862">
        <ele>797</ele>
        <time>2020-10-28T11:52:17.305Z</time>
      </trkpt>
      <trkpt lat="48.06262" lon="6.86203">
        <ele>796</ele>
        <time>2020-10-28T11:52:18.305Z</time>
      </trkpt>
      <trkpt lat="48.06261" lon="6.86205">
        <ele>796</ele>
        <time>2020-10-28T11:52:19.304Z</time>
      </trkpt>
      <trkpt lat="48.0626" lon="6.86207">
        <ele>796</ele>
        <time>2020-10-28T11:52:20.305Z</time>
      </trkpt>
      <trkpt lat="48.0626" lon="6.86208">
        <ele>796</ele>
        <time>2020-10-28T11:52:21.305Z</time>
      </trkpt>
      <trkpt lat="48.0626" lon="6.8621">
        <ele>796</ele>
        <time>2020-10-28T11:52:22.304Z</time>
      </trkpt>
      <trkpt lat="48.0626" lon="6.86212">
        <ele>795</ele>
        <time>2020-10-28T11:52:23.305Z</time>
      </trkpt>
      <trkpt lat="48.0626" lon="6.86213">
        <ele>795</ele>
        <time>2020-10-28T11:52:24.305Z</time>
      </trkpt>
      <trkpt lat="48.0626" lon="6.86214">
        <ele>795</ele>
        <time>2020-10-28T11:52:25.305Z</time>
      </trkpt>
      <trkpt lat="48.0626" lon="6.86215">
        <ele>794</ele>
        <time>2020-10-28T11:52:26.304Z</time>
      </trkpt>
      <trkpt lat="48.0626" lon="6.86216">
        <ele>794</ele>
        <time>2020-10-28T11:52:27.305Z</time>
      </trkpt>
      <trkpt lat="48.0626" lon="6.86218">
        <ele>793</ele>
        <time>2020-10-28T11:52:28.305Z</time>
      </trkpt>
      <trkpt lat="48.06262" lon="6.86221">
        <ele>793</ele>
        <time>2020-10-28T11:52:29.305Z</time>
      </trkpt>
      <trkpt lat="48.06262" lon="6.86222">
        <ele>793</ele>
        <time>2020-10-28T11:52:30.305Z</time>
      </trkpt>
      <trkpt lat="48.06261" lon="6.86224">
        <ele>792</ele>
        <time>2020-10-28T11:52:31.305Z</time>
      </trkpt>
      <trkpt lat="48.06261" lon="6.86225">
        <ele>792</ele>
        <time>2020-10-28T11:52:32.305Z</time>
      </trkpt>
      <trkpt lat="48.06261" lon="6.86227">
        <ele>791</ele>
        <time>2020-10-28T11:52:33.305Z</time>
      </trkpt>
      <trkpt lat="48.06261" lon="6.86228">
        <ele>791</ele>
        <time>2020-10-28T11:52:34.305Z</time>
      </trkpt>
      <trkpt lat="48.06261" lon="6.86229">
        <ele>790</ele>
        <time>2020-10-28T11:52:35.305Z</time>
      </trkpt>
      <trkpt lat="48.06261" lon="6.8623">
        <ele>790</ele>
        <time>2020-10-28T11:52:36.305Z</time>
      </trkpt>
      <trkpt lat="48.06261" lon="6.8623">
        <ele>790</ele>
        <time>2020-10-28T11:52:37.305Z</time>
      </trkpt>
      <trkpt lat="48.06261" lon="6.8623">
        <ele>790</ele>
        <time>2020-10-28T11:52:38.305Z</time>
      </trkpt>
      <trkpt lat="48.06261" lon="6.8623">
        <ele>790</ele>
        <time>2020-10-28T11:52:39.305Z</time>
      </trkpt>
      <trkpt lat="48.06262" lon="6.86229">
        <ele>790</ele>
        <time>2020-10-28T11:52:40.305Z</time>
      </trkpt>
      <trkpt lat="48.06262" lon="6.8623">
        <ele>790</ele>
        <time>2020-10-28T11:52:41.305Z</time>
      </trkpt>
      <trkpt lat="48.06262" lon="6.86229">
        <ele>791</ele>
        <time>2020-10-28T11:52:42.305Z</time>
      </trkpt>
      <trkpt lat="48.06263" lon="6.86229">
        <ele>791</ele>
        <time>2020-10-28T11:52:43.304Z</time>
      </trkpt>
      <trkpt lat="48.06263" lon="6.86228">
        <ele>792</ele>
        <time>2020-10-28T11:52:44.304Z</time>
      </trkpt>
      <trkpt lat="48.06264" lon="6.86228">
        <ele>792</ele>
        <time>2020-10-28T11:52:45.305Z</time>
      </trkpt>
      <trkpt lat="48.06264" lon="6.86228">
        <ele>792</ele>
        <time>2020-10-28T11:52:46.304Z</time>
      </trkpt>
      <trkpt lat="48.06264" lon="6.86229">
        <ele>792</ele>
        <time>2020-10-28T11:52:47.305Z</time>
      </trkpt>
      <trkpt lat="48.06263" lon="6.86233">
        <ele>790</ele>
        <time>2020-10-28T11:52:48.304Z</time>
      </trkpt>
      <trkpt lat="48.06263" lon="6.86238">
        <ele>789</ele>
        <time>2020-10-28T11:52:49.305Z</time>
      </trkpt>
      <trkpt lat="48.06262" lon="6.86239">
        <ele>789</ele>
        <time>2020-10-28T11:52:50.305Z</time>
      </trkpt>
      <trkpt lat="48.06262" lon="6.86241">
        <ele>789</ele>
        <time>2020-10-28T11:52:51.304Z</time>
      </trkpt>
      <trkpt lat="48.06262" lon="6.86242">
        <ele>789</ele>
        <time>2020-10-28T11:52:52.305Z</time>
      </trkpt>
      <trkpt lat="48.06262" lon="6.86243">
        <ele>789</ele>
        <time>2020-10-28T11:52:53.305Z</time>
      </trkpt>
      <trkpt lat="48.06262" lon="6.86243">
        <ele>789</ele>
        <time>2020-10-28T11:52:54.305Z</time>
      </trkpt>
      <trkpt lat="48.06263" lon="6.86244">
        <ele>789</ele>
        <time>2020-10-28T11:52:55.305Z</time>
      </trkpt>
      <trkpt lat="48.06264" lon="6.86244">
        <ele>786</ele>
        <time>2020-10-28T11:52:56.307Z</time>
      </trkpt>
      <trkpt lat="48.06266" lon="6.86248">
        <ele>791</ele>
        <time>2020-10-28T11:52:57.308Z</time>
      </trkpt>
      <trkpt lat="48.06265" lon="6.86248">
        <ele>791</ele>
        <time>2020-10-28T11:52:58.308Z</time>
      </trkpt>
      <trkpt lat="48.06265" lon="6.86256">
        <ele>789</ele>
        <time>2020-10-28T11:52:59.308Z</time>
      </trkpt>
      <trkpt lat="48.06265" lon="6.86259">
        <ele>789</ele>
        <time>2020-10-28T11:53:00.308Z</time>
      </trkpt>
      <trkpt lat="48.06265" lon="6.86261">
        <ele>789</ele>
        <time>2020-10-28T11:53:01.307Z</time>
      </trkpt>
      <trkpt lat="48.06265" lon="6.86262">
        <ele>788</ele>
        <time>2020-10-28T11:53:02.308Z</time>
      </trkpt>
      <trkpt lat="48.06266" lon="6.86263">
        <ele>788</ele>
        <time>2020-10-28T11:53:03.308Z</time>
      </trkpt>
      <trkpt lat="48.06267" lon="6.86265">
        <ele>787</ele>
        <time>2020-10-28T11:53:04.307Z</time>
      </trkpt>
      <trkpt lat="48.06266" lon="6.86267">
        <ele>787</ele>
        <time>2020-10-28T11:53:05.308Z</time>
      </trkpt>
      <trkpt lat="48.06266" lon="6.86269">
        <ele>786</ele>
        <time>2020-10-28T11:53:06.307Z</time>
      </trkpt>
      <trkpt lat="48.06266" lon="6.86271">
        <ele>785</ele>
        <time>2020-10-28T11:53:07.308Z</time>
      </trkpt>
      <trkpt lat="48.06265" lon="6.86272">
        <ele>785</ele>
        <time>2020-10-28T11:53:08.308Z</time>
      </trkpt>
      <trkpt lat="48.06264" lon="6.86273">
        <ele>784</ele>
        <time>2020-10-28T11:53:09.307Z</time>
      </trkpt>
      <trkpt lat="48.06264" lon="6.86273">
        <ele>784</ele>
        <time>2020-10-28T11:53:10.308Z</time>
      </trkpt>
      <trkpt lat="48.06264" lon="6.86274">
        <ele>784</ele>
        <time>2020-10-28T11:53:11.308Z</time>
      </trkpt>
      <trkpt lat="48.06264" lon="6.86277">
        <ele>786</ele>
        <time>2020-10-28T11:53:12.309Z</time>
      </trkpt>
      <trkpt lat="48.06264" lon="6.86276">
        <ele>786</ele>
        <time>2020-10-28T11:53:13.308Z</time>
      </trkpt>
      <trkpt lat="48.06264" lon="6.86276">
        <ele>787</ele>
        <time>2020-10-28T11:53:14.309Z</time>
      </trkpt>
      <trkpt lat="48.06266" lon="6.86273">
        <ele>791</ele>
        <time>2020-10-28T11:53:15.308Z</time>
      </trkpt>
      <trkpt lat="48.06266" lon="6.86274">
        <ele>792</ele>
        <time>2020-10-28T11:53:16.309Z</time>
      </trkpt>
      <trkpt lat="48.06266" lon="6.86275">
        <ele>792</ele>
        <time>2020-10-28T11:53:17.308Z</time>
      </trkpt>
      <trkpt lat="48.06266" lon="6.86276">
        <ele>792</ele>
        <time>2020-10-28T11:53:18.309Z</time>
      </trkpt>
      <trkpt lat="48.06267" lon="6.86273">
        <ele>792</ele>
        <time>2020-10-28T11:53:19.308Z</time>
      </trkpt>
      <trkpt lat="48.06267" lon="6.86273">
        <ele>792</ele>
        <time>2020-10-28T11:53:20.308Z</time>
      </trkpt>
      <trkpt lat="48.06268" lon="6.86272">
        <ele>792</ele>
        <time>2020-10-28T11:53:21.308Z</time>
      </trkpt>
      <trkpt lat="48.06268" lon="6.86271">
        <ele>792</ele>
        <time>2020-10-28T11:53:22.309Z</time>
      </trkpt>
      <trkpt lat="48.06268" lon="6.86271">
        <ele>792</ele>
        <time>2020-10-28T11:53:23.308Z</time>
      </trkpt>
      <trkpt lat="48.06268" lon="6.86271">
        <ele>793</ele>
        <time>2020-10-28T11:53:24.309Z</time>
      </trkpt>
      <trkpt lat="48.06269" lon="6.86271">
        <ele>793</ele>
        <time>2020-10-28T11:53:25.308Z</time>
      </trkpt>
      <trkpt lat="48.06269" lon="6.86271">
        <ele>793</ele>
        <time>2020-10-28T11:53:26.308Z</time>
      </trkpt>
      <trkpt lat="48.06273" lon="6.86269">
        <ele>793</ele>
        <time>2020-10-28T11:53:27.309Z</time>
      </trkpt>
      <trkpt lat="48.06275" lon="6.86261">
        <ele>796</ele>
        <time>2020-10-28T11:53:28.309Z</time>
      </trkpt>
      <trkpt lat="48.06278" lon="6.86261">
        <ele>796</ele>
        <time>2020-10-28T11:53:30.310Z</time>
      </trkpt>
      <trkpt lat="48.0628" lon="6.86261">
        <ele>796</ele>
        <time>2020-10-28T11:53:31.310Z</time>
      </trkpt>
      <trkpt lat="48.06281" lon="6.86262">
        <ele>796</ele>
        <time>2020-10-28T11:53:32.310Z</time>
      </trkpt>
      <trkpt lat="48.06282" lon="6.86261">
        <ele>797</ele>
        <time>2020-10-28T11:53:33.310Z</time>
      </trkpt>
      <trkpt lat="48.06284" lon="6.86261">
        <ele>797</ele>
        <time>2020-10-28T11:53:34.310Z</time>
      </trkpt>
      <trkpt lat="48.06284" lon="6.86259">
        <ele>797</ele>
        <time>2020-10-28T11:53:42.349Z</time>
      </trkpt>
      <trkpt lat="48.06285" lon="6.86258">
        <ele>797</ele>
        <time>2020-10-28T11:53:43.349Z</time>
      </trkpt>
      <trkpt lat="48.06285" lon="6.86256">
        <ele>796</ele>
        <time>2020-10-28T11:53:44.349Z</time>
      </trkpt>
      <trkpt lat="48.06286" lon="6.86255">
        <ele>796</ele>
        <time>2020-10-28T11:53:45.349Z</time>
      </trkpt>
      <trkpt lat="48.06286" lon="6.86254">
        <ele>795</ele>
        <time>2020-10-28T11:53:46.349Z</time>
      </trkpt>
      <trkpt lat="48.06287" lon="6.86253">
        <ele>795</ele>
        <time>2020-10-28T11:53:47.349Z</time>
      </trkpt>
      <trkpt lat="48.06287" lon="6.86252">
        <ele>795</ele>
        <time>2020-10-28T11:53:48.349Z</time>
      </trkpt>
      <trkpt lat="48.06287" lon="6.86251">
        <ele>795</ele>
        <time>2020-10-28T11:53:49.349Z</time>
      </trkpt>
      <trkpt lat="48.06288" lon="6.86249">
        <ele>795</ele>
        <time>2020-10-28T11:53:50.349Z</time>
      </trkpt>
      <trkpt lat="48.06288" lon="6.86247">
        <ele>794</ele>
        <time>2020-10-28T11:53:51.349Z</time>
      </trkpt>
      <trkpt lat="48.06288" lon="6.86245">
        <ele>794</ele>
        <time>2020-10-28T11:53:52.349Z</time>
      </trkpt>
      <trkpt lat="48.06289" lon="6.86244">
        <ele>793</ele>
        <time>2020-10-28T11:53:53.349Z</time>
      </trkpt>
      <trkpt lat="48.06289" lon="6.86243">
        <ele>792</ele>
        <time>2020-10-28T11:53:54.349Z</time>
      </trkpt>
      <trkpt lat="48.0629" lon="6.86243">
        <ele>792</ele>
        <time>2020-10-28T11:53:57.435Z</time>
      </trkpt>
      <trkpt lat="48.06291" lon="6.86242">
        <ele>791</ele>
        <time>2020-10-28T11:53:58.435Z</time>
      </trkpt>
      <trkpt lat="48.06292" lon="6.86242">
        <ele>790</ele>
        <time>2020-10-28T11:53:59.435Z</time>
      </trkpt>
      <trkpt lat="48.06293" lon="6.86242">
        <ele>789</ele>
        <time>2020-10-28T11:54:00.435Z</time>
      </trkpt>
      <trkpt lat="48.06293" lon="6.86241">
        <ele>788</ele>
        <time>2020-10-28T11:54:01.435Z</time>
      </trkpt>
      <trkpt lat="48.06293" lon="6.8624">
        <ele>787</ele>
        <time>2020-10-28T11:54:02.435Z</time>
      </trkpt>
      <trkpt lat="48.06292" lon="6.86239">
        <ele>786</ele>
        <time>2020-10-28T11:54:03.435Z</time>
      </trkpt>
      <trkpt lat="48.06293" lon="6.86238">
        <ele>786</ele>
        <time>2020-10-28T11:54:06.558Z</time>
      </trkpt>
      <trkpt lat="48.06294" lon="6.86238">
        <ele>785</ele>
        <time>2020-10-28T11:54:07.558Z</time>
      </trkpt>
      <trkpt lat="48.06296" lon="6.86238">
        <ele>785</ele>
        <time>2020-10-28T11:54:08.558Z</time>
      </trkpt>
      <trkpt lat="48.06296" lon="6.86237">
        <ele>784</ele>
        <time>2020-10-28T11:54:09.558Z</time>
      </trkpt>
      <trkpt lat="48.06297" lon="6.86235">
        <ele>783</ele>
        <time>2020-10-28T11:54:10.558Z</time>
      </trkpt>
      <trkpt lat="48.06297" lon="6.86234">
        <ele>783</ele>
        <time>2020-10-28T11:54:11.558Z</time>
      </trkpt>
      <trkpt lat="48.06298" lon="6.86233">
        <ele>783</ele>
        <time>2020-10-28T11:54:17.573Z</time>
      </trkpt>
      <trkpt lat="48.06299" lon="6.86233">
        <ele>782</ele>
        <time>2020-10-28T11:54:18.573Z</time>
      </trkpt>
      <trkpt lat="48.063" lon="6.86232">
        <ele>781</ele>
        <time>2020-10-28T11:54:21.427Z</time>
      </trkpt>
      <trkpt lat="48.06301" lon="6.8623">
        <ele>780</ele>
        <time>2020-10-28T11:54:22.427Z</time>
      </trkpt>
      <trkpt lat="48.06302" lon="6.86229">
        <ele>780</ele>
        <time>2020-10-28T11:54:23.427Z</time>
      </trkpt>
      <trkpt lat="48.06303" lon="6.86227">
        <ele>780</ele>
        <time>2020-10-28T11:54:24.427Z</time>
      </trkpt>
      <trkpt lat="48.06304" lon="6.86226">
        <ele>780</ele>
        <time>2020-10-28T11:54:25.427Z</time>
      </trkpt>
      <trkpt lat="48.06305" lon="6.86225">
        <ele>780</ele>
        <time>2020-10-28T11:54:26.427Z</time>
      </trkpt>
      <trkpt lat="48.06306" lon="6.86223">
        <ele>781</ele>
        <time>2020-10-28T11:54:27.427Z</time>
      </trkpt>
      <trkpt lat="48.06306" lon="6.86222">
        <ele>781</ele>
        <time>2020-10-28T11:54:28.427Z</time>
      </trkpt>
      <trkpt lat="48.06306" lon="6.8622">
        <ele>781</ele>
        <time>2020-10-28T11:54:29.427Z</time>
      </trkpt>
      <trkpt lat="48.06307" lon="6.86218">
        <ele>781</ele>
        <time>2020-10-28T11:54:30.427Z</time>
      </trkpt>
      <trkpt lat="48.06308" lon="6.86217">
        <ele>780</ele>
        <time>2020-10-28T11:54:31.427Z</time>
      </trkpt>
      <trkpt lat="48.06309" lon="6.86217">
        <ele>780</ele>
        <time>2020-10-28T11:54:32.427Z</time>
      </trkpt>
      <trkpt lat="48.0631" lon="6.86216">
        <ele>780</ele>
        <time>2020-10-28T11:54:33.427Z</time>
      </trkpt>
      <trkpt lat="48.06311" lon="6.86215">
        <ele>780</ele>
        <time>2020-10-28T11:54:34.427Z</time>
      </trkpt>
      <trkpt lat="48.06311" lon="6.86215">
        <ele>779</ele>
        <time>2020-10-28T11:54:35.427Z</time>
      </trkpt>
      <trkpt lat="48.06312" lon="6.86214">
        <ele>779</ele>
        <time>2020-10-28T11:54:36.427Z</time>
      </trkpt>
      <trkpt lat="48.06313" lon="6.86213">
        <ele>778</ele>
        <time>2020-10-28T11:54:37.427Z</time>
      </trkpt>
      <trkpt lat="48.06313" lon="6.86212">
        <ele>777</ele>
        <time>2020-10-28T11:54:38.427Z</time>
      </trkpt>
      <trkpt lat="48.06314" lon="6.86211">
        <ele>776</ele>
        <time>2020-10-28T11:54:39.427Z</time>
      </trkpt>
      <trkpt lat="48.06314" lon="6.8621">
        <ele>775</ele>
        <time>2020-10-28T11:54:40.427Z</time>
      </trkpt>
      <trkpt lat="48.06315" lon="6.86208">
        <ele>774</ele>
        <time>2020-10-28T11:54:41.427Z</time>
      </trkpt>
      <trkpt lat="48.06315" lon="6.86207">
        <ele>774</ele>
        <time>2020-10-28T11:54:42.427Z</time>
      </trkpt>
      <trkpt lat="48.06316" lon="6.86205">
        <ele>773</ele>
        <time>2020-10-28T11:54:43.427Z</time>
      </trkpt>
      <trkpt lat="48.06316" lon="6.86203">
        <ele>773</ele>
        <time>2020-10-28T11:54:44.427Z</time>
      </trkpt>
      <trkpt lat="48.06317" lon="6.86202">
        <ele>772</ele>
        <time>2020-10-28T11:54:45.427Z</time>
      </trkpt>
      <trkpt lat="48.06317" lon="6.862">
        <ele>772</ele>
        <time>2020-10-28T11:54:46.427Z</time>
      </trkpt>
      <trkpt lat="48.06317" lon="6.86199">
        <ele>771</ele>
        <time>2020-10-28T11:54:47.427Z</time>
      </trkpt>
      <trkpt lat="48.06317" lon="6.86197">
        <ele>771</ele>
        <time>2020-10-28T11:54:48.427Z</time>
      </trkpt>
      <trkpt lat="48.06318" lon="6.86196">
        <ele>771</ele>
        <time>2020-10-28T11:54:49.427Z</time>
      </trkpt>
      <trkpt lat="48.06318" lon="6.86195">
        <ele>770</ele>
        <time>2020-10-28T11:54:50.427Z</time>
      </trkpt>
      <trkpt lat="48.06319" lon="6.86193">
        <ele>770</ele>
        <time>2020-10-28T11:54:51.427Z</time>
      </trkpt>
      <trkpt lat="48.0632" lon="6.86191">
        <ele>770</ele>
        <time>2020-10-28T11:54:52.427Z</time>
      </trkpt>
      <trkpt lat="48.06321" lon="6.86189">
        <ele>770</ele>
        <time>2020-10-28T11:54:53.427Z</time>
      </trkpt>
      <trkpt lat="48.06321" lon="6.86188">
        <ele>770</ele>
        <time>2020-10-28T11:54:54.427Z</time>
      </trkpt>
      <trkpt lat="48.06322" lon="6.86186">
        <ele>771</ele>
        <time>2020-10-28T11:54:55.427Z</time>
      </trkpt>
      <trkpt lat="48.06323" lon="6.86185">
        <ele>771</ele>
        <time>2020-10-28T11:54:56.427Z</time>
      </trkpt>
      <trkpt lat="48.06324" lon="6.86183">
        <ele>771</ele>
        <time>2020-10-28T11:54:57.427Z</time>
      </trkpt>
      <trkpt lat="48.06325" lon="6.86182">
        <ele>771</ele>
        <time>2020-10-28T11:54:58.427Z</time>
      </trkpt>
      <trkpt lat="48.06325" lon="6.8618">
        <ele>771</ele>
        <time>2020-10-28T11:54:59.427Z</time>
      </trkpt>
      <trkpt lat="48.06326" lon="6.86179">
        <ele>772</ele>
        <time>2020-10-28T11:55:00.427Z</time>
      </trkpt>
      <trkpt lat="48.06326" lon="6.86177">
        <ele>772</ele>
        <time>2020-10-28T11:55:01.427Z</time>
      </trkpt>
      <trkpt lat="48.06328" lon="6.86176">
        <ele>773</ele>
        <time>2020-10-28T11:55:03.560Z</time>
      </trkpt>
      <trkpt lat="48.06328" lon="6.86175">
        <ele>773</ele>
        <time>2020-10-28T11:55:04.560Z</time>
      </trkpt>
      <trkpt lat="48.06329" lon="6.86174">
        <ele>774</ele>
        <time>2020-10-28T11:55:05.560Z</time>
      </trkpt>
      <trkpt lat="48.06329" lon="6.86173">
        <ele>774</ele>
        <time>2020-10-28T11:55:06.560Z</time>
      </trkpt>
      <trkpt lat="48.06329" lon="6.86172">
        <ele>775</ele>
        <time>2020-10-28T11:55:07.560Z</time>
      </trkpt>
      <trkpt lat="48.06329" lon="6.86172">
        <ele>775</ele>
        <time>2020-10-28T11:55:09.560Z</time>
      </trkpt>
      <trkpt lat="48.0633" lon="6.86171">
        <ele>775</ele>
        <time>2020-10-28T11:55:10.560Z</time>
      </trkpt>
      <trkpt lat="48.06331" lon="6.86169">
        <ele>775</ele>
        <time>2020-10-28T11:55:11.560Z</time>
      </trkpt>
      <trkpt lat="48.06332" lon="6.86168">
        <ele>776</ele>
        <time>2020-10-28T11:55:12.560Z</time>
      </trkpt>
      <trkpt lat="48.06334" lon="6.86168">
        <ele>776</ele>
        <time>2020-10-28T11:55:13.560Z</time>
      </trkpt>
      <trkpt lat="48.06336" lon="6.86167">
        <ele>777</ele>
        <time>2020-10-28T11:55:14.560Z</time>
      </trkpt>
      <trkpt lat="48.06337" lon="6.86165">
        <ele>777</ele>
        <time>2020-10-28T11:55:15.560Z</time>
      </trkpt>
      <trkpt lat="48.06338" lon="6.86163">
        <ele>777</ele>
        <time>2020-10-28T11:55:16.560Z</time>
      </trkpt>
      <trkpt lat="48.06339" lon="6.86162">
        <ele>777</ele>
        <time>2020-10-28T11:55:17.560Z</time>
      </trkpt>
      <trkpt lat="48.0634" lon="6.86161">
        <ele>777</ele>
        <time>2020-10-28T11:55:18.560Z</time>
      </trkpt>
      <trkpt lat="48.06341" lon="6.86159">
        <ele>777</ele>
        <time>2020-10-28T11:55:19.560Z</time>
      </trkpt>
      <trkpt lat="48.06341" lon="6.86157">
        <ele>777</ele>
        <time>2020-10-28T11:55:20.560Z</time>
      </trkpt>
      <trkpt lat="48.06342" lon="6.86156">
        <ele>777</ele>
        <time>2020-10-28T11:55:21.560Z</time>
      </trkpt>
      <trkpt lat="48.06343" lon="6.86155">
        <ele>777</ele>
        <time>2020-10-28T11:55:22.560Z</time>
      </trkpt>
      <trkpt lat="48.06344" lon="6.86153">
        <ele>777</ele>
        <time>2020-10-28T11:55:23.560Z</time>
      </trkpt>
      <trkpt lat="48.06344" lon="6.86152">
        <ele>777</ele>
        <time>2020-10-28T11:55:24.560Z</time>
      </trkpt>
      <trkpt lat="48.06345" lon="6.86151">
        <ele>777</ele>
        <time>2020-10-28T11:55:25.560Z</time>
      </trkpt>
      <trkpt lat="48.06346" lon="6.86149">
        <ele>778</ele>
        <time>2020-10-28T11:55:26.560Z</time>
      </trkpt>
      <trkpt lat="48.06346" lon="6.86147">
        <ele>778</ele>
        <time>2020-10-28T11:55:27.560Z</time>
      </trkpt>
      <trkpt lat="48.06347" lon="6.86145">
        <ele>778</ele>
        <time>2020-10-28T11:55:28.560Z</time>
      </trkpt>
      <trkpt lat="48.06348" lon="6.86144">
        <ele>779</ele>
        <time>2020-10-28T11:55:29.560Z</time>
      </trkpt>
      <trkpt lat="48.06349" lon="6.86143">
        <ele>779</ele>
        <time>2020-10-28T11:55:30.560Z</time>
      </trkpt>
      <trkpt lat="48.06349" lon="6.86141">
        <ele>779</ele>
        <time>2020-10-28T11:55:31.560Z</time>
      </trkpt>
      <trkpt lat="48.06349" lon="6.8614">
        <ele>779</ele>
        <time>2020-10-28T11:55:32.560Z</time>
      </trkpt>
      <trkpt lat="48.0635" lon="6.86139">
        <ele>779</ele>
        <time>2020-10-28T11:55:33.560Z</time>
      </trkpt>
      <trkpt lat="48.06351" lon="6.86138">
        <ele>779</ele>
        <time>2020-10-28T11:55:34.560Z</time>
      </trkpt>
      <trkpt lat="48.06351" lon="6.86137">
        <ele>779</ele>
        <time>2020-10-28T11:55:35.560Z</time>
      </trkpt>
      <trkpt lat="48.06352" lon="6.86136">
        <ele>779</ele>
        <time>2020-10-28T11:55:44.576Z</time>
      </trkpt>
      <trkpt lat="48.06353" lon="6.86135">
        <ele>779</ele>
        <time>2020-10-28T11:55:46.416Z</time>
      </trkpt>
      <trkpt lat="48.06353" lon="6.86135">
        <ele>779</ele>
        <time>2020-10-28T11:55:47.416Z</time>
      </trkpt>
      <trkpt lat="48.06354" lon="6.86134">
        <ele>779</ele>
        <time>2020-10-28T11:55:48.416Z</time>
      </trkpt>
      <trkpt lat="48.06355" lon="6.86134">
        <ele>779</ele>
        <time>2020-10-28T11:55:49.416Z</time>
      </trkpt>
      <trkpt lat="48.06356" lon="6.86134">
        <ele>778</ele>
        <time>2020-10-28T11:55:50.416Z</time>
      </trkpt>
      <trkpt lat="48.06355" lon="6.86137">
        <ele>774</ele>
        <time>2020-10-28T11:55:51.417Z</time>
      </trkpt>
      <trkpt lat="48.06355" lon="6.86136">
        <ele>773</ele>
        <time>2020-10-28T11:55:52.417Z</time>
      </trkpt>
      <trkpt lat="48.06355" lon="6.86136">
        <ele>772</ele>
        <time>2020-10-28T11:55:53.417Z</time>
      </trkpt>
      <trkpt lat="48.06356" lon="6.86135">
        <ele>772</ele>
        <time>2020-10-28T11:55:54.417Z</time>
      </trkpt>
      <trkpt lat="48.06356" lon="6.86135">
        <ele>771</ele>
        <time>2020-10-28T11:55:55.416Z</time>
      </trkpt>
      <trkpt lat="48.06356" lon="6.86134">
        <ele>770</ele>
        <time>2020-10-28T11:55:56.416Z</time>
      </trkpt>
      <trkpt lat="48.06356" lon="6.86133">
        <ele>769</ele>
        <time>2020-10-28T11:55:57.417Z</time>
      </trkpt>
      <trkpt lat="48.06357" lon="6.86132">
        <ele>768</ele>
        <time>2020-10-28T11:55:58.417Z</time>
      </trkpt>
      <trkpt lat="48.06357" lon="6.86131">
        <ele>767</ele>
        <time>2020-10-28T11:55:59.416Z</time>
      </trkpt>
      <trkpt lat="48.06357" lon="6.86131">
        <ele>767</ele>
        <time>2020-10-28T11:56:00.417Z</time>
      </trkpt>
      <trkpt lat="48.06357" lon="6.8613">
        <ele>766</ele>
        <time>2020-10-28T11:56:01.417Z</time>
      </trkpt>
      <trkpt lat="48.06357" lon="6.8613">
        <ele>765</ele>
        <time>2020-10-28T11:56:02.417Z</time>
      </trkpt>
      <trkpt lat="48.06358" lon="6.8613">
        <ele>764</ele>
        <time>2020-10-28T11:56:09.431Z</time>
      </trkpt>
      <trkpt lat="48.06359" lon="6.86131">
        <ele>764</ele>
        <time>2020-10-28T11:56:10.431Z</time>
      </trkpt>
      <trkpt lat="48.0636" lon="6.86132">
        <ele>764</ele>
        <time>2020-10-28T11:56:51.344Z</time>
      </trkpt>
      <trkpt lat="48.06361" lon="6.86134">
        <ele>763</ele>
        <time>2020-10-28T11:56:59.182Z</time>
      </trkpt>
      <trkpt lat="48.06363" lon="6.86137">
        <ele>763</ele>
        <time>2020-10-28T11:57:00.181Z</time>
      </trkpt>
      <trkpt lat="48.06363" lon="6.86138">
        <ele>763</ele>
        <time>2020-10-28T11:57:01.182Z</time>
      </trkpt>
      <trkpt lat="48.06364" lon="6.86139">
        <ele>763</ele>
        <time>2020-10-28T11:57:09.329Z</time>
      </trkpt>
      <trkpt lat="48.06364" lon="6.86141">
        <ele>762</ele>
        <time>2020-10-28T11:57:10.329Z</time>
      </trkpt>
      <trkpt lat="48.06364" lon="6.86142">
        <ele>762</ele>
        <time>2020-10-28T11:57:11.329Z</time>
      </trkpt>
      <trkpt lat="48.06364" lon="6.86143">
        <ele>761</ele>
        <time>2020-10-28T11:57:12.328Z</time>
      </trkpt>
      <trkpt lat="48.06364" lon="6.86144">
        <ele>761</ele>
        <time>2020-10-28T11:57:13.329Z</time>
      </trkpt>
      <trkpt lat="48.06364" lon="6.86145">
        <ele>761</ele>
        <time>2020-10-28T11:57:14.329Z</time>
      </trkpt>
      <trkpt lat="48.06364" lon="6.86145">
        <ele>761</ele>
        <time>2020-10-28T11:57:15.328Z</time>
      </trkpt>
      <trkpt lat="48.06364" lon="6.86145">
        <ele>761</ele>
        <time>2020-10-28T11:57:16.329Z</time>
      </trkpt>
      <trkpt lat="48.06364" lon="6.86143">
        <ele>761</ele>
        <time>2020-10-28T11:57:17.329Z</time>
      </trkpt>
      <trkpt lat="48.06363" lon="6.86141">
        <ele>761</ele>
        <time>2020-10-28T11:57:18.329Z</time>
      </trkpt>
      <trkpt lat="48.06363" lon="6.86139">
        <ele>761</ele>
        <time>2020-10-28T11:57:19.328Z</time>
      </trkpt>
      <trkpt lat="48.06363" lon="6.86138">
        <ele>761</ele>
        <time>2020-10-28T11:57:22.416Z</time>
      </trkpt>
      <trkpt lat="48.06363" lon="6.86137">
        <ele>761</ele>
        <time>2020-10-28T11:57:23.416Z</time>
      </trkpt>
      <trkpt lat="48.06363" lon="6.86136">
        <ele>761</ele>
        <time>2020-10-28T11:57:24.415Z</time>
      </trkpt>
      <trkpt lat="48.06362" lon="6.86135">
        <ele>761</ele>
        <time>2020-10-28T11:57:25.416Z</time>
      </trkpt>
      <trkpt lat="48.06362" lon="6.86135">
        <ele>760</ele>
        <time>2020-10-28T11:57:26.415Z</time>
      </trkpt>
      <trkpt lat="48.06362" lon="6.86134">
        <ele>760</ele>
        <time>2020-10-28T11:57:27.415Z</time>
      </trkpt>
      <trkpt lat="48.06362" lon="6.86133">
        <ele>760</ele>
        <time>2020-10-28T11:57:28.416Z</time>
      </trkpt>
      <trkpt lat="48.06362" lon="6.86132">
        <ele>760</ele>
        <time>2020-10-28T11:57:29.416Z</time>
      </trkpt>
      <trkpt lat="48.06363" lon="6.86132">
        <ele>760</ele>
        <time>2020-10-28T11:57:30.416Z</time>
      </trkpt>
      <trkpt lat="48.06363" lon="6.86131">
        <ele>760</ele>
        <time>2020-10-28T11:57:31.416Z</time>
      </trkpt>
      <trkpt lat="48.06363" lon="6.8613">
        <ele>760</ele>
        <time>2020-10-28T11:57:32.416Z</time>
      </trkpt>
      <trkpt lat="48.06364" lon="6.8613">
        <ele>761</ele>
        <time>2020-10-28T11:57:33.416Z</time>
      </trkpt>
      <trkpt lat="48.06364" lon="6.86129">
        <ele>761</ele>
        <time>2020-10-28T11:57:34.415Z</time>
      </trkpt>
      <trkpt lat="48.06365" lon="6.86128">
        <ele>761</ele>
        <time>2020-10-28T11:57:35.416Z</time>
      </trkpt>
      <trkpt lat="48.06365" lon="6.86128">
        <ele>762</ele>
        <time>2020-10-28T11:57:36.415Z</time>
      </trkpt>
      <trkpt lat="48.06365" lon="6.86127">
        <ele>762</ele>
        <time>2020-10-28T11:57:37.415Z</time>
      </trkpt>
      <trkpt lat="48.06365" lon="6.86126">
        <ele>762</ele>
        <time>2020-10-28T11:57:38.416Z</time>
      </trkpt>
      <trkpt lat="48.06365" lon="6.86126">
        <ele>762</ele>
        <time>2020-10-28T11:57:39.416Z</time>
      </trkpt>
      <trkpt lat="48.06366" lon="6.86125">
        <ele>761</ele>
        <time>2020-10-28T11:57:40.416Z</time>
      </trkpt>
      <trkpt lat="48.06366" lon="6.86124">
        <ele>761</ele>
        <time>2020-10-28T11:57:41.415Z</time>
      </trkpt>
      <trkpt lat="48.06367" lon="6.86122">
        <ele>761</ele>
        <time>2020-10-28T11:57:42.415Z</time>
      </trkpt>
      <trkpt lat="48.06367" lon="6.8612">
        <ele>761</ele>
        <time>2020-10-28T11:57:43.415Z</time>
      </trkpt>
      <trkpt lat="48.06367" lon="6.86119">
        <ele>761</ele>
        <time>2020-10-28T11:57:44.416Z</time>
      </trkpt>
      <trkpt lat="48.06367" lon="6.86118">
        <ele>761</ele>
        <time>2020-10-28T11:57:45.415Z</time>
      </trkpt>
      <trkpt lat="48.06367" lon="6.86117">
        <ele>761</ele>
        <time>2020-10-28T11:57:46.415Z</time>
      </trkpt>
      <trkpt lat="48.06368" lon="6.86116">
        <ele>761</ele>
        <time>2020-10-28T11:57:47.416Z</time>
      </trkpt>
      <trkpt lat="48.06368" lon="6.86116">
        <ele>761</ele>
        <time>2020-10-28T11:57:48.416Z</time>
      </trkpt>
      <trkpt lat="48.06369" lon="6.86115">
        <ele>761</ele>
        <time>2020-10-28T11:57:49.416Z</time>
      </trkpt>
      <trkpt lat="48.0637" lon="6.86115">
        <ele>761</ele>
        <time>2020-10-28T11:57:50.415Z</time>
      </trkpt>
      <trkpt lat="48.06371" lon="6.86114">
        <ele>760</ele>
        <time>2020-10-28T11:57:51.416Z</time>
      </trkpt>
      <trkpt lat="48.06371" lon="6.86112">
        <ele>760</ele>
        <time>2020-10-28T11:57:52.415Z</time>
      </trkpt>
      <trkpt lat="48.06372" lon="6.86112">
        <ele>760</ele>
        <time>2020-10-28T11:57:53.416Z</time>
      </trkpt>
      <trkpt lat="48.06373" lon="6.86111">
        <ele>760</ele>
        <time>2020-10-28T11:57:54.415Z</time>
      </trkpt>
      <trkpt lat="48.06373" lon="6.86111">
        <ele>760</ele>
        <time>2020-10-28T11:57:55.416Z</time>
      </trkpt>
      <trkpt lat="48.06374" lon="6.8611">
        <ele>760</ele>
        <time>2020-10-28T11:57:56.415Z</time>
      </trkpt>
      <trkpt lat="48.06376" lon="6.8611">
        <ele>759</ele>
        <time>2020-10-28T11:57:57.415Z</time>
      </trkpt>
      <trkpt lat="48.06376" lon="6.86109">
        <ele>759</ele>
        <time>2020-10-28T11:57:58.416Z</time>
      </trkpt>
      <trkpt lat="48.06377" lon="6.86108">
        <ele>758</ele>
        <time>2020-10-28T11:57:59.416Z</time>
      </trkpt>
      <trkpt lat="48.06377" lon="6.86107">
        <ele>758</ele>
        <time>2020-10-28T11:58:00.416Z</time>
      </trkpt>
      <trkpt lat="48.06377" lon="6.86106">
        <ele>758</ele>
        <time>2020-10-28T11:58:01.416Z</time>
      </trkpt>
      <trkpt lat="48.06378" lon="6.86105">
        <ele>757</ele>
        <time>2020-10-28T11:58:02.416Z</time>
      </trkpt>
      <trkpt lat="48.06378" lon="6.86102">
        <ele>757</ele>
        <time>2020-10-28T11:58:03.415Z</time>
      </trkpt>
      <trkpt lat="48.06378" lon="6.86102">
        <ele>756</ele>
        <time>2020-10-28T11:58:04.416Z</time>
      </trkpt>
      <trkpt lat="48.06378" lon="6.86102">
        <ele>756</ele>
        <time>2020-10-28T11:58:05.415Z</time>
      </trkpt>
      <trkpt lat="48.06377" lon="6.86101">
        <ele>755</ele>
        <time>2020-10-28T11:58:06.416Z</time>
      </trkpt>
      <trkpt lat="48.06378" lon="6.86101">
        <ele>755</ele>
        <time>2020-10-28T11:58:07.415Z</time>
      </trkpt>
      <trkpt lat="48.06378" lon="6.861">
        <ele>755</ele>
        <time>2020-10-28T11:58:08.416Z</time>
      </trkpt>
      <trkpt lat="48.06378" lon="6.86099">
        <ele>754</ele>
        <time>2020-10-28T11:58:09.416Z</time>
      </trkpt>
      <trkpt lat="48.06378" lon="6.86098">
        <ele>753</ele>
        <time>2020-10-28T11:58:10.415Z</time>
      </trkpt>
      <trkpt lat="48.06379" lon="6.86097">
        <ele>753</ele>
        <time>2020-10-28T11:58:11.416Z</time>
      </trkpt>
      <trkpt lat="48.06379" lon="6.86096">
        <ele>753</ele>
        <time>2020-10-28T11:58:12.416Z</time>
      </trkpt>
      <trkpt lat="48.06378" lon="6.86096">
        <ele>753</ele>
        <time>2020-10-28T11:58:13.415Z</time>
      </trkpt>
      <trkpt lat="48.06378" lon="6.86095">
        <ele>753</ele>
        <time>2020-10-28T11:58:14.415Z</time>
      </trkpt>
      <trkpt lat="48.06377" lon="6.86095">
        <ele>753</ele>
        <time>2020-10-28T11:58:15.415Z</time>
      </trkpt>
      <trkpt lat="48.06376" lon="6.86095">
        <ele>754</ele>
        <time>2020-10-28T11:58:16.416Z</time>
      </trkpt>
      <trkpt lat="48.06374" lon="6.86095">
        <ele>754</ele>
        <time>2020-10-28T11:58:17.415Z</time>
      </trkpt>
      <trkpt lat="48.06372" lon="6.86095">
        <ele>755</ele>
        <time>2020-10-28T11:58:18.416Z</time>
      </trkpt>
      <trkpt lat="48.06371" lon="6.86094">
        <ele>755</ele>
        <time>2020-10-28T11:58:19.416Z</time>
      </trkpt>
      <trkpt lat="48.0637" lon="6.86093">
        <ele>755</ele>
        <time>2020-10-28T11:58:20.415Z</time>
      </trkpt>
      <trkpt lat="48.06369" lon="6.86091">
        <ele>756</ele>
        <time>2020-10-28T11:58:21.415Z</time>
      </trkpt>
      <trkpt lat="48.06368" lon="6.8609">
        <ele>756</ele>
        <time>2020-10-28T11:58:22.415Z</time>
      </trkpt>
      <trkpt lat="48.06367" lon="6.86088">
        <ele>755</ele>
        <time>2020-10-28T11:58:23.416Z</time>
      </trkpt>
      <trkpt lat="48.06367" lon="6.86086">
        <ele>755</ele>
        <time>2020-10-28T11:58:24.416Z</time>
      </trkpt>
      <trkpt lat="48.06366" lon="6.86083">
        <ele>755</ele>
        <time>2020-10-28T11:58:25.416Z</time>
      </trkpt>
      <trkpt lat="48.06366" lon="6.86081">
        <ele>755</ele>
        <time>2020-10-28T11:58:26.416Z</time>
      </trkpt>
      <trkpt lat="48.06366" lon="6.86079">
        <ele>754</ele>
        <time>2020-10-28T11:58:27.416Z</time>
      </trkpt>
      <trkpt lat="48.06365" lon="6.86078">
        <ele>754</ele>
        <time>2020-10-28T11:58:28.416Z</time>
      </trkpt>
      <trkpt lat="48.06365" lon="6.86076">
        <ele>754</ele>
        <time>2020-10-28T11:58:29.415Z</time>
      </trkpt>
      <trkpt lat="48.06365" lon="6.86073">
        <ele>754</ele>
        <time>2020-10-28T11:58:30.416Z</time>
      </trkpt>
      <trkpt lat="48.06364" lon="6.86071">
        <ele>753</ele>
        <time>2020-10-28T11:58:31.416Z</time>
      </trkpt>
      <trkpt lat="48.06363" lon="6.8607">
        <ele>753</ele>
        <time>2020-10-28T11:58:32.416Z</time>
      </trkpt>
      <trkpt lat="48.06362" lon="6.86068">
        <ele>753</ele>
        <time>2020-10-28T11:58:33.416Z</time>
      </trkpt>
      <trkpt lat="48.06362" lon="6.86066">
        <ele>752</ele>
        <time>2020-10-28T11:58:34.416Z</time>
      </trkpt>
      <trkpt lat="48.06361" lon="6.86064">
        <ele>752</ele>
        <time>2020-10-28T11:58:35.416Z</time>
      </trkpt>
      <trkpt lat="48.06361" lon="6.86063">
        <ele>752</ele>
        <time>2020-10-28T11:58:36.416Z</time>
      </trkpt>
      <trkpt lat="48.0636" lon="6.86062">
        <ele>751</ele>
        <time>2020-10-28T11:58:37.416Z</time>
      </trkpt>
      <trkpt lat="48.0636" lon="6.8606">
        <ele>751</ele>
        <time>2020-10-28T11:58:38.416Z</time>
      </trkpt>
      <trkpt lat="48.06359" lon="6.86058">
        <ele>751</ele>
        <time>2020-10-28T11:58:39.415Z</time>
      </trkpt>
      <trkpt lat="48.06359" lon="6.86057">
        <ele>751</ele>
        <time>2020-10-28T11:58:40.416Z</time>
      </trkpt>
      <trkpt lat="48.06359" lon="6.86057">
        <ele>751</ele>
        <time>2020-10-28T11:58:41.416Z</time>
      </trkpt>
      <trkpt lat="48.06359" lon="6.86057">
        <ele>751</ele>
        <time>2020-10-28T11:58:42.415Z</time>
      </trkpt>
      <trkpt lat="48.06358" lon="6.86057">
        <ele>751</ele>
        <time>2020-10-28T11:58:43.417Z</time>
      </trkpt>
      <trkpt lat="48.06358" lon="6.86056">
        <ele>751</ele>
        <time>2020-10-28T11:58:44.417Z</time>
      </trkpt>
      <trkpt lat="48.06357" lon="6.86055">
        <ele>752</ele>
        <time>2020-10-28T11:58:45.417Z</time>
      </trkpt>
      <trkpt lat="48.06357" lon="6.86053">
        <ele>752</ele>
        <time>2020-10-28T11:58:46.417Z</time>
      </trkpt>
      <trkpt lat="48.06357" lon="6.86053">
        <ele>752</ele>
        <time>2020-10-28T11:58:47.417Z</time>
      </trkpt>
      <trkpt lat="48.06358" lon="6.86051">
        <ele>753</ele>
        <time>2020-10-28T11:58:48.417Z</time>
      </trkpt>
      <trkpt lat="48.06357" lon="6.86049">
        <ele>753</ele>
        <time>2020-10-28T11:58:49.417Z</time>
      </trkpt>
      <trkpt lat="48.06357" lon="6.86047">
        <ele>753</ele>
        <time>2020-10-28T11:58:50.417Z</time>
      </trkpt>
      <trkpt lat="48.06357" lon="6.86046">
        <ele>754</ele>
        <time>2020-10-28T11:58:51.416Z</time>
      </trkpt>
      <trkpt lat="48.06356" lon="6.86045">
        <ele>754</ele>
        <time>2020-10-28T11:58:52.417Z</time>
      </trkpt>
      <trkpt lat="48.06356" lon="6.86045">
        <ele>754</ele>
        <time>2020-10-28T11:58:53.417Z</time>
      </trkpt>
      <trkpt lat="48.06355" lon="6.86044">
        <ele>754</ele>
        <time>2020-10-28T11:58:54.417Z</time>
      </trkpt>
      <trkpt lat="48.06354" lon="6.86043">
        <ele>755</ele>
        <time>2020-10-28T11:58:55.417Z</time>
      </trkpt>
      <trkpt lat="48.06354" lon="6.86041">
        <ele>754</ele>
        <time>2020-10-28T11:58:56.417Z</time>
      </trkpt>
      <trkpt lat="48.06353" lon="6.86039">
        <ele>754</ele>
        <time>2020-10-28T11:58:57.417Z</time>
      </trkpt>
      <trkpt lat="48.06354" lon="6.86038">
        <ele>754</ele>
        <time>2020-10-28T11:58:58.416Z</time>
      </trkpt>
      <trkpt lat="48.06355" lon="6.86036">
        <ele>754</ele>
        <time>2020-10-28T11:58:59.416Z</time>
      </trkpt>
      <trkpt lat="48.06355" lon="6.86034">
        <ele>755</ele>
        <time>2020-10-28T11:59:00.416Z</time>
      </trkpt>
      <trkpt lat="48.06355" lon="6.86033">
        <ele>755</ele>
        <time>2020-10-28T11:59:01.417Z</time>
      </trkpt>
      <trkpt lat="48.06354" lon="6.86031">
        <ele>755</ele>
        <time>2020-10-28T11:59:02.416Z</time>
      </trkpt>
      <trkpt lat="48.06354" lon="6.8603">
        <ele>755</ele>
        <time>2020-10-28T11:59:03.417Z</time>
      </trkpt>
      <trkpt lat="48.06353" lon="6.86029">
        <ele>755</ele>
        <time>2020-10-28T11:59:04.416Z</time>
      </trkpt>
      <trkpt lat="48.06353" lon="6.86028">
        <ele>755</ele>
        <time>2020-10-28T11:59:05.416Z</time>
      </trkpt>
      <trkpt lat="48.06352" lon="6.86026">
        <ele>755</ele>
        <time>2020-10-28T11:59:06.417Z</time>
      </trkpt>
      <trkpt lat="48.06352" lon="6.86025">
        <ele>755</ele>
        <time>2020-10-28T11:59:07.417Z</time>
      </trkpt>
      <trkpt lat="48.06352" lon="6.86023">
        <ele>755</ele>
        <time>2020-10-28T11:59:08.416Z</time>
      </trkpt>
      <trkpt lat="48.06351" lon="6.86021">
        <ele>755</ele>
        <time>2020-10-28T11:59:09.416Z</time>
      </trkpt>
      <trkpt lat="48.06351" lon="6.8602">
        <ele>755</ele>
        <time>2020-10-28T11:59:10.417Z</time>
      </trkpt>
      <trkpt lat="48.06351" lon="6.86018">
        <ele>755</ele>
        <time>2020-10-28T11:59:11.417Z</time>
      </trkpt>
      <trkpt lat="48.06351" lon="6.86016">
        <ele>755</ele>
        <time>2020-10-28T11:59:12.416Z</time>
      </trkpt>
      <trkpt lat="48.0635" lon="6.86015">
        <ele>756</ele>
        <time>2020-10-28T11:59:13.417Z</time>
      </trkpt>
      <trkpt lat="48.06348" lon="6.86013">
        <ele>756</ele>
        <time>2020-10-28T11:59:14.417Z</time>
      </trkpt>
      <trkpt lat="48.06346" lon="6.8601">
        <ele>756</ele>
        <time>2020-10-28T11:59:15.417Z</time>
      </trkpt>
      <trkpt lat="48.06345" lon="6.86009">
        <ele>756</ele>
        <time>2020-10-28T11:59:16.416Z</time>
      </trkpt>
      <trkpt lat="48.06343" lon="6.86009">
        <ele>756</ele>
        <time>2020-10-28T11:59:17.416Z</time>
      </trkpt>
      <trkpt lat="48.06342" lon="6.86008">
        <ele>756</ele>
        <time>2020-10-28T11:59:18.417Z</time>
      </trkpt>
      <trkpt lat="48.0634" lon="6.86007">
        <ele>756</ele>
        <time>2020-10-28T11:59:19.417Z</time>
      </trkpt>
      <trkpt lat="48.06338" lon="6.86006">
        <ele>756</ele>
        <time>2020-10-28T11:59:20.416Z</time>
      </trkpt>
      <trkpt lat="48.06337" lon="6.86005">
        <ele>756</ele>
        <time>2020-10-28T11:59:21.416Z</time>
      </trkpt>
      <trkpt lat="48.06336" lon="6.86004">
        <ele>755</ele>
        <time>2020-10-28T11:59:22.417Z</time>
      </trkpt>
      <trkpt lat="48.06335" lon="6.86003">
        <ele>755</ele>
        <time>2020-10-28T11:59:23.417Z</time>
      </trkpt>
      <trkpt lat="48.06335" lon="6.86002">
        <ele>755</ele>
        <time>2020-10-28T11:59:24.416Z</time>
      </trkpt>
      <trkpt lat="48.06335" lon="6.86001">
        <ele>755</ele>
        <time>2020-10-28T11:59:25.416Z</time>
      </trkpt>
      <trkpt lat="48.06334" lon="6.86">
        <ele>755</ele>
        <time>2020-10-28T11:59:26.417Z</time>
      </trkpt>
      <trkpt lat="48.06334" lon="6.86">
        <ele>755</ele>
        <time>2020-10-28T11:59:27.417Z</time>
      </trkpt>
      <trkpt lat="48.06334" lon="6.86">
        <ele>755</ele>
        <time>2020-10-28T11:59:28.416Z</time>
      </trkpt>
      <trkpt lat="48.06333" lon="6.85998">
        <ele>755</ele>
        <time>2020-10-28T11:59:29.417Z</time>
      </trkpt>
      <trkpt lat="48.06332" lon="6.85998">
        <ele>754</ele>
        <time>2020-10-28T11:59:30.416Z</time>
      </trkpt>
      <trkpt lat="48.06332" lon="6.85997">
        <ele>755</ele>
        <time>2020-10-28T11:59:31.417Z</time>
      </trkpt>
      <trkpt lat="48.06331" lon="6.85996">
        <ele>755</ele>
        <time>2020-10-28T11:59:32.416Z</time>
      </trkpt>
      <trkpt lat="48.06331" lon="6.85995">
        <ele>755</ele>
        <time>2020-10-28T11:59:33.417Z</time>
      </trkpt>
      <trkpt lat="48.0633" lon="6.85993">
        <ele>755</ele>
        <time>2020-10-28T11:59:34.416Z</time>
      </trkpt>
      <trkpt lat="48.06329" lon="6.85992">
        <ele>755</ele>
        <time>2020-10-28T11:59:35.417Z</time>
      </trkpt>
      <trkpt lat="48.06328" lon="6.85992">
        <ele>755</ele>
        <time>2020-10-28T11:59:36.416Z</time>
      </trkpt>
      <trkpt lat="48.06326" lon="6.8599">
        <ele>755</ele>
        <time>2020-10-28T11:59:37.417Z</time>
      </trkpt>
      <trkpt lat="48.06325" lon="6.85989">
        <ele>756</ele>
        <time>2020-10-28T11:59:38.416Z</time>
      </trkpt>
      <trkpt lat="48.06323" lon="6.85987">
        <ele>756</ele>
        <time>2020-10-28T11:59:39.417Z</time>
      </trkpt>
      <trkpt lat="48.06323" lon="6.85985">
        <ele>756</ele>
        <time>2020-10-28T11:59:40.416Z</time>
      </trkpt>
      <trkpt lat="48.06322" lon="6.85984">
        <ele>756</ele>
        <time>2020-10-28T11:59:41.416Z</time>
      </trkpt>
      <trkpt lat="48.06321" lon="6.85982">
        <ele>757</ele>
        <time>2020-10-28T11:59:42.416Z</time>
      </trkpt>
      <trkpt lat="48.0632" lon="6.85981">
        <ele>757</ele>
        <time>2020-10-28T11:59:43.417Z</time>
      </trkpt>
      <trkpt lat="48.06319" lon="6.8598">
        <ele>757</ele>
        <time>2020-10-28T11:59:46.450Z</time>
      </trkpt>
      <trkpt lat="48.06319" lon="6.85979">
        <ele>757</ele>
        <time>2020-10-28T11:59:47.450Z</time>
      </trkpt>
      <trkpt lat="48.06318" lon="6.85977">
        <ele>757</ele>
        <time>2020-10-28T11:59:48.450Z</time>
      </trkpt>
      <trkpt lat="48.06317" lon="6.85976">
        <ele>756</ele>
        <time>2020-10-28T11:59:54.310Z</time>
      </trkpt>
      <trkpt lat="48.06317" lon="6.85975">
        <ele>756</ele>
        <time>2020-10-28T11:59:55.310Z</time>
      </trkpt>
      <trkpt lat="48.06316" lon="6.85974">
        <ele>755</ele>
        <time>2020-10-28T11:59:59.204Z</time>
      </trkpt>
      <trkpt lat="48.06317" lon="6.85973">
        <ele>754</ele>
        <time>2020-10-28T12:00:00.204Z</time>
      </trkpt>
      <trkpt lat="48.06317" lon="6.85972">
        <ele>754</ele>
        <time>2020-10-28T12:00:01.204Z</time>
      </trkpt>
      <trkpt lat="48.06316" lon="6.85971">
        <ele>753</ele>
        <time>2020-10-28T12:00:02.203Z</time>
      </trkpt>
      <trkpt lat="48.06315" lon="6.8597">
        <ele>752</ele>
        <time>2020-10-28T12:00:03.204Z</time>
      </trkpt>
      <trkpt lat="48.06314" lon="6.8597">
        <ele>752</ele>
        <time>2020-10-28T12:00:04.204Z</time>
      </trkpt>
      <trkpt lat="48.06313" lon="6.85969">
        <ele>751</ele>
        <time>2020-10-28T12:00:05.204Z</time>
      </trkpt>
      <trkpt lat="48.06312" lon="6.85968">
        <ele>751</ele>
        <time>2020-10-28T12:00:06.204Z</time>
      </trkpt>
      <trkpt lat="48.06311" lon="6.85966">
        <ele>750</ele>
        <time>2020-10-28T12:00:07.204Z</time>
      </trkpt>
      <trkpt lat="48.06309" lon="6.85964">
        <ele>750</ele>
        <time>2020-10-28T12:00:08.204Z</time>
      </trkpt>
      <trkpt lat="48.06308" lon="6.85963">
        <ele>749</ele>
        <time>2020-10-28T12:00:09.203Z</time>
      </trkpt>
      <trkpt lat="48.06307" lon="6.85961">
        <ele>748</ele>
        <time>2020-10-28T12:00:10.204Z</time>
      </trkpt>
      <trkpt lat="48.06307" lon="6.8596">
        <ele>747</ele>
        <time>2020-10-28T12:00:11.204Z</time>
      </trkpt>
      <trkpt lat="48.06307" lon="6.85958">
        <ele>746</ele>
        <time>2020-10-28T12:00:12.203Z</time>
      </trkpt>
      <trkpt lat="48.06307" lon="6.85956">
        <ele>745</ele>
        <time>2020-10-28T12:00:13.204Z</time>
      </trkpt>
      <trkpt lat="48.06306" lon="6.85954">
        <ele>744</ele>
        <time>2020-10-28T12:00:14.204Z</time>
      </trkpt>
      <trkpt lat="48.06305" lon="6.85952">
        <ele>744</ele>
        <time>2020-10-28T12:00:15.204Z</time>
      </trkpt>
      <trkpt lat="48.06305" lon="6.8595">
        <ele>743</ele>
        <time>2020-10-28T12:00:16.204Z</time>
      </trkpt>
      <trkpt lat="48.06304" lon="6.85947">
        <ele>743</ele>
        <time>2020-10-28T12:00:17.204Z</time>
      </trkpt>
      <trkpt lat="48.06303" lon="6.85945">
        <ele>742</ele>
        <time>2020-10-28T12:00:18.204Z</time>
      </trkpt>
      <trkpt lat="48.06303" lon="6.85944">
        <ele>742</ele>
        <time>2020-10-28T12:00:19.204Z</time>
      </trkpt>
      <trkpt lat="48.06301" lon="6.85943">
        <ele>742</ele>
        <time>2020-10-28T12:00:20.204Z</time>
      </trkpt>
      <trkpt lat="48.063" lon="6.85941">
        <ele>742</ele>
        <time>2020-10-28T12:00:21.204Z</time>
      </trkpt>
      <trkpt lat="48.06299" lon="6.8594">
        <ele>742</ele>
        <time>2020-10-28T12:00:22.203Z</time>
      </trkpt>
      <trkpt lat="48.06299" lon="6.85938">
        <ele>741</ele>
        <time>2020-10-28T12:00:23.203Z</time>
      </trkpt>
      <trkpt lat="48.06299" lon="6.85936">
        <ele>741</ele>
        <time>2020-10-28T12:00:24.204Z</time>
      </trkpt>
      <trkpt lat="48.06299" lon="6.85934">
        <ele>741</ele>
        <time>2020-10-28T12:00:25.203Z</time>
      </trkpt>
      <trkpt lat="48.06298" lon="6.85933">
        <ele>741</ele>
        <time>2020-10-28T12:00:26.204Z</time>
      </trkpt>
      <trkpt lat="48.06298" lon="6.85932">
        <ele>741</ele>
        <time>2020-10-28T12:00:27.204Z</time>
      </trkpt>
      <trkpt lat="48.06297" lon="6.8593">
        <ele>742</ele>
        <time>2020-10-28T12:00:28.204Z</time>
      </trkpt>
      <trkpt lat="48.06298" lon="6.85928">
        <ele>742</ele>
        <time>2020-10-28T12:00:29.204Z</time>
      </trkpt>
      <trkpt lat="48.06297" lon="6.85926">
        <ele>742</ele>
        <time>2020-10-28T12:00:30.204Z</time>
      </trkpt>
      <trkpt lat="48.06297" lon="6.85924">
        <ele>741</ele>
        <time>2020-10-28T12:00:31.204Z</time>
      </trkpt>
      <trkpt lat="48.06297" lon="6.85923">
        <ele>741</ele>
        <time>2020-10-28T12:00:32.203Z</time>
      </trkpt>
      <trkpt lat="48.06297" lon="6.85921">
        <ele>741</ele>
        <time>2020-10-28T12:00:33.204Z</time>
      </trkpt>
      <trkpt lat="48.06296" lon="6.8592">
        <ele>741</ele>
        <time>2020-10-28T12:00:34.203Z</time>
      </trkpt>
      <trkpt lat="48.06296" lon="6.85919">
        <ele>741</ele>
        <time>2020-10-28T12:00:35.203Z</time>
      </trkpt>
      <trkpt lat="48.06296" lon="6.85918">
        <ele>741</ele>
        <time>2020-10-28T12:00:36.204Z</time>
      </trkpt>
      <trkpt lat="48.06296" lon="6.85917">
        <ele>740</ele>
        <time>2020-10-28T12:00:37.203Z</time>
      </trkpt>
      <trkpt lat="48.06297" lon="6.85915">
        <ele>740</ele>
        <time>2020-10-28T12:00:38.204Z</time>
      </trkpt>
      <trkpt lat="48.06297" lon="6.85913">
        <ele>739</ele>
        <time>2020-10-28T12:00:39.204Z</time>
      </trkpt>
      <trkpt lat="48.06296" lon="6.85911">
        <ele>739</ele>
        <time>2020-10-28T12:00:40.203Z</time>
      </trkpt>
      <trkpt lat="48.06297" lon="6.85909">
        <ele>738</ele>
        <time>2020-10-28T12:00:41.204Z</time>
      </trkpt>
      <trkpt lat="48.06298" lon="6.85907">
        <ele>738</ele>
        <time>2020-10-28T12:00:42.203Z</time>
      </trkpt>
      <trkpt lat="48.063" lon="6.85907">
        <ele>737</ele>
        <time>2020-10-28T12:00:43.204Z</time>
      </trkpt>
      <trkpt lat="48.06301" lon="6.85906">
        <ele>737</ele>
        <time>2020-10-28T12:00:44.204Z</time>
      </trkpt>
      <trkpt lat="48.06301" lon="6.85905">
        <ele>737</ele>
        <time>2020-10-28T12:00:45.204Z</time>
      </trkpt>
      <trkpt lat="48.06301" lon="6.85905">
        <ele>737</ele>
        <time>2020-10-28T12:00:46.204Z</time>
      </trkpt>
      <trkpt lat="48.063" lon="6.85904">
        <ele>737</ele>
        <time>2020-10-28T12:00:47.204Z</time>
      </trkpt>
      <trkpt lat="48.063" lon="6.85904">
        <ele>737</ele>
        <time>2020-10-28T12:00:48.204Z</time>
      </trkpt>
      <trkpt lat="48.063" lon="6.85905">
        <ele>736</ele>
        <time>2020-10-28T12:00:49.203Z</time>
      </trkpt>
      <trkpt lat="48.06299" lon="6.85902">
        <ele>735</ele>
        <time>2020-10-28T12:00:50.204Z</time>
      </trkpt>
      <trkpt lat="48.063" lon="6.859">
        <ele>735</ele>
        <time>2020-10-28T12:00:51.204Z</time>
      </trkpt>
      <trkpt lat="48.063" lon="6.85897">
        <ele>735</ele>
        <time>2020-10-28T12:00:52.204Z</time>
      </trkpt>
      <trkpt lat="48.06301" lon="6.85896">
        <ele>735</ele>
        <time>2020-10-28T12:00:53.204Z</time>
      </trkpt>
      <trkpt lat="48.06301" lon="6.85894">
        <ele>734</ele>
        <time>2020-10-28T12:00:54.204Z</time>
      </trkpt>
      <trkpt lat="48.06302" lon="6.85892">
        <ele>734</ele>
        <time>2020-10-28T12:00:55.203Z</time>
      </trkpt>
      <trkpt lat="48.06302" lon="6.8589">
        <ele>734</ele>
        <time>2020-10-28T12:00:56.203Z</time>
      </trkpt>
      <trkpt lat="48.06301" lon="6.85889">
        <ele>733</ele>
        <time>2020-10-28T12:00:57.203Z</time>
      </trkpt>
      <trkpt lat="48.06301" lon="6.85888">
        <ele>733</ele>
        <time>2020-10-28T12:00:58.203Z</time>
      </trkpt>
      <trkpt lat="48.06301" lon="6.85887">
        <ele>733</ele>
        <time>2020-10-28T12:00:59.203Z</time>
      </trkpt>
      <trkpt lat="48.06302" lon="6.85886">
        <ele>733</ele>
        <time>2020-10-28T12:01:00.204Z</time>
      </trkpt>
      <trkpt lat="48.06304" lon="6.85885">
        <ele>733</ele>
        <time>2020-10-28T12:01:01.204Z</time>
      </trkpt>
      <trkpt lat="48.06305" lon="6.85884">
        <ele>733</ele>
        <time>2020-10-28T12:01:02.204Z</time>
      </trkpt>
      <trkpt lat="48.06306" lon="6.85884">
        <ele>733</ele>
        <time>2020-10-28T12:01:03.204Z</time>
      </trkpt>
      <trkpt lat="48.06307" lon="6.85884">
        <ele>733</ele>
        <time>2020-10-28T12:01:04.204Z</time>
      </trkpt>
      <trkpt lat="48.06308" lon="6.85883">
        <ele>733</ele>
        <time>2020-10-28T12:01:05.204Z</time>
      </trkpt>
      <trkpt lat="48.06308" lon="6.85882">
        <ele>734</ele>
        <time>2020-10-28T12:01:06.203Z</time>
      </trkpt>
      <trkpt lat="48.06309" lon="6.85881">
        <ele>735</ele>
        <time>2020-10-28T12:01:07.204Z</time>
      </trkpt>
      <trkpt lat="48.06309" lon="6.8588">
        <ele>735</ele>
        <time>2020-10-28T12:01:08.204Z</time>
      </trkpt>
      <trkpt lat="48.0631" lon="6.85879">
        <ele>736</ele>
        <time>2020-10-28T12:01:09.204Z</time>
      </trkpt>
      <trkpt lat="48.06311" lon="6.85878">
        <ele>737</ele>
        <time>2020-10-28T12:01:10.204Z</time>
      </trkpt>
      <trkpt lat="48.06312" lon="6.85878">
        <ele>738</ele>
        <time>2020-10-28T12:01:11.203Z</time>
      </trkpt>
      <trkpt lat="48.06313" lon="6.85878">
        <ele>739</ele>
        <time>2020-10-28T12:01:12.204Z</time>
      </trkpt>
      <trkpt lat="48.06314" lon="6.85879">
        <ele>740</ele>
        <time>2020-10-28T12:01:13.204Z</time>
      </trkpt>
      <trkpt lat="48.06315" lon="6.85878">
        <ele>740</ele>
        <time>2020-10-28T12:01:14.203Z</time>
      </trkpt>
      <trkpt lat="48.06315" lon="6.85878">
        <ele>741</ele>
        <time>2020-10-28T12:01:15.203Z</time>
      </trkpt>
      <trkpt lat="48.06315" lon="6.85877">
        <ele>741</ele>
        <time>2020-10-28T12:01:16.203Z</time>
      </trkpt>
      <trkpt lat="48.06315" lon="6.85877">
        <ele>742</ele>
        <time>2020-10-28T12:01:17.204Z</time>
      </trkpt>
      <trkpt lat="48.06316" lon="6.85876">
        <ele>743</ele>
        <time>2020-10-28T12:01:18.204Z</time>
      </trkpt>
      <trkpt lat="48.06317" lon="6.85876">
        <ele>744</ele>
        <time>2020-10-28T12:01:19.204Z</time>
      </trkpt>
      <trkpt lat="48.06318" lon="6.85875">
        <ele>746</ele>
        <time>2020-10-28T12:01:20.203Z</time>
      </trkpt>
      <trkpt lat="48.0632" lon="6.85875">
        <ele>746</ele>
        <time>2020-10-28T12:01:21.204Z</time>
      </trkpt>
      <trkpt lat="48.06322" lon="6.85875">
        <ele>746</ele>
        <time>2020-10-28T12:01:22.204Z</time>
      </trkpt>
      <trkpt lat="48.06324" lon="6.85873">
        <ele>747</ele>
        <time>2020-10-28T12:01:23.204Z</time>
      </trkpt>
      <trkpt lat="48.06326" lon="6.85871">
        <ele>747</ele>
        <time>2020-10-28T12:01:24.204Z</time>
      </trkpt>
      <trkpt lat="48.06327" lon="6.85869">
        <ele>748</ele>
        <time>2020-10-28T12:01:25.204Z</time>
      </trkpt>
      <trkpt lat="48.06328" lon="6.85867">
        <ele>748</ele>
        <time>2020-10-28T12:01:26.204Z</time>
      </trkpt>
      <trkpt lat="48.06329" lon="6.85865">
        <ele>748</ele>
        <time>2020-10-28T12:01:27.204Z</time>
      </trkpt>
      <trkpt lat="48.0633" lon="6.85864">
        <ele>748</ele>
        <time>2020-10-28T12:01:28.203Z</time>
      </trkpt>
      <trkpt lat="48.0633" lon="6.85863">
        <ele>747</ele>
        <time>2020-10-28T12:01:29.203Z</time>
      </trkpt>
      <trkpt lat="48.0633" lon="6.85861">
        <ele>746</ele>
        <time>2020-10-28T12:01:30.204Z</time>
      </trkpt>
      <trkpt lat="48.0633" lon="6.85859">
        <ele>745</ele>
        <time>2020-10-28T12:01:31.204Z</time>
      </trkpt>
      <trkpt lat="48.06329" lon="6.85858">
        <ele>744</ele>
        <time>2020-10-28T12:01:32.204Z</time>
      </trkpt>
      <trkpt lat="48.06328" lon="6.85857">
        <ele>743</ele>
        <time>2020-10-28T12:01:33.204Z</time>
      </trkpt>
      <trkpt lat="48.06327" lon="6.85856">
        <ele>742</ele>
        <time>2020-10-28T12:01:34.204Z</time>
      </trkpt>
      <trkpt lat="48.06326" lon="6.85854">
        <ele>741</ele>
        <time>2020-10-28T12:01:35.204Z</time>
      </trkpt>
      <trkpt lat="48.06326" lon="6.85853">
        <ele>740</ele>
        <time>2020-10-28T12:01:36.203Z</time>
      </trkpt>
      <trkpt lat="48.06325" lon="6.85852">
        <ele>739</ele>
        <time>2020-10-28T12:01:37.203Z</time>
      </trkpt>
      <trkpt lat="48.06324" lon="6.85851">
        <ele>739</ele>
        <time>2020-10-28T12:01:38.204Z</time>
      </trkpt>
      <trkpt lat="48.06323" lon="6.85849">
        <ele>738</ele>
        <time>2020-10-28T12:01:39.204Z</time>
      </trkpt>
      <trkpt lat="48.06322" lon="6.85848">
        <ele>737</ele>
        <time>2020-10-28T12:01:40.204Z</time>
      </trkpt>
      <trkpt lat="48.06322" lon="6.85847">
        <ele>736</ele>
        <time>2020-10-28T12:01:41.203Z</time>
      </trkpt>
      <trkpt lat="48.06322" lon="6.85846">
        <ele>735</ele>
        <time>2020-10-28T12:01:42.204Z</time>
      </trkpt>
      <trkpt lat="48.06323" lon="6.85846">
        <ele>734</ele>
        <time>2020-10-28T12:01:43.204Z</time>
      </trkpt>
      <trkpt lat="48.06324" lon="6.85846">
        <ele>732</ele>
        <time>2020-10-28T12:01:44.204Z</time>
      </trkpt>
      <trkpt lat="48.06325" lon="6.85845">
        <ele>731</ele>
        <time>2020-10-28T12:01:45.204Z</time>
      </trkpt>
      <trkpt lat="48.06325" lon="6.85846">
        <ele>730</ele>
        <time>2020-10-28T12:01:46.204Z</time>
      </trkpt>
      <trkpt lat="48.06325" lon="6.85845">
        <ele>730</ele>
        <time>2020-10-28T12:01:47.204Z</time>
      </trkpt>
      <trkpt lat="48.06325" lon="6.85845">
        <ele>729</ele>
        <time>2020-10-28T12:01:48.203Z</time>
      </trkpt>
      <trkpt lat="48.06325" lon="6.85844">
        <ele>728</ele>
        <time>2020-10-28T12:01:49.203Z</time>
      </trkpt>
      <trkpt lat="48.06326" lon="6.85844">
        <ele>727</ele>
        <time>2020-10-28T12:01:50.204Z</time>
      </trkpt>
      <trkpt lat="48.06327" lon="6.85844">
        <ele>727</ele>
        <time>2020-10-28T12:01:51.204Z</time>
      </trkpt>
      <trkpt lat="48.06327" lon="6.85844">
        <ele>726</ele>
        <time>2020-10-28T12:01:52.204Z</time>
      </trkpt>
      <trkpt lat="48.06328" lon="6.85843">
        <ele>725</ele>
        <time>2020-10-28T12:01:53.204Z</time>
      </trkpt>
      <trkpt lat="48.06329" lon="6.85843">
        <ele>725</ele>
        <time>2020-10-28T12:01:54.204Z</time>
      </trkpt>
      <trkpt lat="48.06329" lon="6.85842">
        <ele>724</ele>
        <time>2020-10-28T12:01:55.204Z</time>
      </trkpt>
      <trkpt lat="48.0633" lon="6.85842">
        <ele>723</ele>
        <time>2020-10-28T12:01:56.204Z</time>
      </trkpt>
      <trkpt lat="48.0633" lon="6.85842">
        <ele>723</ele>
        <time>2020-10-28T12:01:57.203Z</time>
      </trkpt>
      <trkpt lat="48.06331" lon="6.85842">
        <ele>723</ele>
        <time>2020-10-28T12:01:58.204Z</time>
      </trkpt>
      <trkpt lat="48.06332" lon="6.85842">
        <ele>723</ele>
        <time>2020-10-28T12:01:59.203Z</time>
      </trkpt>
      <trkpt lat="48.06332" lon="6.85841">
        <ele>723</ele>
        <time>2020-10-28T12:02:00.204Z</time>
      </trkpt>
      <trkpt lat="48.06332" lon="6.85841">
        <ele>723</ele>
        <time>2020-10-28T12:02:01.204Z</time>
      </trkpt>
      <trkpt lat="48.06333" lon="6.85841">
        <ele>723</ele>
        <time>2020-10-28T12:02:02.203Z</time>
      </trkpt>
      <trkpt lat="48.06333" lon="6.85841">
        <ele>722</ele>
        <time>2020-10-28T12:02:03.204Z</time>
      </trkpt>
      <trkpt lat="48.06334" lon="6.8584">
        <ele>722</ele>
        <time>2020-10-28T12:02:04.204Z</time>
      </trkpt>
      <trkpt lat="48.06335" lon="6.85839">
        <ele>722</ele>
        <time>2020-10-28T12:02:05.203Z</time>
      </trkpt>
      <trkpt lat="48.06335" lon="6.85838">
        <ele>722</ele>
        <time>2020-10-28T12:02:06.203Z</time>
      </trkpt>
      <trkpt lat="48.06336" lon="6.85837">
        <ele>722</ele>
        <time>2020-10-28T12:02:07.204Z</time>
      </trkpt>
      <trkpt lat="48.06337" lon="6.85836">
        <ele>723</ele>
        <time>2020-10-28T12:02:08.204Z</time>
      </trkpt>
      <trkpt lat="48.06338" lon="6.85836">
        <ele>723</ele>
        <time>2020-10-28T12:02:09.204Z</time>
      </trkpt>
      <trkpt lat="48.06339" lon="6.85835">
        <ele>723</ele>
        <time>2020-10-28T12:02:10.204Z</time>
      </trkpt>
      <trkpt lat="48.0634" lon="6.85833">
        <ele>723</ele>
        <time>2020-10-28T12:02:11.203Z</time>
      </trkpt>
      <trkpt lat="48.0634" lon="6.85831">
        <ele>723</ele>
        <time>2020-10-28T12:02:12.204Z</time>
      </trkpt>
      <trkpt lat="48.0634" lon="6.8583">
        <ele>723</ele>
        <time>2020-10-28T12:02:13.204Z</time>
      </trkpt>
      <trkpt lat="48.0634" lon="6.85828">
        <ele>722</ele>
        <time>2020-10-28T12:02:14.204Z</time>
      </trkpt>
      <trkpt lat="48.06341" lon="6.85826">
        <ele>722</ele>
        <time>2020-10-28T12:02:15.204Z</time>
      </trkpt>
      <trkpt lat="48.06343" lon="6.85825">
        <ele>722</ele>
        <time>2020-10-28T12:02:16.204Z</time>
      </trkpt>
      <trkpt lat="48.06343" lon="6.85825">
        <ele>721</ele>
        <time>2020-10-28T12:02:17.204Z</time>
      </trkpt>
      <trkpt lat="48.06344" lon="6.85825">
        <ele>721</ele>
        <time>2020-10-28T12:02:18.204Z</time>
      </trkpt>
      <trkpt lat="48.06344" lon="6.85825">
        <ele>721</ele>
        <time>2020-10-28T12:02:19.204Z</time>
      </trkpt>
      <trkpt lat="48.06344" lon="6.85825">
        <ele>721</ele>
        <time>2020-10-28T12:02:20.204Z</time>
      </trkpt>
      <trkpt lat="48.06344" lon="6.85824">
        <ele>721</ele>
        <time>2020-10-28T12:02:21.203Z</time>
      </trkpt>
      <trkpt lat="48.06344" lon="6.85823">
        <ele>721</ele>
        <time>2020-10-28T12:02:22.203Z</time>
      </trkpt>
      <trkpt lat="48.06344" lon="6.85822">
        <ele>720</ele>
        <time>2020-10-28T12:02:23.204Z</time>
      </trkpt>
      <trkpt lat="48.06344" lon="6.85821">
        <ele>720</ele>
        <time>2020-10-28T12:02:24.203Z</time>
      </trkpt>
      <trkpt lat="48.06345" lon="6.85821">
        <ele>720</ele>
        <time>2020-10-28T12:02:25.204Z</time>
      </trkpt>
      <trkpt lat="48.06345" lon="6.8582">
        <ele>720</ele>
        <time>2020-10-28T12:02:26.203Z</time>
      </trkpt>
      <trkpt lat="48.06345" lon="6.85819">
        <ele>719</ele>
        <time>2020-10-28T12:02:27.204Z</time>
      </trkpt>
      <trkpt lat="48.06345" lon="6.85819">
        <ele>719</ele>
        <time>2020-10-28T12:02:28.203Z</time>
      </trkpt>
      <trkpt lat="48.06346" lon="6.85819">
        <ele>718</ele>
        <time>2020-10-28T12:02:29.204Z</time>
      </trkpt>
      <trkpt lat="48.06346" lon="6.85818">
        <ele>718</ele>
        <time>2020-10-28T12:02:30.203Z</time>
      </trkpt>
      <trkpt lat="48.06346" lon="6.85817">
        <ele>717</ele>
        <time>2020-10-28T12:02:31.204Z</time>
      </trkpt>
      <trkpt lat="48.06347" lon="6.85816">
        <ele>716</ele>
        <time>2020-10-28T12:02:32.203Z</time>
      </trkpt>
      <trkpt lat="48.06348" lon="6.85815">
        <ele>716</ele>
        <time>2020-10-28T12:02:33.204Z</time>
      </trkpt>
      <trkpt lat="48.06349" lon="6.85813">
        <ele>715</ele>
        <time>2020-10-28T12:02:34.203Z</time>
      </trkpt>
      <trkpt lat="48.06349" lon="6.85812">
        <ele>715</ele>
        <time>2020-10-28T12:02:35.203Z</time>
      </trkpt>
      <trkpt lat="48.0635" lon="6.85812">
        <ele>714</ele>
        <time>2020-10-28T12:02:36.204Z</time>
      </trkpt>
      <trkpt lat="48.0635" lon="6.85811">
        <ele>714</ele>
        <time>2020-10-28T12:02:37.204Z</time>
      </trkpt>
      <trkpt lat="48.06351" lon="6.85811">
        <ele>713</ele>
        <time>2020-10-28T12:02:38.204Z</time>
      </trkpt>
      <trkpt lat="48.06351" lon="6.8581">
        <ele>712</ele>
        <time>2020-10-28T12:02:39.203Z</time>
      </trkpt>
      <trkpt lat="48.06351" lon="6.8581">
        <ele>712</ele>
        <time>2020-10-28T12:02:40.203Z</time>
      </trkpt>
      <trkpt lat="48.06351" lon="6.8581">
        <ele>712</ele>
        <time>2020-10-28T12:02:41.204Z</time>
      </trkpt>
      <trkpt lat="48.06352" lon="6.85809">
        <ele>712</ele>
        <time>2020-10-28T12:02:42.203Z</time>
      </trkpt>
      <trkpt lat="48.06353" lon="6.85807">
        <ele>712</ele>
        <time>2020-10-28T12:02:43.203Z</time>
      </trkpt>
      <trkpt lat="48.06353" lon="6.85806">
        <ele>711</ele>
        <time>2020-10-28T12:02:44.203Z</time>
      </trkpt>
      <trkpt lat="48.06353" lon="6.85805">
        <ele>711</ele>
        <time>2020-10-28T12:02:45.204Z</time>
      </trkpt>
      <trkpt lat="48.06354" lon="6.85803">
        <ele>711</ele>
        <time>2020-10-28T12:02:46.204Z</time>
      </trkpt>
      <trkpt lat="48.06354" lon="6.85802">
        <ele>710</ele>
        <time>2020-10-28T12:02:47.203Z</time>
      </trkpt>
      <trkpt lat="48.06355" lon="6.85802">
        <ele>710</ele>
        <time>2020-10-28T12:02:48.204Z</time>
      </trkpt>
      <trkpt lat="48.06356" lon="6.85803">
        <ele>710</ele>
        <time>2020-10-28T12:02:49.204Z</time>
      </trkpt>
      <trkpt lat="48.06358" lon="6.85804">
        <ele>710</ele>
        <time>2020-10-28T12:02:50.203Z</time>
      </trkpt>
      <trkpt lat="48.06359" lon="6.85804">
        <ele>709</ele>
        <time>2020-10-28T12:02:51.204Z</time>
      </trkpt>
      <trkpt lat="48.06359" lon="6.85805">
        <ele>709</ele>
        <time>2020-10-28T12:02:52.204Z</time>
      </trkpt>
      <trkpt lat="48.0636" lon="6.85804">
        <ele>709</ele>
        <time>2020-10-28T12:02:53.203Z</time>
      </trkpt>
      <trkpt lat="48.06361" lon="6.85803">
        <ele>710</ele>
        <time>2020-10-28T12:02:54.204Z</time>
      </trkpt>
      <trkpt lat="48.06361" lon="6.85803">
        <ele>710</ele>
        <time>2020-10-28T12:02:55.204Z</time>
      </trkpt>
      <trkpt lat="48.06362" lon="6.85801">
        <ele>710</ele>
        <time>2020-10-28T12:02:56.204Z</time>
      </trkpt>
      <trkpt lat="48.06363" lon="6.85801">
        <ele>711</ele>
        <time>2020-10-28T12:02:57.204Z</time>
      </trkpt>
      <trkpt lat="48.06363" lon="6.858">
        <ele>711</ele>
        <time>2020-10-28T12:02:58.204Z</time>
      </trkpt>
      <trkpt lat="48.06364" lon="6.85799">
        <ele>712</ele>
        <time>2020-10-28T12:02:59.204Z</time>
      </trkpt>
      <trkpt lat="48.06365" lon="6.85798">
        <ele>712</ele>
        <time>2020-10-28T12:03:00.204Z</time>
      </trkpt>
      <trkpt lat="48.06365" lon="6.85798">
        <ele>713</ele>
        <time>2020-10-28T12:03:01.204Z</time>
      </trkpt>
      <trkpt lat="48.06366" lon="6.85797">
        <ele>713</ele>
        <time>2020-10-28T12:03:02.203Z</time>
      </trkpt>
      <trkpt lat="48.06366" lon="6.85795">
        <ele>714</ele>
        <time>2020-10-28T12:03:03.204Z</time>
      </trkpt>
      <trkpt lat="48.06366" lon="6.85795">
        <ele>714</ele>
        <time>2020-10-28T12:03:04.204Z</time>
      </trkpt>
      <trkpt lat="48.06366" lon="6.85794">
        <ele>714</ele>
        <time>2020-10-28T12:03:05.204Z</time>
      </trkpt>
      <trkpt lat="48.06369" lon="6.85791">
        <ele>713</ele>
        <time>2020-10-28T12:03:06.203Z</time>
      </trkpt>
      <trkpt lat="48.06369" lon="6.85789">
        <ele>713</ele>
        <time>2020-10-28T12:03:07.204Z</time>
      </trkpt>
      <trkpt lat="48.06369" lon="6.85788">
        <ele>713</ele>
        <time>2020-10-28T12:03:08.203Z</time>
      </trkpt>
      <trkpt lat="48.0637" lon="6.85787">
        <ele>713</ele>
        <time>2020-10-28T12:03:09.204Z</time>
      </trkpt>
      <trkpt lat="48.0637" lon="6.85787">
        <ele>713</ele>
        <time>2020-10-28T12:03:10.204Z</time>
      </trkpt>
      <trkpt lat="48.06371" lon="6.85786">
        <ele>713</ele>
        <time>2020-10-28T12:03:11.204Z</time>
      </trkpt>
      <trkpt lat="48.06373" lon="6.85785">
        <ele>713</ele>
        <time>2020-10-28T12:03:12.204Z</time>
      </trkpt>
      <trkpt lat="48.06374" lon="6.85784">
        <ele>713</ele>
        <time>2020-10-28T12:03:13.204Z</time>
      </trkpt>
      <trkpt lat="48.06376" lon="6.85785">
        <ele>713</ele>
        <time>2020-10-28T12:03:14.204Z</time>
      </trkpt>
      <trkpt lat="48.06378" lon="6.85784">
        <ele>713</ele>
        <time>2020-10-28T12:03:15.204Z</time>
      </trkpt>
      <trkpt lat="48.06379" lon="6.85783">
        <ele>713</ele>
        <time>2020-10-28T12:03:16.203Z</time>
      </trkpt>
      <trkpt lat="48.06379" lon="6.85783">
        <ele>713</ele>
        <time>2020-10-28T12:03:17.203Z</time>
      </trkpt>
      <trkpt lat="48.06379" lon="6.85782">
        <ele>712</ele>
        <time>2020-10-28T12:03:18.203Z</time>
      </trkpt>
      <trkpt lat="48.0638" lon="6.8578">
        <ele>712</ele>
        <time>2020-10-28T12:03:19.203Z</time>
      </trkpt>
      <trkpt lat="48.0638" lon="6.85779">
        <ele>712</ele>
        <time>2020-10-28T12:03:20.203Z</time>
      </trkpt>
      <trkpt lat="48.0638" lon="6.85778">
        <ele>712</ele>
        <time>2020-10-28T12:03:21.203Z</time>
      </trkpt>
      <trkpt lat="48.0638" lon="6.85778">
        <ele>712</ele>
        <time>2020-10-28T12:03:22.203Z</time>
      </trkpt>
      <trkpt lat="48.06379" lon="6.85778">
        <ele>712</ele>
        <time>2020-10-28T12:03:23.204Z</time>
      </trkpt>
      <trkpt lat="48.06379" lon="6.85779">
        <ele>713</ele>
        <time>2020-10-28T12:03:24.204Z</time>
      </trkpt>
      <trkpt lat="48.06379" lon="6.85778">
        <ele>713</ele>
        <time>2020-10-28T12:03:25.203Z</time>
      </trkpt>
      <trkpt lat="48.06379" lon="6.85778">
        <ele>713</ele>
        <time>2020-10-28T12:03:26.204Z</time>
      </trkpt>
      <trkpt lat="48.0638" lon="6.85778">
        <ele>713</ele>
        <time>2020-10-28T12:03:27.204Z</time>
      </trkpt>
      <trkpt lat="48.0638" lon="6.85777">
        <ele>713</ele>
        <time>2020-10-28T12:03:28.203Z</time>
      </trkpt>
      <trkpt lat="48.06381" lon="6.85778">
        <ele>713</ele>
        <time>2020-10-28T12:03:29.203Z</time>
      </trkpt>
      <trkpt lat="48.06381" lon="6.85778">
        <ele>713</ele>
        <time>2020-10-28T12:03:30.204Z</time>
      </trkpt>
      <trkpt lat="48.06381" lon="6.85778">
        <ele>713</ele>
        <time>2020-10-28T12:03:31.203Z</time>
      </trkpt>
      <trkpt lat="48.06381" lon="6.85779">
        <ele>713</ele>
        <time>2020-10-28T12:03:32.203Z</time>
      </trkpt>
      <trkpt lat="48.06382" lon="6.8578">
        <ele>713</ele>
        <time>2020-10-28T12:03:33.203Z</time>
      </trkpt>
      <trkpt lat="48.06382" lon="6.8578">
        <ele>713</ele>
        <time>2020-10-28T12:03:34.203Z</time>
      </trkpt>
      <trkpt lat="48.06388" lon="6.85778">
        <ele>715</ele>
        <time>2020-10-28T12:03:35.204Z</time>
      </trkpt>
      <trkpt lat="48.0639" lon="6.85778">
        <ele>715</ele>
        <time>2020-10-28T12:03:36.203Z</time>
      </trkpt>
      <trkpt lat="48.06392" lon="6.85778">
        <ele>714</ele>
        <time>2020-10-28T12:03:37.203Z</time>
      </trkpt>
      <trkpt lat="48.06394" lon="6.85778">
        <ele>714</ele>
        <time>2020-10-28T12:03:38.204Z</time>
      </trkpt>
      <trkpt lat="48.06396" lon="6.85777">
        <ele>714</ele>
        <time>2020-10-28T12:03:39.203Z</time>
      </trkpt>
      <trkpt lat="48.06398" lon="6.85777">
        <ele>713</ele>
        <time>2020-10-28T12:03:40.204Z</time>
      </trkpt>
      <trkpt lat="48.064" lon="6.85777">
        <ele>713</ele>
        <time>2020-10-28T12:03:41.204Z</time>
      </trkpt>
      <trkpt lat="48.06403" lon="6.85777">
        <ele>712</ele>
        <time>2020-10-28T12:03:42.204Z</time>
      </trkpt>
      <trkpt lat="48.06404" lon="6.85777">
        <ele>712</ele>
        <time>2020-10-28T12:03:43.204Z</time>
      </trkpt>
      <trkpt lat="48.06406" lon="6.85777">
        <ele>711</ele>
        <time>2020-10-28T12:03:44.204Z</time>
      </trkpt>
      <trkpt lat="48.06409" lon="6.85778">
        <ele>710</ele>
        <time>2020-10-28T12:03:45.204Z</time>
      </trkpt>
      <trkpt lat="48.06411" lon="6.85778">
        <ele>710</ele>
        <time>2020-10-28T12:03:46.204Z</time>
      </trkpt>
      <trkpt lat="48.06412" lon="6.85779">
        <ele>709</ele>
        <time>2020-10-28T12:03:47.203Z</time>
      </trkpt>
      <trkpt lat="48.06414" lon="6.85779">
        <ele>709</ele>
        <time>2020-10-28T12:03:48.204Z</time>
      </trkpt>
      <trkpt lat="48.06415" lon="6.85779">
        <ele>709</ele>
        <time>2020-10-28T12:03:49.204Z</time>
      </trkpt>
      <trkpt lat="48.06417" lon="6.8578">
        <ele>708</ele>
        <time>2020-10-28T12:03:50.204Z</time>
      </trkpt>
      <trkpt lat="48.06418" lon="6.85781">
        <ele>708</ele>
        <time>2020-10-28T12:03:51.204Z</time>
      </trkpt>
      <trkpt lat="48.0642" lon="6.85781">
        <ele>708</ele>
        <time>2020-10-28T12:03:52.203Z</time>
      </trkpt>
      <trkpt lat="48.06421" lon="6.85781">
        <ele>708</ele>
        <time>2020-10-28T12:03:53.203Z</time>
      </trkpt>
      <trkpt lat="48.06422" lon="6.85782">
        <ele>708</ele>
        <time>2020-10-28T12:03:54.204Z</time>
      </trkpt>
      <trkpt lat="48.06423" lon="6.85782">
        <ele>708</ele>
        <time>2020-10-28T12:03:55.204Z</time>
      </trkpt>
      <trkpt lat="48.06424" lon="6.85783">
        <ele>708</ele>
        <time>2020-10-28T12:03:56.204Z</time>
      </trkpt>
      <trkpt lat="48.06425" lon="6.85784">
        <ele>708</ele>
        <time>2020-10-28T12:03:57.204Z</time>
      </trkpt>
      <trkpt lat="48.06426" lon="6.85784">
        <ele>709</ele>
        <time>2020-10-28T12:03:58.204Z</time>
      </trkpt>
      <trkpt lat="48.06427" lon="6.85785">
        <ele>709</ele>
        <time>2020-10-28T12:03:59.204Z</time>
      </trkpt>
      <trkpt lat="48.06428" lon="6.85785">
        <ele>710</ele>
        <time>2020-10-28T12:04:00.204Z</time>
      </trkpt>
      <trkpt lat="48.06428" lon="6.85786">
        <ele>710</ele>
        <time>2020-10-28T12:04:01.204Z</time>
      </trkpt>
      <trkpt lat="48.06429" lon="6.85787">
        <ele>711</ele>
        <time>2020-10-28T12:04:02.204Z</time>
      </trkpt>
      <trkpt lat="48.06428" lon="6.85787">
        <ele>711</ele>
        <time>2020-10-28T12:04:03.204Z</time>
      </trkpt>
      <trkpt lat="48.06428" lon="6.85787">
        <ele>710</ele>
        <time>2020-10-28T12:04:04.203Z</time>
      </trkpt>
      <trkpt lat="48.06429" lon="6.85787">
        <ele>709</ele>
        <time>2020-10-28T12:04:05.205Z</time>
      </trkpt>
      <trkpt lat="48.0643" lon="6.85787">
        <ele>709</ele>
        <time>2020-10-28T12:04:06.206Z</time>
      </trkpt>
      <trkpt lat="48.06432" lon="6.85787">
        <ele>708</ele>
        <time>2020-10-28T12:04:07.206Z</time>
      </trkpt>
      <trkpt lat="48.06432" lon="6.85787">
        <ele>708</ele>
        <time>2020-10-28T12:04:08.206Z</time>
      </trkpt>
      <trkpt lat="48.06433" lon="6.85788">
        <ele>708</ele>
        <time>2020-10-28T12:04:09.205Z</time>
      </trkpt>
      <trkpt lat="48.06434" lon="6.85788">
        <ele>708</ele>
        <time>2020-10-28T12:04:10.206Z</time>
      </trkpt>
      <trkpt lat="48.06436" lon="6.8579">
        <ele>708</ele>
        <time>2020-10-28T12:04:11.206Z</time>
      </trkpt>
      <trkpt lat="48.06437" lon="6.8579">
        <ele>708</ele>
        <time>2020-10-28T12:04:12.205Z</time>
      </trkpt>
      <trkpt lat="48.06438" lon="6.85791">
        <ele>708</ele>
        <time>2020-10-28T12:04:13.205Z</time>
      </trkpt>
      <trkpt lat="48.0644" lon="6.85792">
        <ele>708</ele>
        <time>2020-10-28T12:04:14.206Z</time>
      </trkpt>
      <trkpt lat="48.06441" lon="6.85793">
        <ele>708</ele>
        <time>2020-10-28T12:04:15.206Z</time>
      </trkpt>
      <trkpt lat="48.06443" lon="6.85794">
        <ele>708</ele>
        <time>2020-10-28T12:04:16.205Z</time>
      </trkpt>
      <trkpt lat="48.06445" lon="6.85794">
        <ele>708</ele>
        <time>2020-10-28T12:04:17.206Z</time>
      </trkpt>
      <trkpt lat="48.06447" lon="6.85795">
        <ele>709</ele>
        <time>2020-10-28T12:04:18.205Z</time>
      </trkpt>
      <trkpt lat="48.06449" lon="6.85795">
        <ele>709</ele>
        <time>2020-10-28T12:04:19.205Z</time>
      </trkpt>
      <trkpt lat="48.0645" lon="6.85796">
        <ele>709</ele>
        <time>2020-10-28T12:04:20.205Z</time>
      </trkpt>
      <trkpt lat="48.06451" lon="6.85796">
        <ele>709</ele>
        <time>2020-10-28T12:04:21.206Z</time>
      </trkpt>
      <trkpt lat="48.06453" lon="6.85796">
        <ele>709</ele>
        <time>2020-10-28T12:04:22.206Z</time>
      </trkpt>
      <trkpt lat="48.06453" lon="6.85797">
        <ele>710</ele>
        <time>2020-10-28T12:04:23.205Z</time>
      </trkpt>
      <trkpt lat="48.06454" lon="6.85797">
        <ele>710</ele>
        <time>2020-10-28T12:04:24.206Z</time>
      </trkpt>
      <trkpt lat="48.06454" lon="6.85797">
        <ele>710</ele>
        <time>2020-10-28T12:04:25.206Z</time>
      </trkpt>
      <trkpt lat="48.06454" lon="6.85798">
        <ele>710</ele>
        <time>2020-10-28T12:04:26.206Z</time>
      </trkpt>
      <trkpt lat="48.06455" lon="6.85798">
        <ele>711</ele>
        <time>2020-10-28T12:04:27.206Z</time>
      </trkpt>
      <trkpt lat="48.06456" lon="6.85799">
        <ele>712</ele>
        <time>2020-10-28T12:04:28.206Z</time>
      </trkpt>
      <trkpt lat="48.06458" lon="6.858">
        <ele>712</ele>
        <time>2020-10-28T12:04:29.206Z</time>
      </trkpt>
      <trkpt lat="48.0646" lon="6.858">
        <ele>711</ele>
        <time>2020-10-28T12:04:30.206Z</time>
      </trkpt>
      <trkpt lat="48.0646" lon="6.85801">
        <ele>711</ele>
        <time>2020-10-28T12:04:31.206Z</time>
      </trkpt>
      <trkpt lat="48.06463" lon="6.85803">
        <ele>711</ele>
        <time>2020-10-28T12:04:32.206Z</time>
      </trkpt>
      <trkpt lat="48.06465" lon="6.85805">
        <ele>711</ele>
        <time>2020-10-28T12:04:33.206Z</time>
      </trkpt>
      <trkpt lat="48.06466" lon="6.85806">
        <ele>711</ele>
        <time>2020-10-28T12:04:34.205Z</time>
      </trkpt>
      <trkpt lat="48.06467" lon="6.85807">
        <ele>710</ele>
        <time>2020-10-28T12:04:35.206Z</time>
      </trkpt>
      <trkpt lat="48.06468" lon="6.85807">
        <ele>710</ele>
        <time>2020-10-28T12:04:36.206Z</time>
      </trkpt>
      <trkpt lat="48.06468" lon="6.85807">
        <ele>710</ele>
        <time>2020-10-28T12:04:37.206Z</time>
      </trkpt>
      <trkpt lat="48.06468" lon="6.85806">
        <ele>709</ele>
        <time>2020-10-28T12:04:38.205Z</time>
      </trkpt>
      <trkpt lat="48.06469" lon="6.85806">
        <ele>709</ele>
        <time>2020-10-28T12:04:39.206Z</time>
      </trkpt>
      <trkpt lat="48.0647" lon="6.85806">
        <ele>709</ele>
        <time>2020-10-28T12:04:40.207Z</time>
      </trkpt>
      <trkpt lat="48.06471" lon="6.85806">
        <ele>708</ele>
        <time>2020-10-28T12:04:41.207Z</time>
      </trkpt>
      <trkpt lat="48.06471" lon="6.85805">
        <ele>708</ele>
        <time>2020-10-28T12:04:42.207Z</time>
      </trkpt>
      <trkpt lat="48.06472" lon="6.85805">
        <ele>708</ele>
        <time>2020-10-28T12:04:43.207Z</time>
      </trkpt>
      <trkpt lat="48.06472" lon="6.85804">
        <ele>707</ele>
        <time>2020-10-28T12:04:44.207Z</time>
      </trkpt>
      <trkpt lat="48.06473" lon="6.85804">
        <ele>707</ele>
        <time>2020-10-28T12:04:45.207Z</time>
      </trkpt>
      <trkpt lat="48.06474" lon="6.85805">
        <ele>706</ele>
        <time>2020-10-28T12:04:46.207Z</time>
      </trkpt>
      <trkpt lat="48.06475" lon="6.85806">
        <ele>706</ele>
        <time>2020-10-28T12:04:47.207Z</time>
      </trkpt>
      <trkpt lat="48.06475" lon="6.85806">
        <ele>705</ele>
        <time>2020-10-28T12:04:48.207Z</time>
      </trkpt>
      <trkpt lat="48.06476" lon="6.85807">
        <ele>705</ele>
        <time>2020-10-28T12:04:49.207Z</time>
      </trkpt>
      <trkpt lat="48.06477" lon="6.85806">
        <ele>703</ele>
        <time>2020-10-28T12:04:50.208Z</time>
      </trkpt>
      <trkpt lat="48.06478" lon="6.85805">
        <ele>703</ele>
        <time>2020-10-28T12:04:51.208Z</time>
      </trkpt>
      <trkpt lat="48.06479" lon="6.85804">
        <ele>702</ele>
        <time>2020-10-28T12:04:52.208Z</time>
      </trkpt>
      <trkpt lat="48.0648" lon="6.85803">
        <ele>701</ele>
        <time>2020-10-28T12:04:53.207Z</time>
      </trkpt>
      <trkpt lat="48.06481" lon="6.85801">
        <ele>700</ele>
        <time>2020-10-28T12:04:54.208Z</time>
      </trkpt>
      <trkpt lat="48.06481" lon="6.85801">
        <ele>700</ele>
        <time>2020-10-28T12:04:55.208Z</time>
      </trkpt>
      <trkpt lat="48.06483" lon="6.85801">
        <ele>700</ele>
        <time>2020-10-28T12:04:56.208Z</time>
      </trkpt>
      <trkpt lat="48.06483" lon="6.858">
        <ele>700</ele>
        <time>2020-10-28T12:04:57.207Z</time>
      </trkpt>
      <trkpt lat="48.06484" lon="6.858">
        <ele>700</ele>
        <time>2020-10-28T12:04:58.208Z</time>
      </trkpt>
      <trkpt lat="48.06484" lon="6.85799">
        <ele>701</ele>
        <time>2020-10-28T12:04:59.208Z</time>
      </trkpt>
      <trkpt lat="48.06484" lon="6.85798">
        <ele>701</ele>
        <time>2020-10-28T12:05:00.208Z</time>
      </trkpt>
      <trkpt lat="48.06485" lon="6.85798">
        <ele>701</ele>
        <time>2020-10-28T12:05:01.208Z</time>
      </trkpt>
      <trkpt lat="48.06485" lon="6.85797">
        <ele>702</ele>
        <time>2020-10-28T12:05:02.207Z</time>
      </trkpt>
      <trkpt lat="48.06486" lon="6.85797">
        <ele>702</ele>
        <time>2020-10-28T12:05:03.208Z</time>
      </trkpt>
      <trkpt lat="48.06487" lon="6.85796">
        <ele>702</ele>
        <time>2020-10-28T12:05:04.208Z</time>
      </trkpt>
      <trkpt lat="48.06487" lon="6.85795">
        <ele>702</ele>
        <time>2020-10-28T12:05:05.207Z</time>
      </trkpt>
      <trkpt lat="48.06487" lon="6.85795">
        <ele>703</ele>
        <time>2020-10-28T12:05:06.207Z</time>
      </trkpt>
      <trkpt lat="48.06488" lon="6.85794">
        <ele>703</ele>
        <time>2020-10-28T12:05:07.207Z</time>
      </trkpt>
      <trkpt lat="48.06489" lon="6.85794">
        <ele>703</ele>
        <time>2020-10-28T12:05:08.208Z</time>
      </trkpt>
      <trkpt lat="48.06491" lon="6.85794">
        <ele>702</ele>
        <time>2020-10-28T12:05:09.207Z</time>
      </trkpt>
      <trkpt lat="48.06492" lon="6.85794">
        <ele>702</ele>
        <time>2020-10-28T12:05:10.208Z</time>
      </trkpt>
      <trkpt lat="48.06494" lon="6.85795">
        <ele>701</ele>
        <time>2020-10-28T12:05:11.208Z</time>
      </trkpt>
      <trkpt lat="48.06496" lon="6.85796">
        <ele>701</ele>
        <time>2020-10-28T12:05:12.208Z</time>
      </trkpt>
      <trkpt lat="48.06498" lon="6.85797">
        <ele>701</ele>
        <time>2020-10-28T12:05:13.207Z</time>
      </trkpt>
      <trkpt lat="48.06498" lon="6.85797">
        <ele>700</ele>
        <time>2020-10-28T12:05:14.208Z</time>
      </trkpt>
      <trkpt lat="48.065" lon="6.85796">
        <ele>699</ele>
        <time>2020-10-28T12:05:15.208Z</time>
      </trkpt>
      <trkpt lat="48.06501" lon="6.85796">
        <ele>698</ele>
        <time>2020-10-28T12:05:16.208Z</time>
      </trkpt>
      <trkpt lat="48.06502" lon="6.85795">
        <ele>697</ele>
        <time>2020-10-28T12:05:17.207Z</time>
      </trkpt>
      <trkpt lat="48.06502" lon="6.85793">
        <ele>696</ele>
        <time>2020-10-28T12:05:18.207Z</time>
      </trkpt>
      <trkpt lat="48.06503" lon="6.85792">
        <ele>696</ele>
        <time>2020-10-28T12:05:19.208Z</time>
      </trkpt>
      <trkpt lat="48.06504" lon="6.85791">
        <ele>695</ele>
        <time>2020-10-28T12:05:20.208Z</time>
      </trkpt>
      <trkpt lat="48.06505" lon="6.8579">
        <ele>694</ele>
        <time>2020-10-28T12:05:21.208Z</time>
      </trkpt>
      <trkpt lat="48.06506" lon="6.85788">
        <ele>694</ele>
        <time>2020-10-28T12:05:22.208Z</time>
      </trkpt>
      <trkpt lat="48.06506" lon="6.85787">
        <ele>693</ele>
        <time>2020-10-28T12:05:23.207Z</time>
      </trkpt>
      <trkpt lat="48.06507" lon="6.85786">
        <ele>693</ele>
        <time>2020-10-28T12:05:24.208Z</time>
      </trkpt>
      <trkpt lat="48.06508" lon="6.85785">
        <ele>693</ele>
        <time>2020-10-28T12:05:25.208Z</time>
      </trkpt>
      <trkpt lat="48.06508" lon="6.85786">
        <ele>692</ele>
        <time>2020-10-28T12:05:26.208Z</time>
      </trkpt>
      <trkpt lat="48.06509" lon="6.85786">
        <ele>692</ele>
        <time>2020-10-28T12:05:27.207Z</time>
      </trkpt>
      <trkpt lat="48.06509" lon="6.85786">
        <ele>692</ele>
        <time>2020-10-28T12:05:28.208Z</time>
      </trkpt>
      <trkpt lat="48.06509" lon="6.85786">
        <ele>691</ele>
        <time>2020-10-28T12:05:29.208Z</time>
      </trkpt>
      <trkpt lat="48.0651" lon="6.85786">
        <ele>691</ele>
        <time>2020-10-28T12:05:30.208Z</time>
      </trkpt>
      <trkpt lat="48.06511" lon="6.85786">
        <ele>690</ele>
        <time>2020-10-28T12:05:31.208Z</time>
      </trkpt>
      <trkpt lat="48.06512" lon="6.85786">
        <ele>690</ele>
        <time>2020-10-28T12:05:32.207Z</time>
      </trkpt>
      <trkpt lat="48.06513" lon="6.85786">
        <ele>689</ele>
        <time>2020-10-28T12:05:33.208Z</time>
      </trkpt>
      <trkpt lat="48.06514" lon="6.85785">
        <ele>689</ele>
        <time>2020-10-28T12:05:34.208Z</time>
      </trkpt>
      <trkpt lat="48.06515" lon="6.85785">
        <ele>689</ele>
        <time>2020-10-28T12:05:35.208Z</time>
      </trkpt>
      <trkpt lat="48.06516" lon="6.85785">
        <ele>688</ele>
        <time>2020-10-28T12:05:36.207Z</time>
      </trkpt>
      <trkpt lat="48.06518" lon="6.85784">
        <ele>688</ele>
        <time>2020-10-28T12:05:37.208Z</time>
      </trkpt>
      <trkpt lat="48.06519" lon="6.85783">
        <ele>688</ele>
        <time>2020-10-28T12:05:38.207Z</time>
      </trkpt>
      <trkpt lat="48.06519" lon="6.85783">
        <ele>688</ele>
        <time>2020-10-28T12:05:39.208Z</time>
      </trkpt>
      <trkpt lat="48.06519" lon="6.85782">
        <ele>688</ele>
        <time>2020-10-28T12:05:40.208Z</time>
      </trkpt>
      <trkpt lat="48.0652" lon="6.85781">
        <ele>687</ele>
        <time>2020-10-28T12:05:41.207Z</time>
      </trkpt>
      <trkpt lat="48.06521" lon="6.85781">
        <ele>687</ele>
        <time>2020-10-28T12:05:42.208Z</time>
      </trkpt>
      <trkpt lat="48.06523" lon="6.85782">
        <ele>687</ele>
        <time>2020-10-28T12:05:43.208Z</time>
      </trkpt>
      <trkpt lat="48.06524" lon="6.85782">
        <ele>686</ele>
        <time>2020-10-28T12:05:44.208Z</time>
      </trkpt>
      <trkpt lat="48.06525" lon="6.85783">
        <ele>686</ele>
        <time>2020-10-28T12:05:45.208Z</time>
      </trkpt>
      <trkpt lat="48.06527" lon="6.85784">
        <ele>685</ele>
        <time>2020-10-28T12:05:46.208Z</time>
      </trkpt>
      <trkpt lat="48.06528" lon="6.85785">
        <ele>685</ele>
        <time>2020-10-28T12:05:47.208Z</time>
      </trkpt>
      <trkpt lat="48.06528" lon="6.85786">
        <ele>685</ele>
        <time>2020-10-28T12:05:48.208Z</time>
      </trkpt>
      <trkpt lat="48.06529" lon="6.85787">
        <ele>686</ele>
        <time>2020-10-28T12:05:49.208Z</time>
      </trkpt>
      <trkpt lat="48.0653" lon="6.85788">
        <ele>686</ele>
        <time>2020-10-28T12:05:50.208Z</time>
      </trkpt>
      <trkpt lat="48.06532" lon="6.85789">
        <ele>686</ele>
        <time>2020-10-28T12:05:51.207Z</time>
      </trkpt>
      <trkpt lat="48.06533" lon="6.8579">
        <ele>687</ele>
        <time>2020-10-28T12:05:52.208Z</time>
      </trkpt>
      <trkpt lat="48.06534" lon="6.85791">
        <ele>687</ele>
        <time>2020-10-28T12:05:53.208Z</time>
      </trkpt>
      <trkpt lat="48.06535" lon="6.85792">
        <ele>687</ele>
        <time>2020-10-28T12:05:54.207Z</time>
      </trkpt>
      <trkpt lat="48.06535" lon="6.85793">
        <ele>687</ele>
        <time>2020-10-28T12:05:55.207Z</time>
      </trkpt>
      <trkpt lat="48.06536" lon="6.85794">
        <ele>687</ele>
        <time>2020-10-28T12:05:56.207Z</time>
      </trkpt>
      <trkpt lat="48.06537" lon="6.85795">
        <ele>687</ele>
        <time>2020-10-28T12:05:57.207Z</time>
      </trkpt>
      <trkpt lat="48.06538" lon="6.85794">
        <ele>687</ele>
        <time>2020-10-28T12:05:58.207Z</time>
      </trkpt>
      <trkpt lat="48.06539" lon="6.85793">
        <ele>687</ele>
        <time>2020-10-28T12:05:59.208Z</time>
      </trkpt>
      <trkpt lat="48.06539" lon="6.85792">
        <ele>687</ele>
        <time>2020-10-28T12:06:00.207Z</time>
      </trkpt>
      <trkpt lat="48.06538" lon="6.85791">
        <ele>687</ele>
        <time>2020-10-28T12:06:01.208Z</time>
      </trkpt>
      <trkpt lat="48.06538" lon="6.85791">
        <ele>687</ele>
        <time>2020-10-28T12:06:02.207Z</time>
      </trkpt>
      <trkpt lat="48.06537" lon="6.8579">
        <ele>687</ele>
        <time>2020-10-28T12:06:03.207Z</time>
      </trkpt>
      <trkpt lat="48.06537" lon="6.85789">
        <ele>687</ele>
        <time>2020-10-28T12:06:04.208Z</time>
      </trkpt>
      <trkpt lat="48.06536" lon="6.85787">
        <ele>687</ele>
        <time>2020-10-28T12:06:05.207Z</time>
      </trkpt>
      <trkpt lat="48.06536" lon="6.85786">
        <ele>686</ele>
        <time>2020-10-28T12:06:06.207Z</time>
      </trkpt>
      <trkpt lat="48.06536" lon="6.85785">
        <ele>686</ele>
        <time>2020-10-28T12:06:07.207Z</time>
      </trkpt>
      <trkpt lat="48.06537" lon="6.85784">
        <ele>685</ele>
        <time>2020-10-28T12:06:08.207Z</time>
      </trkpt>
      <trkpt lat="48.06537" lon="6.85783">
        <ele>685</ele>
        <time>2020-10-28T12:06:09.208Z</time>
      </trkpt>
      <trkpt lat="48.06537" lon="6.85782">
        <ele>685</ele>
        <time>2020-10-28T12:06:10.208Z</time>
      </trkpt>
      <trkpt lat="48.06538" lon="6.85781">
        <ele>684</ele>
        <time>2020-10-28T12:06:11.207Z</time>
      </trkpt>
      <trkpt lat="48.06539" lon="6.8578">
        <ele>684</ele>
        <time>2020-10-28T12:06:12.207Z</time>
      </trkpt>
      <trkpt lat="48.0654" lon="6.85779">
        <ele>683</ele>
        <time>2020-10-28T12:06:13.208Z</time>
      </trkpt>
      <trkpt lat="48.0654" lon="6.85778">
        <ele>683</ele>
        <time>2020-10-28T12:06:14.207Z</time>
      </trkpt>
      <trkpt lat="48.06541" lon="6.85778">
        <ele>683</ele>
        <time>2020-10-28T12:06:15.207Z</time>
      </trkpt>
      <trkpt lat="48.06542" lon="6.85777">
        <ele>682</ele>
        <time>2020-10-28T12:06:16.208Z</time>
      </trkpt>
      <trkpt lat="48.06544" lon="6.85778">
        <ele>682</ele>
        <time>2020-10-28T12:06:17.208Z</time>
      </trkpt>
      <trkpt lat="48.06545" lon="6.85778">
        <ele>682</ele>
        <time>2020-10-28T12:06:18.208Z</time>
      </trkpt>
      <trkpt lat="48.06546" lon="6.85778">
        <ele>682</ele>
        <time>2020-10-28T12:06:19.207Z</time>
      </trkpt>
      <trkpt lat="48.06547" lon="6.85779">
        <ele>681</ele>
        <time>2020-10-28T12:06:20.208Z</time>
      </trkpt>
      <trkpt lat="48.06548" lon="6.85779">
        <ele>681</ele>
        <time>2020-10-28T12:06:21.207Z</time>
      </trkpt>
      <trkpt lat="48.0655" lon="6.8578">
        <ele>681</ele>
        <time>2020-10-28T12:06:22.208Z</time>
      </trkpt>
      <trkpt lat="48.0655" lon="6.8578">
        <ele>680</ele>
        <time>2020-10-28T12:06:23.208Z</time>
      </trkpt>
      <trkpt lat="48.0655" lon="6.85781">
        <ele>680</ele>
        <time>2020-10-28T12:06:24.207Z</time>
      </trkpt>
      <trkpt lat="48.06551" lon="6.85782">
        <ele>677</ele>
        <time>2020-10-28T12:06:25.209Z</time>
      </trkpt>
      <trkpt lat="48.06551" lon="6.85782">
        <ele>677</ele>
        <time>2020-10-28T12:06:26.209Z</time>
      </trkpt>
      <trkpt lat="48.06552" lon="6.85783">
        <ele>676</ele>
        <time>2020-10-28T12:06:27.209Z</time>
      </trkpt>
      <trkpt lat="48.06553" lon="6.85783">
        <ele>676</ele>
        <time>2020-10-28T12:06:28.209Z</time>
      </trkpt>
      <trkpt lat="48.06554" lon="6.85783">
        <ele>676</ele>
        <time>2020-10-28T12:06:29.208Z</time>
      </trkpt>
      <trkpt lat="48.06553" lon="6.85783">
        <ele>675</ele>
        <time>2020-10-28T12:06:30.209Z</time>
      </trkpt>
      <trkpt lat="48.06553" lon="6.85783">
        <ele>674</ele>
        <time>2020-10-28T12:06:31.208Z</time>
      </trkpt>
      <trkpt lat="48.06553" lon="6.85782">
        <ele>673</ele>
        <time>2020-10-28T12:06:32.209Z</time>
      </trkpt>
      <trkpt lat="48.06552" lon="6.85781">
        <ele>673</ele>
        <time>2020-10-28T12:06:33.209Z</time>
      </trkpt>
      <trkpt lat="48.06551" lon="6.85781">
        <ele>672</ele>
        <time>2020-10-28T12:06:34.209Z</time>
      </trkpt>
      <trkpt lat="48.0655" lon="6.8578">
        <ele>672</ele>
        <time>2020-10-28T12:06:35.209Z</time>
      </trkpt>
      <trkpt lat="48.06549" lon="6.85779">
        <ele>671</ele>
        <time>2020-10-28T12:06:36.209Z</time>
      </trkpt>
      <trkpt lat="48.06549" lon="6.85779">
        <ele>671</ele>
        <time>2020-10-28T12:06:37.209Z</time>
      </trkpt>
      <trkpt lat="48.06548" lon="6.85778">
        <ele>671</ele>
        <time>2020-10-28T12:06:38.209Z</time>
      </trkpt>
      <trkpt lat="48.06547" lon="6.85777">
        <ele>671</ele>
        <time>2020-10-28T12:06:39.209Z</time>
      </trkpt>
      <trkpt lat="48.06547" lon="6.85777">
        <ele>671</ele>
        <time>2020-10-28T12:06:40.209Z</time>
      </trkpt>
      <trkpt lat="48.06547" lon="6.85776">
        <ele>671</ele>
        <time>2020-10-28T12:06:41.209Z</time>
      </trkpt>
      <trkpt lat="48.06547" lon="6.85774">
        <ele>671</ele>
        <time>2020-10-28T12:06:42.208Z</time>
      </trkpt>
      <trkpt lat="48.06547" lon="6.85773">
        <ele>671</ele>
        <time>2020-10-28T12:06:43.209Z</time>
      </trkpt>
      <trkpt lat="48.06546" lon="6.85771">
        <ele>672</ele>
        <time>2020-10-28T12:06:44.209Z</time>
      </trkpt>
      <trkpt lat="48.06546" lon="6.8577">
        <ele>672</ele>
        <time>2020-10-28T12:06:45.209Z</time>
      </trkpt>
      <trkpt lat="48.06546" lon="6.85769">
        <ele>672</ele>
        <time>2020-10-28T12:06:46.209Z</time>
      </trkpt>
      <trkpt lat="48.06547" lon="6.85768">
        <ele>672</ele>
        <time>2020-10-28T12:06:47.209Z</time>
      </trkpt>
      <trkpt lat="48.06547" lon="6.85768">
        <ele>672</ele>
        <time>2020-10-28T12:06:48.209Z</time>
      </trkpt>
      <trkpt lat="48.06548" lon="6.85768">
        <ele>672</ele>
        <time>2020-10-28T12:06:49.209Z</time>
      </trkpt>
      <trkpt lat="48.06548" lon="6.85768">
        <ele>671</ele>
        <time>2020-10-28T12:06:50.209Z</time>
      </trkpt>
      <trkpt lat="48.06548" lon="6.85767">
        <ele>670</ele>
        <time>2020-10-28T12:06:51.209Z</time>
      </trkpt>
      <trkpt lat="48.06548" lon="6.85767">
        <ele>670</ele>
        <time>2020-10-28T12:06:52.209Z</time>
      </trkpt>
      <trkpt lat="48.06548" lon="6.85766">
        <ele>669</ele>
        <time>2020-10-28T12:06:53.208Z</time>
      </trkpt>
      <trkpt lat="48.06548" lon="6.85765">
        <ele>669</ele>
        <time>2020-10-28T12:06:54.209Z</time>
      </trkpt>
      <trkpt lat="48.06547" lon="6.85764">
        <ele>670</ele>
        <time>2020-10-28T12:06:55.208Z</time>
      </trkpt>
      <trkpt lat="48.06547" lon="6.85764">
        <ele>670</ele>
        <time>2020-10-28T12:06:56.209Z</time>
      </trkpt>
      <trkpt lat="48.06548" lon="6.85763">
        <ele>671</ele>
        <time>2020-10-28T12:06:57.209Z</time>
      </trkpt>
      <trkpt lat="48.06549" lon="6.85762">
        <ele>671</ele>
        <time>2020-10-28T12:06:58.209Z</time>
      </trkpt>
      <trkpt lat="48.0655" lon="6.85761">
        <ele>672</ele>
        <time>2020-10-28T12:06:59.209Z</time>
      </trkpt>
      <trkpt lat="48.0655" lon="6.8576">
        <ele>672</ele>
        <time>2020-10-28T12:07:00.209Z</time>
      </trkpt>
      <trkpt lat="48.0655" lon="6.8576">
        <ele>672</ele>
        <time>2020-10-28T12:07:01.209Z</time>
      </trkpt>
      <trkpt lat="48.06549" lon="6.85759">
        <ele>673</ele>
        <time>2020-10-28T12:07:02.209Z</time>
      </trkpt>
      <trkpt lat="48.06549" lon="6.85759">
        <ele>673</ele>
        <time>2020-10-28T12:07:03.209Z</time>
      </trkpt>
      <trkpt lat="48.06549" lon="6.85759">
        <ele>673</ele>
        <time>2020-10-28T12:07:04.209Z</time>
      </trkpt>
      <trkpt lat="48.0655" lon="6.85759">
        <ele>674</ele>
        <time>2020-10-28T12:07:05.209Z</time>
      </trkpt>
      <trkpt lat="48.06551" lon="6.85759">
        <ele>674</ele>
        <time>2020-10-28T12:07:06.209Z</time>
      </trkpt>
      <trkpt lat="48.06553" lon="6.8576">
        <ele>673</ele>
        <time>2020-10-28T12:07:07.209Z</time>
      </trkpt>
      <trkpt lat="48.06554" lon="6.8576">
        <ele>673</ele>
        <time>2020-10-28T12:07:08.209Z</time>
      </trkpt>
      <trkpt lat="48.06555" lon="6.85761">
        <ele>673</ele>
        <time>2020-10-28T12:07:09.209Z</time>
      </trkpt>
      <trkpt lat="48.06556" lon="6.85762">
        <ele>673</ele>
        <time>2020-10-28T12:07:10.209Z</time>
      </trkpt>
      <trkpt lat="48.06557" lon="6.85762">
        <ele>673</ele>
        <time>2020-10-28T12:07:11.209Z</time>
      </trkpt>
      <trkpt lat="48.06557" lon="6.85762">
        <ele>673</ele>
        <time>2020-10-28T12:07:12.209Z</time>
      </trkpt>
      <trkpt lat="48.06558" lon="6.85763">
        <ele>673</ele>
        <time>2020-10-28T12:07:13.209Z</time>
      </trkpt>
      <trkpt lat="48.06559" lon="6.85763">
        <ele>673</ele>
        <time>2020-10-28T12:07:14.209Z</time>
      </trkpt>
      <trkpt lat="48.06559" lon="6.85763">
        <ele>673</ele>
        <time>2020-10-28T12:07:15.208Z</time>
      </trkpt>
      <trkpt lat="48.0656" lon="6.85764">
        <ele>673</ele>
        <time>2020-10-28T12:07:16.209Z</time>
      </trkpt>
      <trkpt lat="48.0656" lon="6.85764">
        <ele>673</ele>
        <time>2020-10-28T12:07:17.209Z</time>
      </trkpt>
      <trkpt lat="48.0656" lon="6.85764">
        <ele>673</ele>
        <time>2020-10-28T12:07:18.209Z</time>
      </trkpt>
      <trkpt lat="48.06561" lon="6.85765">
        <ele>673</ele>
        <time>2020-10-28T12:07:19.209Z</time>
      </trkpt>
      <trkpt lat="48.06561" lon="6.85765">
        <ele>673</ele>
        <time>2020-10-28T12:07:20.209Z</time>
      </trkpt>
      <trkpt lat="48.06561" lon="6.85765">
        <ele>672</ele>
        <time>2020-10-28T12:07:21.209Z</time>
      </trkpt>
      <trkpt lat="48.06562" lon="6.85762">
        <ele>673</ele>
        <time>2020-10-28T12:07:22.209Z</time>
      </trkpt>
      <trkpt lat="48.06563" lon="6.85763">
        <ele>673</ele>
        <time>2020-10-28T12:07:23.209Z</time>
      </trkpt>
      <trkpt lat="48.06564" lon="6.85763">
        <ele>673</ele>
        <time>2020-10-28T12:07:24.208Z</time>
      </trkpt>
      <trkpt lat="48.06564" lon="6.85763">
        <ele>673</ele>
        <time>2020-10-28T12:07:25.209Z</time>
      </trkpt>
      <trkpt lat="48.06558" lon="6.85762">
        <ele>668</ele>
        <time>2020-10-28T12:07:26.209Z</time>
      </trkpt>
      <trkpt lat="48.06557" lon="6.85761">
        <ele>668</ele>
        <time>2020-10-28T12:07:27.208Z</time>
      </trkpt>
      <trkpt lat="48.06556" lon="6.8576">
        <ele>668</ele>
        <time>2020-10-28T12:07:28.209Z</time>
      </trkpt>
      <trkpt lat="48.06556" lon="6.85758">
        <ele>668</ele>
        <time>2020-10-28T12:07:29.208Z</time>
      </trkpt>
      <trkpt lat="48.06556" lon="6.85757">
        <ele>668</ele>
        <time>2020-10-28T12:07:30.209Z</time>
      </trkpt>
      <trkpt lat="48.06555" lon="6.85755">
        <ele>668</ele>
        <time>2020-10-28T12:07:31.208Z</time>
      </trkpt>
      <trkpt lat="48.06555" lon="6.85753">
        <ele>668</ele>
        <time>2020-10-28T12:07:32.208Z</time>
      </trkpt>
      <trkpt lat="48.06555" lon="6.85752">
        <ele>668</ele>
        <time>2020-10-28T12:07:33.208Z</time>
      </trkpt>
      <trkpt lat="48.06556" lon="6.85751">
        <ele>668</ele>
        <time>2020-10-28T12:07:34.208Z</time>
      </trkpt>
      <trkpt lat="48.06557" lon="6.85749">
        <ele>668</ele>
        <time>2020-10-28T12:07:35.208Z</time>
      </trkpt>
      <trkpt lat="48.06558" lon="6.85748">
        <ele>668</ele>
        <time>2020-10-28T12:07:36.208Z</time>
      </trkpt>
      <trkpt lat="48.06559" lon="6.85747">
        <ele>669</ele>
        <time>2020-10-28T12:07:37.208Z</time>
      </trkpt>
      <trkpt lat="48.06559" lon="6.85746">
        <ele>669</ele>
        <time>2020-10-28T12:07:38.208Z</time>
      </trkpt>
      <trkpt lat="48.06558" lon="6.85745">
        <ele>669</ele>
        <time>2020-10-28T12:07:39.208Z</time>
      </trkpt>
      <trkpt lat="48.06559" lon="6.85745">
        <ele>669</ele>
        <time>2020-10-28T12:07:40.209Z</time>
      </trkpt>
      <trkpt lat="48.06559" lon="6.85743">
        <ele>669</ele>
        <time>2020-10-28T12:07:41.209Z</time>
      </trkpt>
      <trkpt lat="48.06559" lon="6.85741">
        <ele>668</ele>
        <time>2020-10-28T12:07:42.208Z</time>
      </trkpt>
      <trkpt lat="48.0656" lon="6.8574">
        <ele>668</ele>
        <time>2020-10-28T12:07:43.208Z</time>
      </trkpt>
      <trkpt lat="48.06561" lon="6.85738">
        <ele>668</ele>
        <time>2020-10-28T12:07:44.208Z</time>
      </trkpt>
      <trkpt lat="48.06563" lon="6.85736">
        <ele>667</ele>
        <time>2020-10-28T12:07:45.208Z</time>
      </trkpt>
      <trkpt lat="48.06565" lon="6.85735">
        <ele>667</ele>
        <time>2020-10-28T12:07:46.208Z</time>
      </trkpt>
      <trkpt lat="48.06567" lon="6.85734">
        <ele>668</ele>
        <time>2020-10-28T12:07:47.208Z</time>
      </trkpt>
      <trkpt lat="48.06569" lon="6.85733">
        <ele>668</ele>
        <time>2020-10-28T12:07:48.208Z</time>
      </trkpt>
      <trkpt lat="48.0657" lon="6.85731">
        <ele>668</ele>
        <time>2020-10-28T12:07:49.209Z</time>
      </trkpt>
      <trkpt lat="48.06572" lon="6.85731">
        <ele>669</ele>
        <time>2020-10-28T12:07:50.209Z</time>
      </trkpt>
      <trkpt lat="48.06573" lon="6.85729">
        <ele>670</ele>
        <time>2020-10-28T12:07:51.208Z</time>
      </trkpt>
      <trkpt lat="48.06574" lon="6.85728">
        <ele>670</ele>
        <time>2020-10-28T12:07:52.208Z</time>
      </trkpt>
      <trkpt lat="48.06574" lon="6.85728">
        <ele>670</ele>
        <time>2020-10-28T12:07:53.208Z</time>
      </trkpt>
      <trkpt lat="48.06575" lon="6.85727">
        <ele>670</ele>
        <time>2020-10-28T12:07:54.209Z</time>
      </trkpt>
      <trkpt lat="48.06575" lon="6.85727">
        <ele>669</ele>
        <time>2020-10-28T12:07:55.209Z</time>
      </trkpt>
      <trkpt lat="48.06576" lon="6.85726">
        <ele>669</ele>
        <time>2020-10-28T12:07:56.208Z</time>
      </trkpt>
      <trkpt lat="48.06576" lon="6.85725">
        <ele>669</ele>
        <time>2020-10-28T12:07:57.208Z</time>
      </trkpt>
      <trkpt lat="48.06577" lon="6.85724">
        <ele>669</ele>
        <time>2020-10-28T12:07:58.208Z</time>
      </trkpt>
      <trkpt lat="48.06577" lon="6.85723">
        <ele>669</ele>
        <time>2020-10-28T12:07:59.208Z</time>
      </trkpt>
      <trkpt lat="48.06576" lon="6.85722">
        <ele>669</ele>
        <time>2020-10-28T12:08:00.209Z</time>
      </trkpt>
      <trkpt lat="48.06576" lon="6.85721">
        <ele>669</ele>
        <time>2020-10-28T12:08:01.208Z</time>
      </trkpt>
      <trkpt lat="48.06575" lon="6.85719">
        <ele>669</ele>
        <time>2020-10-28T12:08:02.209Z</time>
      </trkpt>
      <trkpt lat="48.06575" lon="6.85718">
        <ele>669</ele>
        <time>2020-10-28T12:08:03.208Z</time>
      </trkpt>
      <trkpt lat="48.06574" lon="6.85717">
        <ele>668</ele>
        <time>2020-10-28T12:08:04.208Z</time>
      </trkpt>
      <trkpt lat="48.06573" lon="6.85716">
        <ele>669</ele>
        <time>2020-10-28T12:08:05.208Z</time>
      </trkpt>
      <trkpt lat="48.06572" lon="6.85715">
        <ele>669</ele>
        <time>2020-10-28T12:08:06.208Z</time>
      </trkpt>
      <trkpt lat="48.06571" lon="6.85714">
        <ele>669</ele>
        <time>2020-10-28T12:08:07.208Z</time>
      </trkpt>
      <trkpt lat="48.0657" lon="6.85712">
        <ele>670</ele>
        <time>2020-10-28T12:08:08.208Z</time>
      </trkpt>
      <trkpt lat="48.0657" lon="6.85711">
        <ele>670</ele>
        <time>2020-10-28T12:08:09.208Z</time>
      </trkpt>
      <trkpt lat="48.0657" lon="6.85709">
        <ele>670</ele>
        <time>2020-10-28T12:08:10.208Z</time>
      </trkpt>
      <trkpt lat="48.06569" lon="6.85708">
        <ele>669</ele>
        <time>2020-10-28T12:08:11.208Z</time>
      </trkpt>
      <trkpt lat="48.06569" lon="6.85706">
        <ele>669</ele>
        <time>2020-10-28T12:08:12.208Z</time>
      </trkpt>
      <trkpt lat="48.06569" lon="6.85705">
        <ele>668</ele>
        <time>2020-10-28T12:08:13.208Z</time>
      </trkpt>
      <trkpt lat="48.06569" lon="6.85703">
        <ele>667</ele>
        <time>2020-10-28T12:08:14.208Z</time>
      </trkpt>
      <trkpt lat="48.06569" lon="6.85701">
        <ele>666</ele>
        <time>2020-10-28T12:08:15.208Z</time>
      </trkpt>
      <trkpt lat="48.0657" lon="6.85699">
        <ele>665</ele>
        <time>2020-10-28T12:08:16.208Z</time>
      </trkpt>
      <trkpt lat="48.0657" lon="6.85698">
        <ele>665</ele>
        <time>2020-10-28T12:08:17.209Z</time>
      </trkpt>
      <trkpt lat="48.0657" lon="6.85695">
        <ele>665</ele>
        <time>2020-10-28T12:08:18.209Z</time>
      </trkpt>
      <trkpt lat="48.06569" lon="6.85693">
        <ele>665</ele>
        <time>2020-10-28T12:08:19.209Z</time>
      </trkpt>
      <trkpt lat="48.06568" lon="6.8569">
        <ele>665</ele>
        <time>2020-10-28T12:08:20.209Z</time>
      </trkpt>
      <trkpt lat="48.06568" lon="6.85687">
        <ele>666</ele>
        <time>2020-10-28T12:08:21.209Z</time>
      </trkpt>
      <trkpt lat="48.06568" lon="6.85685">
        <ele>666</ele>
        <time>2020-10-28T12:08:22.209Z</time>
      </trkpt>
      <trkpt lat="48.06568" lon="6.85683">
        <ele>667</ele>
        <time>2020-10-28T12:08:23.209Z</time>
      </trkpt>
      <trkpt lat="48.06568" lon="6.85681">
        <ele>667</ele>
        <time>2020-10-28T12:08:24.209Z</time>
      </trkpt>
      <trkpt lat="48.06568" lon="6.85679">
        <ele>667</ele>
        <time>2020-10-28T12:08:25.208Z</time>
      </trkpt>
      <trkpt lat="48.06568" lon="6.85677">
        <ele>667</ele>
        <time>2020-10-28T12:08:26.209Z</time>
      </trkpt>
      <trkpt lat="48.06567" lon="6.85675">
        <ele>666</ele>
        <time>2020-10-28T12:08:27.208Z</time>
      </trkpt>
      <trkpt lat="48.06567" lon="6.85673">
        <ele>665</ele>
        <time>2020-10-28T12:08:28.209Z</time>
      </trkpt>
      <trkpt lat="48.06567" lon="6.85671">
        <ele>665</ele>
        <time>2020-10-28T12:08:29.209Z</time>
      </trkpt>
      <trkpt lat="48.06567" lon="6.85669">
        <ele>664</ele>
        <time>2020-10-28T12:08:30.209Z</time>
      </trkpt>
      <trkpt lat="48.06567" lon="6.85666">
        <ele>664</ele>
        <time>2020-10-28T12:08:31.209Z</time>
      </trkpt>
      <trkpt lat="48.06567" lon="6.85664">
        <ele>663</ele>
        <time>2020-10-28T12:08:32.209Z</time>
      </trkpt>
      <trkpt lat="48.06566" lon="6.85663">
        <ele>663</ele>
        <time>2020-10-28T12:08:33.208Z</time>
      </trkpt>
      <trkpt lat="48.06567" lon="6.85662">
        <ele>663</ele>
        <time>2020-10-28T12:08:34.209Z</time>
      </trkpt>
      <trkpt lat="48.06567" lon="6.85661">
        <ele>664</ele>
        <time>2020-10-28T12:08:35.209Z</time>
      </trkpt>
      <trkpt lat="48.06566" lon="6.8566">
        <ele>664</ele>
        <time>2020-10-28T12:08:36.209Z</time>
      </trkpt>
      <trkpt lat="48.06566" lon="6.8566">
        <ele>664</ele>
        <time>2020-10-28T12:08:37.209Z</time>
      </trkpt>
      <trkpt lat="48.06567" lon="6.8566">
        <ele>665</ele>
        <time>2020-10-28T12:08:38.210Z</time>
      </trkpt>
      <trkpt lat="48.06567" lon="6.85661">
        <ele>666</ele>
        <time>2020-10-28T12:08:39.210Z</time>
      </trkpt>
      <trkpt lat="48.06567" lon="6.85661">
        <ele>666</ele>
        <time>2020-10-28T12:08:40.209Z</time>
      </trkpt>
      <trkpt lat="48.06568" lon="6.85662">
        <ele>666</ele>
        <time>2020-10-28T12:08:41.210Z</time>
      </trkpt>
      <trkpt lat="48.06563" lon="6.85669">
        <ele>671</ele>
        <time>2020-10-28T12:08:42.209Z</time>
      </trkpt>
      <trkpt lat="48.06567" lon="6.85661">
        <ele>661</ele>
        <time>2020-10-28T12:08:43.211Z</time>
      </trkpt>
      <trkpt lat="48.06567" lon="6.85659">
        <ele>661</ele>
        <time>2020-10-28T12:08:44.212Z</time>
      </trkpt>
      <trkpt lat="48.06567" lon="6.85658">
        <ele>661</ele>
        <time>2020-10-28T12:08:45.211Z</time>
      </trkpt>
      <trkpt lat="48.06567" lon="6.85657">
        <ele>661</ele>
        <time>2020-10-28T12:08:46.212Z</time>
      </trkpt>
      <trkpt lat="48.06568" lon="6.85656">
        <ele>661</ele>
        <time>2020-10-28T12:08:47.212Z</time>
      </trkpt>
      <trkpt lat="48.06568" lon="6.85656">
        <ele>661</ele>
        <time>2020-10-28T12:08:48.212Z</time>
      </trkpt>
      <trkpt lat="48.06569" lon="6.85657">
        <ele>661</ele>
        <time>2020-10-28T12:08:49.211Z</time>
      </trkpt>
      <trkpt lat="48.06569" lon="6.85658">
        <ele>661</ele>
        <time>2020-10-28T12:08:50.212Z</time>
      </trkpt>
      <trkpt lat="48.06568" lon="6.85661">
        <ele>661</ele>
        <time>2020-10-28T12:08:51.212Z</time>
      </trkpt>
      <trkpt lat="48.06568" lon="6.85664">
        <ele>662</ele>
        <time>2020-10-28T12:08:52.211Z</time>
      </trkpt>
      <trkpt lat="48.06568" lon="6.85666">
        <ele>662</ele>
        <time>2020-10-28T12:08:53.211Z</time>
      </trkpt>
      <trkpt lat="48.06567" lon="6.85668">
        <ele>662</ele>
        <time>2020-10-28T12:08:54.211Z</time>
      </trkpt>
      <trkpt lat="48.06567" lon="6.8567">
        <ele>662</ele>
        <time>2020-10-28T12:08:55.212Z</time>
      </trkpt>
      <trkpt lat="48.06566" lon="6.8567">
        <ele>662</ele>
        <time>2020-10-28T12:08:56.212Z</time>
      </trkpt>
      <trkpt lat="48.06565" lon="6.85671">
        <ele>662</ele>
        <time>2020-10-28T12:08:57.211Z</time>
      </trkpt>
      <trkpt lat="48.06565" lon="6.85671">
        <ele>662</ele>
        <time>2020-10-28T12:08:58.211Z</time>
      </trkpt>
      <trkpt lat="48.06565" lon="6.85671">
        <ele>663</ele>
        <time>2020-10-28T12:08:59.211Z</time>
      </trkpt>
      <trkpt lat="48.06567" lon="6.85667">
        <ele>662</ele>
        <time>2020-10-28T12:09:00.212Z</time>
      </trkpt>
      <trkpt lat="48.06568" lon="6.85667">
        <ele>662</ele>
        <time>2020-10-28T12:09:01.211Z</time>
      </trkpt>
      <trkpt lat="48.06569" lon="6.85666">
        <ele>662</ele>
        <time>2020-10-28T12:09:02.211Z</time>
      </trkpt>
      <trkpt lat="48.06571" lon="6.85667">
        <ele>661</ele>
        <time>2020-10-28T12:09:03.211Z</time>
      </trkpt>
      <trkpt lat="48.06571" lon="6.85668">
        <ele>662</ele>
        <time>2020-10-28T12:09:04.211Z</time>
      </trkpt>
      <trkpt lat="48.06571" lon="6.8567">
        <ele>662</ele>
        <time>2020-10-28T12:09:05.211Z</time>
      </trkpt>
      <trkpt lat="48.06572" lon="6.85672">
        <ele>662</ele>
        <time>2020-10-28T12:09:06.211Z</time>
      </trkpt>
      <trkpt lat="48.06572" lon="6.85674">
        <ele>662</ele>
        <time>2020-10-28T12:09:07.211Z</time>
      </trkpt>
      <trkpt lat="48.06572" lon="6.85676">
        <ele>661</ele>
        <time>2020-10-28T12:09:08.211Z</time>
      </trkpt>
      <trkpt lat="48.06571" lon="6.85678">
        <ele>661</ele>
        <time>2020-10-28T12:09:09.211Z</time>
      </trkpt>
      <trkpt lat="48.06571" lon="6.85681">
        <ele>661</ele>
        <time>2020-10-28T12:09:10.211Z</time>
      </trkpt>
      <trkpt lat="48.06571" lon="6.85683">
        <ele>661</ele>
        <time>2020-10-28T12:09:11.211Z</time>
      </trkpt>
      <trkpt lat="48.0657" lon="6.85685">
        <ele>661</ele>
        <time>2020-10-28T12:09:12.211Z</time>
      </trkpt>
      <trkpt lat="48.0657" lon="6.85687">
        <ele>662</ele>
        <time>2020-10-28T12:09:13.211Z</time>
      </trkpt>
      <trkpt lat="48.0657" lon="6.85689">
        <ele>662</ele>
        <time>2020-10-28T12:09:14.211Z</time>
      </trkpt>
      <trkpt lat="48.06571" lon="6.8569">
        <ele>663</ele>
        <time>2020-10-28T12:09:15.211Z</time>
      </trkpt>
      <trkpt lat="48.06571" lon="6.85692">
        <ele>663</ele>
        <time>2020-10-28T12:09:16.211Z</time>
      </trkpt>
      <trkpt lat="48.06571" lon="6.85693">
        <ele>663</ele>
        <time>2020-10-28T12:09:17.211Z</time>
      </trkpt>
      <trkpt lat="48.06571" lon="6.85695">
        <ele>663</ele>
        <time>2020-10-28T12:09:18.211Z</time>
      </trkpt>
      <trkpt lat="48.06572" lon="6.85698">
        <ele>663</ele>
        <time>2020-10-28T12:09:19.211Z</time>
      </trkpt>
      <trkpt lat="48.06572" lon="6.857">
        <ele>663</ele>
        <time>2020-10-28T12:09:20.211Z</time>
      </trkpt>
      <trkpt lat="48.06572" lon="6.85703">
        <ele>663</ele>
        <time>2020-10-28T12:09:21.211Z</time>
      </trkpt>
      <trkpt lat="48.06572" lon="6.85704">
        <ele>662</ele>
        <time>2020-10-28T12:09:22.211Z</time>
      </trkpt>
      <trkpt lat="48.06571" lon="6.85706">
        <ele>662</ele>
        <time>2020-10-28T12:09:23.211Z</time>
      </trkpt>
      <trkpt lat="48.0657" lon="6.85708">
        <ele>661</ele>
        <time>2020-10-28T12:09:24.211Z</time>
      </trkpt>
      <trkpt lat="48.0657" lon="6.8571">
        <ele>661</ele>
        <time>2020-10-28T12:09:25.211Z</time>
      </trkpt>
      <trkpt lat="48.06571" lon="6.85711">
        <ele>660</ele>
        <time>2020-10-28T12:09:26.211Z</time>
      </trkpt>
      <trkpt lat="48.06571" lon="6.85712">
        <ele>660</ele>
        <time>2020-10-28T12:09:27.211Z</time>
      </trkpt>
      <trkpt lat="48.06572" lon="6.85713">
        <ele>660</ele>
        <time>2020-10-28T12:09:28.211Z</time>
      </trkpt>
      <trkpt lat="48.06572" lon="6.85715">
        <ele>660</ele>
        <time>2020-10-28T12:09:29.211Z</time>
      </trkpt>
      <trkpt lat="48.06573" lon="6.85716">
        <ele>660</ele>
        <time>2020-10-28T12:09:30.211Z</time>
      </trkpt>
      <trkpt lat="48.06574" lon="6.85718">
        <ele>661</ele>
        <time>2020-10-28T12:09:31.211Z</time>
      </trkpt>
      <trkpt lat="48.06574" lon="6.85719">
        <ele>661</ele>
        <time>2020-10-28T12:09:32.211Z</time>
      </trkpt>
      <trkpt lat="48.06576" lon="6.85721">
        <ele>661</ele>
        <time>2020-10-28T12:09:33.211Z</time>
      </trkpt>
      <trkpt lat="48.06577" lon="6.85723">
        <ele>661</ele>
        <time>2020-10-28T12:09:34.211Z</time>
      </trkpt>
      <trkpt lat="48.06578" lon="6.85725">
        <ele>661</ele>
        <time>2020-10-28T12:09:35.211Z</time>
      </trkpt>
      <trkpt lat="48.06579" lon="6.85727">
        <ele>661</ele>
        <time>2020-10-28T12:09:36.211Z</time>
      </trkpt>
      <trkpt lat="48.06579" lon="6.85729">
        <ele>661</ele>
        <time>2020-10-28T12:09:37.211Z</time>
      </trkpt>
      <trkpt lat="48.0658" lon="6.85731">
        <ele>661</ele>
        <time>2020-10-28T12:09:38.211Z</time>
      </trkpt>
      <trkpt lat="48.06581" lon="6.85733">
        <ele>661</ele>
        <time>2020-10-28T12:09:39.211Z</time>
      </trkpt>
      <trkpt lat="48.06581" lon="6.85735">
        <ele>661</ele>
        <time>2020-10-28T12:09:40.211Z</time>
      </trkpt>
      <trkpt lat="48.06582" lon="6.85737">
        <ele>661</ele>
        <time>2020-10-28T12:09:41.211Z</time>
      </trkpt>
      <trkpt lat="48.06582" lon="6.85739">
        <ele>661</ele>
        <time>2020-10-28T12:09:42.211Z</time>
      </trkpt>
      <trkpt lat="48.06583" lon="6.85741">
        <ele>661</ele>
        <time>2020-10-28T12:09:43.211Z</time>
      </trkpt>
      <trkpt lat="48.06583" lon="6.85742">
        <ele>661</ele>
        <time>2020-10-28T12:09:44.211Z</time>
      </trkpt>
      <trkpt lat="48.06584" lon="6.85744">
        <ele>661</ele>
        <time>2020-10-28T12:09:45.211Z</time>
      </trkpt>
      <trkpt lat="48.06584" lon="6.85746">
        <ele>661</ele>
        <time>2020-10-28T12:09:46.211Z</time>
      </trkpt>
      <trkpt lat="48.06585" lon="6.85748">
        <ele>661</ele>
        <time>2020-10-28T12:09:47.211Z</time>
      </trkpt>
      <trkpt lat="48.06585" lon="6.8575">
        <ele>661</ele>
        <time>2020-10-28T12:09:48.211Z</time>
      </trkpt>
      <trkpt lat="48.06586" lon="6.85751">
        <ele>660</ele>
        <time>2020-10-28T12:09:49.211Z</time>
      </trkpt>
      <trkpt lat="48.06586" lon="6.85753">
        <ele>660</ele>
        <time>2020-10-28T12:09:50.211Z</time>
      </trkpt>
      <trkpt lat="48.06586" lon="6.85755">
        <ele>660</ele>
        <time>2020-10-28T12:09:51.211Z</time>
      </trkpt>
      <trkpt lat="48.06587" lon="6.85757">
        <ele>660</ele>
        <time>2020-10-28T12:09:52.211Z</time>
      </trkpt>
      <trkpt lat="48.06587" lon="6.85758">
        <ele>660</ele>
        <time>2020-10-28T12:09:53.211Z</time>
      </trkpt>
      <trkpt lat="48.06588" lon="6.8576">
        <ele>661</ele>
        <time>2020-10-28T12:09:54.211Z</time>
      </trkpt>
      <trkpt lat="48.06588" lon="6.85762">
        <ele>661</ele>
        <time>2020-10-28T12:09:55.211Z</time>
      </trkpt>
      <trkpt lat="48.06588" lon="6.85764">
        <ele>662</ele>
        <time>2020-10-28T12:09:56.211Z</time>
      </trkpt>
      <trkpt lat="48.06588" lon="6.85765">
        <ele>662</ele>
        <time>2020-10-28T12:09:57.211Z</time>
      </trkpt>
      <trkpt lat="48.06588" lon="6.85767">
        <ele>663</ele>
        <time>2020-10-28T12:09:58.211Z</time>
      </trkpt>
      <trkpt lat="48.06589" lon="6.85769">
        <ele>663</ele>
        <time>2020-10-28T12:09:59.211Z</time>
      </trkpt>
      <trkpt lat="48.06589" lon="6.85771">
        <ele>663</ele>
        <time>2020-10-28T12:10:00.211Z</time>
      </trkpt>
      <trkpt lat="48.0659" lon="6.85772">
        <ele>663</ele>
        <time>2020-10-28T12:10:01.211Z</time>
      </trkpt>
      <trkpt lat="48.0659" lon="6.85774">
        <ele>663</ele>
        <time>2020-10-28T12:10:02.211Z</time>
      </trkpt>
      <trkpt lat="48.06591" lon="6.85776">
        <ele>663</ele>
        <time>2020-10-28T12:10:03.211Z</time>
      </trkpt>
      <trkpt lat="48.06591" lon="6.85778">
        <ele>663</ele>
        <time>2020-10-28T12:10:04.211Z</time>
      </trkpt>
      <trkpt lat="48.06591" lon="6.8578">
        <ele>663</ele>
        <time>2020-10-28T12:10:05.211Z</time>
      </trkpt>
      <trkpt lat="48.06591" lon="6.85782">
        <ele>663</ele>
        <time>2020-10-28T12:10:06.211Z</time>
      </trkpt>
      <trkpt lat="48.06592" lon="6.85784">
        <ele>663</ele>
        <time>2020-10-28T12:10:07.211Z</time>
      </trkpt>
      <trkpt lat="48.06592" lon="6.85786">
        <ele>663</ele>
        <time>2020-10-28T12:10:08.211Z</time>
      </trkpt>
      <trkpt lat="48.06592" lon="6.85788">
        <ele>662</ele>
        <time>2020-10-28T12:10:09.211Z</time>
      </trkpt>
      <trkpt lat="48.06592" lon="6.85789">
        <ele>662</ele>
        <time>2020-10-28T12:10:10.211Z</time>
      </trkpt>
      <trkpt lat="48.06592" lon="6.85791">
        <ele>661</ele>
        <time>2020-10-28T12:10:11.211Z</time>
      </trkpt>
      <trkpt lat="48.06592" lon="6.85794">
        <ele>661</ele>
        <time>2020-10-28T12:10:12.211Z</time>
      </trkpt>
      <trkpt lat="48.06593" lon="6.85796">
        <ele>661</ele>
        <time>2020-10-28T12:10:13.211Z</time>
      </trkpt>
      <trkpt lat="48.06593" lon="6.85798">
        <ele>661</ele>
        <time>2020-10-28T12:10:14.211Z</time>
      </trkpt>
      <trkpt lat="48.06593" lon="6.85799">
        <ele>661</ele>
        <time>2020-10-28T12:10:15.211Z</time>
      </trkpt>
      <trkpt lat="48.06594" lon="6.85801">
        <ele>661</ele>
        <time>2020-10-28T12:10:16.211Z</time>
      </trkpt>
      <trkpt lat="48.06594" lon="6.85804">
        <ele>661</ele>
        <time>2020-10-28T12:10:17.211Z</time>
      </trkpt>
      <trkpt lat="48.06594" lon="6.85806">
        <ele>661</ele>
        <time>2020-10-28T12:10:18.211Z</time>
      </trkpt>
      <trkpt lat="48.06594" lon="6.85807">
        <ele>661</ele>
        <time>2020-10-28T12:10:19.211Z</time>
      </trkpt>
      <trkpt lat="48.06595" lon="6.85809">
        <ele>661</ele>
        <time>2020-10-28T12:10:20.211Z</time>
      </trkpt>
      <trkpt lat="48.06595" lon="6.85812">
        <ele>661</ele>
        <time>2020-10-28T12:10:21.211Z</time>
      </trkpt>
      <trkpt lat="48.06595" lon="6.85814">
        <ele>661</ele>
        <time>2020-10-28T12:10:22.211Z</time>
      </trkpt>
      <trkpt lat="48.06595" lon="6.85816">
        <ele>660</ele>
        <time>2020-10-28T12:10:23.211Z</time>
      </trkpt>
      <trkpt lat="48.06595" lon="6.85817">
        <ele>660</ele>
        <time>2020-10-28T12:10:24.211Z</time>
      </trkpt>
      <trkpt lat="48.06596" lon="6.85819">
        <ele>660</ele>
        <time>2020-10-28T12:10:25.211Z</time>
      </trkpt>
      <trkpt lat="48.06596" lon="6.85822">
        <ele>660</ele>
        <time>2020-10-28T12:10:26.211Z</time>
      </trkpt>
      <trkpt lat="48.06596" lon="6.85824">
        <ele>661</ele>
        <time>2020-10-28T12:10:27.211Z</time>
      </trkpt>
      <trkpt lat="48.06597" lon="6.85826">
        <ele>661</ele>
        <time>2020-10-28T12:10:28.211Z</time>
      </trkpt>
      <trkpt lat="48.06597" lon="6.85828">
        <ele>661</ele>
        <time>2020-10-28T12:10:29.211Z</time>
      </trkpt>
      <trkpt lat="48.06597" lon="6.8583">
        <ele>661</ele>
        <time>2020-10-28T12:10:30.211Z</time>
      </trkpt>
      <trkpt lat="48.06596" lon="6.85832">
        <ele>660</ele>
        <time>2020-10-28T12:10:31.211Z</time>
      </trkpt>
      <trkpt lat="48.06597" lon="6.85835">
        <ele>660</ele>
        <time>2020-10-28T12:10:32.211Z</time>
      </trkpt>
      <trkpt lat="48.06597" lon="6.85837">
        <ele>659</ele>
        <time>2020-10-28T12:10:33.211Z</time>
      </trkpt>
      <trkpt lat="48.06598" lon="6.85839">
        <ele>659</ele>
        <time>2020-10-28T12:10:34.211Z</time>
      </trkpt>
      <trkpt lat="48.06599" lon="6.85842">
        <ele>659</ele>
        <time>2020-10-28T12:10:35.211Z</time>
      </trkpt>
      <trkpt lat="48.06599" lon="6.85844">
        <ele>659</ele>
        <time>2020-10-28T12:10:36.211Z</time>
      </trkpt>
      <trkpt lat="48.066" lon="6.85846">
        <ele>660</ele>
        <time>2020-10-28T12:10:37.211Z</time>
      </trkpt>
      <trkpt lat="48.066" lon="6.85849">
        <ele>660</ele>
        <time>2020-10-28T12:10:38.211Z</time>
      </trkpt>
      <trkpt lat="48.066" lon="6.8585">
        <ele>660</ele>
        <time>2020-10-28T12:10:39.211Z</time>
      </trkpt>
      <trkpt lat="48.06601" lon="6.85853">
        <ele>660</ele>
        <time>2020-10-28T12:10:40.211Z</time>
      </trkpt>
      <trkpt lat="48.06601" lon="6.85855">
        <ele>660</ele>
        <time>2020-10-28T12:10:41.211Z</time>
      </trkpt>
      <trkpt lat="48.06601" lon="6.85857">
        <ele>660</ele>
        <time>2020-10-28T12:10:42.211Z</time>
      </trkpt>
      <trkpt lat="48.06602" lon="6.85859">
        <ele>660</ele>
        <time>2020-10-28T12:10:43.211Z</time>
      </trkpt>
      <trkpt lat="48.06603" lon="6.8586">
        <ele>660</ele>
        <time>2020-10-28T12:10:44.211Z</time>
      </trkpt>
      <trkpt lat="48.06604" lon="6.85863">
        <ele>660</ele>
        <time>2020-10-28T12:10:45.211Z</time>
      </trkpt>
      <trkpt lat="48.06605" lon="6.85865">
        <ele>660</ele>
        <time>2020-10-28T12:10:46.211Z</time>
      </trkpt>
      <trkpt lat="48.06605" lon="6.85867">
        <ele>660</ele>
        <time>2020-10-28T12:10:47.211Z</time>
      </trkpt>
      <trkpt lat="48.06606" lon="6.85868">
        <ele>660</ele>
        <time>2020-10-28T12:10:48.211Z</time>
      </trkpt>
      <trkpt lat="48.06606" lon="6.8587">
        <ele>660</ele>
        <time>2020-10-28T12:10:49.211Z</time>
      </trkpt>
      <trkpt lat="48.06607" lon="6.85873">
        <ele>660</ele>
        <time>2020-10-28T12:10:50.211Z</time>
      </trkpt>
      <trkpt lat="48.06606" lon="6.85875">
        <ele>660</ele>
        <time>2020-10-28T12:10:51.211Z</time>
      </trkpt>
      <trkpt lat="48.06606" lon="6.85877">
        <ele>661</ele>
        <time>2020-10-28T12:10:52.211Z</time>
      </trkpt>
      <trkpt lat="48.06606" lon="6.85879">
        <ele>661</ele>
        <time>2020-10-28T12:10:53.211Z</time>
      </trkpt>
      <trkpt lat="48.06607" lon="6.8588">
        <ele>661</ele>
        <time>2020-10-28T12:10:54.211Z</time>
      </trkpt>
      <trkpt lat="48.06607" lon="6.85881">
        <ele>661</ele>
        <time>2020-10-28T12:10:55.211Z</time>
      </trkpt>
      <trkpt lat="48.06608" lon="6.85883">
        <ele>661</ele>
        <time>2020-10-28T12:10:56.211Z</time>
      </trkpt>
      <trkpt lat="48.06608" lon="6.85884">
        <ele>661</ele>
        <time>2020-10-28T12:10:57.211Z</time>
      </trkpt>
      <trkpt lat="48.06608" lon="6.85886">
        <ele>661</ele>
        <time>2020-10-28T12:10:58.211Z</time>
      </trkpt>
      <trkpt lat="48.06608" lon="6.85889">
        <ele>661</ele>
        <time>2020-10-28T12:10:59.211Z</time>
      </trkpt>
      <trkpt lat="48.06608" lon="6.85891">
        <ele>661</ele>
        <time>2020-10-28T12:11:00.211Z</time>
      </trkpt>
      <trkpt lat="48.06608" lon="6.85893">
        <ele>661</ele>
        <time>2020-10-28T12:11:01.211Z</time>
      </trkpt>
      <trkpt lat="48.06608" lon="6.85894">
        <ele>661</ele>
        <time>2020-10-28T12:11:02.211Z</time>
      </trkpt>
      <trkpt lat="48.06609" lon="6.85896">
        <ele>660</ele>
        <time>2020-10-28T12:11:03.211Z</time>
      </trkpt>
      <trkpt lat="48.06609" lon="6.85898">
        <ele>661</ele>
        <time>2020-10-28T12:11:04.211Z</time>
      </trkpt>
      <trkpt lat="48.06609" lon="6.859">
        <ele>661</ele>
        <time>2020-10-28T12:11:05.211Z</time>
      </trkpt>
      <trkpt lat="48.0661" lon="6.85902">
        <ele>661</ele>
        <time>2020-10-28T12:11:06.211Z</time>
      </trkpt>
      <trkpt lat="48.06611" lon="6.85905">
        <ele>662</ele>
        <time>2020-10-28T12:11:07.211Z</time>
      </trkpt>
      <trkpt lat="48.06611" lon="6.85906">
        <ele>663</ele>
        <time>2020-10-28T12:11:08.211Z</time>
      </trkpt>
      <trkpt lat="48.06612" lon="6.85908">
        <ele>663</ele>
        <time>2020-10-28T12:11:09.211Z</time>
      </trkpt>
      <trkpt lat="48.06613" lon="6.8591">
        <ele>664</ele>
        <time>2020-10-28T12:11:10.211Z</time>
      </trkpt>
      <trkpt lat="48.06614" lon="6.85911">
        <ele>664</ele>
        <time>2020-10-28T12:11:11.211Z</time>
      </trkpt>
      <trkpt lat="48.06614" lon="6.85913">
        <ele>665</ele>
        <time>2020-10-28T12:11:12.211Z</time>
      </trkpt>
      <trkpt lat="48.06615" lon="6.85914">
        <ele>665</ele>
        <time>2020-10-28T12:11:13.211Z</time>
      </trkpt>
      <trkpt lat="48.06616" lon="6.85916">
        <ele>665</ele>
        <time>2020-10-28T12:11:14.211Z</time>
      </trkpt>
      <trkpt lat="48.06617" lon="6.85917">
        <ele>665</ele>
        <time>2020-10-28T12:11:15.211Z</time>
      </trkpt>
      <trkpt lat="48.06618" lon="6.85918">
        <ele>665</ele>
        <time>2020-10-28T12:11:16.211Z</time>
      </trkpt>
      <trkpt lat="48.06619" lon="6.85919">
        <ele>665</ele>
        <time>2020-10-28T12:11:17.211Z</time>
      </trkpt>
      <trkpt lat="48.0662" lon="6.8592">
        <ele>665</ele>
        <time>2020-10-28T12:11:18.211Z</time>
      </trkpt>
      <trkpt lat="48.06622" lon="6.85921">
        <ele>665</ele>
        <time>2020-10-28T12:11:19.211Z</time>
      </trkpt>
      <trkpt lat="48.06623" lon="6.85922">
        <ele>665</ele>
        <time>2020-10-28T12:11:20.211Z</time>
      </trkpt>
      <trkpt lat="48.06624" lon="6.85923">
        <ele>665</ele>
        <time>2020-10-28T12:11:21.211Z</time>
      </trkpt>
      <trkpt lat="48.06625" lon="6.85923">
        <ele>665</ele>
        <time>2020-10-28T12:11:22.211Z</time>
      </trkpt>
      <trkpt lat="48.06626" lon="6.85924">
        <ele>665</ele>
        <time>2020-10-28T12:11:23.211Z</time>
      </trkpt>
      <trkpt lat="48.06627" lon="6.85925">
        <ele>665</ele>
        <time>2020-10-28T12:11:24.211Z</time>
      </trkpt>
      <trkpt lat="48.06629" lon="6.85925">
        <ele>665</ele>
        <time>2020-10-28T12:11:25.211Z</time>
      </trkpt>
      <trkpt lat="48.0663" lon="6.85926">
        <ele>665</ele>
        <time>2020-10-28T12:11:26.211Z</time>
      </trkpt>
      <trkpt lat="48.06631" lon="6.85926">
        <ele>666</ele>
        <time>2020-10-28T12:11:27.211Z</time>
      </trkpt>
      <trkpt lat="48.06632" lon="6.85928">
        <ele>666</ele>
        <time>2020-10-28T12:11:28.211Z</time>
      </trkpt>
      <trkpt lat="48.06633" lon="6.85929">
        <ele>666</ele>
        <time>2020-10-28T12:11:29.211Z</time>
      </trkpt>
      <trkpt lat="48.06635" lon="6.8593">
        <ele>666</ele>
        <time>2020-10-28T12:11:30.211Z</time>
      </trkpt>
      <trkpt lat="48.06636" lon="6.85931">
        <ele>666</ele>
        <time>2020-10-28T12:11:31.211Z</time>
      </trkpt>
      <trkpt lat="48.06637" lon="6.85931">
        <ele>666</ele>
        <time>2020-10-28T12:11:32.211Z</time>
      </trkpt>
      <trkpt lat="48.06638" lon="6.85933">
        <ele>666</ele>
        <time>2020-10-28T12:11:33.211Z</time>
      </trkpt>
      <trkpt lat="48.06639" lon="6.85934">
        <ele>666</ele>
        <time>2020-10-28T12:11:34.211Z</time>
      </trkpt>
      <trkpt lat="48.0664" lon="6.85935">
        <ele>666</ele>
        <time>2020-10-28T12:11:35.211Z</time>
      </trkpt>
      <trkpt lat="48.0664" lon="6.85936">
        <ele>666</ele>
        <time>2020-10-28T12:11:36.211Z</time>
      </trkpt>
      <trkpt lat="48.06641" lon="6.85937">
        <ele>666</ele>
        <time>2020-10-28T12:11:37.211Z</time>
      </trkpt>
      <trkpt lat="48.06643" lon="6.85938">
        <ele>665</ele>
        <time>2020-10-28T12:11:38.211Z</time>
      </trkpt>
      <trkpt lat="48.06643" lon="6.85939">
        <ele>665</ele>
        <time>2020-10-28T12:11:39.211Z</time>
      </trkpt>
      <trkpt lat="48.06645" lon="6.85941">
        <ele>665</ele>
        <time>2020-10-28T12:11:40.211Z</time>
      </trkpt>
      <trkpt lat="48.06646" lon="6.85942">
        <ele>665</ele>
        <time>2020-10-28T12:11:41.211Z</time>
      </trkpt>
      <trkpt lat="48.06647" lon="6.85943">
        <ele>664</ele>
        <time>2020-10-28T12:11:42.211Z</time>
      </trkpt>
      <trkpt lat="48.06647" lon="6.85945">
        <ele>664</ele>
        <time>2020-10-28T12:11:43.211Z</time>
      </trkpt>
      <trkpt lat="48.06648" lon="6.85946">
        <ele>664</ele>
        <time>2020-10-28T12:11:44.211Z</time>
      </trkpt>
      <trkpt lat="48.06649" lon="6.85948">
        <ele>664</ele>
        <time>2020-10-28T12:11:45.211Z</time>
      </trkpt>
      <trkpt lat="48.06651" lon="6.85949">
        <ele>664</ele>
        <time>2020-10-28T12:11:46.211Z</time>
      </trkpt>
      <trkpt lat="48.06652" lon="6.85951">
        <ele>664</ele>
        <time>2020-10-28T12:11:47.211Z</time>
      </trkpt>
      <trkpt lat="48.06653" lon="6.85952">
        <ele>664</ele>
        <time>2020-10-28T12:11:48.211Z</time>
      </trkpt>
      <trkpt lat="48.06653" lon="6.85953">
        <ele>665</ele>
        <time>2020-10-28T12:11:49.211Z</time>
      </trkpt>
      <trkpt lat="48.06654" lon="6.85954">
        <ele>665</ele>
        <time>2020-10-28T12:11:50.211Z</time>
      </trkpt>
      <trkpt lat="48.06655" lon="6.85955">
        <ele>665</ele>
        <time>2020-10-28T12:11:51.211Z</time>
      </trkpt>
      <trkpt lat="48.06656" lon="6.85956">
        <ele>666</ele>
        <time>2020-10-28T12:11:52.211Z</time>
      </trkpt>
      <trkpt lat="48.06657" lon="6.85958">
        <ele>666</ele>
        <time>2020-10-28T12:11:53.211Z</time>
      </trkpt>
      <trkpt lat="48.06658" lon="6.8596">
        <ele>666</ele>
        <time>2020-10-28T12:11:54.211Z</time>
      </trkpt>
      <trkpt lat="48.06658" lon="6.85961">
        <ele>666</ele>
        <time>2020-10-28T12:11:55.211Z</time>
      </trkpt>
      <trkpt lat="48.06659" lon="6.85962">
        <ele>665</ele>
        <time>2020-10-28T12:11:56.211Z</time>
      </trkpt>
      <trkpt lat="48.0666" lon="6.85964">
        <ele>665</ele>
        <time>2020-10-28T12:11:57.211Z</time>
      </trkpt>
      <trkpt lat="48.06661" lon="6.85966">
        <ele>665</ele>
        <time>2020-10-28T12:11:58.211Z</time>
      </trkpt>
      <trkpt lat="48.06662" lon="6.85968">
        <ele>665</ele>
        <time>2020-10-28T12:11:59.211Z</time>
      </trkpt>
      <trkpt lat="48.06663" lon="6.85969">
        <ele>665</ele>
        <time>2020-10-28T12:12:00.211Z</time>
      </trkpt>
      <trkpt lat="48.06664" lon="6.85971">
        <ele>665</ele>
        <time>2020-10-28T12:12:01.211Z</time>
      </trkpt>
      <trkpt lat="48.06664" lon="6.85973">
        <ele>665</ele>
        <time>2020-10-28T12:12:02.211Z</time>
      </trkpt>
      <trkpt lat="48.06665" lon="6.85974">
        <ele>666</ele>
        <time>2020-10-28T12:12:03.211Z</time>
      </trkpt>
      <trkpt lat="48.06666" lon="6.85975">
        <ele>666</ele>
        <time>2020-10-28T12:12:04.211Z</time>
      </trkpt>
      <trkpt lat="48.06666" lon="6.85977">
        <ele>665</ele>
        <time>2020-10-28T12:12:05.211Z</time>
      </trkpt>
      <trkpt lat="48.06666" lon="6.85979">
        <ele>665</ele>
        <time>2020-10-28T12:12:06.211Z</time>
      </trkpt>
      <trkpt lat="48.06666" lon="6.85981">
        <ele>665</ele>
        <time>2020-10-28T12:12:07.211Z</time>
      </trkpt>
      <trkpt lat="48.06667" lon="6.85983">
        <ele>665</ele>
        <time>2020-10-28T12:12:08.211Z</time>
      </trkpt>
      <trkpt lat="48.06667" lon="6.85984">
        <ele>665</ele>
        <time>2020-10-28T12:12:09.211Z</time>
      </trkpt>
      <trkpt lat="48.06667" lon="6.85986">
        <ele>665</ele>
        <time>2020-10-28T12:12:10.211Z</time>
      </trkpt>
      <trkpt lat="48.06668" lon="6.85987">
        <ele>665</ele>
        <time>2020-10-28T12:12:11.211Z</time>
      </trkpt>
      <trkpt lat="48.06668" lon="6.85989">
        <ele>664</ele>
        <time>2020-10-28T12:12:12.211Z</time>
      </trkpt>
      <trkpt lat="48.06669" lon="6.85991">
        <ele>664</ele>
        <time>2020-10-28T12:12:13.211Z</time>
      </trkpt>
      <trkpt lat="48.06669" lon="6.85993">
        <ele>664</ele>
        <time>2020-10-28T12:12:14.211Z</time>
      </trkpt>
      <trkpt lat="48.0667" lon="6.85995">
        <ele>664</ele>
        <time>2020-10-28T12:12:15.211Z</time>
      </trkpt>
      <trkpt lat="48.0667" lon="6.85996">
        <ele>663</ele>
        <time>2020-10-28T12:12:16.211Z</time>
      </trkpt>
      <trkpt lat="48.0667" lon="6.85998">
        <ele>663</ele>
        <time>2020-10-28T12:12:17.211Z</time>
      </trkpt>
      <trkpt lat="48.06671" lon="6.85999">
        <ele>663</ele>
        <time>2020-10-28T12:12:18.211Z</time>
      </trkpt>
      <trkpt lat="48.06671" lon="6.86001">
        <ele>664</ele>
        <time>2020-10-28T12:12:19.211Z</time>
      </trkpt>
      <trkpt lat="48.06671" lon="6.86003">
        <ele>664</ele>
        <time>2020-10-28T12:12:20.211Z</time>
      </trkpt>
      <trkpt lat="48.06672" lon="6.86005">
        <ele>663</ele>
        <time>2020-10-28T12:12:21.211Z</time>
      </trkpt>
      <trkpt lat="48.06672" lon="6.86006">
        <ele>663</ele>
        <time>2020-10-28T12:12:22.211Z</time>
      </trkpt>
      <trkpt lat="48.06672" lon="6.86007">
        <ele>663</ele>
        <time>2020-10-28T12:12:23.211Z</time>
      </trkpt>
      <trkpt lat="48.06672" lon="6.86009">
        <ele>663</ele>
        <time>2020-10-28T12:12:24.211Z</time>
      </trkpt>
      <trkpt lat="48.06673" lon="6.86011">
        <ele>663</ele>
        <time>2020-10-28T12:12:25.211Z</time>
      </trkpt>
      <trkpt lat="48.06673" lon="6.86013">
        <ele>664</ele>
        <time>2020-10-28T12:12:26.211Z</time>
      </trkpt>
      <trkpt lat="48.06673" lon="6.86014">
        <ele>664</ele>
        <time>2020-10-28T12:12:27.211Z</time>
      </trkpt>
      <trkpt lat="48.06673" lon="6.86015">
        <ele>664</ele>
        <time>2020-10-28T12:12:28.211Z</time>
      </trkpt>
      <trkpt lat="48.06673" lon="6.86017">
        <ele>665</ele>
        <time>2020-10-28T12:12:29.211Z</time>
      </trkpt>
      <trkpt lat="48.06673" lon="6.86018">
        <ele>665</ele>
        <time>2020-10-28T12:12:30.211Z</time>
      </trkpt>
      <trkpt lat="48.06673" lon="6.86018">
        <ele>666</ele>
        <time>2020-10-28T12:12:31.211Z</time>
      </trkpt>
      <trkpt lat="48.06674" lon="6.86018">
        <ele>666</ele>
        <time>2020-10-28T12:12:32.211Z</time>
      </trkpt>
      <trkpt lat="48.06672" lon="6.86025">
        <ele>668</ele>
        <time>2020-10-28T12:12:33.212Z</time>
      </trkpt>
      <trkpt lat="48.06672" lon="6.86027">
        <ele>668</ele>
        <time>2020-10-28T12:12:34.212Z</time>
      </trkpt>
      <trkpt lat="48.06673" lon="6.86029">
        <ele>668</ele>
        <time>2020-10-28T12:12:35.211Z</time>
      </trkpt>
      <trkpt lat="48.06674" lon="6.86031">
        <ele>668</ele>
        <time>2020-10-28T12:12:36.211Z</time>
      </trkpt>
      <trkpt lat="48.06674" lon="6.86034">
        <ele>668</ele>
        <time>2020-10-28T12:12:37.211Z</time>
      </trkpt>
      <trkpt lat="48.06675" lon="6.86036">
        <ele>668</ele>
        <time>2020-10-28T12:12:38.211Z</time>
      </trkpt>
      <trkpt lat="48.06676" lon="6.86038">
        <ele>668</ele>
        <time>2020-10-28T12:12:39.212Z</time>
      </trkpt>
      <trkpt lat="48.06677" lon="6.86041">
        <ele>668</ele>
        <time>2020-10-28T12:12:40.212Z</time>
      </trkpt>
      <trkpt lat="48.06678" lon="6.86042">
        <ele>668</ele>
        <time>2020-10-28T12:12:41.212Z</time>
      </trkpt>
      <trkpt lat="48.06679" lon="6.86044">
        <ele>668</ele>
        <time>2020-10-28T12:12:42.211Z</time>
      </trkpt>
      <trkpt lat="48.0668" lon="6.86045">
        <ele>668</ele>
        <time>2020-10-28T12:12:43.212Z</time>
      </trkpt>
      <trkpt lat="48.06681" lon="6.86046">
        <ele>669</ele>
        <time>2020-10-28T12:12:44.212Z</time>
      </trkpt>
      <trkpt lat="48.06682" lon="6.86048">
        <ele>669</ele>
        <time>2020-10-28T12:12:45.211Z</time>
      </trkpt>
      <trkpt lat="48.06683" lon="6.8605">
        <ele>669</ele>
        <time>2020-10-28T12:12:46.211Z</time>
      </trkpt>
      <trkpt lat="48.06683" lon="6.86052">
        <ele>669</ele>
        <time>2020-10-28T12:12:47.212Z</time>
      </trkpt>
      <trkpt lat="48.06684" lon="6.86053">
        <ele>669</ele>
        <time>2020-10-28T12:12:48.212Z</time>
      </trkpt>
      <trkpt lat="48.06684" lon="6.86054">
        <ele>668</ele>
        <time>2020-10-28T12:12:49.212Z</time>
      </trkpt>
      <trkpt lat="48.06685" lon="6.86056">
        <ele>668</ele>
        <time>2020-10-28T12:12:50.211Z</time>
      </trkpt>
      <trkpt lat="48.06686" lon="6.86058">
        <ele>667</ele>
        <time>2020-10-28T12:12:51.211Z</time>
      </trkpt>
      <trkpt lat="48.06687" lon="6.8606">
        <ele>667</ele>
        <time>2020-10-28T12:12:52.212Z</time>
      </trkpt>
      <trkpt lat="48.06688" lon="6.86061">
        <ele>666</ele>
        <time>2020-10-28T12:12:53.212Z</time>
      </trkpt>
      <trkpt lat="48.06689" lon="6.86061">
        <ele>665</ele>
        <time>2020-10-28T12:12:54.212Z</time>
      </trkpt>
      <trkpt lat="48.06691" lon="6.86062">
        <ele>665</ele>
        <time>2020-10-28T12:12:55.211Z</time>
      </trkpt>
      <trkpt lat="48.06692" lon="6.86063">
        <ele>664</ele>
        <time>2020-10-28T12:12:56.212Z</time>
      </trkpt>
      <trkpt lat="48.06693" lon="6.86064">
        <ele>664</ele>
        <time>2020-10-28T12:12:57.212Z</time>
      </trkpt>
      <trkpt lat="48.06694" lon="6.86065">
        <ele>664</ele>
        <time>2020-10-28T12:12:58.212Z</time>
      </trkpt>
      <trkpt lat="48.06695" lon="6.86067">
        <ele>664</ele>
        <time>2020-10-28T12:12:59.212Z</time>
      </trkpt>
      <trkpt lat="48.06696" lon="6.86068">
        <ele>664</ele>
        <time>2020-10-28T12:13:00.211Z</time>
      </trkpt>
      <trkpt lat="48.06697" lon="6.86069">
        <ele>664</ele>
        <time>2020-10-28T12:13:01.212Z</time>
      </trkpt>
      <trkpt lat="48.06698" lon="6.8607">
        <ele>664</ele>
        <time>2020-10-28T12:13:02.212Z</time>
      </trkpt>
      <trkpt lat="48.06699" lon="6.86071">
        <ele>664</ele>
        <time>2020-10-28T12:13:03.212Z</time>
      </trkpt>
      <trkpt lat="48.067" lon="6.86073">
        <ele>664</ele>
        <time>2020-10-28T12:13:04.211Z</time>
      </trkpt>
      <trkpt lat="48.06701" lon="6.86075">
        <ele>664</ele>
        <time>2020-10-28T12:13:05.211Z</time>
      </trkpt>
      <trkpt lat="48.06702" lon="6.86077">
        <ele>664</ele>
        <time>2020-10-28T12:13:06.211Z</time>
      </trkpt>
      <trkpt lat="48.06703" lon="6.86079">
        <ele>664</ele>
        <time>2020-10-28T12:13:07.212Z</time>
      </trkpt>
      <trkpt lat="48.06704" lon="6.8608">
        <ele>664</ele>
        <time>2020-10-28T12:13:08.212Z</time>
      </trkpt>
      <trkpt lat="48.06705" lon="6.86082">
        <ele>664</ele>
        <time>2020-10-28T12:13:09.212Z</time>
      </trkpt>
      <trkpt lat="48.06707" lon="6.86084">
        <ele>664</ele>
        <time>2020-10-28T12:13:10.212Z</time>
      </trkpt>
      <trkpt lat="48.06708" lon="6.86085">
        <ele>664</ele>
        <time>2020-10-28T12:13:11.211Z</time>
      </trkpt>
      <trkpt lat="48.06709" lon="6.86087">
        <ele>663</ele>
        <time>2020-10-28T12:13:12.212Z</time>
      </trkpt>
      <trkpt lat="48.0671" lon="6.86088">
        <ele>663</ele>
        <time>2020-10-28T12:13:13.212Z</time>
      </trkpt>
      <trkpt lat="48.06711" lon="6.8609">
        <ele>662</ele>
        <time>2020-10-28T12:13:14.212Z</time>
      </trkpt>
      <trkpt lat="48.06712" lon="6.86091">
        <ele>662</ele>
        <time>2020-10-28T12:13:15.211Z</time>
      </trkpt>
      <trkpt lat="48.06713" lon="6.86092">
        <ele>661</ele>
        <time>2020-10-28T12:13:16.211Z</time>
      </trkpt>
      <trkpt lat="48.06714" lon="6.86094">
        <ele>661</ele>
        <time>2020-10-28T12:13:17.212Z</time>
      </trkpt>
      <trkpt lat="48.06716" lon="6.86095">
        <ele>661</ele>
        <time>2020-10-28T12:13:18.212Z</time>
      </trkpt>
      <trkpt lat="48.06718" lon="6.86097">
        <ele>661</ele>
        <time>2020-10-28T12:13:19.212Z</time>
      </trkpt>
      <trkpt lat="48.06718" lon="6.86098">
        <ele>661</ele>
        <time>2020-10-28T12:13:20.211Z</time>
      </trkpt>
      <trkpt lat="48.06719" lon="6.86099">
        <ele>661</ele>
        <time>2020-10-28T12:13:21.211Z</time>
      </trkpt>
      <trkpt lat="48.0672" lon="6.86101">
        <ele>661</ele>
        <time>2020-10-28T12:13:22.212Z</time>
      </trkpt>
      <trkpt lat="48.06721" lon="6.86102">
        <ele>661</ele>
        <time>2020-10-28T12:13:23.211Z</time>
      </trkpt>
      <trkpt lat="48.06722" lon="6.86104">
        <ele>661</ele>
        <time>2020-10-28T12:13:24.212Z</time>
      </trkpt>
      <trkpt lat="48.06723" lon="6.86105">
        <ele>661</ele>
        <time>2020-10-28T12:13:25.211Z</time>
      </trkpt>
      <trkpt lat="48.06723" lon="6.86107">
        <ele>661</ele>
        <time>2020-10-28T12:13:26.211Z</time>
      </trkpt>
      <trkpt lat="48.06724" lon="6.8611">
        <ele>660</ele>
        <time>2020-10-28T12:13:27.212Z</time>
      </trkpt>
      <trkpt lat="48.06724" lon="6.86111">
        <ele>660</ele>
        <time>2020-10-28T12:13:28.212Z</time>
      </trkpt>
      <trkpt lat="48.06726" lon="6.86112">
        <ele>660</ele>
        <time>2020-10-28T12:13:29.211Z</time>
      </trkpt>
      <trkpt lat="48.06727" lon="6.86114">
        <ele>660</ele>
        <time>2020-10-28T12:13:30.211Z</time>
      </trkpt>
      <trkpt lat="48.06727" lon="6.86115">
        <ele>660</ele>
        <time>2020-10-28T12:13:31.211Z</time>
      </trkpt>
      <trkpt lat="48.06729" lon="6.86117">
        <ele>660</ele>
        <time>2020-10-28T12:13:32.212Z</time>
      </trkpt>
      <trkpt lat="48.0673" lon="6.86119">
        <ele>660</ele>
        <time>2020-10-28T12:13:33.212Z</time>
      </trkpt>
      <trkpt lat="48.0673" lon="6.8612">
        <ele>660</ele>
        <time>2020-10-28T12:13:34.212Z</time>
      </trkpt>
      <trkpt lat="48.06731" lon="6.86122">
        <ele>660</ele>
        <time>2020-10-28T12:13:35.211Z</time>
      </trkpt>
      <trkpt lat="48.06732" lon="6.86123">
        <ele>660</ele>
        <time>2020-10-28T12:13:36.211Z</time>
      </trkpt>
      <trkpt lat="48.06733" lon="6.86125">
        <ele>660</ele>
        <time>2020-10-28T12:13:37.211Z</time>
      </trkpt>
      <trkpt lat="48.06734" lon="6.86127">
        <ele>660</ele>
        <time>2020-10-28T12:13:38.211Z</time>
      </trkpt>
      <trkpt lat="48.06734" lon="6.86129">
        <ele>660</ele>
        <time>2020-10-28T12:13:39.211Z</time>
      </trkpt>
      <trkpt lat="48.06734" lon="6.86131">
        <ele>660</ele>
        <time>2020-10-28T12:13:40.211Z</time>
      </trkpt>
      <trkpt lat="48.06735" lon="6.86133">
        <ele>660</ele>
        <time>2020-10-28T12:13:41.211Z</time>
      </trkpt>
      <trkpt lat="48.06735" lon="6.86135">
        <ele>660</ele>
        <time>2020-10-28T12:13:42.211Z</time>
      </trkpt>
      <trkpt lat="48.06736" lon="6.86138">
        <ele>660</ele>
        <time>2020-10-28T12:13:43.212Z</time>
      </trkpt>
      <trkpt lat="48.06736" lon="6.8614">
        <ele>660</ele>
        <time>2020-10-28T12:13:44.211Z</time>
      </trkpt>
      <trkpt lat="48.06737" lon="6.86141">
        <ele>660</ele>
        <time>2020-10-28T12:13:45.211Z</time>
      </trkpt>
      <trkpt lat="48.06737" lon="6.86144">
        <ele>660</ele>
        <time>2020-10-28T12:13:46.212Z</time>
      </trkpt>
      <trkpt lat="48.06738" lon="6.86145">
        <ele>660</ele>
        <time>2020-10-28T12:13:47.211Z</time>
      </trkpt>
      <trkpt lat="48.06739" lon="6.86147">
        <ele>660</ele>
        <time>2020-10-28T12:13:48.211Z</time>
      </trkpt>
      <trkpt lat="48.06739" lon="6.86149">
        <ele>659</ele>
        <time>2020-10-28T12:13:49.212Z</time>
      </trkpt>
      <trkpt lat="48.0674" lon="6.86151">
        <ele>659</ele>
        <time>2020-10-28T12:13:50.212Z</time>
      </trkpt>
      <trkpt lat="48.06741" lon="6.86153">
        <ele>659</ele>
        <time>2020-10-28T12:13:51.211Z</time>
      </trkpt>
      <trkpt lat="48.06741" lon="6.86155">
        <ele>659</ele>
        <time>2020-10-28T12:13:52.212Z</time>
      </trkpt>
      <trkpt lat="48.06741" lon="6.86157">
        <ele>659</ele>
        <time>2020-10-28T12:13:53.212Z</time>
      </trkpt>
      <trkpt lat="48.06742" lon="6.86159">
        <ele>660</ele>
        <time>2020-10-28T12:13:54.212Z</time>
      </trkpt>
      <trkpt lat="48.06742" lon="6.86161">
        <ele>660</ele>
        <time>2020-10-28T12:13:55.212Z</time>
      </trkpt>
      <trkpt lat="48.06743" lon="6.86163">
        <ele>661</ele>
        <time>2020-10-28T12:13:56.212Z</time>
      </trkpt>
      <trkpt lat="48.06743" lon="6.86165">
        <ele>662</ele>
        <time>2020-10-28T12:13:57.212Z</time>
      </trkpt>
      <trkpt lat="48.06743" lon="6.86167">
        <ele>662</ele>
        <time>2020-10-28T12:13:58.212Z</time>
      </trkpt>
      <trkpt lat="48.06743" lon="6.86169">
        <ele>663</ele>
        <time>2020-10-28T12:13:59.212Z</time>
      </trkpt>
      <trkpt lat="48.06744" lon="6.86171">
        <ele>663</ele>
        <time>2020-10-28T12:14:00.212Z</time>
      </trkpt>
      <trkpt lat="48.06744" lon="6.86173">
        <ele>663</ele>
        <time>2020-10-28T12:14:01.212Z</time>
      </trkpt>
      <trkpt lat="48.06744" lon="6.86175">
        <ele>663</ele>
        <time>2020-10-28T12:14:02.211Z</time>
      </trkpt>
      <trkpt lat="48.06745" lon="6.86176">
        <ele>663</ele>
        <time>2020-10-28T12:14:03.212Z</time>
      </trkpt>
      <trkpt lat="48.06745" lon="6.86178">
        <ele>663</ele>
        <time>2020-10-28T12:14:04.212Z</time>
      </trkpt>
      <trkpt lat="48.06746" lon="6.8618">
        <ele>663</ele>
        <time>2020-10-28T12:14:05.212Z</time>
      </trkpt>
      <trkpt lat="48.06747" lon="6.86181">
        <ele>662</ele>
        <time>2020-10-28T12:14:06.212Z</time>
      </trkpt>
      <trkpt lat="48.06747" lon="6.86184">
        <ele>662</ele>
        <time>2020-10-28T12:14:07.212Z</time>
      </trkpt>
      <trkpt lat="48.06747" lon="6.86185">
        <ele>662</ele>
        <time>2020-10-28T12:14:08.212Z</time>
      </trkpt>
      <trkpt lat="48.06747" lon="6.86187">
        <ele>662</ele>
        <time>2020-10-28T12:14:09.212Z</time>
      </trkpt>
      <trkpt lat="48.06747" lon="6.86189">
        <ele>662</ele>
        <time>2020-10-28T12:14:10.212Z</time>
      </trkpt>
      <trkpt lat="48.06746" lon="6.86191">
        <ele>663</ele>
        <time>2020-10-28T12:14:11.212Z</time>
      </trkpt>
      <trkpt lat="48.06746" lon="6.86193">
        <ele>663</ele>
        <time>2020-10-28T12:14:12.211Z</time>
      </trkpt>
      <trkpt lat="48.06745" lon="6.86196">
        <ele>663</ele>
        <time>2020-10-28T12:14:13.212Z</time>
      </trkpt>
      <trkpt lat="48.06745" lon="6.86197">
        <ele>663</ele>
        <time>2020-10-28T12:14:14.212Z</time>
      </trkpt>
      <trkpt lat="48.06745" lon="6.86199">
        <ele>664</ele>
        <time>2020-10-28T12:14:15.212Z</time>
      </trkpt>
      <trkpt lat="48.06744" lon="6.86201">
        <ele>664</ele>
        <time>2020-10-28T12:14:16.212Z</time>
      </trkpt>
      <trkpt lat="48.06743" lon="6.86203">
        <ele>664</ele>
        <time>2020-10-28T12:14:17.212Z</time>
      </trkpt>
      <trkpt lat="48.06743" lon="6.86205">
        <ele>663</ele>
        <time>2020-10-28T12:14:18.212Z</time>
      </trkpt>
      <trkpt lat="48.06743" lon="6.86207">
        <ele>663</ele>
        <time>2020-10-28T12:14:19.212Z</time>
      </trkpt>
      <trkpt lat="48.06743" lon="6.86209">
        <ele>663</ele>
        <time>2020-10-28T12:14:20.212Z</time>
      </trkpt>
      <trkpt lat="48.06743" lon="6.86211">
        <ele>663</ele>
        <time>2020-10-28T12:14:21.212Z</time>
      </trkpt>
      <trkpt lat="48.06742" lon="6.86213">
        <ele>662</ele>
        <time>2020-10-28T12:14:22.212Z</time>
      </trkpt>
      <trkpt lat="48.06742" lon="6.86215">
        <ele>662</ele>
        <time>2020-10-28T12:14:23.212Z</time>
      </trkpt>
      <trkpt lat="48.06741" lon="6.86217">
        <ele>662</ele>
        <time>2020-10-28T12:14:24.212Z</time>
      </trkpt>
      <trkpt lat="48.0674" lon="6.86218">
        <ele>662</ele>
        <time>2020-10-28T12:14:25.212Z</time>
      </trkpt>
      <trkpt lat="48.06739" lon="6.86219">
        <ele>662</ele>
        <time>2020-10-28T12:14:26.212Z</time>
      </trkpt>
      <trkpt lat="48.06738" lon="6.8622">
        <ele>662</ele>
        <time>2020-10-28T12:14:27.212Z</time>
      </trkpt>
      <trkpt lat="48.06737" lon="6.86221">
        <ele>661</ele>
        <time>2020-10-28T12:14:28.211Z</time>
      </trkpt>
      <trkpt lat="48.06735" lon="6.86223">
        <ele>661</ele>
        <time>2020-10-28T12:14:29.212Z</time>
      </trkpt>
      <trkpt lat="48.06734" lon="6.86224">
        <ele>661</ele>
        <time>2020-10-28T12:14:30.211Z</time>
      </trkpt>
      <trkpt lat="48.06732" lon="6.86226">
        <ele>661</ele>
        <time>2020-10-28T12:14:31.212Z</time>
      </trkpt>
      <trkpt lat="48.06731" lon="6.86227">
        <ele>661</ele>
        <time>2020-10-28T12:14:32.211Z</time>
      </trkpt>
      <trkpt lat="48.0673" lon="6.86228">
        <ele>662</ele>
        <time>2020-10-28T12:14:33.212Z</time>
      </trkpt>
      <trkpt lat="48.06728" lon="6.8623">
        <ele>662</ele>
        <time>2020-10-28T12:14:34.212Z</time>
      </trkpt>
      <trkpt lat="48.06727" lon="6.86231">
        <ele>663</ele>
        <time>2020-10-28T12:14:35.212Z</time>
      </trkpt>
      <trkpt lat="48.06726" lon="6.86232">
        <ele>663</ele>
        <time>2020-10-28T12:14:36.212Z</time>
      </trkpt>
      <trkpt lat="48.06725" lon="6.86233">
        <ele>663</ele>
        <time>2020-10-28T12:14:37.212Z</time>
      </trkpt>
      <trkpt lat="48.06724" lon="6.86235">
        <ele>663</ele>
        <time>2020-10-28T12:14:38.212Z</time>
      </trkpt>
      <trkpt lat="48.06722" lon="6.86237">
        <ele>663</ele>
        <time>2020-10-28T12:14:39.212Z</time>
      </trkpt>
      <trkpt lat="48.06721" lon="6.86238">
        <ele>663</ele>
        <time>2020-10-28T12:14:40.212Z</time>
      </trkpt>
      <trkpt lat="48.0672" lon="6.86241">
        <ele>663</ele>
        <time>2020-10-28T12:14:41.212Z</time>
      </trkpt>
      <trkpt lat="48.06719" lon="6.86242">
        <ele>664</ele>
        <time>2020-10-28T12:14:42.211Z</time>
      </trkpt>
      <trkpt lat="48.06718" lon="6.86244">
        <ele>664</ele>
        <time>2020-10-28T12:14:43.212Z</time>
      </trkpt>
      <trkpt lat="48.06717" lon="6.86246">
        <ele>664</ele>
        <time>2020-10-28T12:14:44.212Z</time>
      </trkpt>
      <trkpt lat="48.06716" lon="6.86247">
        <ele>664</ele>
        <time>2020-10-28T12:14:45.212Z</time>
      </trkpt>
      <trkpt lat="48.06715" lon="6.86249">
        <ele>663</ele>
        <time>2020-10-28T12:14:46.212Z</time>
      </trkpt>
      <trkpt lat="48.06715" lon="6.8625">
        <ele>663</ele>
        <time>2020-10-28T12:14:47.211Z</time>
      </trkpt>
      <trkpt lat="48.06714" lon="6.86252">
        <ele>663</ele>
        <time>2020-10-28T12:14:48.212Z</time>
      </trkpt>
      <trkpt lat="48.06713" lon="6.86254">
        <ele>663</ele>
        <time>2020-10-28T12:14:49.211Z</time>
      </trkpt>
      <trkpt lat="48.06713" lon="6.86255">
        <ele>662</ele>
        <time>2020-10-28T12:14:50.211Z</time>
      </trkpt>
      <trkpt lat="48.06712" lon="6.86257">
        <ele>662</ele>
        <time>2020-10-28T12:14:51.212Z</time>
      </trkpt>
      <trkpt lat="48.06712" lon="6.86258">
        <ele>661</ele>
        <time>2020-10-28T12:14:52.212Z</time>
      </trkpt>
      <trkpt lat="48.06711" lon="6.8626">
        <ele>661</ele>
        <time>2020-10-28T12:14:53.212Z</time>
      </trkpt>
      <trkpt lat="48.06711" lon="6.86262">
        <ele>661</ele>
        <time>2020-10-28T12:14:54.211Z</time>
      </trkpt>
      <trkpt lat="48.0671" lon="6.86264">
        <ele>662</ele>
        <time>2020-10-28T12:14:55.211Z</time>
      </trkpt>
      <trkpt lat="48.0671" lon="6.86266">
        <ele>662</ele>
        <time>2020-10-28T12:14:56.212Z</time>
      </trkpt>
      <trkpt lat="48.0671" lon="6.86267">
        <ele>662</ele>
        <time>2020-10-28T12:14:57.212Z</time>
      </trkpt>
      <trkpt lat="48.0671" lon="6.86269">
        <ele>662</ele>
        <time>2020-10-28T12:14:58.211Z</time>
      </trkpt>
      <trkpt lat="48.06709" lon="6.86271">
        <ele>662</ele>
        <time>2020-10-28T12:14:59.211Z</time>
      </trkpt>
      <trkpt lat="48.06709" lon="6.86273">
        <ele>663</ele>
        <time>2020-10-28T12:15:00.212Z</time>
      </trkpt>
      <trkpt lat="48.06709" lon="6.86275">
        <ele>663</ele>
        <time>2020-10-28T12:15:01.212Z</time>
      </trkpt>
      <trkpt lat="48.06708" lon="6.86277">
        <ele>663</ele>
        <time>2020-10-28T12:15:02.212Z</time>
      </trkpt>
      <trkpt lat="48.06708" lon="6.86279">
        <ele>663</ele>
        <time>2020-10-28T12:15:03.212Z</time>
      </trkpt>
      <trkpt lat="48.06708" lon="6.86281">
        <ele>663</ele>
        <time>2020-10-28T12:15:04.211Z</time>
      </trkpt>
      <trkpt lat="48.06708" lon="6.86283">
        <ele>663</ele>
        <time>2020-10-28T12:15:05.212Z</time>
      </trkpt>
      <trkpt lat="48.06708" lon="6.86284">
        <ele>662</ele>
        <time>2020-10-28T12:15:06.212Z</time>
      </trkpt>
      <trkpt lat="48.06708" lon="6.86286">
        <ele>662</ele>
        <time>2020-10-28T12:15:07.212Z</time>
      </trkpt>
      <trkpt lat="48.06708" lon="6.86288">
        <ele>662</ele>
        <time>2020-10-28T12:15:08.212Z</time>
      </trkpt>
      <trkpt lat="48.06708" lon="6.8629">
        <ele>661</ele>
        <time>2020-10-28T12:15:09.212Z</time>
      </trkpt>
      <trkpt lat="48.06708" lon="6.86292">
        <ele>661</ele>
        <time>2020-10-28T12:15:10.212Z</time>
      </trkpt>
      <trkpt lat="48.06708" lon="6.86294">
        <ele>661</ele>
        <time>2020-10-28T12:15:11.211Z</time>
      </trkpt>
      <trkpt lat="48.06708" lon="6.86295">
        <ele>661</ele>
        <time>2020-10-28T12:15:12.212Z</time>
      </trkpt>
      <trkpt lat="48.06708" lon="6.86297">
        <ele>661</ele>
        <time>2020-10-28T12:15:13.212Z</time>
      </trkpt>
      <trkpt lat="48.06709" lon="6.86299">
        <ele>661</ele>
        <time>2020-10-28T12:15:14.212Z</time>
      </trkpt>
      <trkpt lat="48.06709" lon="6.86301">
        <ele>661</ele>
        <time>2020-10-28T12:15:15.212Z</time>
      </trkpt>
      <trkpt lat="48.0671" lon="6.86303">
        <ele>661</ele>
        <time>2020-10-28T12:15:16.212Z</time>
      </trkpt>
      <trkpt lat="48.06711" lon="6.86305">
        <ele>662</ele>
        <time>2020-10-28T12:15:17.212Z</time>
      </trkpt>
      <trkpt lat="48.06711" lon="6.86307">
        <ele>662</ele>
        <time>2020-10-28T12:15:18.211Z</time>
      </trkpt>
      <trkpt lat="48.06711" lon="6.86309">
        <ele>662</ele>
        <time>2020-10-28T12:15:19.212Z</time>
      </trkpt>
      <trkpt lat="48.06712" lon="6.86311">
        <ele>662</ele>
        <time>2020-10-28T12:15:20.212Z</time>
      </trkpt>
      <trkpt lat="48.06712" lon="6.86313">
        <ele>662</ele>
        <time>2020-10-28T12:15:21.212Z</time>
      </trkpt>
      <trkpt lat="48.06712" lon="6.86316">
        <ele>662</ele>
        <time>2020-10-28T12:15:22.212Z</time>
      </trkpt>
      <trkpt lat="48.06713" lon="6.86318">
        <ele>662</ele>
        <time>2020-10-28T12:15:23.212Z</time>
      </trkpt>
      <trkpt lat="48.06713" lon="6.8632">
        <ele>662</ele>
        <time>2020-10-28T12:15:24.211Z</time>
      </trkpt>
      <trkpt lat="48.06713" lon="6.86322">
        <ele>662</ele>
        <time>2020-10-28T12:15:25.212Z</time>
      </trkpt>
      <trkpt lat="48.06713" lon="6.86325">
        <ele>662</ele>
        <time>2020-10-28T12:15:26.212Z</time>
      </trkpt>
      <trkpt lat="48.06712" lon="6.86327">
        <ele>661</ele>
        <time>2020-10-28T12:15:27.212Z</time>
      </trkpt>
      <trkpt lat="48.06712" lon="6.86329">
        <ele>661</ele>
        <time>2020-10-28T12:15:28.212Z</time>
      </trkpt>
      <trkpt lat="48.06712" lon="6.86331">
        <ele>661</ele>
        <time>2020-10-28T12:15:29.211Z</time>
      </trkpt>
      <trkpt lat="48.06712" lon="6.86334">
        <ele>661</ele>
        <time>2020-10-28T12:15:30.212Z</time>
      </trkpt>
      <trkpt lat="48.06712" lon="6.86336">
        <ele>661</ele>
        <time>2020-10-28T12:15:31.212Z</time>
      </trkpt>
      <trkpt lat="48.06711" lon="6.86338">
        <ele>661</ele>
        <time>2020-10-28T12:15:32.211Z</time>
      </trkpt>
      <trkpt lat="48.06711" lon="6.8634">
        <ele>661</ele>
        <time>2020-10-28T12:15:33.212Z</time>
      </trkpt>
      <trkpt lat="48.06711" lon="6.86343">
        <ele>662</ele>
        <time>2020-10-28T12:15:34.211Z</time>
      </trkpt>
      <trkpt lat="48.06711" lon="6.86345">
        <ele>662</ele>
        <time>2020-10-28T12:15:35.212Z</time>
      </trkpt>
      <trkpt lat="48.06711" lon="6.86347">
        <ele>662</ele>
        <time>2020-10-28T12:15:36.212Z</time>
      </trkpt>
      <trkpt lat="48.0671" lon="6.86349">
        <ele>662</ele>
        <time>2020-10-28T12:15:37.211Z</time>
      </trkpt>
      <trkpt lat="48.06711" lon="6.86351">
        <ele>662</ele>
        <time>2020-10-28T12:15:38.211Z</time>
      </trkpt>
      <trkpt lat="48.06712" lon="6.86353">
        <ele>662</ele>
        <time>2020-10-28T12:15:39.211Z</time>
      </trkpt>
      <trkpt lat="48.06712" lon="6.86355">
        <ele>663</ele>
        <time>2020-10-28T12:15:40.211Z</time>
      </trkpt>
      <trkpt lat="48.06713" lon="6.86357">
        <ele>663</ele>
        <time>2020-10-28T12:15:41.212Z</time>
      </trkpt>
      <trkpt lat="48.06713" lon="6.86359">
        <ele>663</ele>
        <time>2020-10-28T12:15:42.212Z</time>
      </trkpt>
      <trkpt lat="48.06714" lon="6.86361">
        <ele>663</ele>
        <time>2020-10-28T12:15:43.212Z</time>
      </trkpt>
      <trkpt lat="48.06714" lon="6.86363">
        <ele>663</ele>
        <time>2020-10-28T12:15:44.211Z</time>
      </trkpt>
      <trkpt lat="48.06714" lon="6.86365">
        <ele>663</ele>
        <time>2020-10-28T12:15:45.211Z</time>
      </trkpt>
      <trkpt lat="48.06714" lon="6.86366">
        <ele>663</ele>
        <time>2020-10-28T12:15:46.212Z</time>
      </trkpt>
      <trkpt lat="48.06714" lon="6.86367">
        <ele>663</ele>
        <time>2020-10-28T12:15:47.212Z</time>
      </trkpt>
      <trkpt lat="48.06715" lon="6.86369">
        <ele>662</ele>
        <time>2020-10-28T12:15:48.212Z</time>
      </trkpt>
      <trkpt lat="48.06715" lon="6.86371">
        <ele>662</ele>
        <time>2020-10-28T12:15:49.212Z</time>
      </trkpt>
      <trkpt lat="48.06715" lon="6.86373">
        <ele>662</ele>
        <time>2020-10-28T12:15:50.212Z</time>
      </trkpt>
      <trkpt lat="48.06715" lon="6.86374">
        <ele>662</ele>
        <time>2020-10-28T12:15:51.212Z</time>
      </trkpt>
      <trkpt lat="48.06716" lon="6.86376">
        <ele>663</ele>
        <time>2020-10-28T12:15:52.211Z</time>
      </trkpt>
      <trkpt lat="48.06716" lon="6.86378">
        <ele>663</ele>
        <time>2020-10-28T12:15:53.211Z</time>
      </trkpt>
      <trkpt lat="48.06716" lon="6.8638">
        <ele>664</ele>
        <time>2020-10-28T12:15:54.211Z</time>
      </trkpt>
      <trkpt lat="48.06716" lon="6.86382">
        <ele>664</ele>
        <time>2020-10-28T12:15:55.212Z</time>
      </trkpt>
      <trkpt lat="48.06717" lon="6.86384">
        <ele>664</ele>
        <time>2020-10-28T12:15:56.211Z</time>
      </trkpt>
      <trkpt lat="48.06717" lon="6.86386">
        <ele>664</ele>
        <time>2020-10-28T12:15:57.211Z</time>
      </trkpt>
      <trkpt lat="48.06717" lon="6.86388">
        <ele>664</ele>
        <time>2020-10-28T12:15:58.211Z</time>
      </trkpt>
      <trkpt lat="48.06717" lon="6.8639">
        <ele>665</ele>
        <time>2020-10-28T12:15:59.212Z</time>
      </trkpt>
      <trkpt lat="48.06718" lon="6.86392">
        <ele>665</ele>
        <time>2020-10-28T12:16:00.212Z</time>
      </trkpt>
      <trkpt lat="48.06718" lon="6.86394">
        <ele>665</ele>
        <time>2020-10-28T12:16:01.212Z</time>
      </trkpt>
      <trkpt lat="48.06719" lon="6.86396">
        <ele>665</ele>
        <time>2020-10-28T12:16:02.211Z</time>
      </trkpt>
      <trkpt lat="48.06719" lon="6.86398">
        <ele>664</ele>
        <time>2020-10-28T12:16:03.212Z</time>
      </trkpt>
      <trkpt lat="48.06719" lon="6.864">
        <ele>664</ele>
        <time>2020-10-28T12:16:04.212Z</time>
      </trkpt>
      <trkpt lat="48.0672" lon="6.86402">
        <ele>664</ele>
        <time>2020-10-28T12:16:05.212Z</time>
      </trkpt>
      <trkpt lat="48.0672" lon="6.86404">
        <ele>664</ele>
        <time>2020-10-28T12:16:06.211Z</time>
      </trkpt>
      <trkpt lat="48.0672" lon="6.86406">
        <ele>663</ele>
        <time>2020-10-28T12:16:07.211Z</time>
      </trkpt>
      <trkpt lat="48.06721" lon="6.86408">
        <ele>662</ele>
        <time>2020-10-28T12:16:08.211Z</time>
      </trkpt>
      <trkpt lat="48.06721" lon="6.8641">
        <ele>661</ele>
        <time>2020-10-28T12:16:09.212Z</time>
      </trkpt>
      <trkpt lat="48.06722" lon="6.86412">
        <ele>660</ele>
        <time>2020-10-28T12:16:10.211Z</time>
      </trkpt>
      <trkpt lat="48.06722" lon="6.86415">
        <ele>660</ele>
        <time>2020-10-28T12:16:11.212Z</time>
      </trkpt>
      <trkpt lat="48.06723" lon="6.86417">
        <ele>660</ele>
        <time>2020-10-28T12:16:12.212Z</time>
      </trkpt>
      <trkpt lat="48.06723" lon="6.86419">
        <ele>660</ele>
        <time>2020-10-28T12:16:13.212Z</time>
      </trkpt>
      <trkpt lat="48.06724" lon="6.86422">
        <ele>660</ele>
        <time>2020-10-28T12:16:14.212Z</time>
      </trkpt>
      <trkpt lat="48.06724" lon="6.86424">
        <ele>661</ele>
        <time>2020-10-28T12:16:15.212Z</time>
      </trkpt>
      <trkpt lat="48.06725" lon="6.86426">
        <ele>661</ele>
        <time>2020-10-28T12:16:16.211Z</time>
      </trkpt>
      <trkpt lat="48.06725" lon="6.86428">
        <ele>661</ele>
        <time>2020-10-28T12:16:17.212Z</time>
      </trkpt>
      <trkpt lat="48.06726" lon="6.8643">
        <ele>661</ele>
        <time>2020-10-28T12:16:18.212Z</time>
      </trkpt>
      <trkpt lat="48.06726" lon="6.86432">
        <ele>660</ele>
        <time>2020-10-28T12:16:19.212Z</time>
      </trkpt>
      <trkpt lat="48.06726" lon="6.86434">
        <ele>660</ele>
        <time>2020-10-28T12:16:20.212Z</time>
      </trkpt>
      <trkpt lat="48.06727" lon="6.86436">
        <ele>660</ele>
        <time>2020-10-28T12:16:21.211Z</time>
      </trkpt>
      <trkpt lat="48.06727" lon="6.86438">
        <ele>659</ele>
        <time>2020-10-28T12:16:22.211Z</time>
      </trkpt>
      <trkpt lat="48.06728" lon="6.8644">
        <ele>659</ele>
        <time>2020-10-28T12:16:23.212Z</time>
      </trkpt>
      <trkpt lat="48.06728" lon="6.86442">
        <ele>660</ele>
        <time>2020-10-28T12:16:24.212Z</time>
      </trkpt>
      <trkpt lat="48.06729" lon="6.86444">
        <ele>660</ele>
        <time>2020-10-28T12:16:25.212Z</time>
      </trkpt>
      <trkpt lat="48.0673" lon="6.86446">
        <ele>660</ele>
        <time>2020-10-28T12:16:26.212Z</time>
      </trkpt>
      <trkpt lat="48.0673" lon="6.86448">
        <ele>660</ele>
        <time>2020-10-28T12:16:29.334Z</time>
      </trkpt>
      <trkpt lat="48.06731" lon="6.8645">
        <ele>660</ele>
        <time>2020-10-28T12:16:30.333Z</time>
      </trkpt>
      <trkpt lat="48.06731" lon="6.86452">
        <ele>660</ele>
        <time>2020-10-28T12:16:31.334Z</time>
      </trkpt>
      <trkpt lat="48.06732" lon="6.86453">
        <ele>660</ele>
        <time>2020-10-28T12:16:32.334Z</time>
      </trkpt>
      <trkpt lat="48.06733" lon="6.86455">
        <ele>660</ele>
        <time>2020-10-28T12:16:36.467Z</time>
      </trkpt>
      <trkpt lat="48.06733" lon="6.86456">
        <ele>660</ele>
        <time>2020-10-28T12:16:37.468Z</time>
      </trkpt>
      <trkpt lat="48.06734" lon="6.86458">
        <ele>660</ele>
        <time>2020-10-28T12:16:38.468Z</time>
      </trkpt>
      <trkpt lat="48.06733" lon="6.86459">
        <ele>660</ele>
        <time>2020-10-28T12:16:39.468Z</time>
      </trkpt>
      <trkpt lat="48.06734" lon="6.86462">
        <ele>660</ele>
        <time>2020-10-28T12:16:40.467Z</time>
      </trkpt>
      <trkpt lat="48.06734" lon="6.86464">
        <ele>660</ele>
        <time>2020-10-28T12:16:41.468Z</time>
      </trkpt>
      <trkpt lat="48.06735" lon="6.86466">
        <ele>660</ele>
        <time>2020-10-28T12:16:42.468Z</time>
      </trkpt>
      <trkpt lat="48.06735" lon="6.86468">
        <ele>661</ele>
        <time>2020-10-28T12:16:43.467Z</time>
      </trkpt>
      <trkpt lat="48.06736" lon="6.8647">
        <ele>661</ele>
        <time>2020-10-28T12:16:44.467Z</time>
      </trkpt>
      <trkpt lat="48.06736" lon="6.86472">
        <ele>662</ele>
        <time>2020-10-28T12:16:45.467Z</time>
      </trkpt>
      <trkpt lat="48.06737" lon="6.86473">
        <ele>662</ele>
        <time>2020-10-28T12:16:46.468Z</time>
      </trkpt>
      <trkpt lat="48.06738" lon="6.86475">
        <ele>662</ele>
        <time>2020-10-28T12:16:47.467Z</time>
      </trkpt>
      <trkpt lat="48.06739" lon="6.86476">
        <ele>662</ele>
        <time>2020-10-28T12:16:48.468Z</time>
      </trkpt>
      <trkpt lat="48.0674" lon="6.86478">
        <ele>662</ele>
        <time>2020-10-28T12:16:49.468Z</time>
      </trkpt>
      <trkpt lat="48.06741" lon="6.86479">
        <ele>662</ele>
        <time>2020-10-28T12:16:50.468Z</time>
      </trkpt>
      <trkpt lat="48.06742" lon="6.86481">
        <ele>662</ele>
        <time>2020-10-28T12:16:51.467Z</time>
      </trkpt>
      <trkpt lat="48.06743" lon="6.86482">
        <ele>662</ele>
        <time>2020-10-28T12:16:52.468Z</time>
      </trkpt>
      <trkpt lat="48.06743" lon="6.86484">
        <ele>662</ele>
        <time>2020-10-28T12:16:53.467Z</time>
      </trkpt>
      <trkpt lat="48.06744" lon="6.86486">
        <ele>662</ele>
        <time>2020-10-28T12:16:54.467Z</time>
      </trkpt>
      <trkpt lat="48.06744" lon="6.86488">
        <ele>661</ele>
        <time>2020-10-28T12:16:55.467Z</time>
      </trkpt>
      <trkpt lat="48.06745" lon="6.8649">
        <ele>661</ele>
        <time>2020-10-28T12:16:56.468Z</time>
      </trkpt>
      <trkpt lat="48.06746" lon="6.86492">
        <ele>661</ele>
        <time>2020-10-28T12:16:57.467Z</time>
      </trkpt>
      <trkpt lat="48.06746" lon="6.86494">
        <ele>661</ele>
        <time>2020-10-28T12:16:58.467Z</time>
      </trkpt>
      <trkpt lat="48.06747" lon="6.86495">
        <ele>661</ele>
        <time>2020-10-28T12:16:59.468Z</time>
      </trkpt>
      <trkpt lat="48.06747" lon="6.86498">
        <ele>661</ele>
        <time>2020-10-28T12:17:00.467Z</time>
      </trkpt>
      <trkpt lat="48.06748" lon="6.865">
        <ele>661</ele>
        <time>2020-10-28T12:17:01.467Z</time>
      </trkpt>
      <trkpt lat="48.06748" lon="6.86502">
        <ele>661</ele>
        <time>2020-10-28T12:17:02.467Z</time>
      </trkpt>
      <trkpt lat="48.06749" lon="6.86504">
        <ele>661</ele>
        <time>2020-10-28T12:17:03.468Z</time>
      </trkpt>
      <trkpt lat="48.06749" lon="6.86506">
        <ele>661</ele>
        <time>2020-10-28T12:17:04.468Z</time>
      </trkpt>
      <trkpt lat="48.0675" lon="6.86508">
        <ele>662</ele>
        <time>2020-10-28T12:17:05.468Z</time>
      </trkpt>
      <trkpt lat="48.0675" lon="6.86511">
        <ele>662</ele>
        <time>2020-10-28T12:17:06.467Z</time>
      </trkpt>
      <trkpt lat="48.06751" lon="6.86513">
        <ele>662</ele>
        <time>2020-10-28T12:17:07.467Z</time>
      </trkpt>
      <trkpt lat="48.06751" lon="6.86515">
        <ele>663</ele>
        <time>2020-10-28T12:17:08.468Z</time>
      </trkpt>
      <trkpt lat="48.06751" lon="6.86517">
        <ele>663</ele>
        <time>2020-10-28T12:17:09.467Z</time>
      </trkpt>
      <trkpt lat="48.06752" lon="6.86519">
        <ele>663</ele>
        <time>2020-10-28T12:17:10.468Z</time>
      </trkpt>
      <trkpt lat="48.06752" lon="6.86521">
        <ele>663</ele>
        <time>2020-10-28T12:17:11.467Z</time>
      </trkpt>
      <trkpt lat="48.06753" lon="6.86522">
        <ele>662</ele>
        <time>2020-10-28T12:17:12.468Z</time>
      </trkpt>
      <trkpt lat="48.06753" lon="6.86524">
        <ele>662</ele>
        <time>2020-10-28T12:17:13.468Z</time>
      </trkpt>
      <trkpt lat="48.06754" lon="6.86527">
        <ele>662</ele>
        <time>2020-10-28T12:17:14.467Z</time>
      </trkpt>
      <trkpt lat="48.06754" lon="6.86529">
        <ele>662</ele>
        <time>2020-10-28T12:17:15.468Z</time>
      </trkpt>
      <trkpt lat="48.06755" lon="6.86531">
        <ele>662</ele>
        <time>2020-10-28T12:17:16.468Z</time>
      </trkpt>
      <trkpt lat="48.06756" lon="6.86532">
        <ele>662</ele>
        <time>2020-10-28T12:17:17.468Z</time>
      </trkpt>
      <trkpt lat="48.06756" lon="6.86534">
        <ele>662</ele>
        <time>2020-10-28T12:17:18.467Z</time>
      </trkpt>
      <trkpt lat="48.06757" lon="6.86536">
        <ele>662</ele>
        <time>2020-10-28T12:17:19.468Z</time>
      </trkpt>
      <trkpt lat="48.06757" lon="6.86538">
        <ele>661</ele>
        <time>2020-10-28T12:17:20.468Z</time>
      </trkpt>
      <trkpt lat="48.06758" lon="6.8654">
        <ele>661</ele>
        <time>2020-10-28T12:17:21.468Z</time>
      </trkpt>
      <trkpt lat="48.06758" lon="6.86542">
        <ele>661</ele>
        <time>2020-10-28T12:17:22.468Z</time>
      </trkpt>
      <trkpt lat="48.06759" lon="6.86544">
        <ele>660</ele>
        <time>2020-10-28T12:17:28.579Z</time>
      </trkpt>
      <trkpt lat="48.0676" lon="6.86546">
        <ele>660</ele>
        <time>2020-10-28T12:17:29.579Z</time>
      </trkpt>
      <trkpt lat="48.0676" lon="6.86548">
        <ele>660</ele>
        <time>2020-10-28T12:17:32.461Z</time>
      </trkpt>
      <trkpt lat="48.06761" lon="6.8655">
        <ele>660</ele>
        <time>2020-10-28T12:17:33.462Z</time>
      </trkpt>
      <trkpt lat="48.06761" lon="6.86552">
        <ele>660</ele>
        <time>2020-10-28T12:17:34.462Z</time>
      </trkpt>
      <trkpt lat="48.06762" lon="6.86554">
        <ele>661</ele>
        <time>2020-10-28T12:17:35.462Z</time>
      </trkpt>
      <trkpt lat="48.06763" lon="6.86555">
        <ele>661</ele>
        <time>2020-10-28T12:17:36.461Z</time>
      </trkpt>
      <trkpt lat="48.06763" lon="6.86557">
        <ele>662</ele>
        <time>2020-10-28T12:17:37.462Z</time>
      </trkpt>
      <trkpt lat="48.06764" lon="6.86559">
        <ele>662</ele>
        <time>2020-10-28T12:17:38.461Z</time>
      </trkpt>
      <trkpt lat="48.06764" lon="6.86561">
        <ele>662</ele>
        <time>2020-10-28T12:17:39.462Z</time>
      </trkpt>
      <trkpt lat="48.06765" lon="6.86563">
        <ele>662</ele>
        <time>2020-10-28T12:17:41.581Z</time>
      </trkpt>
      <trkpt lat="48.06766" lon="6.86565">
        <ele>662</ele>
        <time>2020-10-28T12:18:27.606Z</time>
      </trkpt>
      <trkpt lat="48.06766" lon="6.86567">
        <ele>662</ele>
        <time>2020-10-28T12:18:28.606Z</time>
      </trkpt>
      <trkpt lat="48.06767" lon="6.86568">
        <ele>662</ele>
        <time>2020-10-28T12:18:29.606Z</time>
      </trkpt>
      <trkpt lat="48.06767" lon="6.8657">
        <ele>662</ele>
        <time>2020-10-28T12:18:30.606Z</time>
      </trkpt>
      <trkpt lat="48.06767" lon="6.86572">
        <ele>662</ele>
        <time>2020-10-28T12:18:31.606Z</time>
      </trkpt>
      <trkpt lat="48.06768" lon="6.86574">
        <ele>663</ele>
        <time>2020-10-28T12:18:32.605Z</time>
      </trkpt>
      <trkpt lat="48.06768" lon="6.86575">
        <ele>663</ele>
        <time>2020-10-28T12:18:33.606Z</time>
      </trkpt>
      <trkpt lat="48.06769" lon="6.86577">
        <ele>663</ele>
        <time>2020-10-28T12:18:34.605Z</time>
      </trkpt>
      <trkpt lat="48.0677" lon="6.86578">
        <ele>663</ele>
        <time>2020-10-28T12:18:35.606Z</time>
      </trkpt>
      <trkpt lat="48.06771" lon="6.8658">
        <ele>663</ele>
        <time>2020-10-28T12:18:36.606Z</time>
      </trkpt>
      <trkpt lat="48.06772" lon="6.86581">
        <ele>663</ele>
        <time>2020-10-28T12:18:37.606Z</time>
      </trkpt>
      <trkpt lat="48.06773" lon="6.86583">
        <ele>663</ele>
        <time>2020-10-28T12:18:38.606Z</time>
      </trkpt>
      <trkpt lat="48.06774" lon="6.86584">
        <ele>663</ele>
        <time>2020-10-28T12:18:39.606Z</time>
      </trkpt>
      <trkpt lat="48.06775" lon="6.86584">
        <ele>662</ele>
        <time>2020-10-28T12:18:40.605Z</time>
      </trkpt>
      <trkpt lat="48.06776" lon="6.86585">
        <ele>662</ele>
        <time>2020-10-28T12:18:41.605Z</time>
      </trkpt>
      <trkpt lat="48.06777" lon="6.86586">
        <ele>662</ele>
        <time>2020-10-28T12:18:42.606Z</time>
      </trkpt>
      <trkpt lat="48.06778" lon="6.86586">
        <ele>662</ele>
        <time>2020-10-28T12:18:43.606Z</time>
      </trkpt>
      <trkpt lat="48.06779" lon="6.86587">
        <ele>661</ele>
        <time>2020-10-28T12:18:44.606Z</time>
      </trkpt>
      <trkpt lat="48.06781" lon="6.86588">
        <ele>661</ele>
        <time>2020-10-28T12:18:45.606Z</time>
      </trkpt>
      <trkpt lat="48.06782" lon="6.86589">
        <ele>661</ele>
        <time>2020-10-28T12:18:46.606Z</time>
      </trkpt>
      <trkpt lat="48.06783" lon="6.8659">
        <ele>661</ele>
        <time>2020-10-28T12:18:47.605Z</time>
      </trkpt>
      <trkpt lat="48.06784" lon="6.8659">
        <ele>661</ele>
        <time>2020-10-28T12:18:48.606Z</time>
      </trkpt>
      <trkpt lat="48.06786" lon="6.86591">
        <ele>661</ele>
        <time>2020-10-28T12:18:49.606Z</time>
      </trkpt>
      <trkpt lat="48.06787" lon="6.86592">
        <ele>661</ele>
        <time>2020-10-28T12:18:50.606Z</time>
      </trkpt>
      <trkpt lat="48.06788" lon="6.86593">
        <ele>660</ele>
        <time>2020-10-28T12:18:51.606Z</time>
      </trkpt>
      <trkpt lat="48.06789" lon="6.86593">
        <ele>661</ele>
        <time>2020-10-28T12:18:52.606Z</time>
      </trkpt>
      <trkpt lat="48.0679" lon="6.86594">
        <ele>661</ele>
        <time>2020-10-28T12:18:53.605Z</time>
      </trkpt>
      <trkpt lat="48.06792" lon="6.86595">
        <ele>661</ele>
        <time>2020-10-28T12:18:54.606Z</time>
      </trkpt>
      <trkpt lat="48.06793" lon="6.86595">
        <ele>661</ele>
        <time>2020-10-28T12:18:55.605Z</time>
      </trkpt>
      <trkpt lat="48.06794" lon="6.86595">
        <ele>661</ele>
        <time>2020-10-28T12:18:56.606Z</time>
      </trkpt>
      <trkpt lat="48.06795" lon="6.86595">
        <ele>662</ele>
        <time>2020-10-28T12:18:57.606Z</time>
      </trkpt>
      <trkpt lat="48.06796" lon="6.86596">
        <ele>662</ele>
        <time>2020-10-28T12:18:58.606Z</time>
      </trkpt>
      <trkpt lat="48.06797" lon="6.86596">
        <ele>662</ele>
        <time>2020-10-28T12:18:59.606Z</time>
      </trkpt>
      <trkpt lat="48.06799" lon="6.86596">
        <ele>661</ele>
        <time>2020-10-28T12:19:00.606Z</time>
      </trkpt>
      <trkpt lat="48.068" lon="6.86597">
        <ele>661</ele>
        <time>2020-10-28T12:19:01.606Z</time>
      </trkpt>
      <trkpt lat="48.06801" lon="6.86597">
        <ele>661</ele>
        <time>2020-10-28T12:19:02.606Z</time>
      </trkpt>
      <trkpt lat="48.06803" lon="6.86598">
        <ele>660</ele>
        <time>2020-10-28T12:19:03.605Z</time>
      </trkpt>
      <trkpt lat="48.06804" lon="6.86598">
        <ele>660</ele>
        <time>2020-10-28T12:19:04.606Z</time>
      </trkpt>
      <trkpt lat="48.06805" lon="6.86598">
        <ele>660</ele>
        <time>2020-10-28T12:19:05.606Z</time>
      </trkpt>
      <trkpt lat="48.06805" lon="6.86598">
        <ele>660</ele>
        <time>2020-10-28T12:19:06.605Z</time>
      </trkpt>
      <trkpt lat="48.06807" lon="6.86598">
        <ele>659</ele>
        <time>2020-10-28T12:19:07.605Z</time>
      </trkpt>
      <trkpt lat="48.06808" lon="6.86598">
        <ele>659</ele>
        <time>2020-10-28T12:19:08.606Z</time>
      </trkpt>
      <trkpt lat="48.06809" lon="6.86598">
        <ele>659</ele>
        <time>2020-10-28T12:19:09.606Z</time>
      </trkpt>
      <trkpt lat="48.0681" lon="6.86597">
        <ele>659</ele>
        <time>2020-10-28T12:19:10.606Z</time>
      </trkpt>
      <trkpt lat="48.06811" lon="6.86596">
        <ele>659</ele>
        <time>2020-10-28T12:19:11.606Z</time>
      </trkpt>
      <trkpt lat="48.06812" lon="6.86595">
        <ele>659</ele>
        <time>2020-10-28T12:19:12.606Z</time>
      </trkpt>
      <trkpt lat="48.06813" lon="6.86594">
        <ele>659</ele>
        <time>2020-10-28T12:19:13.606Z</time>
      </trkpt>
      <trkpt lat="48.06814" lon="6.86593">
        <ele>660</ele>
        <time>2020-10-28T12:19:14.606Z</time>
      </trkpt>
      <trkpt lat="48.06815" lon="6.86592">
        <ele>660</ele>
        <time>2020-10-28T12:19:15.606Z</time>
      </trkpt>
      <trkpt lat="48.06816" lon="6.86591">
        <ele>660</ele>
        <time>2020-10-28T12:19:16.606Z</time>
      </trkpt>
      <trkpt lat="48.06817" lon="6.8659">
        <ele>660</ele>
        <time>2020-10-28T12:19:17.605Z</time>
      </trkpt>
      <trkpt lat="48.06817" lon="6.86589">
        <ele>661</ele>
        <time>2020-10-28T12:19:18.606Z</time>
      </trkpt>
      <trkpt lat="48.06818" lon="6.86588">
        <ele>661</ele>
        <time>2020-10-28T12:19:19.606Z</time>
      </trkpt>
      <trkpt lat="48.06819" lon="6.86587">
        <ele>661</ele>
        <time>2020-10-28T12:19:20.606Z</time>
      </trkpt>
      <trkpt lat="48.0682" lon="6.86586">
        <ele>661</ele>
        <time>2020-10-28T12:19:21.605Z</time>
      </trkpt>
      <trkpt lat="48.06821" lon="6.86585">
        <ele>661</ele>
        <time>2020-10-28T12:19:22.606Z</time>
      </trkpt>
      <trkpt lat="48.06822" lon="6.86584">
        <ele>662</ele>
        <time>2020-10-28T12:19:23.606Z</time>
      </trkpt>
      <trkpt lat="48.06822" lon="6.86583">
        <ele>662</ele>
        <time>2020-10-28T12:19:24.606Z</time>
      </trkpt>
      <trkpt lat="48.06823" lon="6.86581">
        <ele>662</ele>
        <time>2020-10-28T12:19:25.606Z</time>
      </trkpt>
      <trkpt lat="48.06823" lon="6.8658">
        <ele>662</ele>
        <time>2020-10-28T12:19:26.606Z</time>
      </trkpt>
      <trkpt lat="48.06823" lon="6.8658">
        <ele>662</ele>
        <time>2020-10-28T12:19:27.605Z</time>
      </trkpt>
      <trkpt lat="48.06823" lon="6.8658">
        <ele>663</ele>
        <time>2020-10-28T12:19:28.606Z</time>
      </trkpt>
      <trkpt lat="48.06826" lon="6.86583">
        <ele>668</ele>
        <time>2020-10-28T12:19:29.607Z</time>
      </trkpt>
      <trkpt lat="48.06827" lon="6.86584">
        <ele>667</ele>
        <time>2020-10-28T12:19:30.607Z</time>
      </trkpt>
      <trkpt lat="48.06828" lon="6.86585">
        <ele>667</ele>
        <time>2020-10-28T12:19:31.606Z</time>
      </trkpt>
      <trkpt lat="48.0683" lon="6.86587">
        <ele>667</ele>
        <time>2020-10-28T12:19:32.606Z</time>
      </trkpt>
      <trkpt lat="48.06832" lon="6.86588">
        <ele>666</ele>
        <time>2020-10-28T12:19:33.607Z</time>
      </trkpt>
      <trkpt lat="48.06833" lon="6.8659">
        <ele>665</ele>
        <time>2020-10-28T12:19:34.607Z</time>
      </trkpt>
      <trkpt lat="48.06835" lon="6.86592">
        <ele>665</ele>
        <time>2020-10-28T12:19:35.606Z</time>
      </trkpt>
      <trkpt lat="48.06837" lon="6.86594">
        <ele>664</ele>
        <time>2020-10-28T12:19:36.607Z</time>
      </trkpt>
      <trkpt lat="48.06837" lon="6.86596">
        <ele>664</ele>
        <time>2020-10-28T12:19:37.607Z</time>
      </trkpt>
      <trkpt lat="48.06838" lon="6.86597">
        <ele>664</ele>
        <time>2020-10-28T12:19:38.606Z</time>
      </trkpt>
      <trkpt lat="48.06839" lon="6.86599">
        <ele>663</ele>
        <time>2020-10-28T12:19:39.607Z</time>
      </trkpt>
      <trkpt lat="48.0684" lon="6.866">
        <ele>663</ele>
        <time>2020-10-28T12:19:40.606Z</time>
      </trkpt>
      <trkpt lat="48.06841" lon="6.86602">
        <ele>663</ele>
        <time>2020-10-28T12:19:41.607Z</time>
      </trkpt>
      <trkpt lat="48.06842" lon="6.86603">
        <ele>663</ele>
        <time>2020-10-28T12:19:42.607Z</time>
      </trkpt>
      <trkpt lat="48.06843" lon="6.86604">
        <ele>663</ele>
        <time>2020-10-28T12:19:43.607Z</time>
      </trkpt>
      <trkpt lat="48.06844" lon="6.86606">
        <ele>664</ele>
        <time>2020-10-28T12:19:44.607Z</time>
      </trkpt>
      <trkpt lat="48.06845" lon="6.86607">
        <ele>664</ele>
        <time>2020-10-28T12:19:45.606Z</time>
      </trkpt>
      <trkpt lat="48.06847" lon="6.86608">
        <ele>664</ele>
        <time>2020-10-28T12:19:46.607Z</time>
      </trkpt>
      <trkpt lat="48.06848" lon="6.86609">
        <ele>664</ele>
        <time>2020-10-28T12:19:47.607Z</time>
      </trkpt>
      <trkpt lat="48.06849" lon="6.86611">
        <ele>663</ele>
        <time>2020-10-28T12:19:48.606Z</time>
      </trkpt>
      <trkpt lat="48.0685" lon="6.86612">
        <ele>663</ele>
        <time>2020-10-28T12:19:49.607Z</time>
      </trkpt>
      <trkpt lat="48.06851" lon="6.86613">
        <ele>662</ele>
        <time>2020-10-28T12:19:50.607Z</time>
      </trkpt>
      <trkpt lat="48.06853" lon="6.86614">
        <ele>662</ele>
        <time>2020-10-28T12:19:51.607Z</time>
      </trkpt>
      <trkpt lat="48.06854" lon="6.86615">
        <ele>662</ele>
        <time>2020-10-28T12:19:52.607Z</time>
      </trkpt>
      <trkpt lat="48.06855" lon="6.86615">
        <ele>662</ele>
        <time>2020-10-28T12:19:53.607Z</time>
      </trkpt>
      <trkpt lat="48.06856" lon="6.86616">
        <ele>662</ele>
        <time>2020-10-28T12:19:54.606Z</time>
      </trkpt>
      <trkpt lat="48.06857" lon="6.86617">
        <ele>661</ele>
        <time>2020-10-28T12:19:55.607Z</time>
      </trkpt>
      <trkpt lat="48.06858" lon="6.86618">
        <ele>661</ele>
        <time>2020-10-28T12:19:56.607Z</time>
      </trkpt>
      <trkpt lat="48.06858" lon="6.86619">
        <ele>661</ele>
        <time>2020-10-28T12:19:57.607Z</time>
      </trkpt>
      <trkpt lat="48.06859" lon="6.86619">
        <ele>661</ele>
        <time>2020-10-28T12:19:58.607Z</time>
      </trkpt>
      <trkpt lat="48.0686" lon="6.8662">
        <ele>661</ele>
        <time>2020-10-28T12:19:59.606Z</time>
      </trkpt>
      <trkpt lat="48.06861" lon="6.8662">
        <ele>662</ele>
        <time>2020-10-28T12:20:00.606Z</time>
      </trkpt>
      <trkpt lat="48.06862" lon="6.86621">
        <ele>662</ele>
        <time>2020-10-28T12:20:01.607Z</time>
      </trkpt>
      <trkpt lat="48.06864" lon="6.86621">
        <ele>662</ele>
        <time>2020-10-28T12:20:02.606Z</time>
      </trkpt>
      <trkpt lat="48.06865" lon="6.86622">
        <ele>662</ele>
        <time>2020-10-28T12:20:03.607Z</time>
      </trkpt>
      <trkpt lat="48.06866" lon="6.86623">
        <ele>662</ele>
        <time>2020-10-28T12:20:04.606Z</time>
      </trkpt>
      <trkpt lat="48.06867" lon="6.86623">
        <ele>662</ele>
        <time>2020-10-28T12:20:05.607Z</time>
      </trkpt>
      <trkpt lat="48.06868" lon="6.86624">
        <ele>662</ele>
        <time>2020-10-28T12:20:06.607Z</time>
      </trkpt>
      <trkpt lat="48.06869" lon="6.86625">
        <ele>662</ele>
        <time>2020-10-28T12:20:07.606Z</time>
      </trkpt>
      <trkpt lat="48.06871" lon="6.86625">
        <ele>662</ele>
        <time>2020-10-28T12:20:08.607Z</time>
      </trkpt>
      <trkpt lat="48.06872" lon="6.86626">
        <ele>662</ele>
        <time>2020-10-28T12:20:09.606Z</time>
      </trkpt>
      <trkpt lat="48.06873" lon="6.86627">
        <ele>661</ele>
        <time>2020-10-28T12:20:10.607Z</time>
      </trkpt>
      <trkpt lat="48.06875" lon="6.86628">
        <ele>661</ele>
        <time>2020-10-28T12:20:11.607Z</time>
      </trkpt>
      <trkpt lat="48.06876" lon="6.86629">
        <ele>661</ele>
        <time>2020-10-28T12:20:12.607Z</time>
      </trkpt>
      <trkpt lat="48.06877" lon="6.8663">
        <ele>661</ele>
        <time>2020-10-28T12:20:13.607Z</time>
      </trkpt>
      <trkpt lat="48.06878" lon="6.86631">
        <ele>661</ele>
        <time>2020-10-28T12:20:14.607Z</time>
      </trkpt>
      <trkpt lat="48.06879" lon="6.86632">
        <ele>661</ele>
        <time>2020-10-28T12:20:15.607Z</time>
      </trkpt>
      <trkpt lat="48.0688" lon="6.86632">
        <ele>661</ele>
        <time>2020-10-28T12:20:16.607Z</time>
      </trkpt>
      <trkpt lat="48.06881" lon="6.86633">
        <ele>661</ele>
        <time>2020-10-28T12:20:17.607Z</time>
      </trkpt>
      <trkpt lat="48.06882" lon="6.86634">
        <ele>661</ele>
        <time>2020-10-28T12:20:18.606Z</time>
      </trkpt>
      <trkpt lat="48.06884" lon="6.86635">
        <ele>661</ele>
        <time>2020-10-28T12:20:19.606Z</time>
      </trkpt>
      <trkpt lat="48.06885" lon="6.86635">
        <ele>661</ele>
        <time>2020-10-28T12:20:20.607Z</time>
      </trkpt>
      <trkpt lat="48.06886" lon="6.86636">
        <ele>661</ele>
        <time>2020-10-28T12:20:21.607Z</time>
      </trkpt>
      <trkpt lat="48.06887" lon="6.86636">
        <ele>661</ele>
        <time>2020-10-28T12:20:22.607Z</time>
      </trkpt>
      <trkpt lat="48.06889" lon="6.86637">
        <ele>660</ele>
        <time>2020-10-28T12:20:23.607Z</time>
      </trkpt>
      <trkpt lat="48.06891" lon="6.86638">
        <ele>661</ele>
        <time>2020-10-28T12:20:24.606Z</time>
      </trkpt>
      <trkpt lat="48.06892" lon="6.86639">
        <ele>661</ele>
        <time>2020-10-28T12:20:25.607Z</time>
      </trkpt>
      <trkpt lat="48.06894" lon="6.8664">
        <ele>661</ele>
        <time>2020-10-28T12:20:26.607Z</time>
      </trkpt>
      <trkpt lat="48.06896" lon="6.86641">
        <ele>661</ele>
        <time>2020-10-28T12:20:27.606Z</time>
      </trkpt>
      <trkpt lat="48.06897" lon="6.86642">
        <ele>661</ele>
        <time>2020-10-28T12:20:28.607Z</time>
      </trkpt>
      <trkpt lat="48.06898" lon="6.86642">
        <ele>660</ele>
        <time>2020-10-28T12:20:29.606Z</time>
      </trkpt>
      <trkpt lat="48.069" lon="6.86643">
        <ele>660</ele>
        <time>2020-10-28T12:20:30.606Z</time>
      </trkpt>
      <trkpt lat="48.06901" lon="6.86644">
        <ele>660</ele>
        <time>2020-10-28T12:20:31.606Z</time>
      </trkpt>
      <trkpt lat="48.06902" lon="6.86644">
        <ele>660</ele>
        <time>2020-10-28T12:20:32.606Z</time>
      </trkpt>
      <trkpt lat="48.06904" lon="6.86645">
        <ele>660</ele>
        <time>2020-10-28T12:20:33.607Z</time>
      </trkpt>
      <trkpt lat="48.06905" lon="6.86645">
        <ele>660</ele>
        <time>2020-10-28T12:20:34.606Z</time>
      </trkpt>
      <trkpt lat="48.06906" lon="6.86645">
        <ele>660</ele>
        <time>2020-10-28T12:20:35.606Z</time>
      </trkpt>
      <trkpt lat="48.06908" lon="6.86645">
        <ele>660</ele>
        <time>2020-10-28T12:20:36.607Z</time>
      </trkpt>
      <trkpt lat="48.06909" lon="6.86646">
        <ele>660</ele>
        <time>2020-10-28T12:20:37.607Z</time>
      </trkpt>
      <trkpt lat="48.0691" lon="6.86646">
        <ele>660</ele>
        <time>2020-10-28T12:20:38.607Z</time>
      </trkpt>
      <trkpt lat="48.06911" lon="6.86646">
        <ele>660</ele>
        <time>2020-10-28T12:20:39.606Z</time>
      </trkpt>
      <trkpt lat="48.06913" lon="6.86647">
        <ele>660</ele>
        <time>2020-10-28T12:20:40.607Z</time>
      </trkpt>
      <trkpt lat="48.06914" lon="6.86647">
        <ele>660</ele>
        <time>2020-10-28T12:20:41.606Z</time>
      </trkpt>
      <trkpt lat="48.06915" lon="6.86648">
        <ele>660</ele>
        <time>2020-10-28T12:20:42.607Z</time>
      </trkpt>
      <trkpt lat="48.06917" lon="6.86648">
        <ele>659</ele>
        <time>2020-10-28T12:20:43.607Z</time>
      </trkpt>
      <trkpt lat="48.06918" lon="6.86649">
        <ele>659</ele>
        <time>2020-10-28T12:20:44.607Z</time>
      </trkpt>
      <trkpt lat="48.06919" lon="6.86649">
        <ele>659</ele>
        <time>2020-10-28T12:20:45.606Z</time>
      </trkpt>
      <trkpt lat="48.0692" lon="6.8665">
        <ele>659</ele>
        <time>2020-10-28T12:20:46.606Z</time>
      </trkpt>
      <trkpt lat="48.06921" lon="6.8665">
        <ele>659</ele>
        <time>2020-10-28T12:20:47.606Z</time>
      </trkpt>
      <trkpt lat="48.06922" lon="6.86651">
        <ele>659</ele>
        <time>2020-10-28T12:20:48.607Z</time>
      </trkpt>
      <trkpt lat="48.06924" lon="6.86652">
        <ele>659</ele>
        <time>2020-10-28T12:20:49.606Z</time>
      </trkpt>
      <trkpt lat="48.06925" lon="6.86652">
        <ele>658</ele>
        <time>2020-10-28T12:20:50.607Z</time>
      </trkpt>
      <trkpt lat="48.06926" lon="6.86653">
        <ele>658</ele>
        <time>2020-10-28T12:20:51.607Z</time>
      </trkpt>
      <trkpt lat="48.06927" lon="6.86653">
        <ele>657</ele>
        <time>2020-10-28T12:20:52.606Z</time>
      </trkpt>
      <trkpt lat="48.06928" lon="6.86654">
        <ele>657</ele>
        <time>2020-10-28T12:20:53.606Z</time>
      </trkpt>
      <trkpt lat="48.06929" lon="6.86654">
        <ele>657</ele>
        <time>2020-10-28T12:20:54.607Z</time>
      </trkpt>
      <trkpt lat="48.0693" lon="6.86654">
        <ele>657</ele>
        <time>2020-10-28T12:20:55.607Z</time>
      </trkpt>
      <trkpt lat="48.06931" lon="6.86655">
        <ele>657</ele>
        <time>2020-10-28T12:20:56.606Z</time>
      </trkpt>
      <trkpt lat="48.06932" lon="6.86655">
        <ele>657</ele>
        <time>2020-10-28T12:20:57.607Z</time>
      </trkpt>
      <trkpt lat="48.06933" lon="6.86655">
        <ele>657</ele>
        <time>2020-10-28T12:20:58.607Z</time>
      </trkpt>
      <trkpt lat="48.06934" lon="6.86656">
        <ele>657</ele>
        <time>2020-10-28T12:20:59.607Z</time>
      </trkpt>
      <trkpt lat="48.06936" lon="6.86656">
        <ele>657</ele>
        <time>2020-10-28T12:21:00.607Z</time>
      </trkpt>
      <trkpt lat="48.06937" lon="6.86657">
        <ele>657</ele>
        <time>2020-10-28T12:21:01.607Z</time>
      </trkpt>
      <trkpt lat="48.06938" lon="6.86657">
        <ele>657</ele>
        <time>2020-10-28T12:21:02.607Z</time>
      </trkpt>
      <trkpt lat="48.0694" lon="6.86657">
        <ele>657</ele>
        <time>2020-10-28T12:21:03.606Z</time>
      </trkpt>
      <trkpt lat="48.06941" lon="6.86657">
        <ele>656</ele>
        <time>2020-10-28T12:21:04.606Z</time>
      </trkpt>
      <trkpt lat="48.06943" lon="6.86657">
        <ele>657</ele>
        <time>2020-10-28T12:21:05.607Z</time>
      </trkpt>
      <trkpt lat="48.06944" lon="6.86658">
        <ele>657</ele>
        <time>2020-10-28T12:21:06.607Z</time>
      </trkpt>
      <trkpt lat="48.06945" lon="6.86658">
        <ele>657</ele>
        <time>2020-10-28T12:21:07.606Z</time>
      </trkpt>
      <trkpt lat="48.06946" lon="6.86658">
        <ele>657</ele>
        <time>2020-10-28T12:21:08.607Z</time>
      </trkpt>
      <trkpt lat="48.06948" lon="6.86659">
        <ele>657</ele>
        <time>2020-10-28T12:21:09.607Z</time>
      </trkpt>
      <trkpt lat="48.06949" lon="6.86659">
        <ele>657</ele>
        <time>2020-10-28T12:21:10.606Z</time>
      </trkpt>
      <trkpt lat="48.0695" lon="6.86659">
        <ele>658</ele>
        <time>2020-10-28T12:21:11.607Z</time>
      </trkpt>
      <trkpt lat="48.06951" lon="6.86659">
        <ele>658</ele>
        <time>2020-10-28T12:21:12.607Z</time>
      </trkpt>
      <trkpt lat="48.06952" lon="6.86659">
        <ele>658</ele>
        <time>2020-10-28T12:21:13.606Z</time>
      </trkpt>
      <trkpt lat="48.06954" lon="6.86659">
        <ele>658</ele>
        <time>2020-10-28T12:21:14.607Z</time>
      </trkpt>
      <trkpt lat="48.06955" lon="6.86659">
        <ele>658</ele>
        <time>2020-10-28T12:21:15.607Z</time>
      </trkpt>
      <trkpt lat="48.06957" lon="6.8666">
        <ele>658</ele>
        <time>2020-10-28T12:21:16.606Z</time>
      </trkpt>
      <trkpt lat="48.06958" lon="6.86659">
        <ele>658</ele>
        <time>2020-10-28T12:21:17.606Z</time>
      </trkpt>
      <trkpt lat="48.06959" lon="6.86659">
        <ele>658</ele>
        <time>2020-10-28T12:21:18.607Z</time>
      </trkpt>
      <trkpt lat="48.0696" lon="6.86659">
        <ele>658</ele>
        <time>2020-10-28T12:21:19.607Z</time>
      </trkpt>
      <trkpt lat="48.06961" lon="6.8666">
        <ele>658</ele>
        <time>2020-10-28T12:21:20.607Z</time>
      </trkpt>
      <trkpt lat="48.06962" lon="6.8666">
        <ele>659</ele>
        <time>2020-10-28T12:21:21.606Z</time>
      </trkpt>
      <trkpt lat="48.06964" lon="6.8666">
        <ele>659</ele>
        <time>2020-10-28T12:21:22.606Z</time>
      </trkpt>
      <trkpt lat="48.06965" lon="6.8666">
        <ele>659</ele>
        <time>2020-10-28T12:21:23.606Z</time>
      </trkpt>
      <trkpt lat="48.06967" lon="6.8666">
        <ele>660</ele>
        <time>2020-10-28T12:21:24.606Z</time>
      </trkpt>
      <trkpt lat="48.06968" lon="6.86661">
        <ele>660</ele>
        <time>2020-10-28T12:21:25.607Z</time>
      </trkpt>
      <trkpt lat="48.0697" lon="6.86661">
        <ele>660</ele>
        <time>2020-10-28T12:21:26.606Z</time>
      </trkpt>
      <trkpt lat="48.06971" lon="6.86662">
        <ele>660</ele>
        <time>2020-10-28T12:21:27.606Z</time>
      </trkpt>
      <trkpt lat="48.06972" lon="6.86663">
        <ele>660</ele>
        <time>2020-10-28T12:21:28.607Z</time>
      </trkpt>
      <trkpt lat="48.06973" lon="6.86663">
        <ele>660</ele>
        <time>2020-10-28T12:21:29.607Z</time>
      </trkpt>
      <trkpt lat="48.06975" lon="6.86663">
        <ele>659</ele>
        <time>2020-10-28T12:21:30.607Z</time>
      </trkpt>
      <trkpt lat="48.06977" lon="6.86664">
        <ele>658</ele>
        <time>2020-10-28T12:21:31.606Z</time>
      </trkpt>
      <trkpt lat="48.06979" lon="6.86665">
        <ele>657</ele>
        <time>2020-10-28T12:21:32.607Z</time>
      </trkpt>
      <trkpt lat="48.0698" lon="6.86665">
        <ele>657</ele>
        <time>2020-10-28T12:21:33.607Z</time>
      </trkpt>
      <trkpt lat="48.06981" lon="6.86666">
        <ele>656</ele>
        <time>2020-10-28T12:21:34.606Z</time>
      </trkpt>
      <trkpt lat="48.06983" lon="6.86666">
        <ele>656</ele>
        <time>2020-10-28T12:21:35.607Z</time>
      </trkpt>
      <trkpt lat="48.06984" lon="6.86667">
        <ele>656</ele>
        <time>2020-10-28T12:21:36.607Z</time>
      </trkpt>
      <trkpt lat="48.06985" lon="6.86667">
        <ele>656</ele>
        <time>2020-10-28T12:21:37.607Z</time>
      </trkpt>
      <trkpt lat="48.06987" lon="6.86667">
        <ele>657</ele>
        <time>2020-10-28T12:21:38.607Z</time>
      </trkpt>
      <trkpt lat="48.06988" lon="6.86668">
        <ele>657</ele>
        <time>2020-10-28T12:21:39.607Z</time>
      </trkpt>
      <trkpt lat="48.0699" lon="6.86667">
        <ele>658</ele>
        <time>2020-10-28T12:21:40.607Z</time>
      </trkpt>
      <trkpt lat="48.06991" lon="6.86668">
        <ele>659</ele>
        <time>2020-10-28T12:21:41.607Z</time>
      </trkpt>
      <trkpt lat="48.06992" lon="6.86668">
        <ele>659</ele>
        <time>2020-10-28T12:21:42.607Z</time>
      </trkpt>
      <trkpt lat="48.06993" lon="6.86668">
        <ele>660</ele>
        <time>2020-10-28T12:21:43.607Z</time>
      </trkpt>
      <trkpt lat="48.06994" lon="6.86669">
        <ele>661</ele>
        <time>2020-10-28T12:21:44.607Z</time>
      </trkpt>
      <trkpt lat="48.06995" lon="6.86669">
        <ele>661</ele>
        <time>2020-10-28T12:21:45.606Z</time>
      </trkpt>
      <trkpt lat="48.06997" lon="6.86669">
        <ele>662</ele>
        <time>2020-10-28T12:21:46.607Z</time>
      </trkpt>
      <trkpt lat="48.06998" lon="6.86669">
        <ele>662</ele>
        <time>2020-10-28T12:21:47.607Z</time>
      </trkpt>
      <trkpt lat="48.07" lon="6.86669">
        <ele>662</ele>
        <time>2020-10-28T12:21:48.607Z</time>
      </trkpt>
      <trkpt lat="48.07001" lon="6.86669">
        <ele>663</ele>
        <time>2020-10-28T12:21:49.607Z</time>
      </trkpt>
      <trkpt lat="48.07002" lon="6.86669">
        <ele>663</ele>
        <time>2020-10-28T12:21:50.607Z</time>
      </trkpt>
      <trkpt lat="48.07004" lon="6.8667">
        <ele>664</ele>
        <time>2020-10-28T12:21:51.607Z</time>
      </trkpt>
      <trkpt lat="48.07005" lon="6.8667">
        <ele>664</ele>
        <time>2020-10-28T12:21:52.607Z</time>
      </trkpt>
      <trkpt lat="48.07006" lon="6.86671">
        <ele>664</ele>
        <time>2020-10-28T12:21:53.606Z</time>
      </trkpt>
      <trkpt lat="48.07008" lon="6.86672">
        <ele>664</ele>
        <time>2020-10-28T12:21:54.606Z</time>
      </trkpt>
      <trkpt lat="48.07009" lon="6.86672">
        <ele>664</ele>
        <time>2020-10-28T12:21:55.607Z</time>
      </trkpt>
      <trkpt lat="48.0701" lon="6.86673">
        <ele>664</ele>
        <time>2020-10-28T12:21:56.607Z</time>
      </trkpt>
      <trkpt lat="48.07011" lon="6.86673">
        <ele>664</ele>
        <time>2020-10-28T12:21:57.607Z</time>
      </trkpt>
      <trkpt lat="48.07012" lon="6.86674">
        <ele>664</ele>
        <time>2020-10-28T12:21:58.606Z</time>
      </trkpt>
      <trkpt lat="48.07013" lon="6.86674">
        <ele>663</ele>
        <time>2020-10-28T12:21:59.606Z</time>
      </trkpt>
      <trkpt lat="48.07014" lon="6.86674">
        <ele>663</ele>
        <time>2020-10-28T12:22:00.606Z</time>
      </trkpt>
      <trkpt lat="48.07015" lon="6.86674">
        <ele>663</ele>
        <time>2020-10-28T12:22:01.607Z</time>
      </trkpt>
      <trkpt lat="48.07016" lon="6.86674">
        <ele>663</ele>
        <time>2020-10-28T12:22:02.607Z</time>
      </trkpt>
      <trkpt lat="48.07017" lon="6.86674">
        <ele>663</ele>
        <time>2020-10-28T12:22:03.606Z</time>
      </trkpt>
      <trkpt lat="48.07018" lon="6.86674">
        <ele>663</ele>
        <time>2020-10-28T12:22:04.607Z</time>
      </trkpt>
      <trkpt lat="48.0702" lon="6.86674">
        <ele>663</ele>
        <time>2020-10-28T12:22:05.607Z</time>
      </trkpt>
      <trkpt lat="48.07021" lon="6.86674">
        <ele>663</ele>
        <time>2020-10-28T12:22:06.606Z</time>
      </trkpt>
      <trkpt lat="48.07022" lon="6.86674">
        <ele>663</ele>
        <time>2020-10-28T12:22:07.606Z</time>
      </trkpt>
      <trkpt lat="48.07023" lon="6.86674">
        <ele>663</ele>
        <time>2020-10-28T12:22:08.606Z</time>
      </trkpt>
      <trkpt lat="48.07024" lon="6.86674">
        <ele>663</ele>
        <time>2020-10-28T12:22:09.607Z</time>
      </trkpt>
      <trkpt lat="48.07025" lon="6.86674">
        <ele>662</ele>
        <time>2020-10-28T12:22:10.607Z</time>
      </trkpt>
      <trkpt lat="48.07027" lon="6.86673">
        <ele>662</ele>
        <time>2020-10-28T12:22:11.606Z</time>
      </trkpt>
      <trkpt lat="48.07028" lon="6.86673">
        <ele>662</ele>
        <time>2020-10-28T12:22:12.606Z</time>
      </trkpt>
      <trkpt lat="48.07029" lon="6.86673">
        <ele>662</ele>
        <time>2020-10-28T12:22:13.607Z</time>
      </trkpt>
      <trkpt lat="48.07031" lon="6.86673">
        <ele>662</ele>
        <time>2020-10-28T12:22:14.606Z</time>
      </trkpt>
      <trkpt lat="48.07032" lon="6.86674">
        <ele>662</ele>
        <time>2020-10-28T12:22:15.606Z</time>
      </trkpt>
      <trkpt lat="48.07033" lon="6.86674">
        <ele>662</ele>
        <time>2020-10-28T12:22:16.607Z</time>
      </trkpt>
      <trkpt lat="48.07034" lon="6.86675">
        <ele>661</ele>
        <time>2020-10-28T12:22:17.607Z</time>
      </trkpt>
      <trkpt lat="48.07036" lon="6.86675">
        <ele>661</ele>
        <time>2020-10-28T12:22:18.607Z</time>
      </trkpt>
      <trkpt lat="48.07037" lon="6.86676">
        <ele>661</ele>
        <time>2020-10-28T12:22:19.607Z</time>
      </trkpt>
      <trkpt lat="48.07039" lon="6.86676">
        <ele>661</ele>
        <time>2020-10-28T12:22:20.607Z</time>
      </trkpt>
      <trkpt lat="48.0704" lon="6.86676">
        <ele>661</ele>
        <time>2020-10-28T12:22:21.607Z</time>
      </trkpt>
      <trkpt lat="48.07042" lon="6.86677">
        <ele>661</ele>
        <time>2020-10-28T12:22:22.607Z</time>
      </trkpt>
      <trkpt lat="48.07043" lon="6.86677">
        <ele>661</ele>
        <time>2020-10-28T12:22:23.607Z</time>
      </trkpt>
      <trkpt lat="48.07044" lon="6.86677">
        <ele>660</ele>
        <time>2020-10-28T12:22:24.607Z</time>
      </trkpt>
      <trkpt lat="48.07045" lon="6.86677">
        <ele>660</ele>
        <time>2020-10-28T12:22:25.607Z</time>
      </trkpt>
      <trkpt lat="48.07047" lon="6.86678">
        <ele>660</ele>
        <time>2020-10-28T12:22:26.607Z</time>
      </trkpt>
      <trkpt lat="48.07048" lon="6.86679">
        <ele>660</ele>
        <time>2020-10-28T12:22:27.606Z</time>
      </trkpt>
      <trkpt lat="48.07049" lon="6.86679">
        <ele>660</ele>
        <time>2020-10-28T12:22:28.607Z</time>
      </trkpt>
      <trkpt lat="48.07051" lon="6.86679">
        <ele>660</ele>
        <time>2020-10-28T12:22:29.606Z</time>
      </trkpt>
      <trkpt lat="48.07052" lon="6.86679">
        <ele>660</ele>
        <time>2020-10-28T12:22:30.607Z</time>
      </trkpt>
      <trkpt lat="48.07053" lon="6.8668">
        <ele>661</ele>
        <time>2020-10-28T12:22:31.607Z</time>
      </trkpt>
      <trkpt lat="48.07054" lon="6.86681">
        <ele>661</ele>
        <time>2020-10-28T12:22:32.607Z</time>
      </trkpt>
      <trkpt lat="48.07055" lon="6.86681">
        <ele>661</ele>
        <time>2020-10-28T12:22:33.607Z</time>
      </trkpt>
      <trkpt lat="48.07057" lon="6.86682">
        <ele>661</ele>
        <time>2020-10-28T12:22:34.606Z</time>
      </trkpt>
      <trkpt lat="48.0706" lon="6.86683">
        <ele>662</ele>
        <time>2020-10-28T12:22:35.607Z</time>
      </trkpt>
      <trkpt lat="48.07061" lon="6.86683">
        <ele>661</ele>
        <time>2020-10-28T12:22:36.607Z</time>
      </trkpt>
      <trkpt lat="48.07063" lon="6.86683">
        <ele>662</ele>
        <time>2020-10-28T12:22:37.606Z</time>
      </trkpt>
      <trkpt lat="48.07064" lon="6.86684">
        <ele>662</ele>
        <time>2020-10-28T12:22:38.606Z</time>
      </trkpt>
      <trkpt lat="48.07065" lon="6.86684">
        <ele>661</ele>
        <time>2020-10-28T12:22:39.606Z</time>
      </trkpt>
      <trkpt lat="48.07067" lon="6.86684">
        <ele>661</ele>
        <time>2020-10-28T12:22:40.607Z</time>
      </trkpt>
      <trkpt lat="48.07068" lon="6.86685">
        <ele>660</ele>
        <time>2020-10-28T12:22:41.607Z</time>
      </trkpt>
      <trkpt lat="48.07069" lon="6.86685">
        <ele>660</ele>
        <time>2020-10-28T12:22:42.607Z</time>
      </trkpt>
      <trkpt lat="48.07071" lon="6.86685">
        <ele>660</ele>
        <time>2020-10-28T12:22:43.607Z</time>
      </trkpt>
      <trkpt lat="48.07072" lon="6.86685">
        <ele>660</ele>
        <time>2020-10-28T12:22:44.607Z</time>
      </trkpt>
      <trkpt lat="48.07073" lon="6.86685">
        <ele>660</ele>
        <time>2020-10-28T12:22:45.606Z</time>
      </trkpt>
      <trkpt lat="48.07075" lon="6.86686">
        <ele>660</ele>
        <time>2020-10-28T12:22:46.607Z</time>
      </trkpt>
      <trkpt lat="48.07076" lon="6.86687">
        <ele>660</ele>
        <time>2020-10-28T12:22:47.606Z</time>
      </trkpt>
      <trkpt lat="48.07078" lon="6.86687">
        <ele>660</ele>
        <time>2020-10-28T12:22:48.606Z</time>
      </trkpt>
      <trkpt lat="48.07079" lon="6.86688">
        <ele>659</ele>
        <time>2020-10-28T12:22:49.606Z</time>
      </trkpt>
      <trkpt lat="48.07081" lon="6.86689">
        <ele>659</ele>
        <time>2020-10-28T12:22:50.607Z</time>
      </trkpt>
      <trkpt lat="48.07082" lon="6.86689">
        <ele>659</ele>
        <time>2020-10-28T12:22:51.607Z</time>
      </trkpt>
      <trkpt lat="48.07083" lon="6.86689">
        <ele>659</ele>
        <time>2020-10-28T12:22:52.607Z</time>
      </trkpt>
      <trkpt lat="48.07084" lon="6.8669">
        <ele>659</ele>
        <time>2020-10-28T12:22:53.607Z</time>
      </trkpt>
      <trkpt lat="48.07086" lon="6.8669">
        <ele>659</ele>
        <time>2020-10-28T12:22:54.607Z</time>
      </trkpt>
      <trkpt lat="48.07087" lon="6.8669">
        <ele>659</ele>
        <time>2020-10-28T12:22:55.606Z</time>
      </trkpt>
      <trkpt lat="48.07088" lon="6.8669">
        <ele>659</ele>
        <time>2020-10-28T12:22:56.607Z</time>
      </trkpt>
      <trkpt lat="48.07089" lon="6.86691">
        <ele>659</ele>
        <time>2020-10-28T12:22:57.607Z</time>
      </trkpt>
      <trkpt lat="48.0709" lon="6.86691">
        <ele>659</ele>
        <time>2020-10-28T12:22:58.607Z</time>
      </trkpt>
      <trkpt lat="48.07091" lon="6.8669">
        <ele>659</ele>
        <time>2020-10-28T12:22:59.607Z</time>
      </trkpt>
      <trkpt lat="48.07092" lon="6.8669">
        <ele>659</ele>
        <time>2020-10-28T12:23:00.606Z</time>
      </trkpt>
      <trkpt lat="48.07093" lon="6.86689">
        <ele>658</ele>
        <time>2020-10-28T12:23:01.606Z</time>
      </trkpt>
      <trkpt lat="48.07094" lon="6.86688">
        <ele>658</ele>
        <time>2020-10-28T12:23:02.606Z</time>
      </trkpt>
      <trkpt lat="48.07095" lon="6.86687">
        <ele>657</ele>
        <time>2020-10-28T12:23:03.607Z</time>
      </trkpt>
      <trkpt lat="48.07096" lon="6.86686">
        <ele>657</ele>
        <time>2020-10-28T12:23:04.606Z</time>
      </trkpt>
      <trkpt lat="48.07096" lon="6.86685">
        <ele>657</ele>
        <time>2020-10-28T12:23:05.607Z</time>
      </trkpt>
      <trkpt lat="48.07097" lon="6.86683">
        <ele>657</ele>
        <time>2020-10-28T12:23:06.606Z</time>
      </trkpt>
      <trkpt lat="48.07098" lon="6.86682">
        <ele>657</ele>
        <time>2020-10-28T12:23:07.606Z</time>
      </trkpt>
      <trkpt lat="48.07099" lon="6.86681">
        <ele>657</ele>
        <time>2020-10-28T12:23:08.607Z</time>
      </trkpt>
      <trkpt lat="48.07101" lon="6.8668">
        <ele>658</ele>
        <time>2020-10-28T12:23:09.606Z</time>
      </trkpt>
      <trkpt lat="48.07102" lon="6.86679">
        <ele>658</ele>
        <time>2020-10-28T12:23:10.606Z</time>
      </trkpt>
      <trkpt lat="48.07102" lon="6.86678">
        <ele>659</ele>
        <time>2020-10-28T12:23:11.607Z</time>
      </trkpt>
      <trkpt lat="48.07103" lon="6.86677">
        <ele>659</ele>
        <time>2020-10-28T12:23:12.606Z</time>
      </trkpt>
      <trkpt lat="48.07104" lon="6.86676">
        <ele>660</ele>
        <time>2020-10-28T12:23:13.606Z</time>
      </trkpt>
      <trkpt lat="48.07105" lon="6.86675">
        <ele>660</ele>
        <time>2020-10-28T12:23:14.607Z</time>
      </trkpt>
      <trkpt lat="48.07106" lon="6.86674">
        <ele>660</ele>
        <time>2020-10-28T12:23:15.607Z</time>
      </trkpt>
      <trkpt lat="48.07107" lon="6.86672">
        <ele>661</ele>
        <time>2020-10-28T12:23:56.743Z</time>
      </trkpt>
      <trkpt lat="48.07108" lon="6.86671">
        <ele>661</ele>
        <time>2020-10-28T12:23:57.742Z</time>
      </trkpt>
      <trkpt lat="48.07109" lon="6.8667">
        <ele>661</ele>
        <time>2020-10-28T12:23:58.743Z</time>
      </trkpt>
      <trkpt lat="48.0711" lon="6.86669">
        <ele>661</ele>
        <time>2020-10-28T12:23:59.742Z</time>
      </trkpt>
      <trkpt lat="48.07111" lon="6.86668">
        <ele>661</ele>
        <time>2020-10-28T12:24:00.743Z</time>
      </trkpt>
      <trkpt lat="48.07112" lon="6.86667">
        <ele>662</ele>
        <time>2020-10-28T12:24:01.742Z</time>
      </trkpt>
      <trkpt lat="48.07113" lon="6.86666">
        <ele>662</ele>
        <time>2020-10-28T12:24:02.743Z</time>
      </trkpt>
      <trkpt lat="48.07115" lon="6.86664">
        <ele>662</ele>
        <time>2020-10-28T12:24:03.743Z</time>
      </trkpt>
      <trkpt lat="48.07116" lon="6.86663">
        <ele>662</ele>
        <time>2020-10-28T12:24:04.743Z</time>
      </trkpt>
      <trkpt lat="48.07117" lon="6.86662">
        <ele>662</ele>
        <time>2020-10-28T12:24:05.742Z</time>
      </trkpt>
      <trkpt lat="48.07117" lon="6.86661">
        <ele>663</ele>
        <time>2020-10-28T12:24:06.743Z</time>
      </trkpt>
      <trkpt lat="48.07119" lon="6.8666">
        <ele>663</ele>
        <time>2020-10-28T12:24:07.743Z</time>
      </trkpt>
      <trkpt lat="48.07119" lon="6.86659">
        <ele>663</ele>
        <time>2020-10-28T12:24:08.743Z</time>
      </trkpt>
      <trkpt lat="48.0712" lon="6.86657">
        <ele>663</ele>
        <time>2020-10-28T12:24:09.743Z</time>
      </trkpt>
      <trkpt lat="48.07121" lon="6.86657">
        <ele>664</ele>
        <time>2020-10-28T12:24:10.743Z</time>
      </trkpt>
      <trkpt lat="48.07123" lon="6.86656">
        <ele>664</ele>
        <time>2020-10-28T12:24:11.743Z</time>
      </trkpt>
      <trkpt lat="48.07124" lon="6.86655">
        <ele>664</ele>
        <time>2020-10-28T12:24:12.742Z</time>
      </trkpt>
      <trkpt lat="48.07125" lon="6.86655">
        <ele>664</ele>
        <time>2020-10-28T12:24:32.861Z</time>
      </trkpt>
      <trkpt lat="48.07126" lon="6.86655">
        <ele>665</ele>
        <time>2020-10-28T12:24:33.861Z</time>
      </trkpt>
      <trkpt lat="48.07127" lon="6.86654">
        <ele>665</ele>
        <time>2020-10-28T12:24:34.862Z</time>
      </trkpt>
      <trkpt lat="48.07128" lon="6.86653">
        <ele>665</ele>
        <time>2020-10-28T12:24:35.862Z</time>
      </trkpt>
      <trkpt lat="48.07129" lon="6.86653">
        <ele>665</ele>
        <time>2020-10-28T12:24:36.862Z</time>
      </trkpt>
      <trkpt lat="48.07129" lon="6.86652">
        <ele>666</ele>
        <time>2020-10-28T12:24:37.862Z</time>
      </trkpt>
      <trkpt lat="48.0713" lon="6.86651">
        <ele>666</ele>
        <time>2020-10-28T12:24:38.861Z</time>
      </trkpt>
      <trkpt lat="48.0713" lon="6.8665">
        <ele>666</ele>
        <time>2020-10-28T12:24:39.861Z</time>
      </trkpt>
      <trkpt lat="48.07131" lon="6.86649">
        <ele>666</ele>
        <time>2020-10-28T12:24:40.862Z</time>
      </trkpt>
      <trkpt lat="48.07132" lon="6.86648">
        <ele>666</ele>
        <time>2020-10-28T12:24:41.862Z</time>
      </trkpt>
      <trkpt lat="48.07133" lon="6.86647">
        <ele>666</ele>
        <time>2020-10-28T12:24:42.861Z</time>
      </trkpt>
      <trkpt lat="48.07133" lon="6.86645">
        <ele>665</ele>
        <time>2020-10-28T12:24:43.861Z</time>
      </trkpt>
      <trkpt lat="48.07134" lon="6.86644">
        <ele>665</ele>
        <time>2020-10-28T12:24:44.862Z</time>
      </trkpt>
      <trkpt lat="48.07135" lon="6.86643">
        <ele>665</ele>
        <time>2020-10-28T12:24:45.862Z</time>
      </trkpt>
      <trkpt lat="48.07135" lon="6.86642">
        <ele>665</ele>
        <time>2020-10-28T12:24:46.861Z</time>
      </trkpt>
      <trkpt lat="48.07136" lon="6.86641">
        <ele>665</ele>
        <time>2020-10-28T12:24:47.861Z</time>
      </trkpt>
      <trkpt lat="48.07137" lon="6.8664">
        <ele>664</ele>
        <time>2020-10-28T12:24:48.862Z</time>
      </trkpt>
      <trkpt lat="48.07138" lon="6.86639">
        <ele>664</ele>
        <time>2020-10-28T12:24:49.862Z</time>
      </trkpt>
      <trkpt lat="48.07138" lon="6.86637">
        <ele>664</ele>
        <time>2020-10-28T12:24:50.862Z</time>
      </trkpt>
      <trkpt lat="48.07139" lon="6.86635">
        <ele>664</ele>
        <time>2020-10-28T12:24:51.862Z</time>
      </trkpt>
      <trkpt lat="48.0714" lon="6.86634">
        <ele>664</ele>
        <time>2020-10-28T12:24:52.862Z</time>
      </trkpt>
      <trkpt lat="48.0714" lon="6.86632">
        <ele>665</ele>
        <time>2020-10-28T12:24:53.861Z</time>
      </trkpt>
      <trkpt lat="48.07141" lon="6.86631">
        <ele>665</ele>
        <time>2020-10-28T12:24:54.862Z</time>
      </trkpt>
      <trkpt lat="48.07142" lon="6.8663">
        <ele>666</ele>
        <time>2020-10-28T12:24:55.862Z</time>
      </trkpt>
      <trkpt lat="48.07143" lon="6.86628">
        <ele>666</ele>
        <time>2020-10-28T12:24:56.862Z</time>
      </trkpt>
      <trkpt lat="48.07144" lon="6.86627">
        <ele>667</ele>
        <time>2020-10-28T12:24:57.862Z</time>
      </trkpt>
      <trkpt lat="48.07145" lon="6.86626">
        <ele>667</ele>
        <time>2020-10-28T12:24:58.862Z</time>
      </trkpt>
      <trkpt lat="48.07146" lon="6.86625">
        <ele>668</ele>
        <time>2020-10-28T12:24:59.861Z</time>
      </trkpt>
      <trkpt lat="48.07148" lon="6.86625">
        <ele>668</ele>
        <time>2020-10-28T12:25:00.861Z</time>
      </trkpt>
      <trkpt lat="48.07149" lon="6.86624">
        <ele>668</ele>
        <time>2020-10-28T12:25:01.861Z</time>
      </trkpt>
      <trkpt lat="48.07151" lon="6.86624">
        <ele>669</ele>
        <time>2020-10-28T12:25:02.862Z</time>
      </trkpt>
      <trkpt lat="48.07153" lon="6.86625">
        <ele>669</ele>
        <time>2020-10-28T12:25:03.861Z</time>
      </trkpt>
      <trkpt lat="48.07155" lon="6.86625">
        <ele>669</ele>
        <time>2020-10-28T12:25:04.861Z</time>
      </trkpt>
      <trkpt lat="48.07156" lon="6.86625">
        <ele>669</ele>
        <time>2020-10-28T12:25:05.862Z</time>
      </trkpt>
      <trkpt lat="48.07157" lon="6.86625">
        <ele>669</ele>
        <time>2020-10-28T12:25:06.861Z</time>
      </trkpt>
      <trkpt lat="48.07158" lon="6.86625">
        <ele>669</ele>
        <time>2020-10-28T12:25:28.962Z</time>
      </trkpt>
      <trkpt lat="48.0716" lon="6.86626">
        <ele>669</ele>
        <time>2020-10-28T12:25:29.962Z</time>
      </trkpt>
      <trkpt lat="48.07162" lon="6.86627">
        <ele>669</ele>
        <time>2020-10-28T12:25:30.963Z</time>
      </trkpt>
      <trkpt lat="48.07163" lon="6.86628">
        <ele>669</ele>
        <time>2020-10-28T12:25:31.963Z</time>
      </trkpt>
      <trkpt lat="48.07164" lon="6.86628">
        <ele>669</ele>
        <time>2020-10-28T12:25:32.963Z</time>
      </trkpt>
      <trkpt lat="48.07165" lon="6.86628">
        <ele>668</ele>
        <time>2020-10-28T12:25:33.962Z</time>
      </trkpt>
      <trkpt lat="48.07166" lon="6.86628">
        <ele>668</ele>
        <time>2020-10-28T12:25:34.962Z</time>
      </trkpt>
      <trkpt lat="48.07167" lon="6.86628">
        <ele>667</ele>
        <time>2020-10-28T12:25:35.963Z</time>
      </trkpt>
      <trkpt lat="48.07168" lon="6.86627">
        <ele>667</ele>
        <time>2020-10-28T12:25:36.962Z</time>
      </trkpt>
      <trkpt lat="48.07169" lon="6.86627">
        <ele>667</ele>
        <time>2020-10-28T12:25:37.963Z</time>
      </trkpt>
      <trkpt lat="48.07171" lon="6.86627">
        <ele>667</ele>
        <time>2020-10-28T12:25:38.962Z</time>
      </trkpt>
      <trkpt lat="48.07172" lon="6.86627">
        <ele>666</ele>
        <time>2020-10-28T12:25:39.963Z</time>
      </trkpt>
      <trkpt lat="48.07173" lon="6.86627">
        <ele>666</ele>
        <time>2020-10-28T12:25:40.962Z</time>
      </trkpt>
      <trkpt lat="48.07174" lon="6.86628">
        <ele>667</ele>
        <time>2020-10-28T12:25:41.963Z</time>
      </trkpt>
      <trkpt lat="48.07175" lon="6.86628">
        <ele>667</ele>
        <time>2020-10-28T12:25:42.963Z</time>
      </trkpt>
      <trkpt lat="48.07177" lon="6.8663">
        <ele>667</ele>
        <time>2020-10-28T12:25:43.962Z</time>
      </trkpt>
      <trkpt lat="48.07178" lon="6.86631">
        <ele>667</ele>
        <time>2020-10-28T12:25:44.962Z</time>
      </trkpt>
      <trkpt lat="48.07179" lon="6.86632">
        <ele>667</ele>
        <time>2020-10-28T12:25:45.963Z</time>
      </trkpt>
      <trkpt lat="48.0718" lon="6.86632">
        <ele>666</ele>
        <time>2020-10-28T12:25:46.963Z</time>
      </trkpt>
      <trkpt lat="48.07181" lon="6.86633">
        <ele>666</ele>
        <time>2020-10-28T12:25:47.963Z</time>
      </trkpt>
      <trkpt lat="48.07182" lon="6.86634">
        <ele>666</ele>
        <time>2020-10-28T12:25:48.962Z</time>
      </trkpt>
      <trkpt lat="48.07183" lon="6.86635">
        <ele>665</ele>
        <time>2020-10-28T12:25:49.963Z</time>
      </trkpt>
      <trkpt lat="48.07184" lon="6.86635">
        <ele>665</ele>
        <time>2020-10-28T12:25:50.962Z</time>
      </trkpt>
      <trkpt lat="48.07185" lon="6.86635">
        <ele>664</ele>
        <time>2020-10-28T12:25:51.963Z</time>
      </trkpt>
      <trkpt lat="48.07186" lon="6.86634">
        <ele>663</ele>
        <time>2020-10-28T12:25:52.963Z</time>
      </trkpt>
      <trkpt lat="48.07186" lon="6.86632">
        <ele>663</ele>
        <time>2020-10-28T12:25:53.963Z</time>
      </trkpt>
      <trkpt lat="48.07186" lon="6.8663">
        <ele>663</ele>
        <time>2020-10-28T12:25:54.963Z</time>
      </trkpt>
      <trkpt lat="48.07186" lon="6.86628">
        <ele>663</ele>
        <time>2020-10-28T12:25:55.963Z</time>
      </trkpt>
      <trkpt lat="48.07186" lon="6.86626">
        <ele>664</ele>
        <time>2020-10-28T12:25:56.962Z</time>
      </trkpt>
      <trkpt lat="48.07186" lon="6.86624">
        <ele>664</ele>
        <time>2020-10-28T12:25:57.962Z</time>
      </trkpt>
      <trkpt lat="48.07185" lon="6.86622">
        <ele>664</ele>
        <time>2020-10-28T12:25:58.963Z</time>
      </trkpt>
      <trkpt lat="48.07185" lon="6.86619">
        <ele>665</ele>
        <time>2020-10-28T12:25:59.962Z</time>
      </trkpt>
      <trkpt lat="48.07185" lon="6.86617">
        <ele>665</ele>
        <time>2020-10-28T12:26:00.963Z</time>
      </trkpt>
      <trkpt lat="48.07185" lon="6.86614">
        <ele>666</ele>
        <time>2020-10-28T12:26:01.963Z</time>
      </trkpt>
      <trkpt lat="48.07186" lon="6.86612">
        <ele>666</ele>
        <time>2020-10-28T12:26:02.963Z</time>
      </trkpt>
      <trkpt lat="48.07187" lon="6.8661">
        <ele>666</ele>
        <time>2020-10-28T12:26:03.962Z</time>
      </trkpt>
      <trkpt lat="48.07188" lon="6.86607">
        <ele>666</ele>
        <time>2020-10-28T12:26:04.963Z</time>
      </trkpt>
      <trkpt lat="48.07188" lon="6.86605">
        <ele>666</ele>
        <time>2020-10-28T12:26:05.963Z</time>
      </trkpt>
      <trkpt lat="48.07189" lon="6.86603">
        <ele>666</ele>
        <time>2020-10-28T12:26:06.962Z</time>
      </trkpt>
      <trkpt lat="48.0719" lon="6.86603">
        <ele>667</ele>
        <time>2020-10-28T12:26:07.963Z</time>
      </trkpt>
      <trkpt lat="48.07192" lon="6.86602">
        <ele>667</ele>
        <time>2020-10-28T12:26:08.962Z</time>
      </trkpt>
      <trkpt lat="48.07193" lon="6.86601">
        <ele>667</ele>
        <time>2020-10-28T12:26:09.963Z</time>
      </trkpt>
      <trkpt lat="48.07194" lon="6.866">
        <ele>667</ele>
        <time>2020-10-28T12:26:10.963Z</time>
      </trkpt>
      <trkpt lat="48.07195" lon="6.86599">
        <ele>668</ele>
        <time>2020-10-28T12:26:11.963Z</time>
      </trkpt>
      <trkpt lat="48.07196" lon="6.86598">
        <ele>668</ele>
        <time>2020-10-28T12:26:12.963Z</time>
      </trkpt>
      <trkpt lat="48.07197" lon="6.86597">
        <ele>669</ele>
        <time>2020-10-28T12:26:13.963Z</time>
      </trkpt>
      <trkpt lat="48.07198" lon="6.86596">
        <ele>669</ele>
        <time>2020-10-28T12:26:14.962Z</time>
      </trkpt>
      <trkpt lat="48.072" lon="6.86596">
        <ele>669</ele>
        <time>2020-10-28T12:26:15.962Z</time>
      </trkpt>
      <trkpt lat="48.07201" lon="6.86595">
        <ele>669</ele>
        <time>2020-10-28T12:26:16.963Z</time>
      </trkpt>
      <trkpt lat="48.07202" lon="6.86594">
        <ele>669</ele>
        <time>2020-10-28T12:26:17.963Z</time>
      </trkpt>
      <trkpt lat="48.07204" lon="6.86593">
        <ele>669</ele>
        <time>2020-10-28T12:26:18.962Z</time>
      </trkpt>
      <trkpt lat="48.07205" lon="6.86592">
        <ele>669</ele>
        <time>2020-10-28T12:26:19.963Z</time>
      </trkpt>
      <trkpt lat="48.07206" lon="6.86591">
        <ele>669</ele>
        <time>2020-10-28T12:26:20.963Z</time>
      </trkpt>
      <trkpt lat="48.07207" lon="6.8659">
        <ele>669</ele>
        <time>2020-10-28T12:26:21.963Z</time>
      </trkpt>
      <trkpt lat="48.07208" lon="6.86589">
        <ele>670</ele>
        <time>2020-10-28T12:26:22.963Z</time>
      </trkpt>
      <trkpt lat="48.07209" lon="6.86588">
        <ele>670</ele>
        <time>2020-10-28T12:26:23.963Z</time>
      </trkpt>
      <trkpt lat="48.0721" lon="6.86588">
        <ele>670</ele>
        <time>2020-10-28T12:26:24.962Z</time>
      </trkpt>
      <trkpt lat="48.07211" lon="6.86587">
        <ele>670</ele>
        <time>2020-10-28T12:26:25.963Z</time>
      </trkpt>
      <trkpt lat="48.07212" lon="6.86586">
        <ele>670</ele>
        <time>2020-10-28T12:26:26.963Z</time>
      </trkpt>
      <trkpt lat="48.07213" lon="6.86584">
        <ele>669</ele>
        <time>2020-10-28T12:26:27.963Z</time>
      </trkpt>
      <trkpt lat="48.07214" lon="6.86583">
        <ele>669</ele>
        <time>2020-10-28T12:26:28.963Z</time>
      </trkpt>
      <trkpt lat="48.07215" lon="6.86582">
        <ele>669</ele>
        <time>2020-10-28T12:26:29.962Z</time>
      </trkpt>
      <trkpt lat="48.07216" lon="6.8658">
        <ele>669</ele>
        <time>2020-10-28T12:26:30.963Z</time>
      </trkpt>
      <trkpt lat="48.07217" lon="6.86579">
        <ele>669</ele>
        <time>2020-10-28T12:26:31.963Z</time>
      </trkpt>
      <trkpt lat="48.07217" lon="6.86578">
        <ele>669</ele>
        <time>2020-10-28T12:26:32.963Z</time>
      </trkpt>
      <trkpt lat="48.07218" lon="6.86577">
        <ele>669</ele>
        <time>2020-10-28T12:26:33.963Z</time>
      </trkpt>
      <trkpt lat="48.07218" lon="6.86576">
        <ele>669</ele>
        <time>2020-10-28T12:26:34.963Z</time>
      </trkpt>
      <trkpt lat="48.07219" lon="6.86575">
        <ele>669</ele>
        <time>2020-10-28T12:26:35.962Z</time>
      </trkpt>
      <trkpt lat="48.0722" lon="6.86573">
        <ele>669</ele>
        <time>2020-10-28T12:26:36.963Z</time>
      </trkpt>
      <trkpt lat="48.07221" lon="6.86572">
        <ele>669</ele>
        <time>2020-10-28T12:26:37.963Z</time>
      </trkpt>
      <trkpt lat="48.07221" lon="6.8657">
        <ele>670</ele>
        <time>2020-10-28T12:26:38.962Z</time>
      </trkpt>
      <trkpt lat="48.07222" lon="6.8657">
        <ele>670</ele>
        <time>2020-10-28T12:26:39.963Z</time>
      </trkpt>
      <trkpt lat="48.07223" lon="6.86569">
        <ele>671</ele>
        <time>2020-10-28T12:26:40.963Z</time>
      </trkpt>
      <trkpt lat="48.07224" lon="6.86567">
        <ele>672</ele>
        <time>2020-10-28T12:26:41.963Z</time>
      </trkpt>
      <trkpt lat="48.07225" lon="6.86566">
        <ele>672</ele>
        <time>2020-10-28T12:26:42.963Z</time>
      </trkpt>
      <trkpt lat="48.07226" lon="6.86565">
        <ele>671</ele>
        <time>2020-10-28T12:26:43.963Z</time>
      </trkpt>
      <trkpt lat="48.07227" lon="6.86564">
        <ele>671</ele>
        <time>2020-10-28T12:26:44.963Z</time>
      </trkpt>
      <trkpt lat="48.07227" lon="6.86563">
        <ele>672</ele>
        <time>2020-10-28T12:26:45.963Z</time>
      </trkpt>
      <trkpt lat="48.07228" lon="6.86562">
        <ele>672</ele>
        <time>2020-10-28T12:26:46.963Z</time>
      </trkpt>
      <trkpt lat="48.07229" lon="6.86561">
        <ele>673</ele>
        <time>2020-10-28T12:26:47.963Z</time>
      </trkpt>
      <trkpt lat="48.0723" lon="6.8656">
        <ele>673</ele>
        <time>2020-10-28T12:26:48.963Z</time>
      </trkpt>
      <trkpt lat="48.0723" lon="6.86558">
        <ele>673</ele>
        <time>2020-10-28T12:26:49.962Z</time>
      </trkpt>
      <trkpt lat="48.07231" lon="6.86557">
        <ele>673</ele>
        <time>2020-10-28T12:26:50.963Z</time>
      </trkpt>
      <trkpt lat="48.07232" lon="6.86555">
        <ele>673</ele>
        <time>2020-10-28T12:26:51.963Z</time>
      </trkpt>
      <trkpt lat="48.07232" lon="6.86554">
        <ele>673</ele>
        <time>2020-10-28T12:26:52.963Z</time>
      </trkpt>
      <trkpt lat="48.07233" lon="6.86553">
        <ele>673</ele>
        <time>2020-10-28T12:26:53.963Z</time>
      </trkpt>
      <trkpt lat="48.07234" lon="6.86552">
        <ele>673</ele>
        <time>2020-10-28T12:26:54.963Z</time>
      </trkpt>
      <trkpt lat="48.07235" lon="6.86551">
        <ele>674</ele>
        <time>2020-10-28T12:26:55.962Z</time>
      </trkpt>
      <trkpt lat="48.07235" lon="6.86551">
        <ele>674</ele>
        <time>2020-10-28T12:26:56.962Z</time>
      </trkpt>
      <trkpt lat="48.07235" lon="6.86551">
        <ele>674</ele>
        <time>2020-10-28T12:26:57.962Z</time>
      </trkpt>
      <trkpt lat="48.07236" lon="6.86551">
        <ele>674</ele>
        <time>2020-10-28T12:26:58.962Z</time>
      </trkpt>
      <trkpt lat="48.07236" lon="6.8655">
        <ele>674</ele>
        <time>2020-10-28T12:26:59.963Z</time>
      </trkpt>
      <trkpt lat="48.07235" lon="6.8655">
        <ele>673</ele>
        <time>2020-10-28T12:27:00.963Z</time>
      </trkpt>
      <trkpt lat="48.07236" lon="6.8655">
        <ele>673</ele>
        <time>2020-10-28T12:27:01.963Z</time>
      </trkpt>
      <trkpt lat="48.07237" lon="6.8655">
        <ele>672</ele>
        <time>2020-10-28T12:27:02.963Z</time>
      </trkpt>
      <trkpt lat="48.07237" lon="6.86549">
        <ele>672</ele>
        <time>2020-10-28T12:27:03.963Z</time>
      </trkpt>
      <trkpt lat="48.07238" lon="6.86548">
        <ele>672</ele>
        <time>2020-10-28T12:27:04.963Z</time>
      </trkpt>
      <trkpt lat="48.07239" lon="6.86547">
        <ele>673</ele>
        <time>2020-10-28T12:27:05.963Z</time>
      </trkpt>
      <trkpt lat="48.0724" lon="6.86546">
        <ele>673</ele>
        <time>2020-10-28T12:27:06.963Z</time>
      </trkpt>
      <trkpt lat="48.0724" lon="6.86545">
        <ele>673</ele>
        <time>2020-10-28T12:27:07.962Z</time>
      </trkpt>
      <trkpt lat="48.07241" lon="6.86544">
        <ele>674</ele>
        <time>2020-10-28T12:27:08.962Z</time>
      </trkpt>
      <trkpt lat="48.07242" lon="6.86543">
        <ele>674</ele>
        <time>2020-10-28T12:27:09.962Z</time>
      </trkpt>
      <trkpt lat="48.07242" lon="6.86542">
        <ele>675</ele>
        <time>2020-10-28T12:27:10.963Z</time>
      </trkpt>
      <trkpt lat="48.07243" lon="6.86541">
        <ele>675</ele>
        <time>2020-10-28T12:27:11.962Z</time>
      </trkpt>
      <trkpt lat="48.07243" lon="6.86541">
        <ele>675</ele>
        <time>2020-10-28T12:27:12.963Z</time>
      </trkpt>
      <trkpt lat="48.07243" lon="6.86542">
        <ele>674</ele>
        <time>2020-10-28T12:27:13.963Z</time>
      </trkpt>
      <trkpt lat="48.07245" lon="6.86539">
        <ele>674</ele>
        <time>2020-10-28T12:27:14.963Z</time>
      </trkpt>
      <trkpt lat="48.07246" lon="6.86538">
        <ele>675</ele>
        <time>2020-10-28T12:27:15.963Z</time>
      </trkpt>
      <trkpt lat="48.07246" lon="6.86536">
        <ele>675</ele>
        <time>2020-10-28T12:27:16.963Z</time>
      </trkpt>
      <trkpt lat="48.07247" lon="6.86535">
        <ele>675</ele>
        <time>2020-10-28T12:27:17.963Z</time>
      </trkpt>
      <trkpt lat="48.07247" lon="6.86534">
        <ele>675</ele>
        <time>2020-10-28T12:27:20.097Z</time>
      </trkpt>
      <trkpt lat="48.07248" lon="6.86533">
        <ele>676</ele>
        <time>2020-10-28T12:27:21.096Z</time>
      </trkpt>
      <trkpt lat="48.07248" lon="6.86531">
        <ele>676</ele>
        <time>2020-10-28T12:27:22.097Z</time>
      </trkpt>
      <trkpt lat="48.07249" lon="6.8653">
        <ele>676</ele>
        <time>2020-10-28T12:27:23.097Z</time>
      </trkpt>
      <trkpt lat="48.0725" lon="6.86529">
        <ele>676</ele>
        <time>2020-10-28T12:27:24.096Z</time>
      </trkpt>
      <trkpt lat="48.07251" lon="6.86527">
        <ele>676</ele>
        <time>2020-10-28T12:27:25.097Z</time>
      </trkpt>
      <trkpt lat="48.07252" lon="6.86525">
        <ele>676</ele>
        <time>2020-10-28T12:27:26.097Z</time>
      </trkpt>
      <trkpt lat="48.07252" lon="6.86524">
        <ele>676</ele>
        <time>2020-10-28T12:27:27.096Z</time>
      </trkpt>
      <trkpt lat="48.07253" lon="6.86522">
        <ele>677</ele>
        <time>2020-10-28T12:27:28.097Z</time>
      </trkpt>
      <trkpt lat="48.07253" lon="6.86519">
        <ele>677</ele>
        <time>2020-10-28T12:27:29.096Z</time>
      </trkpt>
      <trkpt lat="48.07254" lon="6.86517">
        <ele>678</ele>
        <time>2020-10-28T12:27:30.097Z</time>
      </trkpt>
      <trkpt lat="48.07254" lon="6.86516">
        <ele>679</ele>
        <time>2020-10-28T12:27:31.096Z</time>
      </trkpt>
      <trkpt lat="48.07254" lon="6.86514">
        <ele>680</ele>
        <time>2020-10-28T12:27:32.097Z</time>
      </trkpt>
      <trkpt lat="48.07254" lon="6.86512">
        <ele>680</ele>
        <time>2020-10-28T12:27:33.097Z</time>
      </trkpt>
      <trkpt lat="48.07253" lon="6.86511">
        <ele>681</ele>
        <time>2020-10-28T12:27:34.097Z</time>
      </trkpt>
      <trkpt lat="48.07253" lon="6.86509">
        <ele>681</ele>
        <time>2020-10-28T12:27:35.096Z</time>
      </trkpt>
      <trkpt lat="48.07252" lon="6.86508">
        <ele>682</ele>
        <time>2020-10-28T12:27:40.215Z</time>
      </trkpt>
      <trkpt lat="48.07252" lon="6.86506">
        <ele>682</ele>
        <time>2020-10-28T12:27:41.215Z</time>
      </trkpt>
      <trkpt lat="48.07252" lon="6.86507">
        <ele>683</ele>
        <time>2020-10-28T12:27:42.215Z</time>
      </trkpt>
      <trkpt lat="48.07252" lon="6.86508">
        <ele>683</ele>
        <time>2020-10-28T12:27:46.357Z</time>
      </trkpt>
      <trkpt lat="48.07253" lon="6.86509">
        <ele>683</ele>
        <time>2020-10-28T12:27:47.356Z</time>
      </trkpt>
      <trkpt lat="48.07253" lon="6.86509">
        <ele>683</ele>
        <time>2020-10-28T12:27:48.357Z</time>
      </trkpt>
      <trkpt lat="48.07253" lon="6.8651">
        <ele>683</ele>
        <time>2020-10-28T12:27:49.233Z</time>
      </trkpt>
      <trkpt lat="48.07258" lon="6.86507">
        <ele>678</ele>
        <time>2020-10-28T12:27:50.234Z</time>
      </trkpt>
      <trkpt lat="48.07259" lon="6.86505">
        <ele>678</ele>
        <time>2020-10-28T12:27:51.234Z</time>
      </trkpt>
      <trkpt lat="48.07262" lon="6.86504">
        <ele>678</ele>
        <time>2020-10-28T12:27:52.234Z</time>
      </trkpt>
      <trkpt lat="48.07263" lon="6.86503">
        <ele>678</ele>
        <time>2020-10-28T12:27:53.234Z</time>
      </trkpt>
      <trkpt lat="48.07265" lon="6.86501">
        <ele>678</ele>
        <time>2020-10-28T12:27:54.233Z</time>
      </trkpt>
      <trkpt lat="48.07267" lon="6.865">
        <ele>678</ele>
        <time>2020-10-28T12:27:55.234Z</time>
      </trkpt>
      <trkpt lat="48.07268" lon="6.86498">
        <ele>678</ele>
        <time>2020-10-28T12:27:56.234Z</time>
      </trkpt>
      <trkpt lat="48.0727" lon="6.86497">
        <ele>678</ele>
        <time>2020-10-28T12:27:57.234Z</time>
      </trkpt>
      <trkpt lat="48.0727" lon="6.86495">
        <ele>677</ele>
        <time>2020-10-28T12:27:58.234Z</time>
      </trkpt>
      <trkpt lat="48.07271" lon="6.86493">
        <ele>677</ele>
        <time>2020-10-28T12:27:59.234Z</time>
      </trkpt>
      <trkpt lat="48.07272" lon="6.86491">
        <ele>677</ele>
        <time>2020-10-28T12:28:00.234Z</time>
      </trkpt>
      <trkpt lat="48.07273" lon="6.8649">
        <ele>678</ele>
        <time>2020-10-28T12:28:01.233Z</time>
      </trkpt>
      <trkpt lat="48.07274" lon="6.86488">
        <ele>678</ele>
        <time>2020-10-28T12:28:02.233Z</time>
      </trkpt>
      <trkpt lat="48.07276" lon="6.86487">
        <ele>677</ele>
        <time>2020-10-28T12:28:03.233Z</time>
      </trkpt>
      <trkpt lat="48.07277" lon="6.86486">
        <ele>677</ele>
        <time>2020-10-28T12:28:04.234Z</time>
      </trkpt>
      <trkpt lat="48.07277" lon="6.86485">
        <ele>677</ele>
        <time>2020-10-28T12:28:05.234Z</time>
      </trkpt>
      <trkpt lat="48.07279" lon="6.86484">
        <ele>677</ele>
        <time>2020-10-28T12:28:06.233Z</time>
      </trkpt>
      <trkpt lat="48.0728" lon="6.86483">
        <ele>677</ele>
        <time>2020-10-28T12:28:07.234Z</time>
      </trkpt>
      <trkpt lat="48.0728" lon="6.86481">
        <ele>677</ele>
        <time>2020-10-28T12:28:08.234Z</time>
      </trkpt>
      <trkpt lat="48.07281" lon="6.8648">
        <ele>677</ele>
        <time>2020-10-28T12:28:09.234Z</time>
      </trkpt>
      <trkpt lat="48.07281" lon="6.86479">
        <ele>677</ele>
        <time>2020-10-28T12:28:10.234Z</time>
      </trkpt>
      <trkpt lat="48.07283" lon="6.86477">
        <ele>678</ele>
        <time>2020-10-28T12:28:11.234Z</time>
      </trkpt>
      <trkpt lat="48.07284" lon="6.86476">
        <ele>678</ele>
        <time>2020-10-28T12:28:12.234Z</time>
      </trkpt>
      <trkpt lat="48.07285" lon="6.86475">
        <ele>678</ele>
        <time>2020-10-28T12:28:13.234Z</time>
      </trkpt>
      <trkpt lat="48.07286" lon="6.86473">
        <ele>678</ele>
        <time>2020-10-28T12:28:14.234Z</time>
      </trkpt>
      <trkpt lat="48.07288" lon="6.86472">
        <ele>678</ele>
        <time>2020-10-28T12:28:15.233Z</time>
      </trkpt>
      <trkpt lat="48.07289" lon="6.86471">
        <ele>679</ele>
        <time>2020-10-28T12:28:16.234Z</time>
      </trkpt>
      <trkpt lat="48.07289" lon="6.86469">
        <ele>680</ele>
        <time>2020-10-28T12:28:17.233Z</time>
      </trkpt>
      <trkpt lat="48.0729" lon="6.86468">
        <ele>680</ele>
        <time>2020-10-28T12:28:19.346Z</time>
      </trkpt>
      <trkpt lat="48.07291" lon="6.86467">
        <ele>681</ele>
        <time>2020-10-28T12:28:20.347Z</time>
      </trkpt>
      <trkpt lat="48.07292" lon="6.86465">
        <ele>681</ele>
        <time>2020-10-28T12:28:21.346Z</time>
      </trkpt>
      <trkpt lat="48.07293" lon="6.86464">
        <ele>681</ele>
        <time>2020-10-28T12:28:22.346Z</time>
      </trkpt>
      <trkpt lat="48.07293" lon="6.86462">
        <ele>682</ele>
        <time>2020-10-28T12:28:23.347Z</time>
      </trkpt>
      <trkpt lat="48.07294" lon="6.8646">
        <ele>682</ele>
        <time>2020-10-28T12:28:24.347Z</time>
      </trkpt>
      <trkpt lat="48.07295" lon="6.86458">
        <ele>682</ele>
        <time>2020-10-28T12:28:25.347Z</time>
      </trkpt>
      <trkpt lat="48.07296" lon="6.86456">
        <ele>683</ele>
        <time>2020-10-28T12:28:26.346Z</time>
      </trkpt>
      <trkpt lat="48.07296" lon="6.86455">
        <ele>683</ele>
        <time>2020-10-28T12:28:27.347Z</time>
      </trkpt>
      <trkpt lat="48.07297" lon="6.86454">
        <ele>683</ele>
        <time>2020-10-28T12:28:28.347Z</time>
      </trkpt>
      <trkpt lat="48.07298" lon="6.86453">
        <ele>684</ele>
        <time>2020-10-28T12:28:29.347Z</time>
      </trkpt>
      <trkpt lat="48.07299" lon="6.86452">
        <ele>684</ele>
        <time>2020-10-28T12:28:30.346Z</time>
      </trkpt>
      <trkpt lat="48.073" lon="6.8645">
        <ele>684</ele>
        <time>2020-10-28T12:28:31.347Z</time>
      </trkpt>
      <trkpt lat="48.07301" lon="6.86449">
        <ele>685</ele>
        <time>2020-10-28T12:28:32.346Z</time>
      </trkpt>
      <trkpt lat="48.07301" lon="6.86448">
        <ele>685</ele>
        <time>2020-10-28T12:28:33.347Z</time>
      </trkpt>
      <trkpt lat="48.07302" lon="6.86446">
        <ele>685</ele>
        <time>2020-10-28T12:28:34.346Z</time>
      </trkpt>
      <trkpt lat="48.07303" lon="6.86445">
        <ele>685</ele>
        <time>2020-10-28T12:28:35.347Z</time>
      </trkpt>
      <trkpt lat="48.07304" lon="6.86444">
        <ele>685</ele>
        <time>2020-10-28T12:28:36.346Z</time>
      </trkpt>
      <trkpt lat="48.07305" lon="6.86443">
        <ele>685</ele>
        <time>2020-10-28T12:28:37.346Z</time>
      </trkpt>
      <trkpt lat="48.07305" lon="6.86441">
        <ele>685</ele>
        <time>2020-10-28T12:28:38.346Z</time>
      </trkpt>
      <trkpt lat="48.07306" lon="6.8644">
        <ele>685</ele>
        <time>2020-10-28T12:28:39.347Z</time>
      </trkpt>
      <trkpt lat="48.07307" lon="6.86439">
        <ele>685</ele>
        <time>2020-10-28T12:28:42.448Z</time>
      </trkpt>
      <trkpt lat="48.07307" lon="6.86437">
        <ele>686</ele>
        <time>2020-10-28T12:28:43.449Z</time>
      </trkpt>
      <trkpt lat="48.07308" lon="6.86435">
        <ele>686</ele>
        <time>2020-10-28T12:28:44.449Z</time>
      </trkpt>
      <trkpt lat="48.07308" lon="6.86433">
        <ele>687</ele>
        <time>2020-10-28T12:28:45.448Z</time>
      </trkpt>
      <trkpt lat="48.07308" lon="6.8643">
        <ele>688</ele>
        <time>2020-10-28T12:28:46.449Z</time>
      </trkpt>
      <trkpt lat="48.07308" lon="6.86429">
        <ele>689</ele>
        <time>2020-10-28T12:28:47.449Z</time>
      </trkpt>
      <trkpt lat="48.07309" lon="6.86429">
        <ele>690</ele>
        <time>2020-10-28T12:28:48.449Z</time>
      </trkpt>
      <trkpt lat="48.07309" lon="6.86428">
        <ele>690</ele>
        <time>2020-10-28T12:28:49.449Z</time>
      </trkpt>
      <trkpt lat="48.0731" lon="6.86428">
        <ele>690</ele>
        <time>2020-10-28T12:28:50.449Z</time>
      </trkpt>
      <trkpt lat="48.0731" lon="6.86427">
        <ele>691</ele>
        <time>2020-10-28T12:28:51.449Z</time>
      </trkpt>
      <trkpt lat="48.0731" lon="6.86426">
        <ele>691</ele>
        <time>2020-10-28T12:28:52.449Z</time>
      </trkpt>
      <trkpt lat="48.0731" lon="6.86425">
        <ele>691</ele>
        <time>2020-10-28T12:28:53.449Z</time>
      </trkpt>
      <trkpt lat="48.0731" lon="6.86424">
        <ele>691</ele>
        <time>2020-10-28T12:28:54.449Z</time>
      </trkpt>
      <trkpt lat="48.0731" lon="6.86424">
        <ele>690</ele>
        <time>2020-10-28T12:28:55.449Z</time>
      </trkpt>
      <trkpt lat="48.07311" lon="6.86424">
        <ele>689</ele>
        <time>2020-10-28T12:28:56.448Z</time>
      </trkpt>
      <trkpt lat="48.07311" lon="6.86424">
        <ele>688</ele>
        <time>2020-10-28T12:28:57.449Z</time>
      </trkpt>
      <trkpt lat="48.07319" lon="6.86425">
        <ele>671</ele>
        <time>2020-10-28T12:28:58.449Z</time>
      </trkpt>
      <trkpt lat="48.0732" lon="6.86424">
        <ele>672</ele>
        <time>2020-10-28T12:28:59.448Z</time>
      </trkpt>
      <trkpt lat="48.07321" lon="6.86423">
        <ele>672</ele>
        <time>2020-10-28T12:29:00.448Z</time>
      </trkpt>
      <trkpt lat="48.07322" lon="6.86422">
        <ele>673</ele>
        <time>2020-10-28T12:29:01.449Z</time>
      </trkpt>
      <trkpt lat="48.07323" lon="6.8642">
        <ele>673</ele>
        <time>2020-10-28T12:29:02.449Z</time>
      </trkpt>
      <trkpt lat="48.07324" lon="6.86419">
        <ele>674</ele>
        <time>2020-10-28T12:29:03.449Z</time>
      </trkpt>
      <trkpt lat="48.07325" lon="6.86418">
        <ele>675</ele>
        <time>2020-10-28T12:29:04.449Z</time>
      </trkpt>
      <trkpt lat="48.07326" lon="6.86416">
        <ele>675</ele>
        <time>2020-10-28T12:29:05.449Z</time>
      </trkpt>
      <trkpt lat="48.07327" lon="6.86416">
        <ele>676</ele>
        <time>2020-10-28T12:29:06.449Z</time>
      </trkpt>
      <trkpt lat="48.07329" lon="6.86415">
        <ele>677</ele>
        <time>2020-10-28T12:29:07.448Z</time>
      </trkpt>
      <trkpt lat="48.0733" lon="6.86414">
        <ele>677</ele>
        <time>2020-10-28T12:29:08.449Z</time>
      </trkpt>
      <trkpt lat="48.0733" lon="6.86414">
        <ele>678</ele>
        <time>2020-10-28T12:29:09.449Z</time>
      </trkpt>
      <trkpt lat="48.07332" lon="6.86413">
        <ele>678</ele>
        <time>2020-10-28T12:29:10.449Z</time>
      </trkpt>
      <trkpt lat="48.07333" lon="6.86413">
        <ele>678</ele>
        <time>2020-10-28T12:29:11.449Z</time>
      </trkpt>
      <trkpt lat="48.07333" lon="6.86412">
        <ele>678</ele>
        <time>2020-10-28T12:29:12.449Z</time>
      </trkpt>
      <trkpt lat="48.07334" lon="6.86412">
        <ele>679</ele>
        <time>2020-10-28T12:29:13.448Z</time>
      </trkpt>
      <trkpt lat="48.07335" lon="6.86411">
        <ele>679</ele>
        <time>2020-10-28T12:29:14.449Z</time>
      </trkpt>
      <trkpt lat="48.07336" lon="6.8641">
        <ele>680</ele>
        <time>2020-10-28T12:29:15.449Z</time>
      </trkpt>
      <trkpt lat="48.07338" lon="6.8641">
        <ele>681</ele>
        <time>2020-10-28T12:29:16.448Z</time>
      </trkpt>
      <trkpt lat="48.07339" lon="6.8641">
        <ele>682</ele>
        <time>2020-10-28T12:29:17.448Z</time>
      </trkpt>
      <trkpt lat="48.0734" lon="6.8641">
        <ele>682</ele>
        <time>2020-10-28T12:29:18.448Z</time>
      </trkpt>
      <trkpt lat="48.07341" lon="6.8641">
        <ele>683</ele>
        <time>2020-10-28T12:29:19.449Z</time>
      </trkpt>
      <trkpt lat="48.07343" lon="6.8641">
        <ele>683</ele>
        <time>2020-10-28T12:29:20.449Z</time>
      </trkpt>
      <trkpt lat="48.07344" lon="6.8641">
        <ele>683</ele>
        <time>2020-10-28T12:29:21.449Z</time>
      </trkpt>
      <trkpt lat="48.07345" lon="6.86409">
        <ele>684</ele>
        <time>2020-10-28T12:29:22.449Z</time>
      </trkpt>
      <trkpt lat="48.07345" lon="6.8641">
        <ele>684</ele>
        <time>2020-10-28T12:29:23.449Z</time>
      </trkpt>
      <trkpt lat="48.07346" lon="6.86411">
        <ele>685</ele>
        <time>2020-10-28T12:29:24.449Z</time>
      </trkpt>
      <trkpt lat="48.07348" lon="6.86411">
        <ele>686</ele>
        <time>2020-10-28T12:29:25.448Z</time>
      </trkpt>
      <trkpt lat="48.07348" lon="6.86412">
        <ele>686</ele>
        <time>2020-10-28T12:29:26.449Z</time>
      </trkpt>
      <trkpt lat="48.0735" lon="6.86412">
        <ele>687</ele>
        <time>2020-10-28T12:29:27.449Z</time>
      </trkpt>
      <trkpt lat="48.0735" lon="6.86412">
        <ele>688</ele>
        <time>2020-10-28T12:29:28.449Z</time>
      </trkpt>
      <trkpt lat="48.07351" lon="6.86412">
        <ele>689</ele>
        <time>2020-10-28T12:29:29.449Z</time>
      </trkpt>
      <trkpt lat="48.07352" lon="6.8641">
        <ele>689</ele>
        <time>2020-10-28T12:29:30.449Z</time>
      </trkpt>
      <trkpt lat="48.07352" lon="6.86409">
        <ele>689</ele>
        <time>2020-10-28T12:29:31.449Z</time>
      </trkpt>
      <trkpt lat="48.07352" lon="6.86408">
        <ele>690</ele>
        <time>2020-10-28T12:29:32.448Z</time>
      </trkpt>
      <trkpt lat="48.07352" lon="6.86405">
        <ele>690</ele>
        <time>2020-10-28T12:29:37.470Z</time>
      </trkpt>
      <trkpt lat="48.07352" lon="6.86403">
        <ele>691</ele>
        <time>2020-10-28T12:29:38.469Z</time>
      </trkpt>
      <trkpt lat="48.07352" lon="6.86401">
        <ele>691</ele>
        <time>2020-10-28T12:29:39.470Z</time>
      </trkpt>
      <trkpt lat="48.07352" lon="6.86399">
        <ele>692</ele>
        <time>2020-10-28T12:29:40.470Z</time>
      </trkpt>
      <trkpt lat="48.07352" lon="6.86397">
        <ele>692</ele>
        <time>2020-10-28T12:29:41.470Z</time>
      </trkpt>
      <trkpt lat="48.07352" lon="6.86395">
        <ele>693</ele>
        <time>2020-10-28T12:29:42.469Z</time>
      </trkpt>
      <trkpt lat="48.07353" lon="6.86394">
        <ele>693</ele>
        <time>2020-10-28T12:29:43.470Z</time>
      </trkpt>
      <trkpt lat="48.07353" lon="6.86392">
        <ele>693</ele>
        <time>2020-10-28T12:29:44.470Z</time>
      </trkpt>
      <trkpt lat="48.07353" lon="6.8639">
        <ele>693</ele>
        <time>2020-10-28T12:29:45.470Z</time>
      </trkpt>
      <trkpt lat="48.07353" lon="6.86388">
        <ele>693</ele>
        <time>2020-10-28T12:29:46.470Z</time>
      </trkpt>
      <trkpt lat="48.07353" lon="6.86386">
        <ele>692</ele>
        <time>2020-10-28T12:29:47.470Z</time>
      </trkpt>
      <trkpt lat="48.07354" lon="6.86384">
        <ele>692</ele>
        <time>2020-10-28T12:29:48.470Z</time>
      </trkpt>
      <trkpt lat="48.07354" lon="6.86382">
        <ele>693</ele>
        <time>2020-10-28T12:29:49.470Z</time>
      </trkpt>
      <trkpt lat="48.07354" lon="6.8638">
        <ele>693</ele>
        <time>2020-10-28T12:29:50.470Z</time>
      </trkpt>
      <trkpt lat="48.07355" lon="6.86378">
        <ele>693</ele>
        <time>2020-10-28T12:29:51.470Z</time>
      </trkpt>
      <trkpt lat="48.07356" lon="6.86377">
        <ele>693</ele>
        <time>2020-10-28T12:29:52.469Z</time>
      </trkpt>
      <trkpt lat="48.07356" lon="6.86375">
        <ele>693</ele>
        <time>2020-10-28T12:29:53.469Z</time>
      </trkpt>
      <trkpt lat="48.07356" lon="6.86372">
        <ele>693</ele>
        <time>2020-10-28T12:29:54.469Z</time>
      </trkpt>
      <trkpt lat="48.07357" lon="6.8637">
        <ele>694</ele>
        <time>2020-10-28T12:29:55.470Z</time>
      </trkpt>
      <trkpt lat="48.07357" lon="6.86368">
        <ele>694</ele>
        <time>2020-10-28T12:29:56.469Z</time>
      </trkpt>
      <trkpt lat="48.07358" lon="6.86366">
        <ele>694</ele>
        <time>2020-10-28T12:29:57.470Z</time>
      </trkpt>
      <trkpt lat="48.07358" lon="6.86364">
        <ele>695</ele>
        <time>2020-10-28T12:29:58.470Z</time>
      </trkpt>
      <trkpt lat="48.07359" lon="6.86361">
        <ele>695</ele>
        <time>2020-10-28T12:29:59.470Z</time>
      </trkpt>
      <trkpt lat="48.0736" lon="6.8636">
        <ele>695</ele>
        <time>2020-10-28T12:30:00.469Z</time>
      </trkpt>
      <trkpt lat="48.0736" lon="6.86358">
        <ele>695</ele>
        <time>2020-10-28T12:30:01.470Z</time>
      </trkpt>
      <trkpt lat="48.07362" lon="6.86355">
        <ele>695</ele>
        <time>2020-10-28T12:30:02.470Z</time>
      </trkpt>
      <trkpt lat="48.07362" lon="6.86353">
        <ele>695</ele>
        <time>2020-10-28T12:30:03.470Z</time>
      </trkpt>
      <trkpt lat="48.07363" lon="6.86351">
        <ele>695</ele>
        <time>2020-10-28T12:30:04.470Z</time>
      </trkpt>
      <trkpt lat="48.07363" lon="6.86349">
        <ele>695</ele>
        <time>2020-10-28T12:30:05.469Z</time>
      </trkpt>
      <trkpt lat="48.07364" lon="6.86348">
        <ele>695</ele>
        <time>2020-10-28T12:30:06.470Z</time>
      </trkpt>
      <trkpt lat="48.07365" lon="6.86346">
        <ele>695</ele>
        <time>2020-10-28T12:30:07.470Z</time>
      </trkpt>
      <trkpt lat="48.07366" lon="6.86344">
        <ele>695</ele>
        <time>2020-10-28T12:30:08.470Z</time>
      </trkpt>
      <trkpt lat="48.07366" lon="6.86342">
        <ele>695</ele>
        <time>2020-10-28T12:30:09.470Z</time>
      </trkpt>
      <trkpt lat="48.07367" lon="6.86341">
        <ele>695</ele>
        <time>2020-10-28T12:30:10.469Z</time>
      </trkpt>
      <trkpt lat="48.07368" lon="6.86339">
        <ele>695</ele>
        <time>2020-10-28T12:30:11.470Z</time>
      </trkpt>
      <trkpt lat="48.07368" lon="6.86337">
        <ele>696</ele>
        <time>2020-10-28T12:30:12.470Z</time>
      </trkpt>
      <trkpt lat="48.07369" lon="6.86336">
        <ele>696</ele>
        <time>2020-10-28T12:30:13.470Z</time>
      </trkpt>
      <trkpt lat="48.0737" lon="6.86334">
        <ele>696</ele>
        <time>2020-10-28T12:30:14.470Z</time>
      </trkpt>
      <trkpt lat="48.0737" lon="6.86332">
        <ele>697</ele>
        <time>2020-10-28T12:30:15.470Z</time>
      </trkpt>
      <trkpt lat="48.07371" lon="6.86331">
        <ele>697</ele>
        <time>2020-10-28T12:30:16.470Z</time>
      </trkpt>
      <trkpt lat="48.07372" lon="6.86329">
        <ele>697</ele>
        <time>2020-10-28T12:30:17.470Z</time>
      </trkpt>
      <trkpt lat="48.07372" lon="6.86328">
        <ele>698</ele>
        <time>2020-10-28T12:30:18.469Z</time>
      </trkpt>
      <trkpt lat="48.07373" lon="6.86326">
        <ele>698</ele>
        <time>2020-10-28T12:30:19.470Z</time>
      </trkpt>
      <trkpt lat="48.07374" lon="6.86325">
        <ele>699</ele>
        <time>2020-10-28T12:30:20.469Z</time>
      </trkpt>
      <trkpt lat="48.07374" lon="6.86323">
        <ele>699</ele>
        <time>2020-10-28T12:30:21.470Z</time>
      </trkpt>
      <trkpt lat="48.07375" lon="6.86321">
        <ele>699</ele>
        <time>2020-10-28T12:30:22.470Z</time>
      </trkpt>
      <trkpt lat="48.07376" lon="6.86319">
        <ele>699</ele>
        <time>2020-10-28T12:30:23.470Z</time>
      </trkpt>
      <trkpt lat="48.07377" lon="6.86317">
        <ele>699</ele>
        <time>2020-10-28T12:30:24.469Z</time>
      </trkpt>
      <trkpt lat="48.07378" lon="6.86315">
        <ele>699</ele>
        <time>2020-10-28T12:30:25.470Z</time>
      </trkpt>
      <trkpt lat="48.07379" lon="6.86313">
        <ele>699</ele>
        <time>2020-10-28T12:30:26.469Z</time>
      </trkpt>
      <trkpt lat="48.07379" lon="6.86311">
        <ele>699</ele>
        <time>2020-10-28T12:30:27.470Z</time>
      </trkpt>
      <trkpt lat="48.0738" lon="6.86308">
        <ele>699</ele>
        <time>2020-10-28T12:30:28.470Z</time>
      </trkpt>
      <trkpt lat="48.07381" lon="6.86306">
        <ele>699</ele>
        <time>2020-10-28T12:30:29.470Z</time>
      </trkpt>
      <trkpt lat="48.07381" lon="6.86304">
        <ele>699</ele>
        <time>2020-10-28T12:30:30.470Z</time>
      </trkpt>
      <trkpt lat="48.07382" lon="6.86303">
        <ele>698</ele>
        <time>2020-10-28T12:30:31.469Z</time>
      </trkpt>
      <trkpt lat="48.07383" lon="6.86301">
        <ele>698</ele>
        <time>2020-10-28T12:30:32.470Z</time>
      </trkpt>
      <trkpt lat="48.07383" lon="6.86299">
        <ele>699</ele>
        <time>2020-10-28T12:30:33.470Z</time>
      </trkpt>
      <trkpt lat="48.07384" lon="6.86298">
        <ele>699</ele>
        <time>2020-10-28T12:30:34.470Z</time>
      </trkpt>
      <trkpt lat="48.07385" lon="6.86295">
        <ele>699</ele>
        <time>2020-10-28T12:30:35.470Z</time>
      </trkpt>
      <trkpt lat="48.07385" lon="6.86293">
        <ele>699</ele>
        <time>2020-10-28T12:30:36.470Z</time>
      </trkpt>
      <trkpt lat="48.07386" lon="6.86291">
        <ele>699</ele>
        <time>2020-10-28T12:30:37.470Z</time>
      </trkpt>
      <trkpt lat="48.07386" lon="6.86289">
        <ele>700</ele>
        <time>2020-10-28T12:30:38.470Z</time>
      </trkpt>
      <trkpt lat="48.07386" lon="6.86287">
        <ele>700</ele>
        <time>2020-10-28T12:30:39.470Z</time>
      </trkpt>
      <trkpt lat="48.07387" lon="6.86286">
        <ele>699</ele>
        <time>2020-10-28T12:30:40.469Z</time>
      </trkpt>
      <trkpt lat="48.07387" lon="6.86285">
        <ele>699</ele>
        <time>2020-10-28T12:30:41.470Z</time>
      </trkpt>
      <trkpt lat="48.07387" lon="6.86283">
        <ele>699</ele>
        <time>2020-10-28T12:30:42.470Z</time>
      </trkpt>
      <trkpt lat="48.07387" lon="6.86281">
        <ele>699</ele>
        <time>2020-10-28T12:30:43.470Z</time>
      </trkpt>
      <trkpt lat="48.07388" lon="6.86279">
        <ele>698</ele>
        <time>2020-10-28T12:30:44.470Z</time>
      </trkpt>
      <trkpt lat="48.07389" lon="6.86276">
        <ele>698</ele>
        <time>2020-10-28T12:30:45.470Z</time>
      </trkpt>
      <trkpt lat="48.07391" lon="6.86274">
        <ele>698</ele>
        <time>2020-10-28T12:30:46.469Z</time>
      </trkpt>
      <trkpt lat="48.07391" lon="6.86273">
        <ele>697</ele>
        <time>2020-10-28T12:30:47.470Z</time>
      </trkpt>
      <trkpt lat="48.07392" lon="6.86272">
        <ele>697</ele>
        <time>2020-10-28T12:30:48.470Z</time>
      </trkpt>
      <trkpt lat="48.07393" lon="6.86269">
        <ele>696</ele>
        <time>2020-10-28T12:30:49.470Z</time>
      </trkpt>
      <trkpt lat="48.07394" lon="6.86268">
        <ele>695</ele>
        <time>2020-10-28T12:30:50.470Z</time>
      </trkpt>
      <trkpt lat="48.07395" lon="6.86266">
        <ele>695</ele>
        <time>2020-10-28T12:30:51.470Z</time>
      </trkpt>
      <trkpt lat="48.07396" lon="6.86265">
        <ele>694</ele>
        <time>2020-10-28T12:30:52.469Z</time>
      </trkpt>
      <trkpt lat="48.07397" lon="6.86263">
        <ele>694</ele>
        <time>2020-10-28T12:30:53.470Z</time>
      </trkpt>
      <trkpt lat="48.07398" lon="6.86261">
        <ele>694</ele>
        <time>2020-10-28T12:30:54.470Z</time>
      </trkpt>
      <trkpt lat="48.07398" lon="6.8626">
        <ele>694</ele>
        <time>2020-10-28T12:30:55.470Z</time>
      </trkpt>
      <trkpt lat="48.07399" lon="6.86257">
        <ele>694</ele>
        <time>2020-10-28T12:30:56.470Z</time>
      </trkpt>
      <trkpt lat="48.07399" lon="6.86254">
        <ele>695</ele>
        <time>2020-10-28T12:30:57.469Z</time>
      </trkpt>
      <trkpt lat="48.074" lon="6.86252">
        <ele>695</ele>
        <time>2020-10-28T12:30:58.470Z</time>
      </trkpt>
      <trkpt lat="48.074" lon="6.8625">
        <ele>695</ele>
        <time>2020-10-28T12:30:59.470Z</time>
      </trkpt>
      <trkpt lat="48.07401" lon="6.86248">
        <ele>695</ele>
        <time>2020-10-28T12:31:00.469Z</time>
      </trkpt>
      <trkpt lat="48.07402" lon="6.86247">
        <ele>696</ele>
        <time>2020-10-28T12:31:01.470Z</time>
      </trkpt>
      <trkpt lat="48.07403" lon="6.86246">
        <ele>696</ele>
        <time>2020-10-28T12:31:02.470Z</time>
      </trkpt>
      <trkpt lat="48.07403" lon="6.86244">
        <ele>697</ele>
        <time>2020-10-28T12:31:03.469Z</time>
      </trkpt>
      <trkpt lat="48.07403" lon="6.86242">
        <ele>697</ele>
        <time>2020-10-28T12:31:04.470Z</time>
      </trkpt>
      <trkpt lat="48.07404" lon="6.8624">
        <ele>697</ele>
        <time>2020-10-28T12:31:05.469Z</time>
      </trkpt>
      <trkpt lat="48.07404" lon="6.86239">
        <ele>697</ele>
        <time>2020-10-28T12:31:06.469Z</time>
      </trkpt>
      <trkpt lat="48.07405" lon="6.86237">
        <ele>697</ele>
        <time>2020-10-28T12:31:07.469Z</time>
      </trkpt>
      <trkpt lat="48.07406" lon="6.86236">
        <ele>696</ele>
        <time>2020-10-28T12:31:08.470Z</time>
      </trkpt>
      <trkpt lat="48.07406" lon="6.86234">
        <ele>696</ele>
        <time>2020-10-28T12:31:09.470Z</time>
      </trkpt>
      <trkpt lat="48.07407" lon="6.86232">
        <ele>696</ele>
        <time>2020-10-28T12:31:10.470Z</time>
      </trkpt>
      <trkpt lat="48.07407" lon="6.8623">
        <ele>696</ele>
        <time>2020-10-28T12:31:11.469Z</time>
      </trkpt>
      <trkpt lat="48.07408" lon="6.86228">
        <ele>696</ele>
        <time>2020-10-28T12:31:12.470Z</time>
      </trkpt>
      <trkpt lat="48.07409" lon="6.86225">
        <ele>695</ele>
        <time>2020-10-28T12:31:13.469Z</time>
      </trkpt>
      <trkpt lat="48.0741" lon="6.86223">
        <ele>695</ele>
        <time>2020-10-28T12:31:14.470Z</time>
      </trkpt>
      <trkpt lat="48.07411" lon="6.86221">
        <ele>695</ele>
        <time>2020-10-28T12:31:15.470Z</time>
      </trkpt>
      <trkpt lat="48.07412" lon="6.8622">
        <ele>695</ele>
        <time>2020-10-28T12:31:16.470Z</time>
      </trkpt>
      <trkpt lat="48.07412" lon="6.86218">
        <ele>695</ele>
        <time>2020-10-28T12:31:17.470Z</time>
      </trkpt>
      <trkpt lat="48.07413" lon="6.86215">
        <ele>695</ele>
        <time>2020-10-28T12:31:18.470Z</time>
      </trkpt>
      <trkpt lat="48.07413" lon="6.86213">
        <ele>695</ele>
        <time>2020-10-28T12:31:19.470Z</time>
      </trkpt>
      <trkpt lat="48.07413" lon="6.8621">
        <ele>695</ele>
        <time>2020-10-28T12:31:20.470Z</time>
      </trkpt>
      <trkpt lat="48.07414" lon="6.86208">
        <ele>696</ele>
        <time>2020-10-28T12:31:21.469Z</time>
      </trkpt>
      <trkpt lat="48.07414" lon="6.86206">
        <ele>696</ele>
        <time>2020-10-28T12:31:22.470Z</time>
      </trkpt>
      <trkpt lat="48.07415" lon="6.86203">
        <ele>696</ele>
        <time>2020-10-28T12:31:23.470Z</time>
      </trkpt>
      <trkpt lat="48.07415" lon="6.86201">
        <ele>696</ele>
        <time>2020-10-28T12:31:24.469Z</time>
      </trkpt>
      <trkpt lat="48.07415" lon="6.86199">
        <ele>696</ele>
        <time>2020-10-28T12:31:25.470Z</time>
      </trkpt>
      <trkpt lat="48.07416" lon="6.86197">
        <ele>696</ele>
        <time>2020-10-28T12:31:26.470Z</time>
      </trkpt>
      <trkpt lat="48.07416" lon="6.86195">
        <ele>696</ele>
        <time>2020-10-28T12:31:27.469Z</time>
      </trkpt>
      <trkpt lat="48.07416" lon="6.86192">
        <ele>696</ele>
        <time>2020-10-28T12:31:28.470Z</time>
      </trkpt>
      <trkpt lat="48.07416" lon="6.8619">
        <ele>696</ele>
        <time>2020-10-28T12:31:29.469Z</time>
      </trkpt>
      <trkpt lat="48.07416" lon="6.86189">
        <ele>696</ele>
        <time>2020-10-28T12:31:30.470Z</time>
      </trkpt>
      <trkpt lat="48.07417" lon="6.86187">
        <ele>696</ele>
        <time>2020-10-28T12:31:31.470Z</time>
      </trkpt>
      <trkpt lat="48.07417" lon="6.86185">
        <ele>696</ele>
        <time>2020-10-28T12:31:32.469Z</time>
      </trkpt>
      <trkpt lat="48.07418" lon="6.86183">
        <ele>696</ele>
        <time>2020-10-28T12:31:33.470Z</time>
      </trkpt>
      <trkpt lat="48.07418" lon="6.86181">
        <ele>695</ele>
        <time>2020-10-28T12:31:34.470Z</time>
      </trkpt>
      <trkpt lat="48.07418" lon="6.8618">
        <ele>695</ele>
        <time>2020-10-28T12:31:35.469Z</time>
      </trkpt>
      <trkpt lat="48.07419" lon="6.86178">
        <ele>694</ele>
        <time>2020-10-28T12:31:36.470Z</time>
      </trkpt>
      <trkpt lat="48.0742" lon="6.86176">
        <ele>694</ele>
        <time>2020-10-28T12:31:37.469Z</time>
      </trkpt>
      <trkpt lat="48.0742" lon="6.86174">
        <ele>694</ele>
        <time>2020-10-28T12:31:38.470Z</time>
      </trkpt>
      <trkpt lat="48.07421" lon="6.86172">
        <ele>695</ele>
        <time>2020-10-28T12:31:39.470Z</time>
      </trkpt>
      <trkpt lat="48.07422" lon="6.8617">
        <ele>695</ele>
        <time>2020-10-28T12:31:40.469Z</time>
      </trkpt>
      <trkpt lat="48.07423" lon="6.86169">
        <ele>696</ele>
        <time>2020-10-28T12:31:41.469Z</time>
      </trkpt>
      <trkpt lat="48.07424" lon="6.86167">
        <ele>696</ele>
        <time>2020-10-28T12:31:42.469Z</time>
      </trkpt>
      <trkpt lat="48.07425" lon="6.86166">
        <ele>697</ele>
        <time>2020-10-28T12:31:43.470Z</time>
      </trkpt>
      <trkpt lat="48.07425" lon="6.86164">
        <ele>698</ele>
        <time>2020-10-28T12:31:44.470Z</time>
      </trkpt>
      <trkpt lat="48.07426" lon="6.86162">
        <ele>698</ele>
        <time>2020-10-28T12:31:45.470Z</time>
      </trkpt>
      <trkpt lat="48.07426" lon="6.8616">
        <ele>698</ele>
        <time>2020-10-28T12:31:46.470Z</time>
      </trkpt>
      <trkpt lat="48.07427" lon="6.86158">
        <ele>698</ele>
        <time>2020-10-28T12:31:50.489Z</time>
      </trkpt>
      <trkpt lat="48.07427" lon="6.86157">
        <ele>698</ele>
        <time>2020-10-28T12:31:51.489Z</time>
      </trkpt>
      <trkpt lat="48.07428" lon="6.86155">
        <ele>698</ele>
        <time>2020-10-28T12:31:52.489Z</time>
      </trkpt>
      <trkpt lat="48.07429" lon="6.86153">
        <ele>698</ele>
        <time>2020-10-28T12:31:53.488Z</time>
      </trkpt>
      <trkpt lat="48.07429" lon="6.86151">
        <ele>698</ele>
        <time>2020-10-28T12:31:54.488Z</time>
      </trkpt>
      <trkpt lat="48.0743" lon="6.86149">
        <ele>698</ele>
        <time>2020-10-28T12:31:55.489Z</time>
      </trkpt>
      <trkpt lat="48.0743" lon="6.86147">
        <ele>699</ele>
        <time>2020-10-28T12:31:56.488Z</time>
      </trkpt>
      <trkpt lat="48.07431" lon="6.86145">
        <ele>699</ele>
        <time>2020-10-28T12:31:57.489Z</time>
      </trkpt>
      <trkpt lat="48.07431" lon="6.86144">
        <ele>699</ele>
        <time>2020-10-28T12:31:58.489Z</time>
      </trkpt>
      <trkpt lat="48.07432" lon="6.86142">
        <ele>699</ele>
        <time>2020-10-28T12:31:59.489Z</time>
      </trkpt>
      <trkpt lat="48.07432" lon="6.8614">
        <ele>699</ele>
        <time>2020-10-28T12:32:00.488Z</time>
      </trkpt>
      <trkpt lat="48.07432" lon="6.86138">
        <ele>699</ele>
        <time>2020-10-28T12:32:01.489Z</time>
      </trkpt>
      <trkpt lat="48.07433" lon="6.86136">
        <ele>699</ele>
        <time>2020-10-28T12:32:02.489Z</time>
      </trkpt>
      <trkpt lat="48.07433" lon="6.86134">
        <ele>699</ele>
        <time>2020-10-28T12:32:03.489Z</time>
      </trkpt>
      <trkpt lat="48.07433" lon="6.86132">
        <ele>700</ele>
        <time>2020-10-28T12:32:04.489Z</time>
      </trkpt>
      <trkpt lat="48.07433" lon="6.8613">
        <ele>700</ele>
        <time>2020-10-28T12:32:05.488Z</time>
      </trkpt>
      <trkpt lat="48.07434" lon="6.86128">
        <ele>700</ele>
        <time>2020-10-28T12:32:06.489Z</time>
      </trkpt>
      <trkpt lat="48.07434" lon="6.86126">
        <ele>701</ele>
        <time>2020-10-28T12:32:07.489Z</time>
      </trkpt>
      <trkpt lat="48.07434" lon="6.86123">
        <ele>702</ele>
        <time>2020-10-28T12:32:08.488Z</time>
      </trkpt>
      <trkpt lat="48.07434" lon="6.86122">
        <ele>702</ele>
        <time>2020-10-28T12:32:09.489Z</time>
      </trkpt>
      <trkpt lat="48.07435" lon="6.8612">
        <ele>703</ele>
        <time>2020-10-28T12:32:10.488Z</time>
      </trkpt>
      <trkpt lat="48.07435" lon="6.86118">
        <ele>704</ele>
        <time>2020-10-28T12:32:11.489Z</time>
      </trkpt>
      <trkpt lat="48.07436" lon="6.86115">
        <ele>704</ele>
        <time>2020-10-28T12:32:12.489Z</time>
      </trkpt>
      <trkpt lat="48.07436" lon="6.86113">
        <ele>704</ele>
        <time>2020-10-28T12:32:13.489Z</time>
      </trkpt>
      <trkpt lat="48.07436" lon="6.8611">
        <ele>704</ele>
        <time>2020-10-28T12:32:14.488Z</time>
      </trkpt>
      <trkpt lat="48.07437" lon="6.86108">
        <ele>705</ele>
        <time>2020-10-28T12:32:15.489Z</time>
      </trkpt>
      <trkpt lat="48.07438" lon="6.86106">
        <ele>705</ele>
        <time>2020-10-28T12:32:16.489Z</time>
      </trkpt>
      <trkpt lat="48.07438" lon="6.86104">
        <ele>705</ele>
        <time>2020-10-28T12:32:17.489Z</time>
      </trkpt>
      <trkpt lat="48.07439" lon="6.86103">
        <ele>706</ele>
        <time>2020-10-28T12:32:18.489Z</time>
      </trkpt>
      <trkpt lat="48.07439" lon="6.86101">
        <ele>706</ele>
        <time>2020-10-28T12:32:19.489Z</time>
      </trkpt>
      <trkpt lat="48.0744" lon="6.86098">
        <ele>706</ele>
        <time>2020-10-28T12:32:20.489Z</time>
      </trkpt>
      <trkpt lat="48.0744" lon="6.86096">
        <ele>706</ele>
        <time>2020-10-28T12:32:21.489Z</time>
      </trkpt>
      <trkpt lat="48.0744" lon="6.86094">
        <ele>707</ele>
        <time>2020-10-28T12:32:22.489Z</time>
      </trkpt>
      <trkpt lat="48.0744" lon="6.86092">
        <ele>707</ele>
        <time>2020-10-28T12:32:23.489Z</time>
      </trkpt>
      <trkpt lat="48.07441" lon="6.8609">
        <ele>707</ele>
        <time>2020-10-28T12:32:24.489Z</time>
      </trkpt>
      <trkpt lat="48.07441" lon="6.86089">
        <ele>707</ele>
        <time>2020-10-28T12:32:25.489Z</time>
      </trkpt>
      <trkpt lat="48.07442" lon="6.86087">
        <ele>707</ele>
        <time>2020-10-28T12:32:26.488Z</time>
      </trkpt>
      <trkpt lat="48.07442" lon="6.86085">
        <ele>707</ele>
        <time>2020-10-28T12:32:27.489Z</time>
      </trkpt>
      <trkpt lat="48.07442" lon="6.86083">
        <ele>707</ele>
        <time>2020-10-28T12:32:28.489Z</time>
      </trkpt>
      <trkpt lat="48.07443" lon="6.86081">
        <ele>707</ele>
        <time>2020-10-28T12:32:29.489Z</time>
      </trkpt>
      <trkpt lat="48.07444" lon="6.86079">
        <ele>706</ele>
        <time>2020-10-28T12:32:30.489Z</time>
      </trkpt>
      <trkpt lat="48.07444" lon="6.86077">
        <ele>707</ele>
        <time>2020-10-28T12:32:31.489Z</time>
      </trkpt>
      <trkpt lat="48.07445" lon="6.86075">
        <ele>707</ele>
        <time>2020-10-28T12:32:32.489Z</time>
      </trkpt>
      <trkpt lat="48.07446" lon="6.86073">
        <ele>707</ele>
        <time>2020-10-28T12:32:33.489Z</time>
      </trkpt>
      <trkpt lat="48.07447" lon="6.86072">
        <ele>706</ele>
        <time>2020-10-28T12:32:34.489Z</time>
      </trkpt>
      <trkpt lat="48.07447" lon="6.8607">
        <ele>706</ele>
        <time>2020-10-28T12:32:35.489Z</time>
      </trkpt>
      <trkpt lat="48.07448" lon="6.86069">
        <ele>706</ele>
        <time>2020-10-28T12:32:40.592Z</time>
      </trkpt>
      <trkpt lat="48.07449" lon="6.86068">
        <ele>705</ele>
        <time>2020-10-28T12:32:41.592Z</time>
      </trkpt>
      <trkpt lat="48.0745" lon="6.86067">
        <ele>705</ele>
        <time>2020-10-28T12:32:42.592Z</time>
      </trkpt>
      <trkpt lat="48.07451" lon="6.86065">
        <ele>705</ele>
        <time>2020-10-28T12:32:43.591Z</time>
      </trkpt>
      <trkpt lat="48.07452" lon="6.86064">
        <ele>705</ele>
        <time>2020-10-28T12:32:44.591Z</time>
      </trkpt>
      <trkpt lat="48.07453" lon="6.86062">
        <ele>705</ele>
        <time>2020-10-28T12:32:45.591Z</time>
      </trkpt>
      <trkpt lat="48.07454" lon="6.86061">
        <ele>705</ele>
        <time>2020-10-28T12:32:46.592Z</time>
      </trkpt>
      <trkpt lat="48.07455" lon="6.8606">
        <ele>705</ele>
        <time>2020-10-28T12:32:47.592Z</time>
      </trkpt>
      <trkpt lat="48.07456" lon="6.86059">
        <ele>705</ele>
        <time>2020-10-28T12:32:48.591Z</time>
      </trkpt>
      <trkpt lat="48.07456" lon="6.86058">
        <ele>706</ele>
        <time>2020-10-28T12:32:49.591Z</time>
      </trkpt>
      <trkpt lat="48.07457" lon="6.86056">
        <ele>706</ele>
        <time>2020-10-28T12:32:50.591Z</time>
      </trkpt>
      <trkpt lat="48.07458" lon="6.86055">
        <ele>705</ele>
        <time>2020-10-28T12:32:51.591Z</time>
      </trkpt>
      <trkpt lat="48.07459" lon="6.86054">
        <ele>705</ele>
        <time>2020-10-28T12:32:52.592Z</time>
      </trkpt>
      <trkpt lat="48.0746" lon="6.86053">
        <ele>705</ele>
        <time>2020-10-28T12:32:53.592Z</time>
      </trkpt>
      <trkpt lat="48.0746" lon="6.86051">
        <ele>705</ele>
        <time>2020-10-28T12:32:54.592Z</time>
      </trkpt>
      <trkpt lat="48.0746" lon="6.8605">
        <ele>705</ele>
        <time>2020-10-28T12:32:55.591Z</time>
      </trkpt>
      <trkpt lat="48.07461" lon="6.86048">
        <ele>705</ele>
        <time>2020-10-28T12:32:56.592Z</time>
      </trkpt>
      <trkpt lat="48.07461" lon="6.86047">
        <ele>704</ele>
        <time>2020-10-28T12:32:57.592Z</time>
      </trkpt>
      <trkpt lat="48.07462" lon="6.86045">
        <ele>704</ele>
        <time>2020-10-28T12:32:58.592Z</time>
      </trkpt>
      <trkpt lat="48.07463" lon="6.86043">
        <ele>703</ele>
        <time>2020-10-28T12:32:59.592Z</time>
      </trkpt>
      <trkpt lat="48.07463" lon="6.86041">
        <ele>703</ele>
        <time>2020-10-28T12:33:00.591Z</time>
      </trkpt>
      <trkpt lat="48.07464" lon="6.8604">
        <ele>703</ele>
        <time>2020-10-28T12:33:01.592Z</time>
      </trkpt>
      <trkpt lat="48.07464" lon="6.86038">
        <ele>703</ele>
        <time>2020-10-28T12:33:02.592Z</time>
      </trkpt>
      <trkpt lat="48.07465" lon="6.86036">
        <ele>703</ele>
        <time>2020-10-28T12:33:03.591Z</time>
      </trkpt>
      <trkpt lat="48.07465" lon="6.86035">
        <ele>703</ele>
        <time>2020-10-28T12:33:04.591Z</time>
      </trkpt>
      <trkpt lat="48.07466" lon="6.86034">
        <ele>703</ele>
        <time>2020-10-28T12:33:05.592Z</time>
      </trkpt>
      <trkpt lat="48.07466" lon="6.86032">
        <ele>703</ele>
        <time>2020-10-28T12:33:06.591Z</time>
      </trkpt>
      <trkpt lat="48.07467" lon="6.8603">
        <ele>703</ele>
        <time>2020-10-28T12:33:07.592Z</time>
      </trkpt>
      <trkpt lat="48.07467" lon="6.86029">
        <ele>703</ele>
        <time>2020-10-28T12:33:08.592Z</time>
      </trkpt>
      <trkpt lat="48.07467" lon="6.86028">
        <ele>703</ele>
        <time>2020-10-28T12:33:09.591Z</time>
      </trkpt>
      <trkpt lat="48.07468" lon="6.86026">
        <ele>703</ele>
        <time>2020-10-28T12:33:10.592Z</time>
      </trkpt>
      <trkpt lat="48.07468" lon="6.86025">
        <ele>703</ele>
        <time>2020-10-28T12:33:11.591Z</time>
      </trkpt>
      <trkpt lat="48.07468" lon="6.86023">
        <ele>703</ele>
        <time>2020-10-28T12:33:12.592Z</time>
      </trkpt>
      <trkpt lat="48.07469" lon="6.86021">
        <ele>704</ele>
        <time>2020-10-28T12:33:13.592Z</time>
      </trkpt>
      <trkpt lat="48.07469" lon="6.86019">
        <ele>705</ele>
        <time>2020-10-28T12:33:14.592Z</time>
      </trkpt>
      <trkpt lat="48.0747" lon="6.86017">
        <ele>706</ele>
        <time>2020-10-28T12:33:15.592Z</time>
      </trkpt>
      <trkpt lat="48.0747" lon="6.86015">
        <ele>706</ele>
        <time>2020-10-28T12:33:16.591Z</time>
      </trkpt>
      <trkpt lat="48.0747" lon="6.86014">
        <ele>707</ele>
        <time>2020-10-28T12:33:17.592Z</time>
      </trkpt>
      <trkpt lat="48.0747" lon="6.86012">
        <ele>708</ele>
        <time>2020-10-28T12:33:18.591Z</time>
      </trkpt>
      <trkpt lat="48.0747" lon="6.8601">
        <ele>708</ele>
        <time>2020-10-28T12:33:19.591Z</time>
      </trkpt>
      <trkpt lat="48.07471" lon="6.86008">
        <ele>709</ele>
        <time>2020-10-28T12:33:20.592Z</time>
      </trkpt>
      <trkpt lat="48.07471" lon="6.86006">
        <ele>709</ele>
        <time>2020-10-28T12:33:21.592Z</time>
      </trkpt>
      <trkpt lat="48.07471" lon="6.86004">
        <ele>709</ele>
        <time>2020-10-28T12:33:22.591Z</time>
      </trkpt>
      <trkpt lat="48.07471" lon="6.86002">
        <ele>709</ele>
        <time>2020-10-28T12:33:23.592Z</time>
      </trkpt>
      <trkpt lat="48.07472" lon="6.86">
        <ele>709</ele>
        <time>2020-10-28T12:33:24.591Z</time>
      </trkpt>
      <trkpt lat="48.07472" lon="6.85999">
        <ele>709</ele>
        <time>2020-10-28T12:33:25.592Z</time>
      </trkpt>
      <trkpt lat="48.07472" lon="6.85998">
        <ele>708</ele>
        <time>2020-10-28T12:33:26.592Z</time>
      </trkpt>
      <trkpt lat="48.07473" lon="6.85997">
        <ele>708</ele>
        <time>2020-10-28T12:33:27.592Z</time>
      </trkpt>
      <trkpt lat="48.07473" lon="6.85996">
        <ele>707</ele>
        <time>2020-10-28T12:33:28.592Z</time>
      </trkpt>
      <trkpt lat="48.07473" lon="6.85994">
        <ele>707</ele>
        <time>2020-10-28T12:33:29.591Z</time>
      </trkpt>
      <trkpt lat="48.07474" lon="6.85993">
        <ele>707</ele>
        <time>2020-10-28T12:33:30.592Z</time>
      </trkpt>
      <trkpt lat="48.07474" lon="6.85992">
        <ele>707</ele>
        <time>2020-10-28T12:33:31.592Z</time>
      </trkpt>
      <trkpt lat="48.07474" lon="6.8599">
        <ele>707</ele>
        <time>2020-10-28T12:33:32.591Z</time>
      </trkpt>
      <trkpt lat="48.07475" lon="6.85989">
        <ele>707</ele>
        <time>2020-10-28T12:33:33.591Z</time>
      </trkpt>
      <trkpt lat="48.07476" lon="6.85988">
        <ele>707</ele>
        <time>2020-10-28T12:33:34.592Z</time>
      </trkpt>
      <trkpt lat="48.07476" lon="6.85986">
        <ele>707</ele>
        <time>2020-10-28T12:33:35.592Z</time>
      </trkpt>
      <trkpt lat="48.07477" lon="6.85984">
        <ele>707</ele>
        <time>2020-10-28T12:33:36.592Z</time>
      </trkpt>
      <trkpt lat="48.07477" lon="6.85983">
        <ele>708</ele>
        <time>2020-10-28T12:33:37.592Z</time>
      </trkpt>
      <trkpt lat="48.07478" lon="6.85981">
        <ele>708</ele>
        <time>2020-10-28T12:33:38.591Z</time>
      </trkpt>
      <trkpt lat="48.07478" lon="6.8598">
        <ele>708</ele>
        <time>2020-10-28T12:33:41.596Z</time>
      </trkpt>
      <trkpt lat="48.07478" lon="6.85979">
        <ele>708</ele>
        <time>2020-10-28T12:33:42.595Z</time>
      </trkpt>
      <trkpt lat="48.07479" lon="6.85977">
        <ele>708</ele>
        <time>2020-10-28T12:33:43.596Z</time>
      </trkpt>
      <trkpt lat="48.07479" lon="6.85975">
        <ele>708</ele>
        <time>2020-10-28T12:33:44.595Z</time>
      </trkpt>
      <trkpt lat="48.07479" lon="6.85973">
        <ele>708</ele>
        <time>2020-10-28T12:33:45.595Z</time>
      </trkpt>
      <trkpt lat="48.07479" lon="6.85972">
        <ele>708</ele>
        <time>2020-10-28T12:33:46.596Z</time>
      </trkpt>
      <trkpt lat="48.0748" lon="6.85971">
        <ele>709</ele>
        <time>2020-10-28T12:33:47.595Z</time>
      </trkpt>
      <trkpt lat="48.0748" lon="6.85969">
        <ele>709</ele>
        <time>2020-10-28T12:33:48.596Z</time>
      </trkpt>
      <trkpt lat="48.0748" lon="6.85967">
        <ele>710</ele>
        <time>2020-10-28T12:33:49.596Z</time>
      </trkpt>
      <trkpt lat="48.07481" lon="6.85966">
        <ele>710</ele>
        <time>2020-10-28T12:33:50.596Z</time>
      </trkpt>
      <trkpt lat="48.07481" lon="6.85964">
        <ele>710</ele>
        <time>2020-10-28T12:33:51.595Z</time>
      </trkpt>
      <trkpt lat="48.07481" lon="6.85962">
        <ele>711</ele>
        <time>2020-10-28T12:33:52.596Z</time>
      </trkpt>
      <trkpt lat="48.07482" lon="6.8596">
        <ele>711</ele>
        <time>2020-10-28T12:33:53.595Z</time>
      </trkpt>
      <trkpt lat="48.07482" lon="6.85959">
        <ele>711</ele>
        <time>2020-10-28T12:33:54.596Z</time>
      </trkpt>
      <trkpt lat="48.07482" lon="6.85958">
        <ele>711</ele>
        <time>2020-10-28T12:33:55.596Z</time>
      </trkpt>
      <trkpt lat="48.07482" lon="6.85956">
        <ele>710</ele>
        <time>2020-10-28T12:33:56.596Z</time>
      </trkpt>
      <trkpt lat="48.07483" lon="6.85956">
        <ele>710</ele>
        <time>2020-10-28T12:33:57.595Z</time>
      </trkpt>
      <trkpt lat="48.07483" lon="6.85954">
        <ele>709</ele>
        <time>2020-10-28T12:33:58.595Z</time>
      </trkpt>
      <trkpt lat="48.07483" lon="6.85953">
        <ele>709</ele>
        <time>2020-10-28T12:33:59.595Z</time>
      </trkpt>
      <trkpt lat="48.07483" lon="6.85952">
        <ele>709</ele>
        <time>2020-10-28T12:34:00.596Z</time>
      </trkpt>
      <trkpt lat="48.07484" lon="6.85951">
        <ele>708</ele>
        <time>2020-10-28T12:34:01.596Z</time>
      </trkpt>
      <trkpt lat="48.07484" lon="6.8595">
        <ele>708</ele>
        <time>2020-10-28T12:34:02.595Z</time>
      </trkpt>
      <trkpt lat="48.07484" lon="6.85949">
        <ele>708</ele>
        <time>2020-10-28T12:34:03.596Z</time>
      </trkpt>
      <trkpt lat="48.07485" lon="6.85949">
        <ele>708</ele>
        <time>2020-10-28T12:34:04.595Z</time>
      </trkpt>
      <trkpt lat="48.07485" lon="6.85948">
        <ele>708</ele>
        <time>2020-10-28T12:34:05.595Z</time>
      </trkpt>
      <trkpt lat="48.07485" lon="6.85947">
        <ele>708</ele>
        <time>2020-10-28T12:34:06.596Z</time>
      </trkpt>
      <trkpt lat="48.07485" lon="6.85947">
        <ele>708</ele>
        <time>2020-10-28T12:34:07.596Z</time>
      </trkpt>
      <trkpt lat="48.07485" lon="6.85946">
        <ele>708</ele>
        <time>2020-10-28T12:34:08.596Z</time>
      </trkpt>
      <trkpt lat="48.07485" lon="6.85945">
        <ele>708</ele>
        <time>2020-10-28T12:34:09.596Z</time>
      </trkpt>
      <trkpt lat="48.07486" lon="6.85944">
        <ele>709</ele>
        <time>2020-10-28T12:34:10.595Z</time>
      </trkpt>
      <trkpt lat="48.07486" lon="6.85942">
        <ele>709</ele>
        <time>2020-10-28T12:34:11.596Z</time>
      </trkpt>
      <trkpt lat="48.07486" lon="6.85941">
        <ele>709</ele>
        <time>2020-10-28T12:34:12.596Z</time>
      </trkpt>
      <trkpt lat="48.07486" lon="6.8594">
        <ele>709</ele>
        <time>2020-10-28T12:34:13.596Z</time>
      </trkpt>
      <trkpt lat="48.07487" lon="6.85939">
        <ele>709</ele>
        <time>2020-10-28T12:34:14.596Z</time>
      </trkpt>
      <trkpt lat="48.07487" lon="6.85938">
        <ele>709</ele>
        <time>2020-10-28T12:34:15.596Z</time>
      </trkpt>
      <trkpt lat="48.07486" lon="6.85937">
        <ele>709</ele>
        <time>2020-10-28T12:34:16.595Z</time>
      </trkpt>
      <trkpt lat="48.07486" lon="6.85935">
        <ele>709</ele>
        <time>2020-10-28T12:34:17.596Z</time>
      </trkpt>
      <trkpt lat="48.07486" lon="6.85934">
        <ele>709</ele>
        <time>2020-10-28T12:34:18.596Z</time>
      </trkpt>
      <trkpt lat="48.07486" lon="6.85932">
        <ele>710</ele>
        <time>2020-10-28T12:34:19.596Z</time>
      </trkpt>
      <trkpt lat="48.07486" lon="6.85931">
        <ele>711</ele>
        <time>2020-10-28T12:34:20.595Z</time>
      </trkpt>
      <trkpt lat="48.07486" lon="6.8593">
        <ele>711</ele>
        <time>2020-10-28T12:34:21.596Z</time>
      </trkpt>
      <trkpt lat="48.07487" lon="6.8593">
        <ele>712</ele>
        <time>2020-10-28T12:34:22.596Z</time>
      </trkpt>
      <trkpt lat="48.07487" lon="6.85929">
        <ele>713</ele>
        <time>2020-10-28T12:34:23.596Z</time>
      </trkpt>
      <trkpt lat="48.07487" lon="6.85929">
        <ele>713</ele>
        <time>2020-10-28T12:34:24.596Z</time>
      </trkpt>
      <trkpt lat="48.07487" lon="6.85928">
        <ele>713</ele>
        <time>2020-10-28T12:34:25.596Z</time>
      </trkpt>
      <trkpt lat="48.07488" lon="6.85926">
        <ele>713</ele>
        <time>2020-10-28T12:34:26.595Z</time>
      </trkpt>
      <trkpt lat="48.07488" lon="6.85924">
        <ele>713</ele>
        <time>2020-10-28T12:34:27.595Z</time>
      </trkpt>
      <trkpt lat="48.07488" lon="6.85923">
        <ele>713</ele>
        <time>2020-10-28T12:34:28.596Z</time>
      </trkpt>
      <trkpt lat="48.07488" lon="6.85922">
        <ele>713</ele>
        <time>2020-10-28T12:34:29.596Z</time>
      </trkpt>
      <trkpt lat="48.07487" lon="6.8592">
        <ele>712</ele>
        <time>2020-10-28T12:34:30.595Z</time>
      </trkpt>
      <trkpt lat="48.07488" lon="6.85918">
        <ele>712</ele>
        <time>2020-10-28T12:34:31.596Z</time>
      </trkpt>
      <trkpt lat="48.07488" lon="6.85916">
        <ele>712</ele>
        <time>2020-10-28T12:34:32.596Z</time>
      </trkpt>
      <trkpt lat="48.07489" lon="6.85914">
        <ele>712</ele>
        <time>2020-10-28T12:34:33.595Z</time>
      </trkpt>
      <trkpt lat="48.07489" lon="6.85913">
        <ele>712</ele>
        <time>2020-10-28T12:34:34.596Z</time>
      </trkpt>
      <trkpt lat="48.07489" lon="6.85912">
        <ele>713</ele>
        <time>2020-10-28T12:34:35.595Z</time>
      </trkpt>
      <trkpt lat="48.0749" lon="6.8591">
        <ele>713</ele>
        <time>2020-10-28T12:34:36.596Z</time>
      </trkpt>
      <trkpt lat="48.0749" lon="6.85909">
        <ele>713</ele>
        <time>2020-10-28T12:34:37.596Z</time>
      </trkpt>
      <trkpt lat="48.0749" lon="6.85908">
        <ele>713</ele>
        <time>2020-10-28T12:34:38.596Z</time>
      </trkpt>
      <trkpt lat="48.0749" lon="6.85907">
        <ele>714</ele>
        <time>2020-10-28T12:34:39.596Z</time>
      </trkpt>
      <trkpt lat="48.07491" lon="6.85906">
        <ele>714</ele>
        <time>2020-10-28T12:34:40.596Z</time>
      </trkpt>
      <trkpt lat="48.07491" lon="6.85904">
        <ele>714</ele>
        <time>2020-10-28T12:34:41.595Z</time>
      </trkpt>
      <trkpt lat="48.07491" lon="6.85904">
        <ele>714</ele>
        <time>2020-10-28T12:34:42.596Z</time>
      </trkpt>
      <trkpt lat="48.07491" lon="6.85903">
        <ele>713</ele>
        <time>2020-10-28T12:34:43.596Z</time>
      </trkpt>
      <trkpt lat="48.07492" lon="6.85903">
        <ele>713</ele>
        <time>2020-10-28T12:34:44.596Z</time>
      </trkpt>
      <trkpt lat="48.07492" lon="6.85902">
        <ele>713</ele>
        <time>2020-10-28T12:34:45.596Z</time>
      </trkpt>
      <trkpt lat="48.07492" lon="6.859">
        <ele>713</ele>
        <time>2020-10-28T12:34:46.596Z</time>
      </trkpt>
      <trkpt lat="48.07493" lon="6.85899">
        <ele>713</ele>
        <time>2020-10-28T12:34:47.596Z</time>
      </trkpt>
      <trkpt lat="48.07493" lon="6.85897">
        <ele>713</ele>
        <time>2020-10-28T12:34:48.596Z</time>
      </trkpt>
      <trkpt lat="48.07493" lon="6.85895">
        <ele>713</ele>
        <time>2020-10-28T12:34:49.595Z</time>
      </trkpt>
      <trkpt lat="48.07493" lon="6.85893">
        <ele>713</ele>
        <time>2020-10-28T12:34:50.596Z</time>
      </trkpt>
      <trkpt lat="48.07493" lon="6.85892">
        <ele>714</ele>
        <time>2020-10-28T12:34:51.596Z</time>
      </trkpt>
      <trkpt lat="48.07494" lon="6.85889">
        <ele>714</ele>
        <time>2020-10-28T12:34:52.596Z</time>
      </trkpt>
      <trkpt lat="48.07494" lon="6.85887">
        <ele>715</ele>
        <time>2020-10-28T12:34:53.595Z</time>
      </trkpt>
      <trkpt lat="48.07495" lon="6.85885">
        <ele>716</ele>
        <time>2020-10-28T12:34:54.595Z</time>
      </trkpt>
      <trkpt lat="48.07495" lon="6.85883">
        <ele>716</ele>
        <time>2020-10-28T12:34:55.595Z</time>
      </trkpt>
      <trkpt lat="48.07495" lon="6.85881">
        <ele>717</ele>
        <time>2020-10-28T12:34:56.596Z</time>
      </trkpt>
      <trkpt lat="48.07495" lon="6.85879">
        <ele>718</ele>
        <time>2020-10-28T12:34:57.596Z</time>
      </trkpt>
      <trkpt lat="48.07495" lon="6.85878">
        <ele>718</ele>
        <time>2020-10-28T12:34:58.596Z</time>
      </trkpt>
      <trkpt lat="48.07495" lon="6.85876">
        <ele>719</ele>
        <time>2020-10-28T12:34:59.595Z</time>
      </trkpt>
      <trkpt lat="48.07495" lon="6.85875">
        <ele>720</ele>
        <time>2020-10-28T12:35:00.596Z</time>
      </trkpt>
      <trkpt lat="48.07495" lon="6.85874">
        <ele>720</ele>
        <time>2020-10-28T12:35:01.596Z</time>
      </trkpt>
      <trkpt lat="48.07494" lon="6.85873">
        <ele>721</ele>
        <time>2020-10-28T12:35:02.596Z</time>
      </trkpt>
      <trkpt lat="48.07494" lon="6.85872">
        <ele>722</ele>
        <time>2020-10-28T12:35:03.596Z</time>
      </trkpt>
      <trkpt lat="48.07494" lon="6.8587">
        <ele>723</ele>
        <time>2020-10-28T12:35:04.596Z</time>
      </trkpt>
      <trkpt lat="48.07493" lon="6.85868">
        <ele>723</ele>
        <time>2020-10-28T12:35:05.596Z</time>
      </trkpt>
      <trkpt lat="48.07493" lon="6.85867">
        <ele>723</ele>
        <time>2020-10-28T12:35:06.595Z</time>
      </trkpt>
      <trkpt lat="48.07493" lon="6.85865">
        <ele>723</ele>
        <time>2020-10-28T12:35:07.596Z</time>
      </trkpt>
      <trkpt lat="48.07493" lon="6.85863">
        <ele>723</ele>
        <time>2020-10-28T12:35:08.596Z</time>
      </trkpt>
      <trkpt lat="48.07493" lon="6.85862">
        <ele>723</ele>
        <time>2020-10-28T12:35:09.596Z</time>
      </trkpt>
      <trkpt lat="48.07492" lon="6.8586">
        <ele>724</ele>
        <time>2020-10-28T12:35:10.596Z</time>
      </trkpt>
      <trkpt lat="48.07492" lon="6.85858">
        <ele>724</ele>
        <time>2020-10-28T12:35:11.596Z</time>
      </trkpt>
      <trkpt lat="48.07491" lon="6.85857">
        <ele>723</ele>
        <time>2020-10-28T12:35:12.596Z</time>
      </trkpt>
      <trkpt lat="48.07491" lon="6.85856">
        <ele>723</ele>
        <time>2020-10-28T12:35:13.596Z</time>
      </trkpt>
      <trkpt lat="48.07491" lon="6.85854">
        <ele>723</ele>
        <time>2020-10-28T12:35:14.596Z</time>
      </trkpt>
      <trkpt lat="48.07491" lon="6.85852">
        <ele>723</ele>
        <time>2020-10-28T12:35:15.595Z</time>
      </trkpt>
      <trkpt lat="48.07491" lon="6.85851">
        <ele>724</ele>
        <time>2020-10-28T12:35:16.596Z</time>
      </trkpt>
      <trkpt lat="48.07492" lon="6.85849">
        <ele>724</ele>
        <time>2020-10-28T12:35:17.595Z</time>
      </trkpt>
      <trkpt lat="48.07492" lon="6.85847">
        <ele>725</ele>
        <time>2020-10-28T12:35:18.595Z</time>
      </trkpt>
      <trkpt lat="48.07492" lon="6.85846">
        <ele>725</ele>
        <time>2020-10-28T12:35:19.596Z</time>
      </trkpt>
      <trkpt lat="48.07493" lon="6.85845">
        <ele>725</ele>
        <time>2020-10-28T12:35:20.596Z</time>
      </trkpt>
      <trkpt lat="48.07493" lon="6.85844">
        <ele>725</ele>
        <time>2020-10-28T12:35:21.596Z</time>
      </trkpt>
      <trkpt lat="48.07494" lon="6.85844">
        <ele>725</ele>
        <time>2020-10-28T12:35:22.596Z</time>
      </trkpt>
      <trkpt lat="48.07495" lon="6.85843">
        <ele>725</ele>
        <time>2020-10-28T12:35:23.595Z</time>
      </trkpt>
      <trkpt lat="48.07496" lon="6.85842">
        <ele>724</ele>
        <time>2020-10-28T12:35:24.596Z</time>
      </trkpt>
      <trkpt lat="48.07496" lon="6.85842">
        <ele>724</ele>
        <time>2020-10-28T12:35:25.596Z</time>
      </trkpt>
      <trkpt lat="48.07496" lon="6.8584">
        <ele>724</ele>
        <time>2020-10-28T12:35:26.595Z</time>
      </trkpt>
      <trkpt lat="48.07497" lon="6.85838">
        <ele>724</ele>
        <time>2020-10-28T12:35:27.596Z</time>
      </trkpt>
      <trkpt lat="48.07497" lon="6.85837">
        <ele>724</ele>
        <time>2020-10-28T12:35:28.596Z</time>
      </trkpt>
      <trkpt lat="48.07498" lon="6.85836">
        <ele>724</ele>
        <time>2020-10-28T12:35:29.596Z</time>
      </trkpt>
      <trkpt lat="48.07498" lon="6.85835">
        <ele>724</ele>
        <time>2020-10-28T12:35:30.596Z</time>
      </trkpt>
      <trkpt lat="48.07499" lon="6.85833">
        <ele>724</ele>
        <time>2020-10-28T12:35:31.595Z</time>
      </trkpt>
      <trkpt lat="48.07499" lon="6.85832">
        <ele>724</ele>
        <time>2020-10-28T12:35:32.596Z</time>
      </trkpt>
      <trkpt lat="48.075" lon="6.85831">
        <ele>724</ele>
        <time>2020-10-28T12:35:33.596Z</time>
      </trkpt>
      <trkpt lat="48.07501" lon="6.8583">
        <ele>724</ele>
        <time>2020-10-28T12:35:34.596Z</time>
      </trkpt>
      <trkpt lat="48.07502" lon="6.85829">
        <ele>724</ele>
        <time>2020-10-28T12:35:35.595Z</time>
      </trkpt>
      <trkpt lat="48.07502" lon="6.85829">
        <ele>724</ele>
        <time>2020-10-28T12:35:36.595Z</time>
      </trkpt>
      <trkpt lat="48.07503" lon="6.85829">
        <ele>724</ele>
        <time>2020-10-28T12:35:37.596Z</time>
      </trkpt>
      <trkpt lat="48.07504" lon="6.85828">
        <ele>723</ele>
        <time>2020-10-28T12:35:38.595Z</time>
      </trkpt>
      <trkpt lat="48.07504" lon="6.85828">
        <ele>723</ele>
        <time>2020-10-28T12:35:39.595Z</time>
      </trkpt>
      <trkpt lat="48.07505" lon="6.85827">
        <ele>723</ele>
        <time>2020-10-28T12:35:40.596Z</time>
      </trkpt>
      <trkpt lat="48.07506" lon="6.85826">
        <ele>723</ele>
        <time>2020-10-28T12:35:41.596Z</time>
      </trkpt>
      <trkpt lat="48.07506" lon="6.85826">
        <ele>723</ele>
        <time>2020-10-28T12:35:42.595Z</time>
      </trkpt>
      <trkpt lat="48.07507" lon="6.85825">
        <ele>724</ele>
        <time>2020-10-28T12:35:43.596Z</time>
      </trkpt>
      <trkpt lat="48.07508" lon="6.85825">
        <ele>724</ele>
        <time>2020-10-28T12:35:44.596Z</time>
      </trkpt>
      <trkpt lat="48.07508" lon="6.85824">
        <ele>724</ele>
        <time>2020-10-28T12:35:45.596Z</time>
      </trkpt>
      <trkpt lat="48.07509" lon="6.85823">
        <ele>725</ele>
        <time>2020-10-28T12:35:46.595Z</time>
      </trkpt>
      <trkpt lat="48.0751" lon="6.85822">
        <ele>725</ele>
        <time>2020-10-28T12:35:47.596Z</time>
      </trkpt>
      <trkpt lat="48.0751" lon="6.85822">
        <ele>725</ele>
        <time>2020-10-28T12:35:48.596Z</time>
      </trkpt>
      <trkpt lat="48.07511" lon="6.85821">
        <ele>725</ele>
        <time>2020-10-28T12:35:49.596Z</time>
      </trkpt>
      <trkpt lat="48.07512" lon="6.85821">
        <ele>725</ele>
        <time>2020-10-28T12:35:50.596Z</time>
      </trkpt>
      <trkpt lat="48.07512" lon="6.8582">
        <ele>725</ele>
        <time>2020-10-28T12:35:51.596Z</time>
      </trkpt>
      <trkpt lat="48.07513" lon="6.85819">
        <ele>726</ele>
        <time>2020-10-28T12:35:52.595Z</time>
      </trkpt>
      <trkpt lat="48.07513" lon="6.85819">
        <ele>726</ele>
        <time>2020-10-28T12:35:53.596Z</time>
      </trkpt>
      <trkpt lat="48.07514" lon="6.85819">
        <ele>727</ele>
        <time>2020-10-28T12:35:54.596Z</time>
      </trkpt>
      <trkpt lat="48.07515" lon="6.85819">
        <ele>727</ele>
        <time>2020-10-28T12:35:55.596Z</time>
      </trkpt>
      <trkpt lat="48.07515" lon="6.85818">
        <ele>728</ele>
        <time>2020-10-28T12:35:56.596Z</time>
      </trkpt>
      <trkpt lat="48.07516" lon="6.85817">
        <ele>728</ele>
        <time>2020-10-28T12:35:57.596Z</time>
      </trkpt>
      <trkpt lat="48.07516" lon="6.85816">
        <ele>729</ele>
        <time>2020-10-28T12:35:58.596Z</time>
      </trkpt>
      <trkpt lat="48.07517" lon="6.85815">
        <ele>729</ele>
        <time>2020-10-28T12:35:59.596Z</time>
      </trkpt>
      <trkpt lat="48.07518" lon="6.85814">
        <ele>729</ele>
        <time>2020-10-28T12:36:00.595Z</time>
      </trkpt>
      <trkpt lat="48.07518" lon="6.85814">
        <ele>729</ele>
        <time>2020-10-28T12:36:01.595Z</time>
      </trkpt>
      <trkpt lat="48.07519" lon="6.85813">
        <ele>729</ele>
        <time>2020-10-28T12:36:02.595Z</time>
      </trkpt>
      <trkpt lat="48.0752" lon="6.85813">
        <ele>729</ele>
        <time>2020-10-28T12:36:03.595Z</time>
      </trkpt>
      <trkpt lat="48.0752" lon="6.85812">
        <ele>729</ele>
        <time>2020-10-28T12:36:04.595Z</time>
      </trkpt>
      <trkpt lat="48.07521" lon="6.85812">
        <ele>729</ele>
        <time>2020-10-28T12:36:05.595Z</time>
      </trkpt>
      <trkpt lat="48.07522" lon="6.85812">
        <ele>730</ele>
        <time>2020-10-28T12:36:06.596Z</time>
      </trkpt>
      <trkpt lat="48.07523" lon="6.85812">
        <ele>730</ele>
        <time>2020-10-28T12:36:07.596Z</time>
      </trkpt>
      <trkpt lat="48.07524" lon="6.85812">
        <ele>730</ele>
        <time>2020-10-28T12:36:08.596Z</time>
      </trkpt>
      <trkpt lat="48.07525" lon="6.85812">
        <ele>730</ele>
        <time>2020-10-28T12:36:09.596Z</time>
      </trkpt>
      <trkpt lat="48.07526" lon="6.85812">
        <ele>730</ele>
        <time>2020-10-28T12:36:10.596Z</time>
      </trkpt>
      <trkpt lat="48.07527" lon="6.85812">
        <ele>730</ele>
        <time>2020-10-28T12:36:11.596Z</time>
      </trkpt>
      <trkpt lat="48.07527" lon="6.85812">
        <ele>729</ele>
        <time>2020-10-28T12:36:12.596Z</time>
      </trkpt>
      <trkpt lat="48.07528" lon="6.85812">
        <ele>729</ele>
        <time>2020-10-28T12:36:13.596Z</time>
      </trkpt>
      <trkpt lat="48.07529" lon="6.85812">
        <ele>728</ele>
        <time>2020-10-28T12:36:14.595Z</time>
      </trkpt>
      <trkpt lat="48.0753" lon="6.85812">
        <ele>728</ele>
        <time>2020-10-28T12:36:15.596Z</time>
      </trkpt>
      <trkpt lat="48.0753" lon="6.85812">
        <ele>728</ele>
        <time>2020-10-28T12:36:16.596Z</time>
      </trkpt>
      <trkpt lat="48.07531" lon="6.85812">
        <ele>728</ele>
        <time>2020-10-28T12:36:17.596Z</time>
      </trkpt>
      <trkpt lat="48.07531" lon="6.85812">
        <ele>728</ele>
        <time>2020-10-28T12:36:18.596Z</time>
      </trkpt>
      <trkpt lat="48.07531" lon="6.85812">
        <ele>728</ele>
        <time>2020-10-28T12:36:19.595Z</time>
      </trkpt>
      <trkpt lat="48.07531" lon="6.85812">
        <ele>727</ele>
        <time>2020-10-28T12:36:20.596Z</time>
      </trkpt>
      <trkpt lat="48.07531" lon="6.85812">
        <ele>726</ele>
        <time>2020-10-28T12:36:21.596Z</time>
      </trkpt>
      <trkpt lat="48.07532" lon="6.85813">
        <ele>726</ele>
        <time>2020-10-28T12:36:22.595Z</time>
      </trkpt>
      <trkpt lat="48.07533" lon="6.85813">
        <ele>726</ele>
        <time>2020-10-28T12:36:23.596Z</time>
      </trkpt>
      <trkpt lat="48.07533" lon="6.85813">
        <ele>725</ele>
        <time>2020-10-28T12:36:24.596Z</time>
      </trkpt>
      <trkpt lat="48.07534" lon="6.85813">
        <ele>725</ele>
        <time>2020-10-28T12:36:25.596Z</time>
      </trkpt>
      <trkpt lat="48.07535" lon="6.85813">
        <ele>726</ele>
        <time>2020-10-28T12:36:26.595Z</time>
      </trkpt>
      <trkpt lat="48.07536" lon="6.85814">
        <ele>726</ele>
        <time>2020-10-28T12:36:27.596Z</time>
      </trkpt>
      <trkpt lat="48.07537" lon="6.85814">
        <ele>726</ele>
        <time>2020-10-28T12:36:28.595Z</time>
      </trkpt>
      <trkpt lat="48.07537" lon="6.85814">
        <ele>726</ele>
        <time>2020-10-28T12:36:29.595Z</time>
      </trkpt>
      <trkpt lat="48.07538" lon="6.85813">
        <ele>726</ele>
        <time>2020-10-28T12:36:30.596Z</time>
      </trkpt>
      <trkpt lat="48.0754" lon="6.85813">
        <ele>727</ele>
        <time>2020-10-28T12:36:31.595Z</time>
      </trkpt>
      <trkpt lat="48.07541" lon="6.85813">
        <ele>727</ele>
        <time>2020-10-28T12:36:32.595Z</time>
      </trkpt>
      <trkpt lat="48.07542" lon="6.85813">
        <ele>727</ele>
        <time>2020-10-28T12:36:33.595Z</time>
      </trkpt>
      <trkpt lat="48.07542" lon="6.85813">
        <ele>727</ele>
        <time>2020-10-28T12:36:34.595Z</time>
      </trkpt>
      <trkpt lat="48.07543" lon="6.85813">
        <ele>727</ele>
        <time>2020-10-28T12:36:35.595Z</time>
      </trkpt>
      <trkpt lat="48.07544" lon="6.85814">
        <ele>728</ele>
        <time>2020-10-28T12:36:36.595Z</time>
      </trkpt>
      <trkpt lat="48.07545" lon="6.85814">
        <ele>728</ele>
        <time>2020-10-28T12:36:37.595Z</time>
      </trkpt>
      <trkpt lat="48.07546" lon="6.85814">
        <ele>729</ele>
        <time>2020-10-28T12:36:38.596Z</time>
      </trkpt>
      <trkpt lat="48.07547" lon="6.85814">
        <ele>729</ele>
        <time>2020-10-28T12:36:39.596Z</time>
      </trkpt>
      <trkpt lat="48.07547" lon="6.85814">
        <ele>730</ele>
        <time>2020-10-28T12:36:40.596Z</time>
      </trkpt>
      <trkpt lat="48.07548" lon="6.85814">
        <ele>730</ele>
        <time>2020-10-28T12:36:41.596Z</time>
      </trkpt>
      <trkpt lat="48.07549" lon="6.85814">
        <ele>731</ele>
        <time>2020-10-28T12:36:42.596Z</time>
      </trkpt>
      <trkpt lat="48.0755" lon="6.85813">
        <ele>731</ele>
        <time>2020-10-28T12:36:43.596Z</time>
      </trkpt>
      <trkpt lat="48.07551" lon="6.85813">
        <ele>731</ele>
        <time>2020-10-28T12:36:44.596Z</time>
      </trkpt>
      <trkpt lat="48.07551" lon="6.85813">
        <ele>731</ele>
        <time>2020-10-28T12:36:45.596Z</time>
      </trkpt>
      <trkpt lat="48.07552" lon="6.85813">
        <ele>732</ele>
        <time>2020-10-28T12:36:46.596Z</time>
      </trkpt>
      <trkpt lat="48.07553" lon="6.85813">
        <ele>732</ele>
        <time>2020-10-28T12:36:47.596Z</time>
      </trkpt>
      <trkpt lat="48.07554" lon="6.85812">
        <ele>732</ele>
        <time>2020-10-28T12:36:48.596Z</time>
      </trkpt>
      <trkpt lat="48.07555" lon="6.85812">
        <ele>732</ele>
        <time>2020-10-28T12:36:49.596Z</time>
      </trkpt>
      <trkpt lat="48.07555" lon="6.85812">
        <ele>732</ele>
        <time>2020-10-28T12:36:50.596Z</time>
      </trkpt>
      <trkpt lat="48.07556" lon="6.85811">
        <ele>732</ele>
        <time>2020-10-28T12:36:51.596Z</time>
      </trkpt>
      <trkpt lat="48.07557" lon="6.85811">
        <ele>732</ele>
        <time>2020-10-28T12:36:52.596Z</time>
      </trkpt>
      <trkpt lat="48.07557" lon="6.85811">
        <ele>733</ele>
        <time>2020-10-28T12:36:53.596Z</time>
      </trkpt>
      <trkpt lat="48.07558" lon="6.85811">
        <ele>733</ele>
        <time>2020-10-28T12:36:54.596Z</time>
      </trkpt>
      <trkpt lat="48.07559" lon="6.85811">
        <ele>734</ele>
        <time>2020-10-28T12:36:55.596Z</time>
      </trkpt>
      <trkpt lat="48.0756" lon="6.8581">
        <ele>734</ele>
        <time>2020-10-28T12:36:56.596Z</time>
      </trkpt>
      <trkpt lat="48.07561" lon="6.8581">
        <ele>735</ele>
        <time>2020-10-28T12:36:57.596Z</time>
      </trkpt>
      <trkpt lat="48.07562" lon="6.8581">
        <ele>735</ele>
        <time>2020-10-28T12:36:58.596Z</time>
      </trkpt>
      <trkpt lat="48.07562" lon="6.85809">
        <ele>735</ele>
        <time>2020-10-28T12:36:59.596Z</time>
      </trkpt>
      <trkpt lat="48.07563" lon="6.85809">
        <ele>735</ele>
        <time>2020-10-28T12:37:00.596Z</time>
      </trkpt>
      <trkpt lat="48.07564" lon="6.85808">
        <ele>735</ele>
        <time>2020-10-28T12:37:01.596Z</time>
      </trkpt>
      <trkpt lat="48.07565" lon="6.85808">
        <ele>735</ele>
        <time>2020-10-28T12:37:02.596Z</time>
      </trkpt>
      <trkpt lat="48.07565" lon="6.85807">
        <ele>735</ele>
        <time>2020-10-28T12:37:03.596Z</time>
      </trkpt>
      <trkpt lat="48.07565" lon="6.85806">
        <ele>735</ele>
        <time>2020-10-28T12:37:04.596Z</time>
      </trkpt>
      <trkpt lat="48.07566" lon="6.85805">
        <ele>735</ele>
        <time>2020-10-28T12:37:05.596Z</time>
      </trkpt>
      <trkpt lat="48.07566" lon="6.85803">
        <ele>735</ele>
        <time>2020-10-28T12:37:06.595Z</time>
      </trkpt>
      <trkpt lat="48.07566" lon="6.85802">
        <ele>736</ele>
        <time>2020-10-28T12:37:07.596Z</time>
      </trkpt>
      <trkpt lat="48.07567" lon="6.85801">
        <ele>736</ele>
        <time>2020-10-28T12:37:08.596Z</time>
      </trkpt>
      <trkpt lat="48.07567" lon="6.858">
        <ele>737</ele>
        <time>2020-10-28T12:37:09.595Z</time>
      </trkpt>
      <trkpt lat="48.07567" lon="6.85799">
        <ele>737</ele>
        <time>2020-10-28T12:37:10.596Z</time>
      </trkpt>
      <trkpt lat="48.07567" lon="6.85798">
        <ele>737</ele>
        <time>2020-10-28T12:37:11.596Z</time>
      </trkpt>
      <trkpt lat="48.07567" lon="6.85797">
        <ele>737</ele>
        <time>2020-10-28T12:37:12.596Z</time>
      </trkpt>
      <trkpt lat="48.07568" lon="6.85795">
        <ele>738</ele>
        <time>2020-10-28T12:37:13.596Z</time>
      </trkpt>
      <trkpt lat="48.07568" lon="6.85793">
        <ele>738</ele>
        <time>2020-10-28T12:37:14.596Z</time>
      </trkpt>
      <trkpt lat="48.07568" lon="6.85792">
        <ele>738</ele>
        <time>2020-10-28T12:37:15.596Z</time>
      </trkpt>
      <trkpt lat="48.07568" lon="6.85791">
        <ele>738</ele>
        <time>2020-10-28T12:37:16.596Z</time>
      </trkpt>
      <trkpt lat="48.07569" lon="6.8579">
        <ele>738</ele>
        <time>2020-10-28T12:37:17.596Z</time>
      </trkpt>
      <trkpt lat="48.07569" lon="6.85789">
        <ele>738</ele>
        <time>2020-10-28T12:37:18.596Z</time>
      </trkpt>
      <trkpt lat="48.0757" lon="6.85788">
        <ele>738</ele>
        <time>2020-10-28T12:37:19.595Z</time>
      </trkpt>
      <trkpt lat="48.0757" lon="6.85787">
        <ele>738</ele>
        <time>2020-10-28T12:37:20.595Z</time>
      </trkpt>
      <trkpt lat="48.07571" lon="6.85786">
        <ele>738</ele>
        <time>2020-10-28T12:37:21.595Z</time>
      </trkpt>
      <trkpt lat="48.07571" lon="6.85785">
        <ele>738</ele>
        <time>2020-10-28T12:37:22.595Z</time>
      </trkpt>
      <trkpt lat="48.07572" lon="6.85784">
        <ele>738</ele>
        <time>2020-10-28T12:37:23.596Z</time>
      </trkpt>
      <trkpt lat="48.07572" lon="6.85783">
        <ele>738</ele>
        <time>2020-10-28T12:37:24.596Z</time>
      </trkpt>
      <trkpt lat="48.07573" lon="6.85782">
        <ele>738</ele>
        <time>2020-10-28T12:37:25.596Z</time>
      </trkpt>
      <trkpt lat="48.07573" lon="6.85781">
        <ele>738</ele>
        <time>2020-10-28T12:37:26.596Z</time>
      </trkpt>
      <trkpt lat="48.07573" lon="6.85781">
        <ele>739</ele>
        <time>2020-10-28T12:37:27.596Z</time>
      </trkpt>
      <trkpt lat="48.07574" lon="6.8578">
        <ele>740</ele>
        <time>2020-10-28T12:37:28.595Z</time>
      </trkpt>
      <trkpt lat="48.07575" lon="6.8578">
        <ele>741</ele>
        <time>2020-10-28T12:37:29.595Z</time>
      </trkpt>
      <trkpt lat="48.07576" lon="6.85779">
        <ele>741</ele>
        <time>2020-10-28T12:37:30.596Z</time>
      </trkpt>
      <trkpt lat="48.07576" lon="6.85778">
        <ele>742</ele>
        <time>2020-10-28T12:37:31.596Z</time>
      </trkpt>
      <trkpt lat="48.07577" lon="6.85778">
        <ele>743</ele>
        <time>2020-10-28T12:37:32.596Z</time>
      </trkpt>
      <trkpt lat="48.07577" lon="6.85777">
        <ele>744</ele>
        <time>2020-10-28T12:37:33.596Z</time>
      </trkpt>
      <trkpt lat="48.07578" lon="6.85776">
        <ele>745</ele>
        <time>2020-10-28T12:37:34.596Z</time>
      </trkpt>
      <trkpt lat="48.07578" lon="6.85775">
        <ele>746</ele>
        <time>2020-10-28T12:37:35.595Z</time>
      </trkpt>
      <trkpt lat="48.07578" lon="6.85774">
        <ele>746</ele>
        <time>2020-10-28T12:37:36.596Z</time>
      </trkpt>
      <trkpt lat="48.07579" lon="6.85774">
        <ele>747</ele>
        <time>2020-10-28T12:37:37.596Z</time>
      </trkpt>
      <trkpt lat="48.0758" lon="6.85773">
        <ele>747</ele>
        <time>2020-10-28T12:37:38.595Z</time>
      </trkpt>
      <trkpt lat="48.0758" lon="6.85772">
        <ele>748</ele>
        <time>2020-10-28T12:37:39.596Z</time>
      </trkpt>
      <trkpt lat="48.07581" lon="6.85772">
        <ele>748</ele>
        <time>2020-10-28T12:37:40.596Z</time>
      </trkpt>
      <trkpt lat="48.07582" lon="6.85771">
        <ele>748</ele>
        <time>2020-10-28T12:37:41.596Z</time>
      </trkpt>
      <trkpt lat="48.07582" lon="6.8577">
        <ele>748</ele>
        <time>2020-10-28T12:37:42.596Z</time>
      </trkpt>
      <trkpt lat="48.07583" lon="6.85769">
        <ele>748</ele>
        <time>2020-10-28T12:37:43.596Z</time>
      </trkpt>
      <trkpt lat="48.07583" lon="6.85769">
        <ele>748</ele>
        <time>2020-10-28T12:37:44.596Z</time>
      </trkpt>
      <trkpt lat="48.07584" lon="6.85769">
        <ele>748</ele>
        <time>2020-10-28T12:37:45.596Z</time>
      </trkpt>
      <trkpt lat="48.07584" lon="6.85768">
        <ele>748</ele>
        <time>2020-10-28T12:37:46.596Z</time>
      </trkpt>
      <trkpt lat="48.07585" lon="6.85767">
        <ele>748</ele>
        <time>2020-10-28T12:37:47.596Z</time>
      </trkpt>
      <trkpt lat="48.07585" lon="6.85767">
        <ele>749</ele>
        <time>2020-10-28T12:37:48.596Z</time>
      </trkpt>
      <trkpt lat="48.07586" lon="6.85766">
        <ele>749</ele>
        <time>2020-10-28T12:37:49.595Z</time>
      </trkpt>
      <trkpt lat="48.07586" lon="6.85766">
        <ele>748</ele>
        <time>2020-10-28T12:37:50.596Z</time>
      </trkpt>
      <trkpt lat="48.07587" lon="6.85765">
        <ele>748</ele>
        <time>2020-10-28T12:37:51.596Z</time>
      </trkpt>
      <trkpt lat="48.07588" lon="6.85764">
        <ele>747</ele>
        <time>2020-10-28T12:37:52.596Z</time>
      </trkpt>
      <trkpt lat="48.07588" lon="6.85763">
        <ele>747</ele>
        <time>2020-10-28T12:37:53.595Z</time>
      </trkpt>
      <trkpt lat="48.07589" lon="6.85763">
        <ele>747</ele>
        <time>2020-10-28T12:37:54.595Z</time>
      </trkpt>
      <trkpt lat="48.07589" lon="6.85762">
        <ele>747</ele>
        <time>2020-10-28T12:37:55.595Z</time>
      </trkpt>
      <trkpt lat="48.0759" lon="6.85761">
        <ele>747</ele>
        <time>2020-10-28T12:37:56.595Z</time>
      </trkpt>
      <trkpt lat="48.07591" lon="6.8576">
        <ele>747</ele>
        <time>2020-10-28T12:37:57.596Z</time>
      </trkpt>
      <trkpt lat="48.07592" lon="6.8576">
        <ele>746</ele>
        <time>2020-10-28T12:37:58.596Z</time>
      </trkpt>
      <trkpt lat="48.07593" lon="6.8576">
        <ele>746</ele>
        <time>2020-10-28T12:37:59.596Z</time>
      </trkpt>
      <trkpt lat="48.07594" lon="6.85759">
        <ele>745</ele>
        <time>2020-10-28T12:38:00.596Z</time>
      </trkpt>
      <trkpt lat="48.07594" lon="6.85759">
        <ele>745</ele>
        <time>2020-10-28T12:38:01.596Z</time>
      </trkpt>
      <trkpt lat="48.07595" lon="6.85759">
        <ele>745</ele>
        <time>2020-10-28T12:38:02.596Z</time>
      </trkpt>
      <trkpt lat="48.07595" lon="6.85758">
        <ele>745</ele>
        <time>2020-10-28T12:38:03.596Z</time>
      </trkpt>
      <trkpt lat="48.07595" lon="6.85757">
        <ele>746</ele>
        <time>2020-10-28T12:38:04.596Z</time>
      </trkpt>
      <trkpt lat="48.07595" lon="6.85757">
        <ele>747</ele>
        <time>2020-10-28T12:38:05.596Z</time>
      </trkpt>
      <trkpt lat="48.07595" lon="6.85755">
        <ele>747</ele>
        <time>2020-10-28T12:38:06.596Z</time>
      </trkpt>
      <trkpt lat="48.07595" lon="6.85754">
        <ele>748</ele>
        <time>2020-10-28T12:38:07.596Z</time>
      </trkpt>
      <trkpt lat="48.07594" lon="6.85752">
        <ele>749</ele>
        <time>2020-10-28T12:38:08.595Z</time>
      </trkpt>
      <trkpt lat="48.07594" lon="6.85751">
        <ele>749</ele>
        <time>2020-10-28T12:38:09.596Z</time>
      </trkpt>
      <trkpt lat="48.07593" lon="6.8575">
        <ele>750</ele>
        <time>2020-10-28T12:38:10.596Z</time>
      </trkpt>
      <trkpt lat="48.07593" lon="6.85749">
        <ele>750</ele>
        <time>2020-10-28T12:38:11.595Z</time>
      </trkpt>
      <trkpt lat="48.07592" lon="6.85747">
        <ele>750</ele>
        <time>2020-10-28T12:38:12.596Z</time>
      </trkpt>
      <trkpt lat="48.07592" lon="6.85746">
        <ele>751</ele>
        <time>2020-10-28T12:38:13.595Z</time>
      </trkpt>
      <trkpt lat="48.07591" lon="6.85745">
        <ele>752</ele>
        <time>2020-10-28T12:38:14.595Z</time>
      </trkpt>
      <trkpt lat="48.0759" lon="6.85743">
        <ele>752</ele>
        <time>2020-10-28T12:38:15.596Z</time>
      </trkpt>
      <trkpt lat="48.07589" lon="6.85741">
        <ele>753</ele>
        <time>2020-10-28T12:38:16.596Z</time>
      </trkpt>
      <trkpt lat="48.07589" lon="6.8574">
        <ele>754</ele>
        <time>2020-10-28T12:38:17.596Z</time>
      </trkpt>
      <trkpt lat="48.07588" lon="6.85739">
        <ele>755</ele>
        <time>2020-10-28T12:38:18.596Z</time>
      </trkpt>
      <trkpt lat="48.07587" lon="6.85738">
        <ele>755</ele>
        <time>2020-10-28T12:38:19.596Z</time>
      </trkpt>
      <trkpt lat="48.07586" lon="6.85737">
        <ele>756</ele>
        <time>2020-10-28T12:38:20.596Z</time>
      </trkpt>
      <trkpt lat="48.07586" lon="6.85735">
        <ele>756</ele>
        <time>2020-10-28T12:38:21.595Z</time>
      </trkpt>
      <trkpt lat="48.07585" lon="6.85734">
        <ele>757</ele>
        <time>2020-10-28T12:38:22.596Z</time>
      </trkpt>
      <trkpt lat="48.07584" lon="6.85732">
        <ele>757</ele>
        <time>2020-10-28T12:38:23.595Z</time>
      </trkpt>
      <trkpt lat="48.07583" lon="6.8573">
        <ele>757</ele>
        <time>2020-10-28T12:38:24.596Z</time>
      </trkpt>
      <trkpt lat="48.07583" lon="6.85729">
        <ele>757</ele>
        <time>2020-10-28T12:38:25.595Z</time>
      </trkpt>
      <trkpt lat="48.07582" lon="6.85727">
        <ele>758</ele>
        <time>2020-10-28T12:38:26.596Z</time>
      </trkpt>
      <trkpt lat="48.07581" lon="6.85726">
        <ele>758</ele>
        <time>2020-10-28T12:38:27.596Z</time>
      </trkpt>
      <trkpt lat="48.0758" lon="6.85724">
        <ele>758</ele>
        <time>2020-10-28T12:38:28.595Z</time>
      </trkpt>
      <trkpt lat="48.07579" lon="6.85722">
        <ele>759</ele>
        <time>2020-10-28T12:38:29.596Z</time>
      </trkpt>
      <trkpt lat="48.07578" lon="6.85721">
        <ele>759</ele>
        <time>2020-10-28T12:38:30.596Z</time>
      </trkpt>
      <trkpt lat="48.07577" lon="6.85719">
        <ele>760</ele>
        <time>2020-10-28T12:38:31.596Z</time>
      </trkpt>
      <trkpt lat="48.07577" lon="6.85718">
        <ele>760</ele>
        <time>2020-10-28T12:38:32.595Z</time>
      </trkpt>
      <trkpt lat="48.07576" lon="6.85716">
        <ele>760</ele>
        <time>2020-10-28T12:38:33.595Z</time>
      </trkpt>
      <trkpt lat="48.07576" lon="6.85715">
        <ele>761</ele>
        <time>2020-10-28T12:38:34.596Z</time>
      </trkpt>
      <trkpt lat="48.07575" lon="6.85714">
        <ele>761</ele>
        <time>2020-10-28T12:38:35.596Z</time>
      </trkpt>
      <trkpt lat="48.07574" lon="6.85712">
        <ele>761</ele>
        <time>2020-10-28T12:38:36.596Z</time>
      </trkpt>
      <trkpt lat="48.07574" lon="6.85711">
        <ele>761</ele>
        <time>2020-10-28T12:38:37.596Z</time>
      </trkpt>
      <trkpt lat="48.07573" lon="6.8571">
        <ele>761</ele>
        <time>2020-10-28T12:38:38.596Z</time>
      </trkpt>
      <trkpt lat="48.07572" lon="6.85708">
        <ele>761</ele>
        <time>2020-10-28T12:38:39.595Z</time>
      </trkpt>
      <trkpt lat="48.07571" lon="6.85707">
        <ele>762</ele>
        <time>2020-10-28T12:38:40.596Z</time>
      </trkpt>
      <trkpt lat="48.07571" lon="6.85705">
        <ele>762</ele>
        <time>2020-10-28T12:38:41.596Z</time>
      </trkpt>
      <trkpt lat="48.0757" lon="6.85703">
        <ele>762</ele>
        <time>2020-10-28T12:38:42.595Z</time>
      </trkpt>
      <trkpt lat="48.07569" lon="6.85701">
        <ele>763</ele>
        <time>2020-10-28T12:38:43.596Z</time>
      </trkpt>
      <trkpt lat="48.07568" lon="6.857">
        <ele>762</ele>
        <time>2020-10-28T12:38:44.595Z</time>
      </trkpt>
      <trkpt lat="48.07568" lon="6.85698">
        <ele>762</ele>
        <time>2020-10-28T12:38:45.596Z</time>
      </trkpt>
      <trkpt lat="48.07567" lon="6.85697">
        <ele>761</ele>
        <time>2020-10-28T12:38:46.596Z</time>
      </trkpt>
      <trkpt lat="48.07566" lon="6.85696">
        <ele>760</ele>
        <time>2020-10-28T12:38:47.596Z</time>
      </trkpt>
      <trkpt lat="48.07566" lon="6.85694">
        <ele>760</ele>
        <time>2020-10-28T12:38:48.596Z</time>
      </trkpt>
      <trkpt lat="48.07565" lon="6.85692">
        <ele>760</ele>
        <time>2020-10-28T12:38:49.596Z</time>
      </trkpt>
      <trkpt lat="48.07564" lon="6.8569">
        <ele>760</ele>
        <time>2020-10-28T12:38:50.596Z</time>
      </trkpt>
      <trkpt lat="48.07564" lon="6.85689">
        <ele>760</ele>
        <time>2020-10-28T12:38:51.595Z</time>
      </trkpt>
      <trkpt lat="48.07563" lon="6.85688">
        <ele>760</ele>
        <time>2020-10-28T12:38:52.596Z</time>
      </trkpt>
      <trkpt lat="48.07562" lon="6.85686">
        <ele>760</ele>
        <time>2020-10-28T12:38:53.595Z</time>
      </trkpt>
      <trkpt lat="48.07562" lon="6.85684">
        <ele>760</ele>
        <time>2020-10-28T12:38:54.596Z</time>
      </trkpt>
      <trkpt lat="48.07561" lon="6.85683">
        <ele>761</ele>
        <time>2020-10-28T12:38:55.595Z</time>
      </trkpt>
      <trkpt lat="48.0756" lon="6.85681">
        <ele>762</ele>
        <time>2020-10-28T12:38:56.595Z</time>
      </trkpt>
      <trkpt lat="48.0756" lon="6.8568">
        <ele>763</ele>
        <time>2020-10-28T12:38:57.595Z</time>
      </trkpt>
      <trkpt lat="48.07559" lon="6.85678">
        <ele>764</ele>
        <time>2020-10-28T12:38:58.596Z</time>
      </trkpt>
      <trkpt lat="48.07558" lon="6.85677">
        <ele>765</ele>
        <time>2020-10-28T12:38:59.596Z</time>
      </trkpt>
      <trkpt lat="48.07557" lon="6.85676">
        <ele>765</ele>
        <time>2020-10-28T12:39:00.596Z</time>
      </trkpt>
      <trkpt lat="48.07557" lon="6.85675">
        <ele>765</ele>
        <time>2020-10-28T12:39:01.596Z</time>
      </trkpt>
      <trkpt lat="48.07556" lon="6.85673">
        <ele>765</ele>
        <time>2020-10-28T12:39:02.595Z</time>
      </trkpt>
      <trkpt lat="48.07556" lon="6.85671">
        <ele>765</ele>
        <time>2020-10-28T12:39:03.596Z</time>
      </trkpt>
      <trkpt lat="48.07555" lon="6.85669">
        <ele>766</ele>
        <time>2020-10-28T12:39:04.596Z</time>
      </trkpt>
      <trkpt lat="48.07554" lon="6.85667">
        <ele>766</ele>
        <time>2020-10-28T12:39:05.595Z</time>
      </trkpt>
      <trkpt lat="48.07554" lon="6.85666">
        <ele>766</ele>
        <time>2020-10-28T12:39:06.596Z</time>
      </trkpt>
      <trkpt lat="48.07553" lon="6.85665">
        <ele>767</ele>
        <time>2020-10-28T12:39:07.596Z</time>
      </trkpt>
      <trkpt lat="48.07553" lon="6.85663">
        <ele>767</ele>
        <time>2020-10-28T12:39:08.596Z</time>
      </trkpt>
      <trkpt lat="48.07552" lon="6.85661">
        <ele>767</ele>
        <time>2020-10-28T12:39:09.596Z</time>
      </trkpt>
      <trkpt lat="48.07551" lon="6.8566">
        <ele>767</ele>
        <time>2020-10-28T12:39:10.596Z</time>
      </trkpt>
      <trkpt lat="48.07551" lon="6.85658">
        <ele>768</ele>
        <time>2020-10-28T12:39:11.595Z</time>
      </trkpt>
      <trkpt lat="48.0755" lon="6.85657">
        <ele>768</ele>
        <time>2020-10-28T12:39:12.595Z</time>
      </trkpt>
      <trkpt lat="48.0755" lon="6.85655">
        <ele>768</ele>
        <time>2020-10-28T12:39:13.596Z</time>
      </trkpt>
      <trkpt lat="48.07549" lon="6.85654">
        <ele>768</ele>
        <time>2020-10-28T12:39:14.596Z</time>
      </trkpt>
      <trkpt lat="48.07549" lon="6.85652">
        <ele>768</ele>
        <time>2020-10-28T12:39:15.595Z</time>
      </trkpt>
      <trkpt lat="48.07548" lon="6.8565">
        <ele>769</ele>
        <time>2020-10-28T12:39:16.595Z</time>
      </trkpt>
      <trkpt lat="48.07547" lon="6.85648">
        <ele>769</ele>
        <time>2020-10-28T12:39:17.596Z</time>
      </trkpt>
      <trkpt lat="48.07547" lon="6.85646">
        <ele>769</ele>
        <time>2020-10-28T12:39:18.595Z</time>
      </trkpt>
      <trkpt lat="48.07546" lon="6.85645">
        <ele>769</ele>
        <time>2020-10-28T12:39:19.596Z</time>
      </trkpt>
      <trkpt lat="48.07546" lon="6.85643">
        <ele>769</ele>
        <time>2020-10-28T12:39:20.596Z</time>
      </trkpt>
      <trkpt lat="48.07545" lon="6.85641">
        <ele>770</ele>
        <time>2020-10-28T12:39:21.596Z</time>
      </trkpt>
      <trkpt lat="48.07544" lon="6.85639">
        <ele>770</ele>
        <time>2020-10-28T12:39:22.595Z</time>
      </trkpt>
      <trkpt lat="48.07544" lon="6.85637">
        <ele>770</ele>
        <time>2020-10-28T12:39:23.596Z</time>
      </trkpt>
      <trkpt lat="48.07543" lon="6.85635">
        <ele>770</ele>
        <time>2020-10-28T12:39:24.596Z</time>
      </trkpt>
      <trkpt lat="48.07543" lon="6.85633">
        <ele>770</ele>
        <time>2020-10-28T12:39:25.596Z</time>
      </trkpt>
      <trkpt lat="48.07542" lon="6.85631">
        <ele>770</ele>
        <time>2020-10-28T12:39:26.595Z</time>
      </trkpt>
      <trkpt lat="48.07542" lon="6.8563">
        <ele>770</ele>
        <time>2020-10-28T12:39:27.596Z</time>
      </trkpt>
      <trkpt lat="48.07542" lon="6.85628">
        <ele>770</ele>
        <time>2020-10-28T12:39:28.596Z</time>
      </trkpt>
      <trkpt lat="48.07541" lon="6.85625">
        <ele>770</ele>
        <time>2020-10-28T12:39:29.596Z</time>
      </trkpt>
      <trkpt lat="48.0754" lon="6.85623">
        <ele>769</ele>
        <time>2020-10-28T12:39:30.595Z</time>
      </trkpt>
      <trkpt lat="48.0754" lon="6.85621">
        <ele>769</ele>
        <time>2020-10-28T12:39:31.595Z</time>
      </trkpt>
      <trkpt lat="48.0754" lon="6.8562">
        <ele>768</ele>
        <time>2020-10-28T12:39:32.595Z</time>
      </trkpt>
      <trkpt lat="48.07539" lon="6.85618">
        <ele>768</ele>
        <time>2020-10-28T12:39:33.596Z</time>
      </trkpt>
      <trkpt lat="48.07539" lon="6.85616">
        <ele>768</ele>
        <time>2020-10-28T12:39:34.596Z</time>
      </trkpt>
      <trkpt lat="48.07539" lon="6.85615">
        <ele>768</ele>
        <time>2020-10-28T12:39:35.596Z</time>
      </trkpt>
      <trkpt lat="48.07538" lon="6.85613">
        <ele>768</ele>
        <time>2020-10-28T12:39:36.596Z</time>
      </trkpt>
      <trkpt lat="48.07537" lon="6.85612">
        <ele>768</ele>
        <time>2020-10-28T12:39:37.595Z</time>
      </trkpt>
      <trkpt lat="48.07537" lon="6.8561">
        <ele>768</ele>
        <time>2020-10-28T12:39:38.596Z</time>
      </trkpt>
      <trkpt lat="48.07536" lon="6.85608">
        <ele>768</ele>
        <time>2020-10-28T12:39:39.595Z</time>
      </trkpt>
      <trkpt lat="48.07535" lon="6.85606">
        <ele>769</ele>
        <time>2020-10-28T12:39:40.596Z</time>
      </trkpt>
      <trkpt lat="48.07535" lon="6.85604">
        <ele>769</ele>
        <time>2020-10-28T12:39:41.595Z</time>
      </trkpt>
      <trkpt lat="48.07534" lon="6.85602">
        <ele>769</ele>
        <time>2020-10-28T12:39:42.596Z</time>
      </trkpt>
      <trkpt lat="48.07534" lon="6.856">
        <ele>770</ele>
        <time>2020-10-28T12:39:43.596Z</time>
      </trkpt>
      <trkpt lat="48.07533" lon="6.85598">
        <ele>770</ele>
        <time>2020-10-28T12:39:44.596Z</time>
      </trkpt>
      <trkpt lat="48.07533" lon="6.85596">
        <ele>770</ele>
        <time>2020-10-28T12:39:45.596Z</time>
      </trkpt>
      <trkpt lat="48.07532" lon="6.85594">
        <ele>770</ele>
        <time>2020-10-28T12:39:46.595Z</time>
      </trkpt>
      <trkpt lat="48.07531" lon="6.85592">
        <ele>771</ele>
        <time>2020-10-28T12:39:47.596Z</time>
      </trkpt>
      <trkpt lat="48.07531" lon="6.8559">
        <ele>771</ele>
        <time>2020-10-28T12:39:48.596Z</time>
      </trkpt>
      <trkpt lat="48.07531" lon="6.85588">
        <ele>772</ele>
        <time>2020-10-28T12:39:49.596Z</time>
      </trkpt>
      <trkpt lat="48.0753" lon="6.85585">
        <ele>772</ele>
        <time>2020-10-28T12:39:50.596Z</time>
      </trkpt>
      <trkpt lat="48.07529" lon="6.85583">
        <ele>773</ele>
        <time>2020-10-28T12:39:51.596Z</time>
      </trkpt>
      <trkpt lat="48.07529" lon="6.85581">
        <ele>773</ele>
        <time>2020-10-28T12:39:52.595Z</time>
      </trkpt>
      <trkpt lat="48.07529" lon="6.85579">
        <ele>774</ele>
        <time>2020-10-28T12:39:53.595Z</time>
      </trkpt>
      <trkpt lat="48.07528" lon="6.85577">
        <ele>775</ele>
        <time>2020-10-28T12:39:54.596Z</time>
      </trkpt>
      <trkpt lat="48.07528" lon="6.85575">
        <ele>775</ele>
        <time>2020-10-28T12:39:55.596Z</time>
      </trkpt>
      <trkpt lat="48.07528" lon="6.85573">
        <ele>776</ele>
        <time>2020-10-28T12:39:56.595Z</time>
      </trkpt>
      <trkpt lat="48.07528" lon="6.85572">
        <ele>776</ele>
        <time>2020-10-28T12:39:57.596Z</time>
      </trkpt>
      <trkpt lat="48.07527" lon="6.8557">
        <ele>777</ele>
        <time>2020-10-28T12:39:58.596Z</time>
      </trkpt>
      <trkpt lat="48.07527" lon="6.85568">
        <ele>777</ele>
        <time>2020-10-28T12:39:59.596Z</time>
      </trkpt>
      <trkpt lat="48.07527" lon="6.85567">
        <ele>778</ele>
        <time>2020-10-28T12:40:00.596Z</time>
      </trkpt>
      <trkpt lat="48.07526" lon="6.85565">
        <ele>778</ele>
        <time>2020-10-28T12:40:01.595Z</time>
      </trkpt>
      <trkpt lat="48.07526" lon="6.85564">
        <ele>779</ele>
        <time>2020-10-28T12:40:02.596Z</time>
      </trkpt>
      <trkpt lat="48.07526" lon="6.85562">
        <ele>779</ele>
        <time>2020-10-28T12:40:03.595Z</time>
      </trkpt>
      <trkpt lat="48.07525" lon="6.85561">
        <ele>779</ele>
        <time>2020-10-28T12:40:04.596Z</time>
      </trkpt>
      <trkpt lat="48.07526" lon="6.85557">
        <ele>780</ele>
        <time>2020-10-28T12:40:05.595Z</time>
      </trkpt>
      <trkpt lat="48.07525" lon="6.85555">
        <ele>780</ele>
        <time>2020-10-28T12:40:06.596Z</time>
      </trkpt>
      <trkpt lat="48.07525" lon="6.85553">
        <ele>780</ele>
        <time>2020-10-28T12:40:07.595Z</time>
      </trkpt>
      <trkpt lat="48.07524" lon="6.85551">
        <ele>781</ele>
        <time>2020-10-28T12:40:08.595Z</time>
      </trkpt>
      <trkpt lat="48.07524" lon="6.85549">
        <ele>781</ele>
        <time>2020-10-28T12:40:09.596Z</time>
      </trkpt>
      <trkpt lat="48.07524" lon="6.85546">
        <ele>781</ele>
        <time>2020-10-28T12:40:10.596Z</time>
      </trkpt>
      <trkpt lat="48.07524" lon="6.85545">
        <ele>781</ele>
        <time>2020-10-28T12:40:11.595Z</time>
      </trkpt>
      <trkpt lat="48.07524" lon="6.85543">
        <ele>782</ele>
        <time>2020-10-28T12:40:12.596Z</time>
      </trkpt>
      <trkpt lat="48.07524" lon="6.8554">
        <ele>783</ele>
        <time>2020-10-28T12:40:13.596Z</time>
      </trkpt>
      <trkpt lat="48.07524" lon="6.85538">
        <ele>783</ele>
        <time>2020-10-28T12:40:14.596Z</time>
      </trkpt>
      <trkpt lat="48.07523" lon="6.85536">
        <ele>784</ele>
        <time>2020-10-28T12:40:15.596Z</time>
      </trkpt>
      <trkpt lat="48.07523" lon="6.85534">
        <ele>785</ele>
        <time>2020-10-28T12:40:16.596Z</time>
      </trkpt>
      <trkpt lat="48.07523" lon="6.85533">
        <ele>785</ele>
        <time>2020-10-28T12:40:17.595Z</time>
      </trkpt>
      <trkpt lat="48.07524" lon="6.85531">
        <ele>786</ele>
        <time>2020-10-28T12:40:18.596Z</time>
      </trkpt>
      <trkpt lat="48.07524" lon="6.8553">
        <ele>786</ele>
        <time>2020-10-28T12:40:19.596Z</time>
      </trkpt>
      <trkpt lat="48.07524" lon="6.85529">
        <ele>786</ele>
        <time>2020-10-28T12:40:20.595Z</time>
      </trkpt>
      <trkpt lat="48.07524" lon="6.85528">
        <ele>787</ele>
        <time>2020-10-28T12:40:21.595Z</time>
      </trkpt>
      <trkpt lat="48.07524" lon="6.85526">
        <ele>787</ele>
        <time>2020-10-28T12:40:22.596Z</time>
      </trkpt>
      <trkpt lat="48.07524" lon="6.85525">
        <ele>787</ele>
        <time>2020-10-28T12:40:23.595Z</time>
      </trkpt>
      <trkpt lat="48.07524" lon="6.85523">
        <ele>787</ele>
        <time>2020-10-28T12:40:24.596Z</time>
      </trkpt>
      <trkpt lat="48.07524" lon="6.85522">
        <ele>788</ele>
        <time>2020-10-28T12:40:25.596Z</time>
      </trkpt>
      <trkpt lat="48.07524" lon="6.8552">
        <ele>788</ele>
        <time>2020-10-28T12:40:26.595Z</time>
      </trkpt>
      <trkpt lat="48.07523" lon="6.85519">
        <ele>788</ele>
        <time>2020-10-28T12:40:27.596Z</time>
      </trkpt>
      <trkpt lat="48.07523" lon="6.85518">
        <ele>788</ele>
        <time>2020-10-28T12:40:28.596Z</time>
      </trkpt>
      <trkpt lat="48.07523" lon="6.85517">
        <ele>788</ele>
        <time>2020-10-28T12:40:29.596Z</time>
      </trkpt>
      <trkpt lat="48.07523" lon="6.85515">
        <ele>787</ele>
        <time>2020-10-28T12:40:30.596Z</time>
      </trkpt>
      <trkpt lat="48.07523" lon="6.85513">
        <ele>787</ele>
        <time>2020-10-28T12:40:31.596Z</time>
      </trkpt>
      <trkpt lat="48.07523" lon="6.85512">
        <ele>786</ele>
        <time>2020-10-28T12:40:32.596Z</time>
      </trkpt>
      <trkpt lat="48.07523" lon="6.8551">
        <ele>786</ele>
        <time>2020-10-28T12:40:33.596Z</time>
      </trkpt>
      <trkpt lat="48.07523" lon="6.85508">
        <ele>786</ele>
        <time>2020-10-28T12:40:34.595Z</time>
      </trkpt>
      <trkpt lat="48.07523" lon="6.85506">
        <ele>786</ele>
        <time>2020-10-28T12:40:35.596Z</time>
      </trkpt>
      <trkpt lat="48.07523" lon="6.85504">
        <ele>785</ele>
        <time>2020-10-28T12:40:36.596Z</time>
      </trkpt>
      <trkpt lat="48.07523" lon="6.85503">
        <ele>785</ele>
        <time>2020-10-28T12:40:37.596Z</time>
      </trkpt>
      <trkpt lat="48.07523" lon="6.855">
        <ele>785</ele>
        <time>2020-10-28T12:40:38.596Z</time>
      </trkpt>
      <trkpt lat="48.07523" lon="6.85498">
        <ele>785</ele>
        <time>2020-10-28T12:40:39.596Z</time>
      </trkpt>
      <trkpt lat="48.07523" lon="6.85496">
        <ele>784</ele>
        <time>2020-10-28T12:40:40.596Z</time>
      </trkpt>
      <trkpt lat="48.07523" lon="6.85494">
        <ele>784</ele>
        <time>2020-10-28T12:40:41.596Z</time>
      </trkpt>
      <trkpt lat="48.07523" lon="6.85492">
        <ele>783</ele>
        <time>2020-10-28T12:40:42.595Z</time>
      </trkpt>
      <trkpt lat="48.07523" lon="6.8549">
        <ele>783</ele>
        <time>2020-10-28T12:40:43.596Z</time>
      </trkpt>
      <trkpt lat="48.07523" lon="6.85488">
        <ele>783</ele>
        <time>2020-10-28T12:40:44.596Z</time>
      </trkpt>
      <trkpt lat="48.07523" lon="6.85486">
        <ele>783</ele>
        <time>2020-10-28T12:40:45.595Z</time>
      </trkpt>
      <trkpt lat="48.07523" lon="6.85484">
        <ele>784</ele>
        <time>2020-10-28T12:40:46.596Z</time>
      </trkpt>
      <trkpt lat="48.07523" lon="6.85482">
        <ele>784</ele>
        <time>2020-10-28T12:40:47.596Z</time>
      </trkpt>
      <trkpt lat="48.07523" lon="6.8548">
        <ele>784</ele>
        <time>2020-10-28T12:40:48.595Z</time>
      </trkpt>
      <trkpt lat="48.07523" lon="6.85478">
        <ele>784</ele>
        <time>2020-10-28T12:40:49.596Z</time>
      </trkpt>
      <trkpt lat="48.07523" lon="6.85477">
        <ele>785</ele>
        <time>2020-10-28T12:40:50.596Z</time>
      </trkpt>
      <trkpt lat="48.07523" lon="6.85475">
        <ele>785</ele>
        <time>2020-10-28T12:40:51.596Z</time>
      </trkpt>
      <trkpt lat="48.07523" lon="6.85473">
        <ele>785</ele>
        <time>2020-10-28T12:40:52.595Z</time>
      </trkpt>
      <trkpt lat="48.07523" lon="6.85471">
        <ele>785</ele>
        <time>2020-10-28T12:40:53.596Z</time>
      </trkpt>
      <trkpt lat="48.07523" lon="6.85469">
        <ele>785</ele>
        <time>2020-10-28T12:40:54.596Z</time>
      </trkpt>
      <trkpt lat="48.07523" lon="6.85467">
        <ele>784</ele>
        <time>2020-10-28T12:40:55.596Z</time>
      </trkpt>
      <trkpt lat="48.07523" lon="6.85465">
        <ele>784</ele>
        <time>2020-10-28T12:40:56.596Z</time>
      </trkpt>
      <trkpt lat="48.07523" lon="6.85463">
        <ele>784</ele>
        <time>2020-10-28T12:40:57.595Z</time>
      </trkpt>
      <trkpt lat="48.07523" lon="6.85462">
        <ele>784</ele>
        <time>2020-10-28T12:40:58.595Z</time>
      </trkpt>
      <trkpt lat="48.07522" lon="6.8546">
        <ele>784</ele>
        <time>2020-10-28T12:40:59.595Z</time>
      </trkpt>
      <trkpt lat="48.07521" lon="6.85459">
        <ele>784</ele>
        <time>2020-10-28T12:41:00.595Z</time>
      </trkpt>
      <trkpt lat="48.0752" lon="6.85457">
        <ele>784</ele>
        <time>2020-10-28T12:41:01.596Z</time>
      </trkpt>
      <trkpt lat="48.0752" lon="6.85455">
        <ele>784</ele>
        <time>2020-10-28T12:41:02.596Z</time>
      </trkpt>
      <trkpt lat="48.0752" lon="6.85454">
        <ele>784</ele>
        <time>2020-10-28T12:41:03.596Z</time>
      </trkpt>
      <trkpt lat="48.07519" lon="6.85452">
        <ele>784</ele>
        <time>2020-10-28T12:41:04.596Z</time>
      </trkpt>
      <trkpt lat="48.07518" lon="6.85451">
        <ele>784</ele>
        <time>2020-10-28T12:41:05.595Z</time>
      </trkpt>
      <trkpt lat="48.07517" lon="6.8545">
        <ele>784</ele>
        <time>2020-10-28T12:41:06.596Z</time>
      </trkpt>
      <trkpt lat="48.07516" lon="6.85449">
        <ele>784</ele>
        <time>2020-10-28T12:41:07.596Z</time>
      </trkpt>
      <trkpt lat="48.07516" lon="6.85447">
        <ele>784</ele>
        <time>2020-10-28T12:41:08.596Z</time>
      </trkpt>
      <trkpt lat="48.07517" lon="6.85446">
        <ele>785</ele>
        <time>2020-10-28T12:41:09.595Z</time>
      </trkpt>
      <trkpt lat="48.07517" lon="6.85444">
        <ele>786</ele>
        <time>2020-10-28T12:41:10.596Z</time>
      </trkpt>
      <trkpt lat="48.07517" lon="6.85443">
        <ele>786</ele>
        <time>2020-10-28T12:41:11.596Z</time>
      </trkpt>
      <trkpt lat="48.07517" lon="6.85441">
        <ele>787</ele>
        <time>2020-10-28T12:41:12.595Z</time>
      </trkpt>
      <trkpt lat="48.07517" lon="6.8544">
        <ele>787</ele>
        <time>2020-10-28T12:41:13.595Z</time>
      </trkpt>
      <trkpt lat="48.07517" lon="6.85438">
        <ele>788</ele>
        <time>2020-10-28T12:41:14.596Z</time>
      </trkpt>
      <trkpt lat="48.07517" lon="6.85436">
        <ele>788</ele>
        <time>2020-10-28T12:41:15.596Z</time>
      </trkpt>
      <trkpt lat="48.07517" lon="6.85435">
        <ele>788</ele>
        <time>2020-10-28T12:41:16.595Z</time>
      </trkpt>
      <trkpt lat="48.07517" lon="6.85432">
        <ele>788</ele>
        <time>2020-10-28T12:41:17.595Z</time>
      </trkpt>
      <trkpt lat="48.07517" lon="6.8543">
        <ele>789</ele>
        <time>2020-10-28T12:41:18.595Z</time>
      </trkpt>
      <trkpt lat="48.07517" lon="6.85427">
        <ele>789</ele>
        <time>2020-10-28T12:41:19.596Z</time>
      </trkpt>
      <trkpt lat="48.07517" lon="6.85425">
        <ele>789</ele>
        <time>2020-10-28T12:41:20.595Z</time>
      </trkpt>
      <trkpt lat="48.07518" lon="6.85423">
        <ele>790</ele>
        <time>2020-10-28T12:41:21.596Z</time>
      </trkpt>
      <trkpt lat="48.07518" lon="6.85421">
        <ele>791</ele>
        <time>2020-10-28T12:41:22.596Z</time>
      </trkpt>
      <trkpt lat="48.07518" lon="6.8542">
        <ele>792</ele>
        <time>2020-10-28T12:41:23.596Z</time>
      </trkpt>
      <trkpt lat="48.07518" lon="6.85418">
        <ele>792</ele>
        <time>2020-10-28T12:41:24.596Z</time>
      </trkpt>
      <trkpt lat="48.07519" lon="6.85417">
        <ele>793</ele>
        <time>2020-10-28T12:41:25.595Z</time>
      </trkpt>
      <trkpt lat="48.07518" lon="6.85414">
        <ele>794</ele>
        <time>2020-10-28T12:41:26.595Z</time>
      </trkpt>
      <trkpt lat="48.07518" lon="6.85412">
        <ele>795</ele>
        <time>2020-10-28T12:41:27.596Z</time>
      </trkpt>
      <trkpt lat="48.07518" lon="6.85409">
        <ele>795</ele>
        <time>2020-10-28T12:41:28.596Z</time>
      </trkpt>
      <trkpt lat="48.07518" lon="6.85406">
        <ele>796</ele>
        <time>2020-10-28T12:41:29.596Z</time>
      </trkpt>
      <trkpt lat="48.07517" lon="6.85404">
        <ele>797</ele>
        <time>2020-10-28T12:41:30.596Z</time>
      </trkpt>
      <trkpt lat="48.07517" lon="6.85402">
        <ele>797</ele>
        <time>2020-10-28T12:41:31.595Z</time>
      </trkpt>
      <trkpt lat="48.07518" lon="6.85401">
        <ele>798</ele>
        <time>2020-10-28T12:41:32.595Z</time>
      </trkpt>
      <trkpt lat="48.07518" lon="6.854">
        <ele>798</ele>
        <time>2020-10-28T12:41:33.596Z</time>
      </trkpt>
      <trkpt lat="48.07519" lon="6.85398">
        <ele>799</ele>
        <time>2020-10-28T12:41:34.596Z</time>
      </trkpt>
      <trkpt lat="48.07519" lon="6.85397">
        <ele>799</ele>
        <time>2020-10-28T12:41:35.596Z</time>
      </trkpt>
      <trkpt lat="48.07518" lon="6.85395">
        <ele>800</ele>
        <time>2020-10-28T12:41:36.596Z</time>
      </trkpt>
      <trkpt lat="48.07518" lon="6.85394">
        <ele>800</ele>
        <time>2020-10-28T12:41:37.596Z</time>
      </trkpt>
      <trkpt lat="48.07519" lon="6.85392">
        <ele>800</ele>
        <time>2020-10-28T12:41:38.596Z</time>
      </trkpt>
      <trkpt lat="48.07519" lon="6.85391">
        <ele>801</ele>
        <time>2020-10-28T12:41:39.596Z</time>
      </trkpt>
      <trkpt lat="48.07519" lon="6.85389">
        <ele>801</ele>
        <time>2020-10-28T12:41:40.596Z</time>
      </trkpt>
      <trkpt lat="48.0752" lon="6.85388">
        <ele>800</ele>
        <time>2020-10-28T12:41:41.596Z</time>
      </trkpt>
      <trkpt lat="48.07519" lon="6.85385">
        <ele>800</ele>
        <time>2020-10-28T12:41:42.596Z</time>
      </trkpt>
      <trkpt lat="48.07519" lon="6.85384">
        <ele>800</ele>
        <time>2020-10-28T12:41:43.595Z</time>
      </trkpt>
      <trkpt lat="48.07519" lon="6.85382">
        <ele>799</ele>
        <time>2020-10-28T12:41:44.596Z</time>
      </trkpt>
      <trkpt lat="48.07519" lon="6.8538">
        <ele>799</ele>
        <time>2020-10-28T12:41:45.596Z</time>
      </trkpt>
      <trkpt lat="48.0752" lon="6.85377">
        <ele>798</ele>
        <time>2020-10-28T12:41:46.595Z</time>
      </trkpt>
      <trkpt lat="48.0752" lon="6.85375">
        <ele>797</ele>
        <time>2020-10-28T12:41:47.596Z</time>
      </trkpt>
      <trkpt lat="48.0752" lon="6.85373">
        <ele>796</ele>
        <time>2020-10-28T12:41:48.596Z</time>
      </trkpt>
      <trkpt lat="48.0752" lon="6.85372">
        <ele>796</ele>
        <time>2020-10-28T12:41:49.596Z</time>
      </trkpt>
      <trkpt lat="48.0752" lon="6.8537">
        <ele>795</ele>
        <time>2020-10-28T12:41:50.596Z</time>
      </trkpt>
      <trkpt lat="48.0752" lon="6.85368">
        <ele>795</ele>
        <time>2020-10-28T12:41:51.596Z</time>
      </trkpt>
      <trkpt lat="48.0752" lon="6.85367">
        <ele>794</ele>
        <time>2020-10-28T12:41:52.596Z</time>
      </trkpt>
      <trkpt lat="48.0752" lon="6.85365">
        <ele>794</ele>
        <time>2020-10-28T12:41:53.595Z</time>
      </trkpt>
      <trkpt lat="48.0752" lon="6.85363">
        <ele>794</ele>
        <time>2020-10-28T12:41:54.596Z</time>
      </trkpt>
      <trkpt lat="48.0752" lon="6.85361">
        <ele>794</ele>
        <time>2020-10-28T12:41:55.595Z</time>
      </trkpt>
      <trkpt lat="48.0752" lon="6.85359">
        <ele>794</ele>
        <time>2020-10-28T12:41:56.596Z</time>
      </trkpt>
      <trkpt lat="48.0752" lon="6.85358">
        <ele>794</ele>
        <time>2020-10-28T12:41:57.596Z</time>
      </trkpt>
      <trkpt lat="48.07521" lon="6.85356">
        <ele>794</ele>
        <time>2020-10-28T12:41:58.596Z</time>
      </trkpt>
      <trkpt lat="48.07521" lon="6.85354">
        <ele>794</ele>
        <time>2020-10-28T12:41:59.595Z</time>
      </trkpt>
      <trkpt lat="48.07521" lon="6.85353">
        <ele>795</ele>
        <time>2020-10-28T12:42:00.596Z</time>
      </trkpt>
      <trkpt lat="48.07522" lon="6.85351">
        <ele>795</ele>
        <time>2020-10-28T12:42:01.595Z</time>
      </trkpt>
      <trkpt lat="48.07522" lon="6.85349">
        <ele>796</ele>
        <time>2020-10-28T12:42:02.596Z</time>
      </trkpt>
      <trkpt lat="48.07522" lon="6.85347">
        <ele>796</ele>
        <time>2020-10-28T12:42:03.595Z</time>
      </trkpt>
      <trkpt lat="48.07522" lon="6.85345">
        <ele>797</ele>
        <time>2020-10-28T12:42:04.595Z</time>
      </trkpt>
      <trkpt lat="48.07522" lon="6.85343">
        <ele>797</ele>
        <time>2020-10-28T12:42:05.596Z</time>
      </trkpt>
      <trkpt lat="48.07522" lon="6.85341">
        <ele>798</ele>
        <time>2020-10-28T12:42:06.596Z</time>
      </trkpt>
      <trkpt lat="48.07522" lon="6.85339">
        <ele>798</ele>
        <time>2020-10-28T12:42:07.595Z</time>
      </trkpt>
      <trkpt lat="48.07523" lon="6.85338">
        <ele>799</ele>
        <time>2020-10-28T12:42:08.596Z</time>
      </trkpt>
      <trkpt lat="48.07523" lon="6.85336">
        <ele>799</ele>
        <time>2020-10-28T12:42:09.595Z</time>
      </trkpt>
      <trkpt lat="48.07523" lon="6.85334">
        <ele>800</ele>
        <time>2020-10-28T12:42:10.596Z</time>
      </trkpt>
      <trkpt lat="48.07524" lon="6.85333">
        <ele>801</ele>
        <time>2020-10-28T12:42:11.596Z</time>
      </trkpt>
      <trkpt lat="48.07523" lon="6.85331">
        <ele>801</ele>
        <time>2020-10-28T12:42:12.596Z</time>
      </trkpt>
      <trkpt lat="48.07524" lon="6.8533">
        <ele>802</ele>
        <time>2020-10-28T12:42:13.596Z</time>
      </trkpt>
      <trkpt lat="48.07524" lon="6.85328">
        <ele>802</ele>
        <time>2020-10-28T12:42:14.596Z</time>
      </trkpt>
      <trkpt lat="48.07524" lon="6.85326">
        <ele>802</ele>
        <time>2020-10-28T12:42:15.595Z</time>
      </trkpt>
      <trkpt lat="48.07524" lon="6.85324">
        <ele>802</ele>
        <time>2020-10-28T12:42:16.596Z</time>
      </trkpt>
      <trkpt lat="48.07524" lon="6.85322">
        <ele>802</ele>
        <time>2020-10-28T12:42:17.595Z</time>
      </trkpt>
      <trkpt lat="48.07524" lon="6.85321">
        <ele>801</ele>
        <time>2020-10-28T12:42:18.595Z</time>
      </trkpt>
      <trkpt lat="48.07525" lon="6.85319">
        <ele>801</ele>
        <time>2020-10-28T12:42:19.596Z</time>
      </trkpt>
      <trkpt lat="48.07526" lon="6.85317">
        <ele>801</ele>
        <time>2020-10-28T12:42:20.595Z</time>
      </trkpt>
      <trkpt lat="48.07526" lon="6.85315">
        <ele>801</ele>
        <time>2020-10-28T12:42:21.595Z</time>
      </trkpt>
      <trkpt lat="48.07527" lon="6.85313">
        <ele>801</ele>
        <time>2020-10-28T12:42:22.595Z</time>
      </trkpt>
      <trkpt lat="48.07527" lon="6.85311">
        <ele>801</ele>
        <time>2020-10-28T12:42:23.596Z</time>
      </trkpt>
      <trkpt lat="48.07528" lon="6.8531">
        <ele>802</ele>
        <time>2020-10-28T12:42:24.596Z</time>
      </trkpt>
      <trkpt lat="48.07528" lon="6.85308">
        <ele>802</ele>
        <time>2020-10-28T12:42:25.596Z</time>
      </trkpt>
      <trkpt lat="48.07528" lon="6.85306">
        <ele>802</ele>
        <time>2020-10-28T12:42:26.595Z</time>
      </trkpt>
      <trkpt lat="48.07528" lon="6.85304">
        <ele>801</ele>
        <time>2020-10-28T12:42:27.596Z</time>
      </trkpt>
      <trkpt lat="48.07528" lon="6.85303">
        <ele>801</ele>
        <time>2020-10-28T12:42:28.595Z</time>
      </trkpt>
      <trkpt lat="48.07527" lon="6.853">
        <ele>801</ele>
        <time>2020-10-28T12:42:29.595Z</time>
      </trkpt>
      <trkpt lat="48.07527" lon="6.85297">
        <ele>801</ele>
        <time>2020-10-28T12:42:30.596Z</time>
      </trkpt>
      <trkpt lat="48.07527" lon="6.85294">
        <ele>800</ele>
        <time>2020-10-28T12:42:31.596Z</time>
      </trkpt>
      <trkpt lat="48.07527" lon="6.85291">
        <ele>800</ele>
        <time>2020-10-28T12:42:32.595Z</time>
      </trkpt>
      <trkpt lat="48.07527" lon="6.85288">
        <ele>800</ele>
        <time>2020-10-28T12:42:33.596Z</time>
      </trkpt>
      <trkpt lat="48.07527" lon="6.85286">
        <ele>800</ele>
        <time>2020-10-28T12:42:34.596Z</time>
      </trkpt>
      <trkpt lat="48.07527" lon="6.85284">
        <ele>800</ele>
        <time>2020-10-28T12:42:35.596Z</time>
      </trkpt>
      <trkpt lat="48.07527" lon="6.85282">
        <ele>801</ele>
        <time>2020-10-28T12:42:36.595Z</time>
      </trkpt>
      <trkpt lat="48.07527" lon="6.8528">
        <ele>801</ele>
        <time>2020-10-28T12:42:37.596Z</time>
      </trkpt>
      <trkpt lat="48.07528" lon="6.85278">
        <ele>801</ele>
        <time>2020-10-28T12:42:38.596Z</time>
      </trkpt>
      <trkpt lat="48.07528" lon="6.85277">
        <ele>801</ele>
        <time>2020-10-28T12:42:39.596Z</time>
      </trkpt>
      <trkpt lat="48.07529" lon="6.85275">
        <ele>802</ele>
        <time>2020-10-28T12:42:40.596Z</time>
      </trkpt>
      <trkpt lat="48.07529" lon="6.85273">
        <ele>802</ele>
        <time>2020-10-28T12:42:41.596Z</time>
      </trkpt>
      <trkpt lat="48.07529" lon="6.85272">
        <ele>802</ele>
        <time>2020-10-28T12:42:42.596Z</time>
      </trkpt>
      <trkpt lat="48.0753" lon="6.8527">
        <ele>803</ele>
        <time>2020-10-28T12:42:43.596Z</time>
      </trkpt>
      <trkpt lat="48.0753" lon="6.85268">
        <ele>804</ele>
        <time>2020-10-28T12:42:44.595Z</time>
      </trkpt>
      <trkpt lat="48.07531" lon="6.85267">
        <ele>804</ele>
        <time>2020-10-28T12:42:45.596Z</time>
      </trkpt>
      <trkpt lat="48.07531" lon="6.85265">
        <ele>805</ele>
        <time>2020-10-28T12:42:46.596Z</time>
      </trkpt>
      <trkpt lat="48.07531" lon="6.85263">
        <ele>806</ele>
        <time>2020-10-28T12:42:47.596Z</time>
      </trkpt>
      <trkpt lat="48.07531" lon="6.85262">
        <ele>807</ele>
        <time>2020-10-28T12:42:48.596Z</time>
      </trkpt>
      <trkpt lat="48.07532" lon="6.8526">
        <ele>807</ele>
        <time>2020-10-28T12:42:49.596Z</time>
      </trkpt>
      <trkpt lat="48.07532" lon="6.85258">
        <ele>807</ele>
        <time>2020-10-28T12:42:50.595Z</time>
      </trkpt>
      <trkpt lat="48.07532" lon="6.85256">
        <ele>807</ele>
        <time>2020-10-28T12:42:51.596Z</time>
      </trkpt>
      <trkpt lat="48.07532" lon="6.85255">
        <ele>807</ele>
        <time>2020-10-28T12:42:52.595Z</time>
      </trkpt>
      <trkpt lat="48.07532" lon="6.85253">
        <ele>807</ele>
        <time>2020-10-28T12:42:53.596Z</time>
      </trkpt>
      <trkpt lat="48.07533" lon="6.85251">
        <ele>807</ele>
        <time>2020-10-28T12:42:54.596Z</time>
      </trkpt>
      <trkpt lat="48.07533" lon="6.85249">
        <ele>808</ele>
        <time>2020-10-28T12:42:55.596Z</time>
      </trkpt>
      <trkpt lat="48.07533" lon="6.85247">
        <ele>808</ele>
        <time>2020-10-28T12:42:56.596Z</time>
      </trkpt>
      <trkpt lat="48.07533" lon="6.85245">
        <ele>809</ele>
        <time>2020-10-28T12:42:57.596Z</time>
      </trkpt>
      <trkpt lat="48.07533" lon="6.85242">
        <ele>809</ele>
        <time>2020-10-28T12:42:58.596Z</time>
      </trkpt>
      <trkpt lat="48.07533" lon="6.8524">
        <ele>810</ele>
        <time>2020-10-28T12:42:59.596Z</time>
      </trkpt>
      <trkpt lat="48.07533" lon="6.85237">
        <ele>810</ele>
        <time>2020-10-28T12:43:00.596Z</time>
      </trkpt>
      <trkpt lat="48.07533" lon="6.85234">
        <ele>810</ele>
        <time>2020-10-28T12:43:01.596Z</time>
      </trkpt>
      <trkpt lat="48.07533" lon="6.85232">
        <ele>811</ele>
        <time>2020-10-28T12:43:02.596Z</time>
      </trkpt>
      <trkpt lat="48.07533" lon="6.85229">
        <ele>811</ele>
        <time>2020-10-28T12:43:03.596Z</time>
      </trkpt>
      <trkpt lat="48.07533" lon="6.85227">
        <ele>811</ele>
        <time>2020-10-28T12:43:04.595Z</time>
      </trkpt>
      <trkpt lat="48.07533" lon="6.85224">
        <ele>812</ele>
        <time>2020-10-28T12:43:05.595Z</time>
      </trkpt>
      <trkpt lat="48.07533" lon="6.85222">
        <ele>812</ele>
        <time>2020-10-28T12:43:06.596Z</time>
      </trkpt>
      <trkpt lat="48.07533" lon="6.8522">
        <ele>813</ele>
        <time>2020-10-28T12:43:07.596Z</time>
      </trkpt>
      <trkpt lat="48.07533" lon="6.85217">
        <ele>813</ele>
        <time>2020-10-28T12:43:08.596Z</time>
      </trkpt>
      <trkpt lat="48.07533" lon="6.85215">
        <ele>814</ele>
        <time>2020-10-28T12:43:09.596Z</time>
      </trkpt>
      <trkpt lat="48.07533" lon="6.85213">
        <ele>815</ele>
        <time>2020-10-28T12:43:10.595Z</time>
      </trkpt>
      <trkpt lat="48.07533" lon="6.85211">
        <ele>815</ele>
        <time>2020-10-28T12:43:11.596Z</time>
      </trkpt>
      <trkpt lat="48.07533" lon="6.85208">
        <ele>816</ele>
        <time>2020-10-28T12:43:12.595Z</time>
      </trkpt>
      <trkpt lat="48.07533" lon="6.85206">
        <ele>816</ele>
        <time>2020-10-28T12:43:13.596Z</time>
      </trkpt>
      <trkpt lat="48.07533" lon="6.85204">
        <ele>816</ele>
        <time>2020-10-28T12:43:14.596Z</time>
      </trkpt>
      <trkpt lat="48.07533" lon="6.85201">
        <ele>817</ele>
        <time>2020-10-28T12:43:15.596Z</time>
      </trkpt>
      <trkpt lat="48.07533" lon="6.85199">
        <ele>817</ele>
        <time>2020-10-28T12:43:16.595Z</time>
      </trkpt>
      <trkpt lat="48.07533" lon="6.85197">
        <ele>817</ele>
        <time>2020-10-28T12:43:17.596Z</time>
      </trkpt>
      <trkpt lat="48.07533" lon="6.85196">
        <ele>817</ele>
        <time>2020-10-28T12:43:18.596Z</time>
      </trkpt>
      <trkpt lat="48.07534" lon="6.85194">
        <ele>816</ele>
        <time>2020-10-28T12:43:19.596Z</time>
      </trkpt>
      <trkpt lat="48.07534" lon="6.85192">
        <ele>816</ele>
        <time>2020-10-28T12:43:20.596Z</time>
      </trkpt>
      <trkpt lat="48.07534" lon="6.8519">
        <ele>816</ele>
        <time>2020-10-28T12:43:21.595Z</time>
      </trkpt>
      <trkpt lat="48.07534" lon="6.85187">
        <ele>816</ele>
        <time>2020-10-28T12:43:22.596Z</time>
      </trkpt>
      <trkpt lat="48.07535" lon="6.85185">
        <ele>815</ele>
        <time>2020-10-28T12:43:23.596Z</time>
      </trkpt>
      <trkpt lat="48.07535" lon="6.85183">
        <ele>815</ele>
        <time>2020-10-28T12:43:24.596Z</time>
      </trkpt>
      <trkpt lat="48.07536" lon="6.85182">
        <ele>814</ele>
        <time>2020-10-28T12:43:25.595Z</time>
      </trkpt>
      <trkpt lat="48.07537" lon="6.8518">
        <ele>813</ele>
        <time>2020-10-28T12:43:26.595Z</time>
      </trkpt>
      <trkpt lat="48.07537" lon="6.85178">
        <ele>812</ele>
        <time>2020-10-28T12:43:27.596Z</time>
      </trkpt>
      <trkpt lat="48.07538" lon="6.85177">
        <ele>811</ele>
        <time>2020-10-28T12:43:28.596Z</time>
      </trkpt>
      <trkpt lat="48.07539" lon="6.85176">
        <ele>810</ele>
        <time>2020-10-28T12:43:29.596Z</time>
      </trkpt>
      <trkpt lat="48.0754" lon="6.85174">
        <ele>809</ele>
        <time>2020-10-28T12:43:30.596Z</time>
      </trkpt>
      <trkpt lat="48.0754" lon="6.85172">
        <ele>807</ele>
        <time>2020-10-28T12:43:31.596Z</time>
      </trkpt>
      <trkpt lat="48.07541" lon="6.85171">
        <ele>806</ele>
        <time>2020-10-28T12:43:32.596Z</time>
      </trkpt>
      <trkpt lat="48.07541" lon="6.85169">
        <ele>806</ele>
        <time>2020-10-28T12:43:33.596Z</time>
      </trkpt>
      <trkpt lat="48.07542" lon="6.85167">
        <ele>806</ele>
        <time>2020-10-28T12:43:34.595Z</time>
      </trkpt>
      <trkpt lat="48.07543" lon="6.85165">
        <ele>805</ele>
        <time>2020-10-28T12:43:35.596Z</time>
      </trkpt>
      <trkpt lat="48.07543" lon="6.85163">
        <ele>804</ele>
        <time>2020-10-28T12:43:36.595Z</time>
      </trkpt>
      <trkpt lat="48.07544" lon="6.85162">
        <ele>803</ele>
        <time>2020-10-28T12:43:37.596Z</time>
      </trkpt>
      <trkpt lat="48.07545" lon="6.85161">
        <ele>803</ele>
        <time>2020-10-28T12:43:38.596Z</time>
      </trkpt>
      <trkpt lat="48.07545" lon="6.85159">
        <ele>803</ele>
        <time>2020-10-28T12:43:39.595Z</time>
      </trkpt>
      <trkpt lat="48.07545" lon="6.85157">
        <ele>803</ele>
        <time>2020-10-28T12:43:40.596Z</time>
      </trkpt>
      <trkpt lat="48.07546" lon="6.85156">
        <ele>803</ele>
        <time>2020-10-28T12:43:41.595Z</time>
      </trkpt>
      <trkpt lat="48.07547" lon="6.85155">
        <ele>803</ele>
        <time>2020-10-28T12:43:42.596Z</time>
      </trkpt>
      <trkpt lat="48.07547" lon="6.85153">
        <ele>802</ele>
        <time>2020-10-28T12:43:43.595Z</time>
      </trkpt>
      <trkpt lat="48.07548" lon="6.85151">
        <ele>802</ele>
        <time>2020-10-28T12:43:44.596Z</time>
      </trkpt>
      <trkpt lat="48.07548" lon="6.85149">
        <ele>801</ele>
        <time>2020-10-28T12:43:45.596Z</time>
      </trkpt>
      <trkpt lat="48.07548" lon="6.85147">
        <ele>801</ele>
        <time>2020-10-28T12:43:46.596Z</time>
      </trkpt>
      <trkpt lat="48.07549" lon="6.85144">
        <ele>801</ele>
        <time>2020-10-28T12:43:47.596Z</time>
      </trkpt>
      <trkpt lat="48.07549" lon="6.85142">
        <ele>800</ele>
        <time>2020-10-28T12:43:48.596Z</time>
      </trkpt>
      <trkpt lat="48.0755" lon="6.8514">
        <ele>800</ele>
        <time>2020-10-28T12:43:49.596Z</time>
      </trkpt>
      <trkpt lat="48.0755" lon="6.85138">
        <ele>800</ele>
        <time>2020-10-28T12:43:50.596Z</time>
      </trkpt>
      <trkpt lat="48.07551" lon="6.85136">
        <ele>800</ele>
        <time>2020-10-28T12:43:51.595Z</time>
      </trkpt>
      <trkpt lat="48.07551" lon="6.85135">
        <ele>800</ele>
        <time>2020-10-28T12:43:52.596Z</time>
      </trkpt>
      <trkpt lat="48.07552" lon="6.85133">
        <ele>799</ele>
        <time>2020-10-28T12:43:53.596Z</time>
      </trkpt>
      <trkpt lat="48.07553" lon="6.85131">
        <ele>799</ele>
        <time>2020-10-28T12:43:54.596Z</time>
      </trkpt>
      <trkpt lat="48.07553" lon="6.8513">
        <ele>799</ele>
        <time>2020-10-28T12:43:55.596Z</time>
      </trkpt>
      <trkpt lat="48.07554" lon="6.85129">
        <ele>798</ele>
        <time>2020-10-28T12:43:56.596Z</time>
      </trkpt>
      <trkpt lat="48.07554" lon="6.85127">
        <ele>798</ele>
        <time>2020-10-28T12:43:57.595Z</time>
      </trkpt>
      <trkpt lat="48.07554" lon="6.85126">
        <ele>797</ele>
        <time>2020-10-28T12:43:58.596Z</time>
      </trkpt>
      <trkpt lat="48.07555" lon="6.85124">
        <ele>797</ele>
        <time>2020-10-28T12:43:59.596Z</time>
      </trkpt>
      <trkpt lat="48.07555" lon="6.85123">
        <ele>797</ele>
        <time>2020-10-28T12:44:00.595Z</time>
      </trkpt>
      <trkpt lat="48.07556" lon="6.85121">
        <ele>797</ele>
        <time>2020-10-28T12:44:01.596Z</time>
      </trkpt>
      <trkpt lat="48.07556" lon="6.85118">
        <ele>798</ele>
        <time>2020-10-28T12:44:02.596Z</time>
      </trkpt>
      <trkpt lat="48.07557" lon="6.85117">
        <ele>798</ele>
        <time>2020-10-28T12:44:03.595Z</time>
      </trkpt>
      <trkpt lat="48.07558" lon="6.85115">
        <ele>798</ele>
        <time>2020-10-28T12:44:04.595Z</time>
      </trkpt>
      <trkpt lat="48.07558" lon="6.85114">
        <ele>798</ele>
        <time>2020-10-28T12:44:05.596Z</time>
      </trkpt>
      <trkpt lat="48.07559" lon="6.85112">
        <ele>798</ele>
        <time>2020-10-28T12:44:06.596Z</time>
      </trkpt>
      <trkpt lat="48.0756" lon="6.85111">
        <ele>798</ele>
        <time>2020-10-28T12:44:07.595Z</time>
      </trkpt>
      <trkpt lat="48.07561" lon="6.85109">
        <ele>798</ele>
        <time>2020-10-28T12:44:08.595Z</time>
      </trkpt>
      <trkpt lat="48.07561" lon="6.85107">
        <ele>798</ele>
        <time>2020-10-28T12:44:09.595Z</time>
      </trkpt>
      <trkpt lat="48.07562" lon="6.85105">
        <ele>799</ele>
        <time>2020-10-28T12:44:10.596Z</time>
      </trkpt>
      <trkpt lat="48.07563" lon="6.85103">
        <ele>799</ele>
        <time>2020-10-28T12:44:11.596Z</time>
      </trkpt>
      <trkpt lat="48.07563" lon="6.85101">
        <ele>799</ele>
        <time>2020-10-28T12:44:12.596Z</time>
      </trkpt>
      <trkpt lat="48.07564" lon="6.85099">
        <ele>800</ele>
        <time>2020-10-28T12:44:13.596Z</time>
      </trkpt>
      <trkpt lat="48.07565" lon="6.85098">
        <ele>800</ele>
        <time>2020-10-28T12:44:14.596Z</time>
      </trkpt>
      <trkpt lat="48.07566" lon="6.85096">
        <ele>801</ele>
        <time>2020-10-28T12:44:15.595Z</time>
      </trkpt>
      <trkpt lat="48.07566" lon="6.85095">
        <ele>801</ele>
        <time>2020-10-28T12:44:16.596Z</time>
      </trkpt>
      <trkpt lat="48.07567" lon="6.85093">
        <ele>802</ele>
        <time>2020-10-28T12:44:17.595Z</time>
      </trkpt>
      <trkpt lat="48.07568" lon="6.85092">
        <ele>802</ele>
        <time>2020-10-28T12:44:18.596Z</time>
      </trkpt>
      <trkpt lat="48.07568" lon="6.8509">
        <ele>801</ele>
        <time>2020-10-28T12:44:19.596Z</time>
      </trkpt>
      <trkpt lat="48.07569" lon="6.85088">
        <ele>801</ele>
        <time>2020-10-28T12:44:20.596Z</time>
      </trkpt>
      <trkpt lat="48.07569" lon="6.85086">
        <ele>801</ele>
        <time>2020-10-28T12:44:21.596Z</time>
      </trkpt>
      <trkpt lat="48.0757" lon="6.85085">
        <ele>801</ele>
        <time>2020-10-28T12:44:22.596Z</time>
      </trkpt>
      <trkpt lat="48.07571" lon="6.85083">
        <ele>801</ele>
        <time>2020-10-28T12:44:23.596Z</time>
      </trkpt>
      <trkpt lat="48.07571" lon="6.85082">
        <ele>802</ele>
        <time>2020-10-28T12:44:24.596Z</time>
      </trkpt>
      <trkpt lat="48.07572" lon="6.8508">
        <ele>802</ele>
        <time>2020-10-28T12:44:25.596Z</time>
      </trkpt>
      <trkpt lat="48.07572" lon="6.85079">
        <ele>802</ele>
        <time>2020-10-28T12:44:26.595Z</time>
      </trkpt>
      <trkpt lat="48.07573" lon="6.85077">
        <ele>802</ele>
        <time>2020-10-28T12:44:27.595Z</time>
      </trkpt>
      <trkpt lat="48.07574" lon="6.85075">
        <ele>802</ele>
        <time>2020-10-28T12:44:28.596Z</time>
      </trkpt>
      <trkpt lat="48.07574" lon="6.85073">
        <ele>803</ele>
        <time>2020-10-28T12:44:29.596Z</time>
      </trkpt>
      <trkpt lat="48.07575" lon="6.85072">
        <ele>803</ele>
        <time>2020-10-28T12:44:30.596Z</time>
      </trkpt>
      <trkpt lat="48.07575" lon="6.8507">
        <ele>803</ele>
        <time>2020-10-28T12:44:31.595Z</time>
      </trkpt>
      <trkpt lat="48.07576" lon="6.85068">
        <ele>803</ele>
        <time>2020-10-28T12:44:32.596Z</time>
      </trkpt>
      <trkpt lat="48.07576" lon="6.85065">
        <ele>804</ele>
        <time>2020-10-28T12:44:33.596Z</time>
      </trkpt>
      <trkpt lat="48.07577" lon="6.85063">
        <ele>804</ele>
        <time>2020-10-28T12:44:34.595Z</time>
      </trkpt>
      <trkpt lat="48.07577" lon="6.8506">
        <ele>805</ele>
        <time>2020-10-28T12:44:35.596Z</time>
      </trkpt>
      <trkpt lat="48.07577" lon="6.85058">
        <ele>805</ele>
        <time>2020-10-28T12:44:36.596Z</time>
      </trkpt>
      <trkpt lat="48.07578" lon="6.85056">
        <ele>806</ele>
        <time>2020-10-28T12:44:37.595Z</time>
      </trkpt>
      <trkpt lat="48.07578" lon="6.85055">
        <ele>806</ele>
        <time>2020-10-28T12:44:38.596Z</time>
      </trkpt>
      <trkpt lat="48.07579" lon="6.85052">
        <ele>807</ele>
        <time>2020-10-28T12:44:39.595Z</time>
      </trkpt>
      <trkpt lat="48.07579" lon="6.8505">
        <ele>807</ele>
        <time>2020-10-28T12:44:40.596Z</time>
      </trkpt>
      <trkpt lat="48.0758" lon="6.85047">
        <ele>808</ele>
        <time>2020-10-28T12:44:41.595Z</time>
      </trkpt>
      <trkpt lat="48.0758" lon="6.85045">
        <ele>808</ele>
        <time>2020-10-28T12:44:42.596Z</time>
      </trkpt>
      <trkpt lat="48.0758" lon="6.85042">
        <ele>809</ele>
        <time>2020-10-28T12:44:43.595Z</time>
      </trkpt>
      <trkpt lat="48.07581" lon="6.8504">
        <ele>810</ele>
        <time>2020-10-28T12:44:44.596Z</time>
      </trkpt>
      <trkpt lat="48.07581" lon="6.85039">
        <ele>810</ele>
        <time>2020-10-28T12:44:45.596Z</time>
      </trkpt>
      <trkpt lat="48.07582" lon="6.85038">
        <ele>810</ele>
        <time>2020-10-28T12:44:46.595Z</time>
      </trkpt>
      <trkpt lat="48.07582" lon="6.85036">
        <ele>810</ele>
        <time>2020-10-28T12:44:47.596Z</time>
      </trkpt>
      <trkpt lat="48.07582" lon="6.85033">
        <ele>811</ele>
        <time>2020-10-28T12:44:48.596Z</time>
      </trkpt>
      <trkpt lat="48.07583" lon="6.85031">
        <ele>811</ele>
        <time>2020-10-28T12:44:49.596Z</time>
      </trkpt>
      <trkpt lat="48.07584" lon="6.8503">
        <ele>812</ele>
        <time>2020-10-28T12:44:50.596Z</time>
      </trkpt>
      <trkpt lat="48.07584" lon="6.85028">
        <ele>813</ele>
        <time>2020-10-28T12:44:51.595Z</time>
      </trkpt>
      <trkpt lat="48.07584" lon="6.85025">
        <ele>813</ele>
        <time>2020-10-28T12:44:52.595Z</time>
      </trkpt>
      <trkpt lat="48.07585" lon="6.85023">
        <ele>815</ele>
        <time>2020-10-28T12:44:53.596Z</time>
      </trkpt>
      <trkpt lat="48.07585" lon="6.85021">
        <ele>816</ele>
        <time>2020-10-28T12:44:54.596Z</time>
      </trkpt>
      <trkpt lat="48.07585" lon="6.85019">
        <ele>817</ele>
        <time>2020-10-28T12:44:55.595Z</time>
      </trkpt>
      <trkpt lat="48.07586" lon="6.85016">
        <ele>817</ele>
        <time>2020-10-28T12:44:56.596Z</time>
      </trkpt>
      <trkpt lat="48.07586" lon="6.85014">
        <ele>818</ele>
        <time>2020-10-28T12:44:57.595Z</time>
      </trkpt>
      <trkpt lat="48.07586" lon="6.85011">
        <ele>818</ele>
        <time>2020-10-28T12:44:58.595Z</time>
      </trkpt>
      <trkpt lat="48.07587" lon="6.8501">
        <ele>819</ele>
        <time>2020-10-28T12:44:59.596Z</time>
      </trkpt>
      <trkpt lat="48.07587" lon="6.85008">
        <ele>820</ele>
        <time>2020-10-28T12:45:00.595Z</time>
      </trkpt>
      <trkpt lat="48.07588" lon="6.85006">
        <ele>821</ele>
        <time>2020-10-28T12:45:01.595Z</time>
      </trkpt>
      <trkpt lat="48.07588" lon="6.85004">
        <ele>822</ele>
        <time>2020-10-28T12:45:02.596Z</time>
      </trkpt>
      <trkpt lat="48.07588" lon="6.85002">
        <ele>823</ele>
        <time>2020-10-28T12:45:03.596Z</time>
      </trkpt>
      <trkpt lat="48.07589" lon="6.85001">
        <ele>823</ele>
        <time>2020-10-28T12:45:04.596Z</time>
      </trkpt>
      <trkpt lat="48.0759" lon="6.84999">
        <ele>824</ele>
        <time>2020-10-28T12:45:05.596Z</time>
      </trkpt>
      <trkpt lat="48.0759" lon="6.84998">
        <ele>824</ele>
        <time>2020-10-28T12:45:06.596Z</time>
      </trkpt>
      <trkpt lat="48.07591" lon="6.84996">
        <ele>824</ele>
        <time>2020-10-28T12:45:07.595Z</time>
      </trkpt>
      <trkpt lat="48.07591" lon="6.84995">
        <ele>823</ele>
        <time>2020-10-28T12:45:08.596Z</time>
      </trkpt>
      <trkpt lat="48.07592" lon="6.84993">
        <ele>823</ele>
        <time>2020-10-28T12:45:09.596Z</time>
      </trkpt>
      <trkpt lat="48.07593" lon="6.84993">
        <ele>823</ele>
        <time>2020-10-28T12:45:10.595Z</time>
      </trkpt>
      <trkpt lat="48.07593" lon="6.84993">
        <ele>823</ele>
        <time>2020-10-28T12:45:11.595Z</time>
      </trkpt>
      <trkpt lat="48.07593" lon="6.84994">
        <ele>823</ele>
        <time>2020-10-28T12:45:12.596Z</time>
      </trkpt>
      <trkpt lat="48.07593" lon="6.84994">
        <ele>824</ele>
        <time>2020-10-28T12:45:13.596Z</time>
      </trkpt>
      <trkpt lat="48.07594" lon="6.84994">
        <ele>824</ele>
        <time>2020-10-28T12:45:14.595Z</time>
      </trkpt>
      <trkpt lat="48.07595" lon="6.84993">
        <ele>824</ele>
        <time>2020-10-28T12:45:15.595Z</time>
      </trkpt>
      <trkpt lat="48.07595" lon="6.84993">
        <ele>824</ele>
        <time>2020-10-28T12:45:16.596Z</time>
      </trkpt>
      <trkpt lat="48.07598" lon="6.84998">
        <ele>817</ele>
        <time>2020-10-28T12:45:17.597Z</time>
      </trkpt>
      <trkpt lat="48.07598" lon="6.84998">
        <ele>817</ele>
        <time>2020-10-28T12:45:18.596Z</time>
      </trkpt>
      <trkpt lat="48.07598" lon="6.84998">
        <ele>817</ele>
        <time>2020-10-28T12:45:19.596Z</time>
      </trkpt>
      <trkpt lat="48.07598" lon="6.84992">
        <ele>814</ele>
        <time>2020-10-28T12:45:20.598Z</time>
      </trkpt>
      <trkpt lat="48.07598" lon="6.8499">
        <ele>815</ele>
        <time>2020-10-28T12:45:21.598Z</time>
      </trkpt>
      <trkpt lat="48.07599" lon="6.84987">
        <ele>815</ele>
        <time>2020-10-28T12:45:22.598Z</time>
      </trkpt>
      <trkpt lat="48.076" lon="6.84985">
        <ele>815</ele>
        <time>2020-10-28T12:45:23.597Z</time>
      </trkpt>
      <trkpt lat="48.076" lon="6.84984">
        <ele>816</ele>
        <time>2020-10-28T12:45:24.598Z</time>
      </trkpt>
      <trkpt lat="48.07601" lon="6.84983">
        <ele>816</ele>
        <time>2020-10-28T12:45:25.598Z</time>
      </trkpt>
      <trkpt lat="48.07601" lon="6.84981">
        <ele>817</ele>
        <time>2020-10-28T12:45:26.598Z</time>
      </trkpt>
      <trkpt lat="48.07602" lon="6.84979">
        <ele>817</ele>
        <time>2020-10-28T12:45:27.598Z</time>
      </trkpt>
      <trkpt lat="48.07602" lon="6.84977">
        <ele>818</ele>
        <time>2020-10-28T12:45:28.597Z</time>
      </trkpt>
      <trkpt lat="48.07603" lon="6.84975">
        <ele>819</ele>
        <time>2020-10-28T12:45:29.597Z</time>
      </trkpt>
      <trkpt lat="48.07602" lon="6.84972">
        <ele>819</ele>
        <time>2020-10-28T12:45:30.597Z</time>
      </trkpt>
      <trkpt lat="48.07603" lon="6.8497">
        <ele>820</ele>
        <time>2020-10-28T12:45:31.598Z</time>
      </trkpt>
      <trkpt lat="48.07603" lon="6.84968">
        <ele>820</ele>
        <time>2020-10-28T12:45:32.598Z</time>
      </trkpt>
      <trkpt lat="48.07603" lon="6.84966">
        <ele>821</ele>
        <time>2020-10-28T12:45:33.597Z</time>
      </trkpt>
      <trkpt lat="48.07603" lon="6.84963">
        <ele>821</ele>
        <time>2020-10-28T12:45:34.597Z</time>
      </trkpt>
      <trkpt lat="48.07603" lon="6.84961">
        <ele>822</ele>
        <time>2020-10-28T12:45:35.597Z</time>
      </trkpt>
      <trkpt lat="48.07603" lon="6.84958">
        <ele>823</ele>
        <time>2020-10-28T12:45:36.598Z</time>
      </trkpt>
      <trkpt lat="48.07603" lon="6.84955">
        <ele>823</ele>
        <time>2020-10-28T12:45:37.598Z</time>
      </trkpt>
      <trkpt lat="48.07603" lon="6.84952">
        <ele>824</ele>
        <time>2020-10-28T12:45:38.598Z</time>
      </trkpt>
      <trkpt lat="48.07603" lon="6.8495">
        <ele>825</ele>
        <time>2020-10-28T12:45:39.598Z</time>
      </trkpt>
      <trkpt lat="48.07604" lon="6.84949">
        <ele>826</ele>
        <time>2020-10-28T12:45:40.597Z</time>
      </trkpt>
      <trkpt lat="48.07604" lon="6.84947">
        <ele>827</ele>
        <time>2020-10-28T12:45:41.598Z</time>
      </trkpt>
      <trkpt lat="48.07604" lon="6.84944">
        <ele>827</ele>
        <time>2020-10-28T12:45:42.598Z</time>
      </trkpt>
      <trkpt lat="48.07604" lon="6.84941">
        <ele>828</ele>
        <time>2020-10-28T12:45:43.598Z</time>
      </trkpt>
      <trkpt lat="48.07604" lon="6.84938">
        <ele>828</ele>
        <time>2020-10-28T12:45:44.598Z</time>
      </trkpt>
      <trkpt lat="48.07604" lon="6.84936">
        <ele>829</ele>
        <time>2020-10-28T12:45:45.598Z</time>
      </trkpt>
      <trkpt lat="48.07605" lon="6.84934">
        <ele>829</ele>
        <time>2020-10-28T12:45:46.598Z</time>
      </trkpt>
      <trkpt lat="48.07605" lon="6.84932">
        <ele>830</ele>
        <time>2020-10-28T12:45:47.597Z</time>
      </trkpt>
      <trkpt lat="48.07606" lon="6.84931">
        <ele>831</ele>
        <time>2020-10-28T12:45:48.598Z</time>
      </trkpt>
      <trkpt lat="48.07606" lon="6.84929">
        <ele>831</ele>
        <time>2020-10-28T12:45:49.598Z</time>
      </trkpt>
      <trkpt lat="48.07607" lon="6.84926">
        <ele>832</ele>
        <time>2020-10-28T12:45:50.597Z</time>
      </trkpt>
      <trkpt lat="48.07607" lon="6.84924">
        <ele>832</ele>
        <time>2020-10-28T12:45:51.598Z</time>
      </trkpt>
      <trkpt lat="48.07608" lon="6.84922">
        <ele>833</ele>
        <time>2020-10-28T12:45:52.598Z</time>
      </trkpt>
      <trkpt lat="48.07608" lon="6.8492">
        <ele>833</ele>
        <time>2020-10-28T12:45:53.597Z</time>
      </trkpt>
      <trkpt lat="48.07609" lon="6.84919">
        <ele>833</ele>
        <time>2020-10-28T12:45:54.598Z</time>
      </trkpt>
      <trkpt lat="48.07609" lon="6.84917">
        <ele>833</ele>
        <time>2020-10-28T12:45:55.598Z</time>
      </trkpt>
      <trkpt lat="48.0761" lon="6.84915">
        <ele>833</ele>
        <time>2020-10-28T12:45:56.597Z</time>
      </trkpt>
      <trkpt lat="48.0761" lon="6.84913">
        <ele>833</ele>
        <time>2020-10-28T12:45:57.597Z</time>
      </trkpt>
      <trkpt lat="48.07611" lon="6.84912">
        <ele>833</ele>
        <time>2020-10-28T12:45:58.597Z</time>
      </trkpt>
      <trkpt lat="48.07611" lon="6.84911">
        <ele>833</ele>
        <time>2020-10-28T12:45:59.597Z</time>
      </trkpt>
      <trkpt lat="48.07612" lon="6.8491">
        <ele>834</ele>
        <time>2020-10-28T12:46:00.598Z</time>
      </trkpt>
      <trkpt lat="48.07613" lon="6.84909">
        <ele>834</ele>
        <time>2020-10-28T12:46:01.598Z</time>
      </trkpt>
      <trkpt lat="48.07614" lon="6.84908">
        <ele>834</ele>
        <time>2020-10-28T12:46:02.598Z</time>
      </trkpt>
      <trkpt lat="48.07615" lon="6.84907">
        <ele>835</ele>
        <time>2020-10-28T12:46:03.597Z</time>
      </trkpt>
      <trkpt lat="48.07616" lon="6.84904">
        <ele>835</ele>
        <time>2020-10-28T12:46:04.598Z</time>
      </trkpt>
      <trkpt lat="48.07615" lon="6.84902">
        <ele>835</ele>
        <time>2020-10-28T12:46:05.598Z</time>
      </trkpt>
      <trkpt lat="48.07615" lon="6.84901">
        <ele>836</ele>
        <time>2020-10-28T12:46:06.598Z</time>
      </trkpt>
      <trkpt lat="48.07615" lon="6.849">
        <ele>836</ele>
        <time>2020-10-28T12:46:07.597Z</time>
      </trkpt>
      <trkpt lat="48.07616" lon="6.84899">
        <ele>837</ele>
        <time>2020-10-28T12:46:08.598Z</time>
      </trkpt>
      <trkpt lat="48.07616" lon="6.84899">
        <ele>837</ele>
        <time>2020-10-28T12:46:09.598Z</time>
      </trkpt>
      <trkpt lat="48.07617" lon="6.84898">
        <ele>837</ele>
        <time>2020-10-28T12:46:10.598Z</time>
      </trkpt>
      <trkpt lat="48.07618" lon="6.84898">
        <ele>837</ele>
        <time>2020-10-28T12:46:11.598Z</time>
      </trkpt>
      <trkpt lat="48.07619" lon="6.84897">
        <ele>838</ele>
        <time>2020-10-28T12:46:12.598Z</time>
      </trkpt>
      <trkpt lat="48.07619" lon="6.84896">
        <ele>838</ele>
        <time>2020-10-28T12:46:13.598Z</time>
      </trkpt>
      <trkpt lat="48.07619" lon="6.84896">
        <ele>838</ele>
        <time>2020-10-28T12:46:14.598Z</time>
      </trkpt>
      <trkpt lat="48.07619" lon="6.84895">
        <ele>838</ele>
        <time>2020-10-28T12:46:15.598Z</time>
      </trkpt>
      <trkpt lat="48.0762" lon="6.84894">
        <ele>838</ele>
        <time>2020-10-28T12:46:16.597Z</time>
      </trkpt>
      <trkpt lat="48.0762" lon="6.84893">
        <ele>837</ele>
        <time>2020-10-28T12:46:17.598Z</time>
      </trkpt>
      <trkpt lat="48.0762" lon="6.84893">
        <ele>837</ele>
        <time>2020-10-28T12:46:18.597Z</time>
      </trkpt>
      <trkpt lat="48.07621" lon="6.84892">
        <ele>837</ele>
        <time>2020-10-28T12:46:19.597Z</time>
      </trkpt>
      <trkpt lat="48.07621" lon="6.84891">
        <ele>837</ele>
        <time>2020-10-28T12:46:20.597Z</time>
      </trkpt>
      <trkpt lat="48.07621" lon="6.84889">
        <ele>837</ele>
        <time>2020-10-28T12:46:21.598Z</time>
      </trkpt>
      <trkpt lat="48.07621" lon="6.84888">
        <ele>837</ele>
        <time>2020-10-28T12:46:22.598Z</time>
      </trkpt>
      <trkpt lat="48.07621" lon="6.84887">
        <ele>837</ele>
        <time>2020-10-28T12:46:23.597Z</time>
      </trkpt>
      <trkpt lat="48.07622" lon="6.84886">
        <ele>837</ele>
        <time>2020-10-28T12:46:24.598Z</time>
      </trkpt>
      <trkpt lat="48.07622" lon="6.84885">
        <ele>837</ele>
        <time>2020-10-28T12:46:25.598Z</time>
      </trkpt>
      <trkpt lat="48.07622" lon="6.84884">
        <ele>837</ele>
        <time>2020-10-28T12:46:26.598Z</time>
      </trkpt>
      <trkpt lat="48.07623" lon="6.84883">
        <ele>837</ele>
        <time>2020-10-28T12:46:27.597Z</time>
      </trkpt>
      <trkpt lat="48.07624" lon="6.84883">
        <ele>837</ele>
        <time>2020-10-28T12:46:28.598Z</time>
      </trkpt>
      <trkpt lat="48.07624" lon="6.84882">
        <ele>837</ele>
        <time>2020-10-28T12:46:29.597Z</time>
      </trkpt>
      <trkpt lat="48.07624" lon="6.8488">
        <ele>837</ele>
        <time>2020-10-28T12:46:30.597Z</time>
      </trkpt>
      <trkpt lat="48.07625" lon="6.84879">
        <ele>838</ele>
        <time>2020-10-28T12:46:31.598Z</time>
      </trkpt>
      <trkpt lat="48.07625" lon="6.84877">
        <ele>838</ele>
        <time>2020-10-28T12:46:32.597Z</time>
      </trkpt>
      <trkpt lat="48.07625" lon="6.84875">
        <ele>838</ele>
        <time>2020-10-28T12:46:33.598Z</time>
      </trkpt>
      <trkpt lat="48.07626" lon="6.84873">
        <ele>837</ele>
        <time>2020-10-28T12:46:34.598Z</time>
      </trkpt>
      <trkpt lat="48.07626" lon="6.84873">
        <ele>837</ele>
        <time>2020-10-28T12:46:35.598Z</time>
      </trkpt>
      <trkpt lat="48.07627" lon="6.84871">
        <ele>837</ele>
        <time>2020-10-28T12:46:36.597Z</time>
      </trkpt>
      <trkpt lat="48.07627" lon="6.8487">
        <ele>837</ele>
        <time>2020-10-28T12:46:37.597Z</time>
      </trkpt>
      <trkpt lat="48.07628" lon="6.84869">
        <ele>837</ele>
        <time>2020-10-28T12:46:38.597Z</time>
      </trkpt>
      <trkpt lat="48.07627" lon="6.84867">
        <ele>837</ele>
        <time>2020-10-28T12:46:39.597Z</time>
      </trkpt>
      <trkpt lat="48.07627" lon="6.84865">
        <ele>837</ele>
        <time>2020-10-28T12:46:40.598Z</time>
      </trkpt>
      <trkpt lat="48.07627" lon="6.84863">
        <ele>837</ele>
        <time>2020-10-28T12:46:41.598Z</time>
      </trkpt>
      <trkpt lat="48.07627" lon="6.84862">
        <ele>837</ele>
        <time>2020-10-28T12:46:42.598Z</time>
      </trkpt>
      <trkpt lat="48.07627" lon="6.84861">
        <ele>837</ele>
        <time>2020-10-28T12:46:43.598Z</time>
      </trkpt>
      <trkpt lat="48.07627" lon="6.8486">
        <ele>837</ele>
        <time>2020-10-28T12:46:51.634Z</time>
      </trkpt>
      <trkpt lat="48.07627" lon="6.84857">
        <ele>838</ele>
        <time>2020-10-28T12:46:52.635Z</time>
      </trkpt>
      <trkpt lat="48.07627" lon="6.84855">
        <ele>838</ele>
        <time>2020-10-28T12:46:53.635Z</time>
      </trkpt>
      <trkpt lat="48.07627" lon="6.84853">
        <ele>838</ele>
        <time>2020-10-28T12:46:54.635Z</time>
      </trkpt>
      <trkpt lat="48.07627" lon="6.8485">
        <ele>838</ele>
        <time>2020-10-28T12:46:55.635Z</time>
      </trkpt>
      <trkpt lat="48.07626" lon="6.84848">
        <ele>838</ele>
        <time>2020-10-28T12:46:56.635Z</time>
      </trkpt>
      <trkpt lat="48.07626" lon="6.84847">
        <ele>838</ele>
        <time>2020-10-28T12:46:57.635Z</time>
      </trkpt>
      <trkpt lat="48.07626" lon="6.84845">
        <ele>838</ele>
        <time>2020-10-28T12:46:58.635Z</time>
      </trkpt>
      <trkpt lat="48.07625" lon="6.84844">
        <ele>838</ele>
        <time>2020-10-28T12:46:59.635Z</time>
      </trkpt>
      <trkpt lat="48.07625" lon="6.84842">
        <ele>837</ele>
        <time>2020-10-28T12:47:00.635Z</time>
      </trkpt>
      <trkpt lat="48.07625" lon="6.8484">
        <ele>837</ele>
        <time>2020-10-28T12:47:01.634Z</time>
      </trkpt>
      <trkpt lat="48.07625" lon="6.84838">
        <ele>837</ele>
        <time>2020-10-28T12:47:02.634Z</time>
      </trkpt>
      <trkpt lat="48.07625" lon="6.84837">
        <ele>837</ele>
        <time>2020-10-28T12:47:03.635Z</time>
      </trkpt>
      <trkpt lat="48.07625" lon="6.84835">
        <ele>837</ele>
        <time>2020-10-28T12:47:04.634Z</time>
      </trkpt>
      <trkpt lat="48.07626" lon="6.84834">
        <ele>838</ele>
        <time>2020-10-28T12:47:05.634Z</time>
      </trkpt>
      <trkpt lat="48.07627" lon="6.84832">
        <ele>838</ele>
        <time>2020-10-28T12:47:06.635Z</time>
      </trkpt>
      <trkpt lat="48.07627" lon="6.84832">
        <ele>838</ele>
        <time>2020-10-28T12:47:07.635Z</time>
      </trkpt>
      <trkpt lat="48.07627" lon="6.8483">
        <ele>839</ele>
        <time>2020-10-28T12:47:08.634Z</time>
      </trkpt>
      <trkpt lat="48.07628" lon="6.8483">
        <ele>839</ele>
        <time>2020-10-28T12:47:09.635Z</time>
      </trkpt>
      <trkpt lat="48.07628" lon="6.84828">
        <ele>840</ele>
        <time>2020-10-28T12:47:10.635Z</time>
      </trkpt>
      <trkpt lat="48.07628" lon="6.84827">
        <ele>840</ele>
        <time>2020-10-28T12:47:11.635Z</time>
      </trkpt>
      <trkpt lat="48.07628" lon="6.84827">
        <ele>841</ele>
        <time>2020-10-28T12:47:12.635Z</time>
      </trkpt>
      <trkpt lat="48.07628" lon="6.84827">
        <ele>841</ele>
        <time>2020-10-28T12:47:13.634Z</time>
      </trkpt>
      <trkpt lat="48.07628" lon="6.84825">
        <ele>842</ele>
        <time>2020-10-28T12:47:14.635Z</time>
      </trkpt>
      <trkpt lat="48.07628" lon="6.84825">
        <ele>842</ele>
        <time>2020-10-28T12:47:15.634Z</time>
      </trkpt>
      <trkpt lat="48.07628" lon="6.84824">
        <ele>843</ele>
        <time>2020-10-28T12:47:16.634Z</time>
      </trkpt>
      <trkpt lat="48.07629" lon="6.84823">
        <ele>843</ele>
        <time>2020-10-28T12:47:17.635Z</time>
      </trkpt>
      <trkpt lat="48.07629" lon="6.84822">
        <ele>844</ele>
        <time>2020-10-28T12:47:18.635Z</time>
      </trkpt>
      <trkpt lat="48.0763" lon="6.84821">
        <ele>844</ele>
        <time>2020-10-28T12:47:19.635Z</time>
      </trkpt>
      <trkpt lat="48.0763" lon="6.8482">
        <ele>844</ele>
        <time>2020-10-28T12:47:20.634Z</time>
      </trkpt>
      <trkpt lat="48.07631" lon="6.84818">
        <ele>845</ele>
        <time>2020-10-28T12:47:21.635Z</time>
      </trkpt>
      <trkpt lat="48.07631" lon="6.84817">
        <ele>845</ele>
        <time>2020-10-28T12:47:22.634Z</time>
      </trkpt>
      <trkpt lat="48.07632" lon="6.84816">
        <ele>846</ele>
        <time>2020-10-28T12:47:23.635Z</time>
      </trkpt>
      <trkpt lat="48.07632" lon="6.84815">
        <ele>847</ele>
        <time>2020-10-28T12:47:24.634Z</time>
      </trkpt>
      <trkpt lat="48.07632" lon="6.84814">
        <ele>847</ele>
        <time>2020-10-28T12:47:25.634Z</time>
      </trkpt>
      <trkpt lat="48.07633" lon="6.84813">
        <ele>847</ele>
        <time>2020-10-28T12:47:26.634Z</time>
      </trkpt>
      <trkpt lat="48.07633" lon="6.84812">
        <ele>847</ele>
        <time>2020-10-28T12:47:27.634Z</time>
      </trkpt>
      <trkpt lat="48.07633" lon="6.8481">
        <ele>847</ele>
        <time>2020-10-28T12:47:28.635Z</time>
      </trkpt>
      <trkpt lat="48.07633" lon="6.84809">
        <ele>847</ele>
        <time>2020-10-28T12:47:29.635Z</time>
      </trkpt>
      <trkpt lat="48.07633" lon="6.84807">
        <ele>846</ele>
        <time>2020-10-28T12:47:30.635Z</time>
      </trkpt>
      <trkpt lat="48.07633" lon="6.84806">
        <ele>846</ele>
        <time>2020-10-28T12:47:31.634Z</time>
      </trkpt>
      <trkpt lat="48.07633" lon="6.84805">
        <ele>846</ele>
        <time>2020-10-28T12:47:32.635Z</time>
      </trkpt>
      <trkpt lat="48.07634" lon="6.84803">
        <ele>845</ele>
        <time>2020-10-28T12:47:33.634Z</time>
      </trkpt>
      <trkpt lat="48.07634" lon="6.84801">
        <ele>845</ele>
        <time>2020-10-28T12:47:34.634Z</time>
      </trkpt>
      <trkpt lat="48.07634" lon="6.84799">
        <ele>846</ele>
        <time>2020-10-28T12:47:35.634Z</time>
      </trkpt>
      <trkpt lat="48.07634" lon="6.84798">
        <ele>846</ele>
        <time>2020-10-28T12:47:36.634Z</time>
      </trkpt>
      <trkpt lat="48.07634" lon="6.84796">
        <ele>846</ele>
        <time>2020-10-28T12:47:37.634Z</time>
      </trkpt>
      <trkpt lat="48.07634" lon="6.84794">
        <ele>846</ele>
        <time>2020-10-28T12:47:38.634Z</time>
      </trkpt>
      <trkpt lat="48.07634" lon="6.84792">
        <ele>846</ele>
        <time>2020-10-28T12:47:39.635Z</time>
      </trkpt>
      <trkpt lat="48.07634" lon="6.8479">
        <ele>847</ele>
        <time>2020-10-28T12:47:40.634Z</time>
      </trkpt>
      <trkpt lat="48.07634" lon="6.84787">
        <ele>847</ele>
        <time>2020-10-28T12:47:41.634Z</time>
      </trkpt>
      <trkpt lat="48.07633" lon="6.84785">
        <ele>847</ele>
        <time>2020-10-28T12:47:42.634Z</time>
      </trkpt>
      <trkpt lat="48.07634" lon="6.84783">
        <ele>847</ele>
        <time>2020-10-28T12:47:43.635Z</time>
      </trkpt>
      <trkpt lat="48.07634" lon="6.84781">
        <ele>847</ele>
        <time>2020-10-28T12:47:44.635Z</time>
      </trkpt>
      <trkpt lat="48.07635" lon="6.8478">
        <ele>847</ele>
        <time>2020-10-28T12:47:45.634Z</time>
      </trkpt>
      <trkpt lat="48.07635" lon="6.84778">
        <ele>848</ele>
        <time>2020-10-28T12:47:46.634Z</time>
      </trkpt>
      <trkpt lat="48.07635" lon="6.84776">
        <ele>848</ele>
        <time>2020-10-28T12:47:47.634Z</time>
      </trkpt>
      <trkpt lat="48.07636" lon="6.84775">
        <ele>848</ele>
        <time>2020-10-28T12:47:48.635Z</time>
      </trkpt>
      <trkpt lat="48.07636" lon="6.84773">
        <ele>848</ele>
        <time>2020-10-28T12:47:49.634Z</time>
      </trkpt>
      <trkpt lat="48.07636" lon="6.84772">
        <ele>849</ele>
        <time>2020-10-28T12:47:50.635Z</time>
      </trkpt>
      <trkpt lat="48.07636" lon="6.8477">
        <ele>849</ele>
        <time>2020-10-28T12:47:51.634Z</time>
      </trkpt>
      <trkpt lat="48.07637" lon="6.84767">
        <ele>849</ele>
        <time>2020-10-28T12:47:52.634Z</time>
      </trkpt>
      <trkpt lat="48.07637" lon="6.84766">
        <ele>850</ele>
        <time>2020-10-28T12:47:53.635Z</time>
      </trkpt>
      <trkpt lat="48.07638" lon="6.84764">
        <ele>850</ele>
        <time>2020-10-28T12:47:54.634Z</time>
      </trkpt>
      <trkpt lat="48.07639" lon="6.84763">
        <ele>850</ele>
        <time>2020-10-28T12:47:55.634Z</time>
      </trkpt>
      <trkpt lat="48.07639" lon="6.8476">
        <ele>851</ele>
        <time>2020-10-28T12:47:56.634Z</time>
      </trkpt>
      <trkpt lat="48.0764" lon="6.84758">
        <ele>851</ele>
        <time>2020-10-28T12:47:57.635Z</time>
      </trkpt>
      <trkpt lat="48.0764" lon="6.84756">
        <ele>851</ele>
        <time>2020-10-28T12:47:58.634Z</time>
      </trkpt>
      <trkpt lat="48.0764" lon="6.84755">
        <ele>851</ele>
        <time>2020-10-28T12:47:59.634Z</time>
      </trkpt>
      <trkpt lat="48.0764" lon="6.84753">
        <ele>851</ele>
        <time>2020-10-28T12:48:00.635Z</time>
      </trkpt>
      <trkpt lat="48.07641" lon="6.84752">
        <ele>852</ele>
        <time>2020-10-28T12:48:01.634Z</time>
      </trkpt>
      <trkpt lat="48.07641" lon="6.8475">
        <ele>852</ele>
        <time>2020-10-28T12:48:02.635Z</time>
      </trkpt>
      <trkpt lat="48.07641" lon="6.84749">
        <ele>853</ele>
        <time>2020-10-28T12:48:03.634Z</time>
      </trkpt>
      <trkpt lat="48.07642" lon="6.84748">
        <ele>853</ele>
        <time>2020-10-28T12:48:04.635Z</time>
      </trkpt>
      <trkpt lat="48.07642" lon="6.84747">
        <ele>853</ele>
        <time>2020-10-28T12:48:05.634Z</time>
      </trkpt>
      <trkpt lat="48.07642" lon="6.84746">
        <ele>854</ele>
        <time>2020-10-28T12:48:06.634Z</time>
      </trkpt>
      <trkpt lat="48.07643" lon="6.84744">
        <ele>854</ele>
        <time>2020-10-28T12:48:07.635Z</time>
      </trkpt>
      <trkpt lat="48.07643" lon="6.84743">
        <ele>854</ele>
        <time>2020-10-28T12:48:08.635Z</time>
      </trkpt>
      <trkpt lat="48.07643" lon="6.84742">
        <ele>854</ele>
        <time>2020-10-28T12:48:09.635Z</time>
      </trkpt>
      <trkpt lat="48.07643" lon="6.84741">
        <ele>854</ele>
        <time>2020-10-28T12:48:10.634Z</time>
      </trkpt>
      <trkpt lat="48.07643" lon="6.84739">
        <ele>853</ele>
        <time>2020-10-28T12:48:11.634Z</time>
      </trkpt>
      <trkpt lat="48.07644" lon="6.84738">
        <ele>853</ele>
        <time>2020-10-28T12:48:12.635Z</time>
      </trkpt>
      <trkpt lat="48.07644" lon="6.84737">
        <ele>853</ele>
        <time>2020-10-28T12:48:13.634Z</time>
      </trkpt>
      <trkpt lat="48.07645" lon="6.84736">
        <ele>853</ele>
        <time>2020-10-28T12:48:14.634Z</time>
      </trkpt>
      <trkpt lat="48.07644" lon="6.84735">
        <ele>853</ele>
        <time>2020-10-28T12:48:15.634Z</time>
      </trkpt>
      <trkpt lat="48.07644" lon="6.84733">
        <ele>853</ele>
        <time>2020-10-28T12:48:16.635Z</time>
      </trkpt>
      <trkpt lat="48.07644" lon="6.8473">
        <ele>852</ele>
        <time>2020-10-28T12:48:17.634Z</time>
      </trkpt>
      <trkpt lat="48.07644" lon="6.84729">
        <ele>852</ele>
        <time>2020-10-28T12:48:18.635Z</time>
      </trkpt>
      <trkpt lat="48.07644" lon="6.84726">
        <ele>852</ele>
        <time>2020-10-28T12:48:19.634Z</time>
      </trkpt>
      <trkpt lat="48.07644" lon="6.84724">
        <ele>852</ele>
        <time>2020-10-28T12:48:20.634Z</time>
      </trkpt>
      <trkpt lat="48.07644" lon="6.84722">
        <ele>852</ele>
        <time>2020-10-28T12:48:21.634Z</time>
      </trkpt>
      <trkpt lat="48.07644" lon="6.84721">
        <ele>852</ele>
        <time>2020-10-28T12:48:22.634Z</time>
      </trkpt>
      <trkpt lat="48.07644" lon="6.84719">
        <ele>852</ele>
        <time>2020-10-28T12:48:23.634Z</time>
      </trkpt>
      <trkpt lat="48.07644" lon="6.84718">
        <ele>852</ele>
        <time>2020-10-28T12:48:24.635Z</time>
      </trkpt>
      <trkpt lat="48.07644" lon="6.84717">
        <ele>853</ele>
        <time>2020-10-28T12:48:25.634Z</time>
      </trkpt>
      <trkpt lat="48.07644" lon="6.84716">
        <ele>853</ele>
        <time>2020-10-28T12:48:26.634Z</time>
      </trkpt>
      <trkpt lat="48.07644" lon="6.84714">
        <ele>853</ele>
        <time>2020-10-28T12:48:27.634Z</time>
      </trkpt>
      <trkpt lat="48.07644" lon="6.84713">
        <ele>854</ele>
        <time>2020-10-28T12:48:28.635Z</time>
      </trkpt>
      <trkpt lat="48.07644" lon="6.84711">
        <ele>854</ele>
        <time>2020-10-28T12:48:29.635Z</time>
      </trkpt>
      <trkpt lat="48.07644" lon="6.84709">
        <ele>855</ele>
        <time>2020-10-28T12:48:30.634Z</time>
      </trkpt>
      <trkpt lat="48.07645" lon="6.84707">
        <ele>856</ele>
        <time>2020-10-28T12:48:31.634Z</time>
      </trkpt>
      <trkpt lat="48.07645" lon="6.84705">
        <ele>856</ele>
        <time>2020-10-28T12:48:32.634Z</time>
      </trkpt>
      <trkpt lat="48.07646" lon="6.84703">
        <ele>857</ele>
        <time>2020-10-28T12:48:33.634Z</time>
      </trkpt>
      <trkpt lat="48.07646" lon="6.84702">
        <ele>857</ele>
        <time>2020-10-28T12:48:34.635Z</time>
      </trkpt>
      <trkpt lat="48.07647" lon="6.847">
        <ele>858</ele>
        <time>2020-10-28T12:48:35.635Z</time>
      </trkpt>
      <trkpt lat="48.07648" lon="6.84699">
        <ele>858</ele>
        <time>2020-10-28T12:48:36.634Z</time>
      </trkpt>
      <trkpt lat="48.07648" lon="6.84697">
        <ele>858</ele>
        <time>2020-10-28T12:48:37.635Z</time>
      </trkpt>
      <trkpt lat="48.07648" lon="6.84696">
        <ele>858</ele>
        <time>2020-10-28T12:48:38.635Z</time>
      </trkpt>
      <trkpt lat="48.07648" lon="6.84695">
        <ele>858</ele>
        <time>2020-10-28T12:48:39.634Z</time>
      </trkpt>
      <trkpt lat="48.07649" lon="6.84694">
        <ele>858</ele>
        <time>2020-10-28T12:48:40.635Z</time>
      </trkpt>
      <trkpt lat="48.07649" lon="6.84692">
        <ele>859</ele>
        <time>2020-10-28T12:48:41.634Z</time>
      </trkpt>
      <trkpt lat="48.07649" lon="6.84691">
        <ele>859</ele>
        <time>2020-10-28T12:48:42.635Z</time>
      </trkpt>
      <trkpt lat="48.07649" lon="6.8469">
        <ele>859</ele>
        <time>2020-10-28T12:48:43.634Z</time>
      </trkpt>
      <trkpt lat="48.0765" lon="6.84689">
        <ele>860</ele>
        <time>2020-10-28T12:48:44.635Z</time>
      </trkpt>
      <trkpt lat="48.0765" lon="6.84688">
        <ele>860</ele>
        <time>2020-10-28T12:48:45.634Z</time>
      </trkpt>
      <trkpt lat="48.0765" lon="6.84686">
        <ele>860</ele>
        <time>2020-10-28T12:48:46.634Z</time>
      </trkpt>
      <trkpt lat="48.0765" lon="6.84685">
        <ele>860</ele>
        <time>2020-10-28T12:48:47.635Z</time>
      </trkpt>
      <trkpt lat="48.0765" lon="6.84684">
        <ele>860</ele>
        <time>2020-10-28T12:48:48.634Z</time>
      </trkpt>
      <trkpt lat="48.07651" lon="6.84683">
        <ele>860</ele>
        <time>2020-10-28T12:48:49.634Z</time>
      </trkpt>
      <trkpt lat="48.07651" lon="6.84682">
        <ele>860</ele>
        <time>2020-10-28T12:48:50.635Z</time>
      </trkpt>
      <trkpt lat="48.07651" lon="6.84681">
        <ele>860</ele>
        <time>2020-10-28T12:48:51.635Z</time>
      </trkpt>
      <trkpt lat="48.07652" lon="6.8468">
        <ele>860</ele>
        <time>2020-10-28T12:48:52.635Z</time>
      </trkpt>
      <trkpt lat="48.07652" lon="6.84678">
        <ele>860</ele>
        <time>2020-10-28T12:48:53.634Z</time>
      </trkpt>
      <trkpt lat="48.07652" lon="6.84676">
        <ele>860</ele>
        <time>2020-10-28T12:48:54.634Z</time>
      </trkpt>
      <trkpt lat="48.07652" lon="6.84674">
        <ele>860</ele>
        <time>2020-10-28T12:48:55.635Z</time>
      </trkpt>
      <trkpt lat="48.07652" lon="6.84672">
        <ele>860</ele>
        <time>2020-10-28T12:48:56.635Z</time>
      </trkpt>
      <trkpt lat="48.07652" lon="6.84671">
        <ele>860</ele>
        <time>2020-10-28T12:48:57.635Z</time>
      </trkpt>
      <trkpt lat="48.07652" lon="6.84669">
        <ele>860</ele>
        <time>2020-10-28T12:48:58.635Z</time>
      </trkpt>
      <trkpt lat="48.07653" lon="6.84668">
        <ele>860</ele>
        <time>2020-10-28T12:48:59.635Z</time>
      </trkpt>
      <trkpt lat="48.07653" lon="6.84667">
        <ele>860</ele>
        <time>2020-10-28T12:49:00.635Z</time>
      </trkpt>
      <trkpt lat="48.07654" lon="6.84666">
        <ele>861</ele>
        <time>2020-10-28T12:49:01.634Z</time>
      </trkpt>
      <trkpt lat="48.07654" lon="6.84665">
        <ele>861</ele>
        <time>2020-10-28T12:49:02.635Z</time>
      </trkpt>
      <trkpt lat="48.07654" lon="6.84663">
        <ele>862</ele>
        <time>2020-10-28T12:49:03.634Z</time>
      </trkpt>
      <trkpt lat="48.07655" lon="6.84661">
        <ele>862</ele>
        <time>2020-10-28T12:49:04.635Z</time>
      </trkpt>
      <trkpt lat="48.07655" lon="6.8466">
        <ele>863</ele>
        <time>2020-10-28T12:49:05.635Z</time>
      </trkpt>
      <trkpt lat="48.07655" lon="6.84658">
        <ele>864</ele>
        <time>2020-10-28T12:49:06.635Z</time>
      </trkpt>
      <trkpt lat="48.07655" lon="6.84658">
        <ele>864</ele>
        <time>2020-10-28T12:49:07.635Z</time>
      </trkpt>
      <trkpt lat="48.07654" lon="6.84656">
        <ele>865</ele>
        <time>2020-10-28T12:49:08.635Z</time>
      </trkpt>
      <trkpt lat="48.07653" lon="6.84656">
        <ele>865</ele>
        <time>2020-10-28T12:49:09.634Z</time>
      </trkpt>
      <trkpt lat="48.07653" lon="6.84656">
        <ele>866</ele>
        <time>2020-10-28T12:49:10.635Z</time>
      </trkpt>
      <trkpt lat="48.07653" lon="6.84656">
        <ele>866</ele>
        <time>2020-10-28T12:49:11.635Z</time>
      </trkpt>
      <trkpt lat="48.07652" lon="6.84656">
        <ele>866</ele>
        <time>2020-10-28T12:49:12.634Z</time>
      </trkpt>
      <trkpt lat="48.07652" lon="6.84655">
        <ele>866</ele>
        <time>2020-10-28T12:49:13.634Z</time>
      </trkpt>
      <trkpt lat="48.07653" lon="6.84653">
        <ele>866</ele>
        <time>2020-10-28T12:49:14.634Z</time>
      </trkpt>
      <trkpt lat="48.07653" lon="6.84653">
        <ele>866</ele>
        <time>2020-10-28T12:49:15.635Z</time>
      </trkpt>
      <trkpt lat="48.07654" lon="6.84652">
        <ele>866</ele>
        <time>2020-10-28T12:49:16.635Z</time>
      </trkpt>
      <trkpt lat="48.07655" lon="6.84652">
        <ele>866</ele>
        <time>2020-10-28T12:49:17.635Z</time>
      </trkpt>
      <trkpt lat="48.07655" lon="6.84649">
        <ele>866</ele>
        <time>2020-10-28T12:49:18.634Z</time>
      </trkpt>
      <trkpt lat="48.07656" lon="6.84647">
        <ele>865</ele>
        <time>2020-10-28T12:49:19.634Z</time>
      </trkpt>
      <trkpt lat="48.07656" lon="6.84646">
        <ele>865</ele>
        <time>2020-10-28T12:49:20.635Z</time>
      </trkpt>
      <trkpt lat="48.07657" lon="6.84645">
        <ele>865</ele>
        <time>2020-10-28T12:49:21.635Z</time>
      </trkpt>
      <trkpt lat="48.07658" lon="6.84643">
        <ele>865</ele>
        <time>2020-10-28T12:49:22.634Z</time>
      </trkpt>
      <trkpt lat="48.07659" lon="6.84642">
        <ele>865</ele>
        <time>2020-10-28T12:49:23.635Z</time>
      </trkpt>
      <trkpt lat="48.07659" lon="6.84641">
        <ele>865</ele>
        <time>2020-10-28T12:49:24.635Z</time>
      </trkpt>
      <trkpt lat="48.0766" lon="6.8464">
        <ele>865</ele>
        <time>2020-10-28T12:49:25.635Z</time>
      </trkpt>
      <trkpt lat="48.07661" lon="6.84639">
        <ele>865</ele>
        <time>2020-10-28T12:49:26.635Z</time>
      </trkpt>
      <trkpt lat="48.07661" lon="6.84638">
        <ele>865</ele>
        <time>2020-10-28T12:49:27.635Z</time>
      </trkpt>
      <trkpt lat="48.07661" lon="6.84636">
        <ele>865</ele>
        <time>2020-10-28T12:49:28.634Z</time>
      </trkpt>
      <trkpt lat="48.07661" lon="6.84635">
        <ele>865</ele>
        <time>2020-10-28T12:49:29.635Z</time>
      </trkpt>
      <trkpt lat="48.07661" lon="6.84633">
        <ele>864</ele>
        <time>2020-10-28T12:49:30.634Z</time>
      </trkpt>
      <trkpt lat="48.07661" lon="6.84632">
        <ele>864</ele>
        <time>2020-10-28T12:49:31.635Z</time>
      </trkpt>
      <trkpt lat="48.07662" lon="6.84631">
        <ele>863</ele>
        <time>2020-10-28T12:49:32.634Z</time>
      </trkpt>
      <trkpt lat="48.07662" lon="6.84629">
        <ele>862</ele>
        <time>2020-10-28T12:49:33.635Z</time>
      </trkpt>
      <trkpt lat="48.07662" lon="6.84628">
        <ele>862</ele>
        <time>2020-10-28T12:49:34.635Z</time>
      </trkpt>
      <trkpt lat="48.07662" lon="6.84627">
        <ele>861</ele>
        <time>2020-10-28T12:49:35.635Z</time>
      </trkpt>
      <trkpt lat="48.07662" lon="6.84625">
        <ele>861</ele>
        <time>2020-10-28T12:49:36.634Z</time>
      </trkpt>
      <trkpt lat="48.07663" lon="6.84624">
        <ele>860</ele>
        <time>2020-10-28T12:49:37.634Z</time>
      </trkpt>
      <trkpt lat="48.07663" lon="6.84623">
        <ele>860</ele>
        <time>2020-10-28T12:49:38.635Z</time>
      </trkpt>
      <trkpt lat="48.07664" lon="6.84623">
        <ele>859</ele>
        <time>2020-10-28T12:49:39.635Z</time>
      </trkpt>
      <trkpt lat="48.07664" lon="6.84622">
        <ele>859</ele>
        <time>2020-10-28T12:49:40.634Z</time>
      </trkpt>
      <trkpt lat="48.07665" lon="6.84622">
        <ele>859</ele>
        <time>2020-10-28T12:49:41.635Z</time>
      </trkpt>
      <trkpt lat="48.07665" lon="6.84621">
        <ele>859</ele>
        <time>2020-10-28T12:49:42.635Z</time>
      </trkpt>
      <trkpt lat="48.07666" lon="6.84621">
        <ele>858</ele>
        <time>2020-10-28T12:49:43.634Z</time>
      </trkpt>
      <trkpt lat="48.07667" lon="6.84619">
        <ele>858</ele>
        <time>2020-10-28T12:49:44.635Z</time>
      </trkpt>
      <trkpt lat="48.07667" lon="6.84617">
        <ele>858</ele>
        <time>2020-10-28T12:49:45.635Z</time>
      </trkpt>
      <trkpt lat="48.07666" lon="6.84615">
        <ele>858</ele>
        <time>2020-10-28T12:49:46.634Z</time>
      </trkpt>
      <trkpt lat="48.07667" lon="6.84613">
        <ele>858</ele>
        <time>2020-10-28T12:49:47.635Z</time>
      </trkpt>
      <trkpt lat="48.07667" lon="6.84612">
        <ele>858</ele>
        <time>2020-10-28T12:49:48.634Z</time>
      </trkpt>
      <trkpt lat="48.07667" lon="6.84611">
        <ele>858</ele>
        <time>2020-10-28T12:49:49.635Z</time>
      </trkpt>
      <trkpt lat="48.07667" lon="6.8461">
        <ele>858</ele>
        <time>2020-10-28T12:49:50.635Z</time>
      </trkpt>
      <trkpt lat="48.07667" lon="6.84608">
        <ele>858</ele>
        <time>2020-10-28T12:49:51.635Z</time>
      </trkpt>
      <trkpt lat="48.07667" lon="6.84606">
        <ele>858</ele>
        <time>2020-10-28T12:49:52.635Z</time>
      </trkpt>
      <trkpt lat="48.07667" lon="6.84605">
        <ele>858</ele>
        <time>2020-10-28T12:49:53.635Z</time>
      </trkpt>
      <trkpt lat="48.07668" lon="6.84604">
        <ele>858</ele>
        <time>2020-10-28T12:49:54.635Z</time>
      </trkpt>
      <trkpt lat="48.07668" lon="6.84603">
        <ele>858</ele>
        <time>2020-10-28T12:49:55.635Z</time>
      </trkpt>
      <trkpt lat="48.07669" lon="6.84602">
        <ele>859</ele>
        <time>2020-10-28T12:49:56.635Z</time>
      </trkpt>
      <trkpt lat="48.07668" lon="6.84602">
        <ele>859</ele>
        <time>2020-10-28T12:49:57.634Z</time>
      </trkpt>
      <trkpt lat="48.07668" lon="6.84602">
        <ele>859</ele>
        <time>2020-10-28T12:49:58.635Z</time>
      </trkpt>
      <trkpt lat="48.07669" lon="6.84601">
        <ele>859</ele>
        <time>2020-10-28T12:49:59.635Z</time>
      </trkpt>
      <trkpt lat="48.0767" lon="6.84599">
        <ele>859</ele>
        <time>2020-10-28T12:50:00.634Z</time>
      </trkpt>
      <trkpt lat="48.0767" lon="6.84598">
        <ele>860</ele>
        <time>2020-10-28T12:50:01.634Z</time>
      </trkpt>
      <trkpt lat="48.07671" lon="6.84596">
        <ele>860</ele>
        <time>2020-10-28T12:50:02.634Z</time>
      </trkpt>
      <trkpt lat="48.07671" lon="6.84594">
        <ele>860</ele>
        <time>2020-10-28T12:50:03.635Z</time>
      </trkpt>
      <trkpt lat="48.07671" lon="6.84594">
        <ele>861</ele>
        <time>2020-10-28T12:50:04.635Z</time>
      </trkpt>
      <trkpt lat="48.07672" lon="6.84593">
        <ele>862</ele>
        <time>2020-10-28T12:50:05.635Z</time>
      </trkpt>
      <trkpt lat="48.07672" lon="6.84593">
        <ele>862</ele>
        <time>2020-10-28T12:50:06.635Z</time>
      </trkpt>
      <trkpt lat="48.07672" lon="6.84592">
        <ele>863</ele>
        <time>2020-10-28T12:50:07.635Z</time>
      </trkpt>
      <trkpt lat="48.07672" lon="6.84591">
        <ele>863</ele>
        <time>2020-10-28T12:50:08.635Z</time>
      </trkpt>
      <trkpt lat="48.07672" lon="6.84591">
        <ele>863</ele>
        <time>2020-10-28T12:50:09.635Z</time>
      </trkpt>
      <trkpt lat="48.07672" lon="6.8459">
        <ele>863</ele>
        <time>2020-10-28T12:50:10.635Z</time>
      </trkpt>
      <trkpt lat="48.07672" lon="6.84589">
        <ele>863</ele>
        <time>2020-10-28T12:50:11.634Z</time>
      </trkpt>
      <trkpt lat="48.07673" lon="6.84586">
        <ele>862</ele>
        <time>2020-10-28T12:50:12.635Z</time>
      </trkpt>
      <trkpt lat="48.07673" lon="6.84585">
        <ele>862</ele>
        <time>2020-10-28T12:50:13.634Z</time>
      </trkpt>
      <trkpt lat="48.07672" lon="6.84584">
        <ele>862</ele>
        <time>2020-10-28T12:50:14.634Z</time>
      </trkpt>
      <trkpt lat="48.07673" lon="6.8458">
        <ele>861</ele>
        <time>2020-10-28T12:50:15.634Z</time>
      </trkpt>
      <trkpt lat="48.07673" lon="6.84578">
        <ele>861</ele>
        <time>2020-10-28T12:50:22.740Z</time>
      </trkpt>
      <trkpt lat="48.07674" lon="6.84576">
        <ele>861</ele>
        <time>2020-10-28T12:50:23.740Z</time>
      </trkpt>
      <trkpt lat="48.07674" lon="6.84574">
        <ele>861</ele>
        <time>2020-10-28T12:50:24.740Z</time>
      </trkpt>
      <trkpt lat="48.07675" lon="6.84573">
        <ele>861</ele>
        <time>2020-10-28T12:50:25.740Z</time>
      </trkpt>
      <trkpt lat="48.07675" lon="6.8457">
        <ele>861</ele>
        <time>2020-10-28T12:50:26.740Z</time>
      </trkpt>
      <trkpt lat="48.07676" lon="6.84569">
        <ele>861</ele>
        <time>2020-10-28T12:50:27.741Z</time>
      </trkpt>
      <trkpt lat="48.07676" lon="6.84568">
        <ele>861</ele>
        <time>2020-10-28T12:50:31.884Z</time>
      </trkpt>
      <trkpt lat="48.07676" lon="6.84568">
        <ele>861</ele>
        <time>2020-10-28T12:50:34.721Z</time>
      </trkpt>
      <trkpt lat="48.07677" lon="6.84567">
        <ele>862</ele>
        <time>2020-10-28T12:50:35.721Z</time>
      </trkpt>
      <trkpt lat="48.07678" lon="6.84566">
        <ele>862</ele>
        <time>2020-10-28T12:50:36.721Z</time>
      </trkpt>
      <trkpt lat="48.07678" lon="6.84565">
        <ele>862</ele>
        <time>2020-10-28T12:50:37.721Z</time>
      </trkpt>
      <trkpt lat="48.07679" lon="6.84564">
        <ele>862</ele>
        <time>2020-10-28T12:50:38.722Z</time>
      </trkpt>
      <trkpt lat="48.07679" lon="6.84564">
        <ele>862</ele>
        <time>2020-10-28T12:50:39.721Z</time>
      </trkpt>
      <trkpt lat="48.07679" lon="6.84563">
        <ele>862</ele>
        <time>2020-10-28T12:50:40.721Z</time>
      </trkpt>
      <trkpt lat="48.07679" lon="6.84563">
        <ele>862</ele>
        <time>2020-10-28T12:50:41.721Z</time>
      </trkpt>
      <trkpt lat="48.0768" lon="6.84562">
        <ele>862</ele>
        <time>2020-10-28T12:50:42.721Z</time>
      </trkpt>
      <trkpt lat="48.0768" lon="6.84562">
        <ele>862</ele>
        <time>2020-10-28T12:51:08.732Z</time>
      </trkpt>
      <trkpt lat="48.07681" lon="6.84562">
        <ele>863</ele>
        <time>2020-10-28T12:51:14.651Z</time>
      </trkpt>
      <trkpt lat="48.07681" lon="6.84561">
        <ele>863</ele>
        <time>2020-10-28T12:51:15.650Z</time>
      </trkpt>
      <trkpt lat="48.07681" lon="6.84561">
        <ele>863</ele>
        <time>2020-10-28T12:51:16.650Z</time>
      </trkpt>
      <trkpt lat="48.07681" lon="6.8456">
        <ele>863</ele>
        <time>2020-10-28T12:51:17.650Z</time>
      </trkpt>
      <trkpt lat="48.07682" lon="6.84559">
        <ele>863</ele>
        <time>2020-10-28T12:51:18.651Z</time>
      </trkpt>
      <trkpt lat="48.07682" lon="6.84558">
        <ele>863</ele>
        <time>2020-10-28T12:51:19.650Z</time>
      </trkpt>
      <trkpt lat="48.07682" lon="6.84558">
        <ele>863</ele>
        <time>2020-10-28T12:52:27.756Z</time>
      </trkpt>
      <trkpt lat="48.07683" lon="6.84557">
        <ele>864</ele>
        <time>2020-10-28T12:52:33.619Z</time>
      </trkpt>
      <trkpt lat="48.07684" lon="6.84555">
        <ele>864</ele>
        <time>2020-10-28T12:52:34.619Z</time>
      </trkpt>
      <trkpt lat="48.07684" lon="6.84553">
        <ele>864</ele>
        <time>2020-10-28T12:52:35.619Z</time>
      </trkpt>
      <trkpt lat="48.07684" lon="6.84551">
        <ele>864</ele>
        <time>2020-10-28T12:52:36.619Z</time>
      </trkpt>
      <trkpt lat="48.07684" lon="6.84549">
        <ele>864</ele>
        <time>2020-10-28T12:52:37.619Z</time>
      </trkpt>
      <trkpt lat="48.07684" lon="6.84547">
        <ele>864</ele>
        <time>2020-10-28T12:52:43.736Z</time>
      </trkpt>
      <trkpt lat="48.07684" lon="6.84547">
        <ele>864</ele>
        <time>2020-10-28T12:52:44.737Z</time>
      </trkpt>
      <trkpt lat="48.07685" lon="6.84544">
        <ele>865</ele>
        <time>2020-10-28T12:52:56.610Z</time>
      </trkpt>
      <trkpt lat="48.07685" lon="6.84542">
        <ele>865</ele>
        <time>2020-10-28T12:52:57.610Z</time>
      </trkpt>
      <trkpt lat="48.07684" lon="6.84541">
        <ele>865</ele>
        <time>2020-10-28T12:52:58.610Z</time>
      </trkpt>
      <trkpt lat="48.07684" lon="6.84541">
        <ele>865</ele>
        <time>2020-10-28T12:53:22.634Z</time>
      </trkpt>
      <trkpt lat="48.07684" lon="6.8454">
        <ele>866</ele>
        <time>2020-10-28T12:53:41.507Z</time>
      </trkpt>
      <trkpt lat="48.07684" lon="6.84539">
        <ele>867</ele>
        <time>2020-10-28T12:53:42.508Z</time>
      </trkpt>
      <trkpt lat="48.07684" lon="6.84539">
        <ele>867</ele>
        <time>2020-10-28T12:53:43.507Z</time>
      </trkpt>
      <trkpt lat="48.07684" lon="6.84539">
        <ele>868</ele>
        <time>2020-10-28T12:53:44.507Z</time>
      </trkpt>
      <trkpt lat="48.07684" lon="6.84538">
        <ele>869</ele>
        <time>2020-10-28T12:53:45.508Z</time>
      </trkpt>
      <trkpt lat="48.07684" lon="6.84537">
        <ele>869</ele>
        <time>2020-10-28T12:53:46.507Z</time>
      </trkpt>
      <trkpt lat="48.07685" lon="6.84537">
        <ele>869</ele>
        <time>2020-10-28T12:53:47.508Z</time>
      </trkpt>
      <trkpt lat="48.07685" lon="6.84537">
        <ele>869</ele>
        <time>2020-10-28T12:53:48.507Z</time>
      </trkpt>
      <trkpt lat="48.07686" lon="6.84536">
        <ele>869</ele>
        <time>2020-10-28T12:53:49.507Z</time>
      </trkpt>
      <trkpt lat="48.07685" lon="6.84534">
        <ele>869</ele>
        <time>2020-10-28T12:53:50.508Z</time>
      </trkpt>
      <trkpt lat="48.07686" lon="6.84534">
        <ele>868</ele>
        <time>2020-10-28T12:53:51.507Z</time>
      </trkpt>
      <trkpt lat="48.07686" lon="6.84533">
        <ele>868</ele>
        <time>2020-10-28T12:53:52.507Z</time>
      </trkpt>
      <trkpt lat="48.07686" lon="6.84533">
        <ele>868</ele>
        <time>2020-10-28T12:53:53.507Z</time>
      </trkpt>
      <trkpt lat="48.07686" lon="6.84533">
        <ele>868</ele>
        <time>2020-10-28T12:53:54.507Z</time>
      </trkpt>
      <trkpt lat="48.07689" lon="6.84529">
        <ele>868</ele>
        <time>2020-10-28T12:53:55.508Z</time>
      </trkpt>
      <trkpt lat="48.0769" lon="6.84527">
        <ele>868</ele>
        <time>2020-10-28T12:53:56.507Z</time>
      </trkpt>
      <trkpt lat="48.07691" lon="6.84525">
        <ele>868</ele>
        <time>2020-10-28T12:53:57.507Z</time>
      </trkpt>
      <trkpt lat="48.07691" lon="6.84525">
        <ele>868</ele>
        <time>2020-10-28T12:53:58.507Z</time>
      </trkpt>
      <trkpt lat="48.07691" lon="6.84526">
        <ele>868</ele>
        <time>2020-10-28T12:53:59.508Z</time>
      </trkpt>
      <trkpt lat="48.07692" lon="6.84525">
        <ele>868</ele>
        <time>2020-10-28T12:54:00.507Z</time>
      </trkpt>
      <trkpt lat="48.07693" lon="6.84525">
        <ele>869</ele>
        <time>2020-10-28T12:54:01.507Z</time>
      </trkpt>
      <trkpt lat="48.07694" lon="6.84525">
        <ele>869</ele>
        <time>2020-10-28T12:54:02.507Z</time>
      </trkpt>
      <trkpt lat="48.07693" lon="6.84525">
        <ele>869</ele>
        <time>2020-10-28T12:54:03.508Z</time>
      </trkpt>
      <trkpt lat="48.07693" lon="6.84525">
        <ele>870</ele>
        <time>2020-10-28T12:54:04.508Z</time>
      </trkpt>
      <trkpt lat="48.07694" lon="6.84524">
        <ele>870</ele>
        <time>2020-10-28T12:54:05.507Z</time>
      </trkpt>
      <trkpt lat="48.07694" lon="6.84523">
        <ele>870</ele>
        <time>2020-10-28T12:54:06.507Z</time>
      </trkpt>
      <trkpt lat="48.07695" lon="6.84522">
        <ele>871</ele>
        <time>2020-10-28T12:54:07.507Z</time>
      </trkpt>
      <trkpt lat="48.07695" lon="6.8452">
        <ele>871</ele>
        <time>2020-10-28T12:54:08.507Z</time>
      </trkpt>
      <trkpt lat="48.07695" lon="6.84519">
        <ele>872</ele>
        <time>2020-10-28T12:54:09.507Z</time>
      </trkpt>
      <trkpt lat="48.07695" lon="6.84518">
        <ele>872</ele>
        <time>2020-10-28T12:54:10.507Z</time>
      </trkpt>
      <trkpt lat="48.07695" lon="6.84517">
        <ele>873</ele>
        <time>2020-10-28T12:54:11.508Z</time>
      </trkpt>
      <trkpt lat="48.07695" lon="6.84517">
        <ele>873</ele>
        <time>2020-10-28T12:54:12.507Z</time>
      </trkpt>
      <trkpt lat="48.07696" lon="6.84516">
        <ele>874</ele>
        <time>2020-10-28T12:54:13.507Z</time>
      </trkpt>
      <trkpt lat="48.07696" lon="6.84516">
        <ele>874</ele>
        <time>2020-10-28T12:54:14.508Z</time>
      </trkpt>
      <trkpt lat="48.07696" lon="6.84515">
        <ele>874</ele>
        <time>2020-10-28T12:54:15.508Z</time>
      </trkpt>
      <trkpt lat="48.07696" lon="6.84514">
        <ele>874</ele>
        <time>2020-10-28T12:54:16.508Z</time>
      </trkpt>
      <trkpt lat="48.07697" lon="6.84513">
        <ele>875</ele>
        <time>2020-10-28T12:54:17.508Z</time>
      </trkpt>
      <trkpt lat="48.07697" lon="6.84512">
        <ele>875</ele>
        <time>2020-10-28T12:54:18.508Z</time>
      </trkpt>
      <trkpt lat="48.07698" lon="6.84511">
        <ele>876</ele>
        <time>2020-10-28T12:54:19.508Z</time>
      </trkpt>
      <trkpt lat="48.07699" lon="6.8451">
        <ele>876</ele>
        <time>2020-10-28T12:54:20.508Z</time>
      </trkpt>
      <trkpt lat="48.07699" lon="6.84508">
        <ele>877</ele>
        <time>2020-10-28T12:54:21.508Z</time>
      </trkpt>
      <trkpt lat="48.07699" lon="6.84507">
        <ele>877</ele>
        <time>2020-10-28T12:54:22.508Z</time>
      </trkpt>
      <trkpt lat="48.077" lon="6.84505">
        <ele>877</ele>
        <time>2020-10-28T12:54:23.508Z</time>
      </trkpt>
      <trkpt lat="48.07699" lon="6.84504">
        <ele>878</ele>
        <time>2020-10-28T12:54:24.508Z</time>
      </trkpt>
      <trkpt lat="48.07699" lon="6.84503">
        <ele>878</ele>
        <time>2020-10-28T12:54:25.508Z</time>
      </trkpt>
      <trkpt lat="48.07699" lon="6.84501">
        <ele>878</ele>
        <time>2020-10-28T12:54:26.508Z</time>
      </trkpt>
      <trkpt lat="48.07699" lon="6.845">
        <ele>879</ele>
        <time>2020-10-28T12:54:27.508Z</time>
      </trkpt>
      <trkpt lat="48.077" lon="6.84497">
        <ele>879</ele>
        <time>2020-10-28T12:54:28.508Z</time>
      </trkpt>
      <trkpt lat="48.077" lon="6.84495">
        <ele>879</ele>
        <time>2020-10-28T12:54:29.508Z</time>
      </trkpt>
      <trkpt lat="48.07701" lon="6.84493">
        <ele>879</ele>
        <time>2020-10-28T12:54:30.507Z</time>
      </trkpt>
      <trkpt lat="48.07701" lon="6.84491">
        <ele>879</ele>
        <time>2020-10-28T12:54:31.508Z</time>
      </trkpt>
      <trkpt lat="48.07701" lon="6.84489">
        <ele>879</ele>
        <time>2020-10-28T12:54:32.508Z</time>
      </trkpt>
      <trkpt lat="48.07701" lon="6.84488">
        <ele>879</ele>
        <time>2020-10-28T12:54:33.508Z</time>
      </trkpt>
      <trkpt lat="48.077" lon="6.84486">
        <ele>879</ele>
        <time>2020-10-28T12:54:34.508Z</time>
      </trkpt>
      <trkpt lat="48.077" lon="6.84485">
        <ele>879</ele>
        <time>2020-10-28T12:54:35.508Z</time>
      </trkpt>
      <trkpt lat="48.077" lon="6.84483">
        <ele>879</ele>
        <time>2020-10-28T12:54:36.508Z</time>
      </trkpt>
      <trkpt lat="48.077" lon="6.84482">
        <ele>879</ele>
        <time>2020-10-28T12:54:37.508Z</time>
      </trkpt>
      <trkpt lat="48.077" lon="6.8448">
        <ele>879</ele>
        <time>2020-10-28T12:54:38.508Z</time>
      </trkpt>
      <trkpt lat="48.077" lon="6.84478">
        <ele>879</ele>
        <time>2020-10-28T12:54:39.508Z</time>
      </trkpt>
      <trkpt lat="48.077" lon="6.84477">
        <ele>879</ele>
        <time>2020-10-28T12:54:40.508Z</time>
      </trkpt>
      <trkpt lat="48.07699" lon="6.84476">
        <ele>879</ele>
        <time>2020-10-28T12:54:41.507Z</time>
      </trkpt>
      <trkpt lat="48.07699" lon="6.84475">
        <ele>879</ele>
        <time>2020-10-28T12:54:42.507Z</time>
      </trkpt>
      <trkpt lat="48.077" lon="6.84474">
        <ele>879</ele>
        <time>2020-10-28T12:54:43.508Z</time>
      </trkpt>
      <trkpt lat="48.077" lon="6.84473">
        <ele>879</ele>
        <time>2020-10-28T12:54:44.508Z</time>
      </trkpt>
      <trkpt lat="48.077" lon="6.84471">
        <ele>878</ele>
        <time>2020-10-28T12:54:45.508Z</time>
      </trkpt>
      <trkpt lat="48.077" lon="6.8447">
        <ele>878</ele>
        <time>2020-10-28T12:54:46.508Z</time>
      </trkpt>
      <trkpt lat="48.077" lon="6.84469">
        <ele>878</ele>
        <time>2020-10-28T12:54:47.508Z</time>
      </trkpt>
      <trkpt lat="48.077" lon="6.84467">
        <ele>878</ele>
        <time>2020-10-28T12:54:48.508Z</time>
      </trkpt>
      <trkpt lat="48.077" lon="6.84466">
        <ele>877</ele>
        <time>2020-10-28T12:54:49.508Z</time>
      </trkpt>
      <trkpt lat="48.077" lon="6.84465">
        <ele>877</ele>
        <time>2020-10-28T12:54:50.508Z</time>
      </trkpt>
      <trkpt lat="48.077" lon="6.84463">
        <ele>877</ele>
        <time>2020-10-28T12:54:51.508Z</time>
      </trkpt>
      <trkpt lat="48.077" lon="6.84462">
        <ele>877</ele>
        <time>2020-10-28T12:54:52.508Z</time>
      </trkpt>
      <trkpt lat="48.07701" lon="6.84461">
        <ele>877</ele>
        <time>2020-10-28T12:54:53.508Z</time>
      </trkpt>
      <trkpt lat="48.07701" lon="6.8446">
        <ele>877</ele>
        <time>2020-10-28T12:54:54.507Z</time>
      </trkpt>
      <trkpt lat="48.07701" lon="6.84458">
        <ele>878</ele>
        <time>2020-10-28T12:54:55.508Z</time>
      </trkpt>
      <trkpt lat="48.07702" lon="6.84457">
        <ele>878</ele>
        <time>2020-10-28T12:54:56.508Z</time>
      </trkpt>
      <trkpt lat="48.07702" lon="6.84456">
        <ele>878</ele>
        <time>2020-10-28T12:54:57.508Z</time>
      </trkpt>
      <trkpt lat="48.07702" lon="6.84455">
        <ele>878</ele>
        <time>2020-10-28T12:54:58.507Z</time>
      </trkpt>
      <trkpt lat="48.07702" lon="6.84454">
        <ele>878</ele>
        <time>2020-10-28T12:54:59.508Z</time>
      </trkpt>
      <trkpt lat="48.07701" lon="6.84452">
        <ele>878</ele>
        <time>2020-10-28T12:55:00.508Z</time>
      </trkpt>
      <trkpt lat="48.077" lon="6.84449">
        <ele>879</ele>
        <time>2020-10-28T12:55:01.508Z</time>
      </trkpt>
      <trkpt lat="48.07701" lon="6.84446">
        <ele>879</ele>
        <time>2020-10-28T12:55:02.508Z</time>
      </trkpt>
      <trkpt lat="48.07701" lon="6.84443">
        <ele>879</ele>
        <time>2020-10-28T12:55:03.508Z</time>
      </trkpt>
      <trkpt lat="48.07701" lon="6.8444">
        <ele>880</ele>
        <time>2020-10-28T12:55:04.508Z</time>
      </trkpt>
      <trkpt lat="48.077" lon="6.84438">
        <ele>880</ele>
        <time>2020-10-28T12:55:05.508Z</time>
      </trkpt>
      <trkpt lat="48.07701" lon="6.84437">
        <ele>881</ele>
        <time>2020-10-28T12:55:06.508Z</time>
      </trkpt>
      <trkpt lat="48.07702" lon="6.84436">
        <ele>881</ele>
        <time>2020-10-28T12:55:07.508Z</time>
      </trkpt>
      <trkpt lat="48.07702" lon="6.84435">
        <ele>882</ele>
        <time>2020-10-28T12:55:08.508Z</time>
      </trkpt>
      <trkpt lat="48.07702" lon="6.84434">
        <ele>882</ele>
        <time>2020-10-28T12:55:09.508Z</time>
      </trkpt>
      <trkpt lat="48.07703" lon="6.84433">
        <ele>883</ele>
        <time>2020-10-28T12:55:10.508Z</time>
      </trkpt>
      <trkpt lat="48.07704" lon="6.84432">
        <ele>884</ele>
        <time>2020-10-28T12:55:11.508Z</time>
      </trkpt>
      <trkpt lat="48.07704" lon="6.8443">
        <ele>885</ele>
        <time>2020-10-28T12:55:12.508Z</time>
      </trkpt>
      <trkpt lat="48.07704" lon="6.84429">
        <ele>885</ele>
        <time>2020-10-28T12:55:13.508Z</time>
      </trkpt>
      <trkpt lat="48.07705" lon="6.84428">
        <ele>886</ele>
        <time>2020-10-28T12:55:14.508Z</time>
      </trkpt>
      <trkpt lat="48.07706" lon="6.84427">
        <ele>887</ele>
        <time>2020-10-28T12:55:15.508Z</time>
      </trkpt>
      <trkpt lat="48.07707" lon="6.84426">
        <ele>887</ele>
        <time>2020-10-28T12:55:16.508Z</time>
      </trkpt>
      <trkpt lat="48.07706" lon="6.84422">
        <ele>888</ele>
        <time>2020-10-28T12:55:17.508Z</time>
      </trkpt>
      <trkpt lat="48.07705" lon="6.84418">
        <ele>889</ele>
        <time>2020-10-28T12:55:18.508Z</time>
      </trkpt>
      <trkpt lat="48.07704" lon="6.84415">
        <ele>889</ele>
        <time>2020-10-28T12:55:19.508Z</time>
      </trkpt>
      <trkpt lat="48.07704" lon="6.84413">
        <ele>890</ele>
        <time>2020-10-28T12:55:20.507Z</time>
      </trkpt>
      <trkpt lat="48.07703" lon="6.84412">
        <ele>890</ele>
        <time>2020-10-28T12:55:21.508Z</time>
      </trkpt>
      <trkpt lat="48.07703" lon="6.84411">
        <ele>891</ele>
        <time>2020-10-28T12:55:22.508Z</time>
      </trkpt>
      <trkpt lat="48.07702" lon="6.84409">
        <ele>892</ele>
        <time>2020-10-28T12:55:23.508Z</time>
      </trkpt>
      <trkpt lat="48.07702" lon="6.84407">
        <ele>892</ele>
        <time>2020-10-28T12:55:24.508Z</time>
      </trkpt>
      <trkpt lat="48.07701" lon="6.84406">
        <ele>893</ele>
        <time>2020-10-28T12:55:25.508Z</time>
      </trkpt>
      <trkpt lat="48.07701" lon="6.84404">
        <ele>894</ele>
        <time>2020-10-28T12:55:26.508Z</time>
      </trkpt>
      <trkpt lat="48.07702" lon="6.84403">
        <ele>895</ele>
        <time>2020-10-28T12:55:27.508Z</time>
      </trkpt>
      <trkpt lat="48.07701" lon="6.84402">
        <ele>895</ele>
        <time>2020-10-28T12:55:28.508Z</time>
      </trkpt>
      <trkpt lat="48.07702" lon="6.84401">
        <ele>896</ele>
        <time>2020-10-28T12:55:29.508Z</time>
      </trkpt>
      <trkpt lat="48.07702" lon="6.84399">
        <ele>896</ele>
        <time>2020-10-28T12:55:30.508Z</time>
      </trkpt>
      <trkpt lat="48.07704" lon="6.84398">
        <ele>897</ele>
        <time>2020-10-28T12:55:31.508Z</time>
      </trkpt>
      <trkpt lat="48.07704" lon="6.84396">
        <ele>897</ele>
        <time>2020-10-28T12:55:32.508Z</time>
      </trkpt>
      <trkpt lat="48.07705" lon="6.84395">
        <ele>897</ele>
        <time>2020-10-28T12:55:33.508Z</time>
      </trkpt>
      <trkpt lat="48.07705" lon="6.84395">
        <ele>897</ele>
        <time>2020-10-28T12:55:34.508Z</time>
      </trkpt>
      <trkpt lat="48.07706" lon="6.84394">
        <ele>898</ele>
        <time>2020-10-28T12:55:35.508Z</time>
      </trkpt>
      <trkpt lat="48.07706" lon="6.84393">
        <ele>898</ele>
        <time>2020-10-28T12:55:36.508Z</time>
      </trkpt>
      <trkpt lat="48.07706" lon="6.84393">
        <ele>898</ele>
        <time>2020-10-28T12:55:37.508Z</time>
      </trkpt>
      <trkpt lat="48.07706" lon="6.84392">
        <ele>899</ele>
        <time>2020-10-28T12:55:38.508Z</time>
      </trkpt>
      <trkpt lat="48.07706" lon="6.84391">
        <ele>900</ele>
        <time>2020-10-28T12:55:39.508Z</time>
      </trkpt>
      <trkpt lat="48.07706" lon="6.8439">
        <ele>900</ele>
        <time>2020-10-28T12:55:40.508Z</time>
      </trkpt>
      <trkpt lat="48.07707" lon="6.84389">
        <ele>901</ele>
        <time>2020-10-28T12:55:41.507Z</time>
      </trkpt>
      <trkpt lat="48.07707" lon="6.84388">
        <ele>901</ele>
        <time>2020-10-28T12:55:42.508Z</time>
      </trkpt>
      <trkpt lat="48.07707" lon="6.84388">
        <ele>901</ele>
        <time>2020-10-28T12:55:43.508Z</time>
      </trkpt>
      <trkpt lat="48.07707" lon="6.84387">
        <ele>902</ele>
        <time>2020-10-28T12:55:44.508Z</time>
      </trkpt>
      <trkpt lat="48.07707" lon="6.84386">
        <ele>902</ele>
        <time>2020-10-28T12:55:45.508Z</time>
      </trkpt>
      <trkpt lat="48.07707" lon="6.84385">
        <ele>902</ele>
        <time>2020-10-28T12:55:46.508Z</time>
      </trkpt>
      <trkpt lat="48.07707" lon="6.84383">
        <ele>902</ele>
        <time>2020-10-28T12:55:47.507Z</time>
      </trkpt>
      <trkpt lat="48.07706" lon="6.84383">
        <ele>902</ele>
        <time>2020-10-28T12:55:48.508Z</time>
      </trkpt>
      <trkpt lat="48.07706" lon="6.84382">
        <ele>902</ele>
        <time>2020-10-28T12:55:49.508Z</time>
      </trkpt>
      <trkpt lat="48.07707" lon="6.84382">
        <ele>902</ele>
        <time>2020-10-28T12:55:50.508Z</time>
      </trkpt>
      <trkpt lat="48.07707" lon="6.84381">
        <ele>902</ele>
        <time>2020-10-28T12:55:51.508Z</time>
      </trkpt>
      <trkpt lat="48.07707" lon="6.84381">
        <ele>902</ele>
        <time>2020-10-28T12:55:52.508Z</time>
      </trkpt>
      <trkpt lat="48.07707" lon="6.8438">
        <ele>902</ele>
        <time>2020-10-28T12:55:53.508Z</time>
      </trkpt>
      <trkpt lat="48.07707" lon="6.8438">
        <ele>901</ele>
        <time>2020-10-28T12:55:54.508Z</time>
      </trkpt>
      <trkpt lat="48.07707" lon="6.84379">
        <ele>901</ele>
        <time>2020-10-28T12:55:55.508Z</time>
      </trkpt>
      <trkpt lat="48.07707" lon="6.84379">
        <ele>901</ele>
        <time>2020-10-28T12:55:56.508Z</time>
      </trkpt>
      <trkpt lat="48.07707" lon="6.84378">
        <ele>900</ele>
        <time>2020-10-28T12:55:57.508Z</time>
      </trkpt>
      <trkpt lat="48.07708" lon="6.84377">
        <ele>900</ele>
        <time>2020-10-28T12:55:58.507Z</time>
      </trkpt>
      <trkpt lat="48.07708" lon="6.84376">
        <ele>899</ele>
        <time>2020-10-28T12:55:59.507Z</time>
      </trkpt>
      <trkpt lat="48.07708" lon="6.84375">
        <ele>899</ele>
        <time>2020-10-28T12:56:00.508Z</time>
      </trkpt>
      <trkpt lat="48.07709" lon="6.84373">
        <ele>898</ele>
        <time>2020-10-28T12:56:01.508Z</time>
      </trkpt>
      <trkpt lat="48.07709" lon="6.8437">
        <ele>897</ele>
        <time>2020-10-28T12:56:02.508Z</time>
      </trkpt>
      <trkpt lat="48.0771" lon="6.84368">
        <ele>896</ele>
        <time>2020-10-28T12:56:03.508Z</time>
      </trkpt>
      <trkpt lat="48.0771" lon="6.84366">
        <ele>896</ele>
        <time>2020-10-28T12:56:04.508Z</time>
      </trkpt>
      <trkpt lat="48.07712" lon="6.8437">
        <ele>895</ele>
        <time>2020-10-28T12:56:05.508Z</time>
      </trkpt>
      <trkpt lat="48.07712" lon="6.84369">
        <ele>895</ele>
        <time>2020-10-28T12:56:06.508Z</time>
      </trkpt>
      <trkpt lat="48.07712" lon="6.84369">
        <ele>894</ele>
        <time>2020-10-28T12:56:07.507Z</time>
      </trkpt>
      <trkpt lat="48.07714" lon="6.84362">
        <ele>894</ele>
        <time>2020-10-28T12:56:08.507Z</time>
      </trkpt>
      <trkpt lat="48.07715" lon="6.8436">
        <ele>894</ele>
        <time>2020-10-28T12:56:09.508Z</time>
      </trkpt>
      <trkpt lat="48.07715" lon="6.84357">
        <ele>894</ele>
        <time>2020-10-28T12:56:10.507Z</time>
      </trkpt>
      <trkpt lat="48.07716" lon="6.84354">
        <ele>894</ele>
        <time>2020-10-28T12:56:11.508Z</time>
      </trkpt>
      <trkpt lat="48.07717" lon="6.84352">
        <ele>894</ele>
        <time>2020-10-28T12:56:12.508Z</time>
      </trkpt>
      <trkpt lat="48.07718" lon="6.84351">
        <ele>893</ele>
        <time>2020-10-28T12:56:13.508Z</time>
      </trkpt>
      <trkpt lat="48.07718" lon="6.84349">
        <ele>893</ele>
        <time>2020-10-28T12:56:14.508Z</time>
      </trkpt>
      <trkpt lat="48.07719" lon="6.84347">
        <ele>893</ele>
        <time>2020-10-28T12:56:15.508Z</time>
      </trkpt>
      <trkpt lat="48.07719" lon="6.84347">
        <ele>893</ele>
        <time>2020-10-28T12:56:16.508Z</time>
      </trkpt>
      <trkpt lat="48.07719" lon="6.84347">
        <ele>893</ele>
        <time>2020-10-28T12:56:17.507Z</time>
      </trkpt>
      <trkpt lat="48.0772" lon="6.84346">
        <ele>893</ele>
        <time>2020-10-28T12:56:18.507Z</time>
      </trkpt>
      <trkpt lat="48.07721" lon="6.84345">
        <ele>893</ele>
        <time>2020-10-28T12:56:19.508Z</time>
      </trkpt>
      <trkpt lat="48.07721" lon="6.84344">
        <ele>893</ele>
        <time>2020-10-28T12:56:20.507Z</time>
      </trkpt>
      <trkpt lat="48.07722" lon="6.84343">
        <ele>893</ele>
        <time>2020-10-28T12:56:21.507Z</time>
      </trkpt>
      <trkpt lat="48.07722" lon="6.84342">
        <ele>894</ele>
        <time>2020-10-28T12:56:22.508Z</time>
      </trkpt>
      <trkpt lat="48.07723" lon="6.84341">
        <ele>894</ele>
        <time>2020-10-28T12:56:23.507Z</time>
      </trkpt>
      <trkpt lat="48.07723" lon="6.8434">
        <ele>894</ele>
        <time>2020-10-28T12:56:24.507Z</time>
      </trkpt>
      <trkpt lat="48.07723" lon="6.84338">
        <ele>894</ele>
        <time>2020-10-28T12:56:25.508Z</time>
      </trkpt>
      <trkpt lat="48.07724" lon="6.84336">
        <ele>894</ele>
        <time>2020-10-28T12:56:26.507Z</time>
      </trkpt>
      <trkpt lat="48.07724" lon="6.84335">
        <ele>894</ele>
        <time>2020-10-28T12:56:27.508Z</time>
      </trkpt>
      <trkpt lat="48.07725" lon="6.84334">
        <ele>894</ele>
        <time>2020-10-28T12:56:28.508Z</time>
      </trkpt>
      <trkpt lat="48.07725" lon="6.84333">
        <ele>894</ele>
        <time>2020-10-28T12:56:29.507Z</time>
      </trkpt>
      <trkpt lat="48.07726" lon="6.84333">
        <ele>894</ele>
        <time>2020-10-28T12:56:30.508Z</time>
      </trkpt>
      <trkpt lat="48.07726" lon="6.84333">
        <ele>894</ele>
        <time>2020-10-28T12:56:31.508Z</time>
      </trkpt>
      <trkpt lat="48.07727" lon="6.84332">
        <ele>894</ele>
        <time>2020-10-28T12:56:32.508Z</time>
      </trkpt>
      <trkpt lat="48.07727" lon="6.84331">
        <ele>894</ele>
        <time>2020-10-28T12:56:33.507Z</time>
      </trkpt>
      <trkpt lat="48.07727" lon="6.8433">
        <ele>894</ele>
        <time>2020-10-28T12:56:34.508Z</time>
      </trkpt>
      <trkpt lat="48.07727" lon="6.84329">
        <ele>893</ele>
        <time>2020-10-28T12:56:35.508Z</time>
      </trkpt>
      <trkpt lat="48.07727" lon="6.84328">
        <ele>893</ele>
        <time>2020-10-28T12:56:36.507Z</time>
      </trkpt>
      <trkpt lat="48.07728" lon="6.84327">
        <ele>893</ele>
        <time>2020-10-28T12:56:37.508Z</time>
      </trkpt>
      <trkpt lat="48.07728" lon="6.84326">
        <ele>893</ele>
        <time>2020-10-28T12:56:38.507Z</time>
      </trkpt>
      <trkpt lat="48.07728" lon="6.84325">
        <ele>893</ele>
        <time>2020-10-28T12:56:39.507Z</time>
      </trkpt>
      <trkpt lat="48.07729" lon="6.84323">
        <ele>893</ele>
        <time>2020-10-28T12:56:40.508Z</time>
      </trkpt>
      <trkpt lat="48.07729" lon="6.84322">
        <ele>893</ele>
        <time>2020-10-28T12:56:41.508Z</time>
      </trkpt>
      <trkpt lat="48.0773" lon="6.8432">
        <ele>893</ele>
        <time>2020-10-28T12:56:42.508Z</time>
      </trkpt>
      <trkpt lat="48.07731" lon="6.84318">
        <ele>893</ele>
        <time>2020-10-28T12:56:43.507Z</time>
      </trkpt>
      <trkpt lat="48.07731" lon="6.84317">
        <ele>893</ele>
        <time>2020-10-28T12:56:44.508Z</time>
      </trkpt>
      <trkpt lat="48.07732" lon="6.84315">
        <ele>894</ele>
        <time>2020-10-28T12:56:45.507Z</time>
      </trkpt>
      <trkpt lat="48.07732" lon="6.84314">
        <ele>894</ele>
        <time>2020-10-28T12:56:46.507Z</time>
      </trkpt>
      <trkpt lat="48.07733" lon="6.84314">
        <ele>894</ele>
        <time>2020-10-28T12:56:47.508Z</time>
      </trkpt>
      <trkpt lat="48.07734" lon="6.84313">
        <ele>895</ele>
        <time>2020-10-28T12:56:48.507Z</time>
      </trkpt>
      <trkpt lat="48.07734" lon="6.84312">
        <ele>895</ele>
        <time>2020-10-28T12:56:49.508Z</time>
      </trkpt>
      <trkpt lat="48.07734" lon="6.8431">
        <ele>895</ele>
        <time>2020-10-28T12:56:50.507Z</time>
      </trkpt>
      <trkpt lat="48.07734" lon="6.84309">
        <ele>896</ele>
        <time>2020-10-28T12:56:51.508Z</time>
      </trkpt>
      <trkpt lat="48.07735" lon="6.84307">
        <ele>896</ele>
        <time>2020-10-28T12:56:52.507Z</time>
      </trkpt>
      <trkpt lat="48.07735" lon="6.84305">
        <ele>897</ele>
        <time>2020-10-28T12:56:53.508Z</time>
      </trkpt>
      <trkpt lat="48.07735" lon="6.84303">
        <ele>897</ele>
        <time>2020-10-28T12:56:54.508Z</time>
      </trkpt>
      <trkpt lat="48.07737" lon="6.84301">
        <ele>898</ele>
        <time>2020-10-28T12:56:55.508Z</time>
      </trkpt>
      <trkpt lat="48.07738" lon="6.843">
        <ele>899</ele>
        <time>2020-10-28T12:56:56.508Z</time>
      </trkpt>
      <trkpt lat="48.07739" lon="6.84299">
        <ele>899</ele>
        <time>2020-10-28T12:56:57.508Z</time>
      </trkpt>
      <trkpt lat="48.0774" lon="6.84297">
        <ele>899</ele>
        <time>2020-10-28T12:56:58.508Z</time>
      </trkpt>
      <trkpt lat="48.07741" lon="6.84297">
        <ele>899</ele>
        <time>2020-10-28T12:56:59.508Z</time>
      </trkpt>
      <trkpt lat="48.07742" lon="6.84296">
        <ele>899</ele>
        <time>2020-10-28T12:57:00.508Z</time>
      </trkpt>
      <trkpt lat="48.07743" lon="6.84294">
        <ele>900</ele>
        <time>2020-10-28T12:57:01.508Z</time>
      </trkpt>
      <trkpt lat="48.07743" lon="6.84293">
        <ele>901</ele>
        <time>2020-10-28T12:57:04.620Z</time>
      </trkpt>
      <trkpt lat="48.07744" lon="6.84293">
        <ele>901</ele>
        <time>2020-10-28T12:57:05.620Z</time>
      </trkpt>
      <trkpt lat="48.07745" lon="6.84292">
        <ele>902</ele>
        <time>2020-10-28T12:57:06.621Z</time>
      </trkpt>
      <trkpt lat="48.07746" lon="6.84291">
        <ele>903</ele>
        <time>2020-10-28T12:57:12.736Z</time>
      </trkpt>
      <trkpt lat="48.07746" lon="6.84291">
        <ele>904</ele>
        <time>2020-10-28T12:57:13.737Z</time>
      </trkpt>
      <trkpt lat="48.07747" lon="6.8429">
        <ele>904</ele>
        <time>2020-10-28T12:57:14.736Z</time>
      </trkpt>
      <trkpt lat="48.07748" lon="6.84288">
        <ele>905</ele>
        <time>2020-10-28T12:57:15.737Z</time>
      </trkpt>
      <trkpt lat="48.07749" lon="6.84287">
        <ele>905</ele>
        <time>2020-10-28T12:57:16.737Z</time>
      </trkpt>
      <trkpt lat="48.0775" lon="6.84286">
        <ele>905</ele>
        <time>2020-10-28T12:57:17.736Z</time>
      </trkpt>
      <trkpt lat="48.0775" lon="6.84285">
        <ele>906</ele>
        <time>2020-10-28T12:57:18.737Z</time>
      </trkpt>
      <trkpt lat="48.07751" lon="6.84284">
        <ele>906</ele>
        <time>2020-10-28T12:57:19.737Z</time>
      </trkpt>
      <trkpt lat="48.07752" lon="6.84283">
        <ele>906</ele>
        <time>2020-10-28T12:57:20.737Z</time>
      </trkpt>
      <trkpt lat="48.07753" lon="6.84283">
        <ele>907</ele>
        <time>2020-10-28T12:57:21.737Z</time>
      </trkpt>
      <trkpt lat="48.07754" lon="6.84282">
        <ele>907</ele>
        <time>2020-10-28T12:57:22.737Z</time>
      </trkpt>
      <trkpt lat="48.07755" lon="6.84282">
        <ele>908</ele>
        <time>2020-10-28T12:57:23.737Z</time>
      </trkpt>
      <trkpt lat="48.07755" lon="6.84281">
        <ele>908</ele>
        <time>2020-10-28T12:57:24.737Z</time>
      </trkpt>
      <trkpt lat="48.07756" lon="6.8428">
        <ele>908</ele>
        <time>2020-10-28T12:57:25.736Z</time>
      </trkpt>
      <trkpt lat="48.07757" lon="6.8428">
        <ele>908</ele>
        <time>2020-10-28T12:57:26.737Z</time>
      </trkpt>
      <trkpt lat="48.07758" lon="6.84279">
        <ele>908</ele>
        <time>2020-10-28T12:57:27.737Z</time>
      </trkpt>
      <trkpt lat="48.07759" lon="6.84278">
        <ele>908</ele>
        <time>2020-10-28T12:57:28.736Z</time>
      </trkpt>
      <trkpt lat="48.0776" lon="6.84277">
        <ele>908</ele>
        <time>2020-10-28T12:57:29.737Z</time>
      </trkpt>
      <trkpt lat="48.07762" lon="6.84276">
        <ele>908</ele>
        <time>2020-10-28T12:57:30.737Z</time>
      </trkpt>
      <trkpt lat="48.07763" lon="6.84276">
        <ele>907</ele>
        <time>2020-10-28T12:57:31.737Z</time>
      </trkpt>
      <trkpt lat="48.07764" lon="6.84275">
        <ele>907</ele>
        <time>2020-10-28T12:57:32.737Z</time>
      </trkpt>
      <trkpt lat="48.07764" lon="6.84274">
        <ele>908</ele>
        <time>2020-10-28T12:57:33.736Z</time>
      </trkpt>
      <trkpt lat="48.07765" lon="6.84273">
        <ele>908</ele>
        <time>2020-10-28T12:57:34.736Z</time>
      </trkpt>
      <trkpt lat="48.07766" lon="6.84273">
        <ele>908</ele>
        <time>2020-10-28T12:57:35.737Z</time>
      </trkpt>
      <trkpt lat="48.07766" lon="6.84273">
        <ele>908</ele>
        <time>2020-10-28T12:57:36.737Z</time>
      </trkpt>
      <trkpt lat="48.07767" lon="6.84272">
        <ele>908</ele>
        <time>2020-10-28T12:57:37.737Z</time>
      </trkpt>
      <trkpt lat="48.07768" lon="6.84272">
        <ele>908</ele>
        <time>2020-10-28T12:57:38.737Z</time>
      </trkpt>
      <trkpt lat="48.07769" lon="6.84271">
        <ele>908</ele>
        <time>2020-10-28T12:57:39.736Z</time>
      </trkpt>
      <trkpt lat="48.0777" lon="6.84271">
        <ele>908</ele>
        <time>2020-10-28T12:57:40.736Z</time>
      </trkpt>
      <trkpt lat="48.0777" lon="6.84271">
        <ele>908</ele>
        <time>2020-10-28T12:57:41.736Z</time>
      </trkpt>
      <trkpt lat="48.07771" lon="6.8427">
        <ele>909</ele>
        <time>2020-10-28T12:57:42.736Z</time>
      </trkpt>
      <trkpt lat="48.07772" lon="6.8427">
        <ele>909</ele>
        <time>2020-10-28T12:57:43.737Z</time>
      </trkpt>
      <trkpt lat="48.07773" lon="6.84269">
        <ele>909</ele>
        <time>2020-10-28T12:57:44.737Z</time>
      </trkpt>
      <trkpt lat="48.07774" lon="6.84267">
        <ele>909</ele>
        <time>2020-10-28T12:57:45.737Z</time>
      </trkpt>
      <trkpt lat="48.07775" lon="6.84266">
        <ele>908</ele>
        <time>2020-10-28T12:57:46.737Z</time>
      </trkpt>
      <trkpt lat="48.07775" lon="6.84265">
        <ele>908</ele>
        <time>2020-10-28T12:57:47.736Z</time>
      </trkpt>
      <trkpt lat="48.07776" lon="6.84264">
        <ele>908</ele>
        <time>2020-10-28T12:57:48.737Z</time>
      </trkpt>
      <trkpt lat="48.07776" lon="6.84262">
        <ele>907</ele>
        <time>2020-10-28T12:57:49.737Z</time>
      </trkpt>
      <trkpt lat="48.07776" lon="6.84261">
        <ele>907</ele>
        <time>2020-10-28T12:57:50.737Z</time>
      </trkpt>
      <trkpt lat="48.07776" lon="6.84261">
        <ele>906</ele>
        <time>2020-10-28T12:57:51.737Z</time>
      </trkpt>
      <trkpt lat="48.07776" lon="6.8426">
        <ele>905</ele>
        <time>2020-10-28T12:57:52.737Z</time>
      </trkpt>
      <trkpt lat="48.07775" lon="6.84259">
        <ele>904</ele>
        <time>2020-10-28T12:57:53.737Z</time>
      </trkpt>
      <trkpt lat="48.07774" lon="6.84259">
        <ele>904</ele>
        <time>2020-10-28T12:57:54.736Z</time>
      </trkpt>
      <trkpt lat="48.07773" lon="6.84258">
        <ele>903</ele>
        <time>2020-10-28T12:57:55.736Z</time>
      </trkpt>
      <trkpt lat="48.07772" lon="6.84258">
        <ele>903</ele>
        <time>2020-10-28T12:57:56.736Z</time>
      </trkpt>
      <trkpt lat="48.07772" lon="6.84257">
        <ele>902</ele>
        <time>2020-10-28T12:58:07.734Z</time>
      </trkpt>
      <trkpt lat="48.07772" lon="6.84255">
        <ele>902</ele>
        <time>2020-10-28T12:58:08.735Z</time>
      </trkpt>
      <trkpt lat="48.07772" lon="6.84254">
        <ele>902</ele>
        <time>2020-10-28T12:58:09.735Z</time>
      </trkpt>
      <trkpt lat="48.07771" lon="6.84253">
        <ele>902</ele>
        <time>2020-10-28T12:58:10.734Z</time>
      </trkpt>
      <trkpt lat="48.07771" lon="6.84251">
        <ele>901</ele>
        <time>2020-10-28T12:58:11.734Z</time>
      </trkpt>
      <trkpt lat="48.07771" lon="6.84251">
        <ele>901</ele>
        <time>2020-10-28T12:58:44.871Z</time>
      </trkpt>
      <trkpt lat="48.0777" lon="6.8425">
        <ele>901</ele>
        <time>2020-10-28T12:58:45.871Z</time>
      </trkpt>
      <trkpt lat="48.07769" lon="6.8425">
        <ele>901</ele>
        <time>2020-10-28T12:58:46.871Z</time>
      </trkpt>
      <trkpt lat="48.07769" lon="6.8425">
        <ele>900</ele>
        <time>2020-10-28T12:58:47.872Z</time>
      </trkpt>
      <trkpt lat="48.07768" lon="6.84249">
        <ele>900</ele>
        <time>2020-10-28T12:58:48.872Z</time>
      </trkpt>
      <trkpt lat="48.07768" lon="6.84249">
        <ele>900</ele>
        <time>2020-10-28T12:58:49.872Z</time>
      </trkpt>
      <trkpt lat="48.07767" lon="6.84247">
        <ele>900</ele>
        <time>2020-10-28T12:58:50.872Z</time>
      </trkpt>
      <trkpt lat="48.07766" lon="6.84246">
        <ele>901</ele>
        <time>2020-10-28T12:58:51.872Z</time>
      </trkpt>
      <trkpt lat="48.07766" lon="6.84246">
        <ele>901</ele>
        <time>2020-10-28T12:58:52.871Z</time>
      </trkpt>
      <trkpt lat="48.07765" lon="6.84246">
        <ele>901</ele>
        <time>2020-10-28T12:58:53.872Z</time>
      </trkpt>
      <trkpt lat="48.07765" lon="6.84245">
        <ele>902</ele>
        <time>2020-10-28T12:58:54.872Z</time>
      </trkpt>
      <trkpt lat="48.07765" lon="6.84245">
        <ele>902</ele>
        <time>2020-10-28T12:58:55.872Z</time>
      </trkpt>
      <trkpt lat="48.07764" lon="6.84244">
        <ele>902</ele>
        <time>2020-10-28T12:58:56.871Z</time>
      </trkpt>
      <trkpt lat="48.07764" lon="6.84244">
        <ele>902</ele>
        <time>2020-10-28T12:58:57.872Z</time>
      </trkpt>
      <trkpt lat="48.07763" lon="6.84243">
        <ele>902</ele>
        <time>2020-10-28T12:58:58.872Z</time>
      </trkpt>
      <trkpt lat="48.07762" lon="6.84242">
        <ele>902</ele>
        <time>2020-10-28T12:58:59.872Z</time>
      </trkpt>
      <trkpt lat="48.07762" lon="6.84241">
        <ele>902</ele>
        <time>2020-10-28T12:59:00.872Z</time>
      </trkpt>
      <trkpt lat="48.07761" lon="6.84239">
        <ele>901</ele>
        <time>2020-10-28T12:59:01.872Z</time>
      </trkpt>
      <trkpt lat="48.07761" lon="6.84237">
        <ele>901</ele>
        <time>2020-10-28T12:59:02.872Z</time>
      </trkpt>
      <trkpt lat="48.07761" lon="6.84236">
        <ele>901</ele>
        <time>2020-10-28T12:59:03.872Z</time>
      </trkpt>
      <trkpt lat="48.0776" lon="6.84234">
        <ele>901</ele>
        <time>2020-10-28T12:59:04.871Z</time>
      </trkpt>
      <trkpt lat="48.0776" lon="6.84233">
        <ele>901</ele>
        <time>2020-10-28T12:59:05.872Z</time>
      </trkpt>
      <trkpt lat="48.07759" lon="6.84232">
        <ele>901</ele>
        <time>2020-10-28T12:59:06.872Z</time>
      </trkpt>
      <trkpt lat="48.07759" lon="6.84231">
        <ele>900</ele>
        <time>2020-10-28T12:59:07.871Z</time>
      </trkpt>
      <trkpt lat="48.07759" lon="6.8423">
        <ele>900</ele>
        <time>2020-10-28T12:59:08.872Z</time>
      </trkpt>
      <trkpt lat="48.07759" lon="6.84228">
        <ele>900</ele>
        <time>2020-10-28T12:59:09.872Z</time>
      </trkpt>
      <trkpt lat="48.07759" lon="6.84226">
        <ele>900</ele>
        <time>2020-10-28T12:59:10.872Z</time>
      </trkpt>
      <trkpt lat="48.07758" lon="6.84225">
        <ele>899</ele>
        <time>2020-10-28T12:59:11.871Z</time>
      </trkpt>
      <trkpt lat="48.07758" lon="6.84223">
        <ele>899</ele>
        <time>2020-10-28T12:59:12.872Z</time>
      </trkpt>
      <trkpt lat="48.07758" lon="6.84222">
        <ele>899</ele>
        <time>2020-10-28T12:59:13.871Z</time>
      </trkpt>
      <trkpt lat="48.07759" lon="6.8422">
        <ele>899</ele>
        <time>2020-10-28T12:59:14.872Z</time>
      </trkpt>
      <trkpt lat="48.07759" lon="6.84219">
        <ele>899</ele>
        <time>2020-10-28T12:59:15.871Z</time>
      </trkpt>
      <trkpt lat="48.07759" lon="6.84218">
        <ele>899</ele>
        <time>2020-10-28T12:59:16.872Z</time>
      </trkpt>
      <trkpt lat="48.0776" lon="6.84217">
        <ele>898</ele>
        <time>2020-10-28T12:59:17.872Z</time>
      </trkpt>
      <trkpt lat="48.0776" lon="6.84216">
        <ele>898</ele>
        <time>2020-10-28T12:59:18.872Z</time>
      </trkpt>
      <trkpt lat="48.07761" lon="6.84215">
        <ele>897</ele>
        <time>2020-10-28T12:59:19.872Z</time>
      </trkpt>
      <trkpt lat="48.07762" lon="6.84215">
        <ele>896</ele>
        <time>2020-10-28T12:59:20.871Z</time>
      </trkpt>
      <trkpt lat="48.07762" lon="6.84215">
        <ele>895</ele>
        <time>2020-10-28T12:59:21.872Z</time>
      </trkpt>
      <trkpt lat="48.07762" lon="6.84214">
        <ele>895</ele>
        <time>2020-10-28T12:59:22.872Z</time>
      </trkpt>
      <trkpt lat="48.07763" lon="6.84214">
        <ele>894</ele>
        <time>2020-10-28T12:59:23.872Z</time>
      </trkpt>
      <trkpt lat="48.07763" lon="6.84213">
        <ele>894</ele>
        <time>2020-10-28T12:59:24.872Z</time>
      </trkpt>
      <trkpt lat="48.07763" lon="6.84212">
        <ele>893</ele>
        <time>2020-10-28T12:59:25.872Z</time>
      </trkpt>
      <trkpt lat="48.07763" lon="6.84211">
        <ele>892</ele>
        <time>2020-10-28T12:59:26.872Z</time>
      </trkpt>
      <trkpt lat="48.07763" lon="6.8421">
        <ele>892</ele>
        <time>2020-10-28T12:59:27.872Z</time>
      </trkpt>
      <trkpt lat="48.07763" lon="6.84208">
        <ele>891</ele>
        <time>2020-10-28T12:59:28.872Z</time>
      </trkpt>
      <trkpt lat="48.07763" lon="6.84207">
        <ele>891</ele>
        <time>2020-10-28T12:59:29.871Z</time>
      </trkpt>
      <trkpt lat="48.07763" lon="6.84206">
        <ele>890</ele>
        <time>2020-10-28T12:59:30.872Z</time>
      </trkpt>
      <trkpt lat="48.07764" lon="6.84205">
        <ele>890</ele>
        <time>2020-10-28T12:59:31.872Z</time>
      </trkpt>
      <trkpt lat="48.07764" lon="6.84204">
        <ele>890</ele>
        <time>2020-10-28T12:59:32.871Z</time>
      </trkpt>
      <trkpt lat="48.07765" lon="6.84203">
        <ele>890</ele>
        <time>2020-10-28T13:00:42.007Z</time>
      </trkpt>
      <trkpt lat="48.07765" lon="6.84203">
        <ele>890</ele>
        <time>2020-10-28T13:00:50.864Z</time>
      </trkpt>
      <trkpt lat="48.07766" lon="6.84202">
        <ele>890</ele>
        <time>2020-10-28T13:00:51.863Z</time>
      </trkpt>
      <trkpt lat="48.07766" lon="6.84201">
        <ele>891</ele>
        <time>2020-10-28T13:00:52.863Z</time>
      </trkpt>
      <trkpt lat="48.07766" lon="6.84199">
        <ele>891</ele>
        <time>2020-10-28T13:00:53.863Z</time>
      </trkpt>
      <trkpt lat="48.07766" lon="6.84198">
        <ele>891</ele>
        <time>2020-10-28T13:00:58.011Z</time>
      </trkpt>
      <trkpt lat="48.07766" lon="6.84198">
        <ele>891</ele>
        <time>2020-10-28T13:00:59.011Z</time>
      </trkpt>
      <trkpt lat="48.07766" lon="6.84197">
        <ele>891</ele>
        <time>2020-10-28T13:01:48.892Z</time>
      </trkpt>
      <trkpt lat="48.07766" lon="6.84196">
        <ele>890</ele>
        <time>2020-10-28T13:01:49.892Z</time>
      </trkpt>
      <trkpt lat="48.07766" lon="6.84195">
        <ele>890</ele>
        <time>2020-10-28T13:01:50.891Z</time>
      </trkpt>
      <trkpt lat="48.07766" lon="6.84194">
        <ele>890</ele>
        <time>2020-10-28T13:01:51.892Z</time>
      </trkpt>
      <trkpt lat="48.07767" lon="6.84193">
        <ele>890</ele>
        <time>2020-10-28T13:01:52.892Z</time>
      </trkpt>
      <trkpt lat="48.07767" lon="6.84192">
        <ele>889</ele>
        <time>2020-10-28T13:01:53.892Z</time>
      </trkpt>
      <trkpt lat="48.07767" lon="6.84191">
        <ele>889</ele>
        <time>2020-10-28T13:01:54.891Z</time>
      </trkpt>
      <trkpt lat="48.07767" lon="6.84191">
        <ele>889</ele>
        <time>2020-10-28T13:01:55.891Z</time>
      </trkpt>
      <trkpt lat="48.07767" lon="6.84191">
        <ele>889</ele>
        <time>2020-10-28T13:01:56.892Z</time>
      </trkpt>
      <trkpt lat="48.07767" lon="6.84189">
        <ele>888</ele>
        <time>2020-10-28T13:01:57.892Z</time>
      </trkpt>
      <trkpt lat="48.07767" lon="6.84189">
        <ele>889</ele>
        <time>2020-10-28T13:01:58.892Z</time>
      </trkpt>
      <trkpt lat="48.07767" lon="6.84187">
        <ele>892</ele>
        <time>2020-10-28T13:01:59.892Z</time>
      </trkpt>
      <trkpt lat="48.07767" lon="6.84186">
        <ele>892</ele>
        <time>2020-10-28T13:02:00.892Z</time>
      </trkpt>
      <trkpt lat="48.07767" lon="6.84185">
        <ele>893</ele>
        <time>2020-10-28T13:02:01.891Z</time>
      </trkpt>
      <trkpt lat="48.07767" lon="6.84185">
        <ele>894</ele>
        <time>2020-10-28T13:02:02.892Z</time>
      </trkpt>
      <trkpt lat="48.07766" lon="6.84184">
        <ele>894</ele>
        <time>2020-10-28T13:02:03.892Z</time>
      </trkpt>
      <trkpt lat="48.07767" lon="6.84184">
        <ele>898</ele>
        <time>2020-10-28T13:02:04.892Z</time>
      </trkpt>
      <trkpt lat="48.07767" lon="6.84192">
        <ele>900</ele>
        <time>2020-10-28T13:02:05.894Z</time>
      </trkpt>
      <trkpt lat="48.07767" lon="6.84194">
        <ele>900</ele>
        <time>2020-10-28T13:02:06.893Z</time>
      </trkpt>
      <trkpt lat="48.07769" lon="6.84204">
        <ele>901</ele>
        <time>2020-10-28T13:02:07.893Z</time>
      </trkpt>
      <trkpt lat="48.0777" lon="6.84204">
        <ele>900</ele>
        <time>2020-10-28T13:02:09.975Z</time>
      </trkpt>
      <trkpt lat="48.07771" lon="6.84205">
        <ele>900</ele>
        <time>2020-10-28T13:02:10.974Z</time>
      </trkpt>
      <trkpt lat="48.07772" lon="6.84204">
        <ele>899</ele>
        <time>2020-10-28T13:02:11.975Z</time>
      </trkpt>
      <trkpt lat="48.07773" lon="6.84204">
        <ele>899</ele>
        <time>2020-10-28T13:02:12.975Z</time>
      </trkpt>
      <trkpt lat="48.07774" lon="6.84204">
        <ele>899</ele>
        <time>2020-10-28T13:02:13.975Z</time>
      </trkpt>
      <trkpt lat="48.07775" lon="6.84204">
        <ele>899</ele>
        <time>2020-10-28T13:02:14.975Z</time>
      </trkpt>
      <trkpt lat="48.07776" lon="6.84204">
        <ele>898</ele>
        <time>2020-10-28T13:02:15.975Z</time>
      </trkpt>
      <trkpt lat="48.07776" lon="6.84203">
        <ele>898</ele>
        <time>2020-10-28T13:02:16.975Z</time>
      </trkpt>
      <trkpt lat="48.07777" lon="6.84203">
        <ele>897</ele>
        <time>2020-10-28T13:02:17.975Z</time>
      </trkpt>
      <trkpt lat="48.07778" lon="6.84202">
        <ele>897</ele>
        <time>2020-10-28T13:02:18.974Z</time>
      </trkpt>
      <trkpt lat="48.07779" lon="6.84201">
        <ele>897</ele>
        <time>2020-10-28T13:02:19.975Z</time>
      </trkpt>
      <trkpt lat="48.07779" lon="6.84201">
        <ele>896</ele>
        <time>2020-10-28T13:02:20.974Z</time>
      </trkpt>
      <trkpt lat="48.07779" lon="6.84201">
        <ele>895</ele>
        <time>2020-10-28T13:02:21.974Z</time>
      </trkpt>
      <trkpt lat="48.0778" lon="6.842">
        <ele>895</ele>
        <time>2020-10-28T13:02:22.975Z</time>
      </trkpt>
      <trkpt lat="48.0778" lon="6.842">
        <ele>894</ele>
        <time>2020-10-28T13:02:23.975Z</time>
      </trkpt>
      <trkpt lat="48.07781" lon="6.84199">
        <ele>893</ele>
        <time>2020-10-28T13:02:24.975Z</time>
      </trkpt>
      <trkpt lat="48.07781" lon="6.84198">
        <ele>892</ele>
        <time>2020-10-28T13:02:25.975Z</time>
      </trkpt>
      <trkpt lat="48.07782" lon="6.84198">
        <ele>891</ele>
        <time>2020-10-28T13:02:26.975Z</time>
      </trkpt>
      <trkpt lat="48.07782" lon="6.84198">
        <ele>890</ele>
        <time>2020-10-28T13:02:27.974Z</time>
      </trkpt>
      <trkpt lat="48.07783" lon="6.84199">
        <ele>890</ele>
        <time>2020-10-28T13:02:28.974Z</time>
      </trkpt>
      <trkpt lat="48.07783" lon="6.84199">
        <ele>890</ele>
        <time>2020-10-28T13:02:29.974Z</time>
      </trkpt>
      <trkpt lat="48.07784" lon="6.84199">
        <ele>889</ele>
        <time>2020-10-28T13:02:30.975Z</time>
      </trkpt>
      <trkpt lat="48.07785" lon="6.84199">
        <ele>889</ele>
        <time>2020-10-28T13:02:31.975Z</time>
      </trkpt>
      <trkpt lat="48.07786" lon="6.84197">
        <ele>889</ele>
        <time>2020-10-28T13:02:32.975Z</time>
      </trkpt>
      <trkpt lat="48.07787" lon="6.84196">
        <ele>888</ele>
        <time>2020-10-28T13:02:33.974Z</time>
      </trkpt>
      <trkpt lat="48.07788" lon="6.84193">
        <ele>888</ele>
        <time>2020-10-28T13:02:34.974Z</time>
      </trkpt>
      <trkpt lat="48.07789" lon="6.84193">
        <ele>888</ele>
        <time>2020-10-28T13:02:35.975Z</time>
      </trkpt>
      <trkpt lat="48.0779" lon="6.84193">
        <ele>888</ele>
        <time>2020-10-28T13:02:36.975Z</time>
      </trkpt>
      <trkpt lat="48.07792" lon="6.84194">
        <ele>888</ele>
        <time>2020-10-28T13:02:37.975Z</time>
      </trkpt>
      <trkpt lat="48.07793" lon="6.84196">
        <ele>888</ele>
        <time>2020-10-28T13:02:38.975Z</time>
      </trkpt>
      <trkpt lat="48.07794" lon="6.84197">
        <ele>889</ele>
        <time>2020-10-28T13:02:39.975Z</time>
      </trkpt>
      <trkpt lat="48.07795" lon="6.84199">
        <ele>889</ele>
        <time>2020-10-28T13:02:40.974Z</time>
      </trkpt>
      <trkpt lat="48.07796" lon="6.84201">
        <ele>890</ele>
        <time>2020-10-28T13:02:41.975Z</time>
      </trkpt>
      <trkpt lat="48.07796" lon="6.84202">
        <ele>891</ele>
        <time>2020-10-28T13:02:42.975Z</time>
      </trkpt>
      <trkpt lat="48.07797" lon="6.84203">
        <ele>891</ele>
        <time>2020-10-28T13:02:43.975Z</time>
      </trkpt>
      <trkpt lat="48.07797" lon="6.84204">
        <ele>892</ele>
        <time>2020-10-28T13:02:44.974Z</time>
      </trkpt>
      <trkpt lat="48.07798" lon="6.84205">
        <ele>893</ele>
        <time>2020-10-28T13:02:45.975Z</time>
      </trkpt>
      <trkpt lat="48.07798" lon="6.84206">
        <ele>893</ele>
        <time>2020-10-28T13:02:46.975Z</time>
      </trkpt>
      <trkpt lat="48.07798" lon="6.84207">
        <ele>894</ele>
        <time>2020-10-28T13:02:47.974Z</time>
      </trkpt>
      <trkpt lat="48.07799" lon="6.84208">
        <ele>895</ele>
        <time>2020-10-28T13:02:48.974Z</time>
      </trkpt>
      <trkpt lat="48.07799" lon="6.84209">
        <ele>895</ele>
        <time>2020-10-28T13:02:49.975Z</time>
      </trkpt>
      <trkpt lat="48.07799" lon="6.8421">
        <ele>896</ele>
        <time>2020-10-28T13:02:50.975Z</time>
      </trkpt>
      <trkpt lat="48.078" lon="6.8421">
        <ele>897</ele>
        <time>2020-10-28T13:02:51.975Z</time>
      </trkpt>
      <trkpt lat="48.078" lon="6.84211">
        <ele>898</ele>
        <time>2020-10-28T13:02:52.974Z</time>
      </trkpt>
      <trkpt lat="48.07802" lon="6.84212">
        <ele>898</ele>
        <time>2020-10-28T13:02:53.975Z</time>
      </trkpt>
      <trkpt lat="48.07803" lon="6.84214">
        <ele>899</ele>
        <time>2020-10-28T13:02:54.975Z</time>
      </trkpt>
      <trkpt lat="48.07805" lon="6.84217">
        <ele>899</ele>
        <time>2020-10-28T13:02:55.975Z</time>
      </trkpt>
      <trkpt lat="48.07806" lon="6.84218">
        <ele>900</ele>
        <time>2020-10-28T13:02:56.975Z</time>
      </trkpt>
      <trkpt lat="48.07807" lon="6.84219">
        <ele>900</ele>
        <time>2020-10-28T13:02:57.975Z</time>
      </trkpt>
      <trkpt lat="48.07807" lon="6.84219">
        <ele>901</ele>
        <time>2020-10-28T13:02:58.975Z</time>
      </trkpt>
      <trkpt lat="48.07807" lon="6.8422">
        <ele>901</ele>
        <time>2020-10-28T13:02:59.975Z</time>
      </trkpt>
      <trkpt lat="48.07807" lon="6.84219">
        <ele>901</ele>
        <time>2020-10-28T13:03:00.974Z</time>
      </trkpt>
      <trkpt lat="48.07807" lon="6.8422">
        <ele>902</ele>
        <time>2020-10-28T13:03:01.975Z</time>
      </trkpt>
      <trkpt lat="48.07807" lon="6.8422">
        <ele>902</ele>
        <time>2020-10-28T13:03:02.975Z</time>
      </trkpt>
      <trkpt lat="48.07806" lon="6.84221">
        <ele>902</ele>
        <time>2020-10-28T13:03:03.974Z</time>
      </trkpt>
      <trkpt lat="48.07806" lon="6.84221">
        <ele>902</ele>
        <time>2020-10-28T13:03:04.974Z</time>
      </trkpt>
      <trkpt lat="48.07806" lon="6.84222">
        <ele>902</ele>
        <time>2020-10-28T13:03:05.974Z</time>
      </trkpt>
      <trkpt lat="48.07807" lon="6.84223">
        <ele>902</ele>
        <time>2020-10-28T13:03:06.975Z</time>
      </trkpt>
      <trkpt lat="48.07807" lon="6.84224">
        <ele>902</ele>
        <time>2020-10-28T13:03:07.975Z</time>
      </trkpt>
      <trkpt lat="48.07808" lon="6.84225">
        <ele>902</ele>
        <time>2020-10-28T13:03:12.013Z</time>
      </trkpt>
      <trkpt lat="48.07809" lon="6.84226">
        <ele>903</ele>
        <time>2020-10-28T13:03:15.888Z</time>
      </trkpt>
      <trkpt lat="48.07809" lon="6.84227">
        <ele>904</ele>
        <time>2020-10-28T13:03:16.888Z</time>
      </trkpt>
      <trkpt lat="48.0781" lon="6.84229">
        <ele>905</ele>
        <time>2020-10-28T13:03:17.887Z</time>
      </trkpt>
      <trkpt lat="48.0781" lon="6.8423">
        <ele>905</ele>
        <time>2020-10-28T13:03:18.887Z</time>
      </trkpt>
      <trkpt lat="48.0781" lon="6.84231">
        <ele>906</ele>
        <time>2020-10-28T13:03:23.013Z</time>
      </trkpt>
      <trkpt lat="48.07811" lon="6.84231">
        <ele>907</ele>
        <time>2020-10-28T13:03:24.013Z</time>
      </trkpt>
      <trkpt lat="48.07811" lon="6.84232">
        <ele>908</ele>
        <time>2020-10-28T13:03:25.013Z</time>
      </trkpt>
      <trkpt lat="48.07812" lon="6.84233">
        <ele>909</ele>
        <time>2020-10-28T13:03:31.113Z</time>
      </trkpt>
      <trkpt lat="48.07813" lon="6.84233">
        <ele>910</ele>
        <time>2020-10-28T13:03:45.017Z</time>
      </trkpt>
      <trkpt lat="48.07815" lon="6.84234">
        <ele>911</ele>
        <time>2020-10-28T13:03:46.017Z</time>
      </trkpt>
      <trkpt lat="48.07816" lon="6.84234">
        <ele>912</ele>
        <time>2020-10-28T13:04:17.888Z</time>
      </trkpt>
      <trkpt lat="48.07817" lon="6.84233">
        <ele>912</ele>
        <time>2020-10-28T13:04:18.888Z</time>
      </trkpt>
      <trkpt lat="48.07818" lon="6.84233">
        <ele>913</ele>
        <time>2020-10-28T13:04:19.887Z</time>
      </trkpt>
      <trkpt lat="48.07819" lon="6.84233">
        <ele>914</ele>
        <time>2020-10-28T13:04:20.888Z</time>
      </trkpt>
      <trkpt lat="48.07821" lon="6.84233">
        <ele>914</ele>
        <time>2020-10-28T13:04:21.888Z</time>
      </trkpt>
      <trkpt lat="48.07822" lon="6.84233">
        <ele>914</ele>
        <time>2020-10-28T13:04:22.888Z</time>
      </trkpt>
      <trkpt lat="48.07823" lon="6.84232">
        <ele>914</ele>
        <time>2020-10-28T13:04:23.887Z</time>
      </trkpt>
      <trkpt lat="48.07824" lon="6.84232">
        <ele>914</ele>
        <time>2020-10-28T13:04:24.888Z</time>
      </trkpt>
      <trkpt lat="48.07825" lon="6.84232">
        <ele>915</ele>
        <time>2020-10-28T13:04:25.888Z</time>
      </trkpt>
      <trkpt lat="48.07826" lon="6.84231">
        <ele>915</ele>
        <time>2020-10-28T13:04:26.887Z</time>
      </trkpt>
      <trkpt lat="48.07826" lon="6.8423">
        <ele>915</ele>
        <time>2020-10-28T13:04:27.887Z</time>
      </trkpt>
      <trkpt lat="48.07827" lon="6.8423">
        <ele>914</ele>
        <time>2020-10-28T13:04:28.888Z</time>
      </trkpt>
      <trkpt lat="48.07828" lon="6.84229">
        <ele>914</ele>
        <time>2020-10-28T13:04:29.888Z</time>
      </trkpt>
      <trkpt lat="48.07829" lon="6.84228">
        <ele>914</ele>
        <time>2020-10-28T13:04:38.986Z</time>
      </trkpt>
      <trkpt lat="48.07831" lon="6.84227">
        <ele>914</ele>
        <time>2020-10-28T13:04:39.986Z</time>
      </trkpt>
      <trkpt lat="48.07832" lon="6.84226">
        <ele>913</ele>
        <time>2020-10-28T13:04:40.986Z</time>
      </trkpt>
      <trkpt lat="48.07833" lon="6.84226">
        <ele>913</ele>
        <time>2020-10-28T13:04:46.992Z</time>
      </trkpt>
      <trkpt lat="48.07834" lon="6.84225">
        <ele>913</ele>
        <time>2020-10-28T13:04:47.992Z</time>
      </trkpt>
      <trkpt lat="48.07836" lon="6.84223">
        <ele>913</ele>
        <time>2020-10-28T13:04:48.992Z</time>
      </trkpt>
      <trkpt lat="48.07837" lon="6.84222">
        <ele>913</ele>
        <time>2020-10-28T13:04:49.992Z</time>
      </trkpt>
      <trkpt lat="48.07838" lon="6.84221">
        <ele>914</ele>
        <time>2020-10-28T13:04:56.159Z</time>
      </trkpt>
      <trkpt lat="48.07839" lon="6.8422">
        <ele>913</ele>
        <time>2020-10-28T13:04:57.159Z</time>
      </trkpt>
      <trkpt lat="48.07841" lon="6.84219">
        <ele>914</ele>
        <time>2020-10-28T13:04:58.159Z</time>
      </trkpt>
      <trkpt lat="48.07842" lon="6.84219">
        <ele>914</ele>
        <time>2020-10-28T13:04:59.159Z</time>
      </trkpt>
      <trkpt lat="48.07844" lon="6.84218">
        <ele>914</ele>
        <time>2020-10-28T13:05:00.159Z</time>
      </trkpt>
      <trkpt lat="48.07845" lon="6.84217">
        <ele>914</ele>
        <time>2020-10-28T13:05:01.159Z</time>
      </trkpt>
      <trkpt lat="48.07846" lon="6.84216">
        <ele>914</ele>
        <time>2020-10-28T13:05:02.159Z</time>
      </trkpt>
      <trkpt lat="48.07847" lon="6.84214">
        <ele>915</ele>
        <time>2020-10-28T13:05:03.159Z</time>
      </trkpt>
      <trkpt lat="48.07848" lon="6.84213">
        <ele>915</ele>
        <time>2020-10-28T13:05:07.258Z</time>
      </trkpt>
      <trkpt lat="48.07849" lon="6.84212">
        <ele>916</ele>
        <time>2020-10-28T13:05:17.132Z</time>
      </trkpt>
      <trkpt lat="48.0785" lon="6.84212">
        <ele>916</ele>
        <time>2020-10-28T13:05:21.008Z</time>
      </trkpt>
      <trkpt lat="48.07851" lon="6.84211">
        <ele>916</ele>
        <time>2020-10-28T13:05:22.007Z</time>
      </trkpt>
      <trkpt lat="48.07852" lon="6.84209">
        <ele>916</ele>
        <time>2020-10-28T13:05:23.007Z</time>
      </trkpt>
      <trkpt lat="48.07853" lon="6.84209">
        <ele>916</ele>
        <time>2020-10-28T13:05:24.008Z</time>
      </trkpt>
      <trkpt lat="48.07854" lon="6.84208">
        <ele>915</ele>
        <time>2020-10-28T13:05:25.007Z</time>
      </trkpt>
      <trkpt lat="48.07855" lon="6.84207">
        <ele>915</ele>
        <time>2020-10-28T13:05:26.007Z</time>
      </trkpt>
      <trkpt lat="48.07856" lon="6.84206">
        <ele>915</ele>
        <time>2020-10-28T13:05:27.007Z</time>
      </trkpt>
      <trkpt lat="48.07858" lon="6.84205">
        <ele>914</ele>
        <time>2020-10-28T13:05:28.008Z</time>
      </trkpt>
      <trkpt lat="48.07859" lon="6.84204">
        <ele>914</ele>
        <time>2020-10-28T13:05:29.008Z</time>
      </trkpt>
      <trkpt lat="48.07861" lon="6.84203">
        <ele>915</ele>
        <time>2020-10-28T13:05:30.008Z</time>
      </trkpt>
      <trkpt lat="48.07862" lon="6.84202">
        <ele>915</ele>
        <time>2020-10-28T13:05:31.008Z</time>
      </trkpt>
      <trkpt lat="48.07863" lon="6.84202">
        <ele>915</ele>
        <time>2020-10-28T13:05:32.008Z</time>
      </trkpt>
      <trkpt lat="48.07865" lon="6.84201">
        <ele>915</ele>
        <time>2020-10-28T13:05:33.008Z</time>
      </trkpt>
      <trkpt lat="48.07866" lon="6.84199">
        <ele>914</ele>
        <time>2020-10-28T13:05:34.008Z</time>
      </trkpt>
      <trkpt lat="48.07867" lon="6.84197">
        <ele>914</ele>
        <time>2020-10-28T13:05:35.008Z</time>
      </trkpt>
      <trkpt lat="48.07867" lon="6.84196">
        <ele>913</ele>
        <time>2020-10-28T13:05:36.008Z</time>
      </trkpt>
      <trkpt lat="48.07868" lon="6.84195">
        <ele>913</ele>
        <time>2020-10-28T13:05:37.008Z</time>
      </trkpt>
      <trkpt lat="48.07869" lon="6.84194">
        <ele>913</ele>
        <time>2020-10-28T13:05:38.008Z</time>
      </trkpt>
      <trkpt lat="48.0787" lon="6.84193">
        <ele>913</ele>
        <time>2020-10-28T13:05:39.008Z</time>
      </trkpt>
      <trkpt lat="48.07871" lon="6.84192">
        <ele>913</ele>
        <time>2020-10-28T13:05:40.008Z</time>
      </trkpt>
      <trkpt lat="48.07872" lon="6.84192">
        <ele>913</ele>
        <time>2020-10-28T13:05:41.008Z</time>
      </trkpt>
      <trkpt lat="48.07874" lon="6.84192">
        <ele>913</ele>
        <time>2020-10-28T13:05:42.008Z</time>
      </trkpt>
      <trkpt lat="48.07875" lon="6.84191">
        <ele>913</ele>
        <time>2020-10-28T13:05:43.008Z</time>
      </trkpt>
      <trkpt lat="48.07876" lon="6.84191">
        <ele>912</ele>
        <time>2020-10-28T13:05:44.008Z</time>
      </trkpt>
      <trkpt lat="48.07876" lon="6.8419">
        <ele>912</ele>
        <time>2020-10-28T13:05:45.008Z</time>
      </trkpt>
      <trkpt lat="48.07877" lon="6.8419">
        <ele>912</ele>
        <time>2020-10-28T13:05:46.007Z</time>
      </trkpt>
      <trkpt lat="48.07879" lon="6.84189">
        <ele>912</ele>
        <time>2020-10-28T13:05:47.008Z</time>
      </trkpt>
      <trkpt lat="48.0788" lon="6.84187">
        <ele>912</ele>
        <time>2020-10-28T13:05:48.008Z</time>
      </trkpt>
      <trkpt lat="48.07881" lon="6.84186">
        <ele>912</ele>
        <time>2020-10-28T13:05:49.008Z</time>
      </trkpt>
      <trkpt lat="48.07881" lon="6.84186">
        <ele>912</ele>
        <time>2020-10-28T13:05:50.008Z</time>
      </trkpt>
      <trkpt lat="48.07882" lon="6.84185">
        <ele>911</ele>
        <time>2020-10-28T13:05:51.008Z</time>
      </trkpt>
      <trkpt lat="48.07884" lon="6.84184">
        <ele>911</ele>
        <time>2020-10-28T13:05:52.008Z</time>
      </trkpt>
      <trkpt lat="48.07885" lon="6.84183">
        <ele>911</ele>
        <time>2020-10-28T13:05:53.008Z</time>
      </trkpt>
      <trkpt lat="48.07886" lon="6.84182">
        <ele>910</ele>
        <time>2020-10-28T13:05:54.008Z</time>
      </trkpt>
      <trkpt lat="48.07887" lon="6.84181">
        <ele>910</ele>
        <time>2020-10-28T13:05:55.008Z</time>
      </trkpt>
      <trkpt lat="48.07889" lon="6.8418">
        <ele>910</ele>
        <time>2020-10-28T13:05:56.008Z</time>
      </trkpt>
      <trkpt lat="48.0789" lon="6.84179">
        <ele>909</ele>
        <time>2020-10-28T13:05:57.008Z</time>
      </trkpt>
      <trkpt lat="48.07891" lon="6.84178">
        <ele>909</ele>
        <time>2020-10-28T13:05:58.007Z</time>
      </trkpt>
      <trkpt lat="48.07892" lon="6.84177">
        <ele>909</ele>
        <time>2020-10-28T13:05:59.007Z</time>
      </trkpt>
      <trkpt lat="48.07893" lon="6.84176">
        <ele>909</ele>
        <time>2020-10-28T13:06:00.007Z</time>
      </trkpt>
      <trkpt lat="48.07893" lon="6.84175">
        <ele>908</ele>
        <time>2020-10-28T13:06:01.008Z</time>
      </trkpt>
      <trkpt lat="48.07894" lon="6.84174">
        <ele>907</ele>
        <time>2020-10-28T13:06:02.007Z</time>
      </trkpt>
      <trkpt lat="48.07895" lon="6.84173">
        <ele>906</ele>
        <time>2020-10-28T13:06:03.007Z</time>
      </trkpt>
      <trkpt lat="48.07896" lon="6.84172">
        <ele>905</ele>
        <time>2020-10-28T13:06:04.008Z</time>
      </trkpt>
      <trkpt lat="48.07897" lon="6.84172">
        <ele>905</ele>
        <time>2020-10-28T13:06:05.007Z</time>
      </trkpt>
      <trkpt lat="48.07897" lon="6.84171">
        <ele>904</ele>
        <time>2020-10-28T13:06:06.007Z</time>
      </trkpt>
      <trkpt lat="48.07898" lon="6.8417">
        <ele>904</ele>
        <time>2020-10-28T13:06:07.008Z</time>
      </trkpt>
      <trkpt lat="48.07898" lon="6.84169">
        <ele>903</ele>
        <time>2020-10-28T13:06:08.008Z</time>
      </trkpt>
      <trkpt lat="48.07899" lon="6.84168">
        <ele>903</ele>
        <time>2020-10-28T13:06:09.008Z</time>
      </trkpt>
      <trkpt lat="48.079" lon="6.84167">
        <ele>903</ele>
        <time>2020-10-28T13:06:10.008Z</time>
      </trkpt>
      <trkpt lat="48.079" lon="6.84166">
        <ele>902</ele>
        <time>2020-10-28T13:06:11.008Z</time>
      </trkpt>
      <trkpt lat="48.079" lon="6.84164">
        <ele>902</ele>
        <time>2020-10-28T13:06:12.008Z</time>
      </trkpt>
      <trkpt lat="48.07901" lon="6.84161">
        <ele>901</ele>
        <time>2020-10-28T13:06:13.008Z</time>
      </trkpt>
      <trkpt lat="48.07901" lon="6.84159">
        <ele>901</ele>
        <time>2020-10-28T13:06:14.008Z</time>
      </trkpt>
      <trkpt lat="48.079" lon="6.84158">
        <ele>901</ele>
        <time>2020-10-28T13:06:15.008Z</time>
      </trkpt>
      <trkpt lat="48.079" lon="6.84156">
        <ele>900</ele>
        <time>2020-10-28T13:06:16.008Z</time>
      </trkpt>
      <trkpt lat="48.079" lon="6.84155">
        <ele>900</ele>
        <time>2020-10-28T13:06:17.008Z</time>
      </trkpt>
      <trkpt lat="48.07899" lon="6.84154">
        <ele>900</ele>
        <time>2020-10-28T13:06:18.008Z</time>
      </trkpt>
      <trkpt lat="48.079" lon="6.84153">
        <ele>901</ele>
        <time>2020-10-28T13:06:19.008Z</time>
      </trkpt>
      <trkpt lat="48.079" lon="6.84152">
        <ele>901</ele>
        <time>2020-10-28T13:06:20.008Z</time>
      </trkpt>
      <trkpt lat="48.07901" lon="6.8415">
        <ele>901</ele>
        <time>2020-10-28T13:06:21.008Z</time>
      </trkpt>
      <trkpt lat="48.07901" lon="6.84147">
        <ele>901</ele>
        <time>2020-10-28T13:06:22.008Z</time>
      </trkpt>
      <trkpt lat="48.07901" lon="6.84145">
        <ele>901</ele>
        <time>2020-10-28T13:06:23.008Z</time>
      </trkpt>
      <trkpt lat="48.07902" lon="6.84143">
        <ele>901</ele>
        <time>2020-10-28T13:06:24.007Z</time>
      </trkpt>
      <trkpt lat="48.07902" lon="6.84142">
        <ele>901</ele>
        <time>2020-10-28T13:06:25.008Z</time>
      </trkpt>
      <trkpt lat="48.07902" lon="6.8414">
        <ele>901</ele>
        <time>2020-10-28T13:06:26.008Z</time>
      </trkpt>
      <trkpt lat="48.07902" lon="6.84139">
        <ele>901</ele>
        <time>2020-10-28T13:06:27.007Z</time>
      </trkpt>
      <trkpt lat="48.07902" lon="6.84138">
        <ele>901</ele>
        <time>2020-10-28T13:06:28.008Z</time>
      </trkpt>
      <trkpt lat="48.07903" lon="6.84137">
        <ele>901</ele>
        <time>2020-10-28T13:06:29.008Z</time>
      </trkpt>
      <trkpt lat="48.07904" lon="6.84136">
        <ele>901</ele>
        <time>2020-10-28T13:06:30.008Z</time>
      </trkpt>
      <trkpt lat="48.07905" lon="6.84136">
        <ele>901</ele>
        <time>2020-10-28T13:06:31.007Z</time>
      </trkpt>
      <trkpt lat="48.07906" lon="6.84134">
        <ele>901</ele>
        <time>2020-10-28T13:06:32.008Z</time>
      </trkpt>
      <trkpt lat="48.07906" lon="6.84133">
        <ele>901</ele>
        <time>2020-10-28T13:06:33.008Z</time>
      </trkpt>
      <trkpt lat="48.07907" lon="6.8413">
        <ele>901</ele>
        <time>2020-10-28T13:06:34.008Z</time>
      </trkpt>
      <trkpt lat="48.07908" lon="6.84127">
        <ele>901</ele>
        <time>2020-10-28T13:06:35.007Z</time>
      </trkpt>
      <trkpt lat="48.07908" lon="6.84125">
        <ele>900</ele>
        <time>2020-10-28T13:06:36.008Z</time>
      </trkpt>
      <trkpt lat="48.07909" lon="6.84123">
        <ele>900</ele>
        <time>2020-10-28T13:06:37.008Z</time>
      </trkpt>
      <trkpt lat="48.0791" lon="6.84121">
        <ele>900</ele>
        <time>2020-10-28T13:06:38.007Z</time>
      </trkpt>
      <trkpt lat="48.0791" lon="6.84118">
        <ele>900</ele>
        <time>2020-10-28T13:06:39.007Z</time>
      </trkpt>
      <trkpt lat="48.07911" lon="6.84116">
        <ele>899</ele>
        <time>2020-10-28T13:06:40.008Z</time>
      </trkpt>
      <trkpt lat="48.07911" lon="6.84115">
        <ele>900</ele>
        <time>2020-10-28T13:06:41.008Z</time>
      </trkpt>
      <trkpt lat="48.07912" lon="6.84113">
        <ele>900</ele>
        <time>2020-10-28T13:06:42.008Z</time>
      </trkpt>
      <trkpt lat="48.07913" lon="6.84112">
        <ele>900</ele>
        <time>2020-10-28T13:06:43.008Z</time>
      </trkpt>
      <trkpt lat="48.07914" lon="6.8411">
        <ele>900</ele>
        <time>2020-10-28T13:06:44.008Z</time>
      </trkpt>
      <trkpt lat="48.07915" lon="6.84109">
        <ele>901</ele>
        <time>2020-10-28T13:06:45.008Z</time>
      </trkpt>
      <trkpt lat="48.07916" lon="6.84107">
        <ele>900</ele>
        <time>2020-10-28T13:06:46.008Z</time>
      </trkpt>
      <trkpt lat="48.07917" lon="6.84105">
        <ele>900</ele>
        <time>2020-10-28T13:06:47.008Z</time>
      </trkpt>
      <trkpt lat="48.07917" lon="6.84102">
        <ele>900</ele>
        <time>2020-10-28T13:06:48.008Z</time>
      </trkpt>
      <trkpt lat="48.07918" lon="6.84101">
        <ele>900</ele>
        <time>2020-10-28T13:06:49.007Z</time>
      </trkpt>
      <trkpt lat="48.07918" lon="6.84098">
        <ele>900</ele>
        <time>2020-10-28T13:06:50.008Z</time>
      </trkpt>
      <trkpt lat="48.07919" lon="6.84096">
        <ele>899</ele>
        <time>2020-10-28T13:06:51.008Z</time>
      </trkpt>
      <trkpt lat="48.0792" lon="6.84094">
        <ele>899</ele>
        <time>2020-10-28T13:06:52.008Z</time>
      </trkpt>
      <trkpt lat="48.0792" lon="6.84093">
        <ele>898</ele>
        <time>2020-10-28T13:06:53.008Z</time>
      </trkpt>
      <trkpt lat="48.07921" lon="6.84091">
        <ele>898</ele>
        <time>2020-10-28T13:06:54.008Z</time>
      </trkpt>
      <trkpt lat="48.07921" lon="6.8409">
        <ele>897</ele>
        <time>2020-10-28T13:06:55.008Z</time>
      </trkpt>
      <trkpt lat="48.07922" lon="6.84089">
        <ele>897</ele>
        <time>2020-10-28T13:06:56.007Z</time>
      </trkpt>
      <trkpt lat="48.07922" lon="6.84088">
        <ele>897</ele>
        <time>2020-10-28T13:06:57.007Z</time>
      </trkpt>
      <trkpt lat="48.07923" lon="6.84086">
        <ele>896</ele>
        <time>2020-10-28T13:06:58.008Z</time>
      </trkpt>
      <trkpt lat="48.07923" lon="6.84085">
        <ele>896</ele>
        <time>2020-10-28T13:06:59.008Z</time>
      </trkpt>
      <trkpt lat="48.07924" lon="6.84084">
        <ele>896</ele>
        <time>2020-10-28T13:07:00.007Z</time>
      </trkpt>
      <trkpt lat="48.07924" lon="6.84083">
        <ele>896</ele>
        <time>2020-10-28T13:07:01.008Z</time>
      </trkpt>
      <trkpt lat="48.07924" lon="6.84082">
        <ele>896</ele>
        <time>2020-10-28T13:07:02.007Z</time>
      </trkpt>
      <trkpt lat="48.07924" lon="6.8408">
        <ele>897</ele>
        <time>2020-10-28T13:07:03.008Z</time>
      </trkpt>
      <trkpt lat="48.07923" lon="6.84079">
        <ele>897</ele>
        <time>2020-10-28T13:07:04.008Z</time>
      </trkpt>
      <trkpt lat="48.07923" lon="6.84077">
        <ele>898</ele>
        <time>2020-10-28T13:07:05.008Z</time>
      </trkpt>
      <trkpt lat="48.07922" lon="6.84075">
        <ele>899</ele>
        <time>2020-10-28T13:07:06.008Z</time>
      </trkpt>
      <trkpt lat="48.07922" lon="6.84073">
        <ele>899</ele>
        <time>2020-10-28T13:07:07.008Z</time>
      </trkpt>
      <trkpt lat="48.07922" lon="6.84072">
        <ele>900</ele>
        <time>2020-10-28T13:07:08.008Z</time>
      </trkpt>
      <trkpt lat="48.07921" lon="6.84071">
        <ele>900</ele>
        <time>2020-10-28T13:07:09.008Z</time>
      </trkpt>
      <trkpt lat="48.0792" lon="6.84069">
        <ele>900</ele>
        <time>2020-10-28T13:07:10.008Z</time>
      </trkpt>
      <trkpt lat="48.07919" lon="6.84067">
        <ele>900</ele>
        <time>2020-10-28T13:07:11.008Z</time>
      </trkpt>
      <trkpt lat="48.07918" lon="6.84066">
        <ele>901</ele>
        <time>2020-10-28T13:07:12.008Z</time>
      </trkpt>
      <trkpt lat="48.07918" lon="6.84065">
        <ele>901</ele>
        <time>2020-10-28T13:07:19.118Z</time>
      </trkpt>
      <trkpt lat="48.07918" lon="6.84063">
        <ele>901</ele>
        <time>2020-10-28T13:07:20.117Z</time>
      </trkpt>
      <trkpt lat="48.07917" lon="6.84062">
        <ele>901</ele>
        <time>2020-10-28T13:07:21.118Z</time>
      </trkpt>
      <trkpt lat="48.07918" lon="6.84061">
        <ele>901</ele>
        <time>2020-10-28T13:07:22.117Z</time>
      </trkpt>
      <trkpt lat="48.07918" lon="6.8406">
        <ele>900</ele>
        <time>2020-10-28T13:07:23.118Z</time>
      </trkpt>
      <trkpt lat="48.07918" lon="6.84058">
        <ele>900</ele>
        <time>2020-10-28T13:07:24.117Z</time>
      </trkpt>
      <trkpt lat="48.07918" lon="6.84056">
        <ele>899</ele>
        <time>2020-10-28T13:07:25.117Z</time>
      </trkpt>
      <trkpt lat="48.07918" lon="6.84055">
        <ele>898</ele>
        <time>2020-10-28T13:07:26.118Z</time>
      </trkpt>
      <trkpt lat="48.07919" lon="6.84054">
        <ele>898</ele>
        <time>2020-10-28T13:07:27.118Z</time>
      </trkpt>
      <trkpt lat="48.07919" lon="6.84053">
        <ele>898</ele>
        <time>2020-10-28T13:07:28.118Z</time>
      </trkpt>
      <trkpt lat="48.07918" lon="6.84052">
        <ele>897</ele>
        <time>2020-10-28T13:07:29.118Z</time>
      </trkpt>
      <trkpt lat="48.07918" lon="6.84051">
        <ele>897</ele>
        <time>2020-10-28T13:07:30.118Z</time>
      </trkpt>
      <trkpt lat="48.07918" lon="6.8405">
        <ele>896</ele>
        <time>2020-10-28T13:07:31.118Z</time>
      </trkpt>
      <trkpt lat="48.07918" lon="6.84048">
        <ele>896</ele>
        <time>2020-10-28T13:07:32.118Z</time>
      </trkpt>
      <trkpt lat="48.07917" lon="6.84046">
        <ele>895</ele>
        <time>2020-10-28T13:07:33.118Z</time>
      </trkpt>
      <trkpt lat="48.07917" lon="6.84045">
        <ele>894</ele>
        <time>2020-10-28T13:07:34.117Z</time>
      </trkpt>
      <trkpt lat="48.07917" lon="6.84043">
        <ele>894</ele>
        <time>2020-10-28T13:07:35.118Z</time>
      </trkpt>
      <trkpt lat="48.07917" lon="6.84042">
        <ele>893</ele>
        <time>2020-10-28T13:07:36.118Z</time>
      </trkpt>
      <trkpt lat="48.07916" lon="6.8404">
        <ele>892</ele>
        <time>2020-10-28T13:07:37.118Z</time>
      </trkpt>
      <trkpt lat="48.07915" lon="6.84039">
        <ele>891</ele>
        <time>2020-10-28T13:07:38.118Z</time>
      </trkpt>
      <trkpt lat="48.07915" lon="6.84038">
        <ele>890</ele>
        <time>2020-10-28T13:07:39.117Z</time>
      </trkpt>
      <trkpt lat="48.07914" lon="6.84038">
        <ele>889</ele>
        <time>2020-10-28T13:07:40.117Z</time>
      </trkpt>
      <trkpt lat="48.07914" lon="6.84038">
        <ele>889</ele>
        <time>2020-10-28T13:07:41.118Z</time>
      </trkpt>
      <trkpt lat="48.07914" lon="6.84037">
        <ele>888</ele>
        <time>2020-10-28T13:07:42.118Z</time>
      </trkpt>
      <trkpt lat="48.07913" lon="6.84036">
        <ele>887</ele>
        <time>2020-10-28T13:07:43.117Z</time>
      </trkpt>
      <trkpt lat="48.07913" lon="6.84035">
        <ele>887</ele>
        <time>2020-10-28T13:07:44.118Z</time>
      </trkpt>
      <trkpt lat="48.07913" lon="6.84034">
        <ele>886</ele>
        <time>2020-10-28T13:07:45.118Z</time>
      </trkpt>
      <trkpt lat="48.07913" lon="6.84034">
        <ele>886</ele>
        <time>2020-10-28T13:07:46.117Z</time>
      </trkpt>
      <trkpt lat="48.07912" lon="6.84031">
        <ele>885</ele>
        <time>2020-10-28T13:07:47.118Z</time>
      </trkpt>
      <trkpt lat="48.07912" lon="6.84031">
        <ele>885</ele>
        <time>2020-10-28T13:07:48.118Z</time>
      </trkpt>
      <trkpt lat="48.07912" lon="6.8403">
        <ele>884</ele>
        <time>2020-10-28T13:07:49.118Z</time>
      </trkpt>
      <trkpt lat="48.07912" lon="6.8403">
        <ele>884</ele>
        <time>2020-10-28T13:07:50.117Z</time>
      </trkpt>
      <trkpt lat="48.07911" lon="6.84029">
        <ele>884</ele>
        <time>2020-10-28T13:07:51.117Z</time>
      </trkpt>
      <trkpt lat="48.0791" lon="6.84028">
        <ele>884</ele>
        <time>2020-10-28T13:07:52.118Z</time>
      </trkpt>
      <trkpt lat="48.07909" lon="6.84028">
        <ele>884</ele>
        <time>2020-10-28T13:07:53.118Z</time>
      </trkpt>
      <trkpt lat="48.07908" lon="6.84029">
        <ele>885</ele>
        <time>2020-10-28T13:07:54.118Z</time>
      </trkpt>
      <trkpt lat="48.07907" lon="6.8403">
        <ele>885</ele>
        <time>2020-10-28T13:07:55.118Z</time>
      </trkpt>
      <trkpt lat="48.07907" lon="6.8403">
        <ele>885</ele>
        <time>2020-10-28T13:07:56.118Z</time>
      </trkpt>
      <trkpt lat="48.07906" lon="6.8403">
        <ele>885</ele>
        <time>2020-10-28T13:07:57.118Z</time>
      </trkpt>
      <trkpt lat="48.07905" lon="6.84029">
        <ele>885</ele>
        <time>2020-10-28T13:07:58.117Z</time>
      </trkpt>
      <trkpt lat="48.07904" lon="6.84028">
        <ele>885</ele>
        <time>2020-10-28T13:07:59.118Z</time>
      </trkpt>
      <trkpt lat="48.07904" lon="6.84027">
        <ele>885</ele>
        <time>2020-10-28T13:08:00.118Z</time>
      </trkpt>
      <trkpt lat="48.07904" lon="6.84026">
        <ele>886</ele>
        <time>2020-10-28T13:08:01.117Z</time>
      </trkpt>
      <trkpt lat="48.07904" lon="6.84025">
        <ele>886</ele>
        <time>2020-10-28T13:08:02.118Z</time>
      </trkpt>
      <trkpt lat="48.07904" lon="6.84024">
        <ele>887</ele>
        <time>2020-10-28T13:08:03.118Z</time>
      </trkpt>
      <trkpt lat="48.07903" lon="6.84023">
        <ele>887</ele>
        <time>2020-10-28T13:08:04.118Z</time>
      </trkpt>
      <trkpt lat="48.07903" lon="6.84021">
        <ele>887</ele>
        <time>2020-10-28T13:08:05.118Z</time>
      </trkpt>
      <trkpt lat="48.07903" lon="6.84019">
        <ele>888</ele>
        <time>2020-10-28T13:08:06.118Z</time>
      </trkpt>
      <trkpt lat="48.07903" lon="6.84018">
        <ele>888</ele>
        <time>2020-10-28T13:08:07.118Z</time>
      </trkpt>
      <trkpt lat="48.07902" lon="6.84017">
        <ele>888</ele>
        <time>2020-10-28T13:08:08.118Z</time>
      </trkpt>
      <trkpt lat="48.07903" lon="6.84016">
        <ele>888</ele>
        <time>2020-10-28T13:08:09.118Z</time>
      </trkpt>
      <trkpt lat="48.07903" lon="6.84015">
        <ele>888</ele>
        <time>2020-10-28T13:08:10.118Z</time>
      </trkpt>
      <trkpt lat="48.07903" lon="6.84014">
        <ele>888</ele>
        <time>2020-10-28T13:08:11.118Z</time>
      </trkpt>
      <trkpt lat="48.07903" lon="6.84013">
        <ele>888</ele>
        <time>2020-10-28T13:08:12.118Z</time>
      </trkpt>
      <trkpt lat="48.07903" lon="6.84011">
        <ele>888</ele>
        <time>2020-10-28T13:08:13.117Z</time>
      </trkpt>
      <trkpt lat="48.07902" lon="6.8401">
        <ele>889</ele>
        <time>2020-10-28T13:08:14.117Z</time>
      </trkpt>
      <trkpt lat="48.07902" lon="6.84009">
        <ele>889</ele>
        <time>2020-10-28T13:08:15.118Z</time>
      </trkpt>
      <trkpt lat="48.07901" lon="6.84008">
        <ele>889</ele>
        <time>2020-10-28T13:08:16.118Z</time>
      </trkpt>
      <trkpt lat="48.07901" lon="6.84006">
        <ele>889</ele>
        <time>2020-10-28T13:08:17.117Z</time>
      </trkpt>
      <trkpt lat="48.07901" lon="6.84004">
        <ele>888</ele>
        <time>2020-10-28T13:08:18.118Z</time>
      </trkpt>
      <trkpt lat="48.07901" lon="6.84003">
        <ele>888</ele>
        <time>2020-10-28T13:08:19.118Z</time>
      </trkpt>
      <trkpt lat="48.079" lon="6.84001">
        <ele>888</ele>
        <time>2020-10-28T13:08:20.118Z</time>
      </trkpt>
      <trkpt lat="48.079" lon="6.83998">
        <ele>887</ele>
        <time>2020-10-28T13:08:21.117Z</time>
      </trkpt>
      <trkpt lat="48.079" lon="6.83997">
        <ele>887</ele>
        <time>2020-10-28T13:08:22.118Z</time>
      </trkpt>
      <trkpt lat="48.07899" lon="6.83994">
        <ele>886</ele>
        <time>2020-10-28T13:08:23.118Z</time>
      </trkpt>
      <trkpt lat="48.07899" lon="6.83992">
        <ele>886</ele>
        <time>2020-10-28T13:08:24.118Z</time>
      </trkpt>
      <trkpt lat="48.07899" lon="6.8399">
        <ele>886</ele>
        <time>2020-10-28T13:08:25.117Z</time>
      </trkpt>
      <trkpt lat="48.07898" lon="6.83988">
        <ele>885</ele>
        <time>2020-10-28T13:08:26.118Z</time>
      </trkpt>
      <trkpt lat="48.07898" lon="6.83986">
        <ele>885</ele>
        <time>2020-10-28T13:08:27.118Z</time>
      </trkpt>
      <trkpt lat="48.07898" lon="6.83985">
        <ele>885</ele>
        <time>2020-10-28T13:08:28.117Z</time>
      </trkpt>
      <trkpt lat="48.07898" lon="6.83984">
        <ele>885</ele>
        <time>2020-10-28T13:08:29.118Z</time>
      </trkpt>
      <trkpt lat="48.07897" lon="6.83983">
        <ele>885</ele>
        <time>2020-10-28T13:08:30.118Z</time>
      </trkpt>
      <trkpt lat="48.07898" lon="6.83981">
        <ele>885</ele>
        <time>2020-10-28T13:08:31.118Z</time>
      </trkpt>
      <trkpt lat="48.07897" lon="6.8398">
        <ele>885</ele>
        <time>2020-10-28T13:08:32.118Z</time>
      </trkpt>
      <trkpt lat="48.07897" lon="6.8398">
        <ele>884</ele>
        <time>2020-10-28T13:08:33.117Z</time>
      </trkpt>
      <trkpt lat="48.07896" lon="6.83981">
        <ele>884</ele>
        <time>2020-10-28T13:08:34.118Z</time>
      </trkpt>
      <trkpt lat="48.07895" lon="6.83981">
        <ele>883</ele>
        <time>2020-10-28T13:08:35.118Z</time>
      </trkpt>
      <trkpt lat="48.07894" lon="6.83982">
        <ele>883</ele>
        <time>2020-10-28T13:08:36.118Z</time>
      </trkpt>
      <trkpt lat="48.07894" lon="6.83983">
        <ele>883</ele>
        <time>2020-10-28T13:08:37.118Z</time>
      </trkpt>
      <trkpt lat="48.07893" lon="6.83984">
        <ele>883</ele>
        <time>2020-10-28T13:08:38.118Z</time>
      </trkpt>
      <trkpt lat="48.07892" lon="6.83984">
        <ele>882</ele>
        <time>2020-10-28T13:08:39.118Z</time>
      </trkpt>
      <trkpt lat="48.07892" lon="6.83983">
        <ele>882</ele>
        <time>2020-10-28T13:08:40.118Z</time>
      </trkpt>
      <trkpt lat="48.07892" lon="6.83983">
        <ele>882</ele>
        <time>2020-10-28T13:08:41.118Z</time>
      </trkpt>
      <trkpt lat="48.07892" lon="6.83982">
        <ele>881</ele>
        <time>2020-10-28T13:08:42.117Z</time>
      </trkpt>
      <trkpt lat="48.07892" lon="6.83981">
        <ele>881</ele>
        <time>2020-10-28T13:08:43.117Z</time>
      </trkpt>
      <trkpt lat="48.07892" lon="6.8398">
        <ele>881</ele>
        <time>2020-10-28T13:08:44.118Z</time>
      </trkpt>
      <trkpt lat="48.07891" lon="6.83979">
        <ele>880</ele>
        <time>2020-10-28T13:08:45.117Z</time>
      </trkpt>
      <trkpt lat="48.07891" lon="6.83977">
        <ele>879</ele>
        <time>2020-10-28T13:08:46.118Z</time>
      </trkpt>
      <trkpt lat="48.07891" lon="6.83976">
        <ele>878</ele>
        <time>2020-10-28T13:08:47.118Z</time>
      </trkpt>
      <trkpt lat="48.07891" lon="6.83974">
        <ele>878</ele>
        <time>2020-10-28T13:08:48.118Z</time>
      </trkpt>
      <trkpt lat="48.07891" lon="6.83973">
        <ele>877</ele>
        <time>2020-10-28T13:08:49.117Z</time>
      </trkpt>
      <trkpt lat="48.07892" lon="6.83971">
        <ele>877</ele>
        <time>2020-10-28T13:08:50.117Z</time>
      </trkpt>
      <trkpt lat="48.07892" lon="6.8397">
        <ele>877</ele>
        <time>2020-10-28T13:08:51.118Z</time>
      </trkpt>
      <trkpt lat="48.07893" lon="6.83968">
        <ele>876</ele>
        <time>2020-10-28T13:08:52.117Z</time>
      </trkpt>
      <trkpt lat="48.07894" lon="6.83967">
        <ele>876</ele>
        <time>2020-10-28T13:08:53.117Z</time>
      </trkpt>
      <trkpt lat="48.07894" lon="6.83965">
        <ele>876</ele>
        <time>2020-10-28T13:08:54.118Z</time>
      </trkpt>
      <trkpt lat="48.07895" lon="6.83964">
        <ele>876</ele>
        <time>2020-10-28T13:08:55.118Z</time>
      </trkpt>
      <trkpt lat="48.07895" lon="6.83962">
        <ele>876</ele>
        <time>2020-10-28T13:08:56.118Z</time>
      </trkpt>
      <trkpt lat="48.07895" lon="6.83961">
        <ele>876</ele>
        <time>2020-10-28T13:08:57.118Z</time>
      </trkpt>
      <trkpt lat="48.07896" lon="6.83959">
        <ele>876</ele>
        <time>2020-10-28T13:08:58.118Z</time>
      </trkpt>
      <trkpt lat="48.07896" lon="6.83957">
        <ele>875</ele>
        <time>2020-10-28T13:08:59.118Z</time>
      </trkpt>
      <trkpt lat="48.07896" lon="6.83956">
        <ele>875</ele>
        <time>2020-10-28T13:09:00.118Z</time>
      </trkpt>
      <trkpt lat="48.07897" lon="6.83954">
        <ele>875</ele>
        <time>2020-10-28T13:09:01.118Z</time>
      </trkpt>
      <trkpt lat="48.07897" lon="6.83952">
        <ele>874</ele>
        <time>2020-10-28T13:09:02.117Z</time>
      </trkpt>
      <trkpt lat="48.07898" lon="6.83951">
        <ele>874</ele>
        <time>2020-10-28T13:09:03.118Z</time>
      </trkpt>
      <trkpt lat="48.07898" lon="6.83948">
        <ele>874</ele>
        <time>2020-10-28T13:09:04.117Z</time>
      </trkpt>
      <trkpt lat="48.07899" lon="6.83947">
        <ele>873</ele>
        <time>2020-10-28T13:09:05.117Z</time>
      </trkpt>
      <trkpt lat="48.07899" lon="6.83945">
        <ele>873</ele>
        <time>2020-10-28T13:09:06.117Z</time>
      </trkpt>
      <trkpt lat="48.079" lon="6.83943">
        <ele>872</ele>
        <time>2020-10-28T13:09:07.118Z</time>
      </trkpt>
      <trkpt lat="48.079" lon="6.83941">
        <ele>872</ele>
        <time>2020-10-28T13:09:08.118Z</time>
      </trkpt>
      <trkpt lat="48.079" lon="6.83939">
        <ele>873</ele>
        <time>2020-10-28T13:09:10.227Z</time>
      </trkpt>
      <trkpt lat="48.07901" lon="6.83937">
        <ele>873</ele>
        <time>2020-10-28T13:09:11.227Z</time>
      </trkpt>
      <trkpt lat="48.07902" lon="6.83933">
        <ele>874</ele>
        <time>2020-10-28T13:09:12.227Z</time>
      </trkpt>
      <trkpt lat="48.07903" lon="6.83931">
        <ele>874</ele>
        <time>2020-10-28T13:09:13.227Z</time>
      </trkpt>
      <trkpt lat="48.07903" lon="6.83928">
        <ele>875</ele>
        <time>2020-10-28T13:09:14.227Z</time>
      </trkpt>
      <trkpt lat="48.07904" lon="6.83925">
        <ele>875</ele>
        <time>2020-10-28T13:09:15.227Z</time>
      </trkpt>
      <trkpt lat="48.07904" lon="6.83923">
        <ele>876</ele>
        <time>2020-10-28T13:09:16.227Z</time>
      </trkpt>
      <trkpt lat="48.07905" lon="6.83921">
        <ele>876</ele>
        <time>2020-10-28T13:09:17.227Z</time>
      </trkpt>
      <trkpt lat="48.07905" lon="6.83918">
        <ele>876</ele>
        <time>2020-10-28T13:09:18.227Z</time>
      </trkpt>
      <trkpt lat="48.07906" lon="6.83916">
        <ele>877</ele>
        <time>2020-10-28T13:09:19.227Z</time>
      </trkpt>
      <trkpt lat="48.07907" lon="6.83914">
        <ele>877</ele>
        <time>2020-10-28T13:09:20.226Z</time>
      </trkpt>
      <trkpt lat="48.07908" lon="6.83913">
        <ele>877</ele>
        <time>2020-10-28T13:09:21.226Z</time>
      </trkpt>
      <trkpt lat="48.07908" lon="6.8391">
        <ele>878</ele>
        <time>2020-10-28T13:09:24.225Z</time>
      </trkpt>
      <trkpt lat="48.07908" lon="6.83907">
        <ele>878</ele>
        <time>2020-10-28T13:09:25.225Z</time>
      </trkpt>
      <trkpt lat="48.07909" lon="6.83904">
        <ele>879</ele>
        <time>2020-10-28T13:09:26.225Z</time>
      </trkpt>
      <trkpt lat="48.07909" lon="6.83901">
        <ele>880</ele>
        <time>2020-10-28T13:09:27.225Z</time>
      </trkpt>
      <trkpt lat="48.07908" lon="6.83898">
        <ele>880</ele>
        <time>2020-10-28T13:09:28.224Z</time>
      </trkpt>
      <trkpt lat="48.07909" lon="6.83896">
        <ele>881</ele>
        <time>2020-10-28T13:09:29.225Z</time>
      </trkpt>
      <trkpt lat="48.07909" lon="6.83894">
        <ele>882</ele>
        <time>2020-10-28T13:09:30.224Z</time>
      </trkpt>
      <trkpt lat="48.0791" lon="6.83892">
        <ele>882</ele>
        <time>2020-10-28T13:09:31.225Z</time>
      </trkpt>
      <trkpt lat="48.0791" lon="6.83891">
        <ele>883</ele>
        <time>2020-10-28T13:09:32.225Z</time>
      </trkpt>
      <trkpt lat="48.0791" lon="6.83889">
        <ele>884</ele>
        <time>2020-10-28T13:09:33.225Z</time>
      </trkpt>
      <trkpt lat="48.0791" lon="6.83887">
        <ele>885</ele>
        <time>2020-10-28T13:09:34.225Z</time>
      </trkpt>
      <trkpt lat="48.07911" lon="6.83885">
        <ele>886</ele>
        <time>2020-10-28T13:09:35.224Z</time>
      </trkpt>
      <trkpt lat="48.07911" lon="6.83883">
        <ele>886</ele>
        <time>2020-10-28T13:09:36.225Z</time>
      </trkpt>
      <trkpt lat="48.07911" lon="6.83881">
        <ele>887</ele>
        <time>2020-10-28T13:09:37.225Z</time>
      </trkpt>
      <trkpt lat="48.07912" lon="6.83879">
        <ele>887</ele>
        <time>2020-10-28T13:09:38.225Z</time>
      </trkpt>
      <trkpt lat="48.07912" lon="6.83877">
        <ele>887</ele>
        <time>2020-10-28T13:09:39.224Z</time>
      </trkpt>
      <trkpt lat="48.07912" lon="6.83875">
        <ele>887</ele>
        <time>2020-10-28T13:09:40.225Z</time>
      </trkpt>
      <trkpt lat="48.07912" lon="6.83874">
        <ele>888</ele>
        <time>2020-10-28T13:09:41.225Z</time>
      </trkpt>
      <trkpt lat="48.07912" lon="6.83871">
        <ele>888</ele>
        <time>2020-10-28T13:09:42.225Z</time>
      </trkpt>
      <trkpt lat="48.07913" lon="6.83869">
        <ele>888</ele>
        <time>2020-10-28T13:09:43.225Z</time>
      </trkpt>
      <trkpt lat="48.07913" lon="6.83867">
        <ele>889</ele>
        <time>2020-10-28T13:09:44.225Z</time>
      </trkpt>
      <trkpt lat="48.07913" lon="6.83864">
        <ele>889</ele>
        <time>2020-10-28T13:09:45.225Z</time>
      </trkpt>
      <trkpt lat="48.07912" lon="6.83862">
        <ele>890</ele>
        <time>2020-10-28T13:09:46.225Z</time>
      </trkpt>
      <trkpt lat="48.07912" lon="6.8386">
        <ele>890</ele>
        <time>2020-10-28T13:09:47.225Z</time>
      </trkpt>
      <trkpt lat="48.07912" lon="6.83858">
        <ele>890</ele>
        <time>2020-10-28T13:09:48.225Z</time>
      </trkpt>
      <trkpt lat="48.07912" lon="6.83856">
        <ele>891</ele>
        <time>2020-10-28T13:09:49.225Z</time>
      </trkpt>
      <trkpt lat="48.07911" lon="6.83856">
        <ele>891</ele>
        <time>2020-10-28T13:09:50.225Z</time>
      </trkpt>
      <trkpt lat="48.07911" lon="6.83856">
        <ele>891</ele>
        <time>2020-10-28T13:09:51.224Z</time>
      </trkpt>
      <trkpt lat="48.0791" lon="6.83855">
        <ele>891</ele>
        <time>2020-10-28T13:09:52.224Z</time>
      </trkpt>
      <trkpt lat="48.0791" lon="6.83854">
        <ele>891</ele>
        <time>2020-10-28T13:09:53.225Z</time>
      </trkpt>
      <trkpt lat="48.0791" lon="6.83853">
        <ele>891</ele>
        <time>2020-10-28T13:09:54.224Z</time>
      </trkpt>
      <trkpt lat="48.0791" lon="6.83851">
        <ele>892</ele>
        <time>2020-10-28T13:09:55.225Z</time>
      </trkpt>
      <trkpt lat="48.0791" lon="6.8385">
        <ele>892</ele>
        <time>2020-10-28T13:09:56.225Z</time>
      </trkpt>
      <trkpt lat="48.0791" lon="6.83849">
        <ele>893</ele>
        <time>2020-10-28T13:09:57.224Z</time>
      </trkpt>
      <trkpt lat="48.0791" lon="6.83847">
        <ele>894</ele>
        <time>2020-10-28T13:09:58.224Z</time>
      </trkpt>
      <trkpt lat="48.07908" lon="6.83843">
        <ele>894</ele>
        <time>2020-10-28T13:09:59.224Z</time>
      </trkpt>
      <trkpt lat="48.07909" lon="6.83842">
        <ele>895</ele>
        <time>2020-10-28T13:10:00.224Z</time>
      </trkpt>
      <trkpt lat="48.07909" lon="6.8384">
        <ele>895</ele>
        <time>2020-10-28T13:10:01.224Z</time>
      </trkpt>
      <trkpt lat="48.07909" lon="6.83838">
        <ele>895</ele>
        <time>2020-10-28T13:10:02.225Z</time>
      </trkpt>
      <trkpt lat="48.07909" lon="6.83836">
        <ele>895</ele>
        <time>2020-10-28T13:10:03.225Z</time>
      </trkpt>
      <trkpt lat="48.0791" lon="6.83834">
        <ele>895</ele>
        <time>2020-10-28T13:10:04.225Z</time>
      </trkpt>
      <trkpt lat="48.0791" lon="6.83832">
        <ele>896</ele>
        <time>2020-10-28T13:10:05.224Z</time>
      </trkpt>
      <trkpt lat="48.07911" lon="6.83831">
        <ele>896</ele>
        <time>2020-10-28T13:10:06.224Z</time>
      </trkpt>
      <trkpt lat="48.07911" lon="6.83828">
        <ele>895</ele>
        <time>2020-10-28T13:10:07.224Z</time>
      </trkpt>
      <trkpt lat="48.0791" lon="6.83826">
        <ele>895</ele>
        <time>2020-10-28T13:10:08.225Z</time>
      </trkpt>
      <trkpt lat="48.0791" lon="6.83825">
        <ele>895</ele>
        <time>2020-10-28T13:10:09.225Z</time>
      </trkpt>
      <trkpt lat="48.0791" lon="6.83823">
        <ele>894</ele>
        <time>2020-10-28T13:10:10.224Z</time>
      </trkpt>
      <trkpt lat="48.07909" lon="6.83822">
        <ele>893</ele>
        <time>2020-10-28T13:10:11.224Z</time>
      </trkpt>
      <trkpt lat="48.0791" lon="6.8382">
        <ele>893</ele>
        <time>2020-10-28T13:10:12.224Z</time>
      </trkpt>
      <trkpt lat="48.0791" lon="6.83818">
        <ele>892</ele>
        <time>2020-10-28T13:10:13.225Z</time>
      </trkpt>
      <trkpt lat="48.0791" lon="6.83817">
        <ele>892</ele>
        <time>2020-10-28T13:10:14.225Z</time>
      </trkpt>
      <trkpt lat="48.0791" lon="6.83815">
        <ele>891</ele>
        <time>2020-10-28T13:10:15.224Z</time>
      </trkpt>
      <trkpt lat="48.07911" lon="6.83813">
        <ele>891</ele>
        <time>2020-10-28T13:10:16.224Z</time>
      </trkpt>
      <trkpt lat="48.07911" lon="6.83811">
        <ele>890</ele>
        <time>2020-10-28T13:10:17.224Z</time>
      </trkpt>
      <trkpt lat="48.07911" lon="6.8381">
        <ele>889</ele>
        <time>2020-10-28T13:10:18.225Z</time>
      </trkpt>
      <trkpt lat="48.07911" lon="6.83808">
        <ele>889</ele>
        <time>2020-10-28T13:10:19.225Z</time>
      </trkpt>
      <trkpt lat="48.07911" lon="6.83805">
        <ele>888</ele>
        <time>2020-10-28T13:10:20.225Z</time>
      </trkpt>
      <trkpt lat="48.07911" lon="6.83803">
        <ele>888</ele>
        <time>2020-10-28T13:10:21.225Z</time>
      </trkpt>
      <trkpt lat="48.07911" lon="6.838">
        <ele>887</ele>
        <time>2020-10-28T13:10:22.224Z</time>
      </trkpt>
      <trkpt lat="48.07912" lon="6.83799">
        <ele>887</ele>
        <time>2020-10-28T13:10:23.225Z</time>
      </trkpt>
      <trkpt lat="48.07912" lon="6.83797">
        <ele>886</ele>
        <time>2020-10-28T13:10:24.224Z</time>
      </trkpt>
      <trkpt lat="48.07912" lon="6.83796">
        <ele>886</ele>
        <time>2020-10-28T13:10:25.224Z</time>
      </trkpt>
      <trkpt lat="48.07912" lon="6.83793">
        <ele>885</ele>
        <time>2020-10-28T13:10:26.225Z</time>
      </trkpt>
      <trkpt lat="48.07912" lon="6.8379">
        <ele>885</ele>
        <time>2020-10-28T13:10:27.225Z</time>
      </trkpt>
      <trkpt lat="48.07913" lon="6.83788">
        <ele>885</ele>
        <time>2020-10-28T13:10:28.225Z</time>
      </trkpt>
      <trkpt lat="48.07913" lon="6.83785">
        <ele>884</ele>
        <time>2020-10-28T13:10:29.224Z</time>
      </trkpt>
      <trkpt lat="48.07914" lon="6.83783">
        <ele>884</ele>
        <time>2020-10-28T13:10:30.225Z</time>
      </trkpt>
      <trkpt lat="48.07914" lon="6.83781">
        <ele>883</ele>
        <time>2020-10-28T13:10:31.224Z</time>
      </trkpt>
      <trkpt lat="48.07915" lon="6.83779">
        <ele>883</ele>
        <time>2020-10-28T13:10:32.224Z</time>
      </trkpt>
      <trkpt lat="48.07916" lon="6.83777">
        <ele>882</ele>
        <time>2020-10-28T13:10:33.224Z</time>
      </trkpt>
      <trkpt lat="48.07916" lon="6.83775">
        <ele>882</ele>
        <time>2020-10-28T13:10:34.224Z</time>
      </trkpt>
      <trkpt lat="48.07916" lon="6.83773">
        <ele>882</ele>
        <time>2020-10-28T13:10:35.224Z</time>
      </trkpt>
      <trkpt lat="48.07916" lon="6.83771">
        <ele>881</ele>
        <time>2020-10-28T13:10:36.225Z</time>
      </trkpt>
      <trkpt lat="48.07916" lon="6.83769">
        <ele>881</ele>
        <time>2020-10-28T13:10:37.224Z</time>
      </trkpt>
      <trkpt lat="48.07916" lon="6.83766">
        <ele>881</ele>
        <time>2020-10-28T13:10:38.225Z</time>
      </trkpt>
      <trkpt lat="48.07917" lon="6.83764">
        <ele>881</ele>
        <time>2020-10-28T13:10:39.224Z</time>
      </trkpt>
      <trkpt lat="48.07917" lon="6.83761">
        <ele>881</ele>
        <time>2020-10-28T13:10:40.225Z</time>
      </trkpt>
      <trkpt lat="48.07917" lon="6.83759">
        <ele>880</ele>
        <time>2020-10-28T13:10:41.224Z</time>
      </trkpt>
      <trkpt lat="48.07917" lon="6.83757">
        <ele>879</ele>
        <time>2020-10-28T13:10:42.224Z</time>
      </trkpt>
      <trkpt lat="48.07918" lon="6.83755">
        <ele>879</ele>
        <time>2020-10-28T13:10:43.225Z</time>
      </trkpt>
      <trkpt lat="48.07918" lon="6.83753">
        <ele>879</ele>
        <time>2020-10-28T13:10:44.225Z</time>
      </trkpt>
      <trkpt lat="48.07918" lon="6.83751">
        <ele>879</ele>
        <time>2020-10-28T13:10:45.224Z</time>
      </trkpt>
      <trkpt lat="48.07918" lon="6.83748">
        <ele>879</ele>
        <time>2020-10-28T13:10:46.224Z</time>
      </trkpt>
      <trkpt lat="48.07918" lon="6.83745">
        <ele>880</ele>
        <time>2020-10-28T13:10:47.224Z</time>
      </trkpt>
      <trkpt lat="48.07918" lon="6.83743">
        <ele>880</ele>
        <time>2020-10-28T13:10:48.225Z</time>
      </trkpt>
      <trkpt lat="48.07918" lon="6.83739">
        <ele>880</ele>
        <time>2020-10-28T13:10:49.225Z</time>
      </trkpt>
      <trkpt lat="48.07917" lon="6.83735">
        <ele>880</ele>
        <time>2020-10-28T13:10:50.224Z</time>
      </trkpt>
      <trkpt lat="48.07918" lon="6.83733">
        <ele>880</ele>
        <time>2020-10-28T13:10:51.225Z</time>
      </trkpt>
      <trkpt lat="48.07918" lon="6.83731">
        <ele>881</ele>
        <time>2020-10-28T13:10:52.224Z</time>
      </trkpt>
      <trkpt lat="48.07918" lon="6.83728">
        <ele>881</ele>
        <time>2020-10-28T13:10:53.224Z</time>
      </trkpt>
      <trkpt lat="48.07917" lon="6.83725">
        <ele>881</ele>
        <time>2020-10-28T13:10:54.225Z</time>
      </trkpt>
      <trkpt lat="48.07917" lon="6.83723">
        <ele>881</ele>
        <time>2020-10-28T13:10:55.224Z</time>
      </trkpt>
      <trkpt lat="48.07917" lon="6.8372">
        <ele>881</ele>
        <time>2020-10-28T13:10:56.224Z</time>
      </trkpt>
      <trkpt lat="48.07917" lon="6.83718">
        <ele>881</ele>
        <time>2020-10-28T13:10:57.224Z</time>
      </trkpt>
      <trkpt lat="48.07917" lon="6.83717">
        <ele>881</ele>
        <time>2020-10-28T13:10:58.224Z</time>
      </trkpt>
      <trkpt lat="48.07918" lon="6.83715">
        <ele>882</ele>
        <time>2020-10-28T13:10:59.225Z</time>
      </trkpt>
      <trkpt lat="48.07918" lon="6.83714">
        <ele>882</ele>
        <time>2020-10-28T13:11:00.224Z</time>
      </trkpt>
      <trkpt lat="48.07918" lon="6.83712">
        <ele>883</ele>
        <time>2020-10-28T13:11:01.224Z</time>
      </trkpt>
      <trkpt lat="48.07918" lon="6.83709">
        <ele>883</ele>
        <time>2020-10-28T13:11:02.224Z</time>
      </trkpt>
      <trkpt lat="48.07917" lon="6.83706">
        <ele>883</ele>
        <time>2020-10-28T13:11:03.224Z</time>
      </trkpt>
      <trkpt lat="48.07917" lon="6.83705">
        <ele>883</ele>
        <time>2020-10-28T13:11:04.225Z</time>
      </trkpt>
      <trkpt lat="48.07916" lon="6.83703">
        <ele>883</ele>
        <time>2020-10-28T13:11:05.224Z</time>
      </trkpt>
      <trkpt lat="48.07916" lon="6.83701">
        <ele>883</ele>
        <time>2020-10-28T13:11:06.224Z</time>
      </trkpt>
      <trkpt lat="48.07916" lon="6.83699">
        <ele>883</ele>
        <time>2020-10-28T13:11:07.224Z</time>
      </trkpt>
      <trkpt lat="48.07916" lon="6.83696">
        <ele>882</ele>
        <time>2020-10-28T13:11:10.229Z</time>
      </trkpt>
      <trkpt lat="48.07916" lon="6.83694">
        <ele>881</ele>
        <time>2020-10-28T13:11:38.659Z</time>
      </trkpt>
      <trkpt lat="48.07916" lon="6.83692">
        <ele>881</ele>
        <time>2020-10-28T13:11:39.658Z</time>
      </trkpt>
      <trkpt lat="48.07916" lon="6.8369">
        <ele>881</ele>
        <time>2020-10-28T13:11:40.658Z</time>
      </trkpt>
      <trkpt lat="48.07916" lon="6.83688">
        <ele>880</ele>
        <time>2020-10-28T13:11:41.659Z</time>
      </trkpt>
      <trkpt lat="48.07916" lon="6.83687">
        <ele>880</ele>
        <time>2020-10-28T13:11:42.659Z</time>
      </trkpt>
      <trkpt lat="48.07915" lon="6.83685">
        <ele>880</ele>
        <time>2020-10-28T13:11:43.659Z</time>
      </trkpt>
      <trkpt lat="48.07916" lon="6.83684">
        <ele>879</ele>
        <time>2020-10-28T13:11:44.658Z</time>
      </trkpt>
      <trkpt lat="48.07915" lon="6.83681">
        <ele>878</ele>
        <time>2020-10-28T13:11:45.658Z</time>
      </trkpt>
      <trkpt lat="48.07915" lon="6.83679">
        <ele>877</ele>
        <time>2020-10-28T13:11:46.659Z</time>
      </trkpt>
      <trkpt lat="48.07915" lon="6.83678">
        <ele>876</ele>
        <time>2020-10-28T13:11:47.659Z</time>
      </trkpt>
      <trkpt lat="48.07915" lon="6.83676">
        <ele>876</ele>
        <time>2020-10-28T13:11:48.658Z</time>
      </trkpt>
      <trkpt lat="48.07915" lon="6.83675">
        <ele>875</ele>
        <time>2020-10-28T13:11:49.658Z</time>
      </trkpt>
      <trkpt lat="48.07916" lon="6.83673">
        <ele>875</ele>
        <time>2020-10-28T13:11:50.658Z</time>
      </trkpt>
      <trkpt lat="48.07916" lon="6.83671">
        <ele>875</ele>
        <time>2020-10-28T13:11:51.658Z</time>
      </trkpt>
      <trkpt lat="48.07915" lon="6.83669">
        <ele>874</ele>
        <time>2020-10-28T13:11:52.658Z</time>
      </trkpt>
      <trkpt lat="48.07915" lon="6.83667">
        <ele>874</ele>
        <time>2020-10-28T13:11:53.659Z</time>
      </trkpt>
      <trkpt lat="48.07915" lon="6.83666">
        <ele>873</ele>
        <time>2020-10-28T13:11:54.658Z</time>
      </trkpt>
      <trkpt lat="48.07915" lon="6.83663">
        <ele>872</ele>
        <time>2020-10-28T13:11:55.658Z</time>
      </trkpt>
      <trkpt lat="48.07915" lon="6.83662">
        <ele>872</ele>
        <time>2020-10-28T13:11:56.658Z</time>
      </trkpt>
      <trkpt lat="48.07915" lon="6.83659">
        <ele>871</ele>
        <time>2020-10-28T13:11:57.658Z</time>
      </trkpt>
      <trkpt lat="48.07914" lon="6.83657">
        <ele>871</ele>
        <time>2020-10-28T13:11:58.659Z</time>
      </trkpt>
      <trkpt lat="48.07914" lon="6.83656">
        <ele>871</ele>
        <time>2020-10-28T13:11:59.658Z</time>
      </trkpt>
      <trkpt lat="48.07913" lon="6.83653">
        <ele>872</ele>
        <time>2020-10-28T13:12:00.658Z</time>
      </trkpt>
      <trkpt lat="48.07913" lon="6.83651">
        <ele>872</ele>
        <time>2020-10-28T13:12:01.658Z</time>
      </trkpt>
      <trkpt lat="48.07913" lon="6.83649">
        <ele>873</ele>
        <time>2020-10-28T13:12:02.658Z</time>
      </trkpt>
      <trkpt lat="48.07912" lon="6.83646">
        <ele>873</ele>
        <time>2020-10-28T13:12:03.659Z</time>
      </trkpt>
      <trkpt lat="48.07912" lon="6.83643">
        <ele>874</ele>
        <time>2020-10-28T13:12:04.658Z</time>
      </trkpt>
      <trkpt lat="48.07912" lon="6.8364">
        <ele>875</ele>
        <time>2020-10-28T13:12:05.659Z</time>
      </trkpt>
      <trkpt lat="48.07911" lon="6.83638">
        <ele>875</ele>
        <time>2020-10-28T13:12:06.659Z</time>
      </trkpt>
      <trkpt lat="48.07911" lon="6.83636">
        <ele>874</ele>
        <time>2020-10-28T13:12:07.658Z</time>
      </trkpt>
      <trkpt lat="48.0791" lon="6.83634">
        <ele>874</ele>
        <time>2020-10-28T13:12:08.658Z</time>
      </trkpt>
      <trkpt lat="48.07909" lon="6.83631">
        <ele>874</ele>
        <time>2020-10-28T13:12:09.659Z</time>
      </trkpt>
      <trkpt lat="48.07909" lon="6.83628">
        <ele>874</ele>
        <time>2020-10-28T13:12:10.658Z</time>
      </trkpt>
      <trkpt lat="48.07908" lon="6.83626">
        <ele>873</ele>
        <time>2020-10-28T13:12:11.659Z</time>
      </trkpt>
      <trkpt lat="48.07908" lon="6.83624">
        <ele>872</ele>
        <time>2020-10-28T13:12:12.659Z</time>
      </trkpt>
      <trkpt lat="48.07908" lon="6.83622">
        <ele>871</ele>
        <time>2020-10-28T13:12:13.659Z</time>
      </trkpt>
      <trkpt lat="48.07908" lon="6.83619">
        <ele>871</ele>
        <time>2020-10-28T13:12:14.658Z</time>
      </trkpt>
      <trkpt lat="48.07907" lon="6.83617">
        <ele>871</ele>
        <time>2020-10-28T13:12:15.658Z</time>
      </trkpt>
      <trkpt lat="48.07907" lon="6.83615">
        <ele>871</ele>
        <time>2020-10-28T13:12:16.659Z</time>
      </trkpt>
      <trkpt lat="48.07906" lon="6.83613">
        <ele>871</ele>
        <time>2020-10-28T13:12:17.659Z</time>
      </trkpt>
      <trkpt lat="48.07906" lon="6.83611">
        <ele>870</ele>
        <time>2020-10-28T13:12:18.659Z</time>
      </trkpt>
      <trkpt lat="48.07906" lon="6.83609">
        <ele>869</ele>
        <time>2020-10-28T13:12:19.659Z</time>
      </trkpt>
      <trkpt lat="48.07905" lon="6.83607">
        <ele>868</ele>
        <time>2020-10-28T13:12:20.659Z</time>
      </trkpt>
      <trkpt lat="48.07905" lon="6.83605">
        <ele>867</ele>
        <time>2020-10-28T13:12:21.658Z</time>
      </trkpt>
      <trkpt lat="48.07905" lon="6.83603">
        <ele>867</ele>
        <time>2020-10-28T13:12:22.659Z</time>
      </trkpt>
      <trkpt lat="48.07904" lon="6.83602">
        <ele>866</ele>
        <time>2020-10-28T13:12:23.659Z</time>
      </trkpt>
      <trkpt lat="48.07904" lon="6.83599">
        <ele>866</ele>
        <time>2020-10-28T13:12:24.659Z</time>
      </trkpt>
      <trkpt lat="48.07903" lon="6.83597">
        <ele>865</ele>
        <time>2020-10-28T13:12:25.659Z</time>
      </trkpt>
      <trkpt lat="48.07903" lon="6.83595">
        <ele>865</ele>
        <time>2020-10-28T13:12:26.658Z</time>
      </trkpt>
      <trkpt lat="48.07902" lon="6.83593">
        <ele>865</ele>
        <time>2020-10-28T13:12:27.658Z</time>
      </trkpt>
      <trkpt lat="48.07902" lon="6.83591">
        <ele>864</ele>
        <time>2020-10-28T13:12:28.658Z</time>
      </trkpt>
      <trkpt lat="48.07902" lon="6.83588">
        <ele>864</ele>
        <time>2020-10-28T13:12:29.659Z</time>
      </trkpt>
      <trkpt lat="48.07901" lon="6.83586">
        <ele>864</ele>
        <time>2020-10-28T13:12:30.659Z</time>
      </trkpt>
      <trkpt lat="48.07901" lon="6.83584">
        <ele>864</ele>
        <time>2020-10-28T13:12:31.659Z</time>
      </trkpt>
      <trkpt lat="48.07901" lon="6.83582">
        <ele>864</ele>
        <time>2020-10-28T13:12:32.658Z</time>
      </trkpt>
      <trkpt lat="48.079" lon="6.83579">
        <ele>864</ele>
        <time>2020-10-28T13:12:33.659Z</time>
      </trkpt>
      <trkpt lat="48.079" lon="6.83577">
        <ele>864</ele>
        <time>2020-10-28T13:12:34.659Z</time>
      </trkpt>
      <trkpt lat="48.079" lon="6.83575">
        <ele>864</ele>
        <time>2020-10-28T13:12:35.659Z</time>
      </trkpt>
      <trkpt lat="48.079" lon="6.83573">
        <ele>864</ele>
        <time>2020-10-28T13:12:36.659Z</time>
      </trkpt>
      <trkpt lat="48.07899" lon="6.83571">
        <ele>864</ele>
        <time>2020-10-28T13:12:37.658Z</time>
      </trkpt>
      <trkpt lat="48.07899" lon="6.83569">
        <ele>864</ele>
        <time>2020-10-28T13:12:38.659Z</time>
      </trkpt>
      <trkpt lat="48.07899" lon="6.83566">
        <ele>864</ele>
        <time>2020-10-28T13:12:39.659Z</time>
      </trkpt>
      <trkpt lat="48.07898" lon="6.83564">
        <ele>864</ele>
        <time>2020-10-28T13:12:40.659Z</time>
      </trkpt>
      <trkpt lat="48.07898" lon="6.83563">
        <ele>864</ele>
        <time>2020-10-28T13:12:41.659Z</time>
      </trkpt>
      <trkpt lat="48.07898" lon="6.83561">
        <ele>863</ele>
        <time>2020-10-28T13:12:42.658Z</time>
      </trkpt>
      <trkpt lat="48.07897" lon="6.83559">
        <ele>863</ele>
        <time>2020-10-28T13:12:43.658Z</time>
      </trkpt>
      <trkpt lat="48.07896" lon="6.83558">
        <ele>862</ele>
        <time>2020-10-28T13:12:44.658Z</time>
      </trkpt>
      <trkpt lat="48.07896" lon="6.83555">
        <ele>862</ele>
        <time>2020-10-28T13:12:45.659Z</time>
      </trkpt>
      <trkpt lat="48.07896" lon="6.83553">
        <ele>861</ele>
        <time>2020-10-28T13:12:46.658Z</time>
      </trkpt>
      <trkpt lat="48.07895" lon="6.83551">
        <ele>861</ele>
        <time>2020-10-28T13:12:47.659Z</time>
      </trkpt>
      <trkpt lat="48.07895" lon="6.83549">
        <ele>861</ele>
        <time>2020-10-28T13:12:48.659Z</time>
      </trkpt>
      <trkpt lat="48.07895" lon="6.83547">
        <ele>861</ele>
        <time>2020-10-28T13:12:49.658Z</time>
      </trkpt>
      <trkpt lat="48.07894" lon="6.83545">
        <ele>861</ele>
        <time>2020-10-28T13:12:50.659Z</time>
      </trkpt>
      <trkpt lat="48.07894" lon="6.83543">
        <ele>861</ele>
        <time>2020-10-28T13:12:51.659Z</time>
      </trkpt>
      <trkpt lat="48.07894" lon="6.83541">
        <ele>861</ele>
        <time>2020-10-28T13:12:52.658Z</time>
      </trkpt>
      <trkpt lat="48.07893" lon="6.83538">
        <ele>861</ele>
        <time>2020-10-28T13:12:53.659Z</time>
      </trkpt>
      <trkpt lat="48.07893" lon="6.83537">
        <ele>861</ele>
        <time>2020-10-28T13:12:54.658Z</time>
      </trkpt>
      <trkpt lat="48.07892" lon="6.83535">
        <ele>861</ele>
        <time>2020-10-28T13:12:55.659Z</time>
      </trkpt>
      <trkpt lat="48.07892" lon="6.83533">
        <ele>861</ele>
        <time>2020-10-28T13:12:56.658Z</time>
      </trkpt>
      <trkpt lat="48.07891" lon="6.8353">
        <ele>861</ele>
        <time>2020-10-28T13:12:57.659Z</time>
      </trkpt>
      <trkpt lat="48.07891" lon="6.83528">
        <ele>861</ele>
        <time>2020-10-28T13:12:58.659Z</time>
      </trkpt>
      <trkpt lat="48.0789" lon="6.83526">
        <ele>862</ele>
        <time>2020-10-28T13:12:59.659Z</time>
      </trkpt>
      <trkpt lat="48.0789" lon="6.83524">
        <ele>862</ele>
        <time>2020-10-28T13:13:00.659Z</time>
      </trkpt>
      <trkpt lat="48.0789" lon="6.83521">
        <ele>862</ele>
        <time>2020-10-28T13:13:01.659Z</time>
      </trkpt>
      <trkpt lat="48.0789" lon="6.83518">
        <ele>863</ele>
        <time>2020-10-28T13:13:02.659Z</time>
      </trkpt>
      <trkpt lat="48.07889" lon="6.83516">
        <ele>862</ele>
        <time>2020-10-28T13:13:03.659Z</time>
      </trkpt>
      <trkpt lat="48.07889" lon="6.83514">
        <ele>862</ele>
        <time>2020-10-28T13:13:04.659Z</time>
      </trkpt>
      <trkpt lat="48.07888" lon="6.83512">
        <ele>861</ele>
        <time>2020-10-28T13:13:05.659Z</time>
      </trkpt>
      <trkpt lat="48.07887" lon="6.83511">
        <ele>861</ele>
        <time>2020-10-28T13:13:06.659Z</time>
      </trkpt>
      <trkpt lat="48.07887" lon="6.83508">
        <ele>860</ele>
        <time>2020-10-28T13:13:07.658Z</time>
      </trkpt>
      <trkpt lat="48.07887" lon="6.83506">
        <ele>861</ele>
        <time>2020-10-28T13:13:08.659Z</time>
      </trkpt>
      <trkpt lat="48.07886" lon="6.83504">
        <ele>861</ele>
        <time>2020-10-28T13:13:09.658Z</time>
      </trkpt>
      <trkpt lat="48.07886" lon="6.83502">
        <ele>861</ele>
        <time>2020-10-28T13:13:10.659Z</time>
      </trkpt>
      <trkpt lat="48.07886" lon="6.835">
        <ele>860</ele>
        <time>2020-10-28T13:13:11.659Z</time>
      </trkpt>
      <trkpt lat="48.07885" lon="6.83498">
        <ele>860</ele>
        <time>2020-10-28T13:13:12.659Z</time>
      </trkpt>
      <trkpt lat="48.07884" lon="6.83497">
        <ele>860</ele>
        <time>2020-10-28T13:13:13.659Z</time>
      </trkpt>
      <trkpt lat="48.07884" lon="6.83495">
        <ele>859</ele>
        <time>2020-10-28T13:13:14.658Z</time>
      </trkpt>
      <trkpt lat="48.07883" lon="6.83493">
        <ele>859</ele>
        <time>2020-10-28T13:13:15.658Z</time>
      </trkpt>
      <trkpt lat="48.07881" lon="6.83491">
        <ele>858</ele>
        <time>2020-10-28T13:13:16.659Z</time>
      </trkpt>
      <trkpt lat="48.0788" lon="6.8349">
        <ele>857</ele>
        <time>2020-10-28T13:13:17.659Z</time>
      </trkpt>
      <trkpt lat="48.07879" lon="6.83489">
        <ele>857</ele>
        <time>2020-10-28T13:13:18.659Z</time>
      </trkpt>
      <trkpt lat="48.07878" lon="6.83487">
        <ele>856</ele>
        <time>2020-10-28T13:13:19.659Z</time>
      </trkpt>
      <trkpt lat="48.07877" lon="6.83486">
        <ele>855</ele>
        <time>2020-10-28T13:13:20.659Z</time>
      </trkpt>
      <trkpt lat="48.07876" lon="6.83484">
        <ele>855</ele>
        <time>2020-10-28T13:13:21.659Z</time>
      </trkpt>
      <trkpt lat="48.07876" lon="6.83483">
        <ele>854</ele>
        <time>2020-10-28T13:13:22.658Z</time>
      </trkpt>
      <trkpt lat="48.07875" lon="6.83481">
        <ele>854</ele>
        <time>2020-10-28T13:13:23.659Z</time>
      </trkpt>
      <trkpt lat="48.07874" lon="6.83479">
        <ele>854</ele>
        <time>2020-10-28T13:13:24.659Z</time>
      </trkpt>
      <trkpt lat="48.07874" lon="6.83478">
        <ele>854</ele>
        <time>2020-10-28T13:13:25.658Z</time>
      </trkpt>
      <trkpt lat="48.07873" lon="6.83476">
        <ele>854</ele>
        <time>2020-10-28T13:13:26.659Z</time>
      </trkpt>
      <trkpt lat="48.07873" lon="6.83472">
        <ele>854</ele>
        <time>2020-10-28T13:13:27.659Z</time>
      </trkpt>
      <trkpt lat="48.07873" lon="6.83471">
        <ele>854</ele>
        <time>2020-10-28T13:13:28.658Z</time>
      </trkpt>
      <trkpt lat="48.07872" lon="6.83467">
        <ele>855</ele>
        <time>2020-10-28T13:13:29.659Z</time>
      </trkpt>
      <trkpt lat="48.07871" lon="6.83465">
        <ele>854</ele>
        <time>2020-10-28T13:13:30.658Z</time>
      </trkpt>
      <trkpt lat="48.0787" lon="6.83464">
        <ele>854</ele>
        <time>2020-10-28T13:13:31.659Z</time>
      </trkpt>
      <trkpt lat="48.07869" lon="6.83463">
        <ele>854</ele>
        <time>2020-10-28T13:13:32.658Z</time>
      </trkpt>
      <trkpt lat="48.07868" lon="6.83462">
        <ele>853</ele>
        <time>2020-10-28T13:13:33.659Z</time>
      </trkpt>
      <trkpt lat="48.07868" lon="6.8346">
        <ele>853</ele>
        <time>2020-10-28T13:13:34.659Z</time>
      </trkpt>
      <trkpt lat="48.07867" lon="6.83458">
        <ele>853</ele>
        <time>2020-10-28T13:13:35.658Z</time>
      </trkpt>
      <trkpt lat="48.07866" lon="6.83457">
        <ele>853</ele>
        <time>2020-10-28T13:13:36.658Z</time>
      </trkpt>
      <trkpt lat="48.07865" lon="6.83455">
        <ele>853</ele>
        <time>2020-10-28T13:13:37.659Z</time>
      </trkpt>
      <trkpt lat="48.07864" lon="6.83454">
        <ele>852</ele>
        <time>2020-10-28T13:13:38.658Z</time>
      </trkpt>
      <trkpt lat="48.07863" lon="6.83452">
        <ele>852</ele>
        <time>2020-10-28T13:13:39.658Z</time>
      </trkpt>
      <trkpt lat="48.07863" lon="6.8345">
        <ele>852</ele>
        <time>2020-10-28T13:13:40.659Z</time>
      </trkpt>
      <trkpt lat="48.07862" lon="6.83448">
        <ele>852</ele>
        <time>2020-10-28T13:13:41.659Z</time>
      </trkpt>
      <trkpt lat="48.07862" lon="6.83446">
        <ele>853</ele>
        <time>2020-10-28T13:13:42.659Z</time>
      </trkpt>
      <trkpt lat="48.07861" lon="6.83445">
        <ele>853</ele>
        <time>2020-10-28T13:13:43.659Z</time>
      </trkpt>
      <trkpt lat="48.0786" lon="6.83443">
        <ele>852</ele>
        <time>2020-10-28T13:13:44.659Z</time>
      </trkpt>
      <trkpt lat="48.0786" lon="6.8344">
        <ele>852</ele>
        <time>2020-10-28T13:13:45.659Z</time>
      </trkpt>
      <trkpt lat="48.0786" lon="6.83438">
        <ele>852</ele>
        <time>2020-10-28T13:13:46.659Z</time>
      </trkpt>
      <trkpt lat="48.07859" lon="6.83436">
        <ele>852</ele>
        <time>2020-10-28T13:13:47.659Z</time>
      </trkpt>
      <trkpt lat="48.07859" lon="6.83433">
        <ele>852</ele>
        <time>2020-10-28T13:13:48.659Z</time>
      </trkpt>
      <trkpt lat="48.07858" lon="6.83431">
        <ele>852</ele>
        <time>2020-10-28T13:13:49.659Z</time>
      </trkpt>
      <trkpt lat="48.07858" lon="6.83429">
        <ele>851</ele>
        <time>2020-10-28T13:13:50.659Z</time>
      </trkpt>
      <trkpt lat="48.07857" lon="6.83426">
        <ele>851</ele>
        <time>2020-10-28T13:13:51.659Z</time>
      </trkpt>
      <trkpt lat="48.07857" lon="6.83424">
        <ele>851</ele>
        <time>2020-10-28T13:13:52.659Z</time>
      </trkpt>
      <trkpt lat="48.07857" lon="6.83422">
        <ele>852</ele>
        <time>2020-10-28T13:13:53.659Z</time>
      </trkpt>
      <trkpt lat="48.07857" lon="6.8342">
        <ele>852</ele>
        <time>2020-10-28T13:13:57.815Z</time>
      </trkpt>
      <trkpt lat="48.07856" lon="6.83418">
        <ele>853</ele>
        <time>2020-10-28T13:13:58.816Z</time>
      </trkpt>
      <trkpt lat="48.07856" lon="6.83415">
        <ele>853</ele>
        <time>2020-10-28T13:13:59.815Z</time>
      </trkpt>
      <trkpt lat="48.07856" lon="6.83413">
        <ele>853</ele>
        <time>2020-10-28T13:14:00.816Z</time>
      </trkpt>
      <trkpt lat="48.07856" lon="6.83411">
        <ele>853</ele>
        <time>2020-10-28T13:14:01.816Z</time>
      </trkpt>
      <trkpt lat="48.07856" lon="6.83409">
        <ele>853</ele>
        <time>2020-10-28T13:14:02.815Z</time>
      </trkpt>
      <trkpt lat="48.07856" lon="6.83406">
        <ele>853</ele>
        <time>2020-10-28T13:14:03.815Z</time>
      </trkpt>
      <trkpt lat="48.07856" lon="6.83404">
        <ele>853</ele>
        <time>2020-10-28T13:14:04.815Z</time>
      </trkpt>
      <trkpt lat="48.07855" lon="6.83401">
        <ele>853</ele>
        <time>2020-10-28T13:14:05.816Z</time>
      </trkpt>
      <trkpt lat="48.07854" lon="6.83399">
        <ele>852</ele>
        <time>2020-10-28T13:14:06.816Z</time>
      </trkpt>
      <trkpt lat="48.07854" lon="6.83397">
        <ele>852</ele>
        <time>2020-10-28T13:14:07.816Z</time>
      </trkpt>
      <trkpt lat="48.07854" lon="6.83395">
        <ele>852</ele>
        <time>2020-10-28T13:14:08.816Z</time>
      </trkpt>
      <trkpt lat="48.07854" lon="6.83393">
        <ele>852</ele>
        <time>2020-10-28T13:14:09.816Z</time>
      </trkpt>
      <trkpt lat="48.07853" lon="6.83391">
        <ele>852</ele>
        <time>2020-10-28T13:14:10.816Z</time>
      </trkpt>
      <trkpt lat="48.07853" lon="6.83389">
        <ele>852</ele>
        <time>2020-10-28T13:14:11.816Z</time>
      </trkpt>
      <trkpt lat="48.07853" lon="6.83386">
        <ele>852</ele>
        <time>2020-10-28T13:14:12.815Z</time>
      </trkpt>
      <trkpt lat="48.07852" lon="6.83384">
        <ele>851</ele>
        <time>2020-10-28T13:14:13.816Z</time>
      </trkpt>
      <trkpt lat="48.07852" lon="6.83382">
        <ele>851</ele>
        <time>2020-10-28T13:14:14.815Z</time>
      </trkpt>
      <trkpt lat="48.07852" lon="6.8338">
        <ele>851</ele>
        <time>2020-10-28T13:14:15.816Z</time>
      </trkpt>
      <trkpt lat="48.07851" lon="6.83378">
        <ele>850</ele>
        <time>2020-10-28T13:14:16.816Z</time>
      </trkpt>
      <trkpt lat="48.07851" lon="6.83375">
        <ele>850</ele>
        <time>2020-10-28T13:14:17.816Z</time>
      </trkpt>
      <trkpt lat="48.07851" lon="6.83373">
        <ele>849</ele>
        <time>2020-10-28T13:14:18.816Z</time>
      </trkpt>
      <trkpt lat="48.07851" lon="6.83371">
        <ele>848</ele>
        <time>2020-10-28T13:14:19.816Z</time>
      </trkpt>
      <trkpt lat="48.07851" lon="6.83368">
        <ele>847</ele>
        <time>2020-10-28T13:14:20.816Z</time>
      </trkpt>
      <trkpt lat="48.07851" lon="6.83366">
        <ele>846</ele>
        <time>2020-10-28T13:14:21.816Z</time>
      </trkpt>
      <trkpt lat="48.07851" lon="6.83364">
        <ele>845</ele>
        <time>2020-10-28T13:14:22.816Z</time>
      </trkpt>
      <trkpt lat="48.07851" lon="6.83362">
        <ele>845</ele>
        <time>2020-10-28T13:14:28.882Z</time>
      </trkpt>
      <trkpt lat="48.0785" lon="6.8336">
        <ele>845</ele>
        <time>2020-10-28T13:14:29.882Z</time>
      </trkpt>
      <trkpt lat="48.0785" lon="6.83358">
        <ele>845</ele>
        <time>2020-10-28T13:14:30.882Z</time>
      </trkpt>
      <trkpt lat="48.0785" lon="6.83356">
        <ele>845</ele>
        <time>2020-10-28T13:14:57.055Z</time>
      </trkpt>
      <trkpt lat="48.0785" lon="6.83355">
        <ele>844</ele>
        <time>2020-10-28T13:14:58.055Z</time>
      </trkpt>
      <trkpt lat="48.07849" lon="6.83353">
        <ele>844</ele>
        <time>2020-10-28T13:14:59.055Z</time>
      </trkpt>
      <trkpt lat="48.07849" lon="6.83351">
        <ele>844</ele>
        <time>2020-10-28T13:15:00.055Z</time>
      </trkpt>
      <trkpt lat="48.07849" lon="6.83349">
        <ele>843</ele>
        <time>2020-10-28T13:15:01.055Z</time>
      </trkpt>
      <trkpt lat="48.07849" lon="6.83347">
        <ele>843</ele>
        <time>2020-10-28T13:15:02.055Z</time>
      </trkpt>
      <trkpt lat="48.07849" lon="6.83345">
        <ele>843</ele>
        <time>2020-10-28T13:15:03.055Z</time>
      </trkpt>
      <trkpt lat="48.07849" lon="6.83343">
        <ele>843</ele>
        <time>2020-10-28T13:15:04.055Z</time>
      </trkpt>
      <trkpt lat="48.07848" lon="6.83342">
        <ele>843</ele>
        <time>2020-10-28T13:15:05.055Z</time>
      </trkpt>
      <trkpt lat="48.07848" lon="6.83342">
        <ele>843</ele>
        <time>2020-10-28T13:15:06.055Z</time>
      </trkpt>
      <trkpt lat="48.07848" lon="6.83342">
        <ele>843</ele>
        <time>2020-10-28T13:15:07.055Z</time>
      </trkpt>
      <trkpt lat="48.07847" lon="6.83344">
        <ele>843</ele>
        <time>2020-10-28T13:15:08.056Z</time>
      </trkpt>
      <trkpt lat="48.07846" lon="6.83344">
        <ele>843</ele>
        <time>2020-10-28T13:15:09.056Z</time>
      </trkpt>
      <trkpt lat="48.07846" lon="6.83345">
        <ele>843</ele>
        <time>2020-10-28T13:15:10.055Z</time>
      </trkpt>
      <trkpt lat="48.07846" lon="6.83342">
        <ele>848</ele>
        <time>2020-10-28T13:15:11.057Z</time>
      </trkpt>
      <trkpt lat="48.07847" lon="6.8334">
        <ele>847</ele>
        <time>2020-10-28T13:15:12.057Z</time>
      </trkpt>
      <trkpt lat="48.07847" lon="6.83338">
        <ele>848</ele>
        <time>2020-10-28T13:15:13.056Z</time>
      </trkpt>
      <trkpt lat="48.07847" lon="6.83337">
        <ele>848</ele>
        <time>2020-10-28T13:15:14.057Z</time>
      </trkpt>
      <trkpt lat="48.07848" lon="6.83335">
        <ele>848</ele>
        <time>2020-10-28T13:15:15.056Z</time>
      </trkpt>
      <trkpt lat="48.07847" lon="6.83332">
        <ele>848</ele>
        <time>2020-10-28T13:15:16.057Z</time>
      </trkpt>
      <trkpt lat="48.07847" lon="6.8333">
        <ele>849</ele>
        <time>2020-10-28T13:15:17.057Z</time>
      </trkpt>
      <trkpt lat="48.07847" lon="6.83327">
        <ele>849</ele>
        <time>2020-10-28T13:15:18.056Z</time>
      </trkpt>
      <trkpt lat="48.07846" lon="6.83324">
        <ele>850</ele>
        <time>2020-10-28T13:15:19.057Z</time>
      </trkpt>
      <trkpt lat="48.07846" lon="6.83321">
        <ele>850</ele>
        <time>2020-10-28T13:15:20.057Z</time>
      </trkpt>
      <trkpt lat="48.07846" lon="6.83318">
        <ele>850</ele>
        <time>2020-10-28T13:15:21.057Z</time>
      </trkpt>
      <trkpt lat="48.07845" lon="6.83315">
        <ele>850</ele>
        <time>2020-10-28T13:15:22.057Z</time>
      </trkpt>
      <trkpt lat="48.07844" lon="6.83311">
        <ele>850</ele>
        <time>2020-10-28T13:15:23.057Z</time>
      </trkpt>
      <trkpt lat="48.07843" lon="6.83308">
        <ele>850</ele>
        <time>2020-10-28T13:15:24.057Z</time>
      </trkpt>
      <trkpt lat="48.07843" lon="6.83306">
        <ele>850</ele>
        <time>2020-10-28T13:15:25.056Z</time>
      </trkpt>
      <trkpt lat="48.07842" lon="6.83304">
        <ele>849</ele>
        <time>2020-10-28T13:15:26.056Z</time>
      </trkpt>
      <trkpt lat="48.07842" lon="6.83303">
        <ele>849</ele>
        <time>2020-10-28T13:15:28.109Z</time>
      </trkpt>
      <trkpt lat="48.07841" lon="6.83301">
        <ele>849</ele>
        <time>2020-10-28T13:15:29.109Z</time>
      </trkpt>
      <trkpt lat="48.07841" lon="6.83299">
        <ele>848</ele>
        <time>2020-10-28T13:15:30.110Z</time>
      </trkpt>
      <trkpt lat="48.0784" lon="6.83296">
        <ele>848</ele>
        <time>2020-10-28T13:15:31.110Z</time>
      </trkpt>
      <trkpt lat="48.07839" lon="6.83293">
        <ele>848</ele>
        <time>2020-10-28T13:15:32.110Z</time>
      </trkpt>
      <trkpt lat="48.07839" lon="6.8329">
        <ele>848</ele>
        <time>2020-10-28T13:15:33.109Z</time>
      </trkpt>
      <trkpt lat="48.07839" lon="6.83289">
        <ele>848</ele>
        <time>2020-10-28T13:15:35.111Z</time>
      </trkpt>
      <trkpt lat="48.07839" lon="6.83287">
        <ele>848</ele>
        <time>2020-10-28T13:15:36.112Z</time>
      </trkpt>
      <trkpt lat="48.07839" lon="6.83284">
        <ele>848</ele>
        <time>2020-10-28T13:15:37.111Z</time>
      </trkpt>
      <trkpt lat="48.07839" lon="6.83282">
        <ele>848</ele>
        <time>2020-10-28T13:15:38.112Z</time>
      </trkpt>
      <trkpt lat="48.07839" lon="6.8328">
        <ele>849</ele>
        <time>2020-10-28T13:15:39.111Z</time>
      </trkpt>
      <trkpt lat="48.07839" lon="6.83279">
        <ele>848</ele>
        <time>2020-10-28T13:15:40.112Z</time>
      </trkpt>
      <trkpt lat="48.07839" lon="6.83277">
        <ele>848</ele>
        <time>2020-10-28T13:15:41.111Z</time>
      </trkpt>
      <trkpt lat="48.07838" lon="6.83275">
        <ele>848</ele>
        <time>2020-10-28T13:15:42.112Z</time>
      </trkpt>
      <trkpt lat="48.07838" lon="6.83272">
        <ele>847</ele>
        <time>2020-10-28T13:15:43.111Z</time>
      </trkpt>
      <trkpt lat="48.07838" lon="6.8327">
        <ele>848</ele>
        <time>2020-10-28T13:15:44.111Z</time>
      </trkpt>
      <trkpt lat="48.07838" lon="6.83268">
        <ele>848</ele>
        <time>2020-10-28T13:15:45.112Z</time>
      </trkpt>
      <trkpt lat="48.07837" lon="6.83266">
        <ele>847</ele>
        <time>2020-10-28T13:15:46.112Z</time>
      </trkpt>
      <trkpt lat="48.07837" lon="6.83263">
        <ele>847</ele>
        <time>2020-10-28T13:15:47.111Z</time>
      </trkpt>
      <trkpt lat="48.07838" lon="6.8326">
        <ele>846</ele>
        <time>2020-10-28T13:15:48.111Z</time>
      </trkpt>
      <trkpt lat="48.07837" lon="6.83257">
        <ele>846</ele>
        <time>2020-10-28T13:15:49.111Z</time>
      </trkpt>
      <trkpt lat="48.07837" lon="6.83254">
        <ele>845</ele>
        <time>2020-10-28T13:15:50.112Z</time>
      </trkpt>
      <trkpt lat="48.07837" lon="6.83252">
        <ele>845</ele>
        <time>2020-10-28T13:15:53.109Z</time>
      </trkpt>
      <trkpt lat="48.07836" lon="6.83249">
        <ele>844</ele>
        <time>2020-10-28T13:15:54.110Z</time>
      </trkpt>
      <trkpt lat="48.07836" lon="6.83247">
        <ele>844</ele>
        <time>2020-10-28T13:15:55.110Z</time>
      </trkpt>
      <trkpt lat="48.07836" lon="6.83245">
        <ele>843</ele>
        <time>2020-10-28T13:15:56.109Z</time>
      </trkpt>
      <trkpt lat="48.07836" lon="6.83243">
        <ele>843</ele>
        <time>2020-10-28T13:15:57.110Z</time>
      </trkpt>
      <trkpt lat="48.07836" lon="6.83242">
        <ele>843</ele>
        <time>2020-10-28T13:15:58.110Z</time>
      </trkpt>
      <trkpt lat="48.07836" lon="6.8324">
        <ele>842</ele>
        <time>2020-10-28T13:15:59.109Z</time>
      </trkpt>
      <trkpt lat="48.07836" lon="6.83238">
        <ele>842</ele>
        <time>2020-10-28T13:16:00.109Z</time>
      </trkpt>
      <trkpt lat="48.07836" lon="6.83236">
        <ele>842</ele>
        <time>2020-10-28T13:16:01.109Z</time>
      </trkpt>
      <trkpt lat="48.07836" lon="6.83234">
        <ele>841</ele>
        <time>2020-10-28T13:16:02.110Z</time>
      </trkpt>
      <trkpt lat="48.07836" lon="6.83232">
        <ele>841</ele>
        <time>2020-10-28T13:16:03.109Z</time>
      </trkpt>
      <trkpt lat="48.07835" lon="6.8323">
        <ele>841</ele>
        <time>2020-10-28T13:16:04.109Z</time>
      </trkpt>
      <trkpt lat="48.07835" lon="6.83227">
        <ele>842</ele>
        <time>2020-10-28T13:16:06.112Z</time>
      </trkpt>
      <trkpt lat="48.07835" lon="6.83224">
        <ele>842</ele>
        <time>2020-10-28T13:16:07.112Z</time>
      </trkpt>
      <trkpt lat="48.07835" lon="6.83222">
        <ele>841</ele>
        <time>2020-10-28T13:16:08.112Z</time>
      </trkpt>
      <trkpt lat="48.07835" lon="6.8322">
        <ele>841</ele>
        <time>2020-10-28T13:16:09.113Z</time>
      </trkpt>
      <trkpt lat="48.07835" lon="6.83218">
        <ele>841</ele>
        <time>2020-10-28T13:16:10.112Z</time>
      </trkpt>
      <trkpt lat="48.07834" lon="6.83216">
        <ele>841</ele>
        <time>2020-10-28T13:16:11.112Z</time>
      </trkpt>
      <trkpt lat="48.07834" lon="6.83214">
        <ele>841</ele>
        <time>2020-10-28T13:16:12.112Z</time>
      </trkpt>
      <trkpt lat="48.07834" lon="6.83212">
        <ele>841</ele>
        <time>2020-10-28T13:16:13.112Z</time>
      </trkpt>
      <trkpt lat="48.07833" lon="6.8321">
        <ele>842</ele>
        <time>2020-10-28T13:16:14.112Z</time>
      </trkpt>
      <trkpt lat="48.07833" lon="6.83208">
        <ele>841</ele>
        <time>2020-10-28T13:16:15.112Z</time>
      </trkpt>
      <trkpt lat="48.07833" lon="6.83205">
        <ele>841</ele>
        <time>2020-10-28T13:16:16.112Z</time>
      </trkpt>
      <trkpt lat="48.07832" lon="6.83203">
        <ele>840</ele>
        <time>2020-10-28T13:16:18.117Z</time>
      </trkpt>
      <trkpt lat="48.07832" lon="6.83201">
        <ele>840</ele>
        <time>2020-10-28T13:16:19.118Z</time>
      </trkpt>
      <trkpt lat="48.07831" lon="6.83199">
        <ele>840</ele>
        <time>2020-10-28T13:16:20.117Z</time>
      </trkpt>
      <trkpt lat="48.07831" lon="6.83196">
        <ele>840</ele>
        <time>2020-10-28T13:16:21.118Z</time>
      </trkpt>
      <trkpt lat="48.07831" lon="6.83194">
        <ele>840</ele>
        <time>2020-10-28T13:16:22.117Z</time>
      </trkpt>
      <trkpt lat="48.07831" lon="6.83192">
        <ele>839</ele>
        <time>2020-10-28T13:16:23.117Z</time>
      </trkpt>
      <trkpt lat="48.07831" lon="6.8319">
        <ele>839</ele>
        <time>2020-10-28T13:16:24.118Z</time>
      </trkpt>
      <trkpt lat="48.0783" lon="6.83187">
        <ele>840</ele>
        <time>2020-10-28T13:16:25.118Z</time>
      </trkpt>
      <trkpt lat="48.07829" lon="6.83186">
        <ele>839</ele>
        <time>2020-10-28T13:16:26.118Z</time>
      </trkpt>
      <trkpt lat="48.07829" lon="6.83184">
        <ele>839</ele>
        <time>2020-10-28T13:16:27.118Z</time>
      </trkpt>
      <trkpt lat="48.07828" lon="6.83182">
        <ele>839</ele>
        <time>2020-10-28T13:16:28.117Z</time>
      </trkpt>
      <trkpt lat="48.07828" lon="6.8318">
        <ele>839</ele>
        <time>2020-10-28T13:16:29.117Z</time>
      </trkpt>
      <trkpt lat="48.07828" lon="6.83177">
        <ele>839</ele>
        <time>2020-10-28T13:16:30.117Z</time>
      </trkpt>
      <trkpt lat="48.07827" lon="6.83175">
        <ele>839</ele>
        <time>2020-10-28T13:16:31.117Z</time>
      </trkpt>
      <trkpt lat="48.07827" lon="6.83173">
        <ele>839</ele>
        <time>2020-10-28T13:16:32.117Z</time>
      </trkpt>
      <trkpt lat="48.07827" lon="6.83171">
        <ele>839</ele>
        <time>2020-10-28T13:16:33.117Z</time>
      </trkpt>
      <trkpt lat="48.07826" lon="6.8317">
        <ele>839</ele>
        <time>2020-10-28T13:16:34.117Z</time>
      </trkpt>
      <trkpt lat="48.07826" lon="6.8317">
        <ele>839</ele>
        <time>2020-10-28T13:16:35.118Z</time>
      </trkpt>
      <trkpt lat="48.07825" lon="6.8317">
        <ele>839</ele>
        <time>2020-10-28T13:16:36.117Z</time>
      </trkpt>
      <trkpt lat="48.07825" lon="6.8317">
        <ele>839</ele>
        <time>2020-10-28T13:16:37.117Z</time>
      </trkpt>
      <trkpt lat="48.07825" lon="6.83171">
        <ele>840</ele>
        <time>2020-10-28T13:16:38.117Z</time>
      </trkpt>
      <trkpt lat="48.07824" lon="6.83173">
        <ele>841</ele>
        <time>2020-10-28T13:16:39.117Z</time>
      </trkpt>
      <trkpt lat="48.07824" lon="6.83174">
        <ele>841</ele>
        <time>2020-10-28T13:16:40.118Z</time>
      </trkpt>
      <trkpt lat="48.07823" lon="6.83176">
        <ele>842</ele>
        <time>2020-10-28T13:16:41.118Z</time>
      </trkpt>
      <trkpt lat="48.07822" lon="6.83177">
        <ele>843</ele>
        <time>2020-10-28T13:16:42.118Z</time>
      </trkpt>
      <trkpt lat="48.07822" lon="6.83178">
        <ele>843</ele>
        <time>2020-10-28T13:16:43.118Z</time>
      </trkpt>
      <trkpt lat="48.07822" lon="6.8318">
        <ele>843</ele>
        <time>2020-10-28T13:16:44.117Z</time>
      </trkpt>
      <trkpt lat="48.07822" lon="6.83182">
        <ele>843</ele>
        <time>2020-10-28T13:16:45.118Z</time>
      </trkpt>
      <trkpt lat="48.07821" lon="6.83183">
        <ele>843</ele>
        <time>2020-10-28T13:16:46.118Z</time>
      </trkpt>
      <trkpt lat="48.07821" lon="6.83184">
        <ele>843</ele>
        <time>2020-10-28T13:16:47.118Z</time>
      </trkpt>
      <trkpt lat="48.07821" lon="6.83186">
        <ele>843</ele>
        <time>2020-10-28T13:16:48.117Z</time>
      </trkpt>
      <trkpt lat="48.0782" lon="6.83187">
        <ele>842</ele>
        <time>2020-10-28T13:16:49.118Z</time>
      </trkpt>
      <trkpt lat="48.0782" lon="6.83189">
        <ele>842</ele>
        <time>2020-10-28T13:16:50.117Z</time>
      </trkpt>
      <trkpt lat="48.0782" lon="6.83189">
        <ele>842</ele>
        <time>2020-10-28T13:16:51.118Z</time>
      </trkpt>
      <trkpt lat="48.0782" lon="6.8319">
        <ele>842</ele>
        <time>2020-10-28T13:16:52.117Z</time>
      </trkpt>
      <trkpt lat="48.0782" lon="6.83191">
        <ele>842</ele>
        <time>2020-10-28T13:16:53.118Z</time>
      </trkpt>
      <trkpt lat="48.07821" lon="6.83192">
        <ele>842</ele>
        <time>2020-10-28T13:16:54.118Z</time>
      </trkpt>
      <trkpt lat="48.07821" lon="6.83193">
        <ele>841</ele>
        <time>2020-10-28T13:16:55.117Z</time>
      </trkpt>
      <trkpt lat="48.07821" lon="6.83194">
        <ele>841</ele>
        <time>2020-10-28T13:16:56.117Z</time>
      </trkpt>
      <trkpt lat="48.0782" lon="6.83196">
        <ele>841</ele>
        <time>2020-10-28T13:16:57.118Z</time>
      </trkpt>
      <trkpt lat="48.0782" lon="6.83197">
        <ele>841</ele>
        <time>2020-10-28T13:16:58.117Z</time>
      </trkpt>
      <trkpt lat="48.0782" lon="6.83199">
        <ele>841</ele>
        <time>2020-10-28T13:16:59.117Z</time>
      </trkpt>
      <trkpt lat="48.07819" lon="6.83202">
        <ele>841</ele>
        <time>2020-10-28T13:17:00.118Z</time>
      </trkpt>
      <trkpt lat="48.07818" lon="6.83205">
        <ele>841</ele>
        <time>2020-10-28T13:17:01.117Z</time>
      </trkpt>
      <trkpt lat="48.07818" lon="6.83207">
        <ele>841</ele>
        <time>2020-10-28T13:17:02.117Z</time>
      </trkpt>
      <trkpt lat="48.07818" lon="6.83209">
        <ele>842</ele>
        <time>2020-10-28T13:17:03.118Z</time>
      </trkpt>
      <trkpt lat="48.07817" lon="6.83211">
        <ele>842</ele>
        <time>2020-10-28T13:17:04.117Z</time>
      </trkpt>
      <trkpt lat="48.07817" lon="6.83213">
        <ele>842</ele>
        <time>2020-10-28T13:17:05.117Z</time>
      </trkpt>
      <trkpt lat="48.07816" lon="6.83214">
        <ele>842</ele>
        <time>2020-10-28T13:17:06.117Z</time>
      </trkpt>
      <trkpt lat="48.07815" lon="6.83216">
        <ele>842</ele>
        <time>2020-10-28T13:17:07.118Z</time>
      </trkpt>
      <trkpt lat="48.07816" lon="6.83217">
        <ele>841</ele>
        <time>2020-10-28T13:17:08.118Z</time>
      </trkpt>
      <trkpt lat="48.07816" lon="6.83217">
        <ele>841</ele>
        <time>2020-10-28T13:17:09.118Z</time>
      </trkpt>
      <trkpt lat="48.07816" lon="6.83218">
        <ele>841</ele>
        <time>2020-10-28T13:17:10.117Z</time>
      </trkpt>
      <trkpt lat="48.07816" lon="6.83218">
        <ele>841</ele>
        <time>2020-10-28T13:17:11.118Z</time>
      </trkpt>
      <trkpt lat="48.07815" lon="6.83218">
        <ele>841</ele>
        <time>2020-10-28T13:17:12.118Z</time>
      </trkpt>
      <trkpt lat="48.07815" lon="6.83219">
        <ele>841</ele>
        <time>2020-10-28T13:17:13.118Z</time>
      </trkpt>
      <trkpt lat="48.07815" lon="6.8322">
        <ele>841</ele>
        <time>2020-10-28T13:17:14.118Z</time>
      </trkpt>
      <trkpt lat="48.07814" lon="6.83223">
        <ele>841</ele>
        <time>2020-10-28T13:17:15.118Z</time>
      </trkpt>
      <trkpt lat="48.07813" lon="6.83225">
        <ele>841</ele>
        <time>2020-10-28T13:17:16.117Z</time>
      </trkpt>
      <trkpt lat="48.07813" lon="6.83226">
        <ele>842</ele>
        <time>2020-10-28T13:17:17.118Z</time>
      </trkpt>
      <trkpt lat="48.07812" lon="6.83229">
        <ele>842</ele>
        <time>2020-10-28T13:17:18.117Z</time>
      </trkpt>
      <trkpt lat="48.0781" lon="6.83231">
        <ele>841</ele>
        <time>2020-10-28T13:17:19.118Z</time>
      </trkpt>
      <trkpt lat="48.07809" lon="6.83233">
        <ele>841</ele>
        <time>2020-10-28T13:17:20.118Z</time>
      </trkpt>
      <trkpt lat="48.07808" lon="6.83235">
        <ele>840</ele>
        <time>2020-10-28T13:17:21.118Z</time>
      </trkpt>
      <trkpt lat="48.07807" lon="6.83237">
        <ele>840</ele>
        <time>2020-10-28T13:17:22.118Z</time>
      </trkpt>
      <trkpt lat="48.07806" lon="6.83238">
        <ele>840</ele>
        <time>2020-10-28T13:17:23.118Z</time>
      </trkpt>
      <trkpt lat="48.07804" lon="6.8324">
        <ele>840</ele>
        <time>2020-10-28T13:17:24.117Z</time>
      </trkpt>
      <trkpt lat="48.07803" lon="6.83242">
        <ele>839</ele>
        <time>2020-10-28T13:17:25.118Z</time>
      </trkpt>
      <trkpt lat="48.07802" lon="6.83244">
        <ele>839</ele>
        <time>2020-10-28T13:17:26.117Z</time>
      </trkpt>
      <trkpt lat="48.07801" lon="6.83246">
        <ele>839</ele>
        <time>2020-10-28T13:17:27.118Z</time>
      </trkpt>
      <trkpt lat="48.078" lon="6.83248">
        <ele>838</ele>
        <time>2020-10-28T13:17:28.118Z</time>
      </trkpt>
      <trkpt lat="48.07799" lon="6.83251">
        <ele>838</ele>
        <time>2020-10-28T13:17:29.118Z</time>
      </trkpt>
      <trkpt lat="48.07798" lon="6.83253">
        <ele>837</ele>
        <time>2020-10-28T13:17:30.118Z</time>
      </trkpt>
      <trkpt lat="48.07797" lon="6.83254">
        <ele>837</ele>
        <time>2020-10-28T13:17:31.118Z</time>
      </trkpt>
      <trkpt lat="48.07795" lon="6.83256">
        <ele>837</ele>
        <time>2020-10-28T13:17:32.118Z</time>
      </trkpt>
      <trkpt lat="48.07794" lon="6.83257">
        <ele>837</ele>
        <time>2020-10-28T13:17:33.117Z</time>
      </trkpt>
      <trkpt lat="48.07793" lon="6.83258">
        <ele>837</ele>
        <time>2020-10-28T13:17:34.118Z</time>
      </trkpt>
      <trkpt lat="48.07792" lon="6.8326">
        <ele>837</ele>
        <time>2020-10-28T13:17:35.118Z</time>
      </trkpt>
      <trkpt lat="48.07791" lon="6.83262">
        <ele>837</ele>
        <time>2020-10-28T13:17:36.118Z</time>
      </trkpt>
      <trkpt lat="48.07791" lon="6.83263">
        <ele>838</ele>
        <time>2020-10-28T13:17:37.118Z</time>
      </trkpt>
      <trkpt lat="48.0779" lon="6.83265">
        <ele>838</ele>
        <time>2020-10-28T13:17:38.118Z</time>
      </trkpt>
      <trkpt lat="48.07789" lon="6.83266">
        <ele>838</ele>
        <time>2020-10-28T13:17:39.118Z</time>
      </trkpt>
      <trkpt lat="48.07788" lon="6.83267">
        <ele>838</ele>
        <time>2020-10-28T13:17:40.117Z</time>
      </trkpt>
      <trkpt lat="48.07787" lon="6.83268">
        <ele>839</ele>
        <time>2020-10-28T13:17:41.118Z</time>
      </trkpt>
      <trkpt lat="48.07786" lon="6.83269">
        <ele>839</ele>
        <time>2020-10-28T13:17:42.118Z</time>
      </trkpt>
      <trkpt lat="48.07786" lon="6.8327">
        <ele>839</ele>
        <time>2020-10-28T13:17:43.118Z</time>
      </trkpt>
      <trkpt lat="48.07785" lon="6.83272">
        <ele>840</ele>
        <time>2020-10-28T13:17:44.117Z</time>
      </trkpt>
      <trkpt lat="48.07784" lon="6.83273">
        <ele>840</ele>
        <time>2020-10-28T13:17:45.118Z</time>
      </trkpt>
      <trkpt lat="48.07783" lon="6.83274">
        <ele>840</ele>
        <time>2020-10-28T13:17:46.118Z</time>
      </trkpt>
      <trkpt lat="48.07782" lon="6.83276">
        <ele>840</ele>
        <time>2020-10-28T13:17:47.117Z</time>
      </trkpt>
      <trkpt lat="48.07781" lon="6.83278">
        <ele>840</ele>
        <time>2020-10-28T13:17:48.118Z</time>
      </trkpt>
      <trkpt lat="48.0778" lon="6.8328">
        <ele>840</ele>
        <time>2020-10-28T13:17:49.118Z</time>
      </trkpt>
      <trkpt lat="48.07779" lon="6.83282">
        <ele>840</ele>
        <time>2020-10-28T13:17:50.118Z</time>
      </trkpt>
      <trkpt lat="48.07779" lon="6.83283">
        <ele>839</ele>
        <time>2020-10-28T13:17:51.118Z</time>
      </trkpt>
      <trkpt lat="48.07779" lon="6.83284">
        <ele>839</ele>
        <time>2020-10-28T13:17:52.118Z</time>
      </trkpt>
      <trkpt lat="48.07779" lon="6.83284">
        <ele>839</ele>
        <time>2020-10-28T13:17:55.265Z</time>
      </trkpt>
      <trkpt lat="48.07778" lon="6.83285">
        <ele>838</ele>
        <time>2020-10-28T13:17:56.265Z</time>
      </trkpt>
      <trkpt lat="48.07778" lon="6.83285">
        <ele>838</ele>
        <time>2020-10-28T13:17:57.265Z</time>
      </trkpt>
      <trkpt lat="48.07778" lon="6.83287">
        <ele>838</ele>
        <time>2020-10-28T13:17:58.265Z</time>
      </trkpt>
      <trkpt lat="48.07777" lon="6.83288">
        <ele>838</ele>
        <time>2020-10-28T13:17:59.265Z</time>
      </trkpt>
      <trkpt lat="48.07777" lon="6.8329">
        <ele>837</ele>
        <time>2020-10-28T13:18:04.414Z</time>
      </trkpt>
      <trkpt lat="48.07776" lon="6.83292">
        <ele>836</ele>
        <time>2020-10-28T13:18:05.415Z</time>
      </trkpt>
      <trkpt lat="48.07775" lon="6.83294">
        <ele>836</ele>
        <time>2020-10-28T13:18:06.415Z</time>
      </trkpt>
      <trkpt lat="48.07774" lon="6.83296">
        <ele>835</ele>
        <time>2020-10-28T13:18:07.414Z</time>
      </trkpt>
      <trkpt lat="48.07773" lon="6.83297">
        <ele>835</ele>
        <time>2020-10-28T13:18:08.414Z</time>
      </trkpt>
      <trkpt lat="48.07772" lon="6.83299">
        <ele>835</ele>
        <time>2020-10-28T13:18:09.414Z</time>
      </trkpt>
      <trkpt lat="48.07771" lon="6.83299">
        <ele>835</ele>
        <time>2020-10-28T13:18:10.414Z</time>
      </trkpt>
      <trkpt lat="48.07771" lon="6.833">
        <ele>835</ele>
        <time>2020-10-28T13:18:11.415Z</time>
      </trkpt>
      <trkpt lat="48.07769" lon="6.83301">
        <ele>835</ele>
        <time>2020-10-28T13:18:12.415Z</time>
      </trkpt>
      <trkpt lat="48.07768" lon="6.83304">
        <ele>835</ele>
        <time>2020-10-28T13:18:13.415Z</time>
      </trkpt>
      <trkpt lat="48.07768" lon="6.83306">
        <ele>835</ele>
        <time>2020-10-28T13:18:14.415Z</time>
      </trkpt>
      <trkpt lat="48.07767" lon="6.83308">
        <ele>835</ele>
        <time>2020-10-28T13:18:15.415Z</time>
      </trkpt>
      <trkpt lat="48.07766" lon="6.8331">
        <ele>835</ele>
        <time>2020-10-28T13:18:16.415Z</time>
      </trkpt>
      <trkpt lat="48.07765" lon="6.83312">
        <ele>834</ele>
        <time>2020-10-28T13:18:17.415Z</time>
      </trkpt>
      <trkpt lat="48.07764" lon="6.83314">
        <ele>834</ele>
        <time>2020-10-28T13:18:18.415Z</time>
      </trkpt>
      <trkpt lat="48.07764" lon="6.83315">
        <ele>834</ele>
        <time>2020-10-28T13:18:19.414Z</time>
      </trkpt>
      <trkpt lat="48.07763" lon="6.83317">
        <ele>834</ele>
        <time>2020-10-28T13:18:20.415Z</time>
      </trkpt>
      <trkpt lat="48.07762" lon="6.83318">
        <ele>834</ele>
        <time>2020-10-28T13:18:21.414Z</time>
      </trkpt>
      <trkpt lat="48.07762" lon="6.8332">
        <ele>834</ele>
        <time>2020-10-28T13:18:22.415Z</time>
      </trkpt>
      <trkpt lat="48.07761" lon="6.83321">
        <ele>833</ele>
        <time>2020-10-28T13:18:23.415Z</time>
      </trkpt>
      <trkpt lat="48.07761" lon="6.83323">
        <ele>833</ele>
        <time>2020-10-28T13:18:24.415Z</time>
      </trkpt>
      <trkpt lat="48.0776" lon="6.83324">
        <ele>833</ele>
        <time>2020-10-28T13:18:25.415Z</time>
      </trkpt>
      <trkpt lat="48.07759" lon="6.83326">
        <ele>833</ele>
        <time>2020-10-28T13:18:26.415Z</time>
      </trkpt>
      <trkpt lat="48.07758" lon="6.83328">
        <ele>832</ele>
        <time>2020-10-28T13:18:27.414Z</time>
      </trkpt>
      <trkpt lat="48.07757" lon="6.83329">
        <ele>832</ele>
        <time>2020-10-28T13:18:28.415Z</time>
      </trkpt>
      <trkpt lat="48.07756" lon="6.8333">
        <ele>832</ele>
        <time>2020-10-28T13:18:29.415Z</time>
      </trkpt>
      <trkpt lat="48.07756" lon="6.83331">
        <ele>832</ele>
        <time>2020-10-28T13:18:30.415Z</time>
      </trkpt>
      <trkpt lat="48.07755" lon="6.83333">
        <ele>831</ele>
        <time>2020-10-28T13:18:31.415Z</time>
      </trkpt>
      <trkpt lat="48.07754" lon="6.83335">
        <ele>831</ele>
        <time>2020-10-28T13:18:32.414Z</time>
      </trkpt>
      <trkpt lat="48.07753" lon="6.83336">
        <ele>831</ele>
        <time>2020-10-28T13:18:33.414Z</time>
      </trkpt>
      <trkpt lat="48.07753" lon="6.83337">
        <ele>831</ele>
        <time>2020-10-28T13:18:34.415Z</time>
      </trkpt>
      <trkpt lat="48.07752" lon="6.83338">
        <ele>831</ele>
        <time>2020-10-28T13:18:35.414Z</time>
      </trkpt>
      <trkpt lat="48.07751" lon="6.83339">
        <ele>831</ele>
        <time>2020-10-28T13:18:36.414Z</time>
      </trkpt>
      <trkpt lat="48.07751" lon="6.83341">
        <ele>831</ele>
        <time>2020-10-28T13:18:37.414Z</time>
      </trkpt>
      <trkpt lat="48.0775" lon="6.83342">
        <ele>831</ele>
        <time>2020-10-28T13:18:38.415Z</time>
      </trkpt>
      <trkpt lat="48.0775" lon="6.83343">
        <ele>831</ele>
        <time>2020-10-28T13:18:39.415Z</time>
      </trkpt>
      <trkpt lat="48.07749" lon="6.83345">
        <ele>831</ele>
        <time>2020-10-28T13:18:40.414Z</time>
      </trkpt>
      <trkpt lat="48.07748" lon="6.83346">
        <ele>832</ele>
        <time>2020-10-28T13:18:41.414Z</time>
      </trkpt>
      <trkpt lat="48.07747" lon="6.83348">
        <ele>832</ele>
        <time>2020-10-28T13:18:42.414Z</time>
      </trkpt>
      <trkpt lat="48.07746" lon="6.83349">
        <ele>832</ele>
        <time>2020-10-28T13:18:43.414Z</time>
      </trkpt>
      <trkpt lat="48.07744" lon="6.83352">
        <ele>833</ele>
        <time>2020-10-28T13:18:44.415Z</time>
      </trkpt>
      <trkpt lat="48.07743" lon="6.83353">
        <ele>833</ele>
        <time>2020-10-28T13:18:45.415Z</time>
      </trkpt>
      <trkpt lat="48.07742" lon="6.83355">
        <ele>833</ele>
        <time>2020-10-28T13:18:46.415Z</time>
      </trkpt>
      <trkpt lat="48.0774" lon="6.83356">
        <ele>833</ele>
        <time>2020-10-28T13:18:47.414Z</time>
      </trkpt>
      <trkpt lat="48.07739" lon="6.83357">
        <ele>833</ele>
        <time>2020-10-28T13:18:48.415Z</time>
      </trkpt>
      <trkpt lat="48.07738" lon="6.83357">
        <ele>832</ele>
        <time>2020-10-28T13:18:49.414Z</time>
      </trkpt>
      <trkpt lat="48.07738" lon="6.83358">
        <ele>832</ele>
        <time>2020-10-28T13:18:50.414Z</time>
      </trkpt>
      <trkpt lat="48.07737" lon="6.83359">
        <ele>831</ele>
        <time>2020-10-28T13:18:51.415Z</time>
      </trkpt>
      <trkpt lat="48.07736" lon="6.83361">
        <ele>830</ele>
        <time>2020-10-28T13:18:52.415Z</time>
      </trkpt>
      <trkpt lat="48.07735" lon="6.83362">
        <ele>828</ele>
        <time>2020-10-28T13:18:53.415Z</time>
      </trkpt>
      <trkpt lat="48.07734" lon="6.83364">
        <ele>827</ele>
        <time>2020-10-28T13:18:54.415Z</time>
      </trkpt>
      <trkpt lat="48.07733" lon="6.83365">
        <ele>826</ele>
        <time>2020-10-28T13:18:55.415Z</time>
      </trkpt>
      <trkpt lat="48.07732" lon="6.83367">
        <ele>824</ele>
        <time>2020-10-28T13:19:00.519Z</time>
      </trkpt>
      <trkpt lat="48.0773" lon="6.83369">
        <ele>822</ele>
        <time>2020-10-28T13:19:01.519Z</time>
      </trkpt>
      <trkpt lat="48.07729" lon="6.83371">
        <ele>821</ele>
        <time>2020-10-28T13:19:02.518Z</time>
      </trkpt>
      <trkpt lat="48.07727" lon="6.83373">
        <ele>819</ele>
        <time>2020-10-28T13:19:03.518Z</time>
      </trkpt>
      <trkpt lat="48.07726" lon="6.83375">
        <ele>818</ele>
        <time>2020-10-28T13:20:10.647Z</time>
      </trkpt>
      <trkpt lat="48.07724" lon="6.83377">
        <ele>817</ele>
        <time>2020-10-28T13:20:11.648Z</time>
      </trkpt>
      <trkpt lat="48.07723" lon="6.83379">
        <ele>816</ele>
        <time>2020-10-28T13:20:12.647Z</time>
      </trkpt>
      <trkpt lat="48.07723" lon="6.83381">
        <ele>815</ele>
        <time>2020-10-28T13:20:13.648Z</time>
      </trkpt>
      <trkpt lat="48.07722" lon="6.83383">
        <ele>815</ele>
        <time>2020-10-28T13:20:14.647Z</time>
      </trkpt>
      <trkpt lat="48.07721" lon="6.83384">
        <ele>814</ele>
        <time>2020-10-28T13:20:15.647Z</time>
      </trkpt>
      <trkpt lat="48.0772" lon="6.83387">
        <ele>814</ele>
        <time>2020-10-28T13:20:16.648Z</time>
      </trkpt>
      <trkpt lat="48.0772" lon="6.83389">
        <ele>814</ele>
        <time>2020-10-28T13:20:17.647Z</time>
      </trkpt>
      <trkpt lat="48.0772" lon="6.83391">
        <ele>814</ele>
        <time>2020-10-28T13:20:18.648Z</time>
      </trkpt>
      <trkpt lat="48.07719" lon="6.83393">
        <ele>814</ele>
        <time>2020-10-28T13:20:19.647Z</time>
      </trkpt>
      <trkpt lat="48.07718" lon="6.83396">
        <ele>813</ele>
        <time>2020-10-28T13:20:20.648Z</time>
      </trkpt>
      <trkpt lat="48.07716" lon="6.83398">
        <ele>813</ele>
        <time>2020-10-28T13:20:21.647Z</time>
      </trkpt>
      <trkpt lat="48.07715" lon="6.83401">
        <ele>812</ele>
        <time>2020-10-28T13:20:22.647Z</time>
      </trkpt>
      <trkpt lat="48.07714" lon="6.83403">
        <ele>812</ele>
        <time>2020-10-28T13:20:23.647Z</time>
      </trkpt>
      <trkpt lat="48.07714" lon="6.83405">
        <ele>811</ele>
        <time>2020-10-28T13:20:24.648Z</time>
      </trkpt>
      <trkpt lat="48.07713" lon="6.83407">
        <ele>811</ele>
        <time>2020-10-28T13:20:25.648Z</time>
      </trkpt>
      <trkpt lat="48.07712" lon="6.83409">
        <ele>810</ele>
        <time>2020-10-28T13:20:26.648Z</time>
      </trkpt>
      <trkpt lat="48.07712" lon="6.83411">
        <ele>810</ele>
        <time>2020-10-28T13:20:27.648Z</time>
      </trkpt>
      <trkpt lat="48.07712" lon="6.83412">
        <ele>809</ele>
        <time>2020-10-28T13:20:28.648Z</time>
      </trkpt>
      <trkpt lat="48.07711" lon="6.83415">
        <ele>809</ele>
        <time>2020-10-28T13:20:29.648Z</time>
      </trkpt>
      <trkpt lat="48.0771" lon="6.83417">
        <ele>809</ele>
        <time>2020-10-28T13:20:30.648Z</time>
      </trkpt>
      <trkpt lat="48.0771" lon="6.8342">
        <ele>809</ele>
        <time>2020-10-28T13:20:31.648Z</time>
      </trkpt>
      <trkpt lat="48.0771" lon="6.83422">
        <ele>809</ele>
        <time>2020-10-28T13:20:32.647Z</time>
      </trkpt>
      <trkpt lat="48.0771" lon="6.83424">
        <ele>809</ele>
        <time>2020-10-28T13:20:33.648Z</time>
      </trkpt>
      <trkpt lat="48.07709" lon="6.83426">
        <ele>808</ele>
        <time>2020-10-28T13:20:34.647Z</time>
      </trkpt>
      <trkpt lat="48.07709" lon="6.83428">
        <ele>808</ele>
        <time>2020-10-28T13:20:35.648Z</time>
      </trkpt>
      <trkpt lat="48.07708" lon="6.8343">
        <ele>808</ele>
        <time>2020-10-28T13:20:36.648Z</time>
      </trkpt>
      <trkpt lat="48.07707" lon="6.83432">
        <ele>808</ele>
        <time>2020-10-28T13:20:37.648Z</time>
      </trkpt>
      <trkpt lat="48.07707" lon="6.83433">
        <ele>809</ele>
        <time>2020-10-28T13:20:38.648Z</time>
      </trkpt>
      <trkpt lat="48.07706" lon="6.83435">
        <ele>809</ele>
        <time>2020-10-28T13:20:39.648Z</time>
      </trkpt>
      <trkpt lat="48.07705" lon="6.83436">
        <ele>810</ele>
        <time>2020-10-28T13:20:40.648Z</time>
      </trkpt>
      <trkpt lat="48.07704" lon="6.83438">
        <ele>810</ele>
        <time>2020-10-28T13:20:41.648Z</time>
      </trkpt>
      <trkpt lat="48.07703" lon="6.83439">
        <ele>810</ele>
        <time>2020-10-28T13:20:42.647Z</time>
      </trkpt>
      <trkpt lat="48.07701" lon="6.83439">
        <ele>810</ele>
        <time>2020-10-28T13:20:43.648Z</time>
      </trkpt>
      <trkpt lat="48.077" lon="6.8344">
        <ele>809</ele>
        <time>2020-10-28T13:20:44.648Z</time>
      </trkpt>
      <trkpt lat="48.07699" lon="6.8344">
        <ele>808</ele>
        <time>2020-10-28T13:20:45.648Z</time>
      </trkpt>
      <trkpt lat="48.07697" lon="6.83441">
        <ele>807</ele>
        <time>2020-10-28T13:20:46.648Z</time>
      </trkpt>
      <trkpt lat="48.07695" lon="6.83442">
        <ele>806</ele>
        <time>2020-10-28T13:20:47.648Z</time>
      </trkpt>
      <trkpt lat="48.07694" lon="6.83443">
        <ele>805</ele>
        <time>2020-10-28T13:20:48.648Z</time>
      </trkpt>
      <trkpt lat="48.07692" lon="6.83443">
        <ele>804</ele>
        <time>2020-10-28T13:20:49.648Z</time>
      </trkpt>
      <trkpt lat="48.07691" lon="6.83444">
        <ele>804</ele>
        <time>2020-10-28T13:20:50.648Z</time>
      </trkpt>
      <trkpt lat="48.0769" lon="6.83445">
        <ele>803</ele>
        <time>2020-10-28T13:20:51.647Z</time>
      </trkpt>
      <trkpt lat="48.07689" lon="6.83446">
        <ele>803</ele>
        <time>2020-10-28T13:20:52.648Z</time>
      </trkpt>
      <trkpt lat="48.07687" lon="6.83448">
        <ele>803</ele>
        <time>2020-10-28T13:20:53.647Z</time>
      </trkpt>
      <trkpt lat="48.07686" lon="6.83449">
        <ele>803</ele>
        <time>2020-10-28T13:20:54.648Z</time>
      </trkpt>
      <trkpt lat="48.07686" lon="6.8345">
        <ele>803</ele>
        <time>2020-10-28T13:20:55.648Z</time>
      </trkpt>
      <trkpt lat="48.07686" lon="6.83452">
        <ele>803</ele>
        <time>2020-10-28T13:20:56.648Z</time>
      </trkpt>
      <trkpt lat="48.07685" lon="6.83453">
        <ele>803</ele>
        <time>2020-10-28T13:20:57.647Z</time>
      </trkpt>
      <trkpt lat="48.07684" lon="6.83455">
        <ele>803</ele>
        <time>2020-10-28T13:20:58.648Z</time>
      </trkpt>
      <trkpt lat="48.07684" lon="6.83457">
        <ele>803</ele>
        <time>2020-10-28T13:20:59.648Z</time>
      </trkpt>
      <trkpt lat="48.07682" lon="6.83459">
        <ele>803</ele>
        <time>2020-10-28T13:21:00.648Z</time>
      </trkpt>
      <trkpt lat="48.07681" lon="6.83462">
        <ele>803</ele>
        <time>2020-10-28T13:21:01.647Z</time>
      </trkpt>
      <trkpt lat="48.07681" lon="6.83463">
        <ele>803</ele>
        <time>2020-10-28T13:21:02.648Z</time>
      </trkpt>
      <trkpt lat="48.0768" lon="6.83465">
        <ele>802</ele>
        <time>2020-10-28T13:21:03.647Z</time>
      </trkpt>
      <trkpt lat="48.0768" lon="6.83466">
        <ele>802</ele>
        <time>2020-10-28T13:21:04.648Z</time>
      </trkpt>
      <trkpt lat="48.07679" lon="6.83468">
        <ele>801</ele>
        <time>2020-10-28T13:21:05.647Z</time>
      </trkpt>
      <trkpt lat="48.07678" lon="6.8347">
        <ele>800</ele>
        <time>2020-10-28T13:21:06.648Z</time>
      </trkpt>
      <trkpt lat="48.07678" lon="6.83471">
        <ele>799</ele>
        <time>2020-10-28T13:21:07.647Z</time>
      </trkpt>
      <trkpt lat="48.07678" lon="6.83472">
        <ele>799</ele>
        <time>2020-10-28T13:21:08.647Z</time>
      </trkpt>
      <trkpt lat="48.07678" lon="6.83473">
        <ele>798</ele>
        <time>2020-10-28T13:21:09.648Z</time>
      </trkpt>
      <trkpt lat="48.07677" lon="6.83475">
        <ele>798</ele>
        <time>2020-10-28T13:21:10.648Z</time>
      </trkpt>
      <trkpt lat="48.07677" lon="6.83477">
        <ele>798</ele>
        <time>2020-10-28T13:21:11.647Z</time>
      </trkpt>
      <trkpt lat="48.07677" lon="6.83478">
        <ele>798</ele>
        <time>2020-10-28T13:21:12.648Z</time>
      </trkpt>
      <trkpt lat="48.07677" lon="6.8348">
        <ele>798</ele>
        <time>2020-10-28T13:21:13.648Z</time>
      </trkpt>
      <trkpt lat="48.07677" lon="6.83481">
        <ele>798</ele>
        <time>2020-10-28T13:21:14.647Z</time>
      </trkpt>
      <trkpt lat="48.07676" lon="6.83482">
        <ele>798</ele>
        <time>2020-10-28T13:21:15.648Z</time>
      </trkpt>
      <trkpt lat="48.07676" lon="6.83484">
        <ele>797</ele>
        <time>2020-10-28T13:21:16.648Z</time>
      </trkpt>
      <trkpt lat="48.07676" lon="6.83486">
        <ele>797</ele>
        <time>2020-10-28T13:21:17.647Z</time>
      </trkpt>
      <trkpt lat="48.07675" lon="6.83487">
        <ele>797</ele>
        <time>2020-10-28T13:21:18.648Z</time>
      </trkpt>
      <trkpt lat="48.07675" lon="6.83488">
        <ele>796</ele>
        <time>2020-10-28T13:21:19.647Z</time>
      </trkpt>
      <trkpt lat="48.07675" lon="6.83489">
        <ele>796</ele>
        <time>2020-10-28T13:21:20.647Z</time>
      </trkpt>
      <trkpt lat="48.07675" lon="6.83491">
        <ele>796</ele>
        <time>2020-10-28T13:21:21.647Z</time>
      </trkpt>
      <trkpt lat="48.07675" lon="6.83492">
        <ele>796</ele>
        <time>2020-10-28T13:21:23.737Z</time>
      </trkpt>
      <trkpt lat="48.07675" lon="6.83493">
        <ele>796</ele>
        <time>2020-10-28T13:21:24.738Z</time>
      </trkpt>
      <trkpt lat="48.07675" lon="6.83494">
        <ele>796</ele>
        <time>2020-10-28T13:21:25.738Z</time>
      </trkpt>
      <trkpt lat="48.07674" lon="6.83496">
        <ele>796</ele>
        <time>2020-10-28T13:21:26.737Z</time>
      </trkpt>
      <trkpt lat="48.07673" lon="6.83497">
        <ele>796</ele>
        <time>2020-10-28T13:23:07.751Z</time>
      </trkpt>
      <trkpt lat="48.07673" lon="6.835">
        <ele>795</ele>
        <time>2020-10-28T13:38:18.696Z</time>
      </trkpt>
      <trkpt lat="48.07673" lon="6.83503">
        <ele>795</ele>
        <time>2020-10-28T13:38:19.695Z</time>
      </trkpt>
      <trkpt lat="48.07674" lon="6.83505">
        <ele>796</ele>
        <time>2020-10-28T13:38:20.695Z</time>
      </trkpt>
      <trkpt lat="48.07675" lon="6.83505">
        <ele>796</ele>
        <time>2020-10-28T13:38:21.696Z</time>
      </trkpt>
      <trkpt lat="48.07676" lon="6.83506">
        <ele>797</ele>
        <time>2020-10-28T13:38:22.696Z</time>
      </trkpt>
      <trkpt lat="48.07677" lon="6.83507">
        <ele>797</ele>
        <time>2020-10-28T13:38:23.695Z</time>
      </trkpt>
      <trkpt lat="48.07677" lon="6.83508">
        <ele>797</ele>
        <time>2020-10-28T13:38:24.696Z</time>
      </trkpt>
      <trkpt lat="48.07676" lon="6.83509">
        <ele>798</ele>
        <time>2020-10-28T13:38:25.696Z</time>
      </trkpt>
      <trkpt lat="48.07676" lon="6.8351">
        <ele>798</ele>
        <time>2020-10-28T13:38:26.696Z</time>
      </trkpt>
      <trkpt lat="48.07676" lon="6.83511">
        <ele>798</ele>
        <time>2020-10-28T13:38:27.696Z</time>
      </trkpt>
      <trkpt lat="48.07675" lon="6.83512">
        <ele>798</ele>
        <time>2020-10-28T13:38:28.696Z</time>
      </trkpt>
      <trkpt lat="48.07675" lon="6.83513">
        <ele>798</ele>
        <time>2020-10-28T13:38:29.695Z</time>
      </trkpt>
      <trkpt lat="48.07675" lon="6.83514">
        <ele>798</ele>
        <time>2020-10-28T13:38:30.696Z</time>
      </trkpt>
      <trkpt lat="48.07675" lon="6.83515">
        <ele>797</ele>
        <time>2020-10-28T13:38:31.696Z</time>
      </trkpt>
      <trkpt lat="48.07675" lon="6.83516">
        <ele>797</ele>
        <time>2020-10-28T13:38:32.696Z</time>
      </trkpt>
      <trkpt lat="48.07675" lon="6.83518">
        <ele>797</ele>
        <time>2020-10-28T13:38:33.695Z</time>
      </trkpt>
      <trkpt lat="48.07674" lon="6.83519">
        <ele>797</ele>
        <time>2020-10-28T13:38:34.696Z</time>
      </trkpt>
      <trkpt lat="48.07674" lon="6.8352">
        <ele>797</ele>
        <time>2020-10-28T13:42:42.793Z</time>
      </trkpt>
      <trkpt lat="48.07674" lon="6.8352">
        <ele>797</ele>
        <time>2020-10-28T13:42:43.793Z</time>
      </trkpt>
      <trkpt lat="48.07673" lon="6.83522">
        <ele>797</ele>
        <time>2020-10-28T13:42:44.792Z</time>
      </trkpt>
      <trkpt lat="48.07673" lon="6.83523">
        <ele>797</ele>
        <time>2020-10-28T13:42:48.750Z</time>
      </trkpt>
      <trkpt lat="48.07673" lon="6.83524">
        <ele>796</ele>
        <time>2020-10-28T13:42:49.751Z</time>
      </trkpt>
      <trkpt lat="48.07673" lon="6.83524">
        <ele>796</ele>
        <time>2020-10-28T13:42:50.751Z</time>
      </trkpt>
      <trkpt lat="48.07672" lon="6.83525">
        <ele>796</ele>
        <time>2020-10-28T13:42:51.750Z</time>
      </trkpt>
      <trkpt lat="48.07672" lon="6.83526">
        <ele>796</ele>
        <time>2020-10-28T13:42:52.751Z</time>
      </trkpt>
      <trkpt lat="48.07672" lon="6.83528">
        <ele>796</ele>
        <time>2020-10-28T13:42:53.751Z</time>
      </trkpt>
      <trkpt lat="48.07672" lon="6.83529">
        <ele>795</ele>
        <time>2020-10-28T13:42:54.751Z</time>
      </trkpt>
      <trkpt lat="48.07672" lon="6.83531">
        <ele>795</ele>
        <time>2020-10-28T13:42:55.750Z</time>
      </trkpt>
      <trkpt lat="48.07671" lon="6.83532">
        <ele>795</ele>
        <time>2020-10-28T13:42:56.751Z</time>
      </trkpt>
      <trkpt lat="48.0767" lon="6.83534">
        <ele>795</ele>
        <time>2020-10-28T13:42:57.751Z</time>
      </trkpt>
      <trkpt lat="48.0767" lon="6.83535">
        <ele>795</ele>
        <time>2020-10-28T13:42:58.750Z</time>
      </trkpt>
      <trkpt lat="48.07669" lon="6.83536">
        <ele>795</ele>
        <time>2020-10-28T13:42:59.751Z</time>
      </trkpt>
      <trkpt lat="48.07668" lon="6.83537">
        <ele>795</ele>
        <time>2020-10-28T13:43:00.750Z</time>
      </trkpt>
      <trkpt lat="48.07667" lon="6.83539">
        <ele>795</ele>
        <time>2020-10-28T13:43:01.751Z</time>
      </trkpt>
      <trkpt lat="48.07667" lon="6.8354">
        <ele>795</ele>
        <time>2020-10-28T13:43:02.751Z</time>
      </trkpt>
      <trkpt lat="48.07667" lon="6.83541">
        <ele>794</ele>
        <time>2020-10-28T13:43:03.750Z</time>
      </trkpt>
      <trkpt lat="48.07667" lon="6.83542">
        <ele>794</ele>
        <time>2020-10-28T13:43:04.751Z</time>
      </trkpt>
      <trkpt lat="48.07666" lon="6.83543">
        <ele>794</ele>
        <time>2020-10-28T13:43:05.751Z</time>
      </trkpt>
      <trkpt lat="48.07666" lon="6.83544">
        <ele>793</ele>
        <time>2020-10-28T13:43:06.751Z</time>
      </trkpt>
      <trkpt lat="48.07665" lon="6.83546">
        <ele>793</ele>
        <time>2020-10-28T13:43:07.751Z</time>
      </trkpt>
      <trkpt lat="48.07664" lon="6.83547">
        <ele>793</ele>
        <time>2020-10-28T13:43:08.751Z</time>
      </trkpt>
      <trkpt lat="48.07663" lon="6.83548">
        <ele>792</ele>
        <time>2020-10-28T13:43:09.750Z</time>
      </trkpt>
      <trkpt lat="48.07662" lon="6.83548">
        <ele>792</ele>
        <time>2020-10-28T13:43:10.751Z</time>
      </trkpt>
      <trkpt lat="48.07662" lon="6.8355">
        <ele>791</ele>
        <time>2020-10-28T13:43:11.750Z</time>
      </trkpt>
      <trkpt lat="48.07662" lon="6.83551">
        <ele>791</ele>
        <time>2020-10-28T13:43:12.751Z</time>
      </trkpt>
      <trkpt lat="48.07661" lon="6.83553">
        <ele>790</ele>
        <time>2020-10-28T13:43:13.751Z</time>
      </trkpt>
      <trkpt lat="48.07661" lon="6.83554">
        <ele>789</ele>
        <time>2020-10-28T13:43:14.751Z</time>
      </trkpt>
      <trkpt lat="48.0766" lon="6.83556">
        <ele>789</ele>
        <time>2020-10-28T13:43:15.751Z</time>
      </trkpt>
      <trkpt lat="48.07659" lon="6.83558">
        <ele>788</ele>
        <time>2020-10-28T13:43:16.750Z</time>
      </trkpt>
      <trkpt lat="48.07658" lon="6.8356">
        <ele>787</ele>
        <time>2020-10-28T13:43:17.750Z</time>
      </trkpt>
      <trkpt lat="48.07657" lon="6.8356">
        <ele>787</ele>
        <time>2020-10-28T13:43:18.750Z</time>
      </trkpt>
      <trkpt lat="48.07656" lon="6.83561">
        <ele>787</ele>
        <time>2020-10-28T13:43:19.750Z</time>
      </trkpt>
      <trkpt lat="48.07655" lon="6.83562">
        <ele>786</ele>
        <time>2020-10-28T13:43:20.750Z</time>
      </trkpt>
      <trkpt lat="48.07653" lon="6.83563">
        <ele>786</ele>
        <time>2020-10-28T13:43:21.750Z</time>
      </trkpt>
      <trkpt lat="48.07652" lon="6.83565">
        <ele>786</ele>
        <time>2020-10-28T13:43:22.751Z</time>
      </trkpt>
      <trkpt lat="48.07652" lon="6.83567">
        <ele>786</ele>
        <time>2020-10-28T13:43:23.751Z</time>
      </trkpt>
      <trkpt lat="48.07651" lon="6.83568">
        <ele>786</ele>
        <time>2020-10-28T13:43:24.751Z</time>
      </trkpt>
      <trkpt lat="48.07651" lon="6.83569">
        <ele>786</ele>
        <time>2020-10-28T13:43:25.751Z</time>
      </trkpt>
      <trkpt lat="48.07651" lon="6.8357">
        <ele>787</ele>
        <time>2020-10-28T13:43:26.751Z</time>
      </trkpt>
      <trkpt lat="48.07651" lon="6.8357">
        <ele>787</ele>
        <time>2020-10-28T13:43:27.751Z</time>
      </trkpt>
      <trkpt lat="48.07651" lon="6.83571">
        <ele>787</ele>
        <time>2020-10-28T13:43:28.751Z</time>
      </trkpt>
      <trkpt lat="48.0765" lon="6.83573">
        <ele>787</ele>
        <time>2020-10-28T13:43:29.750Z</time>
      </trkpt>
      <trkpt lat="48.0765" lon="6.83574">
        <ele>786</ele>
        <time>2020-10-28T13:43:30.750Z</time>
      </trkpt>
      <trkpt lat="48.07649" lon="6.83575">
        <ele>786</ele>
        <time>2020-10-28T13:43:31.750Z</time>
      </trkpt>
      <trkpt lat="48.07648" lon="6.83575">
        <ele>786</ele>
        <time>2020-10-28T13:43:32.751Z</time>
      </trkpt>
      <trkpt lat="48.07648" lon="6.83576">
        <ele>785</ele>
        <time>2020-10-28T13:43:33.751Z</time>
      </trkpt>
      <trkpt lat="48.07647" lon="6.83577">
        <ele>785</ele>
        <time>2020-10-28T13:43:34.750Z</time>
      </trkpt>
      <trkpt lat="48.07646" lon="6.83578">
        <ele>784</ele>
        <time>2020-10-28T13:43:35.750Z</time>
      </trkpt>
      <trkpt lat="48.07645" lon="6.83578">
        <ele>784</ele>
        <time>2020-10-28T13:43:36.751Z</time>
      </trkpt>
      <trkpt lat="48.07644" lon="6.83579">
        <ele>784</ele>
        <time>2020-10-28T13:43:37.751Z</time>
      </trkpt>
      <trkpt lat="48.07643" lon="6.83579">
        <ele>784</ele>
        <time>2020-10-28T13:43:38.750Z</time>
      </trkpt>
      <trkpt lat="48.07642" lon="6.8358">
        <ele>784</ele>
        <time>2020-10-28T13:43:39.750Z</time>
      </trkpt>
      <trkpt lat="48.07641" lon="6.83581">
        <ele>784</ele>
        <time>2020-10-28T13:43:40.750Z</time>
      </trkpt>
      <trkpt lat="48.07641" lon="6.83582">
        <ele>784</ele>
        <time>2020-10-28T13:43:41.751Z</time>
      </trkpt>
      <trkpt lat="48.07639" lon="6.83582">
        <ele>783</ele>
        <time>2020-10-28T13:43:42.750Z</time>
      </trkpt>
      <trkpt lat="48.07639" lon="6.83584">
        <ele>783</ele>
        <time>2020-10-28T13:43:43.751Z</time>
      </trkpt>
      <trkpt lat="48.07638" lon="6.83585">
        <ele>783</ele>
        <time>2020-10-28T13:43:44.750Z</time>
      </trkpt>
      <trkpt lat="48.07639" lon="6.83585">
        <ele>783</ele>
        <time>2020-10-28T13:43:45.751Z</time>
      </trkpt>
      <trkpt lat="48.0764" lon="6.83585">
        <ele>782</ele>
        <time>2020-10-28T13:43:46.751Z</time>
      </trkpt>
      <trkpt lat="48.0764" lon="6.83585">
        <ele>783</ele>
        <time>2020-10-28T13:43:47.751Z</time>
      </trkpt>
      <trkpt lat="48.0764" lon="6.83585">
        <ele>784</ele>
        <time>2020-10-28T13:43:48.751Z</time>
      </trkpt>
      <trkpt lat="48.07639" lon="6.83585">
        <ele>784</ele>
        <time>2020-10-28T13:43:49.751Z</time>
      </trkpt>
      <trkpt lat="48.07639" lon="6.83586">
        <ele>785</ele>
        <time>2020-10-28T13:43:50.750Z</time>
      </trkpt>
      <trkpt lat="48.07639" lon="6.83586">
        <ele>785</ele>
        <time>2020-10-28T13:43:51.751Z</time>
      </trkpt>
      <trkpt lat="48.07639" lon="6.83586">
        <ele>785</ele>
        <time>2020-10-28T13:43:52.751Z</time>
      </trkpt>
      <trkpt lat="48.07639" lon="6.83587">
        <ele>785</ele>
        <time>2020-10-28T13:43:53.750Z</time>
      </trkpt>
      <trkpt lat="48.07639" lon="6.83588">
        <ele>786</ele>
        <time>2020-10-28T13:43:54.751Z</time>
      </trkpt>
      <trkpt lat="48.07639" lon="6.83588">
        <ele>786</ele>
        <time>2020-10-28T13:43:55.751Z</time>
      </trkpt>
      <trkpt lat="48.07638" lon="6.83589">
        <ele>787</ele>
        <time>2020-10-28T13:43:56.750Z</time>
      </trkpt>
      <trkpt lat="48.07638" lon="6.8359">
        <ele>787</ele>
        <time>2020-10-28T13:43:57.751Z</time>
      </trkpt>
      <trkpt lat="48.07637" lon="6.83591">
        <ele>788</ele>
        <time>2020-10-28T13:43:58.751Z</time>
      </trkpt>
      <trkpt lat="48.07637" lon="6.83592">
        <ele>788</ele>
        <time>2020-10-28T13:43:59.751Z</time>
      </trkpt>
      <trkpt lat="48.07637" lon="6.83593">
        <ele>788</ele>
        <time>2020-10-28T13:44:00.750Z</time>
      </trkpt>
      <trkpt lat="48.07637" lon="6.83594">
        <ele>787</ele>
        <time>2020-10-28T13:44:01.750Z</time>
      </trkpt>
      <trkpt lat="48.07637" lon="6.83595">
        <ele>787</ele>
        <time>2020-10-28T13:44:02.751Z</time>
      </trkpt>
      <trkpt lat="48.07636" lon="6.83596">
        <ele>788</ele>
        <time>2020-10-28T13:44:03.751Z</time>
      </trkpt>
      <trkpt lat="48.07634" lon="6.83597">
        <ele>788</ele>
        <time>2020-10-28T13:44:04.751Z</time>
      </trkpt>
      <trkpt lat="48.07633" lon="6.83598">
        <ele>788</ele>
        <time>2020-10-28T13:44:05.751Z</time>
      </trkpt>
      <trkpt lat="48.07632" lon="6.83599">
        <ele>788</ele>
        <time>2020-10-28T13:44:06.751Z</time>
      </trkpt>
      <trkpt lat="48.07631" lon="6.83599">
        <ele>788</ele>
        <time>2020-10-28T13:44:07.751Z</time>
      </trkpt>
      <trkpt lat="48.07631" lon="6.836">
        <ele>788</ele>
        <time>2020-10-28T13:44:08.750Z</time>
      </trkpt>
      <trkpt lat="48.0763" lon="6.83601">
        <ele>787</ele>
        <time>2020-10-28T13:44:09.751Z</time>
      </trkpt>
      <trkpt lat="48.07629" lon="6.83602">
        <ele>787</ele>
        <time>2020-10-28T13:44:10.751Z</time>
      </trkpt>
      <trkpt lat="48.07629" lon="6.83603">
        <ele>786</ele>
        <time>2020-10-28T13:44:11.751Z</time>
      </trkpt>
      <trkpt lat="48.07629" lon="6.83604">
        <ele>785</ele>
        <time>2020-10-28T13:44:12.751Z</time>
      </trkpt>
      <trkpt lat="48.07628" lon="6.83605">
        <ele>784</ele>
        <time>2020-10-28T13:44:13.751Z</time>
      </trkpt>
      <trkpt lat="48.07627" lon="6.83607">
        <ele>783</ele>
        <time>2020-10-28T13:44:14.751Z</time>
      </trkpt>
      <trkpt lat="48.07627" lon="6.83609">
        <ele>782</ele>
        <time>2020-10-28T13:44:15.751Z</time>
      </trkpt>
      <trkpt lat="48.07626" lon="6.8361">
        <ele>782</ele>
        <time>2020-10-28T13:44:16.751Z</time>
      </trkpt>
      <trkpt lat="48.07626" lon="6.83612">
        <ele>782</ele>
        <time>2020-10-28T13:44:17.750Z</time>
      </trkpt>
      <trkpt lat="48.07625" lon="6.83613">
        <ele>782</ele>
        <time>2020-10-28T13:44:18.751Z</time>
      </trkpt>
      <trkpt lat="48.07624" lon="6.83615">
        <ele>781</ele>
        <time>2020-10-28T13:44:19.751Z</time>
      </trkpt>
      <trkpt lat="48.07623" lon="6.83616">
        <ele>782</ele>
        <time>2020-10-28T13:44:20.751Z</time>
      </trkpt>
      <trkpt lat="48.07623" lon="6.83617">
        <ele>782</ele>
        <time>2020-10-28T13:44:21.751Z</time>
      </trkpt>
      <trkpt lat="48.07622" lon="6.83618">
        <ele>782</ele>
        <time>2020-10-28T13:44:22.751Z</time>
      </trkpt>
      <trkpt lat="48.07621" lon="6.83619">
        <ele>782</ele>
        <time>2020-10-28T13:44:23.751Z</time>
      </trkpt>
      <trkpt lat="48.07621" lon="6.83621">
        <ele>782</ele>
        <time>2020-10-28T13:44:24.751Z</time>
      </trkpt>
      <trkpt lat="48.07621" lon="6.83622">
        <ele>781</ele>
        <time>2020-10-28T13:44:25.750Z</time>
      </trkpt>
      <trkpt lat="48.07621" lon="6.83625">
        <ele>780</ele>
        <time>2020-10-28T13:44:26.750Z</time>
      </trkpt>
      <trkpt lat="48.07622" lon="6.83627">
        <ele>780</ele>
        <time>2020-10-28T13:44:27.750Z</time>
      </trkpt>
      <trkpt lat="48.07621" lon="6.83628">
        <ele>780</ele>
        <time>2020-10-28T13:44:28.751Z</time>
      </trkpt>
      <trkpt lat="48.07621" lon="6.83629">
        <ele>780</ele>
        <time>2020-10-28T13:44:29.751Z</time>
      </trkpt>
      <trkpt lat="48.0762" lon="6.83631">
        <ele>780</ele>
        <time>2020-10-28T13:44:30.751Z</time>
      </trkpt>
      <trkpt lat="48.07619" lon="6.83632">
        <ele>781</ele>
        <time>2020-10-28T13:44:31.750Z</time>
      </trkpt>
      <trkpt lat="48.07618" lon="6.83633">
        <ele>781</ele>
        <time>2020-10-28T13:44:32.751Z</time>
      </trkpt>
      <trkpt lat="48.07617" lon="6.83635">
        <ele>781</ele>
        <time>2020-10-28T13:44:33.751Z</time>
      </trkpt>
      <trkpt lat="48.07616" lon="6.83636">
        <ele>782</ele>
        <time>2020-10-28T13:44:34.751Z</time>
      </trkpt>
      <trkpt lat="48.07616" lon="6.83636">
        <ele>782</ele>
        <time>2020-10-28T13:44:35.750Z</time>
      </trkpt>
      <trkpt lat="48.07616" lon="6.83637">
        <ele>783</ele>
        <time>2020-10-28T13:44:36.751Z</time>
      </trkpt>
      <trkpt lat="48.07616" lon="6.83637">
        <ele>783</ele>
        <time>2020-10-28T13:44:37.751Z</time>
      </trkpt>
      <trkpt lat="48.07616" lon="6.83637">
        <ele>784</ele>
        <time>2020-10-28T13:44:38.750Z</time>
      </trkpt>
      <trkpt lat="48.07615" lon="6.83638">
        <ele>784</ele>
        <time>2020-10-28T13:44:39.751Z</time>
      </trkpt>
      <trkpt lat="48.07615" lon="6.83639">
        <ele>784</ele>
        <time>2020-10-28T13:44:40.751Z</time>
      </trkpt>
      <trkpt lat="48.07616" lon="6.83642">
        <ele>784</ele>
        <time>2020-10-28T13:44:41.751Z</time>
      </trkpt>
      <trkpt lat="48.07615" lon="6.83642">
        <ele>783</ele>
        <time>2020-10-28T13:44:42.751Z</time>
      </trkpt>
      <trkpt lat="48.07614" lon="6.83642">
        <ele>783</ele>
        <time>2020-10-28T13:44:43.751Z</time>
      </trkpt>
      <trkpt lat="48.07613" lon="6.83643">
        <ele>783</ele>
        <time>2020-10-28T13:44:44.751Z</time>
      </trkpt>
      <trkpt lat="48.07612" lon="6.83644">
        <ele>782</ele>
        <time>2020-10-28T13:44:45.751Z</time>
      </trkpt>
      <trkpt lat="48.07612" lon="6.83645">
        <ele>782</ele>
        <time>2020-10-28T13:44:46.751Z</time>
      </trkpt>
      <trkpt lat="48.07612" lon="6.83647">
        <ele>782</ele>
        <time>2020-10-28T13:44:47.751Z</time>
      </trkpt>
      <trkpt lat="48.07611" lon="6.83648">
        <ele>782</ele>
        <time>2020-10-28T13:44:48.750Z</time>
      </trkpt>
      <trkpt lat="48.07612" lon="6.8365">
        <ele>782</ele>
        <time>2020-10-28T13:44:49.751Z</time>
      </trkpt>
      <trkpt lat="48.07611" lon="6.83651">
        <ele>782</ele>
        <time>2020-10-28T13:44:50.751Z</time>
      </trkpt>
      <trkpt lat="48.07611" lon="6.83651">
        <ele>782</ele>
        <time>2020-10-28T13:44:51.751Z</time>
      </trkpt>
      <trkpt lat="48.0761" lon="6.83652">
        <ele>782</ele>
        <time>2020-10-28T13:44:52.751Z</time>
      </trkpt>
      <trkpt lat="48.07609" lon="6.83653">
        <ele>782</ele>
        <time>2020-10-28T13:44:53.751Z</time>
      </trkpt>
      <trkpt lat="48.07608" lon="6.83654">
        <ele>782</ele>
        <time>2020-10-28T13:44:54.751Z</time>
      </trkpt>
      <trkpt lat="48.07607" lon="6.83655">
        <ele>782</ele>
        <time>2020-10-28T13:44:55.751Z</time>
      </trkpt>
      <trkpt lat="48.07606" lon="6.83655">
        <ele>783</ele>
        <time>2020-10-28T13:44:56.750Z</time>
      </trkpt>
      <trkpt lat="48.07605" lon="6.83656">
        <ele>783</ele>
        <time>2020-10-28T13:44:57.751Z</time>
      </trkpt>
      <trkpt lat="48.07603" lon="6.83657">
        <ele>783</ele>
        <time>2020-10-28T13:44:58.750Z</time>
      </trkpt>
      <trkpt lat="48.07601" lon="6.83659">
        <ele>783</ele>
        <time>2020-10-28T13:44:59.751Z</time>
      </trkpt>
      <trkpt lat="48.076" lon="6.83661">
        <ele>783</ele>
        <time>2020-10-28T13:45:00.751Z</time>
      </trkpt>
      <trkpt lat="48.07599" lon="6.83663">
        <ele>783</ele>
        <time>2020-10-28T13:45:01.751Z</time>
      </trkpt>
      <trkpt lat="48.07597" lon="6.83664">
        <ele>783</ele>
        <time>2020-10-28T13:45:02.751Z</time>
      </trkpt>
      <trkpt lat="48.07596" lon="6.83665">
        <ele>783</ele>
        <time>2020-10-28T13:45:03.751Z</time>
      </trkpt>
      <trkpt lat="48.07595" lon="6.83666">
        <ele>784</ele>
        <time>2020-10-28T13:45:04.751Z</time>
      </trkpt>
      <trkpt lat="48.07594" lon="6.83668">
        <ele>783</ele>
        <time>2020-10-28T13:45:05.751Z</time>
      </trkpt>
      <trkpt lat="48.07593" lon="6.8367">
        <ele>783</ele>
        <time>2020-10-28T13:45:06.751Z</time>
      </trkpt>
      <trkpt lat="48.07592" lon="6.83671">
        <ele>782</ele>
        <time>2020-10-28T13:45:07.751Z</time>
      </trkpt>
      <trkpt lat="48.07591" lon="6.83672">
        <ele>782</ele>
        <time>2020-10-28T13:45:08.751Z</time>
      </trkpt>
      <trkpt lat="48.0759" lon="6.83673">
        <ele>781</ele>
        <time>2020-10-28T13:45:09.751Z</time>
      </trkpt>
      <trkpt lat="48.07589" lon="6.83674">
        <ele>780</ele>
        <time>2020-10-28T13:45:10.751Z</time>
      </trkpt>
      <trkpt lat="48.07588" lon="6.83675">
        <ele>780</ele>
        <time>2020-10-28T13:45:11.751Z</time>
      </trkpt>
      <trkpt lat="48.07587" lon="6.83675">
        <ele>779</ele>
        <time>2020-10-28T13:45:12.750Z</time>
      </trkpt>
      <trkpt lat="48.07586" lon="6.83675">
        <ele>779</ele>
        <time>2020-10-28T13:45:13.751Z</time>
      </trkpt>
      <trkpt lat="48.07584" lon="6.83675">
        <ele>779</ele>
        <time>2020-10-28T13:45:14.751Z</time>
      </trkpt>
      <trkpt lat="48.07584" lon="6.83676">
        <ele>779</ele>
        <time>2020-10-28T13:45:15.751Z</time>
      </trkpt>
      <trkpt lat="48.07583" lon="6.83677">
        <ele>778</ele>
        <time>2020-10-28T13:45:16.750Z</time>
      </trkpt>
      <trkpt lat="48.07583" lon="6.83678">
        <ele>778</ele>
        <time>2020-10-28T13:45:17.751Z</time>
      </trkpt>
      <trkpt lat="48.07583" lon="6.83679">
        <ele>776</ele>
        <time>2020-10-28T13:45:18.751Z</time>
      </trkpt>
      <trkpt lat="48.07583" lon="6.8368">
        <ele>775</ele>
        <time>2020-10-28T13:45:19.750Z</time>
      </trkpt>
      <trkpt lat="48.07582" lon="6.83681">
        <ele>774</ele>
        <time>2020-10-28T13:45:20.751Z</time>
      </trkpt>
      <trkpt lat="48.07581" lon="6.83681">
        <ele>773</ele>
        <time>2020-10-28T13:45:21.751Z</time>
      </trkpt>
      <trkpt lat="48.0758" lon="6.83682">
        <ele>773</ele>
        <time>2020-10-28T13:45:22.751Z</time>
      </trkpt>
      <trkpt lat="48.07579" lon="6.83683">
        <ele>772</ele>
        <time>2020-10-28T13:45:23.751Z</time>
      </trkpt>
      <trkpt lat="48.07578" lon="6.83684">
        <ele>772</ele>
        <time>2020-10-28T13:45:24.751Z</time>
      </trkpt>
      <trkpt lat="48.07577" lon="6.83685">
        <ele>771</ele>
        <time>2020-10-28T13:45:25.750Z</time>
      </trkpt>
      <trkpt lat="48.07577" lon="6.83686">
        <ele>771</ele>
        <time>2020-10-28T13:45:26.751Z</time>
      </trkpt>
      <trkpt lat="48.07576" lon="6.83687">
        <ele>771</ele>
        <time>2020-10-28T13:45:27.751Z</time>
      </trkpt>
      <trkpt lat="48.07576" lon="6.83687">
        <ele>771</ele>
        <time>2020-10-28T13:45:28.750Z</time>
      </trkpt>
      <trkpt lat="48.07575" lon="6.83687">
        <ele>770</ele>
        <time>2020-10-28T13:45:29.750Z</time>
      </trkpt>
      <trkpt lat="48.07575" lon="6.83688">
        <ele>770</ele>
        <time>2020-10-28T13:45:30.751Z</time>
      </trkpt>
      <trkpt lat="48.07574" lon="6.83689">
        <ele>769</ele>
        <time>2020-10-28T13:45:31.751Z</time>
      </trkpt>
      <trkpt lat="48.07573" lon="6.83689">
        <ele>769</ele>
        <time>2020-10-28T13:45:32.751Z</time>
      </trkpt>
      <trkpt lat="48.07573" lon="6.8369">
        <ele>769</ele>
        <time>2020-10-28T13:45:33.750Z</time>
      </trkpt>
      <trkpt lat="48.07572" lon="6.83691">
        <ele>768</ele>
        <time>2020-10-28T13:45:34.751Z</time>
      </trkpt>
      <trkpt lat="48.07571" lon="6.83692">
        <ele>768</ele>
        <time>2020-10-28T13:45:35.751Z</time>
      </trkpt>
      <trkpt lat="48.0757" lon="6.83694">
        <ele>768</ele>
        <time>2020-10-28T13:45:36.750Z</time>
      </trkpt>
      <trkpt lat="48.0757" lon="6.83695">
        <ele>767</ele>
        <time>2020-10-28T13:45:37.751Z</time>
      </trkpt>
      <trkpt lat="48.07569" lon="6.83697">
        <ele>767</ele>
        <time>2020-10-28T13:45:38.751Z</time>
      </trkpt>
      <trkpt lat="48.07569" lon="6.83697">
        <ele>767</ele>
        <time>2020-10-28T13:45:39.751Z</time>
      </trkpt>
      <trkpt lat="48.07569" lon="6.83698">
        <ele>767</ele>
        <time>2020-10-28T13:45:40.751Z</time>
      </trkpt>
      <trkpt lat="48.07569" lon="6.83699">
        <ele>767</ele>
        <time>2020-10-28T13:45:41.751Z</time>
      </trkpt>
      <trkpt lat="48.07567" lon="6.837">
        <ele>767</ele>
        <time>2020-10-28T13:45:42.750Z</time>
      </trkpt>
      <trkpt lat="48.07566" lon="6.83701">
        <ele>766</ele>
        <time>2020-10-28T13:45:43.750Z</time>
      </trkpt>
      <trkpt lat="48.07565" lon="6.83701">
        <ele>766</ele>
        <time>2020-10-28T13:45:44.750Z</time>
      </trkpt>
      <trkpt lat="48.07565" lon="6.83702">
        <ele>765</ele>
        <time>2020-10-28T13:45:45.750Z</time>
      </trkpt>
      <trkpt lat="48.07565" lon="6.83702">
        <ele>764</ele>
        <time>2020-10-28T13:45:46.750Z</time>
      </trkpt>
      <trkpt lat="48.07564" lon="6.83702">
        <ele>763</ele>
        <time>2020-10-28T13:45:47.750Z</time>
      </trkpt>
      <trkpt lat="48.07564" lon="6.83703">
        <ele>763</ele>
        <time>2020-10-28T13:45:48.750Z</time>
      </trkpt>
      <trkpt lat="48.07563" lon="6.83703">
        <ele>762</ele>
        <time>2020-10-28T13:45:49.750Z</time>
      </trkpt>
      <trkpt lat="48.07564" lon="6.83704">
        <ele>762</ele>
        <time>2020-10-28T13:45:50.750Z</time>
      </trkpt>
      <trkpt lat="48.07564" lon="6.83705">
        <ele>762</ele>
        <time>2020-10-28T13:45:51.751Z</time>
      </trkpt>
      <trkpt lat="48.07563" lon="6.83705">
        <ele>761</ele>
        <time>2020-10-28T13:45:52.751Z</time>
      </trkpt>
      <trkpt lat="48.07563" lon="6.83706">
        <ele>761</ele>
        <time>2020-10-28T13:45:53.751Z</time>
      </trkpt>
      <trkpt lat="48.07561" lon="6.83707">
        <ele>761</ele>
        <time>2020-10-28T13:45:54.751Z</time>
      </trkpt>
      <trkpt lat="48.0756" lon="6.83708">
        <ele>761</ele>
        <time>2020-10-28T13:45:55.751Z</time>
      </trkpt>
      <trkpt lat="48.0756" lon="6.83709">
        <ele>761</ele>
        <time>2020-10-28T13:45:56.750Z</time>
      </trkpt>
      <trkpt lat="48.07559" lon="6.8371">
        <ele>761</ele>
        <time>2020-10-28T13:45:57.751Z</time>
      </trkpt>
      <trkpt lat="48.07558" lon="6.83711">
        <ele>760</ele>
        <time>2020-10-28T13:45:58.750Z</time>
      </trkpt>
      <trkpt lat="48.07557" lon="6.83711">
        <ele>760</ele>
        <time>2020-10-28T13:45:59.751Z</time>
      </trkpt>
      <trkpt lat="48.07556" lon="6.83712">
        <ele>760</ele>
        <time>2020-10-28T13:46:00.751Z</time>
      </trkpt>
      <trkpt lat="48.07556" lon="6.83712">
        <ele>761</ele>
        <time>2020-10-28T13:46:01.751Z</time>
      </trkpt>
      <trkpt lat="48.07556" lon="6.83713">
        <ele>761</ele>
        <time>2020-10-28T13:46:02.751Z</time>
      </trkpt>
      <trkpt lat="48.07555" lon="6.83713">
        <ele>761</ele>
        <time>2020-10-28T13:46:03.751Z</time>
      </trkpt>
      <trkpt lat="48.07555" lon="6.83714">
        <ele>762</ele>
        <time>2020-10-28T13:46:04.751Z</time>
      </trkpt>
      <trkpt lat="48.07554" lon="6.83715">
        <ele>762</ele>
        <time>2020-10-28T13:46:05.750Z</time>
      </trkpt>
      <trkpt lat="48.07553" lon="6.83716">
        <ele>763</ele>
        <time>2020-10-28T13:46:06.751Z</time>
      </trkpt>
      <trkpt lat="48.07552" lon="6.83717">
        <ele>763</ele>
        <time>2020-10-28T13:46:07.750Z</time>
      </trkpt>
      <trkpt lat="48.07551" lon="6.83719">
        <ele>763</ele>
        <time>2020-10-28T13:46:08.750Z</time>
      </trkpt>
      <trkpt lat="48.0755" lon="6.8372">
        <ele>763</ele>
        <time>2020-10-28T13:46:09.750Z</time>
      </trkpt>
      <trkpt lat="48.07549" lon="6.83721">
        <ele>763</ele>
        <time>2020-10-28T13:46:10.751Z</time>
      </trkpt>
      <trkpt lat="48.07547" lon="6.83723">
        <ele>763</ele>
        <time>2020-10-28T13:46:11.750Z</time>
      </trkpt>
      <trkpt lat="48.07546" lon="6.83724">
        <ele>763</ele>
        <time>2020-10-28T13:46:12.751Z</time>
      </trkpt>
      <trkpt lat="48.07545" lon="6.83725">
        <ele>763</ele>
        <time>2020-10-28T13:46:13.751Z</time>
      </trkpt>
      <trkpt lat="48.07544" lon="6.83726">
        <ele>763</ele>
        <time>2020-10-28T13:46:14.751Z</time>
      </trkpt>
      <trkpt lat="48.07544" lon="6.83727">
        <ele>763</ele>
        <time>2020-10-28T13:46:15.751Z</time>
      </trkpt>
      <trkpt lat="48.07543" lon="6.83727">
        <ele>763</ele>
        <time>2020-10-28T13:46:16.751Z</time>
      </trkpt>
      <trkpt lat="48.07543" lon="6.83727">
        <ele>763</ele>
        <time>2020-10-28T13:46:17.750Z</time>
      </trkpt>
      <trkpt lat="48.07543" lon="6.83728">
        <ele>763</ele>
        <time>2020-10-28T13:47:05.804Z</time>
      </trkpt>
      <trkpt lat="48.07542" lon="6.83728">
        <ele>764</ele>
        <time>2020-10-28T13:47:06.804Z</time>
      </trkpt>
      <trkpt lat="48.07542" lon="6.83728">
        <ele>764</ele>
        <time>2020-10-28T13:47:07.804Z</time>
      </trkpt>
      <trkpt lat="48.07542" lon="6.83727">
        <ele>764</ele>
        <time>2020-10-28T13:47:08.804Z</time>
      </trkpt>
      <trkpt lat="48.07541" lon="6.83726">
        <ele>764</ele>
        <time>2020-10-28T13:47:09.804Z</time>
      </trkpt>
      <trkpt lat="48.07542" lon="6.83726">
        <ele>765</ele>
        <time>2020-10-28T13:47:10.804Z</time>
      </trkpt>
      <trkpt lat="48.07542" lon="6.83726">
        <ele>765</ele>
        <time>2020-10-28T13:47:11.804Z</time>
      </trkpt>
      <trkpt lat="48.07542" lon="6.83727">
        <ele>765</ele>
        <time>2020-10-28T13:47:12.803Z</time>
      </trkpt>
      <trkpt lat="48.07541" lon="6.83728">
        <ele>765</ele>
        <time>2020-10-28T13:47:13.803Z</time>
      </trkpt>
      <trkpt lat="48.07541" lon="6.83729">
        <ele>765</ele>
        <time>2020-10-28T13:47:14.804Z</time>
      </trkpt>
      <trkpt lat="48.0754" lon="6.8373">
        <ele>766</ele>
        <time>2020-10-28T13:47:15.804Z</time>
      </trkpt>
      <trkpt lat="48.07539" lon="6.8373">
        <ele>766</ele>
        <time>2020-10-28T13:47:16.804Z</time>
      </trkpt>
      <trkpt lat="48.07537" lon="6.83732">
        <ele>766</ele>
        <time>2020-10-28T13:47:17.804Z</time>
      </trkpt>
      <trkpt lat="48.07537" lon="6.83733">
        <ele>765</ele>
        <time>2020-10-28T13:47:18.804Z</time>
      </trkpt>
      <trkpt lat="48.07536" lon="6.83734">
        <ele>764</ele>
        <time>2020-10-28T13:47:19.804Z</time>
      </trkpt>
      <trkpt lat="48.07535" lon="6.83735">
        <ele>764</ele>
        <time>2020-10-28T13:47:20.804Z</time>
      </trkpt>
      <trkpt lat="48.07534" lon="6.83737">
        <ele>763</ele>
        <time>2020-10-28T13:47:21.804Z</time>
      </trkpt>
      <trkpt lat="48.07534" lon="6.83738">
        <ele>763</ele>
        <time>2020-10-28T13:47:22.804Z</time>
      </trkpt>
      <trkpt lat="48.07533" lon="6.83739">
        <ele>762</ele>
        <time>2020-10-28T13:47:23.804Z</time>
      </trkpt>
      <trkpt lat="48.07532" lon="6.8374">
        <ele>762</ele>
        <time>2020-10-28T13:47:24.803Z</time>
      </trkpt>
      <trkpt lat="48.07532" lon="6.83741">
        <ele>761</ele>
        <time>2020-10-28T13:47:25.804Z</time>
      </trkpt>
      <trkpt lat="48.07532" lon="6.83741">
        <ele>761</ele>
        <time>2020-10-28T13:47:26.804Z</time>
      </trkpt>
      <trkpt lat="48.07531" lon="6.83743">
        <ele>760</ele>
        <time>2020-10-28T13:47:27.804Z</time>
      </trkpt>
      <trkpt lat="48.0753" lon="6.83745">
        <ele>759</ele>
        <time>2020-10-28T13:47:28.803Z</time>
      </trkpt>
      <trkpt lat="48.07529" lon="6.83746">
        <ele>759</ele>
        <time>2020-10-28T13:47:29.804Z</time>
      </trkpt>
      <trkpt lat="48.07528" lon="6.83748">
        <ele>759</ele>
        <time>2020-10-28T13:47:30.804Z</time>
      </trkpt>
      <trkpt lat="48.07527" lon="6.83749">
        <ele>759</ele>
        <time>2020-10-28T13:47:31.803Z</time>
      </trkpt>
      <trkpt lat="48.07527" lon="6.83749">
        <ele>758</ele>
        <time>2020-10-28T13:47:32.803Z</time>
      </trkpt>
      <trkpt lat="48.07526" lon="6.8375">
        <ele>757</ele>
        <time>2020-10-28T13:47:33.804Z</time>
      </trkpt>
      <trkpt lat="48.07525" lon="6.83751">
        <ele>757</ele>
        <time>2020-10-28T13:47:34.804Z</time>
      </trkpt>
      <trkpt lat="48.07524" lon="6.83752">
        <ele>756</ele>
        <time>2020-10-28T13:47:35.804Z</time>
      </trkpt>
      <trkpt lat="48.07524" lon="6.83754">
        <ele>756</ele>
        <time>2020-10-28T13:47:36.803Z</time>
      </trkpt>
      <trkpt lat="48.07522" lon="6.83755">
        <ele>755</ele>
        <time>2020-10-28T13:47:37.804Z</time>
      </trkpt>
      <trkpt lat="48.0752" lon="6.83757">
        <ele>755</ele>
        <time>2020-10-28T13:47:38.804Z</time>
      </trkpt>
      <trkpt lat="48.07519" lon="6.83758">
        <ele>755</ele>
        <time>2020-10-28T13:47:39.804Z</time>
      </trkpt>
      <trkpt lat="48.07518" lon="6.8376">
        <ele>755</ele>
        <time>2020-10-28T13:47:40.804Z</time>
      </trkpt>
      <trkpt lat="48.07517" lon="6.8376">
        <ele>755</ele>
        <time>2020-10-28T13:47:41.804Z</time>
      </trkpt>
      <trkpt lat="48.07517" lon="6.83761">
        <ele>755</ele>
        <time>2020-10-28T13:47:42.803Z</time>
      </trkpt>
      <trkpt lat="48.07517" lon="6.83761">
        <ele>755</ele>
        <time>2020-10-28T13:47:43.804Z</time>
      </trkpt>
      <trkpt lat="48.07517" lon="6.83763">
        <ele>756</ele>
        <time>2020-10-28T13:47:44.804Z</time>
      </trkpt>
      <trkpt lat="48.07516" lon="6.83764">
        <ele>757</ele>
        <time>2020-10-28T13:47:45.803Z</time>
      </trkpt>
      <trkpt lat="48.07515" lon="6.83766">
        <ele>757</ele>
        <time>2020-10-28T13:47:46.804Z</time>
      </trkpt>
      <trkpt lat="48.07515" lon="6.83766">
        <ele>757</ele>
        <time>2020-10-28T13:47:47.804Z</time>
      </trkpt>
      <trkpt lat="48.07515" lon="6.83767">
        <ele>758</ele>
        <time>2020-10-28T13:47:48.804Z</time>
      </trkpt>
      <trkpt lat="48.07514" lon="6.83768">
        <ele>758</ele>
        <time>2020-10-28T13:47:49.804Z</time>
      </trkpt>
      <trkpt lat="48.07513" lon="6.83769">
        <ele>758</ele>
        <time>2020-10-28T13:47:50.803Z</time>
      </trkpt>
      <trkpt lat="48.07512" lon="6.8377">
        <ele>759</ele>
        <time>2020-10-28T13:47:51.804Z</time>
      </trkpt>
      <trkpt lat="48.07511" lon="6.83771">
        <ele>759</ele>
        <time>2020-10-28T13:47:52.804Z</time>
      </trkpt>
      <trkpt lat="48.0751" lon="6.83771">
        <ele>759</ele>
        <time>2020-10-28T13:47:53.804Z</time>
      </trkpt>
      <trkpt lat="48.07509" lon="6.83771">
        <ele>759</ele>
        <time>2020-10-28T13:47:54.803Z</time>
      </trkpt>
      <trkpt lat="48.07508" lon="6.83771">
        <ele>759</ele>
        <time>2020-10-28T13:47:55.804Z</time>
      </trkpt>
      <trkpt lat="48.07507" lon="6.83771">
        <ele>759</ele>
        <time>2020-10-28T13:47:56.804Z</time>
      </trkpt>
      <trkpt lat="48.07507" lon="6.83772">
        <ele>759</ele>
        <time>2020-10-28T13:47:57.804Z</time>
      </trkpt>
      <trkpt lat="48.07507" lon="6.83773">
        <ele>758</ele>
        <time>2020-10-28T13:47:58.804Z</time>
      </trkpt>
      <trkpt lat="48.07507" lon="6.83774">
        <ele>758</ele>
        <time>2020-10-28T13:47:59.803Z</time>
      </trkpt>
      <trkpt lat="48.07506" lon="6.83774">
        <ele>757</ele>
        <time>2020-10-28T13:48:00.804Z</time>
      </trkpt>
      <trkpt lat="48.07505" lon="6.83776">
        <ele>757</ele>
        <time>2020-10-28T13:48:01.804Z</time>
      </trkpt>
      <trkpt lat="48.07505" lon="6.83777">
        <ele>757</ele>
        <time>2020-10-28T13:48:02.804Z</time>
      </trkpt>
      <trkpt lat="48.07505" lon="6.83778">
        <ele>757</ele>
        <time>2020-10-28T13:48:03.804Z</time>
      </trkpt>
      <trkpt lat="48.07505" lon="6.83778">
        <ele>757</ele>
        <time>2020-10-28T13:48:04.804Z</time>
      </trkpt>
      <trkpt lat="48.07505" lon="6.83779">
        <ele>757</ele>
        <time>2020-10-28T13:48:05.804Z</time>
      </trkpt>
      <trkpt lat="48.07505" lon="6.83778">
        <ele>757</ele>
        <time>2020-10-28T13:48:06.804Z</time>
      </trkpt>
      <trkpt lat="48.07505" lon="6.83778">
        <ele>757</ele>
        <time>2020-10-28T13:48:07.804Z</time>
      </trkpt>
      <trkpt lat="48.07504" lon="6.8378">
        <ele>754</ele>
        <time>2020-10-28T13:48:08.805Z</time>
      </trkpt>
      <trkpt lat="48.07504" lon="6.8378">
        <ele>753</ele>
        <time>2020-10-28T13:48:09.805Z</time>
      </trkpt>
      <trkpt lat="48.07503" lon="6.83781">
        <ele>753</ele>
        <time>2020-10-28T13:48:10.804Z</time>
      </trkpt>
      <trkpt lat="48.07502" lon="6.83782">
        <ele>752</ele>
        <time>2020-10-28T13:48:11.805Z</time>
      </trkpt>
      <trkpt lat="48.07502" lon="6.83783">
        <ele>751</ele>
        <time>2020-10-28T13:48:12.805Z</time>
      </trkpt>
      <trkpt lat="48.07502" lon="6.83784">
        <ele>750</ele>
        <time>2020-10-28T13:48:13.804Z</time>
      </trkpt>
      <trkpt lat="48.07501" lon="6.83785">
        <ele>749</ele>
        <time>2020-10-28T13:48:14.805Z</time>
      </trkpt>
      <trkpt lat="48.07501" lon="6.83785">
        <ele>749</ele>
        <time>2020-10-28T13:48:15.805Z</time>
      </trkpt>
      <trkpt lat="48.075" lon="6.83786">
        <ele>748</ele>
        <time>2020-10-28T13:48:16.804Z</time>
      </trkpt>
      <trkpt lat="48.075" lon="6.83787">
        <ele>748</ele>
        <time>2020-10-28T13:48:17.805Z</time>
      </trkpt>
      <trkpt lat="48.07499" lon="6.83788">
        <ele>747</ele>
        <time>2020-10-28T13:48:18.805Z</time>
      </trkpt>
      <trkpt lat="48.07498" lon="6.83789">
        <ele>747</ele>
        <time>2020-10-28T13:48:19.804Z</time>
      </trkpt>
      <trkpt lat="48.07498" lon="6.8379">
        <ele>747</ele>
        <time>2020-10-28T13:48:20.805Z</time>
      </trkpt>
      <trkpt lat="48.07498" lon="6.8379">
        <ele>746</ele>
        <time>2020-10-28T13:48:21.804Z</time>
      </trkpt>
      <trkpt lat="48.07498" lon="6.83791">
        <ele>746</ele>
        <time>2020-10-28T13:48:22.805Z</time>
      </trkpt>
      <trkpt lat="48.07498" lon="6.83792">
        <ele>746</ele>
        <time>2020-10-28T13:48:23.805Z</time>
      </trkpt>
      <trkpt lat="48.07498" lon="6.83794">
        <ele>746</ele>
        <time>2020-10-28T13:48:24.804Z</time>
      </trkpt>
      <trkpt lat="48.07496" lon="6.83795">
        <ele>746</ele>
        <time>2020-10-28T13:48:25.805Z</time>
      </trkpt>
      <trkpt lat="48.07495" lon="6.83796">
        <ele>747</ele>
        <time>2020-10-28T13:48:26.805Z</time>
      </trkpt>
      <trkpt lat="48.07494" lon="6.83797">
        <ele>747</ele>
        <time>2020-10-28T13:48:27.805Z</time>
      </trkpt>
      <trkpt lat="48.07493" lon="6.83799">
        <ele>748</ele>
        <time>2020-10-28T13:48:28.805Z</time>
      </trkpt>
      <trkpt lat="48.07493" lon="6.838">
        <ele>748</ele>
        <time>2020-10-28T13:48:29.805Z</time>
      </trkpt>
      <trkpt lat="48.07492" lon="6.83801">
        <ele>748</ele>
        <time>2020-10-28T13:48:30.805Z</time>
      </trkpt>
      <trkpt lat="48.07491" lon="6.83801">
        <ele>749</ele>
        <time>2020-10-28T13:48:31.804Z</time>
      </trkpt>
      <trkpt lat="48.0749" lon="6.83801">
        <ele>749</ele>
        <time>2020-10-28T13:48:32.804Z</time>
      </trkpt>
      <trkpt lat="48.07489" lon="6.83803">
        <ele>750</ele>
        <time>2020-10-28T13:48:33.805Z</time>
      </trkpt>
      <trkpt lat="48.07488" lon="6.83805">
        <ele>750</ele>
        <time>2020-10-28T13:48:34.805Z</time>
      </trkpt>
      <trkpt lat="48.07488" lon="6.83806">
        <ele>751</ele>
        <time>2020-10-28T13:48:35.805Z</time>
      </trkpt>
      <trkpt lat="48.07488" lon="6.83807">
        <ele>751</ele>
        <time>2020-10-28T13:48:36.805Z</time>
      </trkpt>
      <trkpt lat="48.07487" lon="6.83808">
        <ele>752</ele>
        <time>2020-10-28T13:48:37.805Z</time>
      </trkpt>
      <trkpt lat="48.07486" lon="6.83809">
        <ele>752</ele>
        <time>2020-10-28T13:48:38.805Z</time>
      </trkpt>
      <trkpt lat="48.07486" lon="6.8381">
        <ele>753</ele>
        <time>2020-10-28T13:48:39.805Z</time>
      </trkpt>
      <trkpt lat="48.07486" lon="6.83811">
        <ele>753</ele>
        <time>2020-10-28T13:48:40.805Z</time>
      </trkpt>
      <trkpt lat="48.07486" lon="6.83812">
        <ele>754</ele>
        <time>2020-10-28T13:48:41.805Z</time>
      </trkpt>
      <trkpt lat="48.07486" lon="6.83812">
        <ele>754</ele>
        <time>2020-10-28T13:48:42.805Z</time>
      </trkpt>
      <trkpt lat="48.07485" lon="6.83812">
        <ele>755</ele>
        <time>2020-10-28T13:48:43.804Z</time>
      </trkpt>
      <trkpt lat="48.07484" lon="6.83811">
        <ele>755</ele>
        <time>2020-10-28T13:48:44.805Z</time>
      </trkpt>
      <trkpt lat="48.07482" lon="6.83812">
        <ele>755</ele>
        <time>2020-10-28T13:48:45.805Z</time>
      </trkpt>
      <trkpt lat="48.07482" lon="6.83813">
        <ele>755</ele>
        <time>2020-10-28T13:48:46.804Z</time>
      </trkpt>
      <trkpt lat="48.07481" lon="6.83813">
        <ele>755</ele>
        <time>2020-10-28T13:48:47.805Z</time>
      </trkpt>
      <trkpt lat="48.07481" lon="6.83814">
        <ele>755</ele>
        <time>2020-10-28T13:48:48.805Z</time>
      </trkpt>
      <trkpt lat="48.07481" lon="6.83815">
        <ele>755</ele>
        <time>2020-10-28T13:48:49.805Z</time>
      </trkpt>
      <trkpt lat="48.07481" lon="6.83817">
        <ele>755</ele>
        <time>2020-10-28T13:48:50.805Z</time>
      </trkpt>
      <trkpt lat="48.07481" lon="6.83818">
        <ele>754</ele>
        <time>2020-10-28T13:48:51.805Z</time>
      </trkpt>
      <trkpt lat="48.07479" lon="6.83819">
        <ele>754</ele>
        <time>2020-10-28T13:48:52.804Z</time>
      </trkpt>
      <trkpt lat="48.07478" lon="6.83819">
        <ele>753</ele>
        <time>2020-10-28T13:48:53.805Z</time>
      </trkpt>
      <trkpt lat="48.07478" lon="6.8382">
        <ele>753</ele>
        <time>2020-10-28T13:48:54.804Z</time>
      </trkpt>
      <trkpt lat="48.07477" lon="6.8382">
        <ele>753</ele>
        <time>2020-10-28T13:48:55.805Z</time>
      </trkpt>
      <trkpt lat="48.07476" lon="6.83821">
        <ele>753</ele>
        <time>2020-10-28T13:48:56.804Z</time>
      </trkpt>
      <trkpt lat="48.07475" lon="6.83822">
        <ele>753</ele>
        <time>2020-10-28T13:48:57.805Z</time>
      </trkpt>
      <trkpt lat="48.07474" lon="6.83824">
        <ele>753</ele>
        <time>2020-10-28T13:48:58.805Z</time>
      </trkpt>
      <trkpt lat="48.07473" lon="6.83825">
        <ele>753</ele>
        <time>2020-10-28T13:48:59.805Z</time>
      </trkpt>
      <trkpt lat="48.0747" lon="6.83828">
        <ele>754</ele>
        <time>2020-10-28T13:49:00.806Z</time>
      </trkpt>
      <trkpt lat="48.0747" lon="6.8383">
        <ele>754</ele>
        <time>2020-10-28T13:49:01.806Z</time>
      </trkpt>
      <trkpt lat="48.07463" lon="6.83837">
        <ele>751</ele>
        <time>2020-10-28T13:49:02.805Z</time>
      </trkpt>
      <trkpt lat="48.07463" lon="6.83838">
        <ele>750</ele>
        <time>2020-10-28T13:49:03.806Z</time>
      </trkpt>
      <trkpt lat="48.07461" lon="6.8384">
        <ele>750</ele>
        <time>2020-10-28T13:49:04.805Z</time>
      </trkpt>
      <trkpt lat="48.0746" lon="6.83841">
        <ele>750</ele>
        <time>2020-10-28T13:49:05.806Z</time>
      </trkpt>
      <trkpt lat="48.07459" lon="6.83842">
        <ele>749</ele>
        <time>2020-10-28T13:49:06.806Z</time>
      </trkpt>
      <trkpt lat="48.07458" lon="6.83843">
        <ele>749</ele>
        <time>2020-10-28T13:49:07.806Z</time>
      </trkpt>
      <trkpt lat="48.07457" lon="6.83844">
        <ele>748</ele>
        <time>2020-10-28T13:49:08.806Z</time>
      </trkpt>
      <trkpt lat="48.07454" lon="6.83848">
        <ele>746</ele>
        <time>2020-10-28T13:49:09.805Z</time>
      </trkpt>
      <trkpt lat="48.07452" lon="6.8385">
        <ele>746</ele>
        <time>2020-10-28T13:49:10.805Z</time>
      </trkpt>
      <trkpt lat="48.07451" lon="6.83851">
        <ele>745</ele>
        <time>2020-10-28T13:49:11.805Z</time>
      </trkpt>
      <trkpt lat="48.0745" lon="6.83853">
        <ele>745</ele>
        <time>2020-10-28T13:49:12.805Z</time>
      </trkpt>
      <trkpt lat="48.07448" lon="6.83855">
        <ele>745</ele>
        <time>2020-10-28T13:49:13.805Z</time>
      </trkpt>
      <trkpt lat="48.07447" lon="6.83856">
        <ele>744</ele>
        <time>2020-10-28T13:49:14.805Z</time>
      </trkpt>
      <trkpt lat="48.07445" lon="6.83858">
        <ele>744</ele>
        <time>2020-10-28T13:49:15.805Z</time>
      </trkpt>
      <trkpt lat="48.07444" lon="6.83859">
        <ele>743</ele>
        <time>2020-10-28T13:49:16.805Z</time>
      </trkpt>
      <trkpt lat="48.07443" lon="6.83859">
        <ele>743</ele>
        <time>2020-10-28T13:49:17.805Z</time>
      </trkpt>
      <trkpt lat="48.07442" lon="6.83859">
        <ele>742</ele>
        <time>2020-10-28T13:49:18.805Z</time>
      </trkpt>
      <trkpt lat="48.07441" lon="6.8386">
        <ele>741</ele>
        <time>2020-10-28T13:49:19.805Z</time>
      </trkpt>
      <trkpt lat="48.07441" lon="6.8386">
        <ele>740</ele>
        <time>2020-10-28T13:49:20.806Z</time>
      </trkpt>
      <trkpt lat="48.07441" lon="6.8386">
        <ele>740</ele>
        <time>2020-10-28T13:49:21.805Z</time>
      </trkpt>
      <trkpt lat="48.07441" lon="6.83861">
        <ele>739</ele>
        <time>2020-10-28T13:49:22.805Z</time>
      </trkpt>
      <trkpt lat="48.0744" lon="6.83863">
        <ele>739</ele>
        <time>2020-10-28T13:49:23.805Z</time>
      </trkpt>
      <trkpt lat="48.0744" lon="6.83864">
        <ele>739</ele>
        <time>2020-10-28T13:49:24.806Z</time>
      </trkpt>
      <trkpt lat="48.07439" lon="6.83865">
        <ele>739</ele>
        <time>2020-10-28T13:49:25.805Z</time>
      </trkpt>
      <trkpt lat="48.07439" lon="6.83866">
        <ele>739</ele>
        <time>2020-10-28T13:49:26.806Z</time>
      </trkpt>
      <trkpt lat="48.07438" lon="6.83867">
        <ele>739</ele>
        <time>2020-10-28T13:49:27.805Z</time>
      </trkpt>
      <trkpt lat="48.07438" lon="6.83868">
        <ele>739</ele>
        <time>2020-10-28T13:49:28.806Z</time>
      </trkpt>
      <trkpt lat="48.07437" lon="6.83869">
        <ele>738</ele>
        <time>2020-10-28T13:49:29.806Z</time>
      </trkpt>
      <trkpt lat="48.07437" lon="6.8387">
        <ele>738</ele>
        <time>2020-10-28T13:49:30.806Z</time>
      </trkpt>
      <trkpt lat="48.07437" lon="6.83871">
        <ele>738</ele>
        <time>2020-10-28T13:49:31.805Z</time>
      </trkpt>
      <trkpt lat="48.07436" lon="6.83872">
        <ele>737</ele>
        <time>2020-10-28T13:49:32.806Z</time>
      </trkpt>
      <trkpt lat="48.07436" lon="6.83873">
        <ele>737</ele>
        <time>2020-10-28T13:49:33.805Z</time>
      </trkpt>
      <trkpt lat="48.07435" lon="6.83874">
        <ele>736</ele>
        <time>2020-10-28T13:49:34.806Z</time>
      </trkpt>
      <trkpt lat="48.07434" lon="6.83875">
        <ele>736</ele>
        <time>2020-10-28T13:49:35.805Z</time>
      </trkpt>
      <trkpt lat="48.07432" lon="6.83876">
        <ele>736</ele>
        <time>2020-10-28T13:49:36.805Z</time>
      </trkpt>
      <trkpt lat="48.07431" lon="6.83877">
        <ele>735</ele>
        <time>2020-10-28T13:49:37.806Z</time>
      </trkpt>
      <trkpt lat="48.0743" lon="6.83878">
        <ele>735</ele>
        <time>2020-10-28T13:49:38.805Z</time>
      </trkpt>
      <trkpt lat="48.07428" lon="6.83879">
        <ele>735</ele>
        <time>2020-10-28T13:49:39.806Z</time>
      </trkpt>
      <trkpt lat="48.07426" lon="6.83881">
        <ele>735</ele>
        <time>2020-10-28T13:49:40.805Z</time>
      </trkpt>
      <trkpt lat="48.07425" lon="6.83882">
        <ele>735</ele>
        <time>2020-10-28T13:49:41.805Z</time>
      </trkpt>
      <trkpt lat="48.07423" lon="6.83884">
        <ele>735</ele>
        <time>2020-10-28T13:49:42.806Z</time>
      </trkpt>
      <trkpt lat="48.07422" lon="6.83886">
        <ele>735</ele>
        <time>2020-10-28T13:49:43.806Z</time>
      </trkpt>
      <trkpt lat="48.07421" lon="6.83887">
        <ele>735</ele>
        <time>2020-10-28T13:49:44.805Z</time>
      </trkpt>
      <trkpt lat="48.0742" lon="6.83889">
        <ele>735</ele>
        <time>2020-10-28T13:49:45.805Z</time>
      </trkpt>
      <trkpt lat="48.07419" lon="6.8389">
        <ele>736</ele>
        <time>2020-10-28T13:49:46.805Z</time>
      </trkpt>
      <trkpt lat="48.07418" lon="6.83891">
        <ele>736</ele>
        <time>2020-10-28T13:49:47.805Z</time>
      </trkpt>
      <trkpt lat="48.07417" lon="6.83892">
        <ele>736</ele>
        <time>2020-10-28T13:49:48.806Z</time>
      </trkpt>
      <trkpt lat="48.07416" lon="6.83892">
        <ele>736</ele>
        <time>2020-10-28T13:49:49.806Z</time>
      </trkpt>
      <trkpt lat="48.07416" lon="6.83892">
        <ele>736</ele>
        <time>2020-10-28T13:49:50.805Z</time>
      </trkpt>
      <trkpt lat="48.07415" lon="6.83893">
        <ele>736</ele>
        <time>2020-10-28T13:49:51.806Z</time>
      </trkpt>
      <trkpt lat="48.07415" lon="6.83893">
        <ele>736</ele>
        <time>2020-10-28T13:49:52.806Z</time>
      </trkpt>
      <trkpt lat="48.07414" lon="6.83894">
        <ele>736</ele>
        <time>2020-10-28T13:49:53.806Z</time>
      </trkpt>
      <trkpt lat="48.07414" lon="6.83895">
        <ele>736</ele>
        <time>2020-10-28T13:49:54.806Z</time>
      </trkpt>
      <trkpt lat="48.07413" lon="6.83896">
        <ele>736</ele>
        <time>2020-10-28T13:49:55.805Z</time>
      </trkpt>
      <trkpt lat="48.07412" lon="6.83897">
        <ele>736</ele>
        <time>2020-10-28T13:49:56.805Z</time>
      </trkpt>
      <trkpt lat="48.07411" lon="6.83897">
        <ele>736</ele>
        <time>2020-10-28T13:49:57.806Z</time>
      </trkpt>
      <trkpt lat="48.07411" lon="6.83898">
        <ele>737</ele>
        <time>2020-10-28T13:49:58.806Z</time>
      </trkpt>
      <trkpt lat="48.07411" lon="6.83898">
        <ele>737</ele>
        <time>2020-10-28T13:49:59.806Z</time>
      </trkpt>
      <trkpt lat="48.0741" lon="6.83899">
        <ele>737</ele>
        <time>2020-10-28T13:50:00.805Z</time>
      </trkpt>
      <trkpt lat="48.0741" lon="6.839">
        <ele>737</ele>
        <time>2020-10-28T13:50:01.805Z</time>
      </trkpt>
      <trkpt lat="48.0741" lon="6.83901">
        <ele>738</ele>
        <time>2020-10-28T13:50:02.805Z</time>
      </trkpt>
      <trkpt lat="48.0741" lon="6.83902">
        <ele>737</ele>
        <time>2020-10-28T13:50:03.806Z</time>
      </trkpt>
      <trkpt lat="48.07409" lon="6.83903">
        <ele>738</ele>
        <time>2020-10-28T13:50:04.806Z</time>
      </trkpt>
      <trkpt lat="48.07409" lon="6.83903">
        <ele>738</ele>
        <time>2020-10-28T13:50:05.805Z</time>
      </trkpt>
      <trkpt lat="48.07408" lon="6.83904">
        <ele>738</ele>
        <time>2020-10-28T13:50:06.805Z</time>
      </trkpt>
      <trkpt lat="48.07407" lon="6.83905">
        <ele>738</ele>
        <time>2020-10-28T13:50:07.806Z</time>
      </trkpt>
      <trkpt lat="48.07407" lon="6.83906">
        <ele>738</ele>
        <time>2020-10-28T13:50:08.805Z</time>
      </trkpt>
      <trkpt lat="48.07406" lon="6.83908">
        <ele>738</ele>
        <time>2020-10-28T13:50:09.806Z</time>
      </trkpt>
      <trkpt lat="48.07404" lon="6.83909">
        <ele>737</ele>
        <time>2020-10-28T13:50:10.805Z</time>
      </trkpt>
      <trkpt lat="48.07404" lon="6.8391">
        <ele>737</ele>
        <time>2020-10-28T13:50:11.806Z</time>
      </trkpt>
      <trkpt lat="48.07403" lon="6.8391">
        <ele>737</ele>
        <time>2020-10-28T13:50:12.805Z</time>
      </trkpt>
      <trkpt lat="48.07403" lon="6.83911">
        <ele>736</ele>
        <time>2020-10-28T13:50:13.806Z</time>
      </trkpt>
      <trkpt lat="48.07402" lon="6.83912">
        <ele>736</ele>
        <time>2020-10-28T13:50:14.806Z</time>
      </trkpt>
      <trkpt lat="48.07401" lon="6.83913">
        <ele>735</ele>
        <time>2020-10-28T13:50:15.806Z</time>
      </trkpt>
      <trkpt lat="48.07399" lon="6.83914">
        <ele>734</ele>
        <time>2020-10-28T13:50:16.806Z</time>
      </trkpt>
      <trkpt lat="48.07397" lon="6.83916">
        <ele>733</ele>
        <time>2020-10-28T13:50:17.805Z</time>
      </trkpt>
      <trkpt lat="48.07396" lon="6.83917">
        <ele>732</ele>
        <time>2020-10-28T13:50:18.806Z</time>
      </trkpt>
      <trkpt lat="48.07395" lon="6.83916">
        <ele>731</ele>
        <time>2020-10-28T13:50:19.806Z</time>
      </trkpt>
      <trkpt lat="48.07394" lon="6.83917">
        <ele>730</ele>
        <time>2020-10-28T13:50:20.806Z</time>
      </trkpt>
      <trkpt lat="48.07393" lon="6.83917">
        <ele>729</ele>
        <time>2020-10-28T13:50:21.805Z</time>
      </trkpt>
      <trkpt lat="48.07392" lon="6.83917">
        <ele>728</ele>
        <time>2020-10-28T13:50:22.806Z</time>
      </trkpt>
      <trkpt lat="48.07391" lon="6.83917">
        <ele>727</ele>
        <time>2020-10-28T13:50:23.805Z</time>
      </trkpt>
      <trkpt lat="48.0739" lon="6.83918">
        <ele>726</ele>
        <time>2020-10-28T13:50:24.806Z</time>
      </trkpt>
      <trkpt lat="48.0739" lon="6.83919">
        <ele>726</ele>
        <time>2020-10-28T13:50:25.806Z</time>
      </trkpt>
      <trkpt lat="48.07389" lon="6.8392">
        <ele>726</ele>
        <time>2020-10-28T13:50:26.806Z</time>
      </trkpt>
      <trkpt lat="48.07388" lon="6.83922">
        <ele>726</ele>
        <time>2020-10-28T13:50:27.806Z</time>
      </trkpt>
      <trkpt lat="48.07387" lon="6.83925">
        <ele>726</ele>
        <time>2020-10-28T13:50:28.805Z</time>
      </trkpt>
      <trkpt lat="48.07388" lon="6.83926">
        <ele>726</ele>
        <time>2020-10-28T13:50:29.805Z</time>
      </trkpt>
      <trkpt lat="48.07388" lon="6.83927">
        <ele>727</ele>
        <time>2020-10-28T13:50:30.806Z</time>
      </trkpt>
      <trkpt lat="48.07387" lon="6.83928">
        <ele>728</ele>
        <time>2020-10-28T13:50:31.805Z</time>
      </trkpt>
      <trkpt lat="48.07387" lon="6.83929">
        <ele>728</ele>
        <time>2020-10-28T13:50:32.806Z</time>
      </trkpt>
      <trkpt lat="48.07386" lon="6.8393">
        <ele>729</ele>
        <time>2020-10-28T13:50:33.805Z</time>
      </trkpt>
      <trkpt lat="48.07386" lon="6.83931">
        <ele>729</ele>
        <time>2020-10-28T13:50:34.805Z</time>
      </trkpt>
      <trkpt lat="48.07386" lon="6.83931">
        <ele>729</ele>
        <time>2020-10-28T13:50:35.806Z</time>
      </trkpt>
      <trkpt lat="48.07386" lon="6.83931">
        <ele>730</ele>
        <time>2020-10-28T13:50:36.805Z</time>
      </trkpt>
      <trkpt lat="48.07385" lon="6.83932">
        <ele>731</ele>
        <time>2020-10-28T13:50:37.805Z</time>
      </trkpt>
      <trkpt lat="48.07384" lon="6.83933">
        <ele>731</ele>
        <time>2020-10-28T13:50:38.805Z</time>
      </trkpt>
      <trkpt lat="48.07383" lon="6.83934">
        <ele>731</ele>
        <time>2020-10-28T13:50:39.806Z</time>
      </trkpt>
      <trkpt lat="48.07382" lon="6.83935">
        <ele>731</ele>
        <time>2020-10-28T13:50:40.806Z</time>
      </trkpt>
      <trkpt lat="48.07382" lon="6.83935">
        <ele>732</ele>
        <time>2020-10-28T13:50:41.805Z</time>
      </trkpt>
      <trkpt lat="48.07381" lon="6.83936">
        <ele>732</ele>
        <time>2020-10-28T13:50:42.805Z</time>
      </trkpt>
      <trkpt lat="48.0738" lon="6.83937">
        <ele>731</ele>
        <time>2020-10-28T13:50:43.805Z</time>
      </trkpt>
      <trkpt lat="48.07379" lon="6.83937">
        <ele>731</ele>
        <time>2020-10-28T13:50:44.806Z</time>
      </trkpt>
      <trkpt lat="48.07379" lon="6.83938">
        <ele>731</ele>
        <time>2020-10-28T13:50:45.806Z</time>
      </trkpt>
      <trkpt lat="48.07378" lon="6.83939">
        <ele>730</ele>
        <time>2020-10-28T13:50:46.805Z</time>
      </trkpt>
      <trkpt lat="48.07378" lon="6.8394">
        <ele>730</ele>
        <time>2020-10-28T13:50:47.805Z</time>
      </trkpt>
      <trkpt lat="48.07378" lon="6.83941">
        <ele>730</ele>
        <time>2020-10-28T13:50:48.805Z</time>
      </trkpt>
      <trkpt lat="48.07378" lon="6.83942">
        <ele>730</ele>
        <time>2020-10-28T13:50:49.806Z</time>
      </trkpt>
      <trkpt lat="48.07377" lon="6.83943">
        <ele>730</ele>
        <time>2020-10-28T13:50:50.806Z</time>
      </trkpt>
      <trkpt lat="48.07376" lon="6.83944">
        <ele>729</ele>
        <time>2020-10-28T13:50:51.805Z</time>
      </trkpt>
      <trkpt lat="48.07375" lon="6.83944">
        <ele>729</ele>
        <time>2020-10-28T13:50:52.805Z</time>
      </trkpt>
      <trkpt lat="48.07374" lon="6.83945">
        <ele>729</ele>
        <time>2020-10-28T13:50:53.805Z</time>
      </trkpt>
      <trkpt lat="48.07373" lon="6.83945">
        <ele>729</ele>
        <time>2020-10-28T13:50:54.805Z</time>
      </trkpt>
      <trkpt lat="48.07372" lon="6.83945">
        <ele>729</ele>
        <time>2020-10-28T13:50:55.805Z</time>
      </trkpt>
      <trkpt lat="48.07372" lon="6.83944">
        <ele>728</ele>
        <time>2020-10-28T13:50:56.806Z</time>
      </trkpt>
      <trkpt lat="48.07371" lon="6.83943">
        <ele>728</ele>
        <time>2020-10-28T13:50:57.805Z</time>
      </trkpt>
      <trkpt lat="48.07371" lon="6.83943">
        <ele>728</ele>
        <time>2020-10-28T13:50:58.805Z</time>
      </trkpt>
      <trkpt lat="48.07371" lon="6.83944">
        <ele>728</ele>
        <time>2020-10-28T13:50:59.805Z</time>
      </trkpt>
      <trkpt lat="48.07371" lon="6.83944">
        <ele>728</ele>
        <time>2020-10-28T13:51:00.805Z</time>
      </trkpt>
      <trkpt lat="48.07372" lon="6.83946">
        <ele>729</ele>
        <time>2020-10-28T13:51:01.806Z</time>
      </trkpt>
      <trkpt lat="48.07372" lon="6.83947">
        <ele>729</ele>
        <time>2020-10-28T13:51:02.806Z</time>
      </trkpt>
      <trkpt lat="48.07371" lon="6.83948">
        <ele>729</ele>
        <time>2020-10-28T13:51:03.805Z</time>
      </trkpt>
      <trkpt lat="48.07371" lon="6.83948">
        <ele>729</ele>
        <time>2020-10-28T13:51:04.805Z</time>
      </trkpt>
      <trkpt lat="48.0737" lon="6.83949">
        <ele>729</ele>
        <time>2020-10-28T13:51:05.806Z</time>
      </trkpt>
      <trkpt lat="48.07369" lon="6.83949">
        <ele>729</ele>
        <time>2020-10-28T13:51:06.805Z</time>
      </trkpt>
      <trkpt lat="48.07368" lon="6.8395">
        <ele>728</ele>
        <time>2020-10-28T13:51:07.805Z</time>
      </trkpt>
      <trkpt lat="48.07367" lon="6.8395">
        <ele>728</ele>
        <time>2020-10-28T13:51:08.805Z</time>
      </trkpt>
      <trkpt lat="48.07366" lon="6.83951">
        <ele>728</ele>
        <time>2020-10-28T13:51:09.805Z</time>
      </trkpt>
      <trkpt lat="48.07365" lon="6.83951">
        <ele>728</ele>
        <time>2020-10-28T13:51:10.805Z</time>
      </trkpt>
      <trkpt lat="48.07364" lon="6.83951">
        <ele>727</ele>
        <time>2020-10-28T13:51:11.805Z</time>
      </trkpt>
      <trkpt lat="48.07363" lon="6.83952">
        <ele>727</ele>
        <time>2020-10-28T13:51:12.806Z</time>
      </trkpt>
      <trkpt lat="48.07363" lon="6.83952">
        <ele>727</ele>
        <time>2020-10-28T13:51:13.805Z</time>
      </trkpt>
      <trkpt lat="48.07363" lon="6.83953">
        <ele>726</ele>
        <time>2020-10-28T13:51:14.806Z</time>
      </trkpt>
      <trkpt lat="48.07362" lon="6.83953">
        <ele>726</ele>
        <time>2020-10-28T13:51:15.805Z</time>
      </trkpt>
      <trkpt lat="48.07362" lon="6.83954">
        <ele>725</ele>
        <time>2020-10-28T13:51:16.805Z</time>
      </trkpt>
      <trkpt lat="48.07361" lon="6.83955">
        <ele>724</ele>
        <time>2020-10-28T13:51:17.805Z</time>
      </trkpt>
      <trkpt lat="48.0736" lon="6.83956">
        <ele>723</ele>
        <time>2020-10-28T13:51:18.805Z</time>
      </trkpt>
      <trkpt lat="48.0736" lon="6.83957">
        <ele>722</ele>
        <time>2020-10-28T13:51:19.805Z</time>
      </trkpt>
      <trkpt lat="48.07359" lon="6.83959">
        <ele>721</ele>
        <time>2020-10-28T13:51:20.806Z</time>
      </trkpt>
      <trkpt lat="48.07358" lon="6.83961">
        <ele>721</ele>
        <time>2020-10-28T13:51:21.806Z</time>
      </trkpt>
      <trkpt lat="48.07357" lon="6.83962">
        <ele>721</ele>
        <time>2020-10-28T13:51:22.805Z</time>
      </trkpt>
      <trkpt lat="48.07357" lon="6.83964">
        <ele>720</ele>
        <time>2020-10-28T13:51:23.805Z</time>
      </trkpt>
      <trkpt lat="48.07357" lon="6.83965">
        <ele>720</ele>
        <time>2020-10-28T13:51:24.806Z</time>
      </trkpt>
      <trkpt lat="48.07356" lon="6.83965">
        <ele>720</ele>
        <time>2020-10-28T13:51:25.805Z</time>
      </trkpt>
      <trkpt lat="48.07355" lon="6.83966">
        <ele>719</ele>
        <time>2020-10-28T13:51:26.805Z</time>
      </trkpt>
      <trkpt lat="48.07355" lon="6.83967">
        <ele>719</ele>
        <time>2020-10-28T13:51:27.805Z</time>
      </trkpt>
      <trkpt lat="48.07353" lon="6.83968">
        <ele>719</ele>
        <time>2020-10-28T13:51:28.805Z</time>
      </trkpt>
      <trkpt lat="48.07353" lon="6.83969">
        <ele>718</ele>
        <time>2020-10-28T13:51:29.805Z</time>
      </trkpt>
      <trkpt lat="48.07352" lon="6.8397">
        <ele>719</ele>
        <time>2020-10-28T13:51:30.805Z</time>
      </trkpt>
      <trkpt lat="48.07352" lon="6.8397">
        <ele>719</ele>
        <time>2020-10-28T13:51:31.805Z</time>
      </trkpt>
      <trkpt lat="48.07352" lon="6.83972">
        <ele>719</ele>
        <time>2020-10-28T13:51:32.808Z</time>
      </trkpt>
      <trkpt lat="48.07351" lon="6.83973">
        <ele>720</ele>
        <time>2020-10-28T13:51:33.807Z</time>
      </trkpt>
      <trkpt lat="48.0735" lon="6.83974">
        <ele>720</ele>
        <time>2020-10-28T13:51:34.808Z</time>
      </trkpt>
      <trkpt lat="48.0735" lon="6.83974">
        <ele>721</ele>
        <time>2020-10-28T13:51:35.807Z</time>
      </trkpt>
      <trkpt lat="48.0735" lon="6.83975">
        <ele>721</ele>
        <time>2020-10-28T13:51:36.807Z</time>
      </trkpt>
      <trkpt lat="48.07348" lon="6.83976">
        <ele>722</ele>
        <time>2020-10-28T13:51:37.807Z</time>
      </trkpt>
      <trkpt lat="48.07347" lon="6.83977">
        <ele>722</ele>
        <time>2020-10-28T13:51:38.807Z</time>
      </trkpt>
      <trkpt lat="48.07346" lon="6.83978">
        <ele>722</ele>
        <time>2020-10-28T13:51:39.808Z</time>
      </trkpt>
      <trkpt lat="48.07346" lon="6.83983">
        <ele>721</ele>
        <time>2020-10-28T13:51:40.808Z</time>
      </trkpt>
      <trkpt lat="48.07345" lon="6.83984">
        <ele>721</ele>
        <time>2020-10-28T13:51:41.809Z</time>
      </trkpt>
      <trkpt lat="48.07344" lon="6.83989">
        <ele>720</ele>
        <time>2020-10-28T13:51:42.808Z</time>
      </trkpt>
      <trkpt lat="48.07344" lon="6.8399">
        <ele>720</ele>
        <time>2020-10-28T13:51:43.809Z</time>
      </trkpt>
      <trkpt lat="48.07343" lon="6.83991">
        <ele>719</ele>
        <time>2020-10-28T13:51:44.808Z</time>
      </trkpt>
      <trkpt lat="48.07342" lon="6.83991">
        <ele>718</ele>
        <time>2020-10-28T13:51:45.808Z</time>
      </trkpt>
      <trkpt lat="48.07342" lon="6.83992">
        <ele>718</ele>
        <time>2020-10-28T13:51:46.808Z</time>
      </trkpt>
      <trkpt lat="48.07341" lon="6.83994">
        <ele>717</ele>
        <time>2020-10-28T13:51:47.809Z</time>
      </trkpt>
      <trkpt lat="48.07339" lon="6.83996">
        <ele>717</ele>
        <time>2020-10-28T13:51:48.808Z</time>
      </trkpt>
      <trkpt lat="48.07338" lon="6.83996">
        <ele>716</ele>
        <time>2020-10-28T13:51:49.808Z</time>
      </trkpt>
      <trkpt lat="48.07337" lon="6.83997">
        <ele>716</ele>
        <time>2020-10-28T13:51:50.808Z</time>
      </trkpt>
      <trkpt lat="48.07336" lon="6.83998">
        <ele>715</ele>
        <time>2020-10-28T13:51:51.808Z</time>
      </trkpt>
      <trkpt lat="48.07336" lon="6.83997">
        <ele>715</ele>
        <time>2020-10-28T13:51:52.809Z</time>
      </trkpt>
      <trkpt lat="48.07334" lon="6.83997">
        <ele>714</ele>
        <time>2020-10-28T13:51:53.808Z</time>
      </trkpt>
      <trkpt lat="48.07333" lon="6.83997">
        <ele>713</ele>
        <time>2020-10-28T13:51:54.809Z</time>
      </trkpt>
      <trkpt lat="48.07332" lon="6.83995">
        <ele>704</ele>
        <time>2020-10-28T13:51:55.809Z</time>
      </trkpt>
      <trkpt lat="48.07331" lon="6.83995">
        <ele>704</ele>
        <time>2020-10-28T13:51:56.809Z</time>
      </trkpt>
      <trkpt lat="48.07331" lon="6.83995">
        <ele>704</ele>
        <time>2020-10-28T13:51:57.809Z</time>
      </trkpt>
      <trkpt lat="48.07332" lon="6.84001">
        <ele>704</ele>
        <time>2020-10-28T13:51:58.809Z</time>
      </trkpt>
      <trkpt lat="48.07331" lon="6.84002">
        <ele>705</ele>
        <time>2020-10-28T13:51:59.808Z</time>
      </trkpt>
      <trkpt lat="48.0733" lon="6.84002">
        <ele>705</ele>
        <time>2020-10-28T13:52:00.809Z</time>
      </trkpt>
      <trkpt lat="48.0733" lon="6.84003">
        <ele>706</ele>
        <time>2020-10-28T13:52:01.808Z</time>
      </trkpt>
      <trkpt lat="48.07331" lon="6.84003">
        <ele>706</ele>
        <time>2020-10-28T13:52:02.809Z</time>
      </trkpt>
      <trkpt lat="48.07331" lon="6.84003">
        <ele>706</ele>
        <time>2020-10-28T13:52:03.809Z</time>
      </trkpt>
      <trkpt lat="48.07331" lon="6.84002">
        <ele>706</ele>
        <time>2020-10-28T13:52:04.808Z</time>
      </trkpt>
      <trkpt lat="48.07329" lon="6.84002">
        <ele>706</ele>
        <time>2020-10-28T13:52:05.809Z</time>
      </trkpt>
      <trkpt lat="48.07328" lon="6.84002">
        <ele>706</ele>
        <time>2020-10-28T13:52:06.808Z</time>
      </trkpt>
      <trkpt lat="48.07328" lon="6.84003">
        <ele>707</ele>
        <time>2020-10-28T13:52:07.808Z</time>
      </trkpt>
      <trkpt lat="48.07328" lon="6.84004">
        <ele>707</ele>
        <time>2020-10-28T13:52:08.809Z</time>
      </trkpt>
      <trkpt lat="48.07326" lon="6.84005">
        <ele>709</ele>
        <time>2020-10-28T13:52:09.810Z</time>
      </trkpt>
      <trkpt lat="48.07325" lon="6.84005">
        <ele>709</ele>
        <time>2020-10-28T13:52:10.810Z</time>
      </trkpt>
      <trkpt lat="48.07324" lon="6.84005">
        <ele>709</ele>
        <time>2020-10-28T13:52:11.810Z</time>
      </trkpt>
      <trkpt lat="48.07323" lon="6.84006">
        <ele>709</ele>
        <time>2020-10-28T13:52:12.811Z</time>
      </trkpt>
      <trkpt lat="48.07322" lon="6.84006">
        <ele>708</ele>
        <time>2020-10-28T13:52:13.811Z</time>
      </trkpt>
      <trkpt lat="48.07321" lon="6.84006">
        <ele>708</ele>
        <time>2020-10-28T13:52:14.811Z</time>
      </trkpt>
      <trkpt lat="48.0732" lon="6.84006">
        <ele>708</ele>
        <time>2020-10-28T13:52:15.811Z</time>
      </trkpt>
      <trkpt lat="48.07319" lon="6.84006">
        <ele>707</ele>
        <time>2020-10-28T13:52:16.811Z</time>
      </trkpt>
      <trkpt lat="48.07318" lon="6.84007">
        <ele>707</ele>
        <time>2020-10-28T13:52:17.811Z</time>
      </trkpt>
      <trkpt lat="48.07318" lon="6.84008">
        <ele>707</ele>
        <time>2020-10-28T13:52:18.810Z</time>
      </trkpt>
      <trkpt lat="48.07318" lon="6.84009">
        <ele>707</ele>
        <time>2020-10-28T13:52:19.810Z</time>
      </trkpt>
      <trkpt lat="48.07317" lon="6.84011">
        <ele>707</ele>
        <time>2020-10-28T13:52:20.811Z</time>
      </trkpt>
      <trkpt lat="48.07318" lon="6.84012">
        <ele>706</ele>
        <time>2020-10-28T13:52:21.811Z</time>
      </trkpt>
      <trkpt lat="48.07318" lon="6.84013">
        <ele>706</ele>
        <time>2020-10-28T13:52:22.810Z</time>
      </trkpt>
      <trkpt lat="48.07318" lon="6.84013">
        <ele>706</ele>
        <time>2020-10-28T13:52:23.810Z</time>
      </trkpt>
      <trkpt lat="48.07318" lon="6.84015">
        <ele>707</ele>
        <time>2020-10-28T13:52:24.811Z</time>
      </trkpt>
      <trkpt lat="48.07318" lon="6.84016">
        <ele>707</ele>
        <time>2020-10-28T13:52:25.811Z</time>
      </trkpt>
      <trkpt lat="48.07319" lon="6.84018">
        <ele>708</ele>
        <time>2020-10-28T13:52:26.810Z</time>
      </trkpt>
      <trkpt lat="48.0732" lon="6.84019">
        <ele>709</ele>
        <time>2020-10-28T13:52:27.811Z</time>
      </trkpt>
      <trkpt lat="48.0732" lon="6.8402">
        <ele>709</ele>
        <time>2020-10-28T13:52:28.811Z</time>
      </trkpt>
      <trkpt lat="48.0732" lon="6.84021">
        <ele>710</ele>
        <time>2020-10-28T13:52:29.811Z</time>
      </trkpt>
      <trkpt lat="48.0732" lon="6.84022">
        <ele>711</ele>
        <time>2020-10-28T13:52:30.811Z</time>
      </trkpt>
      <trkpt lat="48.07319" lon="6.84023">
        <ele>711</ele>
        <time>2020-10-28T13:52:31.811Z</time>
      </trkpt>
      <trkpt lat="48.07319" lon="6.84023">
        <ele>712</ele>
        <time>2020-10-28T13:52:32.811Z</time>
      </trkpt>
      <trkpt lat="48.07318" lon="6.84025">
        <ele>712</ele>
        <time>2020-10-28T13:52:33.810Z</time>
      </trkpt>
      <trkpt lat="48.07317" lon="6.84026">
        <ele>713</ele>
        <time>2020-10-28T13:52:34.811Z</time>
      </trkpt>
      <trkpt lat="48.07316" lon="6.84027">
        <ele>713</ele>
        <time>2020-10-28T13:52:35.810Z</time>
      </trkpt>
      <trkpt lat="48.07314" lon="6.84028">
        <ele>714</ele>
        <time>2020-10-28T13:52:36.811Z</time>
      </trkpt>
      <trkpt lat="48.07313" lon="6.84028">
        <ele>713</ele>
        <time>2020-10-28T13:52:37.811Z</time>
      </trkpt>
      <trkpt lat="48.07312" lon="6.84028">
        <ele>713</ele>
        <time>2020-10-28T13:52:38.810Z</time>
      </trkpt>
      <trkpt lat="48.07311" lon="6.84028">
        <ele>712</ele>
        <time>2020-10-28T13:52:39.811Z</time>
      </trkpt>
      <trkpt lat="48.07311" lon="6.84028">
        <ele>711</ele>
        <time>2020-10-28T13:52:40.811Z</time>
      </trkpt>
      <trkpt lat="48.0731" lon="6.84028">
        <ele>710</ele>
        <time>2020-10-28T13:52:41.810Z</time>
      </trkpt>
      <trkpt lat="48.07309" lon="6.84027">
        <ele>710</ele>
        <time>2020-10-28T13:52:42.811Z</time>
      </trkpt>
      <trkpt lat="48.07309" lon="6.84027">
        <ele>710</ele>
        <time>2020-10-28T13:52:43.810Z</time>
      </trkpt>
      <trkpt lat="48.07308" lon="6.84026">
        <ele>709</ele>
        <time>2020-10-28T13:52:44.811Z</time>
      </trkpt>
      <trkpt lat="48.07308" lon="6.84026">
        <ele>709</ele>
        <time>2020-10-28T13:52:45.811Z</time>
      </trkpt>
      <trkpt lat="48.07308" lon="6.84026">
        <ele>709</ele>
        <time>2020-10-28T13:52:46.811Z</time>
      </trkpt>
      <trkpt lat="48.07304" lon="6.84027">
        <ele>708</ele>
        <time>2020-10-28T13:52:47.813Z</time>
      </trkpt>
      <trkpt lat="48.07292" lon="6.8403">
        <ele>700</ele>
        <time>2020-10-28T13:52:48.813Z</time>
      </trkpt>
      <trkpt lat="48.07291" lon="6.8403">
        <ele>701</ele>
        <time>2020-10-28T13:52:49.813Z</time>
      </trkpt>
      <trkpt lat="48.0729" lon="6.8403">
        <ele>701</ele>
        <time>2020-10-28T13:52:50.812Z</time>
      </trkpt>
      <trkpt lat="48.07289" lon="6.84031">
        <ele>701</ele>
        <time>2020-10-28T13:52:51.812Z</time>
      </trkpt>
      <trkpt lat="48.07288" lon="6.84033">
        <ele>700</ele>
        <time>2020-10-28T13:52:52.813Z</time>
      </trkpt>
      <trkpt lat="48.07288" lon="6.84033">
        <ele>701</ele>
        <time>2020-10-28T13:52:53.813Z</time>
      </trkpt>
      <trkpt lat="48.07288" lon="6.84033">
        <ele>701</ele>
        <time>2020-10-28T13:52:54.813Z</time>
      </trkpt>
      <trkpt lat="48.07287" lon="6.84033">
        <ele>701</ele>
        <time>2020-10-28T13:52:55.813Z</time>
      </trkpt>
      <trkpt lat="48.07287" lon="6.84033">
        <ele>700</ele>
        <time>2020-10-28T13:52:56.813Z</time>
      </trkpt>
      <trkpt lat="48.07285" lon="6.84033">
        <ele>700</ele>
        <time>2020-10-28T13:52:57.813Z</time>
      </trkpt>
      <trkpt lat="48.07284" lon="6.84031">
        <ele>700</ele>
        <time>2020-10-28T13:52:58.813Z</time>
      </trkpt>
      <trkpt lat="48.07283" lon="6.84031">
        <ele>699</ele>
        <time>2020-10-28T13:52:59.813Z</time>
      </trkpt>
      <trkpt lat="48.07282" lon="6.84029">
        <ele>699</ele>
        <time>2020-10-28T13:53:00.812Z</time>
      </trkpt>
      <trkpt lat="48.07281" lon="6.84027">
        <ele>698</ele>
        <time>2020-10-28T13:53:01.813Z</time>
      </trkpt>
      <trkpt lat="48.0728" lon="6.84026">
        <ele>697</ele>
        <time>2020-10-28T13:53:02.812Z</time>
      </trkpt>
      <trkpt lat="48.07279" lon="6.84026">
        <ele>696</ele>
        <time>2020-10-28T13:53:58.948Z</time>
      </trkpt>
      <trkpt lat="48.07279" lon="6.84026">
        <ele>696</ele>
        <time>2020-10-28T13:53:59.947Z</time>
      </trkpt>
      <trkpt lat="48.07279" lon="6.84027">
        <ele>695</ele>
        <time>2020-10-28T13:54:00.948Z</time>
      </trkpt>
      <trkpt lat="48.07279" lon="6.84027">
        <ele>694</ele>
        <time>2020-10-28T13:54:01.948Z</time>
      </trkpt>
      <trkpt lat="48.07278" lon="6.84027">
        <ele>694</ele>
        <time>2020-10-28T13:54:02.947Z</time>
      </trkpt>
      <trkpt lat="48.07278" lon="6.84027">
        <ele>693</ele>
        <time>2020-10-28T13:54:03.948Z</time>
      </trkpt>
      <trkpt lat="48.07277" lon="6.84029">
        <ele>692</ele>
        <time>2020-10-28T13:54:04.949Z</time>
      </trkpt>
      <trkpt lat="48.07275" lon="6.84031">
        <ele>692</ele>
        <time>2020-10-28T13:54:05.949Z</time>
      </trkpt>
      <trkpt lat="48.07275" lon="6.84031">
        <ele>692</ele>
        <time>2020-10-28T13:54:06.949Z</time>
      </trkpt>
      <trkpt lat="48.07274" lon="6.84032">
        <ele>692</ele>
        <time>2020-10-28T13:54:07.948Z</time>
      </trkpt>
      <trkpt lat="48.07274" lon="6.84032">
        <ele>692</ele>
        <time>2020-10-28T13:54:08.949Z</time>
      </trkpt>
      <trkpt lat="48.07275" lon="6.84033">
        <ele>692</ele>
        <time>2020-10-28T13:54:09.948Z</time>
      </trkpt>
      <trkpt lat="48.07275" lon="6.84033">
        <ele>692</ele>
        <time>2020-10-28T13:54:10.948Z</time>
      </trkpt>
      <trkpt lat="48.07274" lon="6.84033">
        <ele>691</ele>
        <time>2020-10-28T13:54:11.949Z</time>
      </trkpt>
      <trkpt lat="48.07272" lon="6.84035">
        <ele>689</ele>
        <time>2020-10-28T13:54:12.949Z</time>
      </trkpt>
      <trkpt lat="48.0727" lon="6.84036">
        <ele>689</ele>
        <time>2020-10-28T13:54:13.949Z</time>
      </trkpt>
      <trkpt lat="48.0727" lon="6.84036">
        <ele>688</ele>
        <time>2020-10-28T13:54:14.948Z</time>
      </trkpt>
      <trkpt lat="48.07269" lon="6.84035">
        <ele>687</ele>
        <time>2020-10-28T13:54:15.948Z</time>
      </trkpt>
      <trkpt lat="48.07269" lon="6.84034">
        <ele>687</ele>
        <time>2020-10-28T13:54:16.949Z</time>
      </trkpt>
      <trkpt lat="48.07269" lon="6.84034">
        <ele>686</ele>
        <time>2020-10-28T13:54:17.949Z</time>
      </trkpt>
      <trkpt lat="48.07269" lon="6.84034">
        <ele>685</ele>
        <time>2020-10-28T13:54:18.948Z</time>
      </trkpt>
      <trkpt lat="48.07269" lon="6.84034">
        <ele>684</ele>
        <time>2020-10-28T13:54:19.949Z</time>
      </trkpt>
      <trkpt lat="48.07268" lon="6.84033">
        <ele>683</ele>
        <time>2020-10-28T13:54:20.948Z</time>
      </trkpt>
      <trkpt lat="48.07268" lon="6.84033">
        <ele>683</ele>
        <time>2020-10-28T13:54:21.948Z</time>
      </trkpt>
      <trkpt lat="48.07267" lon="6.84031">
        <ele>683</ele>
        <time>2020-10-28T13:54:22.949Z</time>
      </trkpt>
      <trkpt lat="48.07267" lon="6.84029">
        <ele>682</ele>
        <time>2020-10-28T13:54:23.949Z</time>
      </trkpt>
      <trkpt lat="48.07267" lon="6.84027">
        <ele>682</ele>
        <time>2020-10-28T13:54:24.948Z</time>
      </trkpt>
      <trkpt lat="48.07267" lon="6.84025">
        <ele>682</ele>
        <time>2020-10-28T13:54:25.949Z</time>
      </trkpt>
      <trkpt lat="48.07267" lon="6.84022">
        <ele>681</ele>
        <time>2020-10-28T13:54:26.949Z</time>
      </trkpt>
      <trkpt lat="48.07267" lon="6.8402">
        <ele>680</ele>
        <time>2020-10-28T13:54:27.949Z</time>
      </trkpt>
      <trkpt lat="48.07267" lon="6.84017">
        <ele>679</ele>
        <time>2020-10-28T13:54:28.949Z</time>
      </trkpt>
      <trkpt lat="48.07268" lon="6.84015">
        <ele>678</ele>
        <time>2020-10-28T13:54:29.948Z</time>
      </trkpt>
      <trkpt lat="48.07268" lon="6.84014">
        <ele>678</ele>
        <time>2020-10-28T13:54:30.949Z</time>
      </trkpt>
      <trkpt lat="48.07268" lon="6.84012">
        <ele>677</ele>
        <time>2020-10-28T13:54:31.948Z</time>
      </trkpt>
      <trkpt lat="48.07269" lon="6.84009">
        <ele>677</ele>
        <time>2020-10-28T13:54:32.949Z</time>
      </trkpt>
      <trkpt lat="48.07269" lon="6.84007">
        <ele>676</ele>
        <time>2020-10-28T13:54:33.949Z</time>
      </trkpt>
      <trkpt lat="48.0727" lon="6.84005">
        <ele>675</ele>
        <time>2020-10-28T13:54:34.949Z</time>
      </trkpt>
      <trkpt lat="48.07271" lon="6.84003">
        <ele>675</ele>
        <time>2020-10-28T13:54:35.948Z</time>
      </trkpt>
      <trkpt lat="48.07271" lon="6.84001">
        <ele>674</ele>
        <time>2020-10-28T13:54:36.948Z</time>
      </trkpt>
      <trkpt lat="48.07271" lon="6.83999">
        <ele>673</ele>
        <time>2020-10-28T13:54:37.948Z</time>
      </trkpt>
      <trkpt lat="48.0727" lon="6.83996">
        <ele>673</ele>
        <time>2020-10-28T13:54:38.948Z</time>
      </trkpt>
      <trkpt lat="48.07269" lon="6.83996">
        <ele>673</ele>
        <time>2020-10-28T13:54:39.948Z</time>
      </trkpt>
      <trkpt lat="48.07268" lon="6.83994">
        <ele>672</ele>
        <time>2020-10-28T13:54:40.948Z</time>
      </trkpt>
      <trkpt lat="48.07267" lon="6.83993">
        <ele>673</ele>
        <time>2020-10-28T13:54:41.948Z</time>
      </trkpt>
      <trkpt lat="48.07266" lon="6.83993">
        <ele>673</ele>
        <time>2020-10-28T13:54:42.948Z</time>
      </trkpt>
      <trkpt lat="48.07265" lon="6.83992">
        <ele>673</ele>
        <time>2020-10-28T13:54:43.949Z</time>
      </trkpt>
      <trkpt lat="48.07263" lon="6.83992">
        <ele>673</ele>
        <time>2020-10-28T13:54:44.948Z</time>
      </trkpt>
      <trkpt lat="48.07262" lon="6.83992">
        <ele>673</ele>
        <time>2020-10-28T13:54:45.949Z</time>
      </trkpt>
      <trkpt lat="48.0726" lon="6.83992">
        <ele>673</ele>
        <time>2020-10-28T13:54:46.949Z</time>
      </trkpt>
      <trkpt lat="48.07259" lon="6.83992">
        <ele>673</ele>
        <time>2020-10-28T13:54:47.948Z</time>
      </trkpt>
      <trkpt lat="48.07257" lon="6.83992">
        <ele>673</ele>
        <time>2020-10-28T13:54:48.949Z</time>
      </trkpt>
      <trkpt lat="48.07256" lon="6.83992">
        <ele>673</ele>
        <time>2020-10-28T13:54:49.949Z</time>
      </trkpt>
      <trkpt lat="48.07255" lon="6.83993">
        <ele>674</ele>
        <time>2020-10-28T13:54:50.949Z</time>
      </trkpt>
      <trkpt lat="48.07254" lon="6.83994">
        <ele>674</ele>
        <time>2020-10-28T13:54:51.949Z</time>
      </trkpt>
      <trkpt lat="48.07254" lon="6.83996">
        <ele>674</ele>
        <time>2020-10-28T13:54:52.949Z</time>
      </trkpt>
      <trkpt lat="48.07254" lon="6.83998">
        <ele>674</ele>
        <time>2020-10-28T13:54:53.949Z</time>
      </trkpt>
      <trkpt lat="48.07254" lon="6.84">
        <ele>675</ele>
        <time>2020-10-28T13:54:54.949Z</time>
      </trkpt>
      <trkpt lat="48.07254" lon="6.84003">
        <ele>676</ele>
        <time>2020-10-28T13:54:55.948Z</time>
      </trkpt>
      <trkpt lat="48.07254" lon="6.84005">
        <ele>677</ele>
        <time>2020-10-28T13:54:56.949Z</time>
      </trkpt>
      <trkpt lat="48.07254" lon="6.84007">
        <ele>677</ele>
        <time>2020-10-28T13:54:57.949Z</time>
      </trkpt>
      <trkpt lat="48.07254" lon="6.84009">
        <ele>678</ele>
        <time>2020-10-28T13:54:58.949Z</time>
      </trkpt>
      <trkpt lat="48.07253" lon="6.84011">
        <ele>679</ele>
        <time>2020-10-28T13:54:59.949Z</time>
      </trkpt>
      <trkpt lat="48.07252" lon="6.8401">
        <ele>679</ele>
        <time>2020-10-28T13:55:00.948Z</time>
      </trkpt>
      <trkpt lat="48.0725" lon="6.84009">
        <ele>679</ele>
        <time>2020-10-28T13:55:01.949Z</time>
      </trkpt>
      <trkpt lat="48.07249" lon="6.84008">
        <ele>679</ele>
        <time>2020-10-28T13:55:02.949Z</time>
      </trkpt>
      <trkpt lat="48.07248" lon="6.84006">
        <ele>678</ele>
        <time>2020-10-28T13:55:03.949Z</time>
      </trkpt>
      <trkpt lat="48.07247" lon="6.84004">
        <ele>678</ele>
        <time>2020-10-28T13:55:04.949Z</time>
      </trkpt>
      <trkpt lat="48.07247" lon="6.84003">
        <ele>678</ele>
        <time>2020-10-28T13:55:05.949Z</time>
      </trkpt>
      <trkpt lat="48.07245" lon="6.84001">
        <ele>678</ele>
        <time>2020-10-28T13:55:06.949Z</time>
      </trkpt>
      <trkpt lat="48.07245" lon="6.84">
        <ele>678</ele>
        <time>2020-10-28T13:55:07.949Z</time>
      </trkpt>
      <trkpt lat="48.07244" lon="6.83998">
        <ele>678</ele>
        <time>2020-10-28T13:55:08.949Z</time>
      </trkpt>
      <trkpt lat="48.07242" lon="6.83997">
        <ele>678</ele>
        <time>2020-10-28T13:55:09.948Z</time>
      </trkpt>
      <trkpt lat="48.07241" lon="6.83995">
        <ele>677</ele>
        <time>2020-10-28T13:55:10.949Z</time>
      </trkpt>
      <trkpt lat="48.0724" lon="6.83993">
        <ele>677</ele>
        <time>2020-10-28T13:55:11.949Z</time>
      </trkpt>
      <trkpt lat="48.07239" lon="6.83991">
        <ele>677</ele>
        <time>2020-10-28T13:55:12.949Z</time>
      </trkpt>
      <trkpt lat="48.07238" lon="6.83989">
        <ele>677</ele>
        <time>2020-10-28T13:55:13.949Z</time>
      </trkpt>
      <trkpt lat="48.07238" lon="6.83987">
        <ele>676</ele>
        <time>2020-10-28T13:55:14.949Z</time>
      </trkpt>
      <trkpt lat="48.07237" lon="6.83985">
        <ele>676</ele>
        <time>2020-10-28T13:55:15.949Z</time>
      </trkpt>
      <trkpt lat="48.07236" lon="6.83984">
        <ele>675</ele>
        <time>2020-10-28T13:55:16.949Z</time>
      </trkpt>
      <trkpt lat="48.07235" lon="6.83982">
        <ele>675</ele>
        <time>2020-10-28T13:55:17.949Z</time>
      </trkpt>
      <trkpt lat="48.07234" lon="6.83981">
        <ele>674</ele>
        <time>2020-10-28T13:55:18.949Z</time>
      </trkpt>
      <trkpt lat="48.07233" lon="6.8398">
        <ele>674</ele>
        <time>2020-10-28T13:55:19.949Z</time>
      </trkpt>
      <trkpt lat="48.07232" lon="6.83979">
        <ele>674</ele>
        <time>2020-10-28T13:55:20.949Z</time>
      </trkpt>
      <trkpt lat="48.07231" lon="6.83978">
        <ele>674</ele>
        <time>2020-10-28T13:55:21.949Z</time>
      </trkpt>
      <trkpt lat="48.0723" lon="6.83977">
        <ele>674</ele>
        <time>2020-10-28T13:55:22.949Z</time>
      </trkpt>
      <trkpt lat="48.07229" lon="6.83975">
        <ele>673</ele>
        <time>2020-10-28T13:55:23.948Z</time>
      </trkpt>
      <trkpt lat="48.07227" lon="6.83974">
        <ele>673</ele>
        <time>2020-10-28T13:55:24.948Z</time>
      </trkpt>
      <trkpt lat="48.07226" lon="6.83972">
        <ele>672</ele>
        <time>2020-10-28T13:55:25.949Z</time>
      </trkpt>
      <trkpt lat="48.07225" lon="6.83971">
        <ele>671</ele>
        <time>2020-10-28T13:55:26.949Z</time>
      </trkpt>
      <trkpt lat="48.07225" lon="6.83969">
        <ele>671</ele>
        <time>2020-10-28T13:55:27.949Z</time>
      </trkpt>
      <trkpt lat="48.07224" lon="6.83967">
        <ele>671</ele>
        <time>2020-10-28T13:55:28.949Z</time>
      </trkpt>
      <trkpt lat="48.07223" lon="6.83965">
        <ele>670</ele>
        <time>2020-10-28T13:55:29.949Z</time>
      </trkpt>
      <trkpt lat="48.07222" lon="6.83964">
        <ele>670</ele>
        <time>2020-10-28T13:55:30.949Z</time>
      </trkpt>
      <trkpt lat="48.07221" lon="6.83962">
        <ele>670</ele>
        <time>2020-10-28T13:55:31.949Z</time>
      </trkpt>
      <trkpt lat="48.0722" lon="6.83961">
        <ele>670</ele>
        <time>2020-10-28T13:55:32.949Z</time>
      </trkpt>
      <trkpt lat="48.07219" lon="6.83959">
        <ele>670</ele>
        <time>2020-10-28T13:55:33.949Z</time>
      </trkpt>
      <trkpt lat="48.07218" lon="6.83958">
        <ele>670</ele>
        <time>2020-10-28T13:55:34.949Z</time>
      </trkpt>
      <trkpt lat="48.07217" lon="6.83956">
        <ele>670</ele>
        <time>2020-10-28T13:55:35.949Z</time>
      </trkpt>
      <trkpt lat="48.07216" lon="6.83955">
        <ele>670</ele>
        <time>2020-10-28T13:55:36.949Z</time>
      </trkpt>
      <trkpt lat="48.07216" lon="6.83953">
        <ele>670</ele>
        <time>2020-10-28T13:55:37.949Z</time>
      </trkpt>
      <trkpt lat="48.07215" lon="6.83952">
        <ele>670</ele>
        <time>2020-10-28T13:55:38.949Z</time>
      </trkpt>
      <trkpt lat="48.07213" lon="6.8395">
        <ele>670</ele>
        <time>2020-10-28T13:55:39.949Z</time>
      </trkpt>
      <trkpt lat="48.07212" lon="6.83949">
        <ele>670</ele>
        <time>2020-10-28T13:55:40.948Z</time>
      </trkpt>
      <trkpt lat="48.07211" lon="6.83947">
        <ele>670</ele>
        <time>2020-10-28T13:55:41.949Z</time>
      </trkpt>
      <trkpt lat="48.07211" lon="6.83946">
        <ele>670</ele>
        <time>2020-10-28T13:55:42.949Z</time>
      </trkpt>
      <trkpt lat="48.0721" lon="6.83944">
        <ele>670</ele>
        <time>2020-10-28T13:55:43.949Z</time>
      </trkpt>
      <trkpt lat="48.07209" lon="6.83943">
        <ele>670</ele>
        <time>2020-10-28T13:55:44.948Z</time>
      </trkpt>
      <trkpt lat="48.07208" lon="6.83942">
        <ele>669</ele>
        <time>2020-10-28T13:55:45.949Z</time>
      </trkpt>
      <trkpt lat="48.07207" lon="6.8394">
        <ele>669</ele>
        <time>2020-10-28T13:55:46.949Z</time>
      </trkpt>
      <trkpt lat="48.07206" lon="6.83939">
        <ele>669</ele>
        <time>2020-10-28T13:55:47.949Z</time>
      </trkpt>
      <trkpt lat="48.07205" lon="6.83937">
        <ele>669</ele>
        <time>2020-10-28T13:55:48.949Z</time>
      </trkpt>
      <trkpt lat="48.07205" lon="6.83936">
        <ele>670</ele>
        <time>2020-10-28T13:55:49.948Z</time>
      </trkpt>
      <trkpt lat="48.07204" lon="6.83934">
        <ele>669</ele>
        <time>2020-10-28T13:55:50.948Z</time>
      </trkpt>
      <trkpt lat="48.07203" lon="6.83933">
        <ele>669</ele>
        <time>2020-10-28T13:55:51.949Z</time>
      </trkpt>
      <trkpt lat="48.07202" lon="6.83932">
        <ele>668</ele>
        <time>2020-10-28T13:55:52.949Z</time>
      </trkpt>
      <trkpt lat="48.07201" lon="6.8393">
        <ele>668</ele>
        <time>2020-10-28T13:55:53.948Z</time>
      </trkpt>
      <trkpt lat="48.072" lon="6.83929">
        <ele>668</ele>
        <time>2020-10-28T13:55:54.949Z</time>
      </trkpt>
      <trkpt lat="48.07199" lon="6.83928">
        <ele>667</ele>
        <time>2020-10-28T13:55:55.949Z</time>
      </trkpt>
      <trkpt lat="48.07199" lon="6.83926">
        <ele>667</ele>
        <time>2020-10-28T13:55:56.949Z</time>
      </trkpt>
      <trkpt lat="48.07198" lon="6.83925">
        <ele>666</ele>
        <time>2020-10-28T13:55:57.949Z</time>
      </trkpt>
      <trkpt lat="48.07198" lon="6.83924">
        <ele>666</ele>
        <time>2020-10-28T13:55:58.949Z</time>
      </trkpt>
      <trkpt lat="48.07197" lon="6.83923">
        <ele>666</ele>
        <time>2020-10-28T13:55:59.949Z</time>
      </trkpt>
      <trkpt lat="48.07196" lon="6.83922">
        <ele>666</ele>
        <time>2020-10-28T13:56:00.949Z</time>
      </trkpt>
      <trkpt lat="48.07196" lon="6.83921">
        <ele>666</ele>
        <time>2020-10-28T13:56:01.949Z</time>
      </trkpt>
      <trkpt lat="48.07196" lon="6.8392">
        <ele>666</ele>
        <time>2020-10-28T13:56:02.948Z</time>
      </trkpt>
      <trkpt lat="48.07196" lon="6.8392">
        <ele>665</ele>
        <time>2020-10-28T13:56:03.948Z</time>
      </trkpt>
      <trkpt lat="48.07196" lon="6.83919">
        <ele>664</ele>
        <time>2020-10-28T13:56:04.949Z</time>
      </trkpt>
      <trkpt lat="48.07196" lon="6.83919">
        <ele>664</ele>
        <time>2020-10-28T13:56:05.948Z</time>
      </trkpt>
      <trkpt lat="48.07196" lon="6.83918">
        <ele>664</ele>
        <time>2020-10-28T13:56:06.948Z</time>
      </trkpt>
      <trkpt lat="48.07196" lon="6.83918">
        <ele>665</ele>
        <time>2020-10-28T13:56:07.949Z</time>
      </trkpt>
      <trkpt lat="48.07196" lon="6.83919">
        <ele>665</ele>
        <time>2020-10-28T13:56:08.950Z</time>
      </trkpt>
      <trkpt lat="48.07196" lon="6.83919">
        <ele>664</ele>
        <time>2020-10-28T13:56:09.949Z</time>
      </trkpt>
    </trkseg>
  </trk>
</gpx>